<?xml version="1.0" encoding="UTF-8" standalone="no" ?>
<gpx xmlns="http://www.topografix.com/GPX/1/1" xmlns:xsi="http://www.w3.org/2001/XMLSchema-instance" xsi:schemaLocation="http://www.topografix.com/GPX/1/1 http://www.topografix.com/GPX/1/1/gpx.xsd" version="1.1" creator="VisuGPX - https://www.visugpx.com">
  <metadata>
    <name>2025-10-25 Sermaise</name>
    <desc><![CDATA[Briis, la licorne, le marais, Sermaise, st Cheron, breux jouy, Folleville, courson]]></desc>
  </metadata>
  <trk>
    <name><![CDATA[2025-10-25 Sermaise_1]]></name>
    <trkseg>
      <trkpt lat="48.61496" lon="2.10712">
        <ele>112.2</ele>
        <time>2025-10-25T08:05:26Z</time>
      </trkpt>
      <trkpt lat="48.61494" lon="2.10711">
        <ele>112</ele>
        <time>2025-10-25T08:05:28Z</time>
      </trkpt>
      <trkpt lat="48.61492" lon="2.10709">
        <ele>111.8</ele>
        <time>2025-10-25T08:05:30Z</time>
      </trkpt>
      <trkpt lat="48.6149" lon="2.10707">
        <ele>111.6</ele>
        <time>2025-10-25T08:05:32Z</time>
      </trkpt>
      <trkpt lat="48.61488" lon="2.10705">
        <ele>111.4</ele>
        <time>2025-10-25T08:05:34Z</time>
      </trkpt>
      <trkpt lat="48.61487" lon="2.10702">
        <ele>111.2</ele>
        <time>2025-10-25T08:05:36Z</time>
      </trkpt>
      <trkpt lat="48.61485" lon="2.107">
        <ele>111</ele>
        <time>2025-10-25T08:05:38Z</time>
      </trkpt>
      <trkpt lat="48.61484" lon="2.10697">
        <ele>110.8</ele>
        <time>2025-10-25T08:05:40Z</time>
      </trkpt>
      <trkpt lat="48.61482" lon="2.10694">
        <ele>110.4</ele>
        <time>2025-10-25T08:05:42Z</time>
      </trkpt>
      <trkpt lat="48.6148" lon="2.10691">
        <ele>110.2</ele>
        <time>2025-10-25T08:05:44Z</time>
      </trkpt>
      <trkpt lat="48.61478" lon="2.10688">
        <ele>110</ele>
        <time>2025-10-25T08:05:46Z</time>
      </trkpt>
      <trkpt lat="48.61476" lon="2.10685">
        <ele>109.8</ele>
        <time>2025-10-25T08:05:48Z</time>
      </trkpt>
      <trkpt lat="48.61475" lon="2.10682">
        <ele>109.4</ele>
        <time>2025-10-25T08:05:50Z</time>
      </trkpt>
      <trkpt lat="48.61473" lon="2.10678">
        <ele>109.2</ele>
        <time>2025-10-25T08:05:52Z</time>
      </trkpt>
      <trkpt lat="48.6147" lon="2.10675">
        <ele>109</ele>
        <time>2025-10-25T08:05:54Z</time>
      </trkpt>
      <trkpt lat="48.61468" lon="2.10672">
        <ele>108.8</ele>
        <time>2025-10-25T08:05:56Z</time>
      </trkpt>
      <trkpt lat="48.61467" lon="2.10668">
        <ele>108.8</ele>
        <time>2025-10-25T08:05:58Z</time>
      </trkpt>
      <trkpt lat="48.61465" lon="2.10665">
        <ele>108.8</ele>
        <time>2025-10-25T08:06:00Z</time>
      </trkpt>
      <trkpt lat="48.61463" lon="2.10662">
        <ele>108.8</ele>
        <time>2025-10-25T08:06:02Z</time>
      </trkpt>
      <trkpt lat="48.61461" lon="2.10659">
        <ele>108.6</ele>
        <time>2025-10-25T08:06:04Z</time>
      </trkpt>
      <trkpt lat="48.61459" lon="2.10657">
        <ele>108.6</ele>
        <time>2025-10-25T08:06:06Z</time>
      </trkpt>
      <trkpt lat="48.61458" lon="2.10654">
        <ele>108.4</ele>
        <time>2025-10-25T08:06:08Z</time>
      </trkpt>
      <trkpt lat="48.61456" lon="2.10651">
        <ele>108.2</ele>
        <time>2025-10-25T08:06:10Z</time>
      </trkpt>
      <trkpt lat="48.61454" lon="2.10648">
        <ele>108</ele>
        <time>2025-10-25T08:06:12Z</time>
      </trkpt>
      <trkpt lat="48.61452" lon="2.10645">
        <ele>107.6</ele>
        <time>2025-10-25T08:06:14Z</time>
      </trkpt>
      <trkpt lat="48.6145" lon="2.10642">
        <ele>107.2</ele>
        <time>2025-10-25T08:06:16Z</time>
      </trkpt>
      <trkpt lat="48.61449" lon="2.10639">
        <ele>107.2</ele>
        <time>2025-10-25T08:06:18Z</time>
      </trkpt>
      <trkpt lat="48.61448" lon="2.10635">
        <ele>107</ele>
        <time>2025-10-25T08:06:20Z</time>
      </trkpt>
      <trkpt lat="48.61446" lon="2.10631">
        <ele>107</ele>
        <time>2025-10-25T08:06:22Z</time>
      </trkpt>
      <trkpt lat="48.61444" lon="2.10628">
        <ele>106.8</ele>
        <time>2025-10-25T08:06:24Z</time>
      </trkpt>
      <trkpt lat="48.61442" lon="2.10625">
        <ele>106.8</ele>
        <time>2025-10-25T08:06:26Z</time>
      </trkpt>
      <trkpt lat="48.61439" lon="2.10623">
        <ele>106.8</ele>
        <time>2025-10-25T08:06:28Z</time>
      </trkpt>
      <trkpt lat="48.61437" lon="2.1062">
        <ele>106.8</ele>
        <time>2025-10-25T08:06:30Z</time>
      </trkpt>
      <trkpt lat="48.61436" lon="2.10618">
        <ele>106.6</ele>
        <time>2025-10-25T08:06:32Z</time>
      </trkpt>
      <trkpt lat="48.61434" lon="2.10615">
        <ele>106.6</ele>
        <time>2025-10-25T08:06:34Z</time>
      </trkpt>
      <trkpt lat="48.61433" lon="2.10613">
        <ele>106.4</ele>
        <time>2025-10-25T08:06:36Z</time>
      </trkpt>
      <trkpt lat="48.61432" lon="2.1061">
        <ele>106.4</ele>
        <time>2025-10-25T08:06:38Z</time>
      </trkpt>
      <trkpt lat="48.6143" lon="2.10607">
        <ele>106.2</ele>
        <time>2025-10-25T08:06:40Z</time>
      </trkpt>
      <trkpt lat="48.61428" lon="2.10604">
        <ele>106.2</ele>
        <time>2025-10-25T08:06:42Z</time>
      </trkpt>
      <trkpt lat="48.61426" lon="2.106">
        <ele>106</ele>
        <time>2025-10-25T08:06:44Z</time>
      </trkpt>
      <trkpt lat="48.61425" lon="2.10599">
        <ele>106</ele>
        <time>2025-10-25T08:06:45Z</time>
      </trkpt>
      <trkpt lat="48.61422" lon="2.10596">
        <ele>106</ele>
        <time>2025-10-25T08:06:47Z</time>
      </trkpt>
      <trkpt lat="48.6142" lon="2.10593">
        <ele>106</ele>
        <time>2025-10-25T08:06:49Z</time>
      </trkpt>
      <trkpt lat="48.61417" lon="2.10591">
        <ele>106</ele>
        <time>2025-10-25T08:06:51Z</time>
      </trkpt>
      <trkpt lat="48.61415" lon="2.10589">
        <ele>105.8</ele>
        <time>2025-10-25T08:06:53Z</time>
      </trkpt>
      <trkpt lat="48.61413" lon="2.10587">
        <ele>105.8</ele>
        <time>2025-10-25T08:06:55Z</time>
      </trkpt>
      <trkpt lat="48.61411" lon="2.10584">
        <ele>106</ele>
        <time>2025-10-25T08:06:57Z</time>
      </trkpt>
      <trkpt lat="48.61409" lon="2.10582">
        <ele>106</ele>
        <time>2025-10-25T08:06:59Z</time>
      </trkpt>
      <trkpt lat="48.61407" lon="2.10579">
        <ele>106</ele>
        <time>2025-10-25T08:07:01Z</time>
      </trkpt>
      <trkpt lat="48.61405" lon="2.10577">
        <ele>106</ele>
        <time>2025-10-25T08:07:03Z</time>
      </trkpt>
      <trkpt lat="48.61404" lon="2.10574">
        <ele>106.2</ele>
        <time>2025-10-25T08:07:05Z</time>
      </trkpt>
      <trkpt lat="48.61402" lon="2.10572">
        <ele>106.2</ele>
        <time>2025-10-25T08:07:07Z</time>
      </trkpt>
      <trkpt lat="48.61399" lon="2.10569">
        <ele>106.2</ele>
        <time>2025-10-25T08:07:09Z</time>
      </trkpt>
      <trkpt lat="48.61397" lon="2.10566">
        <ele>106.2</ele>
        <time>2025-10-25T08:07:11Z</time>
      </trkpt>
      <trkpt lat="48.61395" lon="2.10564">
        <ele>106.4</ele>
        <time>2025-10-25T08:07:13Z</time>
      </trkpt>
      <trkpt lat="48.61393" lon="2.10561">
        <ele>106.4</ele>
        <time>2025-10-25T08:07:15Z</time>
      </trkpt>
      <trkpt lat="48.61391" lon="2.10559">
        <ele>106.4</ele>
        <time>2025-10-25T08:07:17Z</time>
      </trkpt>
      <trkpt lat="48.61388" lon="2.10557">
        <ele>106.2</ele>
        <time>2025-10-25T08:07:19Z</time>
      </trkpt>
      <trkpt lat="48.61386" lon="2.10555">
        <ele>106.2</ele>
        <time>2025-10-25T08:07:21Z</time>
      </trkpt>
      <trkpt lat="48.61383" lon="2.10553">
        <ele>106</ele>
        <time>2025-10-25T08:07:23Z</time>
      </trkpt>
      <trkpt lat="48.61381" lon="2.10551">
        <ele>105.8</ele>
        <time>2025-10-25T08:07:25Z</time>
      </trkpt>
      <trkpt lat="48.61379" lon="2.10549">
        <ele>105.8</ele>
        <time>2025-10-25T08:07:27Z</time>
      </trkpt>
      <trkpt lat="48.61376" lon="2.10547">
        <ele>105.6</ele>
        <time>2025-10-25T08:07:29Z</time>
      </trkpt>
      <trkpt lat="48.61373" lon="2.10545">
        <ele>105.6</ele>
        <time>2025-10-25T08:07:31Z</time>
      </trkpt>
      <trkpt lat="48.61371" lon="2.10543">
        <ele>105.4</ele>
        <time>2025-10-25T08:07:33Z</time>
      </trkpt>
      <trkpt lat="48.61369" lon="2.10541">
        <ele>105.6</ele>
        <time>2025-10-25T08:07:35Z</time>
      </trkpt>
      <trkpt lat="48.61366" lon="2.1054">
        <ele>105.6</ele>
        <time>2025-10-25T08:07:37Z</time>
      </trkpt>
      <trkpt lat="48.61364" lon="2.10538">
        <ele>105.6</ele>
        <time>2025-10-25T08:07:39Z</time>
      </trkpt>
      <trkpt lat="48.61361" lon="2.10537">
        <ele>105.6</ele>
        <time>2025-10-25T08:07:41Z</time>
      </trkpt>
      <trkpt lat="48.61359" lon="2.10537">
        <ele>105.8</ele>
        <time>2025-10-25T08:07:43Z</time>
      </trkpt>
      <trkpt lat="48.61356" lon="2.10536">
        <ele>105.8</ele>
        <time>2025-10-25T08:07:45Z</time>
      </trkpt>
      <trkpt lat="48.61354" lon="2.10536">
        <ele>105.8</ele>
        <time>2025-10-25T08:07:47Z</time>
      </trkpt>
      <trkpt lat="48.61351" lon="2.10536">
        <ele>105.6</ele>
        <time>2025-10-25T08:07:49Z</time>
      </trkpt>
      <trkpt lat="48.61349" lon="2.10536">
        <ele>105.4</ele>
        <time>2025-10-25T08:07:51Z</time>
      </trkpt>
      <trkpt lat="48.61347" lon="2.10535">
        <ele>105.4</ele>
        <time>2025-10-25T08:07:53Z</time>
      </trkpt>
      <trkpt lat="48.61345" lon="2.10535">
        <ele>105.2</ele>
        <time>2025-10-25T08:07:55Z</time>
      </trkpt>
      <trkpt lat="48.61342" lon="2.10534">
        <ele>105.2</ele>
        <time>2025-10-25T08:07:57Z</time>
      </trkpt>
      <trkpt lat="48.61339" lon="2.10534">
        <ele>105</ele>
        <time>2025-10-25T08:07:59Z</time>
      </trkpt>
      <trkpt lat="48.61337" lon="2.10533">
        <ele>104.8</ele>
        <time>2025-10-25T08:08:01Z</time>
      </trkpt>
      <trkpt lat="48.61334" lon="2.10533">
        <ele>104.8</ele>
        <time>2025-10-25T08:08:03Z</time>
      </trkpt>
      <trkpt lat="48.61331" lon="2.10532">
        <ele>104.8</ele>
        <time>2025-10-25T08:08:05Z</time>
      </trkpt>
      <trkpt lat="48.61328" lon="2.10532">
        <ele>104.6</ele>
        <time>2025-10-25T08:08:07Z</time>
      </trkpt>
      <trkpt lat="48.61325" lon="2.10532">
        <ele>104.6</ele>
        <time>2025-10-25T08:08:09Z</time>
      </trkpt>
      <trkpt lat="48.61323" lon="2.10532">
        <ele>104.6</ele>
        <time>2025-10-25T08:08:11Z</time>
      </trkpt>
      <trkpt lat="48.61319" lon="2.10532">
        <ele>104.6</ele>
        <time>2025-10-25T08:08:13Z</time>
      </trkpt>
      <trkpt lat="48.61317" lon="2.10532">
        <ele>104.6</ele>
        <time>2025-10-25T08:08:15Z</time>
      </trkpt>
      <trkpt lat="48.61314" lon="2.10532">
        <ele>104.6</ele>
        <time>2025-10-25T08:08:17Z</time>
      </trkpt>
      <trkpt lat="48.61311" lon="2.10532">
        <ele>104.8</ele>
        <time>2025-10-25T08:08:19Z</time>
      </trkpt>
      <trkpt lat="48.61309" lon="2.10531">
        <ele>104.8</ele>
        <time>2025-10-25T08:08:21Z</time>
      </trkpt>
      <trkpt lat="48.61306" lon="2.10531">
        <ele>105</ele>
        <time>2025-10-25T08:08:23Z</time>
      </trkpt>
      <trkpt lat="48.61303" lon="2.1053">
        <ele>105.2</ele>
        <time>2025-10-25T08:08:25Z</time>
      </trkpt>
      <trkpt lat="48.61301" lon="2.1053">
        <ele>105.2</ele>
        <time>2025-10-25T08:08:27Z</time>
      </trkpt>
      <trkpt lat="48.61298" lon="2.10529">
        <ele>105.4</ele>
        <time>2025-10-25T08:08:29Z</time>
      </trkpt>
      <trkpt lat="48.61295" lon="2.1053">
        <ele>105.6</ele>
        <time>2025-10-25T08:08:31Z</time>
      </trkpt>
      <trkpt lat="48.61293" lon="2.1053">
        <ele>105.6</ele>
        <time>2025-10-25T08:08:33Z</time>
      </trkpt>
      <trkpt lat="48.6129" lon="2.1053">
        <ele>105.6</ele>
        <time>2025-10-25T08:08:35Z</time>
      </trkpt>
      <trkpt lat="48.61288" lon="2.1053">
        <ele>105.8</ele>
        <time>2025-10-25T08:08:37Z</time>
      </trkpt>
      <trkpt lat="48.61286" lon="2.1053">
        <ele>105.8</ele>
        <time>2025-10-25T08:08:39Z</time>
      </trkpt>
      <trkpt lat="48.61284" lon="2.1053">
        <ele>105.8</ele>
        <time>2025-10-25T08:08:41Z</time>
      </trkpt>
      <trkpt lat="48.61281" lon="2.1053">
        <ele>106</ele>
        <time>2025-10-25T08:08:43Z</time>
      </trkpt>
      <trkpt lat="48.61278" lon="2.1053">
        <ele>105.8</ele>
        <time>2025-10-25T08:08:45Z</time>
      </trkpt>
      <trkpt lat="48.61276" lon="2.1053">
        <ele>105.8</ele>
        <time>2025-10-25T08:08:47Z</time>
      </trkpt>
      <trkpt lat="48.61273" lon="2.10531">
        <ele>106</ele>
        <time>2025-10-25T08:08:49Z</time>
      </trkpt>
      <trkpt lat="48.6127" lon="2.10531">
        <ele>106</ele>
        <time>2025-10-25T08:08:51Z</time>
      </trkpt>
      <trkpt lat="48.61268" lon="2.10531">
        <ele>106.2</ele>
        <time>2025-10-25T08:08:53Z</time>
      </trkpt>
      <trkpt lat="48.61265" lon="2.10531">
        <ele>106.2</ele>
        <time>2025-10-25T08:08:55Z</time>
      </trkpt>
      <trkpt lat="48.61262" lon="2.1053">
        <ele>106</ele>
        <time>2025-10-25T08:08:57Z</time>
      </trkpt>
      <trkpt lat="48.61259" lon="2.1053">
        <ele>106</ele>
        <time>2025-10-25T08:08:59Z</time>
      </trkpt>
      <trkpt lat="48.61256" lon="2.10529">
        <ele>106.2</ele>
        <time>2025-10-25T08:09:01Z</time>
      </trkpt>
      <trkpt lat="48.61253" lon="2.10529">
        <ele>106.2</ele>
        <time>2025-10-25T08:09:03Z</time>
      </trkpt>
      <trkpt lat="48.61251" lon="2.10528">
        <ele>106.4</ele>
        <time>2025-10-25T08:09:05Z</time>
      </trkpt>
      <trkpt lat="48.61248" lon="2.10528">
        <ele>106.6</ele>
        <time>2025-10-25T08:09:07Z</time>
      </trkpt>
      <trkpt lat="48.61245" lon="2.10528">
        <ele>106.6</ele>
        <time>2025-10-25T08:09:09Z</time>
      </trkpt>
      <trkpt lat="48.61243" lon="2.10528">
        <ele>106.6</ele>
        <time>2025-10-25T08:09:11Z</time>
      </trkpt>
      <trkpt lat="48.6124" lon="2.10528">
        <ele>106.6</ele>
        <time>2025-10-25T08:09:13Z</time>
      </trkpt>
      <trkpt lat="48.61237" lon="2.10527">
        <ele>106.8</ele>
        <time>2025-10-25T08:09:15Z</time>
      </trkpt>
      <trkpt lat="48.61235" lon="2.10527">
        <ele>106.8</ele>
        <time>2025-10-25T08:09:17Z</time>
      </trkpt>
      <trkpt lat="48.61232" lon="2.10527">
        <ele>106.8</ele>
        <time>2025-10-25T08:09:19Z</time>
      </trkpt>
      <trkpt lat="48.6123" lon="2.10526">
        <ele>107</ele>
        <time>2025-10-25T08:09:21Z</time>
      </trkpt>
      <trkpt lat="48.61227" lon="2.10526">
        <ele>107.2</ele>
        <time>2025-10-25T08:09:23Z</time>
      </trkpt>
      <trkpt lat="48.61224" lon="2.10525">
        <ele>107.4</ele>
        <time>2025-10-25T08:09:25Z</time>
      </trkpt>
      <trkpt lat="48.61222" lon="2.10525">
        <ele>107.6</ele>
        <time>2025-10-25T08:09:27Z</time>
      </trkpt>
      <trkpt lat="48.61219" lon="2.10524">
        <ele>107.8</ele>
        <time>2025-10-25T08:09:29Z</time>
      </trkpt>
      <trkpt lat="48.61216" lon="2.10524">
        <ele>107.8</ele>
        <time>2025-10-25T08:09:31Z</time>
      </trkpt>
      <trkpt lat="48.61214" lon="2.10524">
        <ele>108</ele>
        <time>2025-10-25T08:09:33Z</time>
      </trkpt>
      <trkpt lat="48.61212" lon="2.10524">
        <ele>108</ele>
        <time>2025-10-25T08:09:35Z</time>
      </trkpt>
      <trkpt lat="48.61209" lon="2.10524">
        <ele>107.8</ele>
        <time>2025-10-25T08:09:37Z</time>
      </trkpt>
      <trkpt lat="48.61206" lon="2.10523">
        <ele>108</ele>
        <time>2025-10-25T08:09:39Z</time>
      </trkpt>
      <trkpt lat="48.61204" lon="2.10523">
        <ele>108</ele>
        <time>2025-10-25T08:09:41Z</time>
      </trkpt>
      <trkpt lat="48.612" lon="2.10522">
        <ele>108</ele>
        <time>2025-10-25T08:09:43Z</time>
      </trkpt>
      <trkpt lat="48.61198" lon="2.10522">
        <ele>108.2</ele>
        <time>2025-10-25T08:09:45Z</time>
      </trkpt>
      <trkpt lat="48.61196" lon="2.10522">
        <ele>108.2</ele>
        <time>2025-10-25T08:09:47Z</time>
      </trkpt>
      <trkpt lat="48.61193" lon="2.10522">
        <ele>108.4</ele>
        <time>2025-10-25T08:09:49Z</time>
      </trkpt>
      <trkpt lat="48.6119" lon="2.10522">
        <ele>108.4</ele>
        <time>2025-10-25T08:09:51Z</time>
      </trkpt>
      <trkpt lat="48.61188" lon="2.10521">
        <ele>108.6</ele>
        <time>2025-10-25T08:09:53Z</time>
      </trkpt>
      <trkpt lat="48.61185" lon="2.10521">
        <ele>108.6</ele>
        <time>2025-10-25T08:09:55Z</time>
      </trkpt>
      <trkpt lat="48.61182" lon="2.10521">
        <ele>108.8</ele>
        <time>2025-10-25T08:09:57Z</time>
      </trkpt>
      <trkpt lat="48.61179" lon="2.1052">
        <ele>108.8</ele>
        <time>2025-10-25T08:09:59Z</time>
      </trkpt>
      <trkpt lat="48.61177" lon="2.1052">
        <ele>109</ele>
        <time>2025-10-25T08:10:01Z</time>
      </trkpt>
      <trkpt lat="48.61174" lon="2.1052">
        <ele>109.2</ele>
        <time>2025-10-25T08:10:03Z</time>
      </trkpt>
      <trkpt lat="48.61171" lon="2.10519">
        <ele>109.2</ele>
        <time>2025-10-25T08:10:05Z</time>
      </trkpt>
      <trkpt lat="48.61169" lon="2.10519">
        <ele>109.2</ele>
        <time>2025-10-25T08:10:07Z</time>
      </trkpt>
      <trkpt lat="48.61166" lon="2.10519">
        <ele>109.4</ele>
        <time>2025-10-25T08:10:09Z</time>
      </trkpt>
      <trkpt lat="48.61164" lon="2.10518">
        <ele>109.4</ele>
        <time>2025-10-25T08:10:11Z</time>
      </trkpt>
      <trkpt lat="48.61161" lon="2.10518">
        <ele>109.4</ele>
        <time>2025-10-25T08:10:13Z</time>
      </trkpt>
      <trkpt lat="48.61158" lon="2.10518">
        <ele>109.6</ele>
        <time>2025-10-25T08:10:15Z</time>
      </trkpt>
      <trkpt lat="48.61156" lon="2.10517">
        <ele>109.8</ele>
        <time>2025-10-25T08:10:17Z</time>
      </trkpt>
      <trkpt lat="48.61153" lon="2.10517">
        <ele>110</ele>
        <time>2025-10-25T08:10:19Z</time>
      </trkpt>
      <trkpt lat="48.6115" lon="2.10516">
        <ele>110.2</ele>
        <time>2025-10-25T08:10:21Z</time>
      </trkpt>
      <trkpt lat="48.61148" lon="2.10516">
        <ele>110.2</ele>
        <time>2025-10-25T08:10:23Z</time>
      </trkpt>
      <trkpt lat="48.61145" lon="2.10517">
        <ele>110.4</ele>
        <time>2025-10-25T08:10:25Z</time>
      </trkpt>
      <trkpt lat="48.61141" lon="2.10517">
        <ele>110.6</ele>
        <time>2025-10-25T08:10:27Z</time>
      </trkpt>
      <trkpt lat="48.61139" lon="2.10516">
        <ele>110.8</ele>
        <time>2025-10-25T08:10:29Z</time>
      </trkpt>
      <trkpt lat="48.61136" lon="2.10516">
        <ele>110.8</ele>
        <time>2025-10-25T08:10:31Z</time>
      </trkpt>
      <trkpt lat="48.61133" lon="2.10515">
        <ele>110.8</ele>
        <time>2025-10-25T08:10:33Z</time>
      </trkpt>
      <trkpt lat="48.6113" lon="2.10515">
        <ele>111</ele>
        <time>2025-10-25T08:10:35Z</time>
      </trkpt>
      <trkpt lat="48.61127" lon="2.10515">
        <ele>110.8</ele>
        <time>2025-10-25T08:10:37Z</time>
      </trkpt>
      <trkpt lat="48.61125" lon="2.10514">
        <ele>110.8</ele>
        <time>2025-10-25T08:10:39Z</time>
      </trkpt>
      <trkpt lat="48.61123" lon="2.10514">
        <ele>110.6</ele>
        <time>2025-10-25T08:10:41Z</time>
      </trkpt>
      <trkpt lat="48.6112" lon="2.10514">
        <ele>110.8</ele>
        <time>2025-10-25T08:10:43Z</time>
      </trkpt>
      <trkpt lat="48.61117" lon="2.10514">
        <ele>110.8</ele>
        <time>2025-10-25T08:10:45Z</time>
      </trkpt>
      <trkpt lat="48.61115" lon="2.10514">
        <ele>111</ele>
        <time>2025-10-25T08:10:47Z</time>
      </trkpt>
      <trkpt lat="48.61113" lon="2.10514">
        <ele>111.2</ele>
        <time>2025-10-25T08:10:49Z</time>
      </trkpt>
      <trkpt lat="48.61111" lon="2.10513">
        <ele>111.2</ele>
        <time>2025-10-25T08:10:51Z</time>
      </trkpt>
      <trkpt lat="48.61108" lon="2.10513">
        <ele>111.2</ele>
        <time>2025-10-25T08:10:53Z</time>
      </trkpt>
      <trkpt lat="48.61106" lon="2.10512">
        <ele>111.2</ele>
        <time>2025-10-25T08:10:55Z</time>
      </trkpt>
      <trkpt lat="48.61103" lon="2.10511">
        <ele>111.2</ele>
        <time>2025-10-25T08:10:57Z</time>
      </trkpt>
      <trkpt lat="48.61101" lon="2.10511">
        <ele>111.2</ele>
        <time>2025-10-25T08:10:58Z</time>
      </trkpt>
      <trkpt lat="48.61097" lon="2.1051">
        <ele>111.2</ele>
        <time>2025-10-25T08:11:00Z</time>
      </trkpt>
      <trkpt lat="48.61095" lon="2.1051">
        <ele>111.2</ele>
        <time>2025-10-25T08:11:01Z</time>
      </trkpt>
      <trkpt lat="48.61092" lon="2.10511">
        <ele>111</ele>
        <time>2025-10-25T08:11:03Z</time>
      </trkpt>
      <trkpt lat="48.61089" lon="2.10511">
        <ele>111.2</ele>
        <time>2025-10-25T08:11:05Z</time>
      </trkpt>
      <trkpt lat="48.61087" lon="2.10511">
        <ele>111.4</ele>
        <time>2025-10-25T08:11:07Z</time>
      </trkpt>
      <trkpt lat="48.61084" lon="2.10511">
        <ele>111.4</ele>
        <time>2025-10-25T08:11:09Z</time>
      </trkpt>
      <trkpt lat="48.61082" lon="2.1051">
        <ele>111.6</ele>
        <time>2025-10-25T08:11:11Z</time>
      </trkpt>
      <trkpt lat="48.61079" lon="2.1051">
        <ele>111.8</ele>
        <time>2025-10-25T08:11:13Z</time>
      </trkpt>
      <trkpt lat="48.61077" lon="2.1051">
        <ele>112</ele>
        <time>2025-10-25T08:11:15Z</time>
      </trkpt>
      <trkpt lat="48.61074" lon="2.1051">
        <ele>112.2</ele>
        <time>2025-10-25T08:11:17Z</time>
      </trkpt>
      <trkpt lat="48.61071" lon="2.10511">
        <ele>112.4</ele>
        <time>2025-10-25T08:11:19Z</time>
      </trkpt>
      <trkpt lat="48.61069" lon="2.10511">
        <ele>112.6</ele>
        <time>2025-10-25T08:11:21Z</time>
      </trkpt>
      <trkpt lat="48.61066" lon="2.10511">
        <ele>112.8</ele>
        <time>2025-10-25T08:11:23Z</time>
      </trkpt>
      <trkpt lat="48.61064" lon="2.10511">
        <ele>112.8</ele>
        <time>2025-10-25T08:11:25Z</time>
      </trkpt>
      <trkpt lat="48.61061" lon="2.10511">
        <ele>113</ele>
        <time>2025-10-25T08:11:27Z</time>
      </trkpt>
      <trkpt lat="48.61059" lon="2.10512">
        <ele>113.2</ele>
        <time>2025-10-25T08:11:29Z</time>
      </trkpt>
      <trkpt lat="48.61056" lon="2.10512">
        <ele>113.6</ele>
        <time>2025-10-25T08:11:31Z</time>
      </trkpt>
      <trkpt lat="48.61053" lon="2.10511">
        <ele>113.8</ele>
        <time>2025-10-25T08:11:33Z</time>
      </trkpt>
      <trkpt lat="48.6105" lon="2.10511">
        <ele>114</ele>
        <time>2025-10-25T08:11:35Z</time>
      </trkpt>
      <trkpt lat="48.61047" lon="2.1051">
        <ele>114</ele>
        <time>2025-10-25T08:11:37Z</time>
      </trkpt>
      <trkpt lat="48.61044" lon="2.1051">
        <ele>114</ele>
        <time>2025-10-25T08:11:39Z</time>
      </trkpt>
      <trkpt lat="48.61041" lon="2.1051">
        <ele>114</ele>
        <time>2025-10-25T08:11:41Z</time>
      </trkpt>
      <trkpt lat="48.61039" lon="2.10509">
        <ele>114</ele>
        <time>2025-10-25T08:11:43Z</time>
      </trkpt>
      <trkpt lat="48.61036" lon="2.10508">
        <ele>114.2</ele>
        <time>2025-10-25T08:11:45Z</time>
      </trkpt>
      <trkpt lat="48.61034" lon="2.10508">
        <ele>114.2</ele>
        <time>2025-10-25T08:11:47Z</time>
      </trkpt>
      <trkpt lat="48.61031" lon="2.10507">
        <ele>114.4</ele>
        <time>2025-10-25T08:11:49Z</time>
      </trkpt>
      <trkpt lat="48.61029" lon="2.10507">
        <ele>114.4</ele>
        <time>2025-10-25T08:11:51Z</time>
      </trkpt>
      <trkpt lat="48.61026" lon="2.10508">
        <ele>114.6</ele>
        <time>2025-10-25T08:11:53Z</time>
      </trkpt>
      <trkpt lat="48.61023" lon="2.10508">
        <ele>114.6</ele>
        <time>2025-10-25T08:11:55Z</time>
      </trkpt>
      <trkpt lat="48.61021" lon="2.10508">
        <ele>114.6</ele>
        <time>2025-10-25T08:11:57Z</time>
      </trkpt>
      <trkpt lat="48.61019" lon="2.10507">
        <ele>114.6</ele>
        <time>2025-10-25T08:11:59Z</time>
      </trkpt>
      <trkpt lat="48.61016" lon="2.10507">
        <ele>114.4</ele>
        <time>2025-10-25T08:12:01Z</time>
      </trkpt>
      <trkpt lat="48.61013" lon="2.10506">
        <ele>114.4</ele>
        <time>2025-10-25T08:12:03Z</time>
      </trkpt>
      <trkpt lat="48.61011" lon="2.10506">
        <ele>114.2</ele>
        <time>2025-10-25T08:12:05Z</time>
      </trkpt>
      <trkpt lat="48.61006" lon="2.10505">
        <ele>114.4</ele>
        <time>2025-10-25T08:12:10Z</time>
      </trkpt>
      <trkpt lat="48.61004" lon="2.10506">
        <ele>114.4</ele>
        <time>2025-10-25T08:12:31Z</time>
      </trkpt>
      <trkpt lat="48.61001" lon="2.10506">
        <ele>114.2</ele>
        <time>2025-10-25T08:12:33Z</time>
      </trkpt>
      <trkpt lat="48.60999" lon="2.10505">
        <ele>114.2</ele>
        <time>2025-10-25T08:12:34Z</time>
      </trkpt>
      <trkpt lat="48.60996" lon="2.10505">
        <ele>114.2</ele>
        <time>2025-10-25T08:12:36Z</time>
      </trkpt>
      <trkpt lat="48.60994" lon="2.10505">
        <ele>114.4</ele>
        <time>2025-10-25T08:12:37Z</time>
      </trkpt>
      <trkpt lat="48.60992" lon="2.10505">
        <ele>114.4</ele>
        <time>2025-10-25T08:12:38Z</time>
      </trkpt>
      <trkpt lat="48.6099" lon="2.10504">
        <ele>114.4</ele>
        <time>2025-10-25T08:12:39Z</time>
      </trkpt>
      <trkpt lat="48.60986" lon="2.10503">
        <ele>114.4</ele>
        <time>2025-10-25T08:12:41Z</time>
      </trkpt>
      <trkpt lat="48.60983" lon="2.10503">
        <ele>114.4</ele>
        <time>2025-10-25T08:12:43Z</time>
      </trkpt>
      <trkpt lat="48.6098" lon="2.10502">
        <ele>114.4</ele>
        <time>2025-10-25T08:12:45Z</time>
      </trkpt>
      <trkpt lat="48.60978" lon="2.10501">
        <ele>114.4</ele>
        <time>2025-10-25T08:12:47Z</time>
      </trkpt>
      <trkpt lat="48.60974" lon="2.10501">
        <ele>114.4</ele>
        <time>2025-10-25T08:12:49Z</time>
      </trkpt>
      <trkpt lat="48.60972" lon="2.10501">
        <ele>114.4</ele>
        <time>2025-10-25T08:12:51Z</time>
      </trkpt>
      <trkpt lat="48.60969" lon="2.10501">
        <ele>114.6</ele>
        <time>2025-10-25T08:12:53Z</time>
      </trkpt>
      <trkpt lat="48.60966" lon="2.105">
        <ele>114.6</ele>
        <time>2025-10-25T08:12:55Z</time>
      </trkpt>
      <trkpt lat="48.60964" lon="2.105">
        <ele>114.8</ele>
        <time>2025-10-25T08:12:57Z</time>
      </trkpt>
      <trkpt lat="48.6096" lon="2.10499">
        <ele>114.8</ele>
        <time>2025-10-25T08:12:59Z</time>
      </trkpt>
      <trkpt lat="48.60958" lon="2.10498">
        <ele>114.8</ele>
        <time>2025-10-25T08:13:01Z</time>
      </trkpt>
      <trkpt lat="48.60955" lon="2.10498">
        <ele>114.8</ele>
        <time>2025-10-25T08:13:03Z</time>
      </trkpt>
      <trkpt lat="48.60952" lon="2.10497">
        <ele>114.8</ele>
        <time>2025-10-25T08:13:05Z</time>
      </trkpt>
      <trkpt lat="48.60948" lon="2.10496">
        <ele>114.8</ele>
        <time>2025-10-25T08:13:07Z</time>
      </trkpt>
      <trkpt lat="48.60946" lon="2.10495">
        <ele>114.8</ele>
        <time>2025-10-25T08:13:09Z</time>
      </trkpt>
      <trkpt lat="48.60943" lon="2.10495">
        <ele>114.8</ele>
        <time>2025-10-25T08:13:11Z</time>
      </trkpt>
      <trkpt lat="48.6094" lon="2.10494">
        <ele>114.8</ele>
        <time>2025-10-25T08:13:13Z</time>
      </trkpt>
      <trkpt lat="48.60938" lon="2.10494">
        <ele>114.6</ele>
        <time>2025-10-25T08:13:15Z</time>
      </trkpt>
      <trkpt lat="48.60935" lon="2.10493">
        <ele>114.6</ele>
        <time>2025-10-25T08:13:17Z</time>
      </trkpt>
      <trkpt lat="48.60932" lon="2.10492">
        <ele>114.4</ele>
        <time>2025-10-25T08:13:19Z</time>
      </trkpt>
      <trkpt lat="48.6093" lon="2.10491">
        <ele>114.2</ele>
        <time>2025-10-25T08:13:21Z</time>
      </trkpt>
      <trkpt lat="48.60927" lon="2.1049">
        <ele>114</ele>
        <time>2025-10-25T08:13:23Z</time>
      </trkpt>
      <trkpt lat="48.60924" lon="2.10489">
        <ele>113.8</ele>
        <time>2025-10-25T08:13:25Z</time>
      </trkpt>
      <trkpt lat="48.60922" lon="2.10487">
        <ele>113.6</ele>
        <time>2025-10-25T08:13:27Z</time>
      </trkpt>
      <trkpt lat="48.6092" lon="2.10485">
        <ele>113.6</ele>
        <time>2025-10-25T08:13:29Z</time>
      </trkpt>
      <trkpt lat="48.60918" lon="2.10483">
        <ele>113.4</ele>
        <time>2025-10-25T08:13:31Z</time>
      </trkpt>
      <trkpt lat="48.60918" lon="2.1048">
        <ele>113.4</ele>
        <time>2025-10-25T08:13:33Z</time>
      </trkpt>
      <trkpt lat="48.60918" lon="2.10477">
        <ele>113.2</ele>
        <time>2025-10-25T08:13:35Z</time>
      </trkpt>
      <trkpt lat="48.60918" lon="2.10473">
        <ele>113.2</ele>
        <time>2025-10-25T08:13:37Z</time>
      </trkpt>
      <trkpt lat="48.6092" lon="2.10469">
        <ele>113.2</ele>
        <time>2025-10-25T08:13:39Z</time>
      </trkpt>
      <trkpt lat="48.6092" lon="2.10466">
        <ele>113.2</ele>
        <time>2025-10-25T08:13:41Z</time>
      </trkpt>
      <trkpt lat="48.60921" lon="2.10462">
        <ele>113.4</ele>
        <time>2025-10-25T08:13:43Z</time>
      </trkpt>
      <trkpt lat="48.60922" lon="2.10459">
        <ele>113.4</ele>
        <time>2025-10-25T08:13:45Z</time>
      </trkpt>
      <trkpt lat="48.60922" lon="2.10455">
        <ele>113.6</ele>
        <time>2025-10-25T08:13:47Z</time>
      </trkpt>
      <trkpt lat="48.60922" lon="2.10452">
        <ele>113.6</ele>
        <time>2025-10-25T08:13:49Z</time>
      </trkpt>
      <trkpt lat="48.60921" lon="2.10449">
        <ele>113.8</ele>
        <time>2025-10-25T08:13:51Z</time>
      </trkpt>
      <trkpt lat="48.60921" lon="2.10445">
        <ele>114</ele>
        <time>2025-10-25T08:13:53Z</time>
      </trkpt>
      <trkpt lat="48.6092" lon="2.10441">
        <ele>114.2</ele>
        <time>2025-10-25T08:13:55Z</time>
      </trkpt>
      <trkpt lat="48.6092" lon="2.10436">
        <ele>114.4</ele>
        <time>2025-10-25T08:13:57Z</time>
      </trkpt>
      <trkpt lat="48.60919" lon="2.10431">
        <ele>114.6</ele>
        <time>2025-10-25T08:13:59Z</time>
      </trkpt>
      <trkpt lat="48.60918" lon="2.10429">
        <ele>114.8</ele>
        <time>2025-10-25T08:14:00Z</time>
      </trkpt>
      <trkpt lat="48.60918" lon="2.10426">
        <ele>114.8</ele>
        <time>2025-10-25T08:14:01Z</time>
      </trkpt>
      <trkpt lat="48.60917" lon="2.10423">
        <ele>114.8</ele>
        <time>2025-10-25T08:14:02Z</time>
      </trkpt>
      <trkpt lat="48.60917" lon="2.1042">
        <ele>115</ele>
        <time>2025-10-25T08:14:03Z</time>
      </trkpt>
      <trkpt lat="48.60916" lon="2.10417">
        <ele>115</ele>
        <time>2025-10-25T08:14:04Z</time>
      </trkpt>
      <trkpt lat="48.60916" lon="2.10415">
        <ele>115</ele>
        <time>2025-10-25T08:14:05Z</time>
      </trkpt>
      <trkpt lat="48.60916" lon="2.10412">
        <ele>115.2</ele>
        <time>2025-10-25T08:14:06Z</time>
      </trkpt>
      <trkpt lat="48.60916" lon="2.10409">
        <ele>115.2</ele>
        <time>2025-10-25T08:14:07Z</time>
      </trkpt>
      <trkpt lat="48.60916" lon="2.10404">
        <ele>115.4</ele>
        <time>2025-10-25T08:14:09Z</time>
      </trkpt>
      <trkpt lat="48.60915" lon="2.10401">
        <ele>115.4</ele>
        <time>2025-10-25T08:14:10Z</time>
      </trkpt>
      <trkpt lat="48.60915" lon="2.10398">
        <ele>115.4</ele>
        <time>2025-10-25T08:14:11Z</time>
      </trkpt>
      <trkpt lat="48.60914" lon="2.10395">
        <ele>115.4</ele>
        <time>2025-10-25T08:14:12Z</time>
      </trkpt>
      <trkpt lat="48.60914" lon="2.10391">
        <ele>115.4</ele>
        <time>2025-10-25T08:14:13Z</time>
      </trkpt>
      <trkpt lat="48.60913" lon="2.10387">
        <ele>115.4</ele>
        <time>2025-10-25T08:14:14Z</time>
      </trkpt>
      <trkpt lat="48.60913" lon="2.10383">
        <ele>115.6</ele>
        <time>2025-10-25T08:14:15Z</time>
      </trkpt>
      <trkpt lat="48.60912" lon="2.10379">
        <ele>115.6</ele>
        <time>2025-10-25T08:14:16Z</time>
      </trkpt>
      <trkpt lat="48.60912" lon="2.10375">
        <ele>115.8</ele>
        <time>2025-10-25T08:14:17Z</time>
      </trkpt>
      <trkpt lat="48.60911" lon="2.10371">
        <ele>116</ele>
        <time>2025-10-25T08:14:18Z</time>
      </trkpt>
      <trkpt lat="48.60911" lon="2.10367">
        <ele>116</ele>
        <time>2025-10-25T08:14:19Z</time>
      </trkpt>
      <trkpt lat="48.6091" lon="2.10363">
        <ele>116.2</ele>
        <time>2025-10-25T08:14:20Z</time>
      </trkpt>
      <trkpt lat="48.6091" lon="2.10359">
        <ele>116.2</ele>
        <time>2025-10-25T08:14:21Z</time>
      </trkpt>
      <trkpt lat="48.60909" lon="2.10355">
        <ele>116.2</ele>
        <time>2025-10-25T08:14:22Z</time>
      </trkpt>
      <trkpt lat="48.60908" lon="2.10351">
        <ele>116.2</ele>
        <time>2025-10-25T08:14:23Z</time>
      </trkpt>
      <trkpt lat="48.60908" lon="2.10347">
        <ele>116.4</ele>
        <time>2025-10-25T08:14:24Z</time>
      </trkpt>
      <trkpt lat="48.60908" lon="2.10343">
        <ele>116.4</ele>
        <time>2025-10-25T08:14:25Z</time>
      </trkpt>
      <trkpt lat="48.60907" lon="2.10339">
        <ele>116.4</ele>
        <time>2025-10-25T08:14:26Z</time>
      </trkpt>
      <trkpt lat="48.60906" lon="2.10335">
        <ele>116.4</ele>
        <time>2025-10-25T08:14:27Z</time>
      </trkpt>
      <trkpt lat="48.60906" lon="2.1033">
        <ele>116.6</ele>
        <time>2025-10-25T08:14:28Z</time>
      </trkpt>
      <trkpt lat="48.60905" lon="2.10326">
        <ele>116.6</ele>
        <time>2025-10-25T08:14:29Z</time>
      </trkpt>
      <trkpt lat="48.60904" lon="2.10322">
        <ele>116.8</ele>
        <time>2025-10-25T08:14:30Z</time>
      </trkpt>
      <trkpt lat="48.60904" lon="2.10318">
        <ele>116.8</ele>
        <time>2025-10-25T08:14:31Z</time>
      </trkpt>
      <trkpt lat="48.60903" lon="2.10314">
        <ele>116.8</ele>
        <time>2025-10-25T08:14:32Z</time>
      </trkpt>
      <trkpt lat="48.60903" lon="2.1031">
        <ele>117</ele>
        <time>2025-10-25T08:14:33Z</time>
      </trkpt>
      <trkpt lat="48.60902" lon="2.10306">
        <ele>117</ele>
        <time>2025-10-25T08:14:34Z</time>
      </trkpt>
      <trkpt lat="48.60902" lon="2.10303">
        <ele>117</ele>
        <time>2025-10-25T08:14:35Z</time>
      </trkpt>
      <trkpt lat="48.60901" lon="2.10299">
        <ele>117</ele>
        <time>2025-10-25T08:14:36Z</time>
      </trkpt>
      <trkpt lat="48.60901" lon="2.10296">
        <ele>117</ele>
        <time>2025-10-25T08:14:37Z</time>
      </trkpt>
      <trkpt lat="48.609" lon="2.10293">
        <ele>117</ele>
        <time>2025-10-25T08:14:38Z</time>
      </trkpt>
      <trkpt lat="48.609" lon="2.1029">
        <ele>117</ele>
        <time>2025-10-25T08:14:39Z</time>
      </trkpt>
      <trkpt lat="48.60899" lon="2.10288">
        <ele>117</ele>
        <time>2025-10-25T08:14:40Z</time>
      </trkpt>
      <trkpt lat="48.60899" lon="2.10283">
        <ele>117</ele>
        <time>2025-10-25T08:14:42Z</time>
      </trkpt>
      <trkpt lat="48.60898" lon="2.1028">
        <ele>117</ele>
        <time>2025-10-25T08:14:44Z</time>
      </trkpt>
      <trkpt lat="48.60898" lon="2.10276">
        <ele>117</ele>
        <time>2025-10-25T08:14:46Z</time>
      </trkpt>
      <trkpt lat="48.60897" lon="2.10271">
        <ele>117.2</ele>
        <time>2025-10-25T08:14:48Z</time>
      </trkpt>
      <trkpt lat="48.60896" lon="2.10267">
        <ele>117.2</ele>
        <time>2025-10-25T08:14:50Z</time>
      </trkpt>
      <trkpt lat="48.60895" lon="2.10263">
        <ele>117.2</ele>
        <time>2025-10-25T08:14:52Z</time>
      </trkpt>
      <trkpt lat="48.60895" lon="2.10259">
        <ele>117.4</ele>
        <time>2025-10-25T08:14:54Z</time>
      </trkpt>
      <trkpt lat="48.60894" lon="2.10255">
        <ele>117.4</ele>
        <time>2025-10-25T08:14:56Z</time>
      </trkpt>
      <trkpt lat="48.60893" lon="2.1025">
        <ele>117.6</ele>
        <time>2025-10-25T08:14:58Z</time>
      </trkpt>
      <trkpt lat="48.60892" lon="2.10246">
        <ele>117.8</ele>
        <time>2025-10-25T08:15:00Z</time>
      </trkpt>
      <trkpt lat="48.60891" lon="2.10241">
        <ele>117.8</ele>
        <time>2025-10-25T08:15:02Z</time>
      </trkpt>
      <trkpt lat="48.60891" lon="2.10238">
        <ele>117.8</ele>
        <time>2025-10-25T08:15:03Z</time>
      </trkpt>
      <trkpt lat="48.60889" lon="2.10235">
        <ele>117.8</ele>
        <time>2025-10-25T08:15:04Z</time>
      </trkpt>
      <trkpt lat="48.60889" lon="2.10232">
        <ele>118</ele>
        <time>2025-10-25T08:15:05Z</time>
      </trkpt>
      <trkpt lat="48.60888" lon="2.10228">
        <ele>118</ele>
        <time>2025-10-25T08:15:06Z</time>
      </trkpt>
      <trkpt lat="48.60886" lon="2.10224">
        <ele>118</ele>
        <time>2025-10-25T08:15:07Z</time>
      </trkpt>
      <trkpt lat="48.60885" lon="2.1022">
        <ele>118</ele>
        <time>2025-10-25T08:15:08Z</time>
      </trkpt>
      <trkpt lat="48.60884" lon="2.10215">
        <ele>118</ele>
        <time>2025-10-25T08:15:09Z</time>
      </trkpt>
      <trkpt lat="48.60883" lon="2.10211">
        <ele>118</ele>
        <time>2025-10-25T08:15:10Z</time>
      </trkpt>
      <trkpt lat="48.60882" lon="2.10207">
        <ele>118</ele>
        <time>2025-10-25T08:15:11Z</time>
      </trkpt>
      <trkpt lat="48.60881" lon="2.10203">
        <ele>118</ele>
        <time>2025-10-25T08:15:12Z</time>
      </trkpt>
      <trkpt lat="48.60879" lon="2.10198">
        <ele>118</ele>
        <time>2025-10-25T08:15:13Z</time>
      </trkpt>
      <trkpt lat="48.60878" lon="2.10194">
        <ele>118</ele>
        <time>2025-10-25T08:15:14Z</time>
      </trkpt>
      <trkpt lat="48.60877" lon="2.1019">
        <ele>118</ele>
        <time>2025-10-25T08:15:15Z</time>
      </trkpt>
      <trkpt lat="48.60876" lon="2.10186">
        <ele>118</ele>
        <time>2025-10-25T08:15:16Z</time>
      </trkpt>
      <trkpt lat="48.60875" lon="2.10181">
        <ele>118</ele>
        <time>2025-10-25T08:15:17Z</time>
      </trkpt>
      <trkpt lat="48.60873" lon="2.10177">
        <ele>118</ele>
        <time>2025-10-25T08:15:18Z</time>
      </trkpt>
      <trkpt lat="48.60872" lon="2.10172">
        <ele>118</ele>
        <time>2025-10-25T08:15:19Z</time>
      </trkpt>
      <trkpt lat="48.60871" lon="2.10167">
        <ele>118</ele>
        <time>2025-10-25T08:15:20Z</time>
      </trkpt>
      <trkpt lat="48.60869" lon="2.10162">
        <ele>118</ele>
        <time>2025-10-25T08:15:21Z</time>
      </trkpt>
      <trkpt lat="48.60868" lon="2.10157">
        <ele>118</ele>
        <time>2025-10-25T08:15:22Z</time>
      </trkpt>
      <trkpt lat="48.60867" lon="2.10152">
        <ele>118</ele>
        <time>2025-10-25T08:15:23Z</time>
      </trkpt>
      <trkpt lat="48.60865" lon="2.10147">
        <ele>117.8</ele>
        <time>2025-10-25T08:15:24Z</time>
      </trkpt>
      <trkpt lat="48.60864" lon="2.10141">
        <ele>117.8</ele>
        <time>2025-10-25T08:15:25Z</time>
      </trkpt>
      <trkpt lat="48.60863" lon="2.10136">
        <ele>118</ele>
        <time>2025-10-25T08:15:26Z</time>
      </trkpt>
      <trkpt lat="48.60861" lon="2.1013">
        <ele>118</ele>
        <time>2025-10-25T08:15:27Z</time>
      </trkpt>
      <trkpt lat="48.6086" lon="2.10124">
        <ele>118</ele>
        <time>2025-10-25T08:15:28Z</time>
      </trkpt>
      <trkpt lat="48.60858" lon="2.10119">
        <ele>117.8</ele>
        <time>2025-10-25T08:15:29Z</time>
      </trkpt>
      <trkpt lat="48.60857" lon="2.10114">
        <ele>117.8</ele>
        <time>2025-10-25T08:15:30Z</time>
      </trkpt>
      <trkpt lat="48.60856" lon="2.10108">
        <ele>117.8</ele>
        <time>2025-10-25T08:15:31Z</time>
      </trkpt>
      <trkpt lat="48.60855" lon="2.10103">
        <ele>117.8</ele>
        <time>2025-10-25T08:15:32Z</time>
      </trkpt>
      <trkpt lat="48.60853" lon="2.10098">
        <ele>117.8</ele>
        <time>2025-10-25T08:15:33Z</time>
      </trkpt>
      <trkpt lat="48.60853" lon="2.10093">
        <ele>117.8</ele>
        <time>2025-10-25T08:15:34Z</time>
      </trkpt>
      <trkpt lat="48.60852" lon="2.10088">
        <ele>117.8</ele>
        <time>2025-10-25T08:15:35Z</time>
      </trkpt>
      <trkpt lat="48.60851" lon="2.10084">
        <ele>117.8</ele>
        <time>2025-10-25T08:15:36Z</time>
      </trkpt>
      <trkpt lat="48.6085" lon="2.10079">
        <ele>117.8</ele>
        <time>2025-10-25T08:15:37Z</time>
      </trkpt>
      <trkpt lat="48.60849" lon="2.10075">
        <ele>117.8</ele>
        <time>2025-10-25T08:15:38Z</time>
      </trkpt>
      <trkpt lat="48.60848" lon="2.10072">
        <ele>117.8</ele>
        <time>2025-10-25T08:15:39Z</time>
      </trkpt>
      <trkpt lat="48.60847" lon="2.10069">
        <ele>117.6</ele>
        <time>2025-10-25T08:15:40Z</time>
      </trkpt>
      <trkpt lat="48.60845" lon="2.10066">
        <ele>117.6</ele>
        <time>2025-10-25T08:15:41Z</time>
      </trkpt>
      <trkpt lat="48.60844" lon="2.10063">
        <ele>117.6</ele>
        <time>2025-10-25T08:15:42Z</time>
      </trkpt>
      <trkpt lat="48.60843" lon="2.1006">
        <ele>117.6</ele>
        <time>2025-10-25T08:15:43Z</time>
      </trkpt>
      <trkpt lat="48.60841" lon="2.10058">
        <ele>117.6</ele>
        <time>2025-10-25T08:15:44Z</time>
      </trkpt>
      <trkpt lat="48.6084" lon="2.10056">
        <ele>117.6</ele>
        <time>2025-10-25T08:15:45Z</time>
      </trkpt>
      <trkpt lat="48.60838" lon="2.10052">
        <ele>117.6</ele>
        <time>2025-10-25T08:15:47Z</time>
      </trkpt>
      <trkpt lat="48.60836" lon="2.1005">
        <ele>117.6</ele>
        <time>2025-10-25T08:15:49Z</time>
      </trkpt>
      <trkpt lat="48.60833" lon="2.10049">
        <ele>117.4</ele>
        <time>2025-10-25T08:15:51Z</time>
      </trkpt>
      <trkpt lat="48.60831" lon="2.10049">
        <ele>117.2</ele>
        <time>2025-10-25T08:15:53Z</time>
      </trkpt>
      <trkpt lat="48.60828" lon="2.10049">
        <ele>117.2</ele>
        <time>2025-10-25T08:15:55Z</time>
      </trkpt>
      <trkpt lat="48.60826" lon="2.10049">
        <ele>117</ele>
        <time>2025-10-25T08:15:57Z</time>
      </trkpt>
      <trkpt lat="48.60824" lon="2.10047">
        <ele>116.8</ele>
        <time>2025-10-25T08:15:59Z</time>
      </trkpt>
      <trkpt lat="48.60822" lon="2.10044">
        <ele>116.6</ele>
        <time>2025-10-25T08:16:01Z</time>
      </trkpt>
      <trkpt lat="48.60821" lon="2.10041">
        <ele>116.6</ele>
        <time>2025-10-25T08:16:03Z</time>
      </trkpt>
      <trkpt lat="48.60819" lon="2.10037">
        <ele>116.6</ele>
        <time>2025-10-25T08:16:05Z</time>
      </trkpt>
      <trkpt lat="48.60818" lon="2.10033">
        <ele>116.6</ele>
        <time>2025-10-25T08:16:07Z</time>
      </trkpt>
      <trkpt lat="48.60817" lon="2.10029">
        <ele>116.6</ele>
        <time>2025-10-25T08:16:09Z</time>
      </trkpt>
      <trkpt lat="48.60816" lon="2.10025">
        <ele>116.4</ele>
        <time>2025-10-25T08:16:11Z</time>
      </trkpt>
      <trkpt lat="48.60815" lon="2.1002">
        <ele>116.4</ele>
        <time>2025-10-25T08:16:13Z</time>
      </trkpt>
      <trkpt lat="48.60815" lon="2.10016">
        <ele>116.4</ele>
        <time>2025-10-25T08:16:15Z</time>
      </trkpt>
      <trkpt lat="48.60814" lon="2.10012">
        <ele>116.4</ele>
        <time>2025-10-25T08:16:17Z</time>
      </trkpt>
      <trkpt lat="48.60813" lon="2.10008">
        <ele>116.6</ele>
        <time>2025-10-25T08:16:19Z</time>
      </trkpt>
      <trkpt lat="48.60811" lon="2.10004">
        <ele>116.8</ele>
        <time>2025-10-25T08:16:21Z</time>
      </trkpt>
      <trkpt lat="48.6081" lon="2.1">
        <ele>116.8</ele>
        <time>2025-10-25T08:16:23Z</time>
      </trkpt>
      <trkpt lat="48.60807" lon="2.09997">
        <ele>117</ele>
        <time>2025-10-25T08:16:25Z</time>
      </trkpt>
      <trkpt lat="48.60805" lon="2.09995">
        <ele>117</ele>
        <time>2025-10-25T08:16:27Z</time>
      </trkpt>
      <trkpt lat="48.60803" lon="2.09994">
        <ele>117</ele>
        <time>2025-10-25T08:16:29Z</time>
      </trkpt>
      <trkpt lat="48.608" lon="2.09992">
        <ele>117</ele>
        <time>2025-10-25T08:16:31Z</time>
      </trkpt>
      <trkpt lat="48.60797" lon="2.0999">
        <ele>116.8</ele>
        <time>2025-10-25T08:16:33Z</time>
      </trkpt>
      <trkpt lat="48.60795" lon="2.09989">
        <ele>116.6</ele>
        <time>2025-10-25T08:16:35Z</time>
      </trkpt>
      <trkpt lat="48.60792" lon="2.09987">
        <ele>116.6</ele>
        <time>2025-10-25T08:16:37Z</time>
      </trkpt>
      <trkpt lat="48.6079" lon="2.09985">
        <ele>116.4</ele>
        <time>2025-10-25T08:16:39Z</time>
      </trkpt>
      <trkpt lat="48.60788" lon="2.09982">
        <ele>116.4</ele>
        <time>2025-10-25T08:16:41Z</time>
      </trkpt>
      <trkpt lat="48.60786" lon="2.0998">
        <ele>116.2</ele>
        <time>2025-10-25T08:16:43Z</time>
      </trkpt>
      <trkpt lat="48.60784" lon="2.09976">
        <ele>116.2</ele>
        <time>2025-10-25T08:16:45Z</time>
      </trkpt>
      <trkpt lat="48.60783" lon="2.09972">
        <ele>116.2</ele>
        <time>2025-10-25T08:16:47Z</time>
      </trkpt>
      <trkpt lat="48.60782" lon="2.09969">
        <ele>116.2</ele>
        <time>2025-10-25T08:16:48Z</time>
      </trkpt>
      <trkpt lat="48.6078" lon="2.09965">
        <ele>116.4</ele>
        <time>2025-10-25T08:16:50Z</time>
      </trkpt>
      <trkpt lat="48.60778" lon="2.09961">
        <ele>116.4</ele>
        <time>2025-10-25T08:16:52Z</time>
      </trkpt>
      <trkpt lat="48.60775" lon="2.09959">
        <ele>116.4</ele>
        <time>2025-10-25T08:16:54Z</time>
      </trkpt>
      <trkpt lat="48.60773" lon="2.09956">
        <ele>116.4</ele>
        <time>2025-10-25T08:16:56Z</time>
      </trkpt>
      <trkpt lat="48.60771" lon="2.09953">
        <ele>116.2</ele>
        <time>2025-10-25T08:16:58Z</time>
      </trkpt>
      <trkpt lat="48.6077" lon="2.0995">
        <ele>116</ele>
        <time>2025-10-25T08:17:00Z</time>
      </trkpt>
      <trkpt lat="48.6077" lon="2.09947">
        <ele>116</ele>
        <time>2025-10-25T08:17:02Z</time>
      </trkpt>
      <trkpt lat="48.6077" lon="2.09943">
        <ele>116.2</ele>
        <time>2025-10-25T08:17:04Z</time>
      </trkpt>
      <trkpt lat="48.60771" lon="2.09939">
        <ele>116.2</ele>
        <time>2025-10-25T08:17:06Z</time>
      </trkpt>
      <trkpt lat="48.60772" lon="2.09936">
        <ele>116.4</ele>
        <time>2025-10-25T08:17:08Z</time>
      </trkpt>
      <trkpt lat="48.60773" lon="2.09933">
        <ele>116.4</ele>
        <time>2025-10-25T08:17:10Z</time>
      </trkpt>
      <trkpt lat="48.60775" lon="2.09929">
        <ele>116.4</ele>
        <time>2025-10-25T08:17:12Z</time>
      </trkpt>
      <trkpt lat="48.60776" lon="2.09926">
        <ele>116.4</ele>
        <time>2025-10-25T08:17:14Z</time>
      </trkpt>
      <trkpt lat="48.60776" lon="2.09921">
        <ele>116.4</ele>
        <time>2025-10-25T08:17:16Z</time>
      </trkpt>
      <trkpt lat="48.60777" lon="2.09917">
        <ele>116.6</ele>
        <time>2025-10-25T08:17:18Z</time>
      </trkpt>
      <trkpt lat="48.60777" lon="2.09913">
        <ele>116.8</ele>
        <time>2025-10-25T08:17:20Z</time>
      </trkpt>
      <trkpt lat="48.60776" lon="2.09909">
        <ele>117</ele>
        <time>2025-10-25T08:17:22Z</time>
      </trkpt>
      <trkpt lat="48.60776" lon="2.09905">
        <ele>117</ele>
        <time>2025-10-25T08:17:24Z</time>
      </trkpt>
      <trkpt lat="48.60775" lon="2.09901">
        <ele>117</ele>
        <time>2025-10-25T08:17:26Z</time>
      </trkpt>
      <trkpt lat="48.60774" lon="2.09897">
        <ele>117</ele>
        <time>2025-10-25T08:17:28Z</time>
      </trkpt>
      <trkpt lat="48.60773" lon="2.09893">
        <ele>117</ele>
        <time>2025-10-25T08:17:30Z</time>
      </trkpt>
      <trkpt lat="48.60772" lon="2.0989">
        <ele>116.8</ele>
        <time>2025-10-25T08:17:32Z</time>
      </trkpt>
      <trkpt lat="48.60771" lon="2.09889">
        <ele>116.6</ele>
        <time>2025-10-25T08:17:34Z</time>
      </trkpt>
      <trkpt lat="48.60769" lon="2.09889">
        <ele>116.6</ele>
        <time>2025-10-25T08:17:36Z</time>
      </trkpt>
      <trkpt lat="48.60765" lon="2.0989">
        <ele>116.4</ele>
        <time>2025-10-25T08:17:38Z</time>
      </trkpt>
      <trkpt lat="48.60763" lon="2.09892">
        <ele>116.4</ele>
        <time>2025-10-25T08:17:40Z</time>
      </trkpt>
      <trkpt lat="48.60759" lon="2.09894">
        <ele>116.2</ele>
        <time>2025-10-25T08:17:42Z</time>
      </trkpt>
      <trkpt lat="48.60757" lon="2.09896">
        <ele>116.2</ele>
        <time>2025-10-25T08:17:44Z</time>
      </trkpt>
      <trkpt lat="48.60754" lon="2.09898">
        <ele>116.2</ele>
        <time>2025-10-25T08:17:46Z</time>
      </trkpt>
      <trkpt lat="48.60751" lon="2.099">
        <ele>116.2</ele>
        <time>2025-10-25T08:17:48Z</time>
      </trkpt>
      <trkpt lat="48.60748" lon="2.09901">
        <ele>116</ele>
        <time>2025-10-25T08:17:50Z</time>
      </trkpt>
      <trkpt lat="48.60745" lon="2.09902">
        <ele>116</ele>
        <time>2025-10-25T08:17:52Z</time>
      </trkpt>
      <trkpt lat="48.60743" lon="2.09904">
        <ele>116</ele>
        <time>2025-10-25T08:17:54Z</time>
      </trkpt>
      <trkpt lat="48.6074" lon="2.09905">
        <ele>116</ele>
        <time>2025-10-25T08:17:56Z</time>
      </trkpt>
      <trkpt lat="48.60737" lon="2.09906">
        <ele>116</ele>
        <time>2025-10-25T08:17:58Z</time>
      </trkpt>
      <trkpt lat="48.60735" lon="2.09908">
        <ele>116</ele>
        <time>2025-10-25T08:18:00Z</time>
      </trkpt>
      <trkpt lat="48.60733" lon="2.09909">
        <ele>115.8</ele>
        <time>2025-10-25T08:18:02Z</time>
      </trkpt>
      <trkpt lat="48.60731" lon="2.0991">
        <ele>115.8</ele>
        <time>2025-10-25T08:18:04Z</time>
      </trkpt>
      <trkpt lat="48.60728" lon="2.09911">
        <ele>115.8</ele>
        <time>2025-10-25T08:18:06Z</time>
      </trkpt>
      <trkpt lat="48.60726" lon="2.09913">
        <ele>115.6</ele>
        <time>2025-10-25T08:18:08Z</time>
      </trkpt>
      <trkpt lat="48.60723" lon="2.09914">
        <ele>115.8</ele>
        <time>2025-10-25T08:18:10Z</time>
      </trkpt>
      <trkpt lat="48.60721" lon="2.09916">
        <ele>115.8</ele>
        <time>2025-10-25T08:18:12Z</time>
      </trkpt>
      <trkpt lat="48.60718" lon="2.09917">
        <ele>115.8</ele>
        <time>2025-10-25T08:18:14Z</time>
      </trkpt>
      <trkpt lat="48.60716" lon="2.09919">
        <ele>115.8</ele>
        <time>2025-10-25T08:18:16Z</time>
      </trkpt>
      <trkpt lat="48.60714" lon="2.0992">
        <ele>115.8</ele>
        <time>2025-10-25T08:18:18Z</time>
      </trkpt>
      <trkpt lat="48.60711" lon="2.09922">
        <ele>115.8</ele>
        <time>2025-10-25T08:18:20Z</time>
      </trkpt>
      <trkpt lat="48.60709" lon="2.09924">
        <ele>115.8</ele>
        <time>2025-10-25T08:18:22Z</time>
      </trkpt>
      <trkpt lat="48.60707" lon="2.09925">
        <ele>115.6</ele>
        <time>2025-10-25T08:18:24Z</time>
      </trkpt>
      <trkpt lat="48.60705" lon="2.09927">
        <ele>115.6</ele>
        <time>2025-10-25T08:18:26Z</time>
      </trkpt>
      <trkpt lat="48.60703" lon="2.09928">
        <ele>115.8</ele>
        <time>2025-10-25T08:18:28Z</time>
      </trkpt>
      <trkpt lat="48.607" lon="2.09929">
        <ele>115.8</ele>
        <time>2025-10-25T08:18:30Z</time>
      </trkpt>
      <trkpt lat="48.60698" lon="2.09931">
        <ele>115.6</ele>
        <time>2025-10-25T08:18:32Z</time>
      </trkpt>
      <trkpt lat="48.60696" lon="2.09932">
        <ele>115.6</ele>
        <time>2025-10-25T08:18:34Z</time>
      </trkpt>
      <trkpt lat="48.60693" lon="2.09933">
        <ele>115.6</ele>
        <time>2025-10-25T08:18:36Z</time>
      </trkpt>
      <trkpt lat="48.6069" lon="2.09933">
        <ele>115.6</ele>
        <time>2025-10-25T08:18:38Z</time>
      </trkpt>
      <trkpt lat="48.60688" lon="2.09932">
        <ele>115.6</ele>
        <time>2025-10-25T08:18:40Z</time>
      </trkpt>
      <trkpt lat="48.60685" lon="2.0993">
        <ele>115.4</ele>
        <time>2025-10-25T08:18:42Z</time>
      </trkpt>
      <trkpt lat="48.60683" lon="2.09927">
        <ele>115.4</ele>
        <time>2025-10-25T08:18:44Z</time>
      </trkpt>
      <trkpt lat="48.60681" lon="2.09924">
        <ele>115.2</ele>
        <time>2025-10-25T08:18:46Z</time>
      </trkpt>
      <trkpt lat="48.60679" lon="2.09921">
        <ele>115.4</ele>
        <time>2025-10-25T08:18:48Z</time>
      </trkpt>
      <trkpt lat="48.60678" lon="2.09918">
        <ele>115.6</ele>
        <time>2025-10-25T08:18:50Z</time>
      </trkpt>
      <trkpt lat="48.60676" lon="2.09916">
        <ele>115.6</ele>
        <time>2025-10-25T08:18:52Z</time>
      </trkpt>
      <trkpt lat="48.60673" lon="2.09913">
        <ele>115.6</ele>
        <time>2025-10-25T08:18:54Z</time>
      </trkpt>
      <trkpt lat="48.6067" lon="2.0991">
        <ele>115.6</ele>
        <time>2025-10-25T08:18:56Z</time>
      </trkpt>
      <trkpt lat="48.60668" lon="2.09909">
        <ele>115.4</ele>
        <time>2025-10-25T08:18:57Z</time>
      </trkpt>
      <trkpt lat="48.60666" lon="2.09906">
        <ele>115.4</ele>
        <time>2025-10-25T08:18:59Z</time>
      </trkpt>
      <trkpt lat="48.60665" lon="2.09905">
        <ele>115.4</ele>
        <time>2025-10-25T08:19:00Z</time>
      </trkpt>
      <trkpt lat="48.60662" lon="2.09902">
        <ele>115.2</ele>
        <time>2025-10-25T08:19:02Z</time>
      </trkpt>
      <trkpt lat="48.6066" lon="2.09899">
        <ele>115.2</ele>
        <time>2025-10-25T08:19:04Z</time>
      </trkpt>
      <trkpt lat="48.60658" lon="2.09896">
        <ele>115.2</ele>
        <time>2025-10-25T08:19:06Z</time>
      </trkpt>
      <trkpt lat="48.60656" lon="2.09894">
        <ele>115</ele>
        <time>2025-10-25T08:19:08Z</time>
      </trkpt>
      <trkpt lat="48.60654" lon="2.09891">
        <ele>115</ele>
        <time>2025-10-25T08:19:10Z</time>
      </trkpt>
      <trkpt lat="48.60652" lon="2.09888">
        <ele>115</ele>
        <time>2025-10-25T08:19:12Z</time>
      </trkpt>
      <trkpt lat="48.60649" lon="2.09885">
        <ele>114.8</ele>
        <time>2025-10-25T08:19:14Z</time>
      </trkpt>
      <trkpt lat="48.60647" lon="2.09882">
        <ele>114.8</ele>
        <time>2025-10-25T08:19:16Z</time>
      </trkpt>
      <trkpt lat="48.60645" lon="2.09879">
        <ele>114.6</ele>
        <time>2025-10-25T08:19:18Z</time>
      </trkpt>
      <trkpt lat="48.60643" lon="2.09876">
        <ele>114.8</ele>
        <time>2025-10-25T08:19:20Z</time>
      </trkpt>
      <trkpt lat="48.60641" lon="2.09873">
        <ele>115</ele>
        <time>2025-10-25T08:19:22Z</time>
      </trkpt>
      <trkpt lat="48.60639" lon="2.09871">
        <ele>115</ele>
        <time>2025-10-25T08:19:24Z</time>
      </trkpt>
      <trkpt lat="48.60638" lon="2.09868">
        <ele>114.8</ele>
        <time>2025-10-25T08:19:26Z</time>
      </trkpt>
      <trkpt lat="48.60637" lon="2.09865">
        <ele>114.6</ele>
        <time>2025-10-25T08:19:28Z</time>
      </trkpt>
      <trkpt lat="48.60636" lon="2.09862">
        <ele>114.2</ele>
        <time>2025-10-25T08:19:30Z</time>
      </trkpt>
      <trkpt lat="48.60634" lon="2.09859">
        <ele>114</ele>
        <time>2025-10-25T08:19:32Z</time>
      </trkpt>
      <trkpt lat="48.60632" lon="2.09857">
        <ele>114</ele>
        <time>2025-10-25T08:19:34Z</time>
      </trkpt>
      <trkpt lat="48.6063" lon="2.09855">
        <ele>113.8</ele>
        <time>2025-10-25T08:19:36Z</time>
      </trkpt>
      <trkpt lat="48.60628" lon="2.09853">
        <ele>113.8</ele>
        <time>2025-10-25T08:19:38Z</time>
      </trkpt>
      <trkpt lat="48.60626" lon="2.0985">
        <ele>113.6</ele>
        <time>2025-10-25T08:19:40Z</time>
      </trkpt>
      <trkpt lat="48.60624" lon="2.09847">
        <ele>113.4</ele>
        <time>2025-10-25T08:19:42Z</time>
      </trkpt>
      <trkpt lat="48.60623" lon="2.09843">
        <ele>113.4</ele>
        <time>2025-10-25T08:19:44Z</time>
      </trkpt>
      <trkpt lat="48.60621" lon="2.09839">
        <ele>113.4</ele>
        <time>2025-10-25T08:19:46Z</time>
      </trkpt>
      <trkpt lat="48.60619" lon="2.09835">
        <ele>113.4</ele>
        <time>2025-10-25T08:19:48Z</time>
      </trkpt>
      <trkpt lat="48.60618" lon="2.09831">
        <ele>113.2</ele>
        <time>2025-10-25T08:19:50Z</time>
      </trkpt>
      <trkpt lat="48.60618" lon="2.09827">
        <ele>113</ele>
        <time>2025-10-25T08:19:52Z</time>
      </trkpt>
      <trkpt lat="48.60617" lon="2.09824">
        <ele>113</ele>
        <time>2025-10-25T08:19:54Z</time>
      </trkpt>
      <trkpt lat="48.60616" lon="2.0982">
        <ele>112.8</ele>
        <time>2025-10-25T08:19:56Z</time>
      </trkpt>
      <trkpt lat="48.60616" lon="2.09816">
        <ele>112.6</ele>
        <time>2025-10-25T08:19:58Z</time>
      </trkpt>
      <trkpt lat="48.60615" lon="2.09812">
        <ele>112.2</ele>
        <time>2025-10-25T08:20:00Z</time>
      </trkpt>
      <trkpt lat="48.60614" lon="2.09808">
        <ele>112</ele>
        <time>2025-10-25T08:20:02Z</time>
      </trkpt>
      <trkpt lat="48.60613" lon="2.09804">
        <ele>111.6</ele>
        <time>2025-10-25T08:20:04Z</time>
      </trkpt>
      <trkpt lat="48.60612" lon="2.098">
        <ele>111.4</ele>
        <time>2025-10-25T08:20:06Z</time>
      </trkpt>
      <trkpt lat="48.60611" lon="2.09796">
        <ele>111.2</ele>
        <time>2025-10-25T08:20:08Z</time>
      </trkpt>
      <trkpt lat="48.6061" lon="2.09792">
        <ele>111</ele>
        <time>2025-10-25T08:20:10Z</time>
      </trkpt>
      <trkpt lat="48.60609" lon="2.09788">
        <ele>110.8</ele>
        <time>2025-10-25T08:20:12Z</time>
      </trkpt>
      <trkpt lat="48.60608" lon="2.09783">
        <ele>110.6</ele>
        <time>2025-10-25T08:20:14Z</time>
      </trkpt>
      <trkpt lat="48.60607" lon="2.09779">
        <ele>110.4</ele>
        <time>2025-10-25T08:20:16Z</time>
      </trkpt>
      <trkpt lat="48.60606" lon="2.09775">
        <ele>110.4</ele>
        <time>2025-10-25T08:20:18Z</time>
      </trkpt>
      <trkpt lat="48.60605" lon="2.09772">
        <ele>110.4</ele>
        <time>2025-10-25T08:20:20Z</time>
      </trkpt>
      <trkpt lat="48.60604" lon="2.09768">
        <ele>110.4</ele>
        <time>2025-10-25T08:20:22Z</time>
      </trkpt>
      <trkpt lat="48.60604" lon="2.09764">
        <ele>110.4</ele>
        <time>2025-10-25T08:20:24Z</time>
      </trkpt>
      <trkpt lat="48.60603" lon="2.0976">
        <ele>110.4</ele>
        <time>2025-10-25T08:20:26Z</time>
      </trkpt>
      <trkpt lat="48.60603" lon="2.09756">
        <ele>110.4</ele>
        <time>2025-10-25T08:20:28Z</time>
      </trkpt>
      <trkpt lat="48.60602" lon="2.09752">
        <ele>110.6</ele>
        <time>2025-10-25T08:20:30Z</time>
      </trkpt>
      <trkpt lat="48.60601" lon="2.09748">
        <ele>110.4</ele>
        <time>2025-10-25T08:20:32Z</time>
      </trkpt>
      <trkpt lat="48.60601" lon="2.09744">
        <ele>110.4</ele>
        <time>2025-10-25T08:20:34Z</time>
      </trkpt>
      <trkpt lat="48.60599" lon="2.0974">
        <ele>110.4</ele>
        <time>2025-10-25T08:20:36Z</time>
      </trkpt>
      <trkpt lat="48.60598" lon="2.09736">
        <ele>110.4</ele>
        <time>2025-10-25T08:20:38Z</time>
      </trkpt>
      <trkpt lat="48.60597" lon="2.09733">
        <ele>110.4</ele>
        <time>2025-10-25T08:20:40Z</time>
      </trkpt>
      <trkpt lat="48.60596" lon="2.09729">
        <ele>110.4</ele>
        <time>2025-10-25T08:20:42Z</time>
      </trkpt>
      <trkpt lat="48.60595" lon="2.09725">
        <ele>110.4</ele>
        <time>2025-10-25T08:20:44Z</time>
      </trkpt>
      <trkpt lat="48.60595" lon="2.09721">
        <ele>110.6</ele>
        <time>2025-10-25T08:20:46Z</time>
      </trkpt>
      <trkpt lat="48.60594" lon="2.09717">
        <ele>110.8</ele>
        <time>2025-10-25T08:20:48Z</time>
      </trkpt>
      <trkpt lat="48.60593" lon="2.09713">
        <ele>110.8</ele>
        <time>2025-10-25T08:20:50Z</time>
      </trkpt>
      <trkpt lat="48.60591" lon="2.09709">
        <ele>111</ele>
        <time>2025-10-25T08:20:52Z</time>
      </trkpt>
      <trkpt lat="48.60589" lon="2.09705">
        <ele>111</ele>
        <time>2025-10-25T08:20:54Z</time>
      </trkpt>
      <trkpt lat="48.60589" lon="2.09701">
        <ele>111.2</ele>
        <time>2025-10-25T08:20:56Z</time>
      </trkpt>
      <trkpt lat="48.60588" lon="2.09697">
        <ele>111.4</ele>
        <time>2025-10-25T08:20:58Z</time>
      </trkpt>
      <trkpt lat="48.60587" lon="2.09693">
        <ele>111.4</ele>
        <time>2025-10-25T08:21:00Z</time>
      </trkpt>
      <trkpt lat="48.60587" lon="2.09689">
        <ele>111.6</ele>
        <time>2025-10-25T08:21:02Z</time>
      </trkpt>
      <trkpt lat="48.60585" lon="2.09685">
        <ele>111.8</ele>
        <time>2025-10-25T08:21:04Z</time>
      </trkpt>
      <trkpt lat="48.60585" lon="2.09681">
        <ele>111.8</ele>
        <time>2025-10-25T08:21:06Z</time>
      </trkpt>
      <trkpt lat="48.60584" lon="2.09678">
        <ele>112</ele>
        <time>2025-10-25T08:21:08Z</time>
      </trkpt>
      <trkpt lat="48.60583" lon="2.09674">
        <ele>112.2</ele>
        <time>2025-10-25T08:21:10Z</time>
      </trkpt>
      <trkpt lat="48.60582" lon="2.09671">
        <ele>112.4</ele>
        <time>2025-10-25T08:21:12Z</time>
      </trkpt>
      <trkpt lat="48.60581" lon="2.09667">
        <ele>112.6</ele>
        <time>2025-10-25T08:21:14Z</time>
      </trkpt>
      <trkpt lat="48.60581" lon="2.09664">
        <ele>112.8</ele>
        <time>2025-10-25T08:21:16Z</time>
      </trkpt>
      <trkpt lat="48.6058" lon="2.0966">
        <ele>112.8</ele>
        <time>2025-10-25T08:21:18Z</time>
      </trkpt>
      <trkpt lat="48.60579" lon="2.09656">
        <ele>112.8</ele>
        <time>2025-10-25T08:21:20Z</time>
      </trkpt>
      <trkpt lat="48.60578" lon="2.09652">
        <ele>112.8</ele>
        <time>2025-10-25T08:21:22Z</time>
      </trkpt>
      <trkpt lat="48.60577" lon="2.09649">
        <ele>112.8</ele>
        <time>2025-10-25T08:21:24Z</time>
      </trkpt>
      <trkpt lat="48.60576" lon="2.09645">
        <ele>113</ele>
        <time>2025-10-25T08:21:26Z</time>
      </trkpt>
      <trkpt lat="48.60575" lon="2.09641">
        <ele>113</ele>
        <time>2025-10-25T08:21:28Z</time>
      </trkpt>
      <trkpt lat="48.60575" lon="2.09638">
        <ele>113.2</ele>
        <time>2025-10-25T08:21:30Z</time>
      </trkpt>
      <trkpt lat="48.60574" lon="2.09634">
        <ele>113.4</ele>
        <time>2025-10-25T08:21:32Z</time>
      </trkpt>
      <trkpt lat="48.60573" lon="2.0963">
        <ele>113.4</ele>
        <time>2025-10-25T08:21:34Z</time>
      </trkpt>
      <trkpt lat="48.60573" lon="2.09625">
        <ele>113.6</ele>
        <time>2025-10-25T08:21:36Z</time>
      </trkpt>
      <trkpt lat="48.60572" lon="2.09621">
        <ele>113.6</ele>
        <time>2025-10-25T08:21:38Z</time>
      </trkpt>
      <trkpt lat="48.60571" lon="2.09617">
        <ele>113.6</ele>
        <time>2025-10-25T08:21:40Z</time>
      </trkpt>
      <trkpt lat="48.6057" lon="2.09614">
        <ele>113.6</ele>
        <time>2025-10-25T08:21:42Z</time>
      </trkpt>
      <trkpt lat="48.60569" lon="2.0961">
        <ele>113.8</ele>
        <time>2025-10-25T08:21:44Z</time>
      </trkpt>
      <trkpt lat="48.60568" lon="2.09607">
        <ele>114</ele>
        <time>2025-10-25T08:21:46Z</time>
      </trkpt>
      <trkpt lat="48.60567" lon="2.09603">
        <ele>114.2</ele>
        <time>2025-10-25T08:21:48Z</time>
      </trkpt>
      <trkpt lat="48.60566" lon="2.096">
        <ele>114.4</ele>
        <time>2025-10-25T08:21:50Z</time>
      </trkpt>
      <trkpt lat="48.60565" lon="2.09596">
        <ele>114.4</ele>
        <time>2025-10-25T08:21:52Z</time>
      </trkpt>
      <trkpt lat="48.60563" lon="2.09592">
        <ele>114.4</ele>
        <time>2025-10-25T08:21:54Z</time>
      </trkpt>
      <trkpt lat="48.60563" lon="2.09589">
        <ele>114.6</ele>
        <time>2025-10-25T08:21:56Z</time>
      </trkpt>
      <trkpt lat="48.60561" lon="2.09585">
        <ele>114.6</ele>
        <time>2025-10-25T08:21:58Z</time>
      </trkpt>
      <trkpt lat="48.60561" lon="2.09581">
        <ele>114.8</ele>
        <time>2025-10-25T08:22:00Z</time>
      </trkpt>
      <trkpt lat="48.60559" lon="2.09577">
        <ele>115.2</ele>
        <time>2025-10-25T08:22:02Z</time>
      </trkpt>
      <trkpt lat="48.60558" lon="2.09573">
        <ele>115.4</ele>
        <time>2025-10-25T08:22:04Z</time>
      </trkpt>
      <trkpt lat="48.60557" lon="2.09569">
        <ele>115.8</ele>
        <time>2025-10-25T08:22:06Z</time>
      </trkpt>
      <trkpt lat="48.60556" lon="2.09565">
        <ele>116</ele>
        <time>2025-10-25T08:22:08Z</time>
      </trkpt>
      <trkpt lat="48.60555" lon="2.09561">
        <ele>116.4</ele>
        <time>2025-10-25T08:22:10Z</time>
      </trkpt>
      <trkpt lat="48.60555" lon="2.09557">
        <ele>116.6</ele>
        <time>2025-10-25T08:22:12Z</time>
      </trkpt>
      <trkpt lat="48.60556" lon="2.09553">
        <ele>116.8</ele>
        <time>2025-10-25T08:22:14Z</time>
      </trkpt>
      <trkpt lat="48.60557" lon="2.09549">
        <ele>117.2</ele>
        <time>2025-10-25T08:22:16Z</time>
      </trkpt>
      <trkpt lat="48.60558" lon="2.09545">
        <ele>117.4</ele>
        <time>2025-10-25T08:22:18Z</time>
      </trkpt>
      <trkpt lat="48.60559" lon="2.09542">
        <ele>117.6</ele>
        <time>2025-10-25T08:22:20Z</time>
      </trkpt>
      <trkpt lat="48.60559" lon="2.09539">
        <ele>117.8</ele>
        <time>2025-10-25T08:22:22Z</time>
      </trkpt>
      <trkpt lat="48.60559" lon="2.09536">
        <ele>118</ele>
        <time>2025-10-25T08:22:24Z</time>
      </trkpt>
      <trkpt lat="48.60558" lon="2.09533">
        <ele>118.2</ele>
        <time>2025-10-25T08:22:26Z</time>
      </trkpt>
      <trkpt lat="48.60557" lon="2.09529">
        <ele>118.4</ele>
        <time>2025-10-25T08:22:28Z</time>
      </trkpt>
      <trkpt lat="48.60557" lon="2.09524">
        <ele>118.6</ele>
        <time>2025-10-25T08:22:30Z</time>
      </trkpt>
      <trkpt lat="48.60556" lon="2.0952">
        <ele>118.8</ele>
        <time>2025-10-25T08:22:32Z</time>
      </trkpt>
      <trkpt lat="48.60555" lon="2.09516">
        <ele>119.2</ele>
        <time>2025-10-25T08:22:34Z</time>
      </trkpt>
      <trkpt lat="48.60555" lon="2.09512">
        <ele>119.2</ele>
        <time>2025-10-25T08:22:36Z</time>
      </trkpt>
      <trkpt lat="48.60554" lon="2.09507">
        <ele>119.4</ele>
        <time>2025-10-25T08:22:38Z</time>
      </trkpt>
      <trkpt lat="48.60554" lon="2.09503">
        <ele>119.4</ele>
        <time>2025-10-25T08:22:40Z</time>
      </trkpt>
      <trkpt lat="48.60554" lon="2.09498">
        <ele>119.4</ele>
        <time>2025-10-25T08:22:42Z</time>
      </trkpt>
      <trkpt lat="48.60554" lon="2.09494">
        <ele>119.4</ele>
        <time>2025-10-25T08:22:44Z</time>
      </trkpt>
      <trkpt lat="48.60555" lon="2.0949">
        <ele>119.2</ele>
        <time>2025-10-25T08:22:46Z</time>
      </trkpt>
      <trkpt lat="48.60555" lon="2.09486">
        <ele>119.2</ele>
        <time>2025-10-25T08:22:48Z</time>
      </trkpt>
      <trkpt lat="48.60555" lon="2.09482">
        <ele>119.2</ele>
        <time>2025-10-25T08:22:50Z</time>
      </trkpt>
      <trkpt lat="48.60556" lon="2.09478">
        <ele>119.2</ele>
        <time>2025-10-25T08:22:52Z</time>
      </trkpt>
      <trkpt lat="48.60556" lon="2.09474">
        <ele>119.2</ele>
        <time>2025-10-25T08:22:54Z</time>
      </trkpt>
      <trkpt lat="48.60557" lon="2.09471">
        <ele>119.2</ele>
        <time>2025-10-25T08:22:56Z</time>
      </trkpt>
      <trkpt lat="48.60558" lon="2.09467">
        <ele>119.2</ele>
        <time>2025-10-25T08:22:58Z</time>
      </trkpt>
      <trkpt lat="48.60559" lon="2.09464">
        <ele>119</ele>
        <time>2025-10-25T08:23:00Z</time>
      </trkpt>
      <trkpt lat="48.60561" lon="2.09462">
        <ele>119.2</ele>
        <time>2025-10-25T08:23:02Z</time>
      </trkpt>
      <trkpt lat="48.60564" lon="2.09461">
        <ele>119.2</ele>
        <time>2025-10-25T08:23:04Z</time>
      </trkpt>
      <trkpt lat="48.60567" lon="2.0946">
        <ele>119.2</ele>
        <time>2025-10-25T08:23:06Z</time>
      </trkpt>
      <trkpt lat="48.6057" lon="2.0946">
        <ele>119</ele>
        <time>2025-10-25T08:23:08Z</time>
      </trkpt>
      <trkpt lat="48.60573" lon="2.09459">
        <ele>119</ele>
        <time>2025-10-25T08:23:10Z</time>
      </trkpt>
      <trkpt lat="48.60576" lon="2.09459">
        <ele>119</ele>
        <time>2025-10-25T08:23:12Z</time>
      </trkpt>
      <trkpt lat="48.60579" lon="2.09458">
        <ele>118.8</ele>
        <time>2025-10-25T08:23:14Z</time>
      </trkpt>
      <trkpt lat="48.60581" lon="2.09457">
        <ele>118.8</ele>
        <time>2025-10-25T08:23:16Z</time>
      </trkpt>
      <trkpt lat="48.60584" lon="2.09457">
        <ele>118.8</ele>
        <time>2025-10-25T08:23:18Z</time>
      </trkpt>
      <trkpt lat="48.60586" lon="2.09456">
        <ele>118.6</ele>
        <time>2025-10-25T08:23:20Z</time>
      </trkpt>
      <trkpt lat="48.60588" lon="2.09454">
        <ele>118.8</ele>
        <time>2025-10-25T08:23:22Z</time>
      </trkpt>
      <trkpt lat="48.6059" lon="2.09452">
        <ele>118.8</ele>
        <time>2025-10-25T08:23:24Z</time>
      </trkpt>
      <trkpt lat="48.60592" lon="2.09449">
        <ele>118.6</ele>
        <time>2025-10-25T08:23:26Z</time>
      </trkpt>
      <trkpt lat="48.60593" lon="2.09446">
        <ele>118.6</ele>
        <time>2025-10-25T08:23:28Z</time>
      </trkpt>
      <trkpt lat="48.60595" lon="2.09443">
        <ele>118.4</ele>
        <time>2025-10-25T08:23:30Z</time>
      </trkpt>
      <trkpt lat="48.60597" lon="2.09439">
        <ele>118.4</ele>
        <time>2025-10-25T08:23:32Z</time>
      </trkpt>
      <trkpt lat="48.60599" lon="2.09436">
        <ele>118.4</ele>
        <time>2025-10-25T08:23:34Z</time>
      </trkpt>
      <trkpt lat="48.606" lon="2.09432">
        <ele>118.4</ele>
        <time>2025-10-25T08:23:36Z</time>
      </trkpt>
      <trkpt lat="48.60601" lon="2.09428">
        <ele>118.4</ele>
        <time>2025-10-25T08:23:38Z</time>
      </trkpt>
      <trkpt lat="48.606" lon="2.09424">
        <ele>118.4</ele>
        <time>2025-10-25T08:23:40Z</time>
      </trkpt>
      <trkpt lat="48.60599" lon="2.0942">
        <ele>118.6</ele>
        <time>2025-10-25T08:23:42Z</time>
      </trkpt>
      <trkpt lat="48.60599" lon="2.09416">
        <ele>118.6</ele>
        <time>2025-10-25T08:23:44Z</time>
      </trkpt>
      <trkpt lat="48.60598" lon="2.09411">
        <ele>118.8</ele>
        <time>2025-10-25T08:23:46Z</time>
      </trkpt>
      <trkpt lat="48.60597" lon="2.09408">
        <ele>118.8</ele>
        <time>2025-10-25T08:23:48Z</time>
      </trkpt>
      <trkpt lat="48.60597" lon="2.09404">
        <ele>119</ele>
        <time>2025-10-25T08:23:50Z</time>
      </trkpt>
      <trkpt lat="48.60596" lon="2.09401">
        <ele>119</ele>
        <time>2025-10-25T08:23:52Z</time>
      </trkpt>
      <trkpt lat="48.60595" lon="2.09397">
        <ele>119</ele>
        <time>2025-10-25T08:23:54Z</time>
      </trkpt>
      <trkpt lat="48.60595" lon="2.09393">
        <ele>119</ele>
        <time>2025-10-25T08:23:56Z</time>
      </trkpt>
      <trkpt lat="48.60595" lon="2.09389">
        <ele>119</ele>
        <time>2025-10-25T08:23:58Z</time>
      </trkpt>
      <trkpt lat="48.60594" lon="2.09385">
        <ele>119</ele>
        <time>2025-10-25T08:24:00Z</time>
      </trkpt>
      <trkpt lat="48.60594" lon="2.0938">
        <ele>119</ele>
        <time>2025-10-25T08:24:02Z</time>
      </trkpt>
      <trkpt lat="48.60594" lon="2.09376">
        <ele>119</ele>
        <time>2025-10-25T08:24:04Z</time>
      </trkpt>
      <trkpt lat="48.60594" lon="2.09372">
        <ele>119</ele>
        <time>2025-10-25T08:24:06Z</time>
      </trkpt>
      <trkpt lat="48.60593" lon="2.09368">
        <ele>119</ele>
        <time>2025-10-25T08:24:08Z</time>
      </trkpt>
      <trkpt lat="48.60593" lon="2.09365">
        <ele>119</ele>
        <time>2025-10-25T08:24:10Z</time>
      </trkpt>
      <trkpt lat="48.60593" lon="2.09361">
        <ele>119</ele>
        <time>2025-10-25T08:24:12Z</time>
      </trkpt>
      <trkpt lat="48.60592" lon="2.09357">
        <ele>118.8</ele>
        <time>2025-10-25T08:24:14Z</time>
      </trkpt>
      <trkpt lat="48.60592" lon="2.09353">
        <ele>118.8</ele>
        <time>2025-10-25T08:24:16Z</time>
      </trkpt>
      <trkpt lat="48.60591" lon="2.09349">
        <ele>118.8</ele>
        <time>2025-10-25T08:24:18Z</time>
      </trkpt>
      <trkpt lat="48.60591" lon="2.09344">
        <ele>118.4</ele>
        <time>2025-10-25T08:24:20Z</time>
      </trkpt>
      <trkpt lat="48.60591" lon="2.09339">
        <ele>118.2</ele>
        <time>2025-10-25T08:24:22Z</time>
      </trkpt>
      <trkpt lat="48.60589" lon="2.09335">
        <ele>118.2</ele>
        <time>2025-10-25T08:24:24Z</time>
      </trkpt>
      <trkpt lat="48.60588" lon="2.09333">
        <ele>118</ele>
        <time>2025-10-25T08:24:26Z</time>
      </trkpt>
      <trkpt lat="48.60585" lon="2.09332">
        <ele>117.8</ele>
        <time>2025-10-25T08:24:28Z</time>
      </trkpt>
      <trkpt lat="48.60583" lon="2.09332">
        <ele>117.6</ele>
        <time>2025-10-25T08:24:30Z</time>
      </trkpt>
      <trkpt lat="48.6058" lon="2.09333">
        <ele>117.4</ele>
        <time>2025-10-25T08:24:32Z</time>
      </trkpt>
      <trkpt lat="48.60577" lon="2.09335">
        <ele>117.4</ele>
        <time>2025-10-25T08:24:34Z</time>
      </trkpt>
      <trkpt lat="48.60575" lon="2.09337">
        <ele>117.2</ele>
        <time>2025-10-25T08:24:36Z</time>
      </trkpt>
      <trkpt lat="48.60572" lon="2.09338">
        <ele>117</ele>
        <time>2025-10-25T08:24:38Z</time>
      </trkpt>
      <trkpt lat="48.60569" lon="2.0934">
        <ele>117</ele>
        <time>2025-10-25T08:24:40Z</time>
      </trkpt>
      <trkpt lat="48.60567" lon="2.09341">
        <ele>117.2</ele>
        <time>2025-10-25T08:24:42Z</time>
      </trkpt>
      <trkpt lat="48.60564" lon="2.09341">
        <ele>117</ele>
        <time>2025-10-25T08:24:44Z</time>
      </trkpt>
      <trkpt lat="48.60561" lon="2.09342">
        <ele>117</ele>
        <time>2025-10-25T08:24:46Z</time>
      </trkpt>
      <trkpt lat="48.60557" lon="2.09341">
        <ele>117</ele>
        <time>2025-10-25T08:24:48Z</time>
      </trkpt>
      <trkpt lat="48.60555" lon="2.09341">
        <ele>117</ele>
        <time>2025-10-25T08:24:50Z</time>
      </trkpt>
      <trkpt lat="48.60551" lon="2.09341">
        <ele>117</ele>
        <time>2025-10-25T08:24:52Z</time>
      </trkpt>
      <trkpt lat="48.60548" lon="2.09342">
        <ele>117</ele>
        <time>2025-10-25T08:24:54Z</time>
      </trkpt>
      <trkpt lat="48.60546" lon="2.09342">
        <ele>116.6</ele>
        <time>2025-10-25T08:24:56Z</time>
      </trkpt>
      <trkpt lat="48.60543" lon="2.09343">
        <ele>116.4</ele>
        <time>2025-10-25T08:24:58Z</time>
      </trkpt>
      <trkpt lat="48.6054" lon="2.09343">
        <ele>116.2</ele>
        <time>2025-10-25T08:25:00Z</time>
      </trkpt>
      <trkpt lat="48.60538" lon="2.09343">
        <ele>116</ele>
        <time>2025-10-25T08:25:02Z</time>
      </trkpt>
      <trkpt lat="48.60535" lon="2.09343">
        <ele>116</ele>
        <time>2025-10-25T08:25:04Z</time>
      </trkpt>
      <trkpt lat="48.60532" lon="2.09343">
        <ele>116</ele>
        <time>2025-10-25T08:25:06Z</time>
      </trkpt>
      <trkpt lat="48.60529" lon="2.09344">
        <ele>116.2</ele>
        <time>2025-10-25T08:25:08Z</time>
      </trkpt>
      <trkpt lat="48.60526" lon="2.09344">
        <ele>116.2</ele>
        <time>2025-10-25T08:25:10Z</time>
      </trkpt>
      <trkpt lat="48.60523" lon="2.09345">
        <ele>116.2</ele>
        <time>2025-10-25T08:25:12Z</time>
      </trkpt>
      <trkpt lat="48.60521" lon="2.09345">
        <ele>116.4</ele>
        <time>2025-10-25T08:25:14Z</time>
      </trkpt>
      <trkpt lat="48.60518" lon="2.09346">
        <ele>116.4</ele>
        <time>2025-10-25T08:25:16Z</time>
      </trkpt>
      <trkpt lat="48.60515" lon="2.09347">
        <ele>116.6</ele>
        <time>2025-10-25T08:25:18Z</time>
      </trkpt>
      <trkpt lat="48.60512" lon="2.09348">
        <ele>116.8</ele>
        <time>2025-10-25T08:25:20Z</time>
      </trkpt>
      <trkpt lat="48.60509" lon="2.09348">
        <ele>116.8</ele>
        <time>2025-10-25T08:25:22Z</time>
      </trkpt>
      <trkpt lat="48.60506" lon="2.09349">
        <ele>116.8</ele>
        <time>2025-10-25T08:25:24Z</time>
      </trkpt>
      <trkpt lat="48.60503" lon="2.0935">
        <ele>116.8</ele>
        <time>2025-10-25T08:25:26Z</time>
      </trkpt>
      <trkpt lat="48.605" lon="2.09351">
        <ele>116.8</ele>
        <time>2025-10-25T08:25:28Z</time>
      </trkpt>
      <trkpt lat="48.60498" lon="2.09351">
        <ele>116.8</ele>
        <time>2025-10-25T08:25:29Z</time>
      </trkpt>
      <trkpt lat="48.60495" lon="2.09353">
        <ele>116.8</ele>
        <time>2025-10-25T08:25:31Z</time>
      </trkpt>
      <trkpt lat="48.60492" lon="2.09354">
        <ele>116.6</ele>
        <time>2025-10-25T08:25:33Z</time>
      </trkpt>
      <trkpt lat="48.6049" lon="2.09355">
        <ele>116.6</ele>
        <time>2025-10-25T08:25:35Z</time>
      </trkpt>
      <trkpt lat="48.60487" lon="2.09356">
        <ele>116.4</ele>
        <time>2025-10-25T08:25:37Z</time>
      </trkpt>
      <trkpt lat="48.60484" lon="2.09358">
        <ele>116.2</ele>
        <time>2025-10-25T08:25:39Z</time>
      </trkpt>
      <trkpt lat="48.60482" lon="2.09359">
        <ele>116</ele>
        <time>2025-10-25T08:25:41Z</time>
      </trkpt>
      <trkpt lat="48.60479" lon="2.09359">
        <ele>116</ele>
        <time>2025-10-25T08:25:43Z</time>
      </trkpt>
      <trkpt lat="48.60477" lon="2.0936">
        <ele>116</ele>
        <time>2025-10-25T08:25:44Z</time>
      </trkpt>
      <trkpt lat="48.60474" lon="2.0936">
        <ele>115.8</ele>
        <time>2025-10-25T08:25:46Z</time>
      </trkpt>
      <trkpt lat="48.60471" lon="2.09361">
        <ele>115.8</ele>
        <time>2025-10-25T08:25:48Z</time>
      </trkpt>
      <trkpt lat="48.60468" lon="2.09361">
        <ele>115.6</ele>
        <time>2025-10-25T08:25:50Z</time>
      </trkpt>
      <trkpt lat="48.60465" lon="2.09362">
        <ele>115.6</ele>
        <time>2025-10-25T08:25:52Z</time>
      </trkpt>
      <trkpt lat="48.60463" lon="2.09363">
        <ele>115.4</ele>
        <time>2025-10-25T08:25:54Z</time>
      </trkpt>
      <trkpt lat="48.60461" lon="2.09364">
        <ele>115.4</ele>
        <time>2025-10-25T08:25:56Z</time>
      </trkpt>
      <trkpt lat="48.60459" lon="2.09364">
        <ele>115.2</ele>
        <time>2025-10-25T08:25:59Z</time>
      </trkpt>
      <trkpt lat="48.60457" lon="2.09365">
        <ele>115</ele>
        <time>2025-10-25T08:26:04Z</time>
      </trkpt>
      <trkpt lat="48.60455" lon="2.09365">
        <ele>114.8</ele>
        <time>2025-10-25T08:26:06Z</time>
      </trkpt>
      <trkpt lat="48.60453" lon="2.09366">
        <ele>114.8</ele>
        <time>2025-10-25T08:26:08Z</time>
      </trkpt>
      <trkpt lat="48.6045" lon="2.09366">
        <ele>114.6</ele>
        <time>2025-10-25T08:26:10Z</time>
      </trkpt>
      <trkpt lat="48.60447" lon="2.09367">
        <ele>114.4</ele>
        <time>2025-10-25T08:26:12Z</time>
      </trkpt>
      <trkpt lat="48.60445" lon="2.09367">
        <ele>114.2</ele>
        <time>2025-10-25T08:26:14Z</time>
      </trkpt>
      <trkpt lat="48.60442" lon="2.09368">
        <ele>114.4</ele>
        <time>2025-10-25T08:26:16Z</time>
      </trkpt>
      <trkpt lat="48.60436" lon="2.0937">
        <ele>114.8</ele>
        <time>2025-10-25T08:26:21Z</time>
      </trkpt>
      <trkpt lat="48.60434" lon="2.0937">
        <ele>115</ele>
        <time>2025-10-25T08:26:26Z</time>
      </trkpt>
      <trkpt lat="48.60431" lon="2.09371">
        <ele>114.8</ele>
        <time>2025-10-25T08:26:29Z</time>
      </trkpt>
      <trkpt lat="48.60428" lon="2.09371">
        <ele>114.6</ele>
        <time>2025-10-25T08:26:31Z</time>
      </trkpt>
      <trkpt lat="48.60426" lon="2.09372">
        <ele>114.6</ele>
        <time>2025-10-25T08:26:33Z</time>
      </trkpt>
      <trkpt lat="48.60423" lon="2.09372">
        <ele>114.4</ele>
        <time>2025-10-25T08:26:35Z</time>
      </trkpt>
      <trkpt lat="48.6042" lon="2.09373">
        <ele>114.2</ele>
        <time>2025-10-25T08:26:37Z</time>
      </trkpt>
      <trkpt lat="48.60418" lon="2.09374">
        <ele>114.2</ele>
        <time>2025-10-25T08:26:39Z</time>
      </trkpt>
      <trkpt lat="48.60415" lon="2.09374">
        <ele>114</ele>
        <time>2025-10-25T08:26:41Z</time>
      </trkpt>
      <trkpt lat="48.60412" lon="2.09375">
        <ele>114</ele>
        <time>2025-10-25T08:26:43Z</time>
      </trkpt>
      <trkpt lat="48.6041" lon="2.09376">
        <ele>113.8</ele>
        <time>2025-10-25T08:26:45Z</time>
      </trkpt>
      <trkpt lat="48.60407" lon="2.09376">
        <ele>113.8</ele>
        <time>2025-10-25T08:26:47Z</time>
      </trkpt>
      <trkpt lat="48.60404" lon="2.09377">
        <ele>113.8</ele>
        <time>2025-10-25T08:26:49Z</time>
      </trkpt>
      <trkpt lat="48.60402" lon="2.09377">
        <ele>113.6</ele>
        <time>2025-10-25T08:26:51Z</time>
      </trkpt>
      <trkpt lat="48.604" lon="2.09378">
        <ele>113.6</ele>
        <time>2025-10-25T08:26:53Z</time>
      </trkpt>
      <trkpt lat="48.60398" lon="2.09379">
        <ele>113.6</ele>
        <time>2025-10-25T08:26:55Z</time>
      </trkpt>
      <trkpt lat="48.60395" lon="2.09379">
        <ele>113.4</ele>
        <time>2025-10-25T08:26:57Z</time>
      </trkpt>
      <trkpt lat="48.60392" lon="2.0938">
        <ele>113.4</ele>
        <time>2025-10-25T08:26:59Z</time>
      </trkpt>
      <trkpt lat="48.6039" lon="2.0938">
        <ele>113.4</ele>
        <time>2025-10-25T08:27:01Z</time>
      </trkpt>
      <trkpt lat="48.60388" lon="2.0938">
        <ele>113.2</ele>
        <time>2025-10-25T08:27:03Z</time>
      </trkpt>
      <trkpt lat="48.60385" lon="2.09381">
        <ele>113</ele>
        <time>2025-10-25T08:27:05Z</time>
      </trkpt>
      <trkpt lat="48.60383" lon="2.09381">
        <ele>112.8</ele>
        <time>2025-10-25T08:27:07Z</time>
      </trkpt>
      <trkpt lat="48.6038" lon="2.09382">
        <ele>112.8</ele>
        <time>2025-10-25T08:27:09Z</time>
      </trkpt>
      <trkpt lat="48.60378" lon="2.09383">
        <ele>112.8</ele>
        <time>2025-10-25T08:27:11Z</time>
      </trkpt>
      <trkpt lat="48.60375" lon="2.09383">
        <ele>112.6</ele>
        <time>2025-10-25T08:27:13Z</time>
      </trkpt>
      <trkpt lat="48.60372" lon="2.09383">
        <ele>112.4</ele>
        <time>2025-10-25T08:27:15Z</time>
      </trkpt>
      <trkpt lat="48.6037" lon="2.09384">
        <ele>112.2</ele>
        <time>2025-10-25T08:27:17Z</time>
      </trkpt>
      <trkpt lat="48.60367" lon="2.09384">
        <ele>112</ele>
        <time>2025-10-25T08:27:19Z</time>
      </trkpt>
      <trkpt lat="48.60364" lon="2.09385">
        <ele>112</ele>
        <time>2025-10-25T08:27:21Z</time>
      </trkpt>
      <trkpt lat="48.60362" lon="2.09386">
        <ele>111.8</ele>
        <time>2025-10-25T08:27:23Z</time>
      </trkpt>
      <trkpt lat="48.60359" lon="2.09387">
        <ele>111.6</ele>
        <time>2025-10-25T08:27:25Z</time>
      </trkpt>
      <trkpt lat="48.60357" lon="2.09388">
        <ele>111.6</ele>
        <time>2025-10-25T08:27:27Z</time>
      </trkpt>
      <trkpt lat="48.60355" lon="2.09389">
        <ele>111.4</ele>
        <time>2025-10-25T08:27:29Z</time>
      </trkpt>
      <trkpt lat="48.60352" lon="2.0939">
        <ele>111.4</ele>
        <time>2025-10-25T08:27:31Z</time>
      </trkpt>
      <trkpt lat="48.6035" lon="2.09391">
        <ele>111.4</ele>
        <time>2025-10-25T08:27:33Z</time>
      </trkpt>
      <trkpt lat="48.60348" lon="2.09391">
        <ele>111.2</ele>
        <time>2025-10-25T08:27:35Z</time>
      </trkpt>
      <trkpt lat="48.60346" lon="2.09392">
        <ele>111.2</ele>
        <time>2025-10-25T08:27:37Z</time>
      </trkpt>
      <trkpt lat="48.60344" lon="2.09394">
        <ele>111</ele>
        <time>2025-10-25T08:27:39Z</time>
      </trkpt>
      <trkpt lat="48.60342" lon="2.09396">
        <ele>110.8</ele>
        <time>2025-10-25T08:27:41Z</time>
      </trkpt>
      <trkpt lat="48.6034" lon="2.09398">
        <ele>110.6</ele>
        <time>2025-10-25T08:27:43Z</time>
      </trkpt>
      <trkpt lat="48.60339" lon="2.09401">
        <ele>110.2</ele>
        <time>2025-10-25T08:27:45Z</time>
      </trkpt>
      <trkpt lat="48.60338" lon="2.09404">
        <ele>110.2</ele>
        <time>2025-10-25T08:27:47Z</time>
      </trkpt>
      <trkpt lat="48.60336" lon="2.09408">
        <ele>110.2</ele>
        <time>2025-10-25T08:27:49Z</time>
      </trkpt>
      <trkpt lat="48.60334" lon="2.09411">
        <ele>110.2</ele>
        <time>2025-10-25T08:27:51Z</time>
      </trkpt>
      <trkpt lat="48.60332" lon="2.09414">
        <ele>110.2</ele>
        <time>2025-10-25T08:27:53Z</time>
      </trkpt>
      <trkpt lat="48.6033" lon="2.09417">
        <ele>110.4</ele>
        <time>2025-10-25T08:27:55Z</time>
      </trkpt>
      <trkpt lat="48.60327" lon="2.09418">
        <ele>110.4</ele>
        <time>2025-10-25T08:27:57Z</time>
      </trkpt>
      <trkpt lat="48.60324" lon="2.0942">
        <ele>110.6</ele>
        <time>2025-10-25T08:27:59Z</time>
      </trkpt>
      <trkpt lat="48.60322" lon="2.09422">
        <ele>110.6</ele>
        <time>2025-10-25T08:28:01Z</time>
      </trkpt>
      <trkpt lat="48.60319" lon="2.09423">
        <ele>110.6</ele>
        <time>2025-10-25T08:28:03Z</time>
      </trkpt>
      <trkpt lat="48.60317" lon="2.09424">
        <ele>110.6</ele>
        <time>2025-10-25T08:28:05Z</time>
      </trkpt>
      <trkpt lat="48.60315" lon="2.09425">
        <ele>110.4</ele>
        <time>2025-10-25T08:28:07Z</time>
      </trkpt>
      <trkpt lat="48.60312" lon="2.09426">
        <ele>110.2</ele>
        <time>2025-10-25T08:28:09Z</time>
      </trkpt>
      <trkpt lat="48.60309" lon="2.09427">
        <ele>110.2</ele>
        <time>2025-10-25T08:28:11Z</time>
      </trkpt>
      <trkpt lat="48.60307" lon="2.09429">
        <ele>110</ele>
        <time>2025-10-25T08:28:13Z</time>
      </trkpt>
      <trkpt lat="48.60304" lon="2.0943">
        <ele>110</ele>
        <time>2025-10-25T08:28:15Z</time>
      </trkpt>
      <trkpt lat="48.60301" lon="2.09431">
        <ele>109.8</ele>
        <time>2025-10-25T08:28:17Z</time>
      </trkpt>
      <trkpt lat="48.60299" lon="2.09431">
        <ele>109.8</ele>
        <time>2025-10-25T08:28:19Z</time>
      </trkpt>
      <trkpt lat="48.60296" lon="2.09432">
        <ele>109.8</ele>
        <time>2025-10-25T08:28:21Z</time>
      </trkpt>
      <trkpt lat="48.60293" lon="2.09433">
        <ele>109.6</ele>
        <time>2025-10-25T08:28:23Z</time>
      </trkpt>
      <trkpt lat="48.60291" lon="2.09434">
        <ele>109.6</ele>
        <time>2025-10-25T08:28:25Z</time>
      </trkpt>
      <trkpt lat="48.60289" lon="2.09434">
        <ele>109.4</ele>
        <time>2025-10-25T08:28:27Z</time>
      </trkpt>
      <trkpt lat="48.60287" lon="2.09434">
        <ele>109.4</ele>
        <time>2025-10-25T08:28:29Z</time>
      </trkpt>
      <trkpt lat="48.60284" lon="2.09435">
        <ele>109.4</ele>
        <time>2025-10-25T08:28:31Z</time>
      </trkpt>
      <trkpt lat="48.60282" lon="2.09436">
        <ele>109.4</ele>
        <time>2025-10-25T08:28:33Z</time>
      </trkpt>
      <trkpt lat="48.60279" lon="2.09436">
        <ele>109.4</ele>
        <time>2025-10-25T08:28:35Z</time>
      </trkpt>
      <trkpt lat="48.60277" lon="2.09437">
        <ele>109</ele>
        <time>2025-10-25T08:28:37Z</time>
      </trkpt>
      <trkpt lat="48.60275" lon="2.09438">
        <ele>108.8</ele>
        <time>2025-10-25T08:28:39Z</time>
      </trkpt>
      <trkpt lat="48.60272" lon="2.09439">
        <ele>108.6</ele>
        <time>2025-10-25T08:28:41Z</time>
      </trkpt>
      <trkpt lat="48.60269" lon="2.0944">
        <ele>108.6</ele>
        <time>2025-10-25T08:28:43Z</time>
      </trkpt>
      <trkpt lat="48.60267" lon="2.0944">
        <ele>108.4</ele>
        <time>2025-10-25T08:28:45Z</time>
      </trkpt>
      <trkpt lat="48.60264" lon="2.09441">
        <ele>108.4</ele>
        <time>2025-10-25T08:28:47Z</time>
      </trkpt>
      <trkpt lat="48.60262" lon="2.09441">
        <ele>108.4</ele>
        <time>2025-10-25T08:28:49Z</time>
      </trkpt>
      <trkpt lat="48.6026" lon="2.09442">
        <ele>108.4</ele>
        <time>2025-10-25T08:28:51Z</time>
      </trkpt>
      <trkpt lat="48.60257" lon="2.09442">
        <ele>108.2</ele>
        <time>2025-10-25T08:28:53Z</time>
      </trkpt>
      <trkpt lat="48.60255" lon="2.09443">
        <ele>108</ele>
        <time>2025-10-25T08:28:55Z</time>
      </trkpt>
      <trkpt lat="48.60253" lon="2.09444">
        <ele>108</ele>
        <time>2025-10-25T08:28:57Z</time>
      </trkpt>
      <trkpt lat="48.60251" lon="2.09445">
        <ele>108.2</ele>
        <time>2025-10-25T08:28:59Z</time>
      </trkpt>
      <trkpt lat="48.60248" lon="2.09445">
        <ele>108.4</ele>
        <time>2025-10-25T08:29:01Z</time>
      </trkpt>
      <trkpt lat="48.60246" lon="2.09446">
        <ele>108.4</ele>
        <time>2025-10-25T08:29:03Z</time>
      </trkpt>
      <trkpt lat="48.60244" lon="2.09446">
        <ele>108.6</ele>
        <time>2025-10-25T08:29:06Z</time>
      </trkpt>
      <trkpt lat="48.60241" lon="2.09447">
        <ele>109</ele>
        <time>2025-10-25T08:29:10Z</time>
      </trkpt>
      <trkpt lat="48.60239" lon="2.09447">
        <ele>109</ele>
        <time>2025-10-25T08:29:12Z</time>
      </trkpt>
      <trkpt lat="48.60237" lon="2.09447">
        <ele>109</ele>
        <time>2025-10-25T08:29:14Z</time>
      </trkpt>
      <trkpt lat="48.60235" lon="2.09449">
        <ele>109</ele>
        <time>2025-10-25T08:29:16Z</time>
      </trkpt>
      <trkpt lat="48.60232" lon="2.0945">
        <ele>109</ele>
        <time>2025-10-25T08:29:18Z</time>
      </trkpt>
      <trkpt lat="48.60229" lon="2.09452">
        <ele>109.2</ele>
        <time>2025-10-25T08:29:20Z</time>
      </trkpt>
      <trkpt lat="48.60227" lon="2.09454">
        <ele>109</ele>
        <time>2025-10-25T08:29:22Z</time>
      </trkpt>
      <trkpt lat="48.60223" lon="2.09456">
        <ele>109</ele>
        <time>2025-10-25T08:29:24Z</time>
      </trkpt>
      <trkpt lat="48.60221" lon="2.09457">
        <ele>109</ele>
        <time>2025-10-25T08:29:26Z</time>
      </trkpt>
      <trkpt lat="48.60219" lon="2.09458">
        <ele>109</ele>
        <time>2025-10-25T08:29:28Z</time>
      </trkpt>
      <trkpt lat="48.60216" lon="2.09458">
        <ele>109</ele>
        <time>2025-10-25T08:29:30Z</time>
      </trkpt>
      <trkpt lat="48.60213" lon="2.09459">
        <ele>109</ele>
        <time>2025-10-25T08:29:32Z</time>
      </trkpt>
      <trkpt lat="48.60211" lon="2.0946">
        <ele>109</ele>
        <time>2025-10-25T08:29:34Z</time>
      </trkpt>
      <trkpt lat="48.60208" lon="2.09461">
        <ele>109</ele>
        <time>2025-10-25T08:29:36Z</time>
      </trkpt>
      <trkpt lat="48.60205" lon="2.09462">
        <ele>109</ele>
        <time>2025-10-25T08:29:38Z</time>
      </trkpt>
      <trkpt lat="48.60203" lon="2.09463">
        <ele>109</ele>
        <time>2025-10-25T08:29:40Z</time>
      </trkpt>
      <trkpt lat="48.602" lon="2.09463">
        <ele>109.2</ele>
        <time>2025-10-25T08:29:42Z</time>
      </trkpt>
      <trkpt lat="48.60197" lon="2.09464">
        <ele>109.2</ele>
        <time>2025-10-25T08:29:44Z</time>
      </trkpt>
      <trkpt lat="48.60195" lon="2.09465">
        <ele>109.2</ele>
        <time>2025-10-25T08:29:46Z</time>
      </trkpt>
      <trkpt lat="48.60193" lon="2.09465">
        <ele>109.4</ele>
        <time>2025-10-25T08:29:48Z</time>
      </trkpt>
      <trkpt lat="48.6019" lon="2.09466">
        <ele>109.4</ele>
        <time>2025-10-25T08:29:50Z</time>
      </trkpt>
      <trkpt lat="48.60187" lon="2.09467">
        <ele>109.6</ele>
        <time>2025-10-25T08:29:52Z</time>
      </trkpt>
      <trkpt lat="48.60184" lon="2.09468">
        <ele>109.6</ele>
        <time>2025-10-25T08:29:54Z</time>
      </trkpt>
      <trkpt lat="48.60181" lon="2.09469">
        <ele>109.6</ele>
        <time>2025-10-25T08:29:56Z</time>
      </trkpt>
      <trkpt lat="48.60178" lon="2.0947">
        <ele>109.4</ele>
        <time>2025-10-25T08:29:58Z</time>
      </trkpt>
      <trkpt lat="48.60176" lon="2.09471">
        <ele>109.4</ele>
        <time>2025-10-25T08:30:00Z</time>
      </trkpt>
      <trkpt lat="48.60173" lon="2.09472">
        <ele>109.4</ele>
        <time>2025-10-25T08:30:02Z</time>
      </trkpt>
      <trkpt lat="48.6017" lon="2.09473">
        <ele>109.2</ele>
        <time>2025-10-25T08:30:04Z</time>
      </trkpt>
      <trkpt lat="48.60168" lon="2.09474">
        <ele>109.2</ele>
        <time>2025-10-25T08:30:06Z</time>
      </trkpt>
      <trkpt lat="48.60165" lon="2.09475">
        <ele>109.2</ele>
        <time>2025-10-25T08:30:08Z</time>
      </trkpt>
      <trkpt lat="48.60162" lon="2.09476">
        <ele>109.2</ele>
        <time>2025-10-25T08:30:10Z</time>
      </trkpt>
      <trkpt lat="48.6016" lon="2.09477">
        <ele>109</ele>
        <time>2025-10-25T08:30:12Z</time>
      </trkpt>
      <trkpt lat="48.60156" lon="2.09477">
        <ele>109</ele>
        <time>2025-10-25T08:30:14Z</time>
      </trkpt>
      <trkpt lat="48.60154" lon="2.09478">
        <ele>109</ele>
        <time>2025-10-25T08:30:16Z</time>
      </trkpt>
      <trkpt lat="48.60151" lon="2.09478">
        <ele>109</ele>
        <time>2025-10-25T08:30:18Z</time>
      </trkpt>
      <trkpt lat="48.60148" lon="2.09479">
        <ele>108.8</ele>
        <time>2025-10-25T08:30:20Z</time>
      </trkpt>
      <trkpt lat="48.60146" lon="2.09479">
        <ele>108.6</ele>
        <time>2025-10-25T08:30:22Z</time>
      </trkpt>
      <trkpt lat="48.60143" lon="2.09479">
        <ele>108.6</ele>
        <time>2025-10-25T08:30:24Z</time>
      </trkpt>
      <trkpt lat="48.6014" lon="2.0948">
        <ele>108.4</ele>
        <time>2025-10-25T08:30:26Z</time>
      </trkpt>
      <trkpt lat="48.60138" lon="2.0948">
        <ele>108.2</ele>
        <time>2025-10-25T08:30:28Z</time>
      </trkpt>
      <trkpt lat="48.60135" lon="2.0948">
        <ele>108.2</ele>
        <time>2025-10-25T08:30:30Z</time>
      </trkpt>
      <trkpt lat="48.60132" lon="2.0948">
        <ele>108.2</ele>
        <time>2025-10-25T08:30:32Z</time>
      </trkpt>
      <trkpt lat="48.6013" lon="2.09481">
        <ele>108.2</ele>
        <time>2025-10-25T08:30:34Z</time>
      </trkpt>
      <trkpt lat="48.60128" lon="2.09481">
        <ele>108</ele>
        <time>2025-10-25T08:30:36Z</time>
      </trkpt>
      <trkpt lat="48.60125" lon="2.09481">
        <ele>108</ele>
        <time>2025-10-25T08:30:38Z</time>
      </trkpt>
      <trkpt lat="48.60123" lon="2.09482">
        <ele>108</ele>
        <time>2025-10-25T08:30:40Z</time>
      </trkpt>
      <trkpt lat="48.6012" lon="2.09482">
        <ele>107.8</ele>
        <time>2025-10-25T08:30:42Z</time>
      </trkpt>
      <trkpt lat="48.60117" lon="2.09482">
        <ele>107.8</ele>
        <time>2025-10-25T08:30:44Z</time>
      </trkpt>
      <trkpt lat="48.60114" lon="2.09483">
        <ele>107.8</ele>
        <time>2025-10-25T08:30:46Z</time>
      </trkpt>
      <trkpt lat="48.60112" lon="2.09483">
        <ele>107.8</ele>
        <time>2025-10-25T08:30:48Z</time>
      </trkpt>
      <trkpt lat="48.60109" lon="2.09484">
        <ele>107.8</ele>
        <time>2025-10-25T08:30:50Z</time>
      </trkpt>
      <trkpt lat="48.60107" lon="2.09484">
        <ele>107.8</ele>
        <time>2025-10-25T08:30:52Z</time>
      </trkpt>
      <trkpt lat="48.60104" lon="2.09484">
        <ele>107.8</ele>
        <time>2025-10-25T08:30:54Z</time>
      </trkpt>
      <trkpt lat="48.60101" lon="2.09485">
        <ele>107.8</ele>
        <time>2025-10-25T08:30:56Z</time>
      </trkpt>
      <trkpt lat="48.60099" lon="2.09485">
        <ele>107.8</ele>
        <time>2025-10-25T08:30:58Z</time>
      </trkpt>
      <trkpt lat="48.60096" lon="2.09486">
        <ele>107.8</ele>
        <time>2025-10-25T08:31:00Z</time>
      </trkpt>
      <trkpt lat="48.60093" lon="2.09486">
        <ele>107.8</ele>
        <time>2025-10-25T08:31:02Z</time>
      </trkpt>
      <trkpt lat="48.60091" lon="2.09486">
        <ele>108</ele>
        <time>2025-10-25T08:31:04Z</time>
      </trkpt>
      <trkpt lat="48.60088" lon="2.09487">
        <ele>108</ele>
        <time>2025-10-25T08:31:06Z</time>
      </trkpt>
      <trkpt lat="48.60085" lon="2.09487">
        <ele>108.2</ele>
        <time>2025-10-25T08:31:08Z</time>
      </trkpt>
      <trkpt lat="48.60083" lon="2.09487">
        <ele>108.4</ele>
        <time>2025-10-25T08:31:10Z</time>
      </trkpt>
      <trkpt lat="48.6008" lon="2.09488">
        <ele>108.6</ele>
        <time>2025-10-25T08:31:12Z</time>
      </trkpt>
      <trkpt lat="48.60077" lon="2.09489">
        <ele>108.8</ele>
        <time>2025-10-25T08:31:14Z</time>
      </trkpt>
      <trkpt lat="48.60074" lon="2.09489">
        <ele>108.8</ele>
        <time>2025-10-25T08:31:16Z</time>
      </trkpt>
      <trkpt lat="48.60071" lon="2.09489">
        <ele>109</ele>
        <time>2025-10-25T08:31:18Z</time>
      </trkpt>
      <trkpt lat="48.60068" lon="2.0949">
        <ele>108.8</ele>
        <time>2025-10-25T08:31:20Z</time>
      </trkpt>
      <trkpt lat="48.60066" lon="2.0949">
        <ele>108.8</ele>
        <time>2025-10-25T08:31:22Z</time>
      </trkpt>
      <trkpt lat="48.60062" lon="2.0949">
        <ele>108.6</ele>
        <time>2025-10-25T08:31:24Z</time>
      </trkpt>
      <trkpt lat="48.60059" lon="2.09491">
        <ele>108.6</ele>
        <time>2025-10-25T08:31:26Z</time>
      </trkpt>
      <trkpt lat="48.60057" lon="2.09491">
        <ele>108.4</ele>
        <time>2025-10-25T08:31:28Z</time>
      </trkpt>
      <trkpt lat="48.60054" lon="2.09491">
        <ele>108.4</ele>
        <time>2025-10-25T08:31:30Z</time>
      </trkpt>
      <trkpt lat="48.60051" lon="2.09491">
        <ele>108.4</ele>
        <time>2025-10-25T08:31:32Z</time>
      </trkpt>
      <trkpt lat="48.60048" lon="2.09491">
        <ele>108.4</ele>
        <time>2025-10-25T08:31:34Z</time>
      </trkpt>
      <trkpt lat="48.60045" lon="2.09491">
        <ele>108.4</ele>
        <time>2025-10-25T08:31:36Z</time>
      </trkpt>
      <trkpt lat="48.60042" lon="2.09491">
        <ele>108.4</ele>
        <time>2025-10-25T08:31:38Z</time>
      </trkpt>
      <trkpt lat="48.60038" lon="2.09491">
        <ele>108.4</ele>
        <time>2025-10-25T08:31:40Z</time>
      </trkpt>
      <trkpt lat="48.60035" lon="2.09491">
        <ele>108.4</ele>
        <time>2025-10-25T08:31:42Z</time>
      </trkpt>
      <trkpt lat="48.60033" lon="2.09491">
        <ele>108.4</ele>
        <time>2025-10-25T08:31:43Z</time>
      </trkpt>
      <trkpt lat="48.6003" lon="2.09491">
        <ele>108.4</ele>
        <time>2025-10-25T08:31:45Z</time>
      </trkpt>
      <trkpt lat="48.60028" lon="2.0949">
        <ele>108.4</ele>
        <time>2025-10-25T08:31:47Z</time>
      </trkpt>
      <trkpt lat="48.60025" lon="2.0949">
        <ele>108.4</ele>
        <time>2025-10-25T08:31:49Z</time>
      </trkpt>
      <trkpt lat="48.60022" lon="2.09489">
        <ele>108.4</ele>
        <time>2025-10-25T08:31:51Z</time>
      </trkpt>
      <trkpt lat="48.60019" lon="2.09488">
        <ele>108.4</ele>
        <time>2025-10-25T08:31:53Z</time>
      </trkpt>
      <trkpt lat="48.60017" lon="2.09488">
        <ele>108.4</ele>
        <time>2025-10-25T08:31:55Z</time>
      </trkpt>
      <trkpt lat="48.60014" lon="2.09487">
        <ele>108.2</ele>
        <time>2025-10-25T08:31:57Z</time>
      </trkpt>
      <trkpt lat="48.60012" lon="2.09487">
        <ele>108</ele>
        <time>2025-10-25T08:31:59Z</time>
      </trkpt>
      <trkpt lat="48.60009" lon="2.09486">
        <ele>107.8</ele>
        <time>2025-10-25T08:32:01Z</time>
      </trkpt>
      <trkpt lat="48.60007" lon="2.09486">
        <ele>107.8</ele>
        <time>2025-10-25T08:32:03Z</time>
      </trkpt>
      <trkpt lat="48.60004" lon="2.09485">
        <ele>107.8</ele>
        <time>2025-10-25T08:32:05Z</time>
      </trkpt>
      <trkpt lat="48.60002" lon="2.09485">
        <ele>107.8</ele>
        <time>2025-10-25T08:32:07Z</time>
      </trkpt>
      <trkpt lat="48.59999" lon="2.09484">
        <ele>107.8</ele>
        <time>2025-10-25T08:32:09Z</time>
      </trkpt>
      <trkpt lat="48.59996" lon="2.09484">
        <ele>107.6</ele>
        <time>2025-10-25T08:32:11Z</time>
      </trkpt>
      <trkpt lat="48.59994" lon="2.09483">
        <ele>107.6</ele>
        <time>2025-10-25T08:32:13Z</time>
      </trkpt>
      <trkpt lat="48.59991" lon="2.09482">
        <ele>107.4</ele>
        <time>2025-10-25T08:32:15Z</time>
      </trkpt>
      <trkpt lat="48.59988" lon="2.09481">
        <ele>107.4</ele>
        <time>2025-10-25T08:32:17Z</time>
      </trkpt>
      <trkpt lat="48.59985" lon="2.0948">
        <ele>107.6</ele>
        <time>2025-10-25T08:32:19Z</time>
      </trkpt>
      <trkpt lat="48.59982" lon="2.0948">
        <ele>107.6</ele>
        <time>2025-10-25T08:32:21Z</time>
      </trkpt>
      <trkpt lat="48.5998" lon="2.09479">
        <ele>107.6</ele>
        <time>2025-10-25T08:32:23Z</time>
      </trkpt>
      <trkpt lat="48.59977" lon="2.09479">
        <ele>107.6</ele>
        <time>2025-10-25T08:32:25Z</time>
      </trkpt>
      <trkpt lat="48.59975" lon="2.09478">
        <ele>107.4</ele>
        <time>2025-10-25T08:32:27Z</time>
      </trkpt>
      <trkpt lat="48.59972" lon="2.09477">
        <ele>107.2</ele>
        <time>2025-10-25T08:32:29Z</time>
      </trkpt>
      <trkpt lat="48.59969" lon="2.09477">
        <ele>107.2</ele>
        <time>2025-10-25T08:32:31Z</time>
      </trkpt>
      <trkpt lat="48.59966" lon="2.09476">
        <ele>107.2</ele>
        <time>2025-10-25T08:32:33Z</time>
      </trkpt>
      <trkpt lat="48.59964" lon="2.09475">
        <ele>107.4</ele>
        <time>2025-10-25T08:32:35Z</time>
      </trkpt>
      <trkpt lat="48.59961" lon="2.09474">
        <ele>107.4</ele>
        <time>2025-10-25T08:32:37Z</time>
      </trkpt>
      <trkpt lat="48.59958" lon="2.09473">
        <ele>107.6</ele>
        <time>2025-10-25T08:32:39Z</time>
      </trkpt>
      <trkpt lat="48.59956" lon="2.09473">
        <ele>107.6</ele>
        <time>2025-10-25T08:32:41Z</time>
      </trkpt>
      <trkpt lat="48.59953" lon="2.09472">
        <ele>107.4</ele>
        <time>2025-10-25T08:32:43Z</time>
      </trkpt>
      <trkpt lat="48.5995" lon="2.09471">
        <ele>107.4</ele>
        <time>2025-10-25T08:32:45Z</time>
      </trkpt>
      <trkpt lat="48.59948" lon="2.0947">
        <ele>107.4</ele>
        <time>2025-10-25T08:32:47Z</time>
      </trkpt>
      <trkpt lat="48.59945" lon="2.09469">
        <ele>107.2</ele>
        <time>2025-10-25T08:32:49Z</time>
      </trkpt>
      <trkpt lat="48.59942" lon="2.09469">
        <ele>107.2</ele>
        <time>2025-10-25T08:32:51Z</time>
      </trkpt>
      <trkpt lat="48.5994" lon="2.09468">
        <ele>107</ele>
        <time>2025-10-25T08:32:53Z</time>
      </trkpt>
      <trkpt lat="48.59937" lon="2.09467">
        <ele>107</ele>
        <time>2025-10-25T08:32:55Z</time>
      </trkpt>
      <trkpt lat="48.59934" lon="2.09466">
        <ele>106.8</ele>
        <time>2025-10-25T08:32:57Z</time>
      </trkpt>
      <trkpt lat="48.59931" lon="2.09466">
        <ele>106.8</ele>
        <time>2025-10-25T08:32:59Z</time>
      </trkpt>
      <trkpt lat="48.59929" lon="2.09465">
        <ele>106.6</ele>
        <time>2025-10-25T08:33:01Z</time>
      </trkpt>
      <trkpt lat="48.59926" lon="2.09465">
        <ele>106.6</ele>
        <time>2025-10-25T08:33:03Z</time>
      </trkpt>
      <trkpt lat="48.59924" lon="2.09464">
        <ele>106.6</ele>
        <time>2025-10-25T08:33:05Z</time>
      </trkpt>
      <trkpt lat="48.59921" lon="2.09464">
        <ele>106.6</ele>
        <time>2025-10-25T08:33:07Z</time>
      </trkpt>
      <trkpt lat="48.59919" lon="2.09464">
        <ele>106.8</ele>
        <time>2025-10-25T08:33:09Z</time>
      </trkpt>
      <trkpt lat="48.59916" lon="2.09465">
        <ele>106.8</ele>
        <time>2025-10-25T08:33:11Z</time>
      </trkpt>
      <trkpt lat="48.59914" lon="2.09465">
        <ele>106.6</ele>
        <time>2025-10-25T08:33:13Z</time>
      </trkpt>
      <trkpt lat="48.59911" lon="2.09465">
        <ele>106.6</ele>
        <time>2025-10-25T08:33:15Z</time>
      </trkpt>
      <trkpt lat="48.59908" lon="2.09464">
        <ele>106.6</ele>
        <time>2025-10-25T08:33:17Z</time>
      </trkpt>
      <trkpt lat="48.59905" lon="2.09463">
        <ele>106.6</ele>
        <time>2025-10-25T08:33:19Z</time>
      </trkpt>
      <trkpt lat="48.59903" lon="2.09461">
        <ele>106.8</ele>
        <time>2025-10-25T08:33:21Z</time>
      </trkpt>
      <trkpt lat="48.599" lon="2.0946">
        <ele>106.8</ele>
        <time>2025-10-25T08:33:23Z</time>
      </trkpt>
      <trkpt lat="48.59898" lon="2.09458">
        <ele>106.8</ele>
        <time>2025-10-25T08:33:25Z</time>
      </trkpt>
      <trkpt lat="48.59895" lon="2.09457">
        <ele>106.8</ele>
        <time>2025-10-25T08:33:27Z</time>
      </trkpt>
      <trkpt lat="48.59892" lon="2.09456">
        <ele>106.8</ele>
        <time>2025-10-25T08:33:29Z</time>
      </trkpt>
      <trkpt lat="48.59889" lon="2.09456">
        <ele>106.8</ele>
        <time>2025-10-25T08:33:31Z</time>
      </trkpt>
      <trkpt lat="48.59886" lon="2.09456">
        <ele>106.8</ele>
        <time>2025-10-25T08:33:33Z</time>
      </trkpt>
      <trkpt lat="48.59884" lon="2.09455">
        <ele>107</ele>
        <time>2025-10-25T08:33:35Z</time>
      </trkpt>
      <trkpt lat="48.59881" lon="2.09454">
        <ele>107</ele>
        <time>2025-10-25T08:33:37Z</time>
      </trkpt>
      <trkpt lat="48.59878" lon="2.09453">
        <ele>107.2</ele>
        <time>2025-10-25T08:33:39Z</time>
      </trkpt>
      <trkpt lat="48.59876" lon="2.09453">
        <ele>107.2</ele>
        <time>2025-10-25T08:33:41Z</time>
      </trkpt>
      <trkpt lat="48.59872" lon="2.09452">
        <ele>107.4</ele>
        <time>2025-10-25T08:33:43Z</time>
      </trkpt>
      <trkpt lat="48.5987" lon="2.09452">
        <ele>107.6</ele>
        <time>2025-10-25T08:33:45Z</time>
      </trkpt>
      <trkpt lat="48.59867" lon="2.09452">
        <ele>107.8</ele>
        <time>2025-10-25T08:33:47Z</time>
      </trkpt>
      <trkpt lat="48.59864" lon="2.09452">
        <ele>108</ele>
        <time>2025-10-25T08:33:49Z</time>
      </trkpt>
      <trkpt lat="48.59862" lon="2.09451">
        <ele>108.2</ele>
        <time>2025-10-25T08:33:51Z</time>
      </trkpt>
      <trkpt lat="48.59859" lon="2.09449">
        <ele>108.4</ele>
        <time>2025-10-25T08:33:53Z</time>
      </trkpt>
      <trkpt lat="48.59856" lon="2.09448">
        <ele>108.4</ele>
        <time>2025-10-25T08:33:55Z</time>
      </trkpt>
      <trkpt lat="48.59853" lon="2.09447">
        <ele>108.4</ele>
        <time>2025-10-25T08:33:57Z</time>
      </trkpt>
      <trkpt lat="48.59851" lon="2.09447">
        <ele>108.6</ele>
        <time>2025-10-25T08:33:59Z</time>
      </trkpt>
      <trkpt lat="48.59848" lon="2.09447">
        <ele>108.8</ele>
        <time>2025-10-25T08:34:01Z</time>
      </trkpt>
      <trkpt lat="48.59846" lon="2.09447">
        <ele>108.8</ele>
        <time>2025-10-25T08:34:03Z</time>
      </trkpt>
      <trkpt lat="48.59843" lon="2.09447">
        <ele>109</ele>
        <time>2025-10-25T08:34:05Z</time>
      </trkpt>
      <trkpt lat="48.5984" lon="2.09446">
        <ele>109.2</ele>
        <time>2025-10-25T08:34:07Z</time>
      </trkpt>
      <trkpt lat="48.59837" lon="2.09445">
        <ele>109.2</ele>
        <time>2025-10-25T08:34:09Z</time>
      </trkpt>
      <trkpt lat="48.59835" lon="2.09445">
        <ele>109.4</ele>
        <time>2025-10-25T08:34:11Z</time>
      </trkpt>
      <trkpt lat="48.59832" lon="2.09444">
        <ele>109.6</ele>
        <time>2025-10-25T08:34:13Z</time>
      </trkpt>
      <trkpt lat="48.59829" lon="2.09444">
        <ele>109.6</ele>
        <time>2025-10-25T08:34:15Z</time>
      </trkpt>
      <trkpt lat="48.59827" lon="2.09443">
        <ele>109.8</ele>
        <time>2025-10-25T08:34:17Z</time>
      </trkpt>
      <trkpt lat="48.59824" lon="2.09442">
        <ele>109.8</ele>
        <time>2025-10-25T08:34:19Z</time>
      </trkpt>
      <trkpt lat="48.59822" lon="2.09441">
        <ele>109.8</ele>
        <time>2025-10-25T08:34:21Z</time>
      </trkpt>
      <trkpt lat="48.5982" lon="2.09441">
        <ele>109.8</ele>
        <time>2025-10-25T08:34:23Z</time>
      </trkpt>
      <trkpt lat="48.59817" lon="2.0944">
        <ele>109.8</ele>
        <time>2025-10-25T08:34:25Z</time>
      </trkpt>
      <trkpt lat="48.59814" lon="2.09439">
        <ele>109.8</ele>
        <time>2025-10-25T08:34:27Z</time>
      </trkpt>
      <trkpt lat="48.59812" lon="2.09438">
        <ele>109.6</ele>
        <time>2025-10-25T08:34:29Z</time>
      </trkpt>
      <trkpt lat="48.59809" lon="2.09437">
        <ele>109.4</ele>
        <time>2025-10-25T08:34:31Z</time>
      </trkpt>
      <trkpt lat="48.59806" lon="2.09436">
        <ele>109.4</ele>
        <time>2025-10-25T08:34:33Z</time>
      </trkpt>
      <trkpt lat="48.59804" lon="2.09436">
        <ele>109.4</ele>
        <time>2025-10-25T08:34:35Z</time>
      </trkpt>
      <trkpt lat="48.59801" lon="2.09435">
        <ele>109.4</ele>
        <time>2025-10-25T08:34:37Z</time>
      </trkpt>
      <trkpt lat="48.59798" lon="2.09434">
        <ele>109.2</ele>
        <time>2025-10-25T08:34:39Z</time>
      </trkpt>
      <trkpt lat="48.59796" lon="2.09433">
        <ele>109</ele>
        <time>2025-10-25T08:34:41Z</time>
      </trkpt>
      <trkpt lat="48.59794" lon="2.09432">
        <ele>108.8</ele>
        <time>2025-10-25T08:34:43Z</time>
      </trkpt>
      <trkpt lat="48.5979" lon="2.0943">
        <ele>108.8</ele>
        <time>2025-10-25T08:34:45Z</time>
      </trkpt>
      <trkpt lat="48.59788" lon="2.09429">
        <ele>108.8</ele>
        <time>2025-10-25T08:34:47Z</time>
      </trkpt>
      <trkpt lat="48.59785" lon="2.09428">
        <ele>108.8</ele>
        <time>2025-10-25T08:34:49Z</time>
      </trkpt>
      <trkpt lat="48.59782" lon="2.09427">
        <ele>109</ele>
        <time>2025-10-25T08:34:51Z</time>
      </trkpt>
      <trkpt lat="48.59779" lon="2.09426">
        <ele>109</ele>
        <time>2025-10-25T08:34:53Z</time>
      </trkpt>
      <trkpt lat="48.59777" lon="2.09424">
        <ele>109</ele>
        <time>2025-10-25T08:34:55Z</time>
      </trkpt>
      <trkpt lat="48.59774" lon="2.09423">
        <ele>109</ele>
        <time>2025-10-25T08:34:57Z</time>
      </trkpt>
      <trkpt lat="48.59772" lon="2.09421">
        <ele>108.8</ele>
        <time>2025-10-25T08:34:59Z</time>
      </trkpt>
      <trkpt lat="48.59769" lon="2.0942">
        <ele>108.4</ele>
        <time>2025-10-25T08:35:01Z</time>
      </trkpt>
      <trkpt lat="48.59767" lon="2.09419">
        <ele>108.4</ele>
        <time>2025-10-25T08:35:03Z</time>
      </trkpt>
      <trkpt lat="48.59764" lon="2.09417">
        <ele>108.2</ele>
        <time>2025-10-25T08:35:05Z</time>
      </trkpt>
      <trkpt lat="48.59762" lon="2.09416">
        <ele>108.2</ele>
        <time>2025-10-25T08:35:07Z</time>
      </trkpt>
      <trkpt lat="48.5976" lon="2.09414">
        <ele>108</ele>
        <time>2025-10-25T08:35:09Z</time>
      </trkpt>
      <trkpt lat="48.59757" lon="2.09413">
        <ele>108</ele>
        <time>2025-10-25T08:35:11Z</time>
      </trkpt>
      <trkpt lat="48.59754" lon="2.09411">
        <ele>108</ele>
        <time>2025-10-25T08:35:13Z</time>
      </trkpt>
      <trkpt lat="48.59751" lon="2.09409">
        <ele>108</ele>
        <time>2025-10-25T08:35:15Z</time>
      </trkpt>
      <trkpt lat="48.59748" lon="2.09408">
        <ele>107.8</ele>
        <time>2025-10-25T08:35:17Z</time>
      </trkpt>
      <trkpt lat="48.59746" lon="2.09407">
        <ele>107.8</ele>
        <time>2025-10-25T08:35:19Z</time>
      </trkpt>
      <trkpt lat="48.59743" lon="2.09405">
        <ele>107.8</ele>
        <time>2025-10-25T08:35:21Z</time>
      </trkpt>
      <trkpt lat="48.5974" lon="2.09404">
        <ele>107.8</ele>
        <time>2025-10-25T08:35:23Z</time>
      </trkpt>
      <trkpt lat="48.59737" lon="2.09403">
        <ele>107.8</ele>
        <time>2025-10-25T08:35:25Z</time>
      </trkpt>
      <trkpt lat="48.59735" lon="2.09401">
        <ele>107.8</ele>
        <time>2025-10-25T08:35:27Z</time>
      </trkpt>
      <trkpt lat="48.59732" lon="2.09399">
        <ele>107.8</ele>
        <time>2025-10-25T08:35:29Z</time>
      </trkpt>
      <trkpt lat="48.59729" lon="2.09397">
        <ele>108</ele>
        <time>2025-10-25T08:35:31Z</time>
      </trkpt>
      <trkpt lat="48.59727" lon="2.09396">
        <ele>108.2</ele>
        <time>2025-10-25T08:35:33Z</time>
      </trkpt>
      <trkpt lat="48.59724" lon="2.09395">
        <ele>108</ele>
        <time>2025-10-25T08:35:35Z</time>
      </trkpt>
      <trkpt lat="48.59722" lon="2.09393">
        <ele>108</ele>
        <time>2025-10-25T08:35:37Z</time>
      </trkpt>
      <trkpt lat="48.59719" lon="2.09392">
        <ele>107.8</ele>
        <time>2025-10-25T08:35:39Z</time>
      </trkpt>
      <trkpt lat="48.59717" lon="2.0939">
        <ele>107.4</ele>
        <time>2025-10-25T08:35:41Z</time>
      </trkpt>
      <trkpt lat="48.59715" lon="2.09389">
        <ele>107.2</ele>
        <time>2025-10-25T08:35:43Z</time>
      </trkpt>
      <trkpt lat="48.59713" lon="2.09387">
        <ele>106.8</ele>
        <time>2025-10-25T08:35:45Z</time>
      </trkpt>
      <trkpt lat="48.5971" lon="2.09385">
        <ele>106.6</ele>
        <time>2025-10-25T08:35:47Z</time>
      </trkpt>
      <trkpt lat="48.59707" lon="2.09383">
        <ele>106.6</ele>
        <time>2025-10-25T08:35:49Z</time>
      </trkpt>
      <trkpt lat="48.59705" lon="2.09381">
        <ele>106.6</ele>
        <time>2025-10-25T08:35:51Z</time>
      </trkpt>
      <trkpt lat="48.59702" lon="2.0938">
        <ele>106.4</ele>
        <time>2025-10-25T08:35:53Z</time>
      </trkpt>
      <trkpt lat="48.59699" lon="2.09378">
        <ele>106.4</ele>
        <time>2025-10-25T08:35:55Z</time>
      </trkpt>
      <trkpt lat="48.59697" lon="2.09376">
        <ele>106.4</ele>
        <time>2025-10-25T08:35:57Z</time>
      </trkpt>
      <trkpt lat="48.59694" lon="2.09374">
        <ele>106.2</ele>
        <time>2025-10-25T08:35:59Z</time>
      </trkpt>
      <trkpt lat="48.59692" lon="2.09373">
        <ele>106</ele>
        <time>2025-10-25T08:36:01Z</time>
      </trkpt>
      <trkpt lat="48.59689" lon="2.09371">
        <ele>106</ele>
        <time>2025-10-25T08:36:03Z</time>
      </trkpt>
      <trkpt lat="48.59687" lon="2.0937">
        <ele>106</ele>
        <time>2025-10-25T08:36:05Z</time>
      </trkpt>
      <trkpt lat="48.59684" lon="2.09368">
        <ele>105.8</ele>
        <time>2025-10-25T08:36:07Z</time>
      </trkpt>
      <trkpt lat="48.59682" lon="2.09366">
        <ele>105.8</ele>
        <time>2025-10-25T08:36:09Z</time>
      </trkpt>
      <trkpt lat="48.5968" lon="2.09365">
        <ele>105.6</ele>
        <time>2025-10-25T08:36:11Z</time>
      </trkpt>
      <trkpt lat="48.59677" lon="2.09363">
        <ele>105.4</ele>
        <time>2025-10-25T08:36:13Z</time>
      </trkpt>
      <trkpt lat="48.59675" lon="2.09362">
        <ele>105.2</ele>
        <time>2025-10-25T08:36:15Z</time>
      </trkpt>
      <trkpt lat="48.59673" lon="2.09361">
        <ele>105</ele>
        <time>2025-10-25T08:36:17Z</time>
      </trkpt>
      <trkpt lat="48.5967" lon="2.0936">
        <ele>105</ele>
        <time>2025-10-25T08:36:19Z</time>
      </trkpt>
      <trkpt lat="48.59668" lon="2.09359">
        <ele>105.2</ele>
        <time>2025-10-25T08:36:21Z</time>
      </trkpt>
      <trkpt lat="48.59665" lon="2.09358">
        <ele>105.2</ele>
        <time>2025-10-25T08:36:23Z</time>
      </trkpt>
      <trkpt lat="48.59663" lon="2.09357">
        <ele>105.4</ele>
        <time>2025-10-25T08:36:25Z</time>
      </trkpt>
      <trkpt lat="48.5966" lon="2.09355">
        <ele>105.6</ele>
        <time>2025-10-25T08:36:27Z</time>
      </trkpt>
      <trkpt lat="48.59658" lon="2.09354">
        <ele>105.8</ele>
        <time>2025-10-25T08:36:29Z</time>
      </trkpt>
      <trkpt lat="48.59655" lon="2.09352">
        <ele>105.8</ele>
        <time>2025-10-25T08:36:31Z</time>
      </trkpt>
      <trkpt lat="48.59652" lon="2.09351">
        <ele>105.8</ele>
        <time>2025-10-25T08:36:33Z</time>
      </trkpt>
      <trkpt lat="48.5965" lon="2.09349">
        <ele>105.8</ele>
        <time>2025-10-25T08:36:35Z</time>
      </trkpt>
      <trkpt lat="48.59647" lon="2.09347">
        <ele>106</ele>
        <time>2025-10-25T08:36:37Z</time>
      </trkpt>
      <trkpt lat="48.59644" lon="2.09345">
        <ele>106</ele>
        <time>2025-10-25T08:36:39Z</time>
      </trkpt>
      <trkpt lat="48.59642" lon="2.09344">
        <ele>106</ele>
        <time>2025-10-25T08:36:41Z</time>
      </trkpt>
      <trkpt lat="48.59639" lon="2.09343">
        <ele>106</ele>
        <time>2025-10-25T08:36:43Z</time>
      </trkpt>
      <trkpt lat="48.59636" lon="2.09341">
        <ele>106.2</ele>
        <time>2025-10-25T08:36:45Z</time>
      </trkpt>
      <trkpt lat="48.59633" lon="2.09339">
        <ele>106.2</ele>
        <time>2025-10-25T08:36:47Z</time>
      </trkpt>
      <trkpt lat="48.59631" lon="2.09337">
        <ele>106.2</ele>
        <time>2025-10-25T08:36:49Z</time>
      </trkpt>
      <trkpt lat="48.59628" lon="2.09335">
        <ele>106.4</ele>
        <time>2025-10-25T08:36:51Z</time>
      </trkpt>
      <trkpt lat="48.59626" lon="2.09333">
        <ele>106.6</ele>
        <time>2025-10-25T08:36:53Z</time>
      </trkpt>
      <trkpt lat="48.59624" lon="2.0933">
        <ele>106.8</ele>
        <time>2025-10-25T08:36:55Z</time>
      </trkpt>
      <trkpt lat="48.59622" lon="2.09327">
        <ele>107</ele>
        <time>2025-10-25T08:36:57Z</time>
      </trkpt>
      <trkpt lat="48.5962" lon="2.09324">
        <ele>107</ele>
        <time>2025-10-25T08:36:59Z</time>
      </trkpt>
      <trkpt lat="48.59618" lon="2.09321">
        <ele>107</ele>
        <time>2025-10-25T08:37:01Z</time>
      </trkpt>
      <trkpt lat="48.59615" lon="2.09317">
        <ele>107.2</ele>
        <time>2025-10-25T08:37:03Z</time>
      </trkpt>
      <trkpt lat="48.59614" lon="2.09315">
        <ele>107.2</ele>
        <time>2025-10-25T08:37:04Z</time>
      </trkpt>
      <trkpt lat="48.59612" lon="2.09311">
        <ele>107.4</ele>
        <time>2025-10-25T08:37:06Z</time>
      </trkpt>
      <trkpt lat="48.59609" lon="2.09309">
        <ele>107.4</ele>
        <time>2025-10-25T08:37:08Z</time>
      </trkpt>
      <trkpt lat="48.59607" lon="2.09308">
        <ele>107.4</ele>
        <time>2025-10-25T08:37:09Z</time>
      </trkpt>
      <trkpt lat="48.59604" lon="2.09307">
        <ele>107.4</ele>
        <time>2025-10-25T08:37:11Z</time>
      </trkpt>
      <trkpt lat="48.59601" lon="2.09306">
        <ele>107.4</ele>
        <time>2025-10-25T08:37:12Z</time>
      </trkpt>
      <trkpt lat="48.59598" lon="2.09306">
        <ele>107.2</ele>
        <time>2025-10-25T08:37:13Z</time>
      </trkpt>
      <trkpt lat="48.59595" lon="2.09306">
        <ele>107.2</ele>
        <time>2025-10-25T08:37:14Z</time>
      </trkpt>
      <trkpt lat="48.59592" lon="2.09305">
        <ele>107.2</ele>
        <time>2025-10-25T08:37:15Z</time>
      </trkpt>
      <trkpt lat="48.59588" lon="2.09305">
        <ele>107.2</ele>
        <time>2025-10-25T08:37:16Z</time>
      </trkpt>
      <trkpt lat="48.59585" lon="2.09305">
        <ele>107</ele>
        <time>2025-10-25T08:37:17Z</time>
      </trkpt>
      <trkpt lat="48.59582" lon="2.09304">
        <ele>107</ele>
        <time>2025-10-25T08:37:18Z</time>
      </trkpt>
      <trkpt lat="48.59578" lon="2.09304">
        <ele>107</ele>
        <time>2025-10-25T08:37:19Z</time>
      </trkpt>
      <trkpt lat="48.59575" lon="2.09303">
        <ele>107</ele>
        <time>2025-10-25T08:37:20Z</time>
      </trkpt>
      <trkpt lat="48.59572" lon="2.09303">
        <ele>106.8</ele>
        <time>2025-10-25T08:37:21Z</time>
      </trkpt>
      <trkpt lat="48.59568" lon="2.09302">
        <ele>106.8</ele>
        <time>2025-10-25T08:37:22Z</time>
      </trkpt>
      <trkpt lat="48.59564" lon="2.09302">
        <ele>106.6</ele>
        <time>2025-10-25T08:37:23Z</time>
      </trkpt>
      <trkpt lat="48.5956" lon="2.09301">
        <ele>106.6</ele>
        <time>2025-10-25T08:37:24Z</time>
      </trkpt>
      <trkpt lat="48.59556" lon="2.093">
        <ele>106.6</ele>
        <time>2025-10-25T08:37:25Z</time>
      </trkpt>
      <trkpt lat="48.59552" lon="2.093">
        <ele>106.6</ele>
        <time>2025-10-25T08:37:26Z</time>
      </trkpt>
      <trkpt lat="48.59548" lon="2.09299">
        <ele>106.4</ele>
        <time>2025-10-25T08:37:27Z</time>
      </trkpt>
      <trkpt lat="48.59545" lon="2.09299">
        <ele>106.4</ele>
        <time>2025-10-25T08:37:28Z</time>
      </trkpt>
      <trkpt lat="48.59541" lon="2.09298">
        <ele>106.4</ele>
        <time>2025-10-25T08:37:29Z</time>
      </trkpt>
      <trkpt lat="48.59538" lon="2.09298">
        <ele>106.2</ele>
        <time>2025-10-25T08:37:30Z</time>
      </trkpt>
      <trkpt lat="48.59534" lon="2.09297">
        <ele>106.2</ele>
        <time>2025-10-25T08:37:31Z</time>
      </trkpt>
      <trkpt lat="48.59532" lon="2.09296">
        <ele>106.2</ele>
        <time>2025-10-25T08:37:32Z</time>
      </trkpt>
      <trkpt lat="48.59528" lon="2.09296">
        <ele>106.2</ele>
        <time>2025-10-25T08:37:33Z</time>
      </trkpt>
      <trkpt lat="48.59524" lon="2.09295">
        <ele>106.2</ele>
        <time>2025-10-25T08:37:34Z</time>
      </trkpt>
      <trkpt lat="48.59522" lon="2.09295">
        <ele>106.2</ele>
        <time>2025-10-25T08:37:35Z</time>
      </trkpt>
      <trkpt lat="48.59518" lon="2.09294">
        <ele>106.2</ele>
        <time>2025-10-25T08:37:36Z</time>
      </trkpt>
      <trkpt lat="48.59515" lon="2.09293">
        <ele>106.2</ele>
        <time>2025-10-25T08:37:37Z</time>
      </trkpt>
      <trkpt lat="48.59511" lon="2.09293">
        <ele>106.2</ele>
        <time>2025-10-25T08:37:38Z</time>
      </trkpt>
      <trkpt lat="48.59508" lon="2.09292">
        <ele>106.2</ele>
        <time>2025-10-25T08:37:39Z</time>
      </trkpt>
      <trkpt lat="48.59504" lon="2.09292">
        <ele>106.2</ele>
        <time>2025-10-25T08:37:40Z</time>
      </trkpt>
      <trkpt lat="48.59501" lon="2.09292">
        <ele>106.2</ele>
        <time>2025-10-25T08:37:41Z</time>
      </trkpt>
      <trkpt lat="48.59498" lon="2.09291">
        <ele>106.2</ele>
        <time>2025-10-25T08:37:42Z</time>
      </trkpt>
      <trkpt lat="48.59495" lon="2.09291">
        <ele>106.2</ele>
        <time>2025-10-25T08:37:43Z</time>
      </trkpt>
      <trkpt lat="48.59491" lon="2.09291">
        <ele>106.2</ele>
        <time>2025-10-25T08:37:44Z</time>
      </trkpt>
      <trkpt lat="48.59488" lon="2.0929">
        <ele>106.4</ele>
        <time>2025-10-25T08:37:45Z</time>
      </trkpt>
      <trkpt lat="48.59485" lon="2.0929">
        <ele>106.4</ele>
        <time>2025-10-25T08:37:46Z</time>
      </trkpt>
      <trkpt lat="48.59481" lon="2.09289">
        <ele>106.4</ele>
        <time>2025-10-25T08:37:47Z</time>
      </trkpt>
      <trkpt lat="48.59478" lon="2.09289">
        <ele>106.4</ele>
        <time>2025-10-25T08:37:48Z</time>
      </trkpt>
      <trkpt lat="48.59475" lon="2.09288">
        <ele>106.4</ele>
        <time>2025-10-25T08:37:49Z</time>
      </trkpt>
      <trkpt lat="48.59471" lon="2.09288">
        <ele>106.4</ele>
        <time>2025-10-25T08:37:50Z</time>
      </trkpt>
      <trkpt lat="48.59468" lon="2.09287">
        <ele>106.4</ele>
        <time>2025-10-25T08:37:51Z</time>
      </trkpt>
      <trkpt lat="48.59465" lon="2.09286">
        <ele>106.4</ele>
        <time>2025-10-25T08:37:52Z</time>
      </trkpt>
      <trkpt lat="48.59461" lon="2.09286">
        <ele>106.2</ele>
        <time>2025-10-25T08:37:53Z</time>
      </trkpt>
      <trkpt lat="48.59458" lon="2.09285">
        <ele>106.2</ele>
        <time>2025-10-25T08:37:54Z</time>
      </trkpt>
      <trkpt lat="48.59455" lon="2.09284">
        <ele>106.2</ele>
        <time>2025-10-25T08:37:55Z</time>
      </trkpt>
      <trkpt lat="48.59451" lon="2.09284">
        <ele>106.2</ele>
        <time>2025-10-25T08:37:56Z</time>
      </trkpt>
      <trkpt lat="48.59447" lon="2.09283">
        <ele>106.2</ele>
        <time>2025-10-25T08:37:57Z</time>
      </trkpt>
      <trkpt lat="48.59444" lon="2.09283">
        <ele>106</ele>
        <time>2025-10-25T08:37:58Z</time>
      </trkpt>
      <trkpt lat="48.5944" lon="2.09282">
        <ele>106</ele>
        <time>2025-10-25T08:37:59Z</time>
      </trkpt>
      <trkpt lat="48.59437" lon="2.09282">
        <ele>106</ele>
        <time>2025-10-25T08:38:00Z</time>
      </trkpt>
      <trkpt lat="48.59433" lon="2.09281">
        <ele>105.8</ele>
        <time>2025-10-25T08:38:01Z</time>
      </trkpt>
      <trkpt lat="48.59429" lon="2.09281">
        <ele>105.8</ele>
        <time>2025-10-25T08:38:02Z</time>
      </trkpt>
      <trkpt lat="48.59426" lon="2.0928">
        <ele>105.8</ele>
        <time>2025-10-25T08:38:03Z</time>
      </trkpt>
      <trkpt lat="48.59423" lon="2.0928">
        <ele>105.8</ele>
        <time>2025-10-25T08:38:04Z</time>
      </trkpt>
      <trkpt lat="48.59419" lon="2.09279">
        <ele>105.8</ele>
        <time>2025-10-25T08:38:05Z</time>
      </trkpt>
      <trkpt lat="48.59416" lon="2.09279">
        <ele>105.8</ele>
        <time>2025-10-25T08:38:06Z</time>
      </trkpt>
      <trkpt lat="48.59412" lon="2.09278">
        <ele>105.8</ele>
        <time>2025-10-25T08:38:07Z</time>
      </trkpt>
      <trkpt lat="48.59409" lon="2.09278">
        <ele>105.8</ele>
        <time>2025-10-25T08:38:08Z</time>
      </trkpt>
      <trkpt lat="48.59406" lon="2.09277">
        <ele>105.8</ele>
        <time>2025-10-25T08:38:09Z</time>
      </trkpt>
      <trkpt lat="48.59403" lon="2.09276">
        <ele>105.8</ele>
        <time>2025-10-25T08:38:10Z</time>
      </trkpt>
      <trkpt lat="48.59399" lon="2.09276">
        <ele>105.8</ele>
        <time>2025-10-25T08:38:11Z</time>
      </trkpt>
      <trkpt lat="48.59396" lon="2.09275">
        <ele>105.8</ele>
        <time>2025-10-25T08:38:12Z</time>
      </trkpt>
      <trkpt lat="48.59393" lon="2.09274">
        <ele>105.8</ele>
        <time>2025-10-25T08:38:13Z</time>
      </trkpt>
      <trkpt lat="48.59389" lon="2.09274">
        <ele>105.8</ele>
        <time>2025-10-25T08:38:14Z</time>
      </trkpt>
      <trkpt lat="48.59386" lon="2.09273">
        <ele>105.8</ele>
        <time>2025-10-25T08:38:15Z</time>
      </trkpt>
      <trkpt lat="48.59383" lon="2.09273">
        <ele>105.8</ele>
        <time>2025-10-25T08:38:16Z</time>
      </trkpt>
      <trkpt lat="48.59379" lon="2.09272">
        <ele>105.8</ele>
        <time>2025-10-25T08:38:17Z</time>
      </trkpt>
      <trkpt lat="48.59376" lon="2.09272">
        <ele>105.8</ele>
        <time>2025-10-25T08:38:18Z</time>
      </trkpt>
      <trkpt lat="48.59373" lon="2.09271">
        <ele>105.8</ele>
        <time>2025-10-25T08:38:19Z</time>
      </trkpt>
      <trkpt lat="48.5937" lon="2.09271">
        <ele>105.8</ele>
        <time>2025-10-25T08:38:20Z</time>
      </trkpt>
      <trkpt lat="48.59367" lon="2.0927">
        <ele>105.8</ele>
        <time>2025-10-25T08:38:21Z</time>
      </trkpt>
      <trkpt lat="48.59364" lon="2.0927">
        <ele>106</ele>
        <time>2025-10-25T08:38:22Z</time>
      </trkpt>
      <trkpt lat="48.59361" lon="2.09269">
        <ele>106</ele>
        <time>2025-10-25T08:38:23Z</time>
      </trkpt>
      <trkpt lat="48.59358" lon="2.09269">
        <ele>106</ele>
        <time>2025-10-25T08:38:24Z</time>
      </trkpt>
      <trkpt lat="48.59355" lon="2.09269">
        <ele>106.2</ele>
        <time>2025-10-25T08:38:25Z</time>
      </trkpt>
      <trkpt lat="48.59351" lon="2.09268">
        <ele>106.2</ele>
        <time>2025-10-25T08:38:26Z</time>
      </trkpt>
      <trkpt lat="48.59348" lon="2.09268">
        <ele>106.2</ele>
        <time>2025-10-25T08:38:27Z</time>
      </trkpt>
      <trkpt lat="48.59345" lon="2.09267">
        <ele>106.4</ele>
        <time>2025-10-25T08:38:28Z</time>
      </trkpt>
      <trkpt lat="48.59342" lon="2.09266">
        <ele>106.4</ele>
        <time>2025-10-25T08:38:29Z</time>
      </trkpt>
      <trkpt lat="48.59339" lon="2.09266">
        <ele>106.6</ele>
        <time>2025-10-25T08:38:30Z</time>
      </trkpt>
      <trkpt lat="48.59336" lon="2.09265">
        <ele>106.6</ele>
        <time>2025-10-25T08:38:31Z</time>
      </trkpt>
      <trkpt lat="48.59333" lon="2.09264">
        <ele>106.6</ele>
        <time>2025-10-25T08:38:32Z</time>
      </trkpt>
      <trkpt lat="48.5933" lon="2.09264">
        <ele>106.6</ele>
        <time>2025-10-25T08:38:33Z</time>
      </trkpt>
      <trkpt lat="48.59327" lon="2.09263">
        <ele>106.6</ele>
        <time>2025-10-25T08:38:34Z</time>
      </trkpt>
      <trkpt lat="48.59324" lon="2.09263">
        <ele>106.6</ele>
        <time>2025-10-25T08:38:35Z</time>
      </trkpt>
      <trkpt lat="48.59321" lon="2.09262">
        <ele>106.6</ele>
        <time>2025-10-25T08:38:36Z</time>
      </trkpt>
      <trkpt lat="48.59318" lon="2.09262">
        <ele>106.6</ele>
        <time>2025-10-25T08:38:37Z</time>
      </trkpt>
      <trkpt lat="48.59315" lon="2.09262">
        <ele>106.8</ele>
        <time>2025-10-25T08:38:38Z</time>
      </trkpt>
      <trkpt lat="48.59312" lon="2.09262">
        <ele>106.8</ele>
        <time>2025-10-25T08:38:39Z</time>
      </trkpt>
      <trkpt lat="48.59309" lon="2.09262">
        <ele>106.8</ele>
        <time>2025-10-25T08:38:40Z</time>
      </trkpt>
      <trkpt lat="48.59306" lon="2.09261">
        <ele>106.8</ele>
        <time>2025-10-25T08:38:41Z</time>
      </trkpt>
      <trkpt lat="48.59304" lon="2.09261">
        <ele>107</ele>
        <time>2025-10-25T08:38:42Z</time>
      </trkpt>
      <trkpt lat="48.593" lon="2.09261">
        <ele>107</ele>
        <time>2025-10-25T08:38:43Z</time>
      </trkpt>
      <trkpt lat="48.59298" lon="2.09261">
        <ele>107</ele>
        <time>2025-10-25T08:38:44Z</time>
      </trkpt>
      <trkpt lat="48.59295" lon="2.09261">
        <ele>107</ele>
        <time>2025-10-25T08:38:45Z</time>
      </trkpt>
      <trkpt lat="48.59292" lon="2.09261">
        <ele>107.2</ele>
        <time>2025-10-25T08:38:46Z</time>
      </trkpt>
      <trkpt lat="48.59288" lon="2.09261">
        <ele>107.2</ele>
        <time>2025-10-25T08:38:47Z</time>
      </trkpt>
      <trkpt lat="48.59285" lon="2.09261">
        <ele>107.4</ele>
        <time>2025-10-25T08:38:48Z</time>
      </trkpt>
      <trkpt lat="48.59282" lon="2.09261">
        <ele>107.4</ele>
        <time>2025-10-25T08:38:49Z</time>
      </trkpt>
      <trkpt lat="48.59279" lon="2.09261">
        <ele>107.4</ele>
        <time>2025-10-25T08:38:50Z</time>
      </trkpt>
      <trkpt lat="48.59276" lon="2.09261">
        <ele>107.6</ele>
        <time>2025-10-25T08:38:51Z</time>
      </trkpt>
      <trkpt lat="48.59273" lon="2.09261">
        <ele>107.6</ele>
        <time>2025-10-25T08:38:52Z</time>
      </trkpt>
      <trkpt lat="48.5927" lon="2.09261">
        <ele>107.6</ele>
        <time>2025-10-25T08:38:53Z</time>
      </trkpt>
      <trkpt lat="48.59267" lon="2.09262">
        <ele>107.6</ele>
        <time>2025-10-25T08:38:54Z</time>
      </trkpt>
      <trkpt lat="48.59264" lon="2.09262">
        <ele>107.6</ele>
        <time>2025-10-25T08:38:55Z</time>
      </trkpt>
      <trkpt lat="48.5926" lon="2.09262">
        <ele>107.6</ele>
        <time>2025-10-25T08:38:56Z</time>
      </trkpt>
      <trkpt lat="48.59258" lon="2.09262">
        <ele>107.8</ele>
        <time>2025-10-25T08:38:57Z</time>
      </trkpt>
      <trkpt lat="48.59255" lon="2.09262">
        <ele>107.8</ele>
        <time>2025-10-25T08:38:58Z</time>
      </trkpt>
      <trkpt lat="48.59252" lon="2.09262">
        <ele>108</ele>
        <time>2025-10-25T08:38:59Z</time>
      </trkpt>
      <trkpt lat="48.59249" lon="2.09262">
        <ele>108</ele>
        <time>2025-10-25T08:39:00Z</time>
      </trkpt>
      <trkpt lat="48.59246" lon="2.09262">
        <ele>108</ele>
        <time>2025-10-25T08:39:01Z</time>
      </trkpt>
      <trkpt lat="48.59243" lon="2.09262">
        <ele>108</ele>
        <time>2025-10-25T08:39:02Z</time>
      </trkpt>
      <trkpt lat="48.5924" lon="2.09261">
        <ele>108</ele>
        <time>2025-10-25T08:39:03Z</time>
      </trkpt>
      <trkpt lat="48.59237" lon="2.09261">
        <ele>108</ele>
        <time>2025-10-25T08:39:04Z</time>
      </trkpt>
      <trkpt lat="48.59235" lon="2.09261">
        <ele>108</ele>
        <time>2025-10-25T08:39:05Z</time>
      </trkpt>
      <trkpt lat="48.59232" lon="2.09261">
        <ele>108</ele>
        <time>2025-10-25T08:39:06Z</time>
      </trkpt>
      <trkpt lat="48.59228" lon="2.09261">
        <ele>108</ele>
        <time>2025-10-25T08:39:07Z</time>
      </trkpt>
      <trkpt lat="48.59226" lon="2.09261">
        <ele>108</ele>
        <time>2025-10-25T08:39:08Z</time>
      </trkpt>
      <trkpt lat="48.59222" lon="2.09262">
        <ele>108</ele>
        <time>2025-10-25T08:39:09Z</time>
      </trkpt>
      <trkpt lat="48.59219" lon="2.09262">
        <ele>108</ele>
        <time>2025-10-25T08:39:10Z</time>
      </trkpt>
      <trkpt lat="48.59216" lon="2.09262">
        <ele>108</ele>
        <time>2025-10-25T08:39:11Z</time>
      </trkpt>
      <trkpt lat="48.59212" lon="2.09263">
        <ele>108</ele>
        <time>2025-10-25T08:39:12Z</time>
      </trkpt>
      <trkpt lat="48.5921" lon="2.09263">
        <ele>108</ele>
        <time>2025-10-25T08:39:13Z</time>
      </trkpt>
      <trkpt lat="48.59206" lon="2.09264">
        <ele>108</ele>
        <time>2025-10-25T08:39:14Z</time>
      </trkpt>
      <trkpt lat="48.59203" lon="2.09264">
        <ele>108</ele>
        <time>2025-10-25T08:39:15Z</time>
      </trkpt>
      <trkpt lat="48.592" lon="2.09264">
        <ele>108</ele>
        <time>2025-10-25T08:39:16Z</time>
      </trkpt>
      <trkpt lat="48.59197" lon="2.09265">
        <ele>108</ele>
        <time>2025-10-25T08:39:17Z</time>
      </trkpt>
      <trkpt lat="48.59193" lon="2.09265">
        <ele>108</ele>
        <time>2025-10-25T08:39:18Z</time>
      </trkpt>
      <trkpt lat="48.5919" lon="2.09265">
        <ele>108</ele>
        <time>2025-10-25T08:39:19Z</time>
      </trkpt>
      <trkpt lat="48.59187" lon="2.09266">
        <ele>108.2</ele>
        <time>2025-10-25T08:39:20Z</time>
      </trkpt>
      <trkpt lat="48.59184" lon="2.09266">
        <ele>108.2</ele>
        <time>2025-10-25T08:39:21Z</time>
      </trkpt>
      <trkpt lat="48.59181" lon="2.09267">
        <ele>108.2</ele>
        <time>2025-10-25T08:39:22Z</time>
      </trkpt>
      <trkpt lat="48.59178" lon="2.09267">
        <ele>108.2</ele>
        <time>2025-10-25T08:39:23Z</time>
      </trkpt>
      <trkpt lat="48.59175" lon="2.09268">
        <ele>108.2</ele>
        <time>2025-10-25T08:39:24Z</time>
      </trkpt>
      <trkpt lat="48.59172" lon="2.09268">
        <ele>108.2</ele>
        <time>2025-10-25T08:39:25Z</time>
      </trkpt>
      <trkpt lat="48.59169" lon="2.09269">
        <ele>108.2</ele>
        <time>2025-10-25T08:39:26Z</time>
      </trkpt>
      <trkpt lat="48.59165" lon="2.09269">
        <ele>108.2</ele>
        <time>2025-10-25T08:39:27Z</time>
      </trkpt>
      <trkpt lat="48.59163" lon="2.0927">
        <ele>108.2</ele>
        <time>2025-10-25T08:39:28Z</time>
      </trkpt>
      <trkpt lat="48.5916" lon="2.0927">
        <ele>108.2</ele>
        <time>2025-10-25T08:39:29Z</time>
      </trkpt>
      <trkpt lat="48.59157" lon="2.09271">
        <ele>108.2</ele>
        <time>2025-10-25T08:39:30Z</time>
      </trkpt>
      <trkpt lat="48.59154" lon="2.09271">
        <ele>108.2</ele>
        <time>2025-10-25T08:39:31Z</time>
      </trkpt>
      <trkpt lat="48.59151" lon="2.09272">
        <ele>108.4</ele>
        <time>2025-10-25T08:39:32Z</time>
      </trkpt>
      <trkpt lat="48.59148" lon="2.09273">
        <ele>108.4</ele>
        <time>2025-10-25T08:39:33Z</time>
      </trkpt>
      <trkpt lat="48.59145" lon="2.09273">
        <ele>108.4</ele>
        <time>2025-10-25T08:39:34Z</time>
      </trkpt>
      <trkpt lat="48.59142" lon="2.09274">
        <ele>108.4</ele>
        <time>2025-10-25T08:39:35Z</time>
      </trkpt>
      <trkpt lat="48.5914" lon="2.09274">
        <ele>108.4</ele>
        <time>2025-10-25T08:39:36Z</time>
      </trkpt>
      <trkpt lat="48.59137" lon="2.09275">
        <ele>108.4</ele>
        <time>2025-10-25T08:39:37Z</time>
      </trkpt>
      <trkpt lat="48.59133" lon="2.09275">
        <ele>108.4</ele>
        <time>2025-10-25T08:39:38Z</time>
      </trkpt>
      <trkpt lat="48.59131" lon="2.09275">
        <ele>108.4</ele>
        <time>2025-10-25T08:39:39Z</time>
      </trkpt>
      <trkpt lat="48.59127" lon="2.09275">
        <ele>108.4</ele>
        <time>2025-10-25T08:39:40Z</time>
      </trkpt>
      <trkpt lat="48.59125" lon="2.09276">
        <ele>108.2</ele>
        <time>2025-10-25T08:39:41Z</time>
      </trkpt>
      <trkpt lat="48.59122" lon="2.09276">
        <ele>108.2</ele>
        <time>2025-10-25T08:39:42Z</time>
      </trkpt>
      <trkpt lat="48.59119" lon="2.09276">
        <ele>108.2</ele>
        <time>2025-10-25T08:39:43Z</time>
      </trkpt>
      <trkpt lat="48.59116" lon="2.09276">
        <ele>108.2</ele>
        <time>2025-10-25T08:39:44Z</time>
      </trkpt>
      <trkpt lat="48.59112" lon="2.09277">
        <ele>108.4</ele>
        <time>2025-10-25T08:39:45Z</time>
      </trkpt>
      <trkpt lat="48.59109" lon="2.09277">
        <ele>108.4</ele>
        <time>2025-10-25T08:39:46Z</time>
      </trkpt>
      <trkpt lat="48.59106" lon="2.09277">
        <ele>108.4</ele>
        <time>2025-10-25T08:39:47Z</time>
      </trkpt>
      <trkpt lat="48.59103" lon="2.09277">
        <ele>108.4</ele>
        <time>2025-10-25T08:39:48Z</time>
      </trkpt>
      <trkpt lat="48.591" lon="2.09278">
        <ele>108.4</ele>
        <time>2025-10-25T08:39:49Z</time>
      </trkpt>
      <trkpt lat="48.59097" lon="2.09278">
        <ele>108.4</ele>
        <time>2025-10-25T08:39:50Z</time>
      </trkpt>
      <trkpt lat="48.59094" lon="2.09278">
        <ele>108.4</ele>
        <time>2025-10-25T08:39:51Z</time>
      </trkpt>
      <trkpt lat="48.59091" lon="2.09279">
        <ele>108.4</ele>
        <time>2025-10-25T08:39:52Z</time>
      </trkpt>
      <trkpt lat="48.59088" lon="2.09279">
        <ele>108.4</ele>
        <time>2025-10-25T08:39:53Z</time>
      </trkpt>
      <trkpt lat="48.59085" lon="2.09279">
        <ele>108.4</ele>
        <time>2025-10-25T08:39:54Z</time>
      </trkpt>
      <trkpt lat="48.59082" lon="2.09279">
        <ele>108.4</ele>
        <time>2025-10-25T08:39:55Z</time>
      </trkpt>
      <trkpt lat="48.59079" lon="2.0928">
        <ele>108.2</ele>
        <time>2025-10-25T08:39:56Z</time>
      </trkpt>
      <trkpt lat="48.59076" lon="2.0928">
        <ele>108.2</ele>
        <time>2025-10-25T08:39:57Z</time>
      </trkpt>
      <trkpt lat="48.59074" lon="2.0928">
        <ele>108.2</ele>
        <time>2025-10-25T08:39:58Z</time>
      </trkpt>
      <trkpt lat="48.59071" lon="2.0928">
        <ele>108.2</ele>
        <time>2025-10-25T08:39:59Z</time>
      </trkpt>
      <trkpt lat="48.59068" lon="2.0928">
        <ele>108.2</ele>
        <time>2025-10-25T08:40:00Z</time>
      </trkpt>
      <trkpt lat="48.59065" lon="2.09281">
        <ele>108.2</ele>
        <time>2025-10-25T08:40:01Z</time>
      </trkpt>
      <trkpt lat="48.59062" lon="2.09281">
        <ele>108.2</ele>
        <time>2025-10-25T08:40:02Z</time>
      </trkpt>
      <trkpt lat="48.59059" lon="2.09281">
        <ele>108.2</ele>
        <time>2025-10-25T08:40:03Z</time>
      </trkpt>
      <trkpt lat="48.59056" lon="2.09282">
        <ele>108.2</ele>
        <time>2025-10-25T08:40:04Z</time>
      </trkpt>
      <trkpt lat="48.59054" lon="2.09282">
        <ele>108.2</ele>
        <time>2025-10-25T08:40:05Z</time>
      </trkpt>
      <trkpt lat="48.59051" lon="2.09282">
        <ele>108.2</ele>
        <time>2025-10-25T08:40:06Z</time>
      </trkpt>
      <trkpt lat="48.59048" lon="2.09282">
        <ele>108.2</ele>
        <time>2025-10-25T08:40:07Z</time>
      </trkpt>
      <trkpt lat="48.59046" lon="2.09283">
        <ele>108.2</ele>
        <time>2025-10-25T08:40:08Z</time>
      </trkpt>
      <trkpt lat="48.59043" lon="2.09283">
        <ele>108</ele>
        <time>2025-10-25T08:40:09Z</time>
      </trkpt>
      <trkpt lat="48.5904" lon="2.09283">
        <ele>108</ele>
        <time>2025-10-25T08:40:10Z</time>
      </trkpt>
      <trkpt lat="48.59038" lon="2.09284">
        <ele>108</ele>
        <time>2025-10-25T08:40:11Z</time>
      </trkpt>
      <trkpt lat="48.59035" lon="2.09284">
        <ele>108</ele>
        <time>2025-10-25T08:40:12Z</time>
      </trkpt>
      <trkpt lat="48.59032" lon="2.09284">
        <ele>108</ele>
        <time>2025-10-25T08:40:13Z</time>
      </trkpt>
      <trkpt lat="48.5903" lon="2.09285">
        <ele>108</ele>
        <time>2025-10-25T08:40:14Z</time>
      </trkpt>
      <trkpt lat="48.59027" lon="2.09285">
        <ele>108</ele>
        <time>2025-10-25T08:40:15Z</time>
      </trkpt>
      <trkpt lat="48.59024" lon="2.09285">
        <ele>108</ele>
        <time>2025-10-25T08:40:16Z</time>
      </trkpt>
      <trkpt lat="48.59022" lon="2.09285">
        <ele>107.8</ele>
        <time>2025-10-25T08:40:17Z</time>
      </trkpt>
      <trkpt lat="48.5902" lon="2.09285">
        <ele>107.8</ele>
        <time>2025-10-25T08:40:18Z</time>
      </trkpt>
      <trkpt lat="48.59017" lon="2.09286">
        <ele>107.8</ele>
        <time>2025-10-25T08:40:19Z</time>
      </trkpt>
      <trkpt lat="48.59014" lon="2.09286">
        <ele>107.8</ele>
        <time>2025-10-25T08:40:20Z</time>
      </trkpt>
      <trkpt lat="48.59012" lon="2.09286">
        <ele>107.8</ele>
        <time>2025-10-25T08:40:21Z</time>
      </trkpt>
      <trkpt lat="48.59009" lon="2.09287">
        <ele>107.6</ele>
        <time>2025-10-25T08:40:22Z</time>
      </trkpt>
      <trkpt lat="48.59007" lon="2.09287">
        <ele>107.6</ele>
        <time>2025-10-25T08:40:23Z</time>
      </trkpt>
      <trkpt lat="48.59004" lon="2.09288">
        <ele>107.6</ele>
        <time>2025-10-25T08:40:24Z</time>
      </trkpt>
      <trkpt lat="48.59002" lon="2.09288">
        <ele>107.6</ele>
        <time>2025-10-25T08:40:25Z</time>
      </trkpt>
      <trkpt lat="48.59" lon="2.09288">
        <ele>107.6</ele>
        <time>2025-10-25T08:40:26Z</time>
      </trkpt>
      <trkpt lat="48.58997" lon="2.09289">
        <ele>107.6</ele>
        <time>2025-10-25T08:40:27Z</time>
      </trkpt>
      <trkpt lat="48.58995" lon="2.09289">
        <ele>107.6</ele>
        <time>2025-10-25T08:40:28Z</time>
      </trkpt>
      <trkpt lat="48.58992" lon="2.09289">
        <ele>107.6</ele>
        <time>2025-10-25T08:40:29Z</time>
      </trkpt>
      <trkpt lat="48.5899" lon="2.0929">
        <ele>107.6</ele>
        <time>2025-10-25T08:40:30Z</time>
      </trkpt>
      <trkpt lat="48.58988" lon="2.0929">
        <ele>107.4</ele>
        <time>2025-10-25T08:40:31Z</time>
      </trkpt>
      <trkpt lat="48.58986" lon="2.0929">
        <ele>107.4</ele>
        <time>2025-10-25T08:40:32Z</time>
      </trkpt>
      <trkpt lat="48.58983" lon="2.0929">
        <ele>107.4</ele>
        <time>2025-10-25T08:40:34Z</time>
      </trkpt>
      <trkpt lat="48.5898" lon="2.09291">
        <ele>107.4</ele>
        <time>2025-10-25T08:40:36Z</time>
      </trkpt>
      <trkpt lat="48.58978" lon="2.09291">
        <ele>107.4</ele>
        <time>2025-10-25T08:40:38Z</time>
      </trkpt>
      <trkpt lat="48.58976" lon="2.09292">
        <ele>107.4</ele>
        <time>2025-10-25T08:40:40Z</time>
      </trkpt>
      <trkpt lat="48.58974" lon="2.09292">
        <ele>107.6</ele>
        <time>2025-10-25T08:40:42Z</time>
      </trkpt>
      <trkpt lat="48.58972" lon="2.09294">
        <ele>107.4</ele>
        <time>2025-10-25T08:40:44Z</time>
      </trkpt>
      <trkpt lat="48.5897" lon="2.09295">
        <ele>107.4</ele>
        <time>2025-10-25T08:40:46Z</time>
      </trkpt>
      <trkpt lat="48.58968" lon="2.09296">
        <ele>107.4</ele>
        <time>2025-10-25T08:40:48Z</time>
      </trkpt>
      <trkpt lat="48.58965" lon="2.09297">
        <ele>107.4</ele>
        <time>2025-10-25T08:40:50Z</time>
      </trkpt>
      <trkpt lat="48.58962" lon="2.09298">
        <ele>107.2</ele>
        <time>2025-10-25T08:40:52Z</time>
      </trkpt>
      <trkpt lat="48.5896" lon="2.09299">
        <ele>107.2</ele>
        <time>2025-10-25T08:40:54Z</time>
      </trkpt>
      <trkpt lat="48.58956" lon="2.09299">
        <ele>107.2</ele>
        <time>2025-10-25T08:40:56Z</time>
      </trkpt>
      <trkpt lat="48.58954" lon="2.093">
        <ele>107.4</ele>
        <time>2025-10-25T08:40:58Z</time>
      </trkpt>
      <trkpt lat="48.58951" lon="2.09301">
        <ele>107.4</ele>
        <time>2025-10-25T08:41:00Z</time>
      </trkpt>
      <trkpt lat="48.58948" lon="2.09302">
        <ele>107.4</ele>
        <time>2025-10-25T08:41:02Z</time>
      </trkpt>
      <trkpt lat="48.58945" lon="2.09303">
        <ele>107.4</ele>
        <time>2025-10-25T08:41:04Z</time>
      </trkpt>
      <trkpt lat="48.58942" lon="2.09304">
        <ele>107.6</ele>
        <time>2025-10-25T08:41:06Z</time>
      </trkpt>
      <trkpt lat="48.5894" lon="2.09305">
        <ele>107.6</ele>
        <time>2025-10-25T08:41:08Z</time>
      </trkpt>
      <trkpt lat="48.58938" lon="2.09307">
        <ele>107.8</ele>
        <time>2025-10-25T08:41:10Z</time>
      </trkpt>
      <trkpt lat="48.58935" lon="2.09308">
        <ele>107.8</ele>
        <time>2025-10-25T08:41:12Z</time>
      </trkpt>
      <trkpt lat="48.58932" lon="2.09309">
        <ele>108</ele>
        <time>2025-10-25T08:41:14Z</time>
      </trkpt>
      <trkpt lat="48.5893" lon="2.0931">
        <ele>108.2</ele>
        <time>2025-10-25T08:41:16Z</time>
      </trkpt>
      <trkpt lat="48.58927" lon="2.09312">
        <ele>108.4</ele>
        <time>2025-10-25T08:41:18Z</time>
      </trkpt>
      <trkpt lat="48.58924" lon="2.09313">
        <ele>108.4</ele>
        <time>2025-10-25T08:41:20Z</time>
      </trkpt>
      <trkpt lat="48.58922" lon="2.09315">
        <ele>108.4</ele>
        <time>2025-10-25T08:41:22Z</time>
      </trkpt>
      <trkpt lat="48.5892" lon="2.09316">
        <ele>108.4</ele>
        <time>2025-10-25T08:41:24Z</time>
      </trkpt>
      <trkpt lat="48.58917" lon="2.09318">
        <ele>108.4</ele>
        <time>2025-10-25T08:41:26Z</time>
      </trkpt>
      <trkpt lat="48.58914" lon="2.09319">
        <ele>108.6</ele>
        <time>2025-10-25T08:41:28Z</time>
      </trkpt>
      <trkpt lat="48.58912" lon="2.09321">
        <ele>108.6</ele>
        <time>2025-10-25T08:41:30Z</time>
      </trkpt>
      <trkpt lat="48.5891" lon="2.09323">
        <ele>108.6</ele>
        <time>2025-10-25T08:41:32Z</time>
      </trkpt>
      <trkpt lat="48.58908" lon="2.09325">
        <ele>108.6</ele>
        <time>2025-10-25T08:41:35Z</time>
      </trkpt>
      <trkpt lat="48.58906" lon="2.09326">
        <ele>108.8</ele>
        <time>2025-10-25T08:41:38Z</time>
      </trkpt>
      <trkpt lat="48.58904" lon="2.09327">
        <ele>108.8</ele>
        <time>2025-10-25T08:41:40Z</time>
      </trkpt>
      <trkpt lat="48.58901" lon="2.09328">
        <ele>108.8</ele>
        <time>2025-10-25T08:41:42Z</time>
      </trkpt>
      <trkpt lat="48.58899" lon="2.09328">
        <ele>108.6</ele>
        <time>2025-10-25T08:41:44Z</time>
      </trkpt>
      <trkpt lat="48.58897" lon="2.09329">
        <ele>108.8</ele>
        <time>2025-10-25T08:41:46Z</time>
      </trkpt>
      <trkpt lat="48.58894" lon="2.09329">
        <ele>108.6</ele>
        <time>2025-10-25T08:41:48Z</time>
      </trkpt>
      <trkpt lat="48.58892" lon="2.0933">
        <ele>108.6</ele>
        <time>2025-10-25T08:41:50Z</time>
      </trkpt>
      <trkpt lat="48.58889" lon="2.09331">
        <ele>108.6</ele>
        <time>2025-10-25T08:41:52Z</time>
      </trkpt>
      <trkpt lat="48.58887" lon="2.09332">
        <ele>108.6</ele>
        <time>2025-10-25T08:41:54Z</time>
      </trkpt>
      <trkpt lat="48.58884" lon="2.09333">
        <ele>108.6</ele>
        <time>2025-10-25T08:41:56Z</time>
      </trkpt>
      <trkpt lat="48.58882" lon="2.09333">
        <ele>108.6</ele>
        <time>2025-10-25T08:41:58Z</time>
      </trkpt>
      <trkpt lat="48.58879" lon="2.09333">
        <ele>108.6</ele>
        <time>2025-10-25T08:42:00Z</time>
      </trkpt>
      <trkpt lat="48.58877" lon="2.09334">
        <ele>108.8</ele>
        <time>2025-10-25T08:42:02Z</time>
      </trkpt>
      <trkpt lat="48.58875" lon="2.09334">
        <ele>109</ele>
        <time>2025-10-25T08:42:05Z</time>
      </trkpt>
      <trkpt lat="48.58873" lon="2.09336">
        <ele>109</ele>
        <time>2025-10-25T08:42:08Z</time>
      </trkpt>
      <trkpt lat="48.58871" lon="2.09336">
        <ele>109</ele>
        <time>2025-10-25T08:42:10Z</time>
      </trkpt>
      <trkpt lat="48.58868" lon="2.09337">
        <ele>109</ele>
        <time>2025-10-25T08:42:12Z</time>
      </trkpt>
      <trkpt lat="48.58866" lon="2.09338">
        <ele>109</ele>
        <time>2025-10-25T08:42:14Z</time>
      </trkpt>
      <trkpt lat="48.58864" lon="2.09339">
        <ele>108.8</ele>
        <time>2025-10-25T08:42:16Z</time>
      </trkpt>
      <trkpt lat="48.58861" lon="2.0934">
        <ele>108.6</ele>
        <time>2025-10-25T08:42:18Z</time>
      </trkpt>
      <trkpt lat="48.58859" lon="2.09341">
        <ele>108.6</ele>
        <time>2025-10-25T08:42:20Z</time>
      </trkpt>
      <trkpt lat="48.58857" lon="2.09342">
        <ele>108.6</ele>
        <time>2025-10-25T08:42:22Z</time>
      </trkpt>
      <trkpt lat="48.58854" lon="2.09343">
        <ele>108.6</ele>
        <time>2025-10-25T08:42:24Z</time>
      </trkpt>
      <trkpt lat="48.58852" lon="2.09344">
        <ele>108.4</ele>
        <time>2025-10-25T08:42:26Z</time>
      </trkpt>
      <trkpt lat="48.5885" lon="2.09345">
        <ele>108.2</ele>
        <time>2025-10-25T08:42:28Z</time>
      </trkpt>
      <trkpt lat="48.58847" lon="2.09347">
        <ele>108.2</ele>
        <time>2025-10-25T08:42:30Z</time>
      </trkpt>
      <trkpt lat="48.58845" lon="2.09348">
        <ele>108.2</ele>
        <time>2025-10-25T08:42:32Z</time>
      </trkpt>
      <trkpt lat="48.58843" lon="2.0935">
        <ele>108.2</ele>
        <time>2025-10-25T08:42:34Z</time>
      </trkpt>
      <trkpt lat="48.58841" lon="2.09351">
        <ele>108.2</ele>
        <time>2025-10-25T08:42:36Z</time>
      </trkpt>
      <trkpt lat="48.58838" lon="2.09352">
        <ele>108</ele>
        <time>2025-10-25T08:42:38Z</time>
      </trkpt>
      <trkpt lat="48.58836" lon="2.09354">
        <ele>108</ele>
        <time>2025-10-25T08:42:40Z</time>
      </trkpt>
      <trkpt lat="48.58834" lon="2.09355">
        <ele>108</ele>
        <time>2025-10-25T08:42:42Z</time>
      </trkpt>
      <trkpt lat="48.58831" lon="2.09356">
        <ele>108.2</ele>
        <time>2025-10-25T08:42:44Z</time>
      </trkpt>
      <trkpt lat="48.58829" lon="2.09357">
        <ele>108.2</ele>
        <time>2025-10-25T08:42:46Z</time>
      </trkpt>
      <trkpt lat="48.58827" lon="2.09358">
        <ele>108.2</ele>
        <time>2025-10-25T08:42:48Z</time>
      </trkpt>
      <trkpt lat="48.58825" lon="2.09359">
        <ele>108</ele>
        <time>2025-10-25T08:42:50Z</time>
      </trkpt>
      <trkpt lat="48.58823" lon="2.0936">
        <ele>108</ele>
        <time>2025-10-25T08:42:52Z</time>
      </trkpt>
      <trkpt lat="48.58821" lon="2.09361">
        <ele>107.8</ele>
        <time>2025-10-25T08:42:55Z</time>
      </trkpt>
      <trkpt lat="48.58819" lon="2.09362">
        <ele>107.8</ele>
        <time>2025-10-25T08:42:57Z</time>
      </trkpt>
      <trkpt lat="48.58817" lon="2.09363">
        <ele>107.8</ele>
        <time>2025-10-25T08:42:59Z</time>
      </trkpt>
      <trkpt lat="48.58815" lon="2.09365">
        <ele>108</ele>
        <time>2025-10-25T08:43:02Z</time>
      </trkpt>
      <trkpt lat="48.58812" lon="2.09365">
        <ele>108</ele>
        <time>2025-10-25T08:43:04Z</time>
      </trkpt>
      <trkpt lat="48.5881" lon="2.09366">
        <ele>108</ele>
        <time>2025-10-25T08:43:06Z</time>
      </trkpt>
      <trkpt lat="48.58807" lon="2.09368">
        <ele>107.8</ele>
        <time>2025-10-25T08:43:08Z</time>
      </trkpt>
      <trkpt lat="48.58804" lon="2.09369">
        <ele>107.6</ele>
        <time>2025-10-25T08:43:10Z</time>
      </trkpt>
      <trkpt lat="48.58802" lon="2.09371">
        <ele>107.6</ele>
        <time>2025-10-25T08:43:12Z</time>
      </trkpt>
      <trkpt lat="48.58799" lon="2.09372">
        <ele>107.6</ele>
        <time>2025-10-25T08:43:14Z</time>
      </trkpt>
      <trkpt lat="48.58797" lon="2.09374">
        <ele>107.4</ele>
        <time>2025-10-25T08:43:16Z</time>
      </trkpt>
      <trkpt lat="48.58795" lon="2.09375">
        <ele>107.4</ele>
        <time>2025-10-25T08:43:18Z</time>
      </trkpt>
      <trkpt lat="48.58793" lon="2.09377">
        <ele>107.4</ele>
        <time>2025-10-25T08:43:20Z</time>
      </trkpt>
      <trkpt lat="48.58791" lon="2.09379">
        <ele>107.2</ele>
        <time>2025-10-25T08:43:22Z</time>
      </trkpt>
      <trkpt lat="48.58788" lon="2.0938">
        <ele>107</ele>
        <time>2025-10-25T08:43:24Z</time>
      </trkpt>
      <trkpt lat="48.58786" lon="2.09381">
        <ele>107</ele>
        <time>2025-10-25T08:43:26Z</time>
      </trkpt>
      <trkpt lat="48.58783" lon="2.09382">
        <ele>107</ele>
        <time>2025-10-25T08:43:28Z</time>
      </trkpt>
      <trkpt lat="48.58781" lon="2.09384">
        <ele>106.8</ele>
        <time>2025-10-25T08:43:30Z</time>
      </trkpt>
      <trkpt lat="48.58779" lon="2.09386">
        <ele>106.8</ele>
        <time>2025-10-25T08:43:32Z</time>
      </trkpt>
      <trkpt lat="48.58776" lon="2.09387">
        <ele>106.8</ele>
        <time>2025-10-25T08:43:34Z</time>
      </trkpt>
      <trkpt lat="48.58774" lon="2.09389">
        <ele>107</ele>
        <time>2025-10-25T08:43:36Z</time>
      </trkpt>
      <trkpt lat="48.58772" lon="2.0939">
        <ele>107</ele>
        <time>2025-10-25T08:43:38Z</time>
      </trkpt>
      <trkpt lat="48.58769" lon="2.09392">
        <ele>107</ele>
        <time>2025-10-25T08:43:40Z</time>
      </trkpt>
      <trkpt lat="48.58766" lon="2.09393">
        <ele>107</ele>
        <time>2025-10-25T08:43:42Z</time>
      </trkpt>
      <trkpt lat="48.58764" lon="2.09395">
        <ele>107.2</ele>
        <time>2025-10-25T08:43:44Z</time>
      </trkpt>
      <trkpt lat="48.58762" lon="2.09396">
        <ele>107.2</ele>
        <time>2025-10-25T08:43:46Z</time>
      </trkpt>
      <trkpt lat="48.5876" lon="2.09398">
        <ele>107.2</ele>
        <time>2025-10-25T08:43:48Z</time>
      </trkpt>
      <trkpt lat="48.58757" lon="2.09399">
        <ele>107</ele>
        <time>2025-10-25T08:43:50Z</time>
      </trkpt>
      <trkpt lat="48.58755" lon="2.094">
        <ele>107</ele>
        <time>2025-10-25T08:43:52Z</time>
      </trkpt>
      <trkpt lat="48.58753" lon="2.09401">
        <ele>107</ele>
        <time>2025-10-25T08:43:54Z</time>
      </trkpt>
      <trkpt lat="48.5875" lon="2.09402">
        <ele>107</ele>
        <time>2025-10-25T08:43:56Z</time>
      </trkpt>
      <trkpt lat="48.58748" lon="2.09404">
        <ele>107</ele>
        <time>2025-10-25T08:43:58Z</time>
      </trkpt>
      <trkpt lat="48.58746" lon="2.09406">
        <ele>107</ele>
        <time>2025-10-25T08:44:00Z</time>
      </trkpt>
      <trkpt lat="48.58743" lon="2.09408">
        <ele>107</ele>
        <time>2025-10-25T08:44:02Z</time>
      </trkpt>
      <trkpt lat="48.58741" lon="2.09409">
        <ele>107</ele>
        <time>2025-10-25T08:44:04Z</time>
      </trkpt>
      <trkpt lat="48.58738" lon="2.09411">
        <ele>107</ele>
        <time>2025-10-25T08:44:06Z</time>
      </trkpt>
      <trkpt lat="48.58736" lon="2.09413">
        <ele>107</ele>
        <time>2025-10-25T08:44:08Z</time>
      </trkpt>
      <trkpt lat="48.58733" lon="2.09414">
        <ele>107</ele>
        <time>2025-10-25T08:44:10Z</time>
      </trkpt>
      <trkpt lat="48.5873" lon="2.09416">
        <ele>107</ele>
        <time>2025-10-25T08:44:12Z</time>
      </trkpt>
      <trkpt lat="48.58728" lon="2.09417">
        <ele>107</ele>
        <time>2025-10-25T08:44:14Z</time>
      </trkpt>
      <trkpt lat="48.58725" lon="2.09419">
        <ele>107</ele>
        <time>2025-10-25T08:44:16Z</time>
      </trkpt>
      <trkpt lat="48.58723" lon="2.0942">
        <ele>107</ele>
        <time>2025-10-25T08:44:18Z</time>
      </trkpt>
      <trkpt lat="48.5872" lon="2.09421">
        <ele>107</ele>
        <time>2025-10-25T08:44:20Z</time>
      </trkpt>
      <trkpt lat="48.58718" lon="2.09421">
        <ele>107.2</ele>
        <time>2025-10-25T08:44:22Z</time>
      </trkpt>
      <trkpt lat="48.58716" lon="2.09422">
        <ele>107.2</ele>
        <time>2025-10-25T08:44:24Z</time>
      </trkpt>
      <trkpt lat="48.58713" lon="2.09423">
        <ele>107.2</ele>
        <time>2025-10-25T08:44:26Z</time>
      </trkpt>
      <trkpt lat="48.58711" lon="2.09424">
        <ele>107.2</ele>
        <time>2025-10-25T08:44:28Z</time>
      </trkpt>
      <trkpt lat="48.58708" lon="2.09426">
        <ele>107.4</ele>
        <time>2025-10-25T08:44:30Z</time>
      </trkpt>
      <trkpt lat="48.58706" lon="2.09428">
        <ele>107.4</ele>
        <time>2025-10-25T08:44:32Z</time>
      </trkpt>
      <trkpt lat="48.58704" lon="2.0943">
        <ele>107.4</ele>
        <time>2025-10-25T08:44:34Z</time>
      </trkpt>
      <trkpt lat="48.58701" lon="2.09431">
        <ele>107.4</ele>
        <time>2025-10-25T08:44:36Z</time>
      </trkpt>
      <trkpt lat="48.58699" lon="2.09433">
        <ele>107.4</ele>
        <time>2025-10-25T08:44:38Z</time>
      </trkpt>
      <trkpt lat="48.58697" lon="2.09433">
        <ele>107.2</ele>
        <time>2025-10-25T08:44:40Z</time>
      </trkpt>
      <trkpt lat="48.58694" lon="2.09434">
        <ele>107.2</ele>
        <time>2025-10-25T08:44:42Z</time>
      </trkpt>
      <trkpt lat="48.58692" lon="2.09435">
        <ele>107.2</ele>
        <time>2025-10-25T08:44:44Z</time>
      </trkpt>
      <trkpt lat="48.5869" lon="2.09436">
        <ele>107.2</ele>
        <time>2025-10-25T08:44:46Z</time>
      </trkpt>
      <trkpt lat="48.58687" lon="2.09436">
        <ele>107.2</ele>
        <time>2025-10-25T08:44:48Z</time>
      </trkpt>
      <trkpt lat="48.58684" lon="2.09437">
        <ele>107</ele>
        <time>2025-10-25T08:44:50Z</time>
      </trkpt>
      <trkpt lat="48.58682" lon="2.09437">
        <ele>106.6</ele>
        <time>2025-10-25T08:44:52Z</time>
      </trkpt>
      <trkpt lat="48.58679" lon="2.09438">
        <ele>106.6</ele>
        <time>2025-10-25T08:44:54Z</time>
      </trkpt>
      <trkpt lat="48.58676" lon="2.09438">
        <ele>106.8</ele>
        <time>2025-10-25T08:44:56Z</time>
      </trkpt>
      <trkpt lat="48.58674" lon="2.09438">
        <ele>106.8</ele>
        <time>2025-10-25T08:44:58Z</time>
      </trkpt>
      <trkpt lat="48.58672" lon="2.09438">
        <ele>106.6</ele>
        <time>2025-10-25T08:45:00Z</time>
      </trkpt>
      <trkpt lat="48.58669" lon="2.09438">
        <ele>106.6</ele>
        <time>2025-10-25T08:45:02Z</time>
      </trkpt>
      <trkpt lat="48.58667" lon="2.09438">
        <ele>106.6</ele>
        <time>2025-10-25T08:45:04Z</time>
      </trkpt>
      <trkpt lat="48.58664" lon="2.09438">
        <ele>106.4</ele>
        <time>2025-10-25T08:45:06Z</time>
      </trkpt>
      <trkpt lat="48.58661" lon="2.09438">
        <ele>106.2</ele>
        <time>2025-10-25T08:45:08Z</time>
      </trkpt>
      <trkpt lat="48.58659" lon="2.09437">
        <ele>106</ele>
        <time>2025-10-25T08:45:10Z</time>
      </trkpt>
      <trkpt lat="48.58657" lon="2.09437">
        <ele>105.8</ele>
        <time>2025-10-25T08:45:12Z</time>
      </trkpt>
      <trkpt lat="48.58655" lon="2.09437">
        <ele>105.6</ele>
        <time>2025-10-25T08:45:14Z</time>
      </trkpt>
      <trkpt lat="48.58653" lon="2.09436">
        <ele>105.6</ele>
        <time>2025-10-25T08:45:16Z</time>
      </trkpt>
      <trkpt lat="48.58651" lon="2.09435">
        <ele>105.6</ele>
        <time>2025-10-25T08:45:18Z</time>
      </trkpt>
      <trkpt lat="48.58649" lon="2.09434">
        <ele>105.4</ele>
        <time>2025-10-25T08:45:20Z</time>
      </trkpt>
      <trkpt lat="48.58647" lon="2.09434">
        <ele>105.2</ele>
        <time>2025-10-25T08:45:22Z</time>
      </trkpt>
      <trkpt lat="48.58644" lon="2.09434">
        <ele>105.2</ele>
        <time>2025-10-25T08:45:24Z</time>
      </trkpt>
      <trkpt lat="48.58641" lon="2.09434">
        <ele>105.4</ele>
        <time>2025-10-25T08:45:26Z</time>
      </trkpt>
      <trkpt lat="48.58639" lon="2.09434">
        <ele>105.4</ele>
        <time>2025-10-25T08:45:28Z</time>
      </trkpt>
      <trkpt lat="48.58636" lon="2.09434">
        <ele>105.4</ele>
        <time>2025-10-25T08:45:30Z</time>
      </trkpt>
      <trkpt lat="48.58633" lon="2.09433">
        <ele>105.4</ele>
        <time>2025-10-25T08:45:32Z</time>
      </trkpt>
      <trkpt lat="48.58631" lon="2.09433">
        <ele>105.4</ele>
        <time>2025-10-25T08:45:34Z</time>
      </trkpt>
      <trkpt lat="48.58629" lon="2.09432">
        <ele>105.4</ele>
        <time>2025-10-25T08:45:36Z</time>
      </trkpt>
      <trkpt lat="48.58627" lon="2.09431">
        <ele>105.2</ele>
        <time>2025-10-25T08:45:38Z</time>
      </trkpt>
      <trkpt lat="48.58625" lon="2.09431">
        <ele>105.2</ele>
        <time>2025-10-25T08:45:40Z</time>
      </trkpt>
      <trkpt lat="48.58622" lon="2.09431">
        <ele>105.2</ele>
        <time>2025-10-25T08:45:42Z</time>
      </trkpt>
      <trkpt lat="48.5862" lon="2.09431">
        <ele>105.2</ele>
        <time>2025-10-25T08:45:44Z</time>
      </trkpt>
      <trkpt lat="48.58618" lon="2.0943">
        <ele>105.4</ele>
        <time>2025-10-25T08:45:46Z</time>
      </trkpt>
      <trkpt lat="48.58616" lon="2.09429">
        <ele>105.4</ele>
        <time>2025-10-25T08:45:48Z</time>
      </trkpt>
      <trkpt lat="48.58613" lon="2.09428">
        <ele>105.2</ele>
        <time>2025-10-25T08:45:51Z</time>
      </trkpt>
      <trkpt lat="48.58611" lon="2.09426">
        <ele>105.4</ele>
        <time>2025-10-25T08:45:54Z</time>
      </trkpt>
      <trkpt lat="48.58609" lon="2.09425">
        <ele>105.4</ele>
        <time>2025-10-25T08:45:56Z</time>
      </trkpt>
      <trkpt lat="48.58606" lon="2.09425">
        <ele>105.2</ele>
        <time>2025-10-25T08:45:58Z</time>
      </trkpt>
      <trkpt lat="48.58604" lon="2.09424">
        <ele>105</ele>
        <time>2025-10-25T08:46:00Z</time>
      </trkpt>
      <trkpt lat="48.58602" lon="2.09424">
        <ele>104.8</ele>
        <time>2025-10-25T08:46:02Z</time>
      </trkpt>
      <trkpt lat="48.58599" lon="2.09423">
        <ele>104.8</ele>
        <time>2025-10-25T08:46:04Z</time>
      </trkpt>
      <trkpt lat="48.58597" lon="2.09422">
        <ele>104.6</ele>
        <time>2025-10-25T08:46:06Z</time>
      </trkpt>
      <trkpt lat="48.58595" lon="2.09421">
        <ele>104.6</ele>
        <time>2025-10-25T08:46:08Z</time>
      </trkpt>
      <trkpt lat="48.58593" lon="2.0942">
        <ele>104.6</ele>
        <time>2025-10-25T08:46:10Z</time>
      </trkpt>
      <trkpt lat="48.58591" lon="2.0942">
        <ele>104.4</ele>
        <time>2025-10-25T08:46:12Z</time>
      </trkpt>
      <trkpt lat="48.58589" lon="2.0942">
        <ele>104.4</ele>
        <time>2025-10-25T08:46:14Z</time>
      </trkpt>
      <trkpt lat="48.58586" lon="2.09419">
        <ele>104.4</ele>
        <time>2025-10-25T08:46:16Z</time>
      </trkpt>
      <trkpt lat="48.58584" lon="2.09419">
        <ele>104.4</ele>
        <time>2025-10-25T08:46:18Z</time>
      </trkpt>
      <trkpt lat="48.58581" lon="2.09419">
        <ele>104.4</ele>
        <time>2025-10-25T08:46:20Z</time>
      </trkpt>
      <trkpt lat="48.58579" lon="2.09419">
        <ele>104.4</ele>
        <time>2025-10-25T08:46:22Z</time>
      </trkpt>
      <trkpt lat="48.58577" lon="2.09419">
        <ele>104.2</ele>
        <time>2025-10-25T08:46:24Z</time>
      </trkpt>
      <trkpt lat="48.58575" lon="2.09418">
        <ele>104.2</ele>
        <time>2025-10-25T08:46:26Z</time>
      </trkpt>
      <trkpt lat="48.58572" lon="2.09417">
        <ele>104</ele>
        <time>2025-10-25T08:46:28Z</time>
      </trkpt>
      <trkpt lat="48.5857" lon="2.09417">
        <ele>104</ele>
        <time>2025-10-25T08:46:30Z</time>
      </trkpt>
      <trkpt lat="48.58568" lon="2.09417">
        <ele>103.8</ele>
        <time>2025-10-25T08:46:32Z</time>
      </trkpt>
      <trkpt lat="48.58566" lon="2.09416">
        <ele>103.6</ele>
        <time>2025-10-25T08:46:34Z</time>
      </trkpt>
      <trkpt lat="48.58564" lon="2.09416">
        <ele>103.4</ele>
        <time>2025-10-25T08:46:36Z</time>
      </trkpt>
      <trkpt lat="48.58561" lon="2.09415">
        <ele>103</ele>
        <time>2025-10-25T08:46:39Z</time>
      </trkpt>
      <trkpt lat="48.58559" lon="2.09414">
        <ele>103</ele>
        <time>2025-10-25T08:46:41Z</time>
      </trkpt>
      <trkpt lat="48.58556" lon="2.09414">
        <ele>102.8</ele>
        <time>2025-10-25T08:46:43Z</time>
      </trkpt>
      <trkpt lat="48.58554" lon="2.09414">
        <ele>102.8</ele>
        <time>2025-10-25T08:46:45Z</time>
      </trkpt>
      <trkpt lat="48.58551" lon="2.09413">
        <ele>102.6</ele>
        <time>2025-10-25T08:46:47Z</time>
      </trkpt>
      <trkpt lat="48.58549" lon="2.09412">
        <ele>102.4</ele>
        <time>2025-10-25T08:46:49Z</time>
      </trkpt>
      <trkpt lat="48.58547" lon="2.09411">
        <ele>102.4</ele>
        <time>2025-10-25T08:46:51Z</time>
      </trkpt>
      <trkpt lat="48.58545" lon="2.0941">
        <ele>102.2</ele>
        <time>2025-10-25T08:46:53Z</time>
      </trkpt>
      <trkpt lat="48.58543" lon="2.0941">
        <ele>102</ele>
        <time>2025-10-25T08:46:55Z</time>
      </trkpt>
      <trkpt lat="48.5854" lon="2.09409">
        <ele>101.8</ele>
        <time>2025-10-25T08:46:57Z</time>
      </trkpt>
      <trkpt lat="48.58538" lon="2.09408">
        <ele>101.6</ele>
        <time>2025-10-25T08:46:59Z</time>
      </trkpt>
      <trkpt lat="48.58535" lon="2.09408">
        <ele>101.2</ele>
        <time>2025-10-25T08:47:01Z</time>
      </trkpt>
      <trkpt lat="48.58533" lon="2.09407">
        <ele>101</ele>
        <time>2025-10-25T08:47:03Z</time>
      </trkpt>
      <trkpt lat="48.5853" lon="2.09407">
        <ele>100.8</ele>
        <time>2025-10-25T08:47:05Z</time>
      </trkpt>
      <trkpt lat="48.58527" lon="2.09407">
        <ele>100.6</ele>
        <time>2025-10-25T08:47:07Z</time>
      </trkpt>
      <trkpt lat="48.58525" lon="2.09407">
        <ele>100.4</ele>
        <time>2025-10-25T08:47:09Z</time>
      </trkpt>
      <trkpt lat="48.58523" lon="2.09406">
        <ele>100.4</ele>
        <time>2025-10-25T08:47:11Z</time>
      </trkpt>
      <trkpt lat="48.5852" lon="2.09406">
        <ele>100.4</ele>
        <time>2025-10-25T08:47:13Z</time>
      </trkpt>
      <trkpt lat="48.58518" lon="2.09405">
        <ele>100.4</ele>
        <time>2025-10-25T08:47:15Z</time>
      </trkpt>
      <trkpt lat="48.58516" lon="2.09405">
        <ele>100.4</ele>
        <time>2025-10-25T08:47:17Z</time>
      </trkpt>
      <trkpt lat="48.58513" lon="2.09405">
        <ele>100.4</ele>
        <time>2025-10-25T08:47:19Z</time>
      </trkpt>
      <trkpt lat="48.5851" lon="2.09404">
        <ele>100.2</ele>
        <time>2025-10-25T08:47:21Z</time>
      </trkpt>
      <trkpt lat="48.58508" lon="2.09404">
        <ele>100</ele>
        <time>2025-10-25T08:47:23Z</time>
      </trkpt>
      <trkpt lat="48.58505" lon="2.09404">
        <ele>99.8</ele>
        <time>2025-10-25T08:47:25Z</time>
      </trkpt>
      <trkpt lat="48.58502" lon="2.09404">
        <ele>99.8</ele>
        <time>2025-10-25T08:47:27Z</time>
      </trkpt>
      <trkpt lat="48.585" lon="2.09404">
        <ele>99.6</ele>
        <time>2025-10-25T08:47:29Z</time>
      </trkpt>
      <trkpt lat="48.58498" lon="2.09404">
        <ele>99.4</ele>
        <time>2025-10-25T08:47:31Z</time>
      </trkpt>
      <trkpt lat="48.58495" lon="2.09403">
        <ele>99.2</ele>
        <time>2025-10-25T08:47:33Z</time>
      </trkpt>
      <trkpt lat="48.58493" lon="2.09403">
        <ele>99</ele>
        <time>2025-10-25T08:47:35Z</time>
      </trkpt>
      <trkpt lat="48.5849" lon="2.09403">
        <ele>99</ele>
        <time>2025-10-25T08:47:37Z</time>
      </trkpt>
      <trkpt lat="48.58488" lon="2.09402">
        <ele>98.8</ele>
        <time>2025-10-25T08:47:39Z</time>
      </trkpt>
      <trkpt lat="48.58486" lon="2.09401">
        <ele>99</ele>
        <time>2025-10-25T08:47:41Z</time>
      </trkpt>
      <trkpt lat="48.58484" lon="2.094">
        <ele>98.8</ele>
        <time>2025-10-25T08:47:43Z</time>
      </trkpt>
      <trkpt lat="48.58482" lon="2.09399">
        <ele>98.8</ele>
        <time>2025-10-25T08:47:45Z</time>
      </trkpt>
      <trkpt lat="48.5848" lon="2.09399">
        <ele>98.6</ele>
        <time>2025-10-25T08:47:47Z</time>
      </trkpt>
      <trkpt lat="48.58477" lon="2.09399">
        <ele>98.6</ele>
        <time>2025-10-25T08:47:49Z</time>
      </trkpt>
      <trkpt lat="48.58475" lon="2.09399">
        <ele>98.2</ele>
        <time>2025-10-25T08:47:51Z</time>
      </trkpt>
      <trkpt lat="48.58472" lon="2.09399">
        <ele>98</ele>
        <time>2025-10-25T08:47:53Z</time>
      </trkpt>
      <trkpt lat="48.5847" lon="2.09398">
        <ele>97.8</ele>
        <time>2025-10-25T08:47:55Z</time>
      </trkpt>
      <trkpt lat="48.58468" lon="2.09398">
        <ele>97.4</ele>
        <time>2025-10-25T08:47:57Z</time>
      </trkpt>
      <trkpt lat="48.58466" lon="2.09397">
        <ele>97.2</ele>
        <time>2025-10-25T08:47:59Z</time>
      </trkpt>
      <trkpt lat="48.58463" lon="2.09396">
        <ele>96.8</ele>
        <time>2025-10-25T08:48:01Z</time>
      </trkpt>
      <trkpt lat="48.5846" lon="2.09396">
        <ele>96.6</ele>
        <time>2025-10-25T08:48:03Z</time>
      </trkpt>
      <trkpt lat="48.58458" lon="2.09395">
        <ele>96.2</ele>
        <time>2025-10-25T08:48:05Z</time>
      </trkpt>
      <trkpt lat="48.58455" lon="2.09395">
        <ele>96.2</ele>
        <time>2025-10-25T08:48:07Z</time>
      </trkpt>
      <trkpt lat="48.58452" lon="2.09395">
        <ele>96</ele>
        <time>2025-10-25T08:48:09Z</time>
      </trkpt>
      <trkpt lat="48.5845" lon="2.09394">
        <ele>96</ele>
        <time>2025-10-25T08:48:11Z</time>
      </trkpt>
      <trkpt lat="48.58447" lon="2.09393">
        <ele>96</ele>
        <time>2025-10-25T08:48:13Z</time>
      </trkpt>
      <trkpt lat="48.58444" lon="2.09392">
        <ele>96</ele>
        <time>2025-10-25T08:48:15Z</time>
      </trkpt>
      <trkpt lat="48.58442" lon="2.09392">
        <ele>95.8</ele>
        <time>2025-10-25T08:48:17Z</time>
      </trkpt>
      <trkpt lat="48.58439" lon="2.09391">
        <ele>95.6</ele>
        <time>2025-10-25T08:48:19Z</time>
      </trkpt>
      <trkpt lat="48.58437" lon="2.09391">
        <ele>95.4</ele>
        <time>2025-10-25T08:48:21Z</time>
      </trkpt>
      <trkpt lat="48.58435" lon="2.0939">
        <ele>95.2</ele>
        <time>2025-10-25T08:48:23Z</time>
      </trkpt>
      <trkpt lat="48.58433" lon="2.09389">
        <ele>95</ele>
        <time>2025-10-25T08:48:25Z</time>
      </trkpt>
      <trkpt lat="48.58431" lon="2.09388">
        <ele>94.8</ele>
        <time>2025-10-25T08:48:27Z</time>
      </trkpt>
      <trkpt lat="48.58429" lon="2.09387">
        <ele>94.6</ele>
        <time>2025-10-25T08:48:29Z</time>
      </trkpt>
      <trkpt lat="48.58427" lon="2.09386">
        <ele>94.4</ele>
        <time>2025-10-25T08:48:31Z</time>
      </trkpt>
      <trkpt lat="48.58425" lon="2.09386">
        <ele>94.2</ele>
        <time>2025-10-25T08:48:33Z</time>
      </trkpt>
      <trkpt lat="48.58422" lon="2.09386">
        <ele>93.8</ele>
        <time>2025-10-25T08:48:35Z</time>
      </trkpt>
      <trkpt lat="48.5842" lon="2.09385">
        <ele>93.8</ele>
        <time>2025-10-25T08:48:37Z</time>
      </trkpt>
      <trkpt lat="48.58418" lon="2.09385">
        <ele>93.6</ele>
        <time>2025-10-25T08:48:39Z</time>
      </trkpt>
      <trkpt lat="48.58415" lon="2.09385">
        <ele>93.6</ele>
        <time>2025-10-25T08:48:41Z</time>
      </trkpt>
      <trkpt lat="48.58413" lon="2.09384">
        <ele>93.4</ele>
        <time>2025-10-25T08:48:43Z</time>
      </trkpt>
      <trkpt lat="48.58411" lon="2.09383">
        <ele>93.4</ele>
        <time>2025-10-25T08:48:45Z</time>
      </trkpt>
      <trkpt lat="48.58408" lon="2.09382">
        <ele>93.2</ele>
        <time>2025-10-25T08:48:48Z</time>
      </trkpt>
      <trkpt lat="48.58406" lon="2.09381">
        <ele>93</ele>
        <time>2025-10-25T08:48:50Z</time>
      </trkpt>
      <trkpt lat="48.58404" lon="2.0938">
        <ele>92.8</ele>
        <time>2025-10-25T08:48:53Z</time>
      </trkpt>
      <trkpt lat="48.58402" lon="2.0938">
        <ele>92.6</ele>
        <time>2025-10-25T08:48:55Z</time>
      </trkpt>
      <trkpt lat="48.58399" lon="2.0938">
        <ele>92.4</ele>
        <time>2025-10-25T08:48:57Z</time>
      </trkpt>
      <trkpt lat="48.58397" lon="2.09379">
        <ele>92.2</ele>
        <time>2025-10-25T08:48:59Z</time>
      </trkpt>
      <trkpt lat="48.58395" lon="2.09378">
        <ele>92</ele>
        <time>2025-10-25T08:49:01Z</time>
      </trkpt>
      <trkpt lat="48.58392" lon="2.09378">
        <ele>91.8</ele>
        <time>2025-10-25T08:49:03Z</time>
      </trkpt>
      <trkpt lat="48.5839" lon="2.09377">
        <ele>91.6</ele>
        <time>2025-10-25T08:49:05Z</time>
      </trkpt>
      <trkpt lat="48.58388" lon="2.09377">
        <ele>91.2</ele>
        <time>2025-10-25T08:49:07Z</time>
      </trkpt>
      <trkpt lat="48.58386" lon="2.09376">
        <ele>91</ele>
        <time>2025-10-25T08:49:09Z</time>
      </trkpt>
      <trkpt lat="48.58384" lon="2.09375">
        <ele>90.8</ele>
        <time>2025-10-25T08:49:11Z</time>
      </trkpt>
      <trkpt lat="48.58382" lon="2.09375">
        <ele>90.6</ele>
        <time>2025-10-25T08:49:13Z</time>
      </trkpt>
      <trkpt lat="48.5838" lon="2.09374">
        <ele>90.2</ele>
        <time>2025-10-25T08:49:15Z</time>
      </trkpt>
      <trkpt lat="48.58377" lon="2.09374">
        <ele>90</ele>
        <time>2025-10-25T08:49:17Z</time>
      </trkpt>
      <trkpt lat="48.58375" lon="2.09374">
        <ele>90</ele>
        <time>2025-10-25T08:49:19Z</time>
      </trkpt>
      <trkpt lat="48.58373" lon="2.09373">
        <ele>90</ele>
        <time>2025-10-25T08:49:21Z</time>
      </trkpt>
      <trkpt lat="48.58371" lon="2.09373">
        <ele>89.8</ele>
        <time>2025-10-25T08:49:24Z</time>
      </trkpt>
      <trkpt lat="48.58369" lon="2.09372">
        <ele>89.8</ele>
        <time>2025-10-25T08:49:27Z</time>
      </trkpt>
      <trkpt lat="48.58366" lon="2.09372">
        <ele>89.8</ele>
        <time>2025-10-25T08:49:29Z</time>
      </trkpt>
      <trkpt lat="48.58364" lon="2.09371">
        <ele>89.6</ele>
        <time>2025-10-25T08:49:31Z</time>
      </trkpt>
      <trkpt lat="48.58361" lon="2.09371">
        <ele>89.6</ele>
        <time>2025-10-25T08:49:33Z</time>
      </trkpt>
      <trkpt lat="48.58358" lon="2.09371">
        <ele>89.4</ele>
        <time>2025-10-25T08:49:35Z</time>
      </trkpt>
      <trkpt lat="48.58355" lon="2.09372">
        <ele>89.2</ele>
        <time>2025-10-25T08:49:37Z</time>
      </trkpt>
      <trkpt lat="48.58352" lon="2.09372">
        <ele>88.8</ele>
        <time>2025-10-25T08:49:39Z</time>
      </trkpt>
      <trkpt lat="48.58349" lon="2.09372">
        <ele>88.6</ele>
        <time>2025-10-25T08:49:41Z</time>
      </trkpt>
      <trkpt lat="48.58347" lon="2.09372">
        <ele>88.2</ele>
        <time>2025-10-25T08:49:43Z</time>
      </trkpt>
      <trkpt lat="48.58344" lon="2.09372">
        <ele>88</ele>
        <time>2025-10-25T08:49:45Z</time>
      </trkpt>
      <trkpt lat="48.58342" lon="2.09371">
        <ele>87.6</ele>
        <time>2025-10-25T08:49:47Z</time>
      </trkpt>
      <trkpt lat="48.5834" lon="2.09371">
        <ele>87.4</ele>
        <time>2025-10-25T08:49:49Z</time>
      </trkpt>
      <trkpt lat="48.58338" lon="2.09371">
        <ele>87.2</ele>
        <time>2025-10-25T08:49:51Z</time>
      </trkpt>
      <trkpt lat="48.58335" lon="2.09372">
        <ele>86.8</ele>
        <time>2025-10-25T08:49:54Z</time>
      </trkpt>
      <trkpt lat="48.58333" lon="2.09372">
        <ele>86.4</ele>
        <time>2025-10-25T08:49:56Z</time>
      </trkpt>
      <trkpt lat="48.58331" lon="2.09371">
        <ele>86.4</ele>
        <time>2025-10-25T08:49:58Z</time>
      </trkpt>
      <trkpt lat="48.58329" lon="2.09371">
        <ele>86.4</ele>
        <time>2025-10-25T08:50:00Z</time>
      </trkpt>
      <trkpt lat="48.58326" lon="2.09371">
        <ele>86.2</ele>
        <time>2025-10-25T08:50:02Z</time>
      </trkpt>
      <trkpt lat="48.58324" lon="2.09371">
        <ele>86.2</ele>
        <time>2025-10-25T08:50:04Z</time>
      </trkpt>
      <trkpt lat="48.58321" lon="2.09371">
        <ele>86</ele>
        <time>2025-10-25T08:50:06Z</time>
      </trkpt>
      <trkpt lat="48.58319" lon="2.09372">
        <ele>86</ele>
        <time>2025-10-25T08:50:08Z</time>
      </trkpt>
      <trkpt lat="48.58316" lon="2.09372">
        <ele>85.8</ele>
        <time>2025-10-25T08:50:10Z</time>
      </trkpt>
      <trkpt lat="48.58314" lon="2.09372">
        <ele>85.6</ele>
        <time>2025-10-25T08:50:12Z</time>
      </trkpt>
      <trkpt lat="48.58312" lon="2.09372">
        <ele>85.2</ele>
        <time>2025-10-25T08:50:14Z</time>
      </trkpt>
      <trkpt lat="48.5831" lon="2.09372">
        <ele>85</ele>
        <time>2025-10-25T08:50:16Z</time>
      </trkpt>
      <trkpt lat="48.58308" lon="2.09371">
        <ele>84.6</ele>
        <time>2025-10-25T08:50:18Z</time>
      </trkpt>
      <trkpt lat="48.58306" lon="2.09371">
        <ele>84.4</ele>
        <time>2025-10-25T08:50:20Z</time>
      </trkpt>
      <trkpt lat="48.58304" lon="2.09372">
        <ele>84</ele>
        <time>2025-10-25T08:50:22Z</time>
      </trkpt>
      <trkpt lat="48.58302" lon="2.09372">
        <ele>83.8</ele>
        <time>2025-10-25T08:50:24Z</time>
      </trkpt>
      <trkpt lat="48.583" lon="2.09372">
        <ele>83.6</ele>
        <time>2025-10-25T08:50:26Z</time>
      </trkpt>
      <trkpt lat="48.58297" lon="2.09372">
        <ele>83.6</ele>
        <time>2025-10-25T08:50:28Z</time>
      </trkpt>
      <trkpt lat="48.58295" lon="2.09372">
        <ele>83.4</ele>
        <time>2025-10-25T08:50:30Z</time>
      </trkpt>
      <trkpt lat="48.58293" lon="2.09372">
        <ele>83.4</ele>
        <time>2025-10-25T08:50:32Z</time>
      </trkpt>
      <trkpt lat="48.58291" lon="2.09371">
        <ele>83</ele>
        <time>2025-10-25T08:50:34Z</time>
      </trkpt>
      <trkpt lat="48.58288" lon="2.09371">
        <ele>83</ele>
        <time>2025-10-25T08:50:36Z</time>
      </trkpt>
      <trkpt lat="48.58286" lon="2.09371">
        <ele>82.8</ele>
        <time>2025-10-25T08:50:38Z</time>
      </trkpt>
      <trkpt lat="48.58284" lon="2.09372">
        <ele>82.6</ele>
        <time>2025-10-25T08:50:40Z</time>
      </trkpt>
      <trkpt lat="48.58281" lon="2.09372">
        <ele>82.4</ele>
        <time>2025-10-25T08:50:42Z</time>
      </trkpt>
      <trkpt lat="48.58279" lon="2.09372">
        <ele>82</ele>
        <time>2025-10-25T08:50:44Z</time>
      </trkpt>
      <trkpt lat="48.58276" lon="2.09372">
        <ele>81.8</ele>
        <time>2025-10-25T08:50:46Z</time>
      </trkpt>
      <trkpt lat="48.58274" lon="2.09373">
        <ele>81.4</ele>
        <time>2025-10-25T08:50:48Z</time>
      </trkpt>
      <trkpt lat="48.58271" lon="2.09373">
        <ele>81.2</ele>
        <time>2025-10-25T08:50:50Z</time>
      </trkpt>
      <trkpt lat="48.58269" lon="2.09373">
        <ele>81</ele>
        <time>2025-10-25T08:50:52Z</time>
      </trkpt>
      <trkpt lat="48.58267" lon="2.09373">
        <ele>80.8</ele>
        <time>2025-10-25T08:50:54Z</time>
      </trkpt>
      <trkpt lat="48.58264" lon="2.09374">
        <ele>80.6</ele>
        <time>2025-10-25T08:50:56Z</time>
      </trkpt>
      <trkpt lat="48.5826" lon="2.09374">
        <ele>80.6</ele>
        <time>2025-10-25T08:51:07Z</time>
      </trkpt>
      <trkpt lat="48.58258" lon="2.09373">
        <ele>80.2</ele>
        <time>2025-10-25T08:51:14Z</time>
      </trkpt>
      <trkpt lat="48.58255" lon="2.09373">
        <ele>80</ele>
        <time>2025-10-25T08:51:16Z</time>
      </trkpt>
      <trkpt lat="48.58252" lon="2.09373">
        <ele>79.8</ele>
        <time>2025-10-25T08:51:18Z</time>
      </trkpt>
      <trkpt lat="48.58249" lon="2.09374">
        <ele>79.8</ele>
        <time>2025-10-25T08:51:20Z</time>
      </trkpt>
      <trkpt lat="48.58246" lon="2.09374">
        <ele>79.8</ele>
        <time>2025-10-25T08:51:22Z</time>
      </trkpt>
      <trkpt lat="48.58244" lon="2.09374">
        <ele>79.6</ele>
        <time>2025-10-25T08:51:24Z</time>
      </trkpt>
      <trkpt lat="48.58241" lon="2.09374">
        <ele>79.6</ele>
        <time>2025-10-25T08:51:26Z</time>
      </trkpt>
      <trkpt lat="48.58238" lon="2.09375">
        <ele>79.4</ele>
        <time>2025-10-25T08:51:28Z</time>
      </trkpt>
      <trkpt lat="48.58236" lon="2.09375">
        <ele>79.2</ele>
        <time>2025-10-25T08:51:30Z</time>
      </trkpt>
      <trkpt lat="48.58233" lon="2.09375">
        <ele>79.2</ele>
        <time>2025-10-25T08:51:32Z</time>
      </trkpt>
      <trkpt lat="48.5823" lon="2.09375">
        <ele>79</ele>
        <time>2025-10-25T08:51:34Z</time>
      </trkpt>
      <trkpt lat="48.58228" lon="2.09375">
        <ele>78.6</ele>
        <time>2025-10-25T08:51:36Z</time>
      </trkpt>
      <trkpt lat="48.58225" lon="2.09375">
        <ele>78.2</ele>
        <time>2025-10-25T08:51:38Z</time>
      </trkpt>
      <trkpt lat="48.58222" lon="2.09375">
        <ele>77.8</ele>
        <time>2025-10-25T08:51:40Z</time>
      </trkpt>
      <trkpt lat="48.5822" lon="2.09376">
        <ele>77.4</ele>
        <time>2025-10-25T08:51:42Z</time>
      </trkpt>
      <trkpt lat="48.58216" lon="2.09377">
        <ele>77.4</ele>
        <time>2025-10-25T08:51:44Z</time>
      </trkpt>
      <trkpt lat="48.58213" lon="2.09377">
        <ele>77.2</ele>
        <time>2025-10-25T08:51:46Z</time>
      </trkpt>
      <trkpt lat="48.58211" lon="2.09378">
        <ele>77.4</ele>
        <time>2025-10-25T08:51:48Z</time>
      </trkpt>
      <trkpt lat="48.58208" lon="2.09378">
        <ele>77.4</ele>
        <time>2025-10-25T08:51:50Z</time>
      </trkpt>
      <trkpt lat="48.58205" lon="2.09379">
        <ele>77.4</ele>
        <time>2025-10-25T08:51:52Z</time>
      </trkpt>
      <trkpt lat="48.58202" lon="2.09379">
        <ele>77.4</ele>
        <time>2025-10-25T08:51:54Z</time>
      </trkpt>
      <trkpt lat="48.582" lon="2.09379">
        <ele>77.6</ele>
        <time>2025-10-25T08:51:56Z</time>
      </trkpt>
      <trkpt lat="48.58197" lon="2.09379">
        <ele>77.6</ele>
        <time>2025-10-25T08:51:58Z</time>
      </trkpt>
      <trkpt lat="48.58195" lon="2.09379">
        <ele>77.6</ele>
        <time>2025-10-25T08:52:00Z</time>
      </trkpt>
      <trkpt lat="48.58192" lon="2.09379">
        <ele>77.4</ele>
        <time>2025-10-25T08:52:02Z</time>
      </trkpt>
      <trkpt lat="48.58189" lon="2.09379">
        <ele>77.2</ele>
        <time>2025-10-25T08:52:04Z</time>
      </trkpt>
      <trkpt lat="48.58187" lon="2.09379">
        <ele>77.2</ele>
        <time>2025-10-25T08:52:06Z</time>
      </trkpt>
      <trkpt lat="48.58184" lon="2.09379">
        <ele>77.2</ele>
        <time>2025-10-25T08:52:08Z</time>
      </trkpt>
      <trkpt lat="48.5818" lon="2.09379">
        <ele>77.2</ele>
        <time>2025-10-25T08:52:10Z</time>
      </trkpt>
      <trkpt lat="48.58177" lon="2.09379">
        <ele>77.4</ele>
        <time>2025-10-25T08:52:12Z</time>
      </trkpt>
      <trkpt lat="48.58174" lon="2.09379">
        <ele>77.2</ele>
        <time>2025-10-25T08:52:14Z</time>
      </trkpt>
      <trkpt lat="48.58172" lon="2.09379">
        <ele>77.2</ele>
        <time>2025-10-25T08:52:16Z</time>
      </trkpt>
      <trkpt lat="48.58168" lon="2.0938">
        <ele>77.2</ele>
        <time>2025-10-25T08:52:18Z</time>
      </trkpt>
      <trkpt lat="48.58165" lon="2.0938">
        <ele>77</ele>
        <time>2025-10-25T08:52:20Z</time>
      </trkpt>
      <trkpt lat="48.58162" lon="2.0938">
        <ele>77</ele>
        <time>2025-10-25T08:52:22Z</time>
      </trkpt>
      <trkpt lat="48.58159" lon="2.0938">
        <ele>77</ele>
        <time>2025-10-25T08:52:24Z</time>
      </trkpt>
      <trkpt lat="48.58156" lon="2.0938">
        <ele>77.2</ele>
        <time>2025-10-25T08:52:26Z</time>
      </trkpt>
      <trkpt lat="48.58154" lon="2.09379">
        <ele>77.2</ele>
        <time>2025-10-25T08:52:28Z</time>
      </trkpt>
      <trkpt lat="48.5815" lon="2.09379">
        <ele>77.2</ele>
        <time>2025-10-25T08:52:30Z</time>
      </trkpt>
      <trkpt lat="48.58148" lon="2.09378">
        <ele>77</ele>
        <time>2025-10-25T08:52:32Z</time>
      </trkpt>
      <trkpt lat="48.58144" lon="2.09378">
        <ele>77</ele>
        <time>2025-10-25T08:52:34Z</time>
      </trkpt>
      <trkpt lat="48.58142" lon="2.09377">
        <ele>77</ele>
        <time>2025-10-25T08:52:36Z</time>
      </trkpt>
      <trkpt lat="48.58139" lon="2.09376">
        <ele>77</ele>
        <time>2025-10-25T08:52:38Z</time>
      </trkpt>
      <trkpt lat="48.58136" lon="2.09376">
        <ele>76.8</ele>
        <time>2025-10-25T08:52:40Z</time>
      </trkpt>
      <trkpt lat="48.58133" lon="2.09376">
        <ele>76.8</ele>
        <time>2025-10-25T08:52:42Z</time>
      </trkpt>
      <trkpt lat="48.58131" lon="2.09375">
        <ele>76.8</ele>
        <time>2025-10-25T08:52:44Z</time>
      </trkpt>
      <trkpt lat="48.58128" lon="2.09375">
        <ele>76.8</ele>
        <time>2025-10-25T08:52:46Z</time>
      </trkpt>
      <trkpt lat="48.58126" lon="2.09375">
        <ele>77</ele>
        <time>2025-10-25T08:52:48Z</time>
      </trkpt>
      <trkpt lat="48.58123" lon="2.09374">
        <ele>77</ele>
        <time>2025-10-25T08:52:50Z</time>
      </trkpt>
      <trkpt lat="48.5812" lon="2.09373">
        <ele>77</ele>
        <time>2025-10-25T08:52:52Z</time>
      </trkpt>
      <trkpt lat="48.58118" lon="2.09373">
        <ele>77</ele>
        <time>2025-10-25T08:52:53Z</time>
      </trkpt>
      <trkpt lat="48.58116" lon="2.09373">
        <ele>76.8</ele>
        <time>2025-10-25T08:52:55Z</time>
      </trkpt>
      <trkpt lat="48.58113" lon="2.09372">
        <ele>76.8</ele>
        <time>2025-10-25T08:52:57Z</time>
      </trkpt>
      <trkpt lat="48.5811" lon="2.09371">
        <ele>76.8</ele>
        <time>2025-10-25T08:52:59Z</time>
      </trkpt>
      <trkpt lat="48.58108" lon="2.0937">
        <ele>76.8</ele>
        <time>2025-10-25T08:53:01Z</time>
      </trkpt>
      <trkpt lat="48.58105" lon="2.0937">
        <ele>76.6</ele>
        <time>2025-10-25T08:53:03Z</time>
      </trkpt>
      <trkpt lat="48.58102" lon="2.09369">
        <ele>76.6</ele>
        <time>2025-10-25T08:53:05Z</time>
      </trkpt>
      <trkpt lat="48.581" lon="2.09369">
        <ele>76.6</ele>
        <time>2025-10-25T08:53:07Z</time>
      </trkpt>
      <trkpt lat="48.58097" lon="2.09369">
        <ele>76.8</ele>
        <time>2025-10-25T08:53:09Z</time>
      </trkpt>
      <trkpt lat="48.58095" lon="2.09368">
        <ele>76.8</ele>
        <time>2025-10-25T08:53:11Z</time>
      </trkpt>
      <trkpt lat="48.58092" lon="2.09368">
        <ele>77</ele>
        <time>2025-10-25T08:53:13Z</time>
      </trkpt>
      <trkpt lat="48.5809" lon="2.09367">
        <ele>77</ele>
        <time>2025-10-25T08:53:15Z</time>
      </trkpt>
      <trkpt lat="48.58087" lon="2.09366">
        <ele>77</ele>
        <time>2025-10-25T08:53:17Z</time>
      </trkpt>
      <trkpt lat="48.58084" lon="2.09366">
        <ele>77</ele>
        <time>2025-10-25T08:53:19Z</time>
      </trkpt>
      <trkpt lat="48.58082" lon="2.09365">
        <ele>77</ele>
        <time>2025-10-25T08:53:21Z</time>
      </trkpt>
      <trkpt lat="48.58079" lon="2.09364">
        <ele>77.2</ele>
        <time>2025-10-25T08:53:24Z</time>
      </trkpt>
      <trkpt lat="48.58078" lon="2.09361">
        <ele>77.6</ele>
        <time>2025-10-25T08:53:56Z</time>
      </trkpt>
      <trkpt lat="48.58076" lon="2.09361">
        <ele>77.4</ele>
        <time>2025-10-25T08:54:01Z</time>
      </trkpt>
      <trkpt lat="48.58073" lon="2.09361">
        <ele>77.6</ele>
        <time>2025-10-25T08:54:03Z</time>
      </trkpt>
      <trkpt lat="48.5807" lon="2.09361">
        <ele>77.6</ele>
        <time>2025-10-25T08:54:05Z</time>
      </trkpt>
      <trkpt lat="48.58067" lon="2.09361">
        <ele>77.6</ele>
        <time>2025-10-25T08:54:07Z</time>
      </trkpt>
      <trkpt lat="48.58065" lon="2.09361">
        <ele>77.8</ele>
        <time>2025-10-25T08:54:09Z</time>
      </trkpt>
      <trkpt lat="48.58062" lon="2.09361">
        <ele>77.8</ele>
        <time>2025-10-25T08:54:11Z</time>
      </trkpt>
      <trkpt lat="48.5806" lon="2.09361">
        <ele>77.6</ele>
        <time>2025-10-25T08:54:13Z</time>
      </trkpt>
      <trkpt lat="48.58058" lon="2.0936">
        <ele>77.8</ele>
        <time>2025-10-25T08:54:15Z</time>
      </trkpt>
      <trkpt lat="48.58055" lon="2.0936">
        <ele>77.8</ele>
        <time>2025-10-25T08:54:17Z</time>
      </trkpt>
      <trkpt lat="48.58053" lon="2.0936">
        <ele>77.8</ele>
        <time>2025-10-25T08:54:19Z</time>
      </trkpt>
      <trkpt lat="48.58051" lon="2.0936">
        <ele>77.6</ele>
        <time>2025-10-25T08:54:21Z</time>
      </trkpt>
      <trkpt lat="48.58049" lon="2.09359">
        <ele>77.6</ele>
        <time>2025-10-25T08:54:23Z</time>
      </trkpt>
      <trkpt lat="48.58047" lon="2.09359">
        <ele>77.6</ele>
        <time>2025-10-25T08:54:25Z</time>
      </trkpt>
      <trkpt lat="48.58044" lon="2.09359">
        <ele>77.8</ele>
        <time>2025-10-25T08:54:27Z</time>
      </trkpt>
      <trkpt lat="48.58042" lon="2.09359">
        <ele>78</ele>
        <time>2025-10-25T08:54:29Z</time>
      </trkpt>
      <trkpt lat="48.58039" lon="2.09358">
        <ele>78.2</ele>
        <time>2025-10-25T08:54:31Z</time>
      </trkpt>
      <trkpt lat="48.58037" lon="2.09358">
        <ele>78.2</ele>
        <time>2025-10-25T08:54:33Z</time>
      </trkpt>
      <trkpt lat="48.58035" lon="2.09357">
        <ele>78.2</ele>
        <time>2025-10-25T08:54:35Z</time>
      </trkpt>
      <trkpt lat="48.58033" lon="2.09356">
        <ele>78.4</ele>
        <time>2025-10-25T08:54:37Z</time>
      </trkpt>
      <trkpt lat="48.58031" lon="2.09356">
        <ele>78.4</ele>
        <time>2025-10-25T08:54:39Z</time>
      </trkpt>
      <trkpt lat="48.58028" lon="2.09356">
        <ele>78.4</ele>
        <time>2025-10-25T08:54:41Z</time>
      </trkpt>
      <trkpt lat="48.58026" lon="2.09355">
        <ele>78.6</ele>
        <time>2025-10-25T08:54:43Z</time>
      </trkpt>
      <trkpt lat="48.58024" lon="2.09355">
        <ele>78.6</ele>
        <time>2025-10-25T08:54:45Z</time>
      </trkpt>
      <trkpt lat="48.58021" lon="2.09354">
        <ele>78.6</ele>
        <time>2025-10-25T08:54:47Z</time>
      </trkpt>
      <trkpt lat="48.58019" lon="2.09354">
        <ele>78.6</ele>
        <time>2025-10-25T08:54:49Z</time>
      </trkpt>
      <trkpt lat="48.58017" lon="2.09353">
        <ele>78.6</ele>
        <time>2025-10-25T08:54:51Z</time>
      </trkpt>
      <trkpt lat="48.58015" lon="2.09352">
        <ele>78.4</ele>
        <time>2025-10-25T08:54:53Z</time>
      </trkpt>
      <trkpt lat="48.58013" lon="2.09352">
        <ele>78.4</ele>
        <time>2025-10-25T08:54:55Z</time>
      </trkpt>
      <trkpt lat="48.58011" lon="2.09351">
        <ele>78.2</ele>
        <time>2025-10-25T08:54:57Z</time>
      </trkpt>
      <trkpt lat="48.58008" lon="2.09351">
        <ele>78</ele>
        <time>2025-10-25T08:54:59Z</time>
      </trkpt>
      <trkpt lat="48.58005" lon="2.09351">
        <ele>78</ele>
        <time>2025-10-25T08:55:01Z</time>
      </trkpt>
      <trkpt lat="48.58003" lon="2.0935">
        <ele>78</ele>
        <time>2025-10-25T08:55:03Z</time>
      </trkpt>
      <trkpt lat="48.58" lon="2.09351">
        <ele>78.2</ele>
        <time>2025-10-25T08:55:05Z</time>
      </trkpt>
      <trkpt lat="48.57997" lon="2.09351">
        <ele>78.4</ele>
        <time>2025-10-25T08:55:07Z</time>
      </trkpt>
      <trkpt lat="48.57995" lon="2.09351">
        <ele>78.4</ele>
        <time>2025-10-25T08:55:09Z</time>
      </trkpt>
      <trkpt lat="48.57993" lon="2.0935">
        <ele>78.6</ele>
        <time>2025-10-25T08:55:11Z</time>
      </trkpt>
      <trkpt lat="48.5799" lon="2.09349">
        <ele>78.8</ele>
        <time>2025-10-25T08:55:13Z</time>
      </trkpt>
      <trkpt lat="48.57988" lon="2.09347">
        <ele>79</ele>
        <time>2025-10-25T08:55:15Z</time>
      </trkpt>
      <trkpt lat="48.57985" lon="2.09346">
        <ele>78.8</ele>
        <time>2025-10-25T08:55:17Z</time>
      </trkpt>
      <trkpt lat="48.57983" lon="2.09345">
        <ele>78.8</ele>
        <time>2025-10-25T08:55:19Z</time>
      </trkpt>
      <trkpt lat="48.5798" lon="2.09344">
        <ele>78.8</ele>
        <time>2025-10-25T08:55:21Z</time>
      </trkpt>
      <trkpt lat="48.57978" lon="2.09342">
        <ele>78.8</ele>
        <time>2025-10-25T08:55:23Z</time>
      </trkpt>
      <trkpt lat="48.57975" lon="2.09341">
        <ele>79</ele>
        <time>2025-10-25T08:55:25Z</time>
      </trkpt>
      <trkpt lat="48.57973" lon="2.09339">
        <ele>79.2</ele>
        <time>2025-10-25T08:55:27Z</time>
      </trkpt>
      <trkpt lat="48.57971" lon="2.09337">
        <ele>79</ele>
        <time>2025-10-25T08:55:29Z</time>
      </trkpt>
      <trkpt lat="48.57969" lon="2.09335">
        <ele>79</ele>
        <time>2025-10-25T08:55:31Z</time>
      </trkpt>
      <trkpt lat="48.57967" lon="2.09333">
        <ele>79</ele>
        <time>2025-10-25T08:55:33Z</time>
      </trkpt>
      <trkpt lat="48.57965" lon="2.09332">
        <ele>79.2</ele>
        <time>2025-10-25T08:55:35Z</time>
      </trkpt>
      <trkpt lat="48.57964" lon="2.0933">
        <ele>79.4</ele>
        <time>2025-10-25T08:55:37Z</time>
      </trkpt>
      <trkpt lat="48.57962" lon="2.09328">
        <ele>79.6</ele>
        <time>2025-10-25T08:55:39Z</time>
      </trkpt>
      <trkpt lat="48.5796" lon="2.09326">
        <ele>79.8</ele>
        <time>2025-10-25T08:55:41Z</time>
      </trkpt>
      <trkpt lat="48.57958" lon="2.09323">
        <ele>79.8</ele>
        <time>2025-10-25T08:55:43Z</time>
      </trkpt>
      <trkpt lat="48.57956" lon="2.0932">
        <ele>79.8</ele>
        <time>2025-10-25T08:55:45Z</time>
      </trkpt>
      <trkpt lat="48.57954" lon="2.09318">
        <ele>80</ele>
        <time>2025-10-25T08:55:47Z</time>
      </trkpt>
      <trkpt lat="48.57952" lon="2.09315">
        <ele>80.2</ele>
        <time>2025-10-25T08:55:49Z</time>
      </trkpt>
      <trkpt lat="48.5795" lon="2.09313">
        <ele>80.2</ele>
        <time>2025-10-25T08:55:51Z</time>
      </trkpt>
      <trkpt lat="48.57948" lon="2.09311">
        <ele>80.4</ele>
        <time>2025-10-25T08:55:53Z</time>
      </trkpt>
      <trkpt lat="48.57946" lon="2.09309">
        <ele>80.4</ele>
        <time>2025-10-25T08:55:55Z</time>
      </trkpt>
      <trkpt lat="48.57945" lon="2.09306">
        <ele>80.4</ele>
        <time>2025-10-25T08:55:57Z</time>
      </trkpt>
      <trkpt lat="48.57943" lon="2.09304">
        <ele>80.6</ele>
        <time>2025-10-25T08:55:59Z</time>
      </trkpt>
      <trkpt lat="48.57941" lon="2.09301">
        <ele>80.8</ele>
        <time>2025-10-25T08:56:01Z</time>
      </trkpt>
      <trkpt lat="48.57939" lon="2.09298">
        <ele>80.8</ele>
        <time>2025-10-25T08:56:03Z</time>
      </trkpt>
      <trkpt lat="48.57937" lon="2.09296">
        <ele>81</ele>
        <time>2025-10-25T08:56:05Z</time>
      </trkpt>
      <trkpt lat="48.57935" lon="2.09294">
        <ele>80.8</ele>
        <time>2025-10-25T08:56:07Z</time>
      </trkpt>
      <trkpt lat="48.57933" lon="2.09292">
        <ele>80.8</ele>
        <time>2025-10-25T08:56:09Z</time>
      </trkpt>
      <trkpt lat="48.5793" lon="2.0929">
        <ele>81</ele>
        <time>2025-10-25T08:56:11Z</time>
      </trkpt>
      <trkpt lat="48.57928" lon="2.09288">
        <ele>81.2</ele>
        <time>2025-10-25T08:56:13Z</time>
      </trkpt>
      <trkpt lat="48.57926" lon="2.09287">
        <ele>81.4</ele>
        <time>2025-10-25T08:56:15Z</time>
      </trkpt>
      <trkpt lat="48.57924" lon="2.09286">
        <ele>81.4</ele>
        <time>2025-10-25T08:56:17Z</time>
      </trkpt>
      <trkpt lat="48.57922" lon="2.09285">
        <ele>81.4</ele>
        <time>2025-10-25T08:56:19Z</time>
      </trkpt>
      <trkpt lat="48.57919" lon="2.09283">
        <ele>81.4</ele>
        <time>2025-10-25T08:56:21Z</time>
      </trkpt>
      <trkpt lat="48.57917" lon="2.09282">
        <ele>81.4</ele>
        <time>2025-10-25T08:56:23Z</time>
      </trkpt>
      <trkpt lat="48.57915" lon="2.09281">
        <ele>81.6</ele>
        <time>2025-10-25T08:56:25Z</time>
      </trkpt>
      <trkpt lat="48.57912" lon="2.0928">
        <ele>81.6</ele>
        <time>2025-10-25T08:56:27Z</time>
      </trkpt>
      <trkpt lat="48.5791" lon="2.09279">
        <ele>81.8</ele>
        <time>2025-10-25T08:56:29Z</time>
      </trkpt>
      <trkpt lat="48.57908" lon="2.09278">
        <ele>81.8</ele>
        <time>2025-10-25T08:56:31Z</time>
      </trkpt>
      <trkpt lat="48.57906" lon="2.09277">
        <ele>81.8</ele>
        <time>2025-10-25T08:56:33Z</time>
      </trkpt>
      <trkpt lat="48.57904" lon="2.09277">
        <ele>81.8</ele>
        <time>2025-10-25T08:56:35Z</time>
      </trkpt>
      <trkpt lat="48.57901" lon="2.09276">
        <ele>81.6</ele>
        <time>2025-10-25T08:56:37Z</time>
      </trkpt>
      <trkpt lat="48.57899" lon="2.09275">
        <ele>81.6</ele>
        <time>2025-10-25T08:56:39Z</time>
      </trkpt>
      <trkpt lat="48.57897" lon="2.09275">
        <ele>81.4</ele>
        <time>2025-10-25T08:56:41Z</time>
      </trkpt>
      <trkpt lat="48.57895" lon="2.09274">
        <ele>81.4</ele>
        <time>2025-10-25T08:56:43Z</time>
      </trkpt>
      <trkpt lat="48.57892" lon="2.09273">
        <ele>81.4</ele>
        <time>2025-10-25T08:56:45Z</time>
      </trkpt>
      <trkpt lat="48.5789" lon="2.09273">
        <ele>81.4</ele>
        <time>2025-10-25T08:56:47Z</time>
      </trkpt>
      <trkpt lat="48.57888" lon="2.09272">
        <ele>81.4</ele>
        <time>2025-10-25T08:56:49Z</time>
      </trkpt>
      <trkpt lat="48.57885" lon="2.09272">
        <ele>81.2</ele>
        <time>2025-10-25T08:56:51Z</time>
      </trkpt>
      <trkpt lat="48.57883" lon="2.09271">
        <ele>81.2</ele>
        <time>2025-10-25T08:56:53Z</time>
      </trkpt>
      <trkpt lat="48.57881" lon="2.09271">
        <ele>81.4</ele>
        <time>2025-10-25T08:56:55Z</time>
      </trkpt>
      <trkpt lat="48.57878" lon="2.09271">
        <ele>81.4</ele>
        <time>2025-10-25T08:56:57Z</time>
      </trkpt>
      <trkpt lat="48.57876" lon="2.0927">
        <ele>81.4</ele>
        <time>2025-10-25T08:56:59Z</time>
      </trkpt>
      <trkpt lat="48.57873" lon="2.0927">
        <ele>81.6</ele>
        <time>2025-10-25T08:57:01Z</time>
      </trkpt>
      <trkpt lat="48.5787" lon="2.09269">
        <ele>81.6</ele>
        <time>2025-10-25T08:57:03Z</time>
      </trkpt>
      <trkpt lat="48.57868" lon="2.09269">
        <ele>81.8</ele>
        <time>2025-10-25T08:57:05Z</time>
      </trkpt>
      <trkpt lat="48.57866" lon="2.09269">
        <ele>81.8</ele>
        <time>2025-10-25T08:57:07Z</time>
      </trkpt>
      <trkpt lat="48.57863" lon="2.09269">
        <ele>81.8</ele>
        <time>2025-10-25T08:57:09Z</time>
      </trkpt>
      <trkpt lat="48.5786" lon="2.09269">
        <ele>82</ele>
        <time>2025-10-25T08:57:11Z</time>
      </trkpt>
      <trkpt lat="48.57858" lon="2.09269">
        <ele>82.2</ele>
        <time>2025-10-25T08:57:13Z</time>
      </trkpt>
      <trkpt lat="48.57855" lon="2.09268">
        <ele>82.4</ele>
        <time>2025-10-25T08:57:15Z</time>
      </trkpt>
      <trkpt lat="48.57852" lon="2.09267">
        <ele>82.6</ele>
        <time>2025-10-25T08:57:17Z</time>
      </trkpt>
      <trkpt lat="48.5785" lon="2.09267">
        <ele>82.6</ele>
        <time>2025-10-25T08:57:19Z</time>
      </trkpt>
      <trkpt lat="48.57847" lon="2.09266">
        <ele>82.6</ele>
        <time>2025-10-25T08:57:21Z</time>
      </trkpt>
      <trkpt lat="48.57845" lon="2.09266">
        <ele>82.6</ele>
        <time>2025-10-25T08:57:23Z</time>
      </trkpt>
      <trkpt lat="48.57843" lon="2.09265">
        <ele>82.6</ele>
        <time>2025-10-25T08:57:25Z</time>
      </trkpt>
      <trkpt lat="48.57841" lon="2.09264">
        <ele>82.6</ele>
        <time>2025-10-25T08:57:27Z</time>
      </trkpt>
      <trkpt lat="48.57838" lon="2.09263">
        <ele>82.4</ele>
        <time>2025-10-25T08:57:29Z</time>
      </trkpt>
      <trkpt lat="48.57836" lon="2.09263">
        <ele>82.2</ele>
        <time>2025-10-25T08:57:31Z</time>
      </trkpt>
      <trkpt lat="48.57832" lon="2.09262">
        <ele>82.2</ele>
        <time>2025-10-25T08:57:33Z</time>
      </trkpt>
      <trkpt lat="48.5783" lon="2.09261">
        <ele>82</ele>
        <time>2025-10-25T08:57:35Z</time>
      </trkpt>
      <trkpt lat="48.57827" lon="2.0926">
        <ele>81.8</ele>
        <time>2025-10-25T08:57:37Z</time>
      </trkpt>
      <trkpt lat="48.57824" lon="2.0926">
        <ele>81.8</ele>
        <time>2025-10-25T08:57:39Z</time>
      </trkpt>
      <trkpt lat="48.57821" lon="2.09259">
        <ele>81.6</ele>
        <time>2025-10-25T08:57:41Z</time>
      </trkpt>
      <trkpt lat="48.57818" lon="2.09259">
        <ele>81.6</ele>
        <time>2025-10-25T08:57:43Z</time>
      </trkpt>
      <trkpt lat="48.57816" lon="2.09259">
        <ele>81.8</ele>
        <time>2025-10-25T08:57:45Z</time>
      </trkpt>
      <trkpt lat="48.57812" lon="2.09259">
        <ele>81.8</ele>
        <time>2025-10-25T08:57:47Z</time>
      </trkpt>
      <trkpt lat="48.5781" lon="2.09258">
        <ele>82</ele>
        <time>2025-10-25T08:57:49Z</time>
      </trkpt>
      <trkpt lat="48.57807" lon="2.09258">
        <ele>82</ele>
        <time>2025-10-25T08:57:51Z</time>
      </trkpt>
      <trkpt lat="48.57804" lon="2.09258">
        <ele>81.8</ele>
        <time>2025-10-25T08:57:53Z</time>
      </trkpt>
      <trkpt lat="48.57802" lon="2.09257">
        <ele>81.8</ele>
        <time>2025-10-25T08:57:55Z</time>
      </trkpt>
      <trkpt lat="48.578" lon="2.09257">
        <ele>81.8</ele>
        <time>2025-10-25T08:57:57Z</time>
      </trkpt>
      <trkpt lat="48.57797" lon="2.09256">
        <ele>81.6</ele>
        <time>2025-10-25T08:57:59Z</time>
      </trkpt>
      <trkpt lat="48.57794" lon="2.09256">
        <ele>81.8</ele>
        <time>2025-10-25T08:58:01Z</time>
      </trkpt>
      <trkpt lat="48.57791" lon="2.09255">
        <ele>82</ele>
        <time>2025-10-25T08:58:03Z</time>
      </trkpt>
      <trkpt lat="48.57788" lon="2.09255">
        <ele>82</ele>
        <time>2025-10-25T08:58:05Z</time>
      </trkpt>
      <trkpt lat="48.57786" lon="2.09254">
        <ele>82</ele>
        <time>2025-10-25T08:58:07Z</time>
      </trkpt>
      <trkpt lat="48.57783" lon="2.09253">
        <ele>82.2</ele>
        <time>2025-10-25T08:58:09Z</time>
      </trkpt>
      <trkpt lat="48.57781" lon="2.09252">
        <ele>82</ele>
        <time>2025-10-25T08:58:11Z</time>
      </trkpt>
      <trkpt lat="48.57778" lon="2.09251">
        <ele>82</ele>
        <time>2025-10-25T08:58:13Z</time>
      </trkpt>
      <trkpt lat="48.57775" lon="2.0925">
        <ele>81.8</ele>
        <time>2025-10-25T08:58:15Z</time>
      </trkpt>
      <trkpt lat="48.57772" lon="2.09249">
        <ele>81.8</ele>
        <time>2025-10-25T08:58:17Z</time>
      </trkpt>
      <trkpt lat="48.57769" lon="2.09249">
        <ele>81.6</ele>
        <time>2025-10-25T08:58:19Z</time>
      </trkpt>
      <trkpt lat="48.57767" lon="2.09249">
        <ele>81.6</ele>
        <time>2025-10-25T08:58:21Z</time>
      </trkpt>
      <trkpt lat="48.57764" lon="2.09249">
        <ele>81.4</ele>
        <time>2025-10-25T08:58:23Z</time>
      </trkpt>
      <trkpt lat="48.57761" lon="2.0925">
        <ele>81.2</ele>
        <time>2025-10-25T08:58:25Z</time>
      </trkpt>
      <trkpt lat="48.57757" lon="2.09251">
        <ele>81</ele>
        <time>2025-10-25T08:58:27Z</time>
      </trkpt>
      <trkpt lat="48.57755" lon="2.09252">
        <ele>81</ele>
        <time>2025-10-25T08:58:29Z</time>
      </trkpt>
      <trkpt lat="48.57753" lon="2.09252">
        <ele>81</ele>
        <time>2025-10-25T08:58:31Z</time>
      </trkpt>
      <trkpt lat="48.5775" lon="2.09252">
        <ele>81</ele>
        <time>2025-10-25T08:58:33Z</time>
      </trkpt>
      <trkpt lat="48.57747" lon="2.09252">
        <ele>81</ele>
        <time>2025-10-25T08:58:35Z</time>
      </trkpt>
      <trkpt lat="48.57745" lon="2.09252">
        <ele>80.8</ele>
        <time>2025-10-25T08:58:37Z</time>
      </trkpt>
      <trkpt lat="48.57743" lon="2.09252">
        <ele>80.8</ele>
        <time>2025-10-25T08:58:39Z</time>
      </trkpt>
      <trkpt lat="48.57741" lon="2.09252">
        <ele>80.8</ele>
        <time>2025-10-25T08:58:41Z</time>
      </trkpt>
      <trkpt lat="48.5774" lon="2.09252">
        <ele>81</ele>
        <time>2025-10-25T08:58:43Z</time>
      </trkpt>
      <trkpt lat="48.57737" lon="2.09252">
        <ele>81</ele>
        <time>2025-10-25T08:58:45Z</time>
      </trkpt>
      <trkpt lat="48.57734" lon="2.09252">
        <ele>80.8</ele>
        <time>2025-10-25T08:58:47Z</time>
      </trkpt>
      <trkpt lat="48.57731" lon="2.09253">
        <ele>80.8</ele>
        <time>2025-10-25T08:58:49Z</time>
      </trkpt>
      <trkpt lat="48.57728" lon="2.09254">
        <ele>80.8</ele>
        <time>2025-10-25T08:58:51Z</time>
      </trkpt>
      <trkpt lat="48.57725" lon="2.09254">
        <ele>80.8</ele>
        <time>2025-10-25T08:58:53Z</time>
      </trkpt>
      <trkpt lat="48.57723" lon="2.09255">
        <ele>80.8</ele>
        <time>2025-10-25T08:58:55Z</time>
      </trkpt>
      <trkpt lat="48.5772" lon="2.09256">
        <ele>80.8</ele>
        <time>2025-10-25T08:58:57Z</time>
      </trkpt>
      <trkpt lat="48.57717" lon="2.09257">
        <ele>80.8</ele>
        <time>2025-10-25T08:58:59Z</time>
      </trkpt>
      <trkpt lat="48.57715" lon="2.09258">
        <ele>80.6</ele>
        <time>2025-10-25T08:59:01Z</time>
      </trkpt>
      <trkpt lat="48.57711" lon="2.09258">
        <ele>80.6</ele>
        <time>2025-10-25T08:59:03Z</time>
      </trkpt>
      <trkpt lat="48.57708" lon="2.09259">
        <ele>80.6</ele>
        <time>2025-10-25T08:59:05Z</time>
      </trkpt>
      <trkpt lat="48.57706" lon="2.09259">
        <ele>80.6</ele>
        <time>2025-10-25T08:59:07Z</time>
      </trkpt>
      <trkpt lat="48.57703" lon="2.09259">
        <ele>80.6</ele>
        <time>2025-10-25T08:59:09Z</time>
      </trkpt>
      <trkpt lat="48.57701" lon="2.09259">
        <ele>80.6</ele>
        <time>2025-10-25T08:59:11Z</time>
      </trkpt>
      <trkpt lat="48.57698" lon="2.09259">
        <ele>80.6</ele>
        <time>2025-10-25T08:59:13Z</time>
      </trkpt>
      <trkpt lat="48.57696" lon="2.09259">
        <ele>80.6</ele>
        <time>2025-10-25T08:59:15Z</time>
      </trkpt>
      <trkpt lat="48.57694" lon="2.09258">
        <ele>80.6</ele>
        <time>2025-10-25T08:59:17Z</time>
      </trkpt>
      <trkpt lat="48.57692" lon="2.09258">
        <ele>80.4</ele>
        <time>2025-10-25T08:59:19Z</time>
      </trkpt>
      <trkpt lat="48.57689" lon="2.09257">
        <ele>80.4</ele>
        <time>2025-10-25T08:59:21Z</time>
      </trkpt>
      <trkpt lat="48.57686" lon="2.09258">
        <ele>80.4</ele>
        <time>2025-10-25T08:59:23Z</time>
      </trkpt>
      <trkpt lat="48.57684" lon="2.09258">
        <ele>80.4</ele>
        <time>2025-10-25T08:59:25Z</time>
      </trkpt>
      <trkpt lat="48.57681" lon="2.0926">
        <ele>80.4</ele>
        <time>2025-10-25T08:59:27Z</time>
      </trkpt>
      <trkpt lat="48.57679" lon="2.09261">
        <ele>80.2</ele>
        <time>2025-10-25T08:59:29Z</time>
      </trkpt>
      <trkpt lat="48.57677" lon="2.09263">
        <ele>80</ele>
        <time>2025-10-25T08:59:31Z</time>
      </trkpt>
      <trkpt lat="48.57675" lon="2.09263">
        <ele>80</ele>
        <time>2025-10-25T08:59:33Z</time>
      </trkpt>
      <trkpt lat="48.57673" lon="2.09264">
        <ele>80</ele>
        <time>2025-10-25T08:59:35Z</time>
      </trkpt>
      <trkpt lat="48.57671" lon="2.09265">
        <ele>80</ele>
        <time>2025-10-25T08:59:37Z</time>
      </trkpt>
      <trkpt lat="48.57669" lon="2.09267">
        <ele>79.8</ele>
        <time>2025-10-25T08:59:39Z</time>
      </trkpt>
      <trkpt lat="48.57667" lon="2.09268">
        <ele>79.8</ele>
        <time>2025-10-25T08:59:41Z</time>
      </trkpt>
      <trkpt lat="48.57665" lon="2.09269">
        <ele>79.8</ele>
        <time>2025-10-25T08:59:43Z</time>
      </trkpt>
      <trkpt lat="48.57662" lon="2.0927">
        <ele>79.8</ele>
        <time>2025-10-25T08:59:45Z</time>
      </trkpt>
      <trkpt lat="48.57659" lon="2.09271">
        <ele>79.6</ele>
        <time>2025-10-25T08:59:47Z</time>
      </trkpt>
      <trkpt lat="48.57656" lon="2.09272">
        <ele>79.6</ele>
        <time>2025-10-25T08:59:49Z</time>
      </trkpt>
      <trkpt lat="48.57654" lon="2.09274">
        <ele>79.6</ele>
        <time>2025-10-25T08:59:51Z</time>
      </trkpt>
      <trkpt lat="48.57652" lon="2.09275">
        <ele>79.6</ele>
        <time>2025-10-25T08:59:53Z</time>
      </trkpt>
      <trkpt lat="48.57649" lon="2.09277">
        <ele>79.8</ele>
        <time>2025-10-25T08:59:55Z</time>
      </trkpt>
      <trkpt lat="48.57646" lon="2.09279">
        <ele>79.8</ele>
        <time>2025-10-25T08:59:57Z</time>
      </trkpt>
      <trkpt lat="48.57644" lon="2.0928">
        <ele>79.8</ele>
        <time>2025-10-25T08:59:59Z</time>
      </trkpt>
      <trkpt lat="48.57642" lon="2.09281">
        <ele>79.8</ele>
        <time>2025-10-25T09:00:01Z</time>
      </trkpt>
      <trkpt lat="48.57639" lon="2.09282">
        <ele>79.8</ele>
        <time>2025-10-25T09:00:03Z</time>
      </trkpt>
      <trkpt lat="48.57637" lon="2.09283">
        <ele>79.6</ele>
        <time>2025-10-25T09:00:05Z</time>
      </trkpt>
      <trkpt lat="48.57634" lon="2.09284">
        <ele>79.4</ele>
        <time>2025-10-25T09:00:07Z</time>
      </trkpt>
      <trkpt lat="48.57632" lon="2.09285">
        <ele>79.2</ele>
        <time>2025-10-25T09:00:09Z</time>
      </trkpt>
      <trkpt lat="48.57628" lon="2.09286">
        <ele>79</ele>
        <time>2025-10-25T09:00:11Z</time>
      </trkpt>
      <trkpt lat="48.57626" lon="2.09287">
        <ele>78.8</ele>
        <time>2025-10-25T09:00:13Z</time>
      </trkpt>
      <trkpt lat="48.57624" lon="2.09288">
        <ele>78.6</ele>
        <time>2025-10-25T09:00:15Z</time>
      </trkpt>
      <trkpt lat="48.57621" lon="2.09289">
        <ele>78.4</ele>
        <time>2025-10-25T09:00:17Z</time>
      </trkpt>
      <trkpt lat="48.57619" lon="2.0929">
        <ele>78.2</ele>
        <time>2025-10-25T09:00:19Z</time>
      </trkpt>
      <trkpt lat="48.57616" lon="2.09292">
        <ele>77.8</ele>
        <time>2025-10-25T09:00:21Z</time>
      </trkpt>
      <trkpt lat="48.57613" lon="2.09293">
        <ele>77.6</ele>
        <time>2025-10-25T09:00:23Z</time>
      </trkpt>
      <trkpt lat="48.5761" lon="2.09294">
        <ele>77.4</ele>
        <time>2025-10-25T09:00:25Z</time>
      </trkpt>
      <trkpt lat="48.57608" lon="2.09296">
        <ele>77.2</ele>
        <time>2025-10-25T09:00:27Z</time>
      </trkpt>
      <trkpt lat="48.57605" lon="2.09297">
        <ele>77</ele>
        <time>2025-10-25T09:00:29Z</time>
      </trkpt>
      <trkpt lat="48.57604" lon="2.09298">
        <ele>76.6</ele>
        <time>2025-10-25T09:00:31Z</time>
      </trkpt>
      <trkpt lat="48.57601" lon="2.09299">
        <ele>76.4</ele>
        <time>2025-10-25T09:00:33Z</time>
      </trkpt>
      <trkpt lat="48.57598" lon="2.093">
        <ele>76.4</ele>
        <time>2025-10-25T09:00:35Z</time>
      </trkpt>
      <trkpt lat="48.57596" lon="2.09301">
        <ele>76.2</ele>
        <time>2025-10-25T09:00:37Z</time>
      </trkpt>
      <trkpt lat="48.57593" lon="2.09302">
        <ele>76.2</ele>
        <time>2025-10-25T09:00:39Z</time>
      </trkpt>
      <trkpt lat="48.5759" lon="2.09304">
        <ele>76.2</ele>
        <time>2025-10-25T09:00:41Z</time>
      </trkpt>
      <trkpt lat="48.57588" lon="2.09305">
        <ele>76</ele>
        <time>2025-10-25T09:00:43Z</time>
      </trkpt>
      <trkpt lat="48.57586" lon="2.09306">
        <ele>75.8</ele>
        <time>2025-10-25T09:00:45Z</time>
      </trkpt>
      <trkpt lat="48.57584" lon="2.09307">
        <ele>75.4</ele>
        <time>2025-10-25T09:00:48Z</time>
      </trkpt>
      <trkpt lat="48.57582" lon="2.09308">
        <ele>75.2</ele>
        <time>2025-10-25T09:00:50Z</time>
      </trkpt>
      <trkpt lat="48.5758" lon="2.09309">
        <ele>74.8</ele>
        <time>2025-10-25T09:00:52Z</time>
      </trkpt>
      <trkpt lat="48.57577" lon="2.09311">
        <ele>74.6</ele>
        <time>2025-10-25T09:00:54Z</time>
      </trkpt>
      <trkpt lat="48.57574" lon="2.09312">
        <ele>74.4</ele>
        <time>2025-10-25T09:00:56Z</time>
      </trkpt>
      <trkpt lat="48.57572" lon="2.09313">
        <ele>74</ele>
        <time>2025-10-25T09:00:58Z</time>
      </trkpt>
      <trkpt lat="48.5757" lon="2.09315">
        <ele>73.8</ele>
        <time>2025-10-25T09:01:00Z</time>
      </trkpt>
      <trkpt lat="48.57568" lon="2.09316">
        <ele>73.6</ele>
        <time>2025-10-25T09:01:02Z</time>
      </trkpt>
      <trkpt lat="48.57565" lon="2.09318">
        <ele>73.4</ele>
        <time>2025-10-25T09:01:04Z</time>
      </trkpt>
      <trkpt lat="48.57563" lon="2.09319">
        <ele>73</ele>
        <time>2025-10-25T09:01:06Z</time>
      </trkpt>
      <trkpt lat="48.57561" lon="2.0932">
        <ele>72.8</ele>
        <time>2025-10-25T09:01:08Z</time>
      </trkpt>
      <trkpt lat="48.57558" lon="2.09321">
        <ele>72.6</ele>
        <time>2025-10-25T09:01:10Z</time>
      </trkpt>
      <trkpt lat="48.57556" lon="2.09321">
        <ele>72.4</ele>
        <time>2025-10-25T09:01:12Z</time>
      </trkpt>
      <trkpt lat="48.57553" lon="2.09323">
        <ele>72.2</ele>
        <time>2025-10-25T09:01:14Z</time>
      </trkpt>
      <trkpt lat="48.5755" lon="2.09324">
        <ele>72</ele>
        <time>2025-10-25T09:01:16Z</time>
      </trkpt>
      <trkpt lat="48.57548" lon="2.09326">
        <ele>71.8</ele>
        <time>2025-10-25T09:01:18Z</time>
      </trkpt>
      <trkpt lat="48.57545" lon="2.09328">
        <ele>71.8</ele>
        <time>2025-10-25T09:01:20Z</time>
      </trkpt>
      <trkpt lat="48.57542" lon="2.0933">
        <ele>71.6</ele>
        <time>2025-10-25T09:01:22Z</time>
      </trkpt>
      <trkpt lat="48.5754" lon="2.09332">
        <ele>71.6</ele>
        <time>2025-10-25T09:01:24Z</time>
      </trkpt>
      <trkpt lat="48.57537" lon="2.09334">
        <ele>71.6</ele>
        <time>2025-10-25T09:01:26Z</time>
      </trkpt>
      <trkpt lat="48.57534" lon="2.09335">
        <ele>71.6</ele>
        <time>2025-10-25T09:01:28Z</time>
      </trkpt>
      <trkpt lat="48.57532" lon="2.09337">
        <ele>71.6</ele>
        <time>2025-10-25T09:01:30Z</time>
      </trkpt>
      <trkpt lat="48.5753" lon="2.09339">
        <ele>71.6</ele>
        <time>2025-10-25T09:01:32Z</time>
      </trkpt>
      <trkpt lat="48.57527" lon="2.09341">
        <ele>71.4</ele>
        <time>2025-10-25T09:01:34Z</time>
      </trkpt>
      <trkpt lat="48.57524" lon="2.09343">
        <ele>71.4</ele>
        <time>2025-10-25T09:01:36Z</time>
      </trkpt>
      <trkpt lat="48.57522" lon="2.09345">
        <ele>71.2</ele>
        <time>2025-10-25T09:01:38Z</time>
      </trkpt>
      <trkpt lat="48.5752" lon="2.09347">
        <ele>71.2</ele>
        <time>2025-10-25T09:01:40Z</time>
      </trkpt>
      <trkpt lat="48.57516" lon="2.09349">
        <ele>71</ele>
        <time>2025-10-25T09:01:42Z</time>
      </trkpt>
      <trkpt lat="48.57513" lon="2.09351">
        <ele>71</ele>
        <time>2025-10-25T09:01:44Z</time>
      </trkpt>
      <trkpt lat="48.5751" lon="2.09352">
        <ele>70.8</ele>
        <time>2025-10-25T09:01:46Z</time>
      </trkpt>
      <trkpt lat="48.57507" lon="2.09353">
        <ele>70.6</ele>
        <time>2025-10-25T09:01:48Z</time>
      </trkpt>
      <trkpt lat="48.57505" lon="2.09354">
        <ele>70.6</ele>
        <time>2025-10-25T09:01:50Z</time>
      </trkpt>
      <trkpt lat="48.57502" lon="2.09356">
        <ele>70.4</ele>
        <time>2025-10-25T09:01:52Z</time>
      </trkpt>
      <trkpt lat="48.57499" lon="2.09357">
        <ele>70</ele>
        <time>2025-10-25T09:01:54Z</time>
      </trkpt>
      <trkpt lat="48.57497" lon="2.09358">
        <ele>69.8</ele>
        <time>2025-10-25T09:01:56Z</time>
      </trkpt>
      <trkpt lat="48.57494" lon="2.0936">
        <ele>69.6</ele>
        <time>2025-10-25T09:01:58Z</time>
      </trkpt>
      <trkpt lat="48.57492" lon="2.09361">
        <ele>69.2</ele>
        <time>2025-10-25T09:02:00Z</time>
      </trkpt>
      <trkpt lat="48.57489" lon="2.09363">
        <ele>68.8</ele>
        <time>2025-10-25T09:02:02Z</time>
      </trkpt>
      <trkpt lat="48.57486" lon="2.09363">
        <ele>68.6</ele>
        <time>2025-10-25T09:02:04Z</time>
      </trkpt>
      <trkpt lat="48.57484" lon="2.09364">
        <ele>68.4</ele>
        <time>2025-10-25T09:02:06Z</time>
      </trkpt>
      <trkpt lat="48.57481" lon="2.09365">
        <ele>68</ele>
        <time>2025-10-25T09:02:08Z</time>
      </trkpt>
      <trkpt lat="48.57477" lon="2.09366">
        <ele>67.8</ele>
        <time>2025-10-25T09:02:10Z</time>
      </trkpt>
      <trkpt lat="48.57474" lon="2.09366">
        <ele>67.6</ele>
        <time>2025-10-25T09:02:12Z</time>
      </trkpt>
      <trkpt lat="48.57471" lon="2.09366">
        <ele>67.2</ele>
        <time>2025-10-25T09:02:14Z</time>
      </trkpt>
      <trkpt lat="48.57468" lon="2.09366">
        <ele>67</ele>
        <time>2025-10-25T09:02:16Z</time>
      </trkpt>
      <trkpt lat="48.57466" lon="2.09367">
        <ele>67</ele>
        <time>2025-10-25T09:02:18Z</time>
      </trkpt>
      <trkpt lat="48.57464" lon="2.09367">
        <ele>67</ele>
        <time>2025-10-25T09:02:20Z</time>
      </trkpt>
      <trkpt lat="48.57461" lon="2.09369">
        <ele>67.4</ele>
        <time>2025-10-25T09:02:23Z</time>
      </trkpt>
      <trkpt lat="48.5746" lon="2.0937">
        <ele>67.6</ele>
        <time>2025-10-25T09:02:25Z</time>
      </trkpt>
      <trkpt lat="48.57458" lon="2.09371">
        <ele>67.6</ele>
        <time>2025-10-25T09:02:27Z</time>
      </trkpt>
      <trkpt lat="48.57456" lon="2.09371">
        <ele>67.8</ele>
        <time>2025-10-25T09:02:29Z</time>
      </trkpt>
      <trkpt lat="48.57453" lon="2.09369">
        <ele>68</ele>
        <time>2025-10-25T09:02:31Z</time>
      </trkpt>
      <trkpt lat="48.57451" lon="2.09367">
        <ele>68</ele>
        <time>2025-10-25T09:02:33Z</time>
      </trkpt>
      <trkpt lat="48.57448" lon="2.09364">
        <ele>68.2</ele>
        <time>2025-10-25T09:02:35Z</time>
      </trkpt>
      <trkpt lat="48.57447" lon="2.09363">
        <ele>68.4</ele>
        <time>2025-10-25T09:02:36Z</time>
      </trkpt>
      <trkpt lat="48.57444" lon="2.0936">
        <ele>68.4</ele>
        <time>2025-10-25T09:02:38Z</time>
      </trkpt>
      <trkpt lat="48.57441" lon="2.09357">
        <ele>68.6</ele>
        <time>2025-10-25T09:02:40Z</time>
      </trkpt>
      <trkpt lat="48.57439" lon="2.09356">
        <ele>68.6</ele>
        <time>2025-10-25T09:02:42Z</time>
      </trkpt>
      <trkpt lat="48.57437" lon="2.09355">
        <ele>68.6</ele>
        <time>2025-10-25T09:02:44Z</time>
      </trkpt>
      <trkpt lat="48.57435" lon="2.09354">
        <ele>68.8</ele>
        <time>2025-10-25T09:02:46Z</time>
      </trkpt>
      <trkpt lat="48.57433" lon="2.09353">
        <ele>68.8</ele>
        <time>2025-10-25T09:02:48Z</time>
      </trkpt>
      <trkpt lat="48.57431" lon="2.09351">
        <ele>68.8</ele>
        <time>2025-10-25T09:02:50Z</time>
      </trkpt>
      <trkpt lat="48.57428" lon="2.09349">
        <ele>68.8</ele>
        <time>2025-10-25T09:02:52Z</time>
      </trkpt>
      <trkpt lat="48.57426" lon="2.09348">
        <ele>68.8</ele>
        <time>2025-10-25T09:02:54Z</time>
      </trkpt>
      <trkpt lat="48.57423" lon="2.09346">
        <ele>68.6</ele>
        <time>2025-10-25T09:02:56Z</time>
      </trkpt>
      <trkpt lat="48.57421" lon="2.09344">
        <ele>68.2</ele>
        <time>2025-10-25T09:02:58Z</time>
      </trkpt>
      <trkpt lat="48.57418" lon="2.09343">
        <ele>68.2</ele>
        <time>2025-10-25T09:03:00Z</time>
      </trkpt>
      <trkpt lat="48.57415" lon="2.09341">
        <ele>68</ele>
        <time>2025-10-25T09:03:02Z</time>
      </trkpt>
      <trkpt lat="48.57413" lon="2.09339">
        <ele>68</ele>
        <time>2025-10-25T09:03:04Z</time>
      </trkpt>
      <trkpt lat="48.5741" lon="2.09338">
        <ele>67.8</ele>
        <time>2025-10-25T09:03:06Z</time>
      </trkpt>
      <trkpt lat="48.57407" lon="2.09337">
        <ele>67.6</ele>
        <time>2025-10-25T09:03:08Z</time>
      </trkpt>
      <trkpt lat="48.57403" lon="2.09337">
        <ele>67.6</ele>
        <time>2025-10-25T09:03:10Z</time>
      </trkpt>
      <trkpt lat="48.574" lon="2.09336">
        <ele>67.4</ele>
        <time>2025-10-25T09:03:12Z</time>
      </trkpt>
      <trkpt lat="48.57397" lon="2.09335">
        <ele>67.2</ele>
        <time>2025-10-25T09:03:14Z</time>
      </trkpt>
      <trkpt lat="48.57395" lon="2.09333">
        <ele>67</ele>
        <time>2025-10-25T09:03:16Z</time>
      </trkpt>
      <trkpt lat="48.57393" lon="2.0933">
        <ele>67</ele>
        <time>2025-10-25T09:03:18Z</time>
      </trkpt>
      <trkpt lat="48.57389" lon="2.09328">
        <ele>66.6</ele>
        <time>2025-10-25T09:03:20Z</time>
      </trkpt>
      <trkpt lat="48.57387" lon="2.09325">
        <ele>66.4</ele>
        <time>2025-10-25T09:03:22Z</time>
      </trkpt>
      <trkpt lat="48.57384" lon="2.09323">
        <ele>66.4</ele>
        <time>2025-10-25T09:03:24Z</time>
      </trkpt>
      <trkpt lat="48.57382" lon="2.09321">
        <ele>66.2</ele>
        <time>2025-10-25T09:03:26Z</time>
      </trkpt>
      <trkpt lat="48.5738" lon="2.09319">
        <ele>66</ele>
        <time>2025-10-25T09:03:28Z</time>
      </trkpt>
      <trkpt lat="48.57378" lon="2.09316">
        <ele>65.8</ele>
        <time>2025-10-25T09:03:30Z</time>
      </trkpt>
      <trkpt lat="48.57376" lon="2.09314">
        <ele>65.6</ele>
        <time>2025-10-25T09:03:32Z</time>
      </trkpt>
      <trkpt lat="48.57373" lon="2.09312">
        <ele>65.6</ele>
        <time>2025-10-25T09:03:34Z</time>
      </trkpt>
      <trkpt lat="48.57371" lon="2.0931">
        <ele>65.6</ele>
        <time>2025-10-25T09:03:36Z</time>
      </trkpt>
      <trkpt lat="48.57368" lon="2.09309">
        <ele>65.6</ele>
        <time>2025-10-25T09:03:38Z</time>
      </trkpt>
      <trkpt lat="48.57366" lon="2.09307">
        <ele>65.6</ele>
        <time>2025-10-25T09:03:40Z</time>
      </trkpt>
      <trkpt lat="48.57364" lon="2.09305">
        <ele>65.6</ele>
        <time>2025-10-25T09:03:42Z</time>
      </trkpt>
      <trkpt lat="48.57361" lon="2.09304">
        <ele>65.4</ele>
        <time>2025-10-25T09:03:44Z</time>
      </trkpt>
      <trkpt lat="48.57358" lon="2.09302">
        <ele>65.4</ele>
        <time>2025-10-25T09:03:46Z</time>
      </trkpt>
      <trkpt lat="48.57356" lon="2.09301">
        <ele>65.4</ele>
        <time>2025-10-25T09:03:48Z</time>
      </trkpt>
      <trkpt lat="48.57353" lon="2.093">
        <ele>65.2</ele>
        <time>2025-10-25T09:03:50Z</time>
      </trkpt>
      <trkpt lat="48.57351" lon="2.09299">
        <ele>65.2</ele>
        <time>2025-10-25T09:03:52Z</time>
      </trkpt>
      <trkpt lat="48.57348" lon="2.09298">
        <ele>65.4</ele>
        <time>2025-10-25T09:03:54Z</time>
      </trkpt>
      <trkpt lat="48.57346" lon="2.09298">
        <ele>65.6</ele>
        <time>2025-10-25T09:03:56Z</time>
      </trkpt>
      <trkpt lat="48.57343" lon="2.09296">
        <ele>66</ele>
        <time>2025-10-25T09:03:58Z</time>
      </trkpt>
      <trkpt lat="48.5734" lon="2.09294">
        <ele>66</ele>
        <time>2025-10-25T09:04:00Z</time>
      </trkpt>
      <trkpt lat="48.57338" lon="2.09292">
        <ele>66.2</ele>
        <time>2025-10-25T09:04:02Z</time>
      </trkpt>
      <trkpt lat="48.57336" lon="2.0929">
        <ele>66.2</ele>
        <time>2025-10-25T09:04:04Z</time>
      </trkpt>
      <trkpt lat="48.57334" lon="2.09289">
        <ele>66.4</ele>
        <time>2025-10-25T09:04:06Z</time>
      </trkpt>
      <trkpt lat="48.57332" lon="2.09287">
        <ele>66.4</ele>
        <time>2025-10-25T09:04:08Z</time>
      </trkpt>
      <trkpt lat="48.57329" lon="2.09286">
        <ele>66.4</ele>
        <time>2025-10-25T09:04:10Z</time>
      </trkpt>
      <trkpt lat="48.57326" lon="2.09285">
        <ele>66.4</ele>
        <time>2025-10-25T09:04:12Z</time>
      </trkpt>
      <trkpt lat="48.57324" lon="2.09284">
        <ele>66.4</ele>
        <time>2025-10-25T09:04:14Z</time>
      </trkpt>
      <trkpt lat="48.57321" lon="2.09283">
        <ele>66.4</ele>
        <time>2025-10-25T09:04:16Z</time>
      </trkpt>
      <trkpt lat="48.57319" lon="2.09281">
        <ele>66.4</ele>
        <time>2025-10-25T09:04:18Z</time>
      </trkpt>
      <trkpt lat="48.57316" lon="2.09279">
        <ele>66.6</ele>
        <time>2025-10-25T09:04:20Z</time>
      </trkpt>
      <trkpt lat="48.57314" lon="2.09278">
        <ele>66.6</ele>
        <time>2025-10-25T09:04:22Z</time>
      </trkpt>
      <trkpt lat="48.57312" lon="2.09276">
        <ele>66.6</ele>
        <time>2025-10-25T09:04:24Z</time>
      </trkpt>
      <trkpt lat="48.57309" lon="2.09276">
        <ele>66.6</ele>
        <time>2025-10-25T09:04:26Z</time>
      </trkpt>
      <trkpt lat="48.57306" lon="2.09275">
        <ele>66.8</ele>
        <time>2025-10-25T09:04:28Z</time>
      </trkpt>
      <trkpt lat="48.57304" lon="2.09274">
        <ele>66.6</ele>
        <time>2025-10-25T09:04:30Z</time>
      </trkpt>
      <trkpt lat="48.57301" lon="2.09273">
        <ele>66.6</ele>
        <time>2025-10-25T09:04:32Z</time>
      </trkpt>
      <trkpt lat="48.57299" lon="2.09271">
        <ele>66.6</ele>
        <time>2025-10-25T09:04:34Z</time>
      </trkpt>
      <trkpt lat="48.57297" lon="2.09269">
        <ele>66.6</ele>
        <time>2025-10-25T09:04:36Z</time>
      </trkpt>
      <trkpt lat="48.57294" lon="2.09266">
        <ele>66.4</ele>
        <time>2025-10-25T09:04:38Z</time>
      </trkpt>
      <trkpt lat="48.57292" lon="2.09264">
        <ele>66.4</ele>
        <time>2025-10-25T09:04:40Z</time>
      </trkpt>
      <trkpt lat="48.5729" lon="2.09261">
        <ele>66.2</ele>
        <time>2025-10-25T09:04:42Z</time>
      </trkpt>
      <trkpt lat="48.57288" lon="2.09259">
        <ele>66.4</ele>
        <time>2025-10-25T09:04:44Z</time>
      </trkpt>
      <trkpt lat="48.57286" lon="2.09257">
        <ele>66.4</ele>
        <time>2025-10-25T09:04:46Z</time>
      </trkpt>
      <trkpt lat="48.57284" lon="2.09255">
        <ele>66.4</ele>
        <time>2025-10-25T09:04:48Z</time>
      </trkpt>
      <trkpt lat="48.57281" lon="2.09254">
        <ele>66.4</ele>
        <time>2025-10-25T09:04:50Z</time>
      </trkpt>
      <trkpt lat="48.57279" lon="2.09252">
        <ele>66.4</ele>
        <time>2025-10-25T09:04:52Z</time>
      </trkpt>
      <trkpt lat="48.57276" lon="2.0925">
        <ele>66.2</ele>
        <time>2025-10-25T09:04:54Z</time>
      </trkpt>
      <trkpt lat="48.57274" lon="2.09248">
        <ele>66.2</ele>
        <time>2025-10-25T09:04:56Z</time>
      </trkpt>
      <trkpt lat="48.57272" lon="2.09247">
        <ele>66.2</ele>
        <time>2025-10-25T09:04:58Z</time>
      </trkpt>
      <trkpt lat="48.57269" lon="2.09246">
        <ele>66.2</ele>
        <time>2025-10-25T09:05:00Z</time>
      </trkpt>
      <trkpt lat="48.57267" lon="2.09244">
        <ele>66.2</ele>
        <time>2025-10-25T09:05:02Z</time>
      </trkpt>
      <trkpt lat="48.57265" lon="2.09242">
        <ele>66</ele>
        <time>2025-10-25T09:05:04Z</time>
      </trkpt>
      <trkpt lat="48.57262" lon="2.0924">
        <ele>65.6</ele>
        <time>2025-10-25T09:05:06Z</time>
      </trkpt>
      <trkpt lat="48.5726" lon="2.09238">
        <ele>65.4</ele>
        <time>2025-10-25T09:05:08Z</time>
      </trkpt>
      <trkpt lat="48.57257" lon="2.09235">
        <ele>65.2</ele>
        <time>2025-10-25T09:05:10Z</time>
      </trkpt>
      <trkpt lat="48.57254" lon="2.09233">
        <ele>65</ele>
        <time>2025-10-25T09:05:12Z</time>
      </trkpt>
      <trkpt lat="48.57252" lon="2.09231">
        <ele>65</ele>
        <time>2025-10-25T09:05:14Z</time>
      </trkpt>
      <trkpt lat="48.5725" lon="2.09228">
        <ele>64.8</ele>
        <time>2025-10-25T09:05:16Z</time>
      </trkpt>
      <trkpt lat="48.57247" lon="2.09226">
        <ele>64.6</ele>
        <time>2025-10-25T09:05:18Z</time>
      </trkpt>
      <trkpt lat="48.57245" lon="2.09223">
        <ele>64.6</ele>
        <time>2025-10-25T09:05:20Z</time>
      </trkpt>
      <trkpt lat="48.57243" lon="2.0922">
        <ele>64.8</ele>
        <time>2025-10-25T09:05:22Z</time>
      </trkpt>
      <trkpt lat="48.5724" lon="2.09217">
        <ele>65</ele>
        <time>2025-10-25T09:05:24Z</time>
      </trkpt>
      <trkpt lat="48.57238" lon="2.09214">
        <ele>65.2</ele>
        <time>2025-10-25T09:05:26Z</time>
      </trkpt>
      <trkpt lat="48.57235" lon="2.09211">
        <ele>65.4</ele>
        <time>2025-10-25T09:05:28Z</time>
      </trkpt>
      <trkpt lat="48.57233" lon="2.09208">
        <ele>65.6</ele>
        <time>2025-10-25T09:05:30Z</time>
      </trkpt>
      <trkpt lat="48.57231" lon="2.09205">
        <ele>65.6</ele>
        <time>2025-10-25T09:05:32Z</time>
      </trkpt>
      <trkpt lat="48.57229" lon="2.09202">
        <ele>65.6</ele>
        <time>2025-10-25T09:05:34Z</time>
      </trkpt>
      <trkpt lat="48.57227" lon="2.09198">
        <ele>65.6</ele>
        <time>2025-10-25T09:05:36Z</time>
      </trkpt>
      <trkpt lat="48.57225" lon="2.09195">
        <ele>65.4</ele>
        <time>2025-10-25T09:05:38Z</time>
      </trkpt>
      <trkpt lat="48.57223" lon="2.09192">
        <ele>65.4</ele>
        <time>2025-10-25T09:05:40Z</time>
      </trkpt>
      <trkpt lat="48.5722" lon="2.09189">
        <ele>65.4</ele>
        <time>2025-10-25T09:05:42Z</time>
      </trkpt>
      <trkpt lat="48.57219" lon="2.09186">
        <ele>65.2</ele>
        <time>2025-10-25T09:05:44Z</time>
      </trkpt>
      <trkpt lat="48.57216" lon="2.09183">
        <ele>65</ele>
        <time>2025-10-25T09:05:46Z</time>
      </trkpt>
      <trkpt lat="48.57214" lon="2.0918">
        <ele>65.2</ele>
        <time>2025-10-25T09:05:48Z</time>
      </trkpt>
      <trkpt lat="48.57212" lon="2.09177">
        <ele>65.4</ele>
        <time>2025-10-25T09:05:50Z</time>
      </trkpt>
      <trkpt lat="48.5721" lon="2.09174">
        <ele>65.6</ele>
        <time>2025-10-25T09:05:52Z</time>
      </trkpt>
      <trkpt lat="48.57207" lon="2.09173">
        <ele>65.6</ele>
        <time>2025-10-25T09:05:54Z</time>
      </trkpt>
      <trkpt lat="48.57205" lon="2.09173">
        <ele>65.8</ele>
        <time>2025-10-25T09:05:56Z</time>
      </trkpt>
      <trkpt lat="48.57203" lon="2.09176">
        <ele>66</ele>
        <time>2025-10-25T09:05:58Z</time>
      </trkpt>
      <trkpt lat="48.57202" lon="2.09179">
        <ele>66.2</ele>
        <time>2025-10-25T09:06:00Z</time>
      </trkpt>
      <trkpt lat="48.57201" lon="2.09183">
        <ele>66.4</ele>
        <time>2025-10-25T09:06:02Z</time>
      </trkpt>
      <trkpt lat="48.572" lon="2.09188">
        <ele>66.6</ele>
        <time>2025-10-25T09:06:04Z</time>
      </trkpt>
      <trkpt lat="48.572" lon="2.09191">
        <ele>66.6</ele>
        <time>2025-10-25T09:06:06Z</time>
      </trkpt>
      <trkpt lat="48.57199" lon="2.09195">
        <ele>66.6</ele>
        <time>2025-10-25T09:06:08Z</time>
      </trkpt>
      <trkpt lat="48.57199" lon="2.09199">
        <ele>66.6</ele>
        <time>2025-10-25T09:06:10Z</time>
      </trkpt>
      <trkpt lat="48.57199" lon="2.09203">
        <ele>66.8</ele>
        <time>2025-10-25T09:06:12Z</time>
      </trkpt>
      <trkpt lat="48.57198" lon="2.09206">
        <ele>67</ele>
        <time>2025-10-25T09:06:14Z</time>
      </trkpt>
      <trkpt lat="48.57198" lon="2.0921">
        <ele>67.2</ele>
        <time>2025-10-25T09:06:16Z</time>
      </trkpt>
      <trkpt lat="48.57198" lon="2.09214">
        <ele>67.2</ele>
        <time>2025-10-25T09:06:18Z</time>
      </trkpt>
      <trkpt lat="48.57198" lon="2.09219">
        <ele>67.4</ele>
        <time>2025-10-25T09:06:20Z</time>
      </trkpt>
      <trkpt lat="48.57198" lon="2.09223">
        <ele>67.6</ele>
        <time>2025-10-25T09:06:22Z</time>
      </trkpt>
      <trkpt lat="48.57197" lon="2.09227">
        <ele>67.6</ele>
        <time>2025-10-25T09:06:24Z</time>
      </trkpt>
      <trkpt lat="48.57197" lon="2.09231">
        <ele>67.8</ele>
        <time>2025-10-25T09:06:26Z</time>
      </trkpt>
      <trkpt lat="48.57197" lon="2.09235">
        <ele>68</ele>
        <time>2025-10-25T09:06:28Z</time>
      </trkpt>
      <trkpt lat="48.57196" lon="2.09239">
        <ele>68.2</ele>
        <time>2025-10-25T09:06:30Z</time>
      </trkpt>
      <trkpt lat="48.57196" lon="2.09244">
        <ele>68.4</ele>
        <time>2025-10-25T09:06:32Z</time>
      </trkpt>
      <trkpt lat="48.57195" lon="2.09249">
        <ele>68.6</ele>
        <time>2025-10-25T09:06:34Z</time>
      </trkpt>
      <trkpt lat="48.57195" lon="2.09252">
        <ele>68.6</ele>
        <time>2025-10-25T09:06:35Z</time>
      </trkpt>
      <trkpt lat="48.57194" lon="2.09257">
        <ele>68.6</ele>
        <time>2025-10-25T09:06:37Z</time>
      </trkpt>
      <trkpt lat="48.57193" lon="2.09261">
        <ele>68.6</ele>
        <time>2025-10-25T09:06:39Z</time>
      </trkpt>
      <trkpt lat="48.57192" lon="2.09265">
        <ele>68.8</ele>
        <time>2025-10-25T09:06:41Z</time>
      </trkpt>
      <trkpt lat="48.57191" lon="2.09269">
        <ele>68.8</ele>
        <time>2025-10-25T09:06:43Z</time>
      </trkpt>
      <trkpt lat="48.5719" lon="2.09273">
        <ele>69</ele>
        <time>2025-10-25T09:06:45Z</time>
      </trkpt>
      <trkpt lat="48.57189" lon="2.09276">
        <ele>69.2</ele>
        <time>2025-10-25T09:06:47Z</time>
      </trkpt>
      <trkpt lat="48.57188" lon="2.0928">
        <ele>69.4</ele>
        <time>2025-10-25T09:06:49Z</time>
      </trkpt>
      <trkpt lat="48.57187" lon="2.09284">
        <ele>69.6</ele>
        <time>2025-10-25T09:06:51Z</time>
      </trkpt>
      <trkpt lat="48.57186" lon="2.09288">
        <ele>69.8</ele>
        <time>2025-10-25T09:06:53Z</time>
      </trkpt>
      <trkpt lat="48.57185" lon="2.09292">
        <ele>70.2</ele>
        <time>2025-10-25T09:06:55Z</time>
      </trkpt>
      <trkpt lat="48.57184" lon="2.09295">
        <ele>70.6</ele>
        <time>2025-10-25T09:06:57Z</time>
      </trkpt>
      <trkpt lat="48.57182" lon="2.09299">
        <ele>71</ele>
        <time>2025-10-25T09:06:59Z</time>
      </trkpt>
      <trkpt lat="48.5718" lon="2.09301">
        <ele>71.4</ele>
        <time>2025-10-25T09:07:01Z</time>
      </trkpt>
      <trkpt lat="48.57177" lon="2.09303">
        <ele>72</ele>
        <time>2025-10-25T09:07:03Z</time>
      </trkpt>
      <trkpt lat="48.57175" lon="2.09304">
        <ele>72.4</ele>
        <time>2025-10-25T09:07:05Z</time>
      </trkpt>
      <trkpt lat="48.57172" lon="2.09304">
        <ele>72.6</ele>
        <time>2025-10-25T09:07:07Z</time>
      </trkpt>
      <trkpt lat="48.57169" lon="2.09305">
        <ele>72.8</ele>
        <time>2025-10-25T09:07:09Z</time>
      </trkpt>
      <trkpt lat="48.57167" lon="2.09305">
        <ele>73</ele>
        <time>2025-10-25T09:07:11Z</time>
      </trkpt>
      <trkpt lat="48.57164" lon="2.09304">
        <ele>73.2</ele>
        <time>2025-10-25T09:07:13Z</time>
      </trkpt>
      <trkpt lat="48.57161" lon="2.09303">
        <ele>73</ele>
        <time>2025-10-25T09:07:15Z</time>
      </trkpt>
      <trkpt lat="48.57158" lon="2.09302">
        <ele>73</ele>
        <time>2025-10-25T09:07:17Z</time>
      </trkpt>
      <trkpt lat="48.57155" lon="2.09301">
        <ele>73</ele>
        <time>2025-10-25T09:07:19Z</time>
      </trkpt>
      <trkpt lat="48.57152" lon="2.09301">
        <ele>73.2</ele>
        <time>2025-10-25T09:07:21Z</time>
      </trkpt>
      <trkpt lat="48.5715" lon="2.093">
        <ele>73.2</ele>
        <time>2025-10-25T09:07:23Z</time>
      </trkpt>
      <trkpt lat="48.57148" lon="2.09299">
        <ele>73.2</ele>
        <time>2025-10-25T09:07:25Z</time>
      </trkpt>
      <trkpt lat="48.57146" lon="2.09299">
        <ele>73.4</ele>
        <time>2025-10-25T09:07:27Z</time>
      </trkpt>
      <trkpt lat="48.57143" lon="2.09299">
        <ele>73.8</ele>
        <time>2025-10-25T09:07:29Z</time>
      </trkpt>
      <trkpt lat="48.57141" lon="2.09299">
        <ele>74</ele>
        <time>2025-10-25T09:07:31Z</time>
      </trkpt>
      <trkpt lat="48.57139" lon="2.09298">
        <ele>74</ele>
        <time>2025-10-25T09:07:33Z</time>
      </trkpt>
      <trkpt lat="48.57136" lon="2.09298">
        <ele>74.2</ele>
        <time>2025-10-25T09:07:35Z</time>
      </trkpt>
      <trkpt lat="48.57133" lon="2.09298">
        <ele>74.4</ele>
        <time>2025-10-25T09:07:37Z</time>
      </trkpt>
      <trkpt lat="48.57131" lon="2.09298">
        <ele>74.6</ele>
        <time>2025-10-25T09:07:39Z</time>
      </trkpt>
      <trkpt lat="48.57129" lon="2.09298">
        <ele>74.8</ele>
        <time>2025-10-25T09:07:41Z</time>
      </trkpt>
      <trkpt lat="48.57126" lon="2.09297">
        <ele>74.8</ele>
        <time>2025-10-25T09:07:43Z</time>
      </trkpt>
      <trkpt lat="48.57124" lon="2.09297">
        <ele>75</ele>
        <time>2025-10-25T09:07:45Z</time>
      </trkpt>
      <trkpt lat="48.57122" lon="2.09297">
        <ele>75</ele>
        <time>2025-10-25T09:07:47Z</time>
      </trkpt>
      <trkpt lat="48.57119" lon="2.09297">
        <ele>75</ele>
        <time>2025-10-25T09:07:49Z</time>
      </trkpt>
      <trkpt lat="48.57116" lon="2.09296">
        <ele>74.8</ele>
        <time>2025-10-25T09:07:51Z</time>
      </trkpt>
      <trkpt lat="48.57113" lon="2.09297">
        <ele>74.8</ele>
        <time>2025-10-25T09:07:53Z</time>
      </trkpt>
      <trkpt lat="48.5711" lon="2.09297">
        <ele>74.6</ele>
        <time>2025-10-25T09:07:55Z</time>
      </trkpt>
      <trkpt lat="48.57107" lon="2.09298">
        <ele>74.6</ele>
        <time>2025-10-25T09:07:57Z</time>
      </trkpt>
      <trkpt lat="48.57105" lon="2.09298">
        <ele>74.6</ele>
        <time>2025-10-25T09:07:59Z</time>
      </trkpt>
      <trkpt lat="48.57103" lon="2.09298">
        <ele>74.6</ele>
        <time>2025-10-25T09:08:01Z</time>
      </trkpt>
      <trkpt lat="48.571" lon="2.09299">
        <ele>74.6</ele>
        <time>2025-10-25T09:08:03Z</time>
      </trkpt>
      <trkpt lat="48.57097" lon="2.09299">
        <ele>74.6</ele>
        <time>2025-10-25T09:08:05Z</time>
      </trkpt>
      <trkpt lat="48.57094" lon="2.09299">
        <ele>74.4</ele>
        <time>2025-10-25T09:08:07Z</time>
      </trkpt>
      <trkpt lat="48.57092" lon="2.09298">
        <ele>74.6</ele>
        <time>2025-10-25T09:08:09Z</time>
      </trkpt>
      <trkpt lat="48.5709" lon="2.09298">
        <ele>74.6</ele>
        <time>2025-10-25T09:08:11Z</time>
      </trkpt>
      <trkpt lat="48.57087" lon="2.09297">
        <ele>74.8</ele>
        <time>2025-10-25T09:08:13Z</time>
      </trkpt>
      <trkpt lat="48.57085" lon="2.09297">
        <ele>74.8</ele>
        <time>2025-10-25T09:08:15Z</time>
      </trkpt>
      <trkpt lat="48.57082" lon="2.09298">
        <ele>74.8</ele>
        <time>2025-10-25T09:08:17Z</time>
      </trkpt>
      <trkpt lat="48.5708" lon="2.09299">
        <ele>75</ele>
        <time>2025-10-25T09:08:19Z</time>
      </trkpt>
      <trkpt lat="48.57077" lon="2.093">
        <ele>75.2</ele>
        <time>2025-10-25T09:08:21Z</time>
      </trkpt>
      <trkpt lat="48.57074" lon="2.093">
        <ele>75.4</ele>
        <time>2025-10-25T09:08:23Z</time>
      </trkpt>
      <trkpt lat="48.57071" lon="2.09299">
        <ele>75.6</ele>
        <time>2025-10-25T09:08:25Z</time>
      </trkpt>
      <trkpt lat="48.57068" lon="2.09299">
        <ele>75.8</ele>
        <time>2025-10-25T09:08:27Z</time>
      </trkpt>
      <trkpt lat="48.57065" lon="2.09299">
        <ele>75.8</ele>
        <time>2025-10-25T09:08:29Z</time>
      </trkpt>
      <trkpt lat="48.57061" lon="2.09299">
        <ele>76</ele>
        <time>2025-10-25T09:08:31Z</time>
      </trkpt>
      <trkpt lat="48.57058" lon="2.09299">
        <ele>76</ele>
        <time>2025-10-25T09:08:33Z</time>
      </trkpt>
      <trkpt lat="48.57056" lon="2.09299">
        <ele>76</ele>
        <time>2025-10-25T09:08:35Z</time>
      </trkpt>
      <trkpt lat="48.57053" lon="2.09299">
        <ele>76</ele>
        <time>2025-10-25T09:08:37Z</time>
      </trkpt>
      <trkpt lat="48.5705" lon="2.09299">
        <ele>76</ele>
        <time>2025-10-25T09:08:39Z</time>
      </trkpt>
      <trkpt lat="48.57048" lon="2.09298">
        <ele>76</ele>
        <time>2025-10-25T09:08:41Z</time>
      </trkpt>
      <trkpt lat="48.57046" lon="2.09298">
        <ele>76.2</ele>
        <time>2025-10-25T09:08:43Z</time>
      </trkpt>
      <trkpt lat="48.57044" lon="2.09297">
        <ele>76.2</ele>
        <time>2025-10-25T09:08:45Z</time>
      </trkpt>
      <trkpt lat="48.57041" lon="2.09297">
        <ele>76.2</ele>
        <time>2025-10-25T09:08:47Z</time>
      </trkpt>
      <trkpt lat="48.57038" lon="2.09298">
        <ele>76.2</ele>
        <time>2025-10-25T09:08:49Z</time>
      </trkpt>
      <trkpt lat="48.57036" lon="2.09298">
        <ele>76.4</ele>
        <time>2025-10-25T09:08:51Z</time>
      </trkpt>
      <trkpt lat="48.57033" lon="2.09298">
        <ele>76.4</ele>
        <time>2025-10-25T09:08:53Z</time>
      </trkpt>
      <trkpt lat="48.5703" lon="2.09298">
        <ele>76.6</ele>
        <time>2025-10-25T09:08:55Z</time>
      </trkpt>
      <trkpt lat="48.57028" lon="2.09298">
        <ele>76.8</ele>
        <time>2025-10-25T09:08:57Z</time>
      </trkpt>
      <trkpt lat="48.57026" lon="2.09298">
        <ele>77</ele>
        <time>2025-10-25T09:08:59Z</time>
      </trkpt>
      <trkpt lat="48.57024" lon="2.09297">
        <ele>77.2</ele>
        <time>2025-10-25T09:09:01Z</time>
      </trkpt>
      <trkpt lat="48.57022" lon="2.09297">
        <ele>77.4</ele>
        <time>2025-10-25T09:09:03Z</time>
      </trkpt>
      <trkpt lat="48.5702" lon="2.09297">
        <ele>77.6</ele>
        <time>2025-10-25T09:09:05Z</time>
      </trkpt>
      <trkpt lat="48.57016" lon="2.09297">
        <ele>78</ele>
        <time>2025-10-25T09:09:07Z</time>
      </trkpt>
      <trkpt lat="48.57013" lon="2.09298">
        <ele>78.2</ele>
        <time>2025-10-25T09:09:09Z</time>
      </trkpt>
      <trkpt lat="48.5701" lon="2.09298">
        <ele>78.6</ele>
        <time>2025-10-25T09:09:11Z</time>
      </trkpt>
      <trkpt lat="48.57008" lon="2.09299">
        <ele>79</ele>
        <time>2025-10-25T09:09:13Z</time>
      </trkpt>
      <trkpt lat="48.57005" lon="2.093">
        <ele>79.4</ele>
        <time>2025-10-25T09:09:15Z</time>
      </trkpt>
      <trkpt lat="48.57004" lon="2.09301">
        <ele>79.6</ele>
        <time>2025-10-25T09:09:16Z</time>
      </trkpt>
      <trkpt lat="48.57" lon="2.09302">
        <ele>80</ele>
        <time>2025-10-25T09:09:18Z</time>
      </trkpt>
      <trkpt lat="48.56998" lon="2.09303">
        <ele>80.2</ele>
        <time>2025-10-25T09:09:19Z</time>
      </trkpt>
      <trkpt lat="48.56995" lon="2.09303">
        <ele>80.8</ele>
        <time>2025-10-25T09:09:21Z</time>
      </trkpt>
      <trkpt lat="48.56992" lon="2.09304">
        <ele>81.2</ele>
        <time>2025-10-25T09:09:23Z</time>
      </trkpt>
      <trkpt lat="48.56989" lon="2.09303">
        <ele>81.8</ele>
        <time>2025-10-25T09:09:25Z</time>
      </trkpt>
      <trkpt lat="48.56988" lon="2.09303">
        <ele>82</ele>
        <time>2025-10-25T09:09:27Z</time>
      </trkpt>
      <trkpt lat="48.56985" lon="2.09303">
        <ele>82.4</ele>
        <time>2025-10-25T09:09:29Z</time>
      </trkpt>
      <trkpt lat="48.56983" lon="2.09302">
        <ele>82.6</ele>
        <time>2025-10-25T09:09:31Z</time>
      </trkpt>
      <trkpt lat="48.5698" lon="2.09301">
        <ele>83</ele>
        <time>2025-10-25T09:09:33Z</time>
      </trkpt>
      <trkpt lat="48.56978" lon="2.09301">
        <ele>83.2</ele>
        <time>2025-10-25T09:09:35Z</time>
      </trkpt>
      <trkpt lat="48.56975" lon="2.09301">
        <ele>83.4</ele>
        <time>2025-10-25T09:09:37Z</time>
      </trkpt>
      <trkpt lat="48.56972" lon="2.09301">
        <ele>83.4</ele>
        <time>2025-10-25T09:09:39Z</time>
      </trkpt>
      <trkpt lat="48.56969" lon="2.09302">
        <ele>83.6</ele>
        <time>2025-10-25T09:09:41Z</time>
      </trkpt>
      <trkpt lat="48.56966" lon="2.09302">
        <ele>84</ele>
        <time>2025-10-25T09:09:43Z</time>
      </trkpt>
      <trkpt lat="48.56963" lon="2.09303">
        <ele>84.4</ele>
        <time>2025-10-25T09:09:45Z</time>
      </trkpt>
      <trkpt lat="48.56961" lon="2.09303">
        <ele>84.6</ele>
        <time>2025-10-25T09:09:47Z</time>
      </trkpt>
      <trkpt lat="48.56958" lon="2.09304">
        <ele>85</ele>
        <time>2025-10-25T09:09:49Z</time>
      </trkpt>
      <trkpt lat="48.56955" lon="2.09306">
        <ele>85.2</ele>
        <time>2025-10-25T09:09:51Z</time>
      </trkpt>
      <trkpt lat="48.56953" lon="2.09306">
        <ele>85.4</ele>
        <time>2025-10-25T09:09:53Z</time>
      </trkpt>
      <trkpt lat="48.5695" lon="2.09306">
        <ele>85.8</ele>
        <time>2025-10-25T09:09:55Z</time>
      </trkpt>
      <trkpt lat="48.56948" lon="2.09306">
        <ele>86.2</ele>
        <time>2025-10-25T09:09:57Z</time>
      </trkpt>
      <trkpt lat="48.56946" lon="2.09305">
        <ele>86.6</ele>
        <time>2025-10-25T09:09:59Z</time>
      </trkpt>
      <trkpt lat="48.56944" lon="2.09305">
        <ele>87</ele>
        <time>2025-10-25T09:10:01Z</time>
      </trkpt>
      <trkpt lat="48.56942" lon="2.09304">
        <ele>87.2</ele>
        <time>2025-10-25T09:10:03Z</time>
      </trkpt>
      <trkpt lat="48.56939" lon="2.09305">
        <ele>87.6</ele>
        <time>2025-10-25T09:10:05Z</time>
      </trkpt>
      <trkpt lat="48.56935" lon="2.09305">
        <ele>88</ele>
        <time>2025-10-25T09:10:07Z</time>
      </trkpt>
      <trkpt lat="48.56932" lon="2.09306">
        <ele>88.4</ele>
        <time>2025-10-25T09:10:09Z</time>
      </trkpt>
      <trkpt lat="48.56929" lon="2.09307">
        <ele>88.6</ele>
        <time>2025-10-25T09:10:11Z</time>
      </trkpt>
      <trkpt lat="48.56926" lon="2.09308">
        <ele>89</ele>
        <time>2025-10-25T09:10:13Z</time>
      </trkpt>
      <trkpt lat="48.56923" lon="2.09308">
        <ele>89.4</ele>
        <time>2025-10-25T09:10:15Z</time>
      </trkpt>
      <trkpt lat="48.56921" lon="2.09308">
        <ele>89.8</ele>
        <time>2025-10-25T09:10:17Z</time>
      </trkpt>
      <trkpt lat="48.56919" lon="2.09307">
        <ele>90.4</ele>
        <time>2025-10-25T09:10:19Z</time>
      </trkpt>
      <trkpt lat="48.56917" lon="2.09306">
        <ele>91</ele>
        <time>2025-10-25T09:10:22Z</time>
      </trkpt>
      <trkpt lat="48.56915" lon="2.09306">
        <ele>91.4</ele>
        <time>2025-10-25T09:10:24Z</time>
      </trkpt>
      <trkpt lat="48.56912" lon="2.09306">
        <ele>91.8</ele>
        <time>2025-10-25T09:10:26Z</time>
      </trkpt>
      <trkpt lat="48.56909" lon="2.09306">
        <ele>92.2</ele>
        <time>2025-10-25T09:10:28Z</time>
      </trkpt>
      <trkpt lat="48.56907" lon="2.09306">
        <ele>92.4</ele>
        <time>2025-10-25T09:10:30Z</time>
      </trkpt>
      <trkpt lat="48.56903" lon="2.09305">
        <ele>92.8</ele>
        <time>2025-10-25T09:10:32Z</time>
      </trkpt>
      <trkpt lat="48.56901" lon="2.09305">
        <ele>93.2</ele>
        <time>2025-10-25T09:10:34Z</time>
      </trkpt>
      <trkpt lat="48.56898" lon="2.09306">
        <ele>93.6</ele>
        <time>2025-10-25T09:10:36Z</time>
      </trkpt>
      <trkpt lat="48.56896" lon="2.09306">
        <ele>93.8</ele>
        <time>2025-10-25T09:10:38Z</time>
      </trkpt>
      <trkpt lat="48.56893" lon="2.09306">
        <ele>93.8</ele>
        <time>2025-10-25T09:10:40Z</time>
      </trkpt>
      <trkpt lat="48.5689" lon="2.09307">
        <ele>94</ele>
        <time>2025-10-25T09:10:42Z</time>
      </trkpt>
      <trkpt lat="48.56887" lon="2.09307">
        <ele>94.2</ele>
        <time>2025-10-25T09:10:44Z</time>
      </trkpt>
      <trkpt lat="48.56884" lon="2.09307">
        <ele>94.4</ele>
        <time>2025-10-25T09:10:46Z</time>
      </trkpt>
      <trkpt lat="48.56882" lon="2.09307">
        <ele>94.6</ele>
        <time>2025-10-25T09:10:48Z</time>
      </trkpt>
      <trkpt lat="48.5688" lon="2.09308">
        <ele>94.6</ele>
        <time>2025-10-25T09:10:50Z</time>
      </trkpt>
      <trkpt lat="48.56877" lon="2.09308">
        <ele>94.8</ele>
        <time>2025-10-25T09:10:53Z</time>
      </trkpt>
      <trkpt lat="48.56876" lon="2.09308">
        <ele>95</ele>
        <time>2025-10-25T09:10:56Z</time>
      </trkpt>
      <trkpt lat="48.56874" lon="2.09309">
        <ele>95.2</ele>
        <time>2025-10-25T09:10:58Z</time>
      </trkpt>
      <trkpt lat="48.56872" lon="2.09309">
        <ele>95.6</ele>
        <time>2025-10-25T09:11:00Z</time>
      </trkpt>
      <trkpt lat="48.56869" lon="2.09309">
        <ele>96</ele>
        <time>2025-10-25T09:11:02Z</time>
      </trkpt>
      <trkpt lat="48.56866" lon="2.0931">
        <ele>96.2</ele>
        <time>2025-10-25T09:11:04Z</time>
      </trkpt>
      <trkpt lat="48.56863" lon="2.0931">
        <ele>96.4</ele>
        <time>2025-10-25T09:11:06Z</time>
      </trkpt>
      <trkpt lat="48.56861" lon="2.09309">
        <ele>96.6</ele>
        <time>2025-10-25T09:11:08Z</time>
      </trkpt>
      <trkpt lat="48.56859" lon="2.09308">
        <ele>96.8</ele>
        <time>2025-10-25T09:11:10Z</time>
      </trkpt>
      <trkpt lat="48.56857" lon="2.09308">
        <ele>97</ele>
        <time>2025-10-25T09:11:12Z</time>
      </trkpt>
      <trkpt lat="48.56854" lon="2.09307">
        <ele>97</ele>
        <time>2025-10-25T09:11:14Z</time>
      </trkpt>
      <trkpt lat="48.56852" lon="2.09307">
        <ele>97</ele>
        <time>2025-10-25T09:11:16Z</time>
      </trkpt>
      <trkpt lat="48.56849" lon="2.09307">
        <ele>97.2</ele>
        <time>2025-10-25T09:11:18Z</time>
      </trkpt>
      <trkpt lat="48.56846" lon="2.09307">
        <ele>97.4</ele>
        <time>2025-10-25T09:11:20Z</time>
      </trkpt>
      <trkpt lat="48.56844" lon="2.09307">
        <ele>97.6</ele>
        <time>2025-10-25T09:11:22Z</time>
      </trkpt>
      <trkpt lat="48.56842" lon="2.09308">
        <ele>97.8</ele>
        <time>2025-10-25T09:11:24Z</time>
      </trkpt>
      <trkpt lat="48.56839" lon="2.09308">
        <ele>98.4</ele>
        <time>2025-10-25T09:11:26Z</time>
      </trkpt>
      <trkpt lat="48.56836" lon="2.0931">
        <ele>98.8</ele>
        <time>2025-10-25T09:11:28Z</time>
      </trkpt>
      <trkpt lat="48.56833" lon="2.09311">
        <ele>99</ele>
        <time>2025-10-25T09:11:30Z</time>
      </trkpt>
      <trkpt lat="48.56831" lon="2.09312">
        <ele>99.2</ele>
        <time>2025-10-25T09:11:31Z</time>
      </trkpt>
      <trkpt lat="48.56828" lon="2.09312">
        <ele>99.4</ele>
        <time>2025-10-25T09:11:33Z</time>
      </trkpt>
      <trkpt lat="48.56825" lon="2.09312">
        <ele>99.8</ele>
        <time>2025-10-25T09:11:35Z</time>
      </trkpt>
      <trkpt lat="48.56823" lon="2.09311">
        <ele>100</ele>
        <time>2025-10-25T09:11:37Z</time>
      </trkpt>
      <trkpt lat="48.5682" lon="2.0931">
        <ele>100.2</ele>
        <time>2025-10-25T09:11:39Z</time>
      </trkpt>
      <trkpt lat="48.56818" lon="2.0931">
        <ele>100.2</ele>
        <time>2025-10-25T09:11:41Z</time>
      </trkpt>
      <trkpt lat="48.56815" lon="2.09309">
        <ele>100.2</ele>
        <time>2025-10-25T09:11:43Z</time>
      </trkpt>
      <trkpt lat="48.56812" lon="2.09309">
        <ele>100.2</ele>
        <time>2025-10-25T09:11:45Z</time>
      </trkpt>
      <trkpt lat="48.5681" lon="2.09308">
        <ele>100.2</ele>
        <time>2025-10-25T09:11:47Z</time>
      </trkpt>
      <trkpt lat="48.56807" lon="2.09308">
        <ele>100.2</ele>
        <time>2025-10-25T09:11:49Z</time>
      </trkpt>
      <trkpt lat="48.56805" lon="2.09308">
        <ele>100.2</ele>
        <time>2025-10-25T09:11:51Z</time>
      </trkpt>
      <trkpt lat="48.56803" lon="2.09307">
        <ele>100.2</ele>
        <time>2025-10-25T09:11:53Z</time>
      </trkpt>
      <trkpt lat="48.568" lon="2.09306">
        <ele>100</ele>
        <time>2025-10-25T09:11:55Z</time>
      </trkpt>
      <trkpt lat="48.56797" lon="2.09306">
        <ele>100</ele>
        <time>2025-10-25T09:11:57Z</time>
      </trkpt>
      <trkpt lat="48.56795" lon="2.09305">
        <ele>100</ele>
        <time>2025-10-25T09:11:59Z</time>
      </trkpt>
      <trkpt lat="48.56793" lon="2.09305">
        <ele>100</ele>
        <time>2025-10-25T09:12:01Z</time>
      </trkpt>
      <trkpt lat="48.56791" lon="2.09305">
        <ele>100</ele>
        <time>2025-10-25T09:12:03Z</time>
      </trkpt>
      <trkpt lat="48.56789" lon="2.09304">
        <ele>99.8</ele>
        <time>2025-10-25T09:12:06Z</time>
      </trkpt>
      <trkpt lat="48.56786" lon="2.09303">
        <ele>99.8</ele>
        <time>2025-10-25T09:12:09Z</time>
      </trkpt>
      <trkpt lat="48.56783" lon="2.09304">
        <ele>99.8</ele>
        <time>2025-10-25T09:12:11Z</time>
      </trkpt>
      <trkpt lat="48.5678" lon="2.09304">
        <ele>99.8</ele>
        <time>2025-10-25T09:12:12Z</time>
      </trkpt>
      <trkpt lat="48.56778" lon="2.09305">
        <ele>99.8</ele>
        <time>2025-10-25T09:12:13Z</time>
      </trkpt>
      <trkpt lat="48.56776" lon="2.09305">
        <ele>99.8</ele>
        <time>2025-10-25T09:12:14Z</time>
      </trkpt>
      <trkpt lat="48.56773" lon="2.09305">
        <ele>99.8</ele>
        <time>2025-10-25T09:12:15Z</time>
      </trkpt>
      <trkpt lat="48.56771" lon="2.09306">
        <ele>100</ele>
        <time>2025-10-25T09:12:16Z</time>
      </trkpt>
      <trkpt lat="48.56768" lon="2.09305">
        <ele>100</ele>
        <time>2025-10-25T09:12:17Z</time>
      </trkpt>
      <trkpt lat="48.56766" lon="2.09305">
        <ele>100</ele>
        <time>2025-10-25T09:12:18Z</time>
      </trkpt>
      <trkpt lat="48.56763" lon="2.09305">
        <ele>100</ele>
        <time>2025-10-25T09:12:19Z</time>
      </trkpt>
      <trkpt lat="48.5676" lon="2.09305">
        <ele>100.2</ele>
        <time>2025-10-25T09:12:20Z</time>
      </trkpt>
      <trkpt lat="48.56757" lon="2.09304">
        <ele>100.2</ele>
        <time>2025-10-25T09:12:21Z</time>
      </trkpt>
      <trkpt lat="48.56754" lon="2.09303">
        <ele>100.4</ele>
        <time>2025-10-25T09:12:22Z</time>
      </trkpt>
      <trkpt lat="48.5675" lon="2.09302">
        <ele>100.4</ele>
        <time>2025-10-25T09:12:23Z</time>
      </trkpt>
      <trkpt lat="48.56747" lon="2.09301">
        <ele>100.4</ele>
        <time>2025-10-25T09:12:24Z</time>
      </trkpt>
      <trkpt lat="48.56743" lon="2.093">
        <ele>100.6</ele>
        <time>2025-10-25T09:12:25Z</time>
      </trkpt>
      <trkpt lat="48.56739" lon="2.09298">
        <ele>100.6</ele>
        <time>2025-10-25T09:12:26Z</time>
      </trkpt>
      <trkpt lat="48.56735" lon="2.09296">
        <ele>100.6</ele>
        <time>2025-10-25T09:12:27Z</time>
      </trkpt>
      <trkpt lat="48.5673" lon="2.09295">
        <ele>100.8</ele>
        <time>2025-10-25T09:12:28Z</time>
      </trkpt>
      <trkpt lat="48.56726" lon="2.09293">
        <ele>100.8</ele>
        <time>2025-10-25T09:12:29Z</time>
      </trkpt>
      <trkpt lat="48.5672" lon="2.09292">
        <ele>100.8</ele>
        <time>2025-10-25T09:12:30Z</time>
      </trkpt>
      <trkpt lat="48.56715" lon="2.0929">
        <ele>100.8</ele>
        <time>2025-10-25T09:12:31Z</time>
      </trkpt>
      <trkpt lat="48.5671" lon="2.09288">
        <ele>100.8</ele>
        <time>2025-10-25T09:12:32Z</time>
      </trkpt>
      <trkpt lat="48.56704" lon="2.09287">
        <ele>101</ele>
        <time>2025-10-25T09:12:33Z</time>
      </trkpt>
      <trkpt lat="48.56699" lon="2.09285">
        <ele>101</ele>
        <time>2025-10-25T09:12:34Z</time>
      </trkpt>
      <trkpt lat="48.56694" lon="2.09283">
        <ele>101</ele>
        <time>2025-10-25T09:12:35Z</time>
      </trkpt>
      <trkpt lat="48.56689" lon="2.09281">
        <ele>101</ele>
        <time>2025-10-25T09:12:36Z</time>
      </trkpt>
      <trkpt lat="48.56684" lon="2.09279">
        <ele>101</ele>
        <time>2025-10-25T09:12:37Z</time>
      </trkpt>
      <trkpt lat="48.5668" lon="2.09277">
        <ele>101</ele>
        <time>2025-10-25T09:12:38Z</time>
      </trkpt>
      <trkpt lat="48.56676" lon="2.09275">
        <ele>101</ele>
        <time>2025-10-25T09:12:39Z</time>
      </trkpt>
      <trkpt lat="48.56672" lon="2.09272">
        <ele>100.8</ele>
        <time>2025-10-25T09:12:40Z</time>
      </trkpt>
      <trkpt lat="48.56668" lon="2.0927">
        <ele>100.8</ele>
        <time>2025-10-25T09:12:41Z</time>
      </trkpt>
      <trkpt lat="48.56663" lon="2.09268">
        <ele>100.8</ele>
        <time>2025-10-25T09:12:42Z</time>
      </trkpt>
      <trkpt lat="48.56659" lon="2.09265">
        <ele>100.8</ele>
        <time>2025-10-25T09:12:43Z</time>
      </trkpt>
      <trkpt lat="48.56655" lon="2.09263">
        <ele>100.8</ele>
        <time>2025-10-25T09:12:44Z</time>
      </trkpt>
      <trkpt lat="48.56651" lon="2.09261">
        <ele>100.8</ele>
        <time>2025-10-25T09:12:45Z</time>
      </trkpt>
      <trkpt lat="48.56646" lon="2.09259">
        <ele>100.8</ele>
        <time>2025-10-25T09:12:46Z</time>
      </trkpt>
      <trkpt lat="48.56641" lon="2.09256">
        <ele>100.8</ele>
        <time>2025-10-25T09:12:47Z</time>
      </trkpt>
      <trkpt lat="48.56636" lon="2.09254">
        <ele>100.8</ele>
        <time>2025-10-25T09:12:48Z</time>
      </trkpt>
      <trkpt lat="48.56631" lon="2.09251">
        <ele>100.8</ele>
        <time>2025-10-25T09:12:49Z</time>
      </trkpt>
      <trkpt lat="48.56626" lon="2.09249">
        <ele>101</ele>
        <time>2025-10-25T09:12:50Z</time>
      </trkpt>
      <trkpt lat="48.56621" lon="2.09246">
        <ele>101</ele>
        <time>2025-10-25T09:12:51Z</time>
      </trkpt>
      <trkpt lat="48.56616" lon="2.09244">
        <ele>101</ele>
        <time>2025-10-25T09:12:52Z</time>
      </trkpt>
      <trkpt lat="48.5661" lon="2.09242">
        <ele>101</ele>
        <time>2025-10-25T09:12:53Z</time>
      </trkpt>
      <trkpt lat="48.56605" lon="2.0924">
        <ele>101.2</ele>
        <time>2025-10-25T09:12:54Z</time>
      </trkpt>
      <trkpt lat="48.56599" lon="2.09237">
        <ele>101.2</ele>
        <time>2025-10-25T09:12:55Z</time>
      </trkpt>
      <trkpt lat="48.56594" lon="2.09235">
        <ele>101.2</ele>
        <time>2025-10-25T09:12:56Z</time>
      </trkpt>
      <trkpt lat="48.56588" lon="2.09232">
        <ele>101.2</ele>
        <time>2025-10-25T09:12:57Z</time>
      </trkpt>
      <trkpt lat="48.56583" lon="2.0923">
        <ele>101.2</ele>
        <time>2025-10-25T09:12:58Z</time>
      </trkpt>
      <trkpt lat="48.54178" lon="2.07892">
        <ele>135.4</ele>
        <time>2025-10-25T09:33:08Z</time>
      </trkpt>
      <trkpt lat="48.54176" lon="2.07891">
        <ele>134.8</ele>
        <time>2025-10-25T09:33:10Z</time>
      </trkpt>
      <trkpt lat="48.54173" lon="2.07888">
        <ele>134.2</ele>
        <time>2025-10-25T09:33:12Z</time>
      </trkpt>
      <trkpt lat="48.5417" lon="2.07886">
        <ele>133.6</ele>
        <time>2025-10-25T09:33:14Z</time>
      </trkpt>
      <trkpt lat="48.54168" lon="2.07884">
        <ele>133.2</ele>
        <time>2025-10-25T09:33:16Z</time>
      </trkpt>
      <trkpt lat="48.54165" lon="2.07882">
        <ele>132.6</ele>
        <time>2025-10-25T09:33:18Z</time>
      </trkpt>
      <trkpt lat="48.54163" lon="2.07881">
        <ele>132.2</ele>
        <time>2025-10-25T09:33:20Z</time>
      </trkpt>
      <trkpt lat="48.54161" lon="2.07882">
        <ele>131.8</ele>
        <time>2025-10-25T09:33:22Z</time>
      </trkpt>
      <trkpt lat="48.54159" lon="2.07884">
        <ele>131</ele>
        <time>2025-10-25T09:33:24Z</time>
      </trkpt>
      <trkpt lat="48.54157" lon="2.07886">
        <ele>130.4</ele>
        <time>2025-10-25T09:33:26Z</time>
      </trkpt>
      <trkpt lat="48.54155" lon="2.07888">
        <ele>129.8</ele>
        <time>2025-10-25T09:33:28Z</time>
      </trkpt>
      <trkpt lat="48.54153" lon="2.07889">
        <ele>129</ele>
        <time>2025-10-25T09:33:31Z</time>
      </trkpt>
      <trkpt lat="48.54151" lon="2.07889">
        <ele>128.6</ele>
        <time>2025-10-25T09:33:33Z</time>
      </trkpt>
      <trkpt lat="48.54149" lon="2.07889">
        <ele>128</ele>
        <time>2025-10-25T09:33:35Z</time>
      </trkpt>
      <trkpt lat="48.54147" lon="2.07889">
        <ele>127.4</ele>
        <time>2025-10-25T09:33:37Z</time>
      </trkpt>
      <trkpt lat="48.54145" lon="2.07889">
        <ele>126.8</ele>
        <time>2025-10-25T09:33:39Z</time>
      </trkpt>
      <trkpt lat="48.54143" lon="2.0789">
        <ele>126.4</ele>
        <time>2025-10-25T09:33:41Z</time>
      </trkpt>
      <trkpt lat="48.5414" lon="2.07892">
        <ele>125.4</ele>
        <time>2025-10-25T09:33:44Z</time>
      </trkpt>
      <trkpt lat="48.54138" lon="2.07893">
        <ele>124.8</ele>
        <time>2025-10-25T09:33:46Z</time>
      </trkpt>
      <trkpt lat="48.54135" lon="2.07895">
        <ele>124.4</ele>
        <time>2025-10-25T09:33:48Z</time>
      </trkpt>
      <trkpt lat="48.54132" lon="2.07896">
        <ele>124</ele>
        <time>2025-10-25T09:33:50Z</time>
      </trkpt>
      <trkpt lat="48.54129" lon="2.07897">
        <ele>123.6</ele>
        <time>2025-10-25T09:33:52Z</time>
      </trkpt>
      <trkpt lat="48.54127" lon="2.07898">
        <ele>123.4</ele>
        <time>2025-10-25T09:33:54Z</time>
      </trkpt>
      <trkpt lat="48.54124" lon="2.07898">
        <ele>123</ele>
        <time>2025-10-25T09:33:56Z</time>
      </trkpt>
      <trkpt lat="48.54121" lon="2.079">
        <ele>122.6</ele>
        <time>2025-10-25T09:33:58Z</time>
      </trkpt>
      <trkpt lat="48.54119" lon="2.07901">
        <ele>122.4</ele>
        <time>2025-10-25T09:33:59Z</time>
      </trkpt>
      <trkpt lat="48.54116" lon="2.07902">
        <ele>121.8</ele>
        <time>2025-10-25T09:34:01Z</time>
      </trkpt>
      <trkpt lat="48.54113" lon="2.07904">
        <ele>121.4</ele>
        <time>2025-10-25T09:34:03Z</time>
      </trkpt>
      <trkpt lat="48.54111" lon="2.07905">
        <ele>121.2</ele>
        <time>2025-10-25T09:34:04Z</time>
      </trkpt>
      <trkpt lat="48.54108" lon="2.07905">
        <ele>121</ele>
        <time>2025-10-25T09:34:05Z</time>
      </trkpt>
      <trkpt lat="48.54107" lon="2.07906">
        <ele>120.8</ele>
        <time>2025-10-25T09:34:06Z</time>
      </trkpt>
      <trkpt lat="48.54104" lon="2.07906">
        <ele>120.6</ele>
        <time>2025-10-25T09:34:07Z</time>
      </trkpt>
      <trkpt lat="48.54102" lon="2.07906">
        <ele>120.4</ele>
        <time>2025-10-25T09:34:08Z</time>
      </trkpt>
      <trkpt lat="48.54099" lon="2.07907">
        <ele>120</ele>
        <time>2025-10-25T09:34:10Z</time>
      </trkpt>
      <trkpt lat="48.54097" lon="2.07908">
        <ele>119.6</ele>
        <time>2025-10-25T09:34:12Z</time>
      </trkpt>
      <trkpt lat="48.54093" lon="2.07909">
        <ele>119.4</ele>
        <time>2025-10-25T09:34:14Z</time>
      </trkpt>
      <trkpt lat="48.54091" lon="2.0791">
        <ele>119</ele>
        <time>2025-10-25T09:34:16Z</time>
      </trkpt>
      <trkpt lat="48.54089" lon="2.07911">
        <ele>118.8</ele>
        <time>2025-10-25T09:34:17Z</time>
      </trkpt>
      <trkpt lat="48.54085" lon="2.07911">
        <ele>118.4</ele>
        <time>2025-10-25T09:34:19Z</time>
      </trkpt>
      <trkpt lat="48.54082" lon="2.07912">
        <ele>118</ele>
        <time>2025-10-25T09:34:21Z</time>
      </trkpt>
      <trkpt lat="48.54079" lon="2.07914">
        <ele>117.6</ele>
        <time>2025-10-25T09:34:23Z</time>
      </trkpt>
      <trkpt lat="48.54076" lon="2.07914">
        <ele>117</ele>
        <time>2025-10-25T09:34:25Z</time>
      </trkpt>
      <trkpt lat="48.54073" lon="2.07914">
        <ele>116.6</ele>
        <time>2025-10-25T09:34:27Z</time>
      </trkpt>
      <trkpt lat="48.54071" lon="2.07914">
        <ele>116.4</ele>
        <time>2025-10-25T09:34:28Z</time>
      </trkpt>
      <trkpt lat="48.54068" lon="2.07914">
        <ele>116</ele>
        <time>2025-10-25T09:34:30Z</time>
      </trkpt>
      <trkpt lat="48.54065" lon="2.07913">
        <ele>115.6</ele>
        <time>2025-10-25T09:34:32Z</time>
      </trkpt>
      <trkpt lat="48.54062" lon="2.07911">
        <ele>115.2</ele>
        <time>2025-10-25T09:34:34Z</time>
      </trkpt>
      <trkpt lat="48.5406" lon="2.0791">
        <ele>114.8</ele>
        <time>2025-10-25T09:34:36Z</time>
      </trkpt>
      <trkpt lat="48.54058" lon="2.07908">
        <ele>114.8</ele>
        <time>2025-10-25T09:34:37Z</time>
      </trkpt>
      <trkpt lat="48.54055" lon="2.07905">
        <ele>114.4</ele>
        <time>2025-10-25T09:34:39Z</time>
      </trkpt>
      <trkpt lat="48.54052" lon="2.07903">
        <ele>114</ele>
        <time>2025-10-25T09:34:41Z</time>
      </trkpt>
      <trkpt lat="48.5405" lon="2.079">
        <ele>113.6</ele>
        <time>2025-10-25T09:34:43Z</time>
      </trkpt>
      <trkpt lat="48.54047" lon="2.07899">
        <ele>113.2</ele>
        <time>2025-10-25T09:34:45Z</time>
      </trkpt>
      <trkpt lat="48.54045" lon="2.07898">
        <ele>113</ele>
        <time>2025-10-25T09:34:46Z</time>
      </trkpt>
      <trkpt lat="48.54043" lon="2.07898">
        <ele>112.6</ele>
        <time>2025-10-25T09:34:47Z</time>
      </trkpt>
      <trkpt lat="48.54039" lon="2.07896">
        <ele>112</ele>
        <time>2025-10-25T09:34:49Z</time>
      </trkpt>
      <trkpt lat="48.54036" lon="2.07894">
        <ele>111.4</ele>
        <time>2025-10-25T09:34:51Z</time>
      </trkpt>
      <trkpt lat="48.54033" lon="2.07893">
        <ele>110.8</ele>
        <time>2025-10-25T09:34:53Z</time>
      </trkpt>
      <trkpt lat="48.54031" lon="2.07891">
        <ele>110.2</ele>
        <time>2025-10-25T09:34:55Z</time>
      </trkpt>
      <trkpt lat="48.54028" lon="2.0789">
        <ele>109.4</ele>
        <time>2025-10-25T09:34:57Z</time>
      </trkpt>
      <trkpt lat="48.54025" lon="2.07888">
        <ele>109</ele>
        <time>2025-10-25T09:34:59Z</time>
      </trkpt>
      <trkpt lat="48.54022" lon="2.07887">
        <ele>108.4</ele>
        <time>2025-10-25T09:35:01Z</time>
      </trkpt>
      <trkpt lat="48.5402" lon="2.07886">
        <ele>108</ele>
        <time>2025-10-25T09:35:03Z</time>
      </trkpt>
      <trkpt lat="48.54017" lon="2.07885">
        <ele>107.6</ele>
        <time>2025-10-25T09:35:05Z</time>
      </trkpt>
      <trkpt lat="48.54014" lon="2.07885">
        <ele>107.2</ele>
        <time>2025-10-25T09:35:07Z</time>
      </trkpt>
      <trkpt lat="48.54012" lon="2.07885">
        <ele>106.4</ele>
        <time>2025-10-25T09:35:10Z</time>
      </trkpt>
      <trkpt lat="48.54012" lon="2.07888">
        <ele>102.4</ele>
        <time>2025-10-25T09:35:30Z</time>
      </trkpt>
      <trkpt lat="48.54014" lon="2.0788">
        <ele>100.6</ele>
        <time>2025-10-25T09:36:39Z</time>
      </trkpt>
      <trkpt lat="48.54013" lon="2.07883">
        <ele>100.4</ele>
        <time>2025-10-25T09:36:43Z</time>
      </trkpt>
      <trkpt lat="48.54012" lon="2.07886">
        <ele>100.4</ele>
        <time>2025-10-25T09:36:45Z</time>
      </trkpt>
      <trkpt lat="48.5401" lon="2.07889">
        <ele>100.4</ele>
        <time>2025-10-25T09:36:47Z</time>
      </trkpt>
      <trkpt lat="48.54009" lon="2.07892">
        <ele>100.4</ele>
        <time>2025-10-25T09:36:49Z</time>
      </trkpt>
      <trkpt lat="48.54008" lon="2.07894">
        <ele>100.4</ele>
        <time>2025-10-25T09:36:51Z</time>
      </trkpt>
      <trkpt lat="48.54007" lon="2.07897">
        <ele>100.4</ele>
        <time>2025-10-25T09:36:54Z</time>
      </trkpt>
      <trkpt lat="48.54006" lon="2.079">
        <ele>100.6</ele>
        <time>2025-10-25T09:36:57Z</time>
      </trkpt>
      <trkpt lat="48.54006" lon="2.07902">
        <ele>100.4</ele>
        <time>2025-10-25T09:37:02Z</time>
      </trkpt>
      <trkpt lat="48.54006" lon="2.07906">
        <ele>100.2</ele>
        <time>2025-10-25T09:37:05Z</time>
      </trkpt>
      <trkpt lat="48.54004" lon="2.07907">
        <ele>99.4</ele>
        <time>2025-10-25T09:37:10Z</time>
      </trkpt>
      <trkpt lat="48.54002" lon="2.07905">
        <ele>98.8</ele>
        <time>2025-10-25T09:37:13Z</time>
      </trkpt>
      <trkpt lat="48.54002" lon="2.07902">
        <ele>98.4</ele>
        <time>2025-10-25T09:37:15Z</time>
      </trkpt>
      <trkpt lat="48.54002" lon="2.07899">
        <ele>98</ele>
        <time>2025-10-25T09:37:17Z</time>
      </trkpt>
      <trkpt lat="48.54002" lon="2.07896">
        <ele>97.6</ele>
        <time>2025-10-25T09:37:19Z</time>
      </trkpt>
      <trkpt lat="48.54002" lon="2.07892">
        <ele>97.4</ele>
        <time>2025-10-25T09:37:21Z</time>
      </trkpt>
      <trkpt lat="48.54002" lon="2.07888">
        <ele>97</ele>
        <time>2025-10-25T09:37:23Z</time>
      </trkpt>
      <trkpt lat="48.54001" lon="2.07886">
        <ele>96.8</ele>
        <time>2025-10-25T09:37:25Z</time>
      </trkpt>
      <trkpt lat="48.54" lon="2.07883">
        <ele>96.2</ele>
        <time>2025-10-25T09:37:28Z</time>
      </trkpt>
      <trkpt lat="48.54044" lon="2.07854">
        <ele>94.6</ele>
        <time>2025-10-25T09:37:54Z</time>
      </trkpt>
      <trkpt lat="48.54037" lon="2.0786">
        <ele>94.6</ele>
        <time>2025-10-25T09:37:55Z</time>
      </trkpt>
      <trkpt lat="48.54029" lon="2.07865">
        <ele>94.4</ele>
        <time>2025-10-25T09:37:56Z</time>
      </trkpt>
      <trkpt lat="48.54021" lon="2.0787">
        <ele>94.2</ele>
        <time>2025-10-25T09:37:57Z</time>
      </trkpt>
      <trkpt lat="48.54015" lon="2.07875">
        <ele>94.2</ele>
        <time>2025-10-25T09:37:58Z</time>
      </trkpt>
      <trkpt lat="48.5401" lon="2.07878">
        <ele>94</ele>
        <time>2025-10-25T09:37:59Z</time>
      </trkpt>
      <trkpt lat="48.54007" lon="2.07881">
        <ele>94</ele>
        <time>2025-10-25T09:38:00Z</time>
      </trkpt>
      <trkpt lat="48.54004" lon="2.07883">
        <ele>94</ele>
        <time>2025-10-25T09:38:01Z</time>
      </trkpt>
      <trkpt lat="48.54002" lon="2.07885">
        <ele>93.8</ele>
        <time>2025-10-25T09:38:03Z</time>
      </trkpt>
      <trkpt lat="48.53999" lon="2.07888">
        <ele>93.6</ele>
        <time>2025-10-25T09:38:05Z</time>
      </trkpt>
      <trkpt lat="48.53998" lon="2.07889">
        <ele>93.4</ele>
        <time>2025-10-25T09:38:06Z</time>
      </trkpt>
      <trkpt lat="48.53994" lon="2.07891">
        <ele>93.4</ele>
        <time>2025-10-25T09:38:08Z</time>
      </trkpt>
      <trkpt lat="48.53991" lon="2.07894">
        <ele>93.4</ele>
        <time>2025-10-25T09:38:10Z</time>
      </trkpt>
      <trkpt lat="48.53988" lon="2.07896">
        <ele>93.4</ele>
        <time>2025-10-25T09:38:12Z</time>
      </trkpt>
      <trkpt lat="48.53985" lon="2.07898">
        <ele>93.6</ele>
        <time>2025-10-25T09:38:16Z</time>
      </trkpt>
      <trkpt lat="48.53983" lon="2.07898">
        <ele>93.4</ele>
        <time>2025-10-25T09:38:19Z</time>
      </trkpt>
      <trkpt lat="48.53981" lon="2.079">
        <ele>93</ele>
        <time>2025-10-25T09:38:25Z</time>
      </trkpt>
      <trkpt lat="48.5398" lon="2.07901">
        <ele>91</ele>
        <time>2025-10-25T09:38:51Z</time>
      </trkpt>
      <trkpt lat="48.53977" lon="2.07904">
        <ele>90.4</ele>
        <time>2025-10-25T09:38:56Z</time>
      </trkpt>
      <trkpt lat="48.53974" lon="2.07906">
        <ele>90.2</ele>
        <time>2025-10-25T09:38:58Z</time>
      </trkpt>
      <trkpt lat="48.53972" lon="2.07908">
        <ele>90</ele>
        <time>2025-10-25T09:38:59Z</time>
      </trkpt>
      <trkpt lat="48.53969" lon="2.0791">
        <ele>89.8</ele>
        <time>2025-10-25T09:39:01Z</time>
      </trkpt>
      <trkpt lat="48.53968" lon="2.07912">
        <ele>89.8</ele>
        <time>2025-10-25T09:39:02Z</time>
      </trkpt>
      <trkpt lat="48.53966" lon="2.07913">
        <ele>89.6</ele>
        <time>2025-10-25T09:39:03Z</time>
      </trkpt>
      <trkpt lat="48.53964" lon="2.07915">
        <ele>89.4</ele>
        <time>2025-10-25T09:39:04Z</time>
      </trkpt>
      <trkpt lat="48.53963" lon="2.07916">
        <ele>89.4</ele>
        <time>2025-10-25T09:39:05Z</time>
      </trkpt>
      <trkpt lat="48.5396" lon="2.07919">
        <ele>89.2</ele>
        <time>2025-10-25T09:39:07Z</time>
      </trkpt>
      <trkpt lat="48.53957" lon="2.07921">
        <ele>89</ele>
        <time>2025-10-25T09:39:09Z</time>
      </trkpt>
      <trkpt lat="48.53955" lon="2.07923">
        <ele>88.8</ele>
        <time>2025-10-25T09:39:11Z</time>
      </trkpt>
      <trkpt lat="48.53953" lon="2.07925">
        <ele>88.8</ele>
        <time>2025-10-25T09:39:13Z</time>
      </trkpt>
      <trkpt lat="48.5395" lon="2.07928">
        <ele>88.6</ele>
        <time>2025-10-25T09:39:15Z</time>
      </trkpt>
      <trkpt lat="48.53948" lon="2.0793">
        <ele>88.6</ele>
        <time>2025-10-25T09:39:17Z</time>
      </trkpt>
      <trkpt lat="48.53946" lon="2.07933">
        <ele>88.4</ele>
        <time>2025-10-25T09:39:19Z</time>
      </trkpt>
      <trkpt lat="48.53944" lon="2.07935">
        <ele>88.4</ele>
        <time>2025-10-25T09:39:21Z</time>
      </trkpt>
      <trkpt lat="48.53942" lon="2.07937">
        <ele>88.4</ele>
        <time>2025-10-25T09:39:23Z</time>
      </trkpt>
      <trkpt lat="48.5394" lon="2.07939">
        <ele>88.2</ele>
        <time>2025-10-25T09:39:25Z</time>
      </trkpt>
      <trkpt lat="48.53938" lon="2.0794">
        <ele>88</ele>
        <time>2025-10-25T09:39:27Z</time>
      </trkpt>
      <trkpt lat="48.53936" lon="2.07942">
        <ele>87.8</ele>
        <time>2025-10-25T09:39:29Z</time>
      </trkpt>
      <trkpt lat="48.53933" lon="2.07944">
        <ele>87.4</ele>
        <time>2025-10-25T09:39:31Z</time>
      </trkpt>
      <trkpt lat="48.5393" lon="2.07945">
        <ele>87.2</ele>
        <time>2025-10-25T09:39:33Z</time>
      </trkpt>
      <trkpt lat="48.53927" lon="2.07947">
        <ele>87</ele>
        <time>2025-10-25T09:39:35Z</time>
      </trkpt>
      <trkpt lat="48.53924" lon="2.07948">
        <ele>86.6</ele>
        <time>2025-10-25T09:39:37Z</time>
      </trkpt>
      <trkpt lat="48.53922" lon="2.0795">
        <ele>86.2</ele>
        <time>2025-10-25T09:39:39Z</time>
      </trkpt>
      <trkpt lat="48.5392" lon="2.07953">
        <ele>85.8</ele>
        <time>2025-10-25T09:39:41Z</time>
      </trkpt>
      <trkpt lat="48.53918" lon="2.07955">
        <ele>85.6</ele>
        <time>2025-10-25T09:39:43Z</time>
      </trkpt>
      <trkpt lat="48.53916" lon="2.07957">
        <ele>85.4</ele>
        <time>2025-10-25T09:39:45Z</time>
      </trkpt>
      <trkpt lat="48.53913" lon="2.07959">
        <ele>85.2</ele>
        <time>2025-10-25T09:39:47Z</time>
      </trkpt>
      <trkpt lat="48.53911" lon="2.07961">
        <ele>85.2</ele>
        <time>2025-10-25T09:39:49Z</time>
      </trkpt>
      <trkpt lat="48.53908" lon="2.07963">
        <ele>85</ele>
        <time>2025-10-25T09:39:51Z</time>
      </trkpt>
      <trkpt lat="48.53906" lon="2.07965">
        <ele>85</ele>
        <time>2025-10-25T09:39:53Z</time>
      </trkpt>
      <trkpt lat="48.53903" lon="2.07967">
        <ele>84.8</ele>
        <time>2025-10-25T09:39:55Z</time>
      </trkpt>
      <trkpt lat="48.539" lon="2.07969">
        <ele>84.6</ele>
        <time>2025-10-25T09:39:57Z</time>
      </trkpt>
      <trkpt lat="48.53898" lon="2.0797">
        <ele>84.4</ele>
        <time>2025-10-25T09:39:59Z</time>
      </trkpt>
      <trkpt lat="48.53895" lon="2.07972">
        <ele>84.2</ele>
        <time>2025-10-25T09:40:01Z</time>
      </trkpt>
      <trkpt lat="48.53892" lon="2.07974">
        <ele>84.2</ele>
        <time>2025-10-25T09:40:03Z</time>
      </trkpt>
      <trkpt lat="48.5389" lon="2.07976">
        <ele>84.2</ele>
        <time>2025-10-25T09:40:05Z</time>
      </trkpt>
      <trkpt lat="48.53887" lon="2.07978">
        <ele>84.2</ele>
        <time>2025-10-25T09:40:07Z</time>
      </trkpt>
      <trkpt lat="48.53884" lon="2.0798">
        <ele>84.2</ele>
        <time>2025-10-25T09:40:09Z</time>
      </trkpt>
      <trkpt lat="48.53882" lon="2.07982">
        <ele>84.2</ele>
        <time>2025-10-25T09:40:11Z</time>
      </trkpt>
      <trkpt lat="48.53879" lon="2.07984">
        <ele>84.2</ele>
        <time>2025-10-25T09:40:13Z</time>
      </trkpt>
      <trkpt lat="48.53876" lon="2.07986">
        <ele>84</ele>
        <time>2025-10-25T09:40:15Z</time>
      </trkpt>
      <trkpt lat="48.53874" lon="2.07986">
        <ele>84</ele>
        <time>2025-10-25T09:40:17Z</time>
      </trkpt>
      <trkpt lat="48.53872" lon="2.07987">
        <ele>84</ele>
        <time>2025-10-25T09:40:20Z</time>
      </trkpt>
      <trkpt lat="48.5387" lon="2.07989">
        <ele>83.6</ele>
        <time>2025-10-25T09:40:24Z</time>
      </trkpt>
      <trkpt lat="48.53868" lon="2.07991">
        <ele>83.6</ele>
        <time>2025-10-25T09:40:26Z</time>
      </trkpt>
      <trkpt lat="48.53865" lon="2.07993">
        <ele>83.4</ele>
        <time>2025-10-25T09:40:28Z</time>
      </trkpt>
      <trkpt lat="48.53862" lon="2.07995">
        <ele>83.4</ele>
        <time>2025-10-25T09:40:30Z</time>
      </trkpt>
      <trkpt lat="48.5386" lon="2.07997">
        <ele>83.4</ele>
        <time>2025-10-25T09:40:32Z</time>
      </trkpt>
      <trkpt lat="48.53857" lon="2.07998">
        <ele>83.4</ele>
        <time>2025-10-25T09:40:34Z</time>
      </trkpt>
      <trkpt lat="48.53854" lon="2.07999">
        <ele>83.4</ele>
        <time>2025-10-25T09:40:36Z</time>
      </trkpt>
      <trkpt lat="48.53852" lon="2.08">
        <ele>83.6</ele>
        <time>2025-10-25T09:40:38Z</time>
      </trkpt>
      <trkpt lat="48.53849" lon="2.08001">
        <ele>83.6</ele>
        <time>2025-10-25T09:40:40Z</time>
      </trkpt>
      <trkpt lat="48.53847" lon="2.08002">
        <ele>83.6</ele>
        <time>2025-10-25T09:40:42Z</time>
      </trkpt>
      <trkpt lat="48.53845" lon="2.08004">
        <ele>83.4</ele>
        <time>2025-10-25T09:40:44Z</time>
      </trkpt>
      <trkpt lat="48.53843" lon="2.08006">
        <ele>83.4</ele>
        <time>2025-10-25T09:40:46Z</time>
      </trkpt>
      <trkpt lat="48.53841" lon="2.08008">
        <ele>83.4</ele>
        <time>2025-10-25T09:40:48Z</time>
      </trkpt>
      <trkpt lat="48.53838" lon="2.0801">
        <ele>83.2</ele>
        <time>2025-10-25T09:40:50Z</time>
      </trkpt>
      <trkpt lat="48.53836" lon="2.08012">
        <ele>83</ele>
        <time>2025-10-25T09:40:52Z</time>
      </trkpt>
      <trkpt lat="48.53833" lon="2.08014">
        <ele>83</ele>
        <time>2025-10-25T09:40:54Z</time>
      </trkpt>
      <trkpt lat="48.53831" lon="2.08016">
        <ele>83</ele>
        <time>2025-10-25T09:40:56Z</time>
      </trkpt>
      <trkpt lat="48.53829" lon="2.08018">
        <ele>83.2</ele>
        <time>2025-10-25T09:40:58Z</time>
      </trkpt>
      <trkpt lat="48.53826" lon="2.0802">
        <ele>83.2</ele>
        <time>2025-10-25T09:41:00Z</time>
      </trkpt>
      <trkpt lat="48.53824" lon="2.08022">
        <ele>83.2</ele>
        <time>2025-10-25T09:41:02Z</time>
      </trkpt>
      <trkpt lat="48.53821" lon="2.08024">
        <ele>83.2</ele>
        <time>2025-10-25T09:41:04Z</time>
      </trkpt>
      <trkpt lat="48.53819" lon="2.08026">
        <ele>83.2</ele>
        <time>2025-10-25T09:41:06Z</time>
      </trkpt>
      <trkpt lat="48.53817" lon="2.08028">
        <ele>83.2</ele>
        <time>2025-10-25T09:41:08Z</time>
      </trkpt>
      <trkpt lat="48.53814" lon="2.0803">
        <ele>83</ele>
        <time>2025-10-25T09:41:10Z</time>
      </trkpt>
      <trkpt lat="48.53812" lon="2.08032">
        <ele>83</ele>
        <time>2025-10-25T09:41:12Z</time>
      </trkpt>
      <trkpt lat="48.5381" lon="2.08034">
        <ele>83</ele>
        <time>2025-10-25T09:41:14Z</time>
      </trkpt>
      <trkpt lat="48.53808" lon="2.08036">
        <ele>82.8</ele>
        <time>2025-10-25T09:41:16Z</time>
      </trkpt>
      <trkpt lat="48.53806" lon="2.08038">
        <ele>83</ele>
        <time>2025-10-25T09:41:18Z</time>
      </trkpt>
      <trkpt lat="48.53804" lon="2.08039">
        <ele>83</ele>
        <time>2025-10-25T09:41:20Z</time>
      </trkpt>
      <trkpt lat="48.53801" lon="2.08041">
        <ele>83</ele>
        <time>2025-10-25T09:41:22Z</time>
      </trkpt>
      <trkpt lat="48.53798" lon="2.08043">
        <ele>82.8</ele>
        <time>2025-10-25T09:41:24Z</time>
      </trkpt>
      <trkpt lat="48.53795" lon="2.08046">
        <ele>82.6</ele>
        <time>2025-10-25T09:41:26Z</time>
      </trkpt>
      <trkpt lat="48.53792" lon="2.08048">
        <ele>82.6</ele>
        <time>2025-10-25T09:41:28Z</time>
      </trkpt>
      <trkpt lat="48.53789" lon="2.0805">
        <ele>82.4</ele>
        <time>2025-10-25T09:41:30Z</time>
      </trkpt>
      <trkpt lat="48.53787" lon="2.08052">
        <ele>82.4</ele>
        <time>2025-10-25T09:41:32Z</time>
      </trkpt>
      <trkpt lat="48.53784" lon="2.08055">
        <ele>82.4</ele>
        <time>2025-10-25T09:41:34Z</time>
      </trkpt>
      <trkpt lat="48.53781" lon="2.08057">
        <ele>82.2</ele>
        <time>2025-10-25T09:41:36Z</time>
      </trkpt>
      <trkpt lat="48.53779" lon="2.08059">
        <ele>82.2</ele>
        <time>2025-10-25T09:41:38Z</time>
      </trkpt>
      <trkpt lat="48.53776" lon="2.08062">
        <ele>82.4</ele>
        <time>2025-10-25T09:41:40Z</time>
      </trkpt>
      <trkpt lat="48.53773" lon="2.08064">
        <ele>82.6</ele>
        <time>2025-10-25T09:41:42Z</time>
      </trkpt>
      <trkpt lat="48.53771" lon="2.08066">
        <ele>82.6</ele>
        <time>2025-10-25T09:41:44Z</time>
      </trkpt>
      <trkpt lat="48.53769" lon="2.08068">
        <ele>82.6</ele>
        <time>2025-10-25T09:41:46Z</time>
      </trkpt>
      <trkpt lat="48.53766" lon="2.08069">
        <ele>82.8</ele>
        <time>2025-10-25T09:41:48Z</time>
      </trkpt>
      <trkpt lat="48.53764" lon="2.08071">
        <ele>82.8</ele>
        <time>2025-10-25T09:41:50Z</time>
      </trkpt>
      <trkpt lat="48.53761" lon="2.08072">
        <ele>83</ele>
        <time>2025-10-25T09:41:52Z</time>
      </trkpt>
      <trkpt lat="48.53759" lon="2.08074">
        <ele>83</ele>
        <time>2025-10-25T09:41:54Z</time>
      </trkpt>
      <trkpt lat="48.53756" lon="2.08076">
        <ele>83</ele>
        <time>2025-10-25T09:41:56Z</time>
      </trkpt>
      <trkpt lat="48.53753" lon="2.08078">
        <ele>83.2</ele>
        <time>2025-10-25T09:41:58Z</time>
      </trkpt>
      <trkpt lat="48.53751" lon="2.08079">
        <ele>83.2</ele>
        <time>2025-10-25T09:42:00Z</time>
      </trkpt>
      <trkpt lat="48.53748" lon="2.08081">
        <ele>83.2</ele>
        <time>2025-10-25T09:42:02Z</time>
      </trkpt>
      <trkpt lat="48.53745" lon="2.08082">
        <ele>83.2</ele>
        <time>2025-10-25T09:42:04Z</time>
      </trkpt>
      <trkpt lat="48.53742" lon="2.08084">
        <ele>83.2</ele>
        <time>2025-10-25T09:42:06Z</time>
      </trkpt>
      <trkpt lat="48.53739" lon="2.08085">
        <ele>83.2</ele>
        <time>2025-10-25T09:42:08Z</time>
      </trkpt>
      <trkpt lat="48.53737" lon="2.08086">
        <ele>83.4</ele>
        <time>2025-10-25T09:42:10Z</time>
      </trkpt>
      <trkpt lat="48.53734" lon="2.08086">
        <ele>83.2</ele>
        <time>2025-10-25T09:42:12Z</time>
      </trkpt>
      <trkpt lat="48.53732" lon="2.08087">
        <ele>83.2</ele>
        <time>2025-10-25T09:42:14Z</time>
      </trkpt>
      <trkpt lat="48.53729" lon="2.08088">
        <ele>83.2</ele>
        <time>2025-10-25T09:42:16Z</time>
      </trkpt>
      <trkpt lat="48.53726" lon="2.08089">
        <ele>83</ele>
        <time>2025-10-25T09:42:18Z</time>
      </trkpt>
      <trkpt lat="48.53724" lon="2.0809">
        <ele>82.8</ele>
        <time>2025-10-25T09:42:20Z</time>
      </trkpt>
      <trkpt lat="48.5372" lon="2.08091">
        <ele>82.8</ele>
        <time>2025-10-25T09:42:22Z</time>
      </trkpt>
      <trkpt lat="48.53718" lon="2.08092">
        <ele>82.6</ele>
        <time>2025-10-25T09:42:24Z</time>
      </trkpt>
      <trkpt lat="48.53715" lon="2.08093">
        <ele>82.4</ele>
        <time>2025-10-25T09:42:26Z</time>
      </trkpt>
      <trkpt lat="48.53712" lon="2.08094">
        <ele>82.4</ele>
        <time>2025-10-25T09:42:28Z</time>
      </trkpt>
      <trkpt lat="48.5371" lon="2.08095">
        <ele>82.4</ele>
        <time>2025-10-25T09:42:30Z</time>
      </trkpt>
      <trkpt lat="48.53707" lon="2.08095">
        <ele>82.4</ele>
        <time>2025-10-25T09:42:32Z</time>
      </trkpt>
      <trkpt lat="48.53704" lon="2.08096">
        <ele>82.2</ele>
        <time>2025-10-25T09:42:34Z</time>
      </trkpt>
      <trkpt lat="48.53701" lon="2.08096">
        <ele>82</ele>
        <time>2025-10-25T09:42:36Z</time>
      </trkpt>
      <trkpt lat="48.53698" lon="2.08097">
        <ele>82</ele>
        <time>2025-10-25T09:42:38Z</time>
      </trkpt>
      <trkpt lat="48.53696" lon="2.08097">
        <ele>82</ele>
        <time>2025-10-25T09:42:40Z</time>
      </trkpt>
      <trkpt lat="48.53692" lon="2.08098">
        <ele>82</ele>
        <time>2025-10-25T09:42:42Z</time>
      </trkpt>
      <trkpt lat="48.53689" lon="2.08098">
        <ele>81.8</ele>
        <time>2025-10-25T09:42:44Z</time>
      </trkpt>
      <trkpt lat="48.53687" lon="2.08098">
        <ele>81.8</ele>
        <time>2025-10-25T09:42:45Z</time>
      </trkpt>
      <trkpt lat="48.53684" lon="2.08098">
        <ele>81.6</ele>
        <time>2025-10-25T09:42:47Z</time>
      </trkpt>
      <trkpt lat="48.53681" lon="2.08099">
        <ele>81.8</ele>
        <time>2025-10-25T09:42:49Z</time>
      </trkpt>
      <trkpt lat="48.53678" lon="2.08099">
        <ele>81.8</ele>
        <time>2025-10-25T09:42:51Z</time>
      </trkpt>
      <trkpt lat="48.53676" lon="2.081">
        <ele>82</ele>
        <time>2025-10-25T09:42:53Z</time>
      </trkpt>
      <trkpt lat="48.53673" lon="2.08102">
        <ele>82</ele>
        <time>2025-10-25T09:42:55Z</time>
      </trkpt>
      <trkpt lat="48.5367" lon="2.08103">
        <ele>82.2</ele>
        <time>2025-10-25T09:42:57Z</time>
      </trkpt>
      <trkpt lat="48.53668" lon="2.08104">
        <ele>82.4</ele>
        <time>2025-10-25T09:42:59Z</time>
      </trkpt>
      <trkpt lat="48.53665" lon="2.08105">
        <ele>82.6</ele>
        <time>2025-10-25T09:43:01Z</time>
      </trkpt>
      <trkpt lat="48.53661" lon="2.08106">
        <ele>82.6</ele>
        <time>2025-10-25T09:43:03Z</time>
      </trkpt>
      <trkpt lat="48.53658" lon="2.08108">
        <ele>82.6</ele>
        <time>2025-10-25T09:43:05Z</time>
      </trkpt>
      <trkpt lat="48.53655" lon="2.08109">
        <ele>82.8</ele>
        <time>2025-10-25T09:43:07Z</time>
      </trkpt>
      <trkpt lat="48.53652" lon="2.08111">
        <ele>82.6</ele>
        <time>2025-10-25T09:43:09Z</time>
      </trkpt>
      <trkpt lat="48.53649" lon="2.08112">
        <ele>82.6</ele>
        <time>2025-10-25T09:43:11Z</time>
      </trkpt>
      <trkpt lat="48.53646" lon="2.08113">
        <ele>82.8</ele>
        <time>2025-10-25T09:43:13Z</time>
      </trkpt>
      <trkpt lat="48.53644" lon="2.08114">
        <ele>82.8</ele>
        <time>2025-10-25T09:43:15Z</time>
      </trkpt>
      <trkpt lat="48.53641" lon="2.08115">
        <ele>82.8</ele>
        <time>2025-10-25T09:43:17Z</time>
      </trkpt>
      <trkpt lat="48.53638" lon="2.08116">
        <ele>82.8</ele>
        <time>2025-10-25T09:43:19Z</time>
      </trkpt>
      <trkpt lat="48.53636" lon="2.08117">
        <ele>82.6</ele>
        <time>2025-10-25T09:43:21Z</time>
      </trkpt>
      <trkpt lat="48.53633" lon="2.08118">
        <ele>82.4</ele>
        <time>2025-10-25T09:43:23Z</time>
      </trkpt>
      <trkpt lat="48.5363" lon="2.08119">
        <ele>82.4</ele>
        <time>2025-10-25T09:43:25Z</time>
      </trkpt>
      <trkpt lat="48.53628" lon="2.08119">
        <ele>82.4</ele>
        <time>2025-10-25T09:43:26Z</time>
      </trkpt>
      <trkpt lat="48.53626" lon="2.0812">
        <ele>82.4</ele>
        <time>2025-10-25T09:43:27Z</time>
      </trkpt>
      <trkpt lat="48.53624" lon="2.0812">
        <ele>82.2</ele>
        <time>2025-10-25T09:43:28Z</time>
      </trkpt>
      <trkpt lat="48.53622" lon="2.0812">
        <ele>82.2</ele>
        <time>2025-10-25T09:43:29Z</time>
      </trkpt>
      <trkpt lat="48.5362" lon="2.08121">
        <ele>82.2</ele>
        <time>2025-10-25T09:43:30Z</time>
      </trkpt>
      <trkpt lat="48.53619" lon="2.08121">
        <ele>82.2</ele>
        <time>2025-10-25T09:43:31Z</time>
      </trkpt>
      <trkpt lat="48.53616" lon="2.08122">
        <ele>82</ele>
        <time>2025-10-25T09:43:33Z</time>
      </trkpt>
      <trkpt lat="48.53614" lon="2.08124">
        <ele>82</ele>
        <time>2025-10-25T09:43:35Z</time>
      </trkpt>
      <trkpt lat="48.53612" lon="2.08127">
        <ele>82</ele>
        <time>2025-10-25T09:43:37Z</time>
      </trkpt>
      <trkpt lat="48.53612" lon="2.08131">
        <ele>82</ele>
        <time>2025-10-25T09:43:39Z</time>
      </trkpt>
      <trkpt lat="48.53611" lon="2.08134">
        <ele>82</ele>
        <time>2025-10-25T09:43:41Z</time>
      </trkpt>
      <trkpt lat="48.5361" lon="2.08138">
        <ele>82.2</ele>
        <time>2025-10-25T09:43:43Z</time>
      </trkpt>
      <trkpt lat="48.53608" lon="2.08142">
        <ele>82.4</ele>
        <time>2025-10-25T09:43:45Z</time>
      </trkpt>
      <trkpt lat="48.53607" lon="2.08146">
        <ele>82.4</ele>
        <time>2025-10-25T09:43:47Z</time>
      </trkpt>
      <trkpt lat="48.53606" lon="2.0815">
        <ele>82.6</ele>
        <time>2025-10-25T09:43:49Z</time>
      </trkpt>
      <trkpt lat="48.53605" lon="2.08153">
        <ele>82.8</ele>
        <time>2025-10-25T09:43:51Z</time>
      </trkpt>
      <trkpt lat="48.53604" lon="2.08157">
        <ele>83</ele>
        <time>2025-10-25T09:43:53Z</time>
      </trkpt>
      <trkpt lat="48.53602" lon="2.08161">
        <ele>83.4</ele>
        <time>2025-10-25T09:43:55Z</time>
      </trkpt>
      <trkpt lat="48.53601" lon="2.08164">
        <ele>83.6</ele>
        <time>2025-10-25T09:43:57Z</time>
      </trkpt>
      <trkpt lat="48.536" lon="2.08168">
        <ele>84</ele>
        <time>2025-10-25T09:43:59Z</time>
      </trkpt>
      <trkpt lat="48.53598" lon="2.08171">
        <ele>84.2</ele>
        <time>2025-10-25T09:44:01Z</time>
      </trkpt>
      <trkpt lat="48.53597" lon="2.08175">
        <ele>84.4</ele>
        <time>2025-10-25T09:44:03Z</time>
      </trkpt>
      <trkpt lat="48.53595" lon="2.08179">
        <ele>84.6</ele>
        <time>2025-10-25T09:44:05Z</time>
      </trkpt>
      <trkpt lat="48.53594" lon="2.08181">
        <ele>84.8</ele>
        <time>2025-10-25T09:44:06Z</time>
      </trkpt>
      <trkpt lat="48.53593" lon="2.08184">
        <ele>85</ele>
        <time>2025-10-25T09:44:07Z</time>
      </trkpt>
      <trkpt lat="48.5359" lon="2.08188">
        <ele>85.4</ele>
        <time>2025-10-25T09:44:09Z</time>
      </trkpt>
      <trkpt lat="48.53588" lon="2.08192">
        <ele>85.8</ele>
        <time>2025-10-25T09:44:11Z</time>
      </trkpt>
      <trkpt lat="48.53587" lon="2.08196">
        <ele>86.4</ele>
        <time>2025-10-25T09:44:13Z</time>
      </trkpt>
      <trkpt lat="48.53585" lon="2.08198">
        <ele>86.6</ele>
        <time>2025-10-25T09:44:14Z</time>
      </trkpt>
      <trkpt lat="48.53584" lon="2.08202">
        <ele>87</ele>
        <time>2025-10-25T09:44:16Z</time>
      </trkpt>
      <trkpt lat="48.53583" lon="2.08204">
        <ele>87.2</ele>
        <time>2025-10-25T09:44:17Z</time>
      </trkpt>
      <trkpt lat="48.53581" lon="2.08208">
        <ele>87.6</ele>
        <time>2025-10-25T09:44:19Z</time>
      </trkpt>
      <trkpt lat="48.53579" lon="2.08211">
        <ele>88</ele>
        <time>2025-10-25T09:44:21Z</time>
      </trkpt>
      <trkpt lat="48.53577" lon="2.08214">
        <ele>88.4</ele>
        <time>2025-10-25T09:44:23Z</time>
      </trkpt>
      <trkpt lat="48.53575" lon="2.08216">
        <ele>88.8</ele>
        <time>2025-10-25T09:44:25Z</time>
      </trkpt>
      <trkpt lat="48.53573" lon="2.08218">
        <ele>89.2</ele>
        <time>2025-10-25T09:44:27Z</time>
      </trkpt>
      <trkpt lat="48.53571" lon="2.0822">
        <ele>89.4</ele>
        <time>2025-10-25T09:44:29Z</time>
      </trkpt>
      <trkpt lat="48.5357" lon="2.08223">
        <ele>89.6</ele>
        <time>2025-10-25T09:44:31Z</time>
      </trkpt>
      <trkpt lat="48.53569" lon="2.08225">
        <ele>89.8</ele>
        <time>2025-10-25T09:44:33Z</time>
      </trkpt>
      <trkpt lat="48.53567" lon="2.08228">
        <ele>89.8</ele>
        <time>2025-10-25T09:44:35Z</time>
      </trkpt>
      <trkpt lat="48.53566" lon="2.0823">
        <ele>89.8</ele>
        <time>2025-10-25T09:44:37Z</time>
      </trkpt>
      <trkpt lat="48.53564" lon="2.08233">
        <ele>90</ele>
        <time>2025-10-25T09:44:39Z</time>
      </trkpt>
      <trkpt lat="48.53563" lon="2.08236">
        <ele>90.4</ele>
        <time>2025-10-25T09:44:41Z</time>
      </trkpt>
      <trkpt lat="48.53562" lon="2.08239">
        <ele>90.6</ele>
        <time>2025-10-25T09:44:43Z</time>
      </trkpt>
      <trkpt lat="48.53561" lon="2.08242">
        <ele>91</ele>
        <time>2025-10-25T09:44:45Z</time>
      </trkpt>
      <trkpt lat="48.5356" lon="2.08245">
        <ele>91.2</ele>
        <time>2025-10-25T09:44:47Z</time>
      </trkpt>
      <trkpt lat="48.53559" lon="2.08249">
        <ele>91.6</ele>
        <time>2025-10-25T09:44:49Z</time>
      </trkpt>
      <trkpt lat="48.53558" lon="2.08253">
        <ele>91.8</ele>
        <time>2025-10-25T09:44:51Z</time>
      </trkpt>
      <trkpt lat="48.53557" lon="2.08256">
        <ele>92</ele>
        <time>2025-10-25T09:44:53Z</time>
      </trkpt>
      <trkpt lat="48.53556" lon="2.0826">
        <ele>92.2</ele>
        <time>2025-10-25T09:44:55Z</time>
      </trkpt>
      <trkpt lat="48.53556" lon="2.08263">
        <ele>92.6</ele>
        <time>2025-10-25T09:44:57Z</time>
      </trkpt>
      <trkpt lat="48.53555" lon="2.08266">
        <ele>92.8</ele>
        <time>2025-10-25T09:44:59Z</time>
      </trkpt>
      <trkpt lat="48.53554" lon="2.08269">
        <ele>93.2</ele>
        <time>2025-10-25T09:45:01Z</time>
      </trkpt>
      <trkpt lat="48.53553" lon="2.08272">
        <ele>93.8</ele>
        <time>2025-10-25T09:45:03Z</time>
      </trkpt>
      <trkpt lat="48.53552" lon="2.08275">
        <ele>94.2</ele>
        <time>2025-10-25T09:45:05Z</time>
      </trkpt>
      <trkpt lat="48.53551" lon="2.08278">
        <ele>94.6</ele>
        <time>2025-10-25T09:45:07Z</time>
      </trkpt>
      <trkpt lat="48.5355" lon="2.08281">
        <ele>95.2</ele>
        <time>2025-10-25T09:45:09Z</time>
      </trkpt>
      <trkpt lat="48.53549" lon="2.08285">
        <ele>95.6</ele>
        <time>2025-10-25T09:45:11Z</time>
      </trkpt>
      <trkpt lat="48.53549" lon="2.08288">
        <ele>96.2</ele>
        <time>2025-10-25T09:45:13Z</time>
      </trkpt>
      <trkpt lat="48.53548" lon="2.08292">
        <ele>96.6</ele>
        <time>2025-10-25T09:45:15Z</time>
      </trkpt>
      <trkpt lat="48.53548" lon="2.08296">
        <ele>97</ele>
        <time>2025-10-25T09:45:17Z</time>
      </trkpt>
      <trkpt lat="48.53548" lon="2.08299">
        <ele>97.6</ele>
        <time>2025-10-25T09:45:19Z</time>
      </trkpt>
      <trkpt lat="48.53549" lon="2.08303">
        <ele>98</ele>
        <time>2025-10-25T09:45:21Z</time>
      </trkpt>
      <trkpt lat="48.53549" lon="2.08307">
        <ele>98.2</ele>
        <time>2025-10-25T09:45:23Z</time>
      </trkpt>
      <trkpt lat="48.53549" lon="2.0831">
        <ele>98.6</ele>
        <time>2025-10-25T09:45:25Z</time>
      </trkpt>
      <trkpt lat="48.5355" lon="2.08315">
        <ele>99</ele>
        <time>2025-10-25T09:45:27Z</time>
      </trkpt>
      <trkpt lat="48.5355" lon="2.0832">
        <ele>99.2</ele>
        <time>2025-10-25T09:45:29Z</time>
      </trkpt>
      <trkpt lat="48.53551" lon="2.08324">
        <ele>99.4</ele>
        <time>2025-10-25T09:45:31Z</time>
      </trkpt>
      <trkpt lat="48.53551" lon="2.08326">
        <ele>99.6</ele>
        <time>2025-10-25T09:45:33Z</time>
      </trkpt>
      <trkpt lat="48.53552" lon="2.0833">
        <ele>100</ele>
        <time>2025-10-25T09:45:36Z</time>
      </trkpt>
      <trkpt lat="48.53551" lon="2.08334">
        <ele>100.2</ele>
        <time>2025-10-25T09:45:38Z</time>
      </trkpt>
      <trkpt lat="48.5355" lon="2.08338">
        <ele>100.6</ele>
        <time>2025-10-25T09:45:40Z</time>
      </trkpt>
      <trkpt lat="48.53549" lon="2.08342">
        <ele>101</ele>
        <time>2025-10-25T09:45:42Z</time>
      </trkpt>
      <trkpt lat="48.53549" lon="2.08347">
        <ele>101.2</ele>
        <time>2025-10-25T09:45:44Z</time>
      </trkpt>
      <trkpt lat="48.53549" lon="2.08351">
        <ele>101.6</ele>
        <time>2025-10-25T09:45:46Z</time>
      </trkpt>
      <trkpt lat="48.53549" lon="2.08355">
        <ele>101.8</ele>
        <time>2025-10-25T09:45:48Z</time>
      </trkpt>
      <trkpt lat="48.53549" lon="2.0836">
        <ele>102.2</ele>
        <time>2025-10-25T09:45:50Z</time>
      </trkpt>
      <trkpt lat="48.53549" lon="2.08364">
        <ele>102.4</ele>
        <time>2025-10-25T09:45:52Z</time>
      </trkpt>
      <trkpt lat="48.5355" lon="2.08369">
        <ele>102.8</ele>
        <time>2025-10-25T09:45:54Z</time>
      </trkpt>
      <trkpt lat="48.5355" lon="2.08373">
        <ele>103</ele>
        <time>2025-10-25T09:45:56Z</time>
      </trkpt>
      <trkpt lat="48.5355" lon="2.08377">
        <ele>103.2</ele>
        <time>2025-10-25T09:45:58Z</time>
      </trkpt>
      <trkpt lat="48.53551" lon="2.0838">
        <ele>103.6</ele>
        <time>2025-10-25T09:46:00Z</time>
      </trkpt>
      <trkpt lat="48.53551" lon="2.08384">
        <ele>103.8</ele>
        <time>2025-10-25T09:46:02Z</time>
      </trkpt>
      <trkpt lat="48.5355" lon="2.08388">
        <ele>104.2</ele>
        <time>2025-10-25T09:46:04Z</time>
      </trkpt>
      <trkpt lat="48.5355" lon="2.08391">
        <ele>104.4</ele>
        <time>2025-10-25T09:46:06Z</time>
      </trkpt>
      <trkpt lat="48.53549" lon="2.08396">
        <ele>104.6</ele>
        <time>2025-10-25T09:46:08Z</time>
      </trkpt>
      <trkpt lat="48.53549" lon="2.08402">
        <ele>104.8</ele>
        <time>2025-10-25T09:46:10Z</time>
      </trkpt>
      <trkpt lat="48.5355" lon="2.08405">
        <ele>105</ele>
        <time>2025-10-25T09:46:11Z</time>
      </trkpt>
      <trkpt lat="48.5355" lon="2.08407">
        <ele>105</ele>
        <time>2025-10-25T09:46:12Z</time>
      </trkpt>
      <trkpt lat="48.53551" lon="2.0841">
        <ele>105.2</ele>
        <time>2025-10-25T09:46:13Z</time>
      </trkpt>
      <trkpt lat="48.53551" lon="2.08415">
        <ele>105.4</ele>
        <time>2025-10-25T09:46:15Z</time>
      </trkpt>
      <trkpt lat="48.53551" lon="2.0842">
        <ele>105.6</ele>
        <time>2025-10-25T09:46:17Z</time>
      </trkpt>
      <trkpt lat="48.53552" lon="2.08424">
        <ele>106</ele>
        <time>2025-10-25T09:46:19Z</time>
      </trkpt>
      <trkpt lat="48.53552" lon="2.08428">
        <ele>106.2</ele>
        <time>2025-10-25T09:46:21Z</time>
      </trkpt>
      <trkpt lat="48.53552" lon="2.08431">
        <ele>106.4</ele>
        <time>2025-10-25T09:46:23Z</time>
      </trkpt>
      <trkpt lat="48.53553" lon="2.08435">
        <ele>106.8</ele>
        <time>2025-10-25T09:46:25Z</time>
      </trkpt>
      <trkpt lat="48.53553" lon="2.08438">
        <ele>107</ele>
        <time>2025-10-25T09:46:27Z</time>
      </trkpt>
      <trkpt lat="48.53553" lon="2.08441">
        <ele>107.2</ele>
        <time>2025-10-25T09:46:29Z</time>
      </trkpt>
      <trkpt lat="48.53553" lon="2.08445">
        <ele>107.4</ele>
        <time>2025-10-25T09:46:31Z</time>
      </trkpt>
      <trkpt lat="48.53553" lon="2.08449">
        <ele>107.8</ele>
        <time>2025-10-25T09:46:33Z</time>
      </trkpt>
      <trkpt lat="48.53552" lon="2.08453">
        <ele>108</ele>
        <time>2025-10-25T09:46:35Z</time>
      </trkpt>
      <trkpt lat="48.53552" lon="2.08457">
        <ele>108.2</ele>
        <time>2025-10-25T09:46:37Z</time>
      </trkpt>
      <trkpt lat="48.53552" lon="2.08463">
        <ele>108.6</ele>
        <time>2025-10-25T09:46:39Z</time>
      </trkpt>
      <trkpt lat="48.53552" lon="2.08465">
        <ele>108.8</ele>
        <time>2025-10-25T09:46:40Z</time>
      </trkpt>
      <trkpt lat="48.53551" lon="2.08468">
        <ele>108.8</ele>
        <time>2025-10-25T09:46:41Z</time>
      </trkpt>
      <trkpt lat="48.5355" lon="2.08471">
        <ele>109</ele>
        <time>2025-10-25T09:46:42Z</time>
      </trkpt>
      <trkpt lat="48.53549" lon="2.08474">
        <ele>109.2</ele>
        <time>2025-10-25T09:46:43Z</time>
      </trkpt>
      <trkpt lat="48.53548" lon="2.08477">
        <ele>109.4</ele>
        <time>2025-10-25T09:46:44Z</time>
      </trkpt>
      <trkpt lat="48.53547" lon="2.08479">
        <ele>109.6</ele>
        <time>2025-10-25T09:46:45Z</time>
      </trkpt>
      <trkpt lat="48.53545" lon="2.08483">
        <ele>109.8</ele>
        <time>2025-10-25T09:46:47Z</time>
      </trkpt>
      <trkpt lat="48.53543" lon="2.08487">
        <ele>110.2</ele>
        <time>2025-10-25T09:46:49Z</time>
      </trkpt>
      <trkpt lat="48.53541" lon="2.08491">
        <ele>110.6</ele>
        <time>2025-10-25T09:46:51Z</time>
      </trkpt>
      <trkpt lat="48.5354" lon="2.08495">
        <ele>111</ele>
        <time>2025-10-25T09:46:53Z</time>
      </trkpt>
      <trkpt lat="48.53539" lon="2.08499">
        <ele>111.4</ele>
        <time>2025-10-25T09:46:55Z</time>
      </trkpt>
      <trkpt lat="48.53539" lon="2.08503">
        <ele>111.8</ele>
        <time>2025-10-25T09:46:57Z</time>
      </trkpt>
      <trkpt lat="48.53539" lon="2.08506">
        <ele>112.2</ele>
        <time>2025-10-25T09:46:59Z</time>
      </trkpt>
      <trkpt lat="48.53539" lon="2.08509">
        <ele>112.4</ele>
        <time>2025-10-25T09:47:01Z</time>
      </trkpt>
      <trkpt lat="48.53538" lon="2.08512">
        <ele>112.8</ele>
        <time>2025-10-25T09:47:03Z</time>
      </trkpt>
      <trkpt lat="48.53537" lon="2.08515">
        <ele>113</ele>
        <time>2025-10-25T09:47:05Z</time>
      </trkpt>
      <trkpt lat="48.53537" lon="2.08518">
        <ele>113.2</ele>
        <time>2025-10-25T09:47:07Z</time>
      </trkpt>
      <trkpt lat="48.53537" lon="2.08521">
        <ele>113.4</ele>
        <time>2025-10-25T09:47:09Z</time>
      </trkpt>
      <trkpt lat="48.53537" lon="2.08524">
        <ele>113.6</ele>
        <time>2025-10-25T09:47:11Z</time>
      </trkpt>
      <trkpt lat="48.53536" lon="2.08527">
        <ele>113.6</ele>
        <time>2025-10-25T09:47:13Z</time>
      </trkpt>
      <trkpt lat="48.53533" lon="2.08531">
        <ele>113.6</ele>
        <time>2025-10-25T09:47:15Z</time>
      </trkpt>
      <trkpt lat="48.53531" lon="2.08535">
        <ele>113.8</ele>
        <time>2025-10-25T09:47:17Z</time>
      </trkpt>
      <trkpt lat="48.53529" lon="2.08538">
        <ele>114</ele>
        <time>2025-10-25T09:47:19Z</time>
      </trkpt>
      <trkpt lat="48.53527" lon="2.08541">
        <ele>114.2</ele>
        <time>2025-10-25T09:47:21Z</time>
      </trkpt>
      <trkpt lat="48.53525" lon="2.08542">
        <ele>114.4</ele>
        <time>2025-10-25T09:47:24Z</time>
      </trkpt>
      <trkpt lat="48.53525" lon="2.08539">
        <ele>114.8</ele>
        <time>2025-10-25T09:47:36Z</time>
      </trkpt>
      <trkpt lat="48.53524" lon="2.08536">
        <ele>115</ele>
        <time>2025-10-25T09:47:39Z</time>
      </trkpt>
      <trkpt lat="48.53523" lon="2.08534">
        <ele>115</ele>
        <time>2025-10-25T09:47:42Z</time>
      </trkpt>
      <trkpt lat="48.53521" lon="2.08531">
        <ele>115.2</ele>
        <time>2025-10-25T09:47:45Z</time>
      </trkpt>
      <trkpt lat="48.5352" lon="2.08527">
        <ele>115.4</ele>
        <time>2025-10-25T09:47:48Z</time>
      </trkpt>
      <trkpt lat="48.53519" lon="2.08525">
        <ele>115.6</ele>
        <time>2025-10-25T09:47:50Z</time>
      </trkpt>
      <trkpt lat="48.53517" lon="2.08523">
        <ele>116</ele>
        <time>2025-10-25T09:47:52Z</time>
      </trkpt>
      <trkpt lat="48.53515" lon="2.08521">
        <ele>116.2</ele>
        <time>2025-10-25T09:47:54Z</time>
      </trkpt>
      <trkpt lat="48.53513" lon="2.08519">
        <ele>116.4</ele>
        <time>2025-10-25T09:47:56Z</time>
      </trkpt>
      <trkpt lat="48.53511" lon="2.08517">
        <ele>116.8</ele>
        <time>2025-10-25T09:47:58Z</time>
      </trkpt>
      <trkpt lat="48.53509" lon="2.08515">
        <ele>117.2</ele>
        <time>2025-10-25T09:48:00Z</time>
      </trkpt>
      <trkpt lat="48.53508" lon="2.08514">
        <ele>117.4</ele>
        <time>2025-10-25T09:48:02Z</time>
      </trkpt>
      <trkpt lat="48.53505" lon="2.08513">
        <ele>117.6</ele>
        <time>2025-10-25T09:48:04Z</time>
      </trkpt>
      <trkpt lat="48.53502" lon="2.08513">
        <ele>118</ele>
        <time>2025-10-25T09:48:06Z</time>
      </trkpt>
      <trkpt lat="48.53499" lon="2.08513">
        <ele>118.4</ele>
        <time>2025-10-25T09:48:08Z</time>
      </trkpt>
      <trkpt lat="48.53497" lon="2.08512">
        <ele>118.8</ele>
        <time>2025-10-25T09:48:10Z</time>
      </trkpt>
      <trkpt lat="48.53495" lon="2.08511">
        <ele>119</ele>
        <time>2025-10-25T09:48:12Z</time>
      </trkpt>
      <trkpt lat="48.53492" lon="2.08509">
        <ele>119.4</ele>
        <time>2025-10-25T09:48:14Z</time>
      </trkpt>
      <trkpt lat="48.53491" lon="2.08508">
        <ele>119.8</ele>
        <time>2025-10-25T09:48:16Z</time>
      </trkpt>
      <trkpt lat="48.53488" lon="2.08506">
        <ele>120.2</ele>
        <time>2025-10-25T09:48:18Z</time>
      </trkpt>
      <trkpt lat="48.53486" lon="2.08505">
        <ele>120.6</ele>
        <time>2025-10-25T09:48:20Z</time>
      </trkpt>
      <trkpt lat="48.53484" lon="2.08503">
        <ele>120.8</ele>
        <time>2025-10-25T09:48:22Z</time>
      </trkpt>
      <trkpt lat="48.53483" lon="2.08502">
        <ele>121</ele>
        <time>2025-10-25T09:48:24Z</time>
      </trkpt>
      <trkpt lat="48.53481" lon="2.085">
        <ele>121.2</ele>
        <time>2025-10-25T09:48:26Z</time>
      </trkpt>
      <trkpt lat="48.53479" lon="2.08499">
        <ele>121.4</ele>
        <time>2025-10-25T09:48:28Z</time>
      </trkpt>
      <trkpt lat="48.53476" lon="2.08498">
        <ele>121.8</ele>
        <time>2025-10-25T09:48:30Z</time>
      </trkpt>
      <trkpt lat="48.53474" lon="2.08496">
        <ele>122</ele>
        <time>2025-10-25T09:48:32Z</time>
      </trkpt>
      <trkpt lat="48.53471" lon="2.08493">
        <ele>122.2</ele>
        <time>2025-10-25T09:48:34Z</time>
      </trkpt>
      <trkpt lat="48.53469" lon="2.08492">
        <ele>122.4</ele>
        <time>2025-10-25T09:48:36Z</time>
      </trkpt>
      <trkpt lat="48.53467" lon="2.0849">
        <ele>122.8</ele>
        <time>2025-10-25T09:48:38Z</time>
      </trkpt>
      <trkpt lat="48.53464" lon="2.08489">
        <ele>123</ele>
        <time>2025-10-25T09:48:40Z</time>
      </trkpt>
      <trkpt lat="48.53461" lon="2.08487">
        <ele>123.4</ele>
        <time>2025-10-25T09:48:42Z</time>
      </trkpt>
      <trkpt lat="48.5346" lon="2.08485">
        <ele>123.6</ele>
        <time>2025-10-25T09:48:44Z</time>
      </trkpt>
      <trkpt lat="48.53458" lon="2.08483">
        <ele>124</ele>
        <time>2025-10-25T09:48:46Z</time>
      </trkpt>
      <trkpt lat="48.53456" lon="2.08482">
        <ele>124.4</ele>
        <time>2025-10-25T09:48:48Z</time>
      </trkpt>
      <trkpt lat="48.53454" lon="2.08481">
        <ele>124.8</ele>
        <time>2025-10-25T09:48:50Z</time>
      </trkpt>
      <trkpt lat="48.53452" lon="2.0848">
        <ele>125.2</ele>
        <time>2025-10-25T09:48:53Z</time>
      </trkpt>
      <trkpt lat="48.53449" lon="2.08479">
        <ele>125.4</ele>
        <time>2025-10-25T09:48:55Z</time>
      </trkpt>
      <trkpt lat="48.53447" lon="2.08479">
        <ele>125.8</ele>
        <time>2025-10-25T09:48:57Z</time>
      </trkpt>
      <trkpt lat="48.53445" lon="2.08478">
        <ele>126</ele>
        <time>2025-10-25T09:48:59Z</time>
      </trkpt>
      <trkpt lat="48.53443" lon="2.08478">
        <ele>126.4</ele>
        <time>2025-10-25T09:49:01Z</time>
      </trkpt>
      <trkpt lat="48.53441" lon="2.08477">
        <ele>126.6</ele>
        <time>2025-10-25T09:49:03Z</time>
      </trkpt>
      <trkpt lat="48.53439" lon="2.08477">
        <ele>127</ele>
        <time>2025-10-25T09:49:05Z</time>
      </trkpt>
      <trkpt lat="48.53436" lon="2.08478">
        <ele>127.4</ele>
        <time>2025-10-25T09:49:07Z</time>
      </trkpt>
      <trkpt lat="48.53433" lon="2.08478">
        <ele>127.8</ele>
        <time>2025-10-25T09:49:09Z</time>
      </trkpt>
      <trkpt lat="48.53431" lon="2.08479">
        <ele>128</ele>
        <time>2025-10-25T09:49:11Z</time>
      </trkpt>
      <trkpt lat="48.53428" lon="2.0848">
        <ele>128.2</ele>
        <time>2025-10-25T09:49:13Z</time>
      </trkpt>
      <trkpt lat="48.53426" lon="2.08481">
        <ele>128.6</ele>
        <time>2025-10-25T09:49:15Z</time>
      </trkpt>
      <trkpt lat="48.53424" lon="2.08483">
        <ele>128.8</ele>
        <time>2025-10-25T09:49:17Z</time>
      </trkpt>
      <trkpt lat="48.53422" lon="2.08484">
        <ele>129</ele>
        <time>2025-10-25T09:49:19Z</time>
      </trkpt>
      <trkpt lat="48.5342" lon="2.08485">
        <ele>129.4</ele>
        <time>2025-10-25T09:49:22Z</time>
      </trkpt>
      <trkpt lat="48.53418" lon="2.08486">
        <ele>129.6</ele>
        <time>2025-10-25T09:49:24Z</time>
      </trkpt>
      <trkpt lat="48.53416" lon="2.08488">
        <ele>130</ele>
        <time>2025-10-25T09:49:26Z</time>
      </trkpt>
      <trkpt lat="48.53414" lon="2.08489">
        <ele>130.2</ele>
        <time>2025-10-25T09:49:28Z</time>
      </trkpt>
      <trkpt lat="48.53412" lon="2.08491">
        <ele>130.4</ele>
        <time>2025-10-25T09:49:30Z</time>
      </trkpt>
      <trkpt lat="48.5341" lon="2.08493">
        <ele>130.8</ele>
        <time>2025-10-25T09:49:32Z</time>
      </trkpt>
      <trkpt lat="48.53408" lon="2.08495">
        <ele>131</ele>
        <time>2025-10-25T09:49:34Z</time>
      </trkpt>
      <trkpt lat="48.53406" lon="2.08496">
        <ele>131.2</ele>
        <time>2025-10-25T09:49:36Z</time>
      </trkpt>
      <trkpt lat="48.53404" lon="2.08498">
        <ele>131.4</ele>
        <time>2025-10-25T09:49:38Z</time>
      </trkpt>
      <trkpt lat="48.53402" lon="2.085">
        <ele>131.8</ele>
        <time>2025-10-25T09:49:40Z</time>
      </trkpt>
      <trkpt lat="48.53399" lon="2.08503">
        <ele>132</ele>
        <time>2025-10-25T09:49:42Z</time>
      </trkpt>
      <trkpt lat="48.53397" lon="2.08504">
        <ele>132.4</ele>
        <time>2025-10-25T09:49:44Z</time>
      </trkpt>
      <trkpt lat="48.53395" lon="2.08505">
        <ele>132.8</ele>
        <time>2025-10-25T09:49:46Z</time>
      </trkpt>
      <trkpt lat="48.53392" lon="2.08507">
        <ele>133</ele>
        <time>2025-10-25T09:49:48Z</time>
      </trkpt>
      <trkpt lat="48.5339" lon="2.08509">
        <ele>133.4</ele>
        <time>2025-10-25T09:49:50Z</time>
      </trkpt>
      <trkpt lat="48.53388" lon="2.08512">
        <ele>133.8</ele>
        <time>2025-10-25T09:49:52Z</time>
      </trkpt>
      <trkpt lat="48.53385" lon="2.08514">
        <ele>134.2</ele>
        <time>2025-10-25T09:49:54Z</time>
      </trkpt>
      <trkpt lat="48.53383" lon="2.08515">
        <ele>134.8</ele>
        <time>2025-10-25T09:49:56Z</time>
      </trkpt>
      <trkpt lat="48.53381" lon="2.08516">
        <ele>135.2</ele>
        <time>2025-10-25T09:49:58Z</time>
      </trkpt>
      <trkpt lat="48.53379" lon="2.08518">
        <ele>135.8</ele>
        <time>2025-10-25T09:50:00Z</time>
      </trkpt>
      <trkpt lat="48.53376" lon="2.0852">
        <ele>136.2</ele>
        <time>2025-10-25T09:50:02Z</time>
      </trkpt>
      <trkpt lat="48.53374" lon="2.08523">
        <ele>136.6</ele>
        <time>2025-10-25T09:50:04Z</time>
      </trkpt>
      <trkpt lat="48.53372" lon="2.08525">
        <ele>137</ele>
        <time>2025-10-25T09:50:06Z</time>
      </trkpt>
      <trkpt lat="48.5337" lon="2.08527">
        <ele>137.2</ele>
        <time>2025-10-25T09:50:08Z</time>
      </trkpt>
      <trkpt lat="48.53368" lon="2.08529">
        <ele>137.6</ele>
        <time>2025-10-25T09:50:10Z</time>
      </trkpt>
      <trkpt lat="48.53366" lon="2.08531">
        <ele>137.8</ele>
        <time>2025-10-25T09:50:12Z</time>
      </trkpt>
      <trkpt lat="48.53364" lon="2.08533">
        <ele>138.2</ele>
        <time>2025-10-25T09:50:14Z</time>
      </trkpt>
      <trkpt lat="48.53363" lon="2.08534">
        <ele>138.4</ele>
        <time>2025-10-25T09:50:16Z</time>
      </trkpt>
      <trkpt lat="48.53361" lon="2.08536">
        <ele>138.8</ele>
        <time>2025-10-25T09:50:19Z</time>
      </trkpt>
      <trkpt lat="48.53358" lon="2.08539">
        <ele>139.2</ele>
        <time>2025-10-25T09:50:22Z</time>
      </trkpt>
      <trkpt lat="48.53357" lon="2.08541">
        <ele>139.4</ele>
        <time>2025-10-25T09:50:24Z</time>
      </trkpt>
      <trkpt lat="48.53356" lon="2.08544">
        <ele>139.6</ele>
        <time>2025-10-25T09:50:26Z</time>
      </trkpt>
      <trkpt lat="48.53355" lon="2.08546">
        <ele>139.8</ele>
        <time>2025-10-25T09:50:28Z</time>
      </trkpt>
      <trkpt lat="48.53353" lon="2.0855">
        <ele>140.2</ele>
        <time>2025-10-25T09:50:31Z</time>
      </trkpt>
      <trkpt lat="48.5335" lon="2.08553">
        <ele>140.4</ele>
        <time>2025-10-25T09:50:33Z</time>
      </trkpt>
      <trkpt lat="48.53348" lon="2.08554">
        <ele>140.4</ele>
        <time>2025-10-25T09:50:34Z</time>
      </trkpt>
      <trkpt lat="48.53347" lon="2.08556">
        <ele>140.6</ele>
        <time>2025-10-25T09:50:35Z</time>
      </trkpt>
      <trkpt lat="48.53344" lon="2.08558">
        <ele>140.8</ele>
        <time>2025-10-25T09:50:37Z</time>
      </trkpt>
      <trkpt lat="48.53342" lon="2.0856">
        <ele>140.8</ele>
        <time>2025-10-25T09:50:39Z</time>
      </trkpt>
      <trkpt lat="48.5334" lon="2.08562">
        <ele>140.8</ele>
        <time>2025-10-25T09:50:41Z</time>
      </trkpt>
      <trkpt lat="48.53338" lon="2.08563">
        <ele>140.8</ele>
        <time>2025-10-25T09:50:43Z</time>
      </trkpt>
      <trkpt lat="48.53336" lon="2.08565">
        <ele>140.6</ele>
        <time>2025-10-25T09:50:46Z</time>
      </trkpt>
      <trkpt lat="48.53333" lon="2.08567">
        <ele>140.6</ele>
        <time>2025-10-25T09:50:49Z</time>
      </trkpt>
      <trkpt lat="48.53331" lon="2.08569">
        <ele>140.6</ele>
        <time>2025-10-25T09:50:51Z</time>
      </trkpt>
      <trkpt lat="48.53328" lon="2.08571">
        <ele>140.8</ele>
        <time>2025-10-25T09:50:53Z</time>
      </trkpt>
      <trkpt lat="48.53327" lon="2.08572">
        <ele>140.8</ele>
        <time>2025-10-25T09:50:54Z</time>
      </trkpt>
      <trkpt lat="48.53325" lon="2.08574">
        <ele>140.8</ele>
        <time>2025-10-25T09:50:55Z</time>
      </trkpt>
      <trkpt lat="48.53324" lon="2.08575">
        <ele>141</ele>
        <time>2025-10-25T09:50:56Z</time>
      </trkpt>
      <trkpt lat="48.53322" lon="2.08576">
        <ele>141</ele>
        <time>2025-10-25T09:50:57Z</time>
      </trkpt>
      <trkpt lat="48.5332" lon="2.08578">
        <ele>141.2</ele>
        <time>2025-10-25T09:50:58Z</time>
      </trkpt>
      <trkpt lat="48.53319" lon="2.08579">
        <ele>141.2</ele>
        <time>2025-10-25T09:50:59Z</time>
      </trkpt>
      <trkpt lat="48.53316" lon="2.08581">
        <ele>141.6</ele>
        <time>2025-10-25T09:51:01Z</time>
      </trkpt>
      <trkpt lat="48.53314" lon="2.08584">
        <ele>141.8</ele>
        <time>2025-10-25T09:51:03Z</time>
      </trkpt>
      <trkpt lat="48.53312" lon="2.08586">
        <ele>142</ele>
        <time>2025-10-25T09:51:05Z</time>
      </trkpt>
      <trkpt lat="48.53309" lon="2.08588">
        <ele>142.4</ele>
        <time>2025-10-25T09:51:07Z</time>
      </trkpt>
      <trkpt lat="48.53308" lon="2.08591">
        <ele>142.6</ele>
        <time>2025-10-25T09:51:09Z</time>
      </trkpt>
      <trkpt lat="48.53306" lon="2.08594">
        <ele>142.8</ele>
        <time>2025-10-25T09:51:11Z</time>
      </trkpt>
      <trkpt lat="48.53304" lon="2.08597">
        <ele>143</ele>
        <time>2025-10-25T09:51:13Z</time>
      </trkpt>
      <trkpt lat="48.53301" lon="2.086">
        <ele>143.2</ele>
        <time>2025-10-25T09:51:15Z</time>
      </trkpt>
      <trkpt lat="48.53299" lon="2.08603">
        <ele>143.4</ele>
        <time>2025-10-25T09:51:17Z</time>
      </trkpt>
      <trkpt lat="48.53297" lon="2.08607">
        <ele>143.6</ele>
        <time>2025-10-25T09:51:19Z</time>
      </trkpt>
      <trkpt lat="48.53296" lon="2.0861">
        <ele>143.6</ele>
        <time>2025-10-25T09:51:21Z</time>
      </trkpt>
      <trkpt lat="48.53295" lon="2.08614">
        <ele>143.8</ele>
        <time>2025-10-25T09:51:23Z</time>
      </trkpt>
      <trkpt lat="48.53294" lon="2.08618">
        <ele>144.2</ele>
        <time>2025-10-25T09:51:25Z</time>
      </trkpt>
      <trkpt lat="48.53292" lon="2.08619">
        <ele>144.2</ele>
        <time>2025-10-25T09:51:26Z</time>
      </trkpt>
      <trkpt lat="48.53291" lon="2.08621">
        <ele>144.4</ele>
        <time>2025-10-25T09:51:27Z</time>
      </trkpt>
      <trkpt lat="48.53289" lon="2.08622">
        <ele>144.4</ele>
        <time>2025-10-25T09:51:28Z</time>
      </trkpt>
      <trkpt lat="48.53286" lon="2.08625">
        <ele>144.8</ele>
        <time>2025-10-25T09:51:30Z</time>
      </trkpt>
      <trkpt lat="48.53284" lon="2.08627">
        <ele>145</ele>
        <time>2025-10-25T09:51:32Z</time>
      </trkpt>
      <trkpt lat="48.53283" lon="2.08629">
        <ele>145.4</ele>
        <time>2025-10-25T09:51:34Z</time>
      </trkpt>
      <trkpt lat="48.53281" lon="2.08631">
        <ele>145.6</ele>
        <time>2025-10-25T09:51:36Z</time>
      </trkpt>
      <trkpt lat="48.53279" lon="2.08634">
        <ele>145.8</ele>
        <time>2025-10-25T09:51:38Z</time>
      </trkpt>
      <trkpt lat="48.53277" lon="2.08637">
        <ele>146.2</ele>
        <time>2025-10-25T09:51:40Z</time>
      </trkpt>
      <trkpt lat="48.53275" lon="2.0864">
        <ele>146.4</ele>
        <time>2025-10-25T09:51:42Z</time>
      </trkpt>
      <trkpt lat="48.53273" lon="2.08643">
        <ele>146.8</ele>
        <time>2025-10-25T09:51:44Z</time>
      </trkpt>
      <trkpt lat="48.53271" lon="2.08646">
        <ele>147.2</ele>
        <time>2025-10-25T09:51:46Z</time>
      </trkpt>
      <trkpt lat="48.53269" lon="2.08649">
        <ele>147.4</ele>
        <time>2025-10-25T09:51:48Z</time>
      </trkpt>
      <trkpt lat="48.53267" lon="2.08651">
        <ele>147.8</ele>
        <time>2025-10-25T09:51:50Z</time>
      </trkpt>
      <trkpt lat="48.53265" lon="2.08652">
        <ele>148.2</ele>
        <time>2025-10-25T09:51:53Z</time>
      </trkpt>
      <trkpt lat="48.53263" lon="2.08654">
        <ele>148.4</ele>
        <time>2025-10-25T09:51:55Z</time>
      </trkpt>
      <trkpt lat="48.53261" lon="2.08655">
        <ele>148.6</ele>
        <time>2025-10-25T09:51:57Z</time>
      </trkpt>
      <trkpt lat="48.53258" lon="2.08657">
        <ele>148.8</ele>
        <time>2025-10-25T09:51:59Z</time>
      </trkpt>
      <trkpt lat="48.53255" lon="2.08659">
        <ele>148.8</ele>
        <time>2025-10-25T09:52:01Z</time>
      </trkpt>
      <trkpt lat="48.53253" lon="2.0866">
        <ele>148.8</ele>
        <time>2025-10-25T09:52:04Z</time>
      </trkpt>
      <trkpt lat="48.53251" lon="2.08662">
        <ele>148.6</ele>
        <time>2025-10-25T09:52:08Z</time>
      </trkpt>
      <trkpt lat="48.53248" lon="2.08664">
        <ele>148.6</ele>
        <time>2025-10-25T09:52:10Z</time>
      </trkpt>
      <trkpt lat="48.53246" lon="2.08665">
        <ele>148.6</ele>
        <time>2025-10-25T09:52:11Z</time>
      </trkpt>
      <trkpt lat="48.53243" lon="2.08668">
        <ele>148.4</ele>
        <time>2025-10-25T09:52:13Z</time>
      </trkpt>
      <trkpt lat="48.53241" lon="2.0867">
        <ele>148</ele>
        <time>2025-10-25T09:52:15Z</time>
      </trkpt>
      <trkpt lat="48.53238" lon="2.08672">
        <ele>147.8</ele>
        <time>2025-10-25T09:52:17Z</time>
      </trkpt>
      <trkpt lat="48.53236" lon="2.08674">
        <ele>147.8</ele>
        <time>2025-10-25T09:52:19Z</time>
      </trkpt>
      <trkpt lat="48.53235" lon="2.08675">
        <ele>147.6</ele>
        <time>2025-10-25T09:52:20Z</time>
      </trkpt>
      <trkpt lat="48.53232" lon="2.08677">
        <ele>147.4</ele>
        <time>2025-10-25T09:52:22Z</time>
      </trkpt>
      <trkpt lat="48.53229" lon="2.0868">
        <ele>147.2</ele>
        <time>2025-10-25T09:52:24Z</time>
      </trkpt>
      <trkpt lat="48.53227" lon="2.08682">
        <ele>147</ele>
        <time>2025-10-25T09:52:26Z</time>
      </trkpt>
      <trkpt lat="48.53225" lon="2.08684">
        <ele>146.8</ele>
        <time>2025-10-25T09:52:27Z</time>
      </trkpt>
      <trkpt lat="48.53223" lon="2.08685">
        <ele>146.6</ele>
        <time>2025-10-25T09:52:28Z</time>
      </trkpt>
      <trkpt lat="48.53221" lon="2.08687">
        <ele>146.4</ele>
        <time>2025-10-25T09:52:29Z</time>
      </trkpt>
      <trkpt lat="48.5322" lon="2.08688">
        <ele>146.4</ele>
        <time>2025-10-25T09:52:30Z</time>
      </trkpt>
      <trkpt lat="48.53217" lon="2.08691">
        <ele>146.2</ele>
        <time>2025-10-25T09:52:32Z</time>
      </trkpt>
      <trkpt lat="48.53215" lon="2.08693">
        <ele>146</ele>
        <time>2025-10-25T09:52:33Z</time>
      </trkpt>
      <trkpt lat="48.53214" lon="2.08695">
        <ele>146</ele>
        <time>2025-10-25T09:52:34Z</time>
      </trkpt>
      <trkpt lat="48.53212" lon="2.08697">
        <ele>146</ele>
        <time>2025-10-25T09:52:35Z</time>
      </trkpt>
      <trkpt lat="48.53211" lon="2.08699">
        <ele>146</ele>
        <time>2025-10-25T09:52:36Z</time>
      </trkpt>
      <trkpt lat="48.53209" lon="2.08701">
        <ele>146</ele>
        <time>2025-10-25T09:52:37Z</time>
      </trkpt>
      <trkpt lat="48.53207" lon="2.08704">
        <ele>146</ele>
        <time>2025-10-25T09:52:39Z</time>
      </trkpt>
      <trkpt lat="48.53205" lon="2.08706">
        <ele>146</ele>
        <time>2025-10-25T09:52:41Z</time>
      </trkpt>
      <trkpt lat="48.53204" lon="2.0871">
        <ele>146.2</ele>
        <time>2025-10-25T09:52:43Z</time>
      </trkpt>
      <trkpt lat="48.53201" lon="2.08713">
        <ele>146.2</ele>
        <time>2025-10-25T09:52:45Z</time>
      </trkpt>
      <trkpt lat="48.53199" lon="2.08714">
        <ele>146.2</ele>
        <time>2025-10-25T09:52:46Z</time>
      </trkpt>
      <trkpt lat="48.53197" lon="2.08716">
        <ele>146.4</ele>
        <time>2025-10-25T09:52:47Z</time>
      </trkpt>
      <trkpt lat="48.53196" lon="2.08717">
        <ele>146.4</ele>
        <time>2025-10-25T09:52:48Z</time>
      </trkpt>
      <trkpt lat="48.53194" lon="2.08719">
        <ele>146.6</ele>
        <time>2025-10-25T09:52:49Z</time>
      </trkpt>
      <trkpt lat="48.53191" lon="2.08723">
        <ele>146.8</ele>
        <time>2025-10-25T09:52:51Z</time>
      </trkpt>
      <trkpt lat="48.53189" lon="2.08724">
        <ele>146.8</ele>
        <time>2025-10-25T09:52:52Z</time>
      </trkpt>
      <trkpt lat="48.53188" lon="2.08726">
        <ele>147</ele>
        <time>2025-10-25T09:52:53Z</time>
      </trkpt>
      <trkpt lat="48.53186" lon="2.08728">
        <ele>147.2</ele>
        <time>2025-10-25T09:52:55Z</time>
      </trkpt>
      <trkpt lat="48.53183" lon="2.08731">
        <ele>147.4</ele>
        <time>2025-10-25T09:52:57Z</time>
      </trkpt>
      <trkpt lat="48.53181" lon="2.08733">
        <ele>147.8</ele>
        <time>2025-10-25T09:52:59Z</time>
      </trkpt>
      <trkpt lat="48.53179" lon="2.08734">
        <ele>147.8</ele>
        <time>2025-10-25T09:53:00Z</time>
      </trkpt>
      <trkpt lat="48.53177" lon="2.08736">
        <ele>148</ele>
        <time>2025-10-25T09:53:02Z</time>
      </trkpt>
      <trkpt lat="48.53174" lon="2.08739">
        <ele>148.2</ele>
        <time>2025-10-25T09:53:04Z</time>
      </trkpt>
      <trkpt lat="48.53172" lon="2.08741">
        <ele>148.6</ele>
        <time>2025-10-25T09:53:06Z</time>
      </trkpt>
      <trkpt lat="48.5317" lon="2.08743">
        <ele>148.8</ele>
        <time>2025-10-25T09:53:08Z</time>
      </trkpt>
      <trkpt lat="48.53168" lon="2.08745">
        <ele>149.2</ele>
        <time>2025-10-25T09:53:10Z</time>
      </trkpt>
      <trkpt lat="48.53166" lon="2.08747">
        <ele>149.6</ele>
        <time>2025-10-25T09:53:12Z</time>
      </trkpt>
      <trkpt lat="48.53164" lon="2.0875">
        <ele>149.8</ele>
        <time>2025-10-25T09:53:14Z</time>
      </trkpt>
      <trkpt lat="48.53162" lon="2.08754">
        <ele>150.2</ele>
        <time>2025-10-25T09:53:16Z</time>
      </trkpt>
      <trkpt lat="48.5316" lon="2.08756">
        <ele>150.2</ele>
        <time>2025-10-25T09:53:17Z</time>
      </trkpt>
      <trkpt lat="48.53158" lon="2.0876">
        <ele>150.4</ele>
        <time>2025-10-25T09:53:19Z</time>
      </trkpt>
      <trkpt lat="48.53155" lon="2.08764">
        <ele>150.6</ele>
        <time>2025-10-25T09:53:21Z</time>
      </trkpt>
      <trkpt lat="48.53154" lon="2.08766">
        <ele>150.8</ele>
        <time>2025-10-25T09:53:22Z</time>
      </trkpt>
      <trkpt lat="48.53152" lon="2.08769">
        <ele>151</ele>
        <time>2025-10-25T09:53:24Z</time>
      </trkpt>
      <trkpt lat="48.53149" lon="2.08772">
        <ele>151.2</ele>
        <time>2025-10-25T09:53:26Z</time>
      </trkpt>
      <trkpt lat="48.53148" lon="2.08775">
        <ele>151.6</ele>
        <time>2025-10-25T09:53:28Z</time>
      </trkpt>
      <trkpt lat="48.53146" lon="2.08779">
        <ele>152</ele>
        <time>2025-10-25T09:53:30Z</time>
      </trkpt>
      <trkpt lat="48.53144" lon="2.08782">
        <ele>152.4</ele>
        <time>2025-10-25T09:53:32Z</time>
      </trkpt>
      <trkpt lat="48.53142" lon="2.08785">
        <ele>152.8</ele>
        <time>2025-10-25T09:53:34Z</time>
      </trkpt>
      <trkpt lat="48.5314" lon="2.08787">
        <ele>153.2</ele>
        <time>2025-10-25T09:53:36Z</time>
      </trkpt>
      <trkpt lat="48.53139" lon="2.0879">
        <ele>153.6</ele>
        <time>2025-10-25T09:53:38Z</time>
      </trkpt>
      <trkpt lat="48.53137" lon="2.08792">
        <ele>154</ele>
        <time>2025-10-25T09:53:40Z</time>
      </trkpt>
      <trkpt lat="48.53134" lon="2.08794">
        <ele>154.2</ele>
        <time>2025-10-25T09:53:42Z</time>
      </trkpt>
      <trkpt lat="48.53132" lon="2.08797">
        <ele>154.4</ele>
        <time>2025-10-25T09:53:44Z</time>
      </trkpt>
      <trkpt lat="48.5313" lon="2.088">
        <ele>154.6</ele>
        <time>2025-10-25T09:53:46Z</time>
      </trkpt>
      <trkpt lat="48.53128" lon="2.08803">
        <ele>155</ele>
        <time>2025-10-25T09:53:48Z</time>
      </trkpt>
      <trkpt lat="48.53125" lon="2.08806">
        <ele>155.2</ele>
        <time>2025-10-25T09:53:50Z</time>
      </trkpt>
      <trkpt lat="48.53123" lon="2.08809">
        <ele>155.4</ele>
        <time>2025-10-25T09:53:52Z</time>
      </trkpt>
      <trkpt lat="48.53121" lon="2.08812">
        <ele>155.6</ele>
        <time>2025-10-25T09:53:54Z</time>
      </trkpt>
      <trkpt lat="48.53119" lon="2.08814">
        <ele>156</ele>
        <time>2025-10-25T09:53:56Z</time>
      </trkpt>
      <trkpt lat="48.53117" lon="2.08816">
        <ele>156.2</ele>
        <time>2025-10-25T09:54:00Z</time>
      </trkpt>
      <trkpt lat="48.53115" lon="2.08818">
        <ele>156.2</ele>
        <time>2025-10-25T09:54:03Z</time>
      </trkpt>
      <trkpt lat="48.53113" lon="2.0882">
        <ele>156.2</ele>
        <time>2025-10-25T09:54:05Z</time>
      </trkpt>
      <trkpt lat="48.53111" lon="2.08823">
        <ele>156.2</ele>
        <time>2025-10-25T09:54:07Z</time>
      </trkpt>
      <trkpt lat="48.53108" lon="2.08825">
        <ele>156</ele>
        <time>2025-10-25T09:54:09Z</time>
      </trkpt>
      <trkpt lat="48.53106" lon="2.08828">
        <ele>156</ele>
        <time>2025-10-25T09:54:11Z</time>
      </trkpt>
      <trkpt lat="48.53103" lon="2.08831">
        <ele>155.8</ele>
        <time>2025-10-25T09:54:13Z</time>
      </trkpt>
      <trkpt lat="48.531" lon="2.08833">
        <ele>155.4</ele>
        <time>2025-10-25T09:54:15Z</time>
      </trkpt>
      <trkpt lat="48.53098" lon="2.08835">
        <ele>155.2</ele>
        <time>2025-10-25T09:54:16Z</time>
      </trkpt>
      <trkpt lat="48.53095" lon="2.08837">
        <ele>155</ele>
        <time>2025-10-25T09:54:18Z</time>
      </trkpt>
      <trkpt lat="48.53092" lon="2.08839">
        <ele>154.6</ele>
        <time>2025-10-25T09:54:20Z</time>
      </trkpt>
      <trkpt lat="48.5309" lon="2.08841">
        <ele>154.2</ele>
        <time>2025-10-25T09:54:22Z</time>
      </trkpt>
      <trkpt lat="48.53087" lon="2.08844">
        <ele>153.8</ele>
        <time>2025-10-25T09:54:24Z</time>
      </trkpt>
      <trkpt lat="48.53084" lon="2.08847">
        <ele>153.6</ele>
        <time>2025-10-25T09:54:26Z</time>
      </trkpt>
      <trkpt lat="48.53081" lon="2.08848">
        <ele>153.4</ele>
        <time>2025-10-25T09:54:27Z</time>
      </trkpt>
      <trkpt lat="48.53079" lon="2.08849">
        <ele>153.2</ele>
        <time>2025-10-25T09:54:28Z</time>
      </trkpt>
      <trkpt lat="48.53076" lon="2.08852">
        <ele>153</ele>
        <time>2025-10-25T09:54:30Z</time>
      </trkpt>
      <trkpt lat="48.53072" lon="2.08854">
        <ele>152.6</ele>
        <time>2025-10-25T09:54:32Z</time>
      </trkpt>
      <trkpt lat="48.5307" lon="2.08855">
        <ele>152.6</ele>
        <time>2025-10-25T09:54:33Z</time>
      </trkpt>
      <trkpt lat="48.53068" lon="2.08856">
        <ele>152.4</ele>
        <time>2025-10-25T09:54:34Z</time>
      </trkpt>
      <trkpt lat="48.53065" lon="2.08858">
        <ele>152</ele>
        <time>2025-10-25T09:54:36Z</time>
      </trkpt>
      <trkpt lat="48.53063" lon="2.0886">
        <ele>151.8</ele>
        <time>2025-10-25T09:54:38Z</time>
      </trkpt>
      <trkpt lat="48.5306" lon="2.08861">
        <ele>151.4</ele>
        <time>2025-10-25T09:54:40Z</time>
      </trkpt>
      <trkpt lat="48.53058" lon="2.08862">
        <ele>151.2</ele>
        <time>2025-10-25T09:54:42Z</time>
      </trkpt>
      <trkpt lat="48.53056" lon="2.08863">
        <ele>151</ele>
        <time>2025-10-25T09:54:44Z</time>
      </trkpt>
      <trkpt lat="48.53053" lon="2.08865">
        <ele>150.8</ele>
        <time>2025-10-25T09:54:46Z</time>
      </trkpt>
      <trkpt lat="48.53051" lon="2.08867">
        <ele>150.4</ele>
        <time>2025-10-25T09:54:48Z</time>
      </trkpt>
      <trkpt lat="48.53048" lon="2.08869">
        <ele>150.2</ele>
        <time>2025-10-25T09:54:50Z</time>
      </trkpt>
      <trkpt lat="48.53046" lon="2.08871">
        <ele>150</ele>
        <time>2025-10-25T09:54:52Z</time>
      </trkpt>
      <trkpt lat="48.53044" lon="2.08872">
        <ele>149.8</ele>
        <time>2025-10-25T09:54:54Z</time>
      </trkpt>
      <trkpt lat="48.53041" lon="2.08874">
        <ele>149.8</ele>
        <time>2025-10-25T09:54:56Z</time>
      </trkpt>
      <trkpt lat="48.53038" lon="2.08875">
        <ele>149.6</ele>
        <time>2025-10-25T09:54:58Z</time>
      </trkpt>
      <trkpt lat="48.53036" lon="2.08876">
        <ele>149.4</ele>
        <time>2025-10-25T09:54:59Z</time>
      </trkpt>
      <trkpt lat="48.53034" lon="2.08878">
        <ele>149.4</ele>
        <time>2025-10-25T09:55:01Z</time>
      </trkpt>
      <trkpt lat="48.53031" lon="2.08879">
        <ele>149</ele>
        <time>2025-10-25T09:55:03Z</time>
      </trkpt>
      <trkpt lat="48.53029" lon="2.0888">
        <ele>148.6</ele>
        <time>2025-10-25T09:55:06Z</time>
      </trkpt>
      <trkpt lat="48.53027" lon="2.08882">
        <ele>148.2</ele>
        <time>2025-10-25T09:55:09Z</time>
      </trkpt>
      <trkpt lat="48.53025" lon="2.08884">
        <ele>148</ele>
        <time>2025-10-25T09:55:11Z</time>
      </trkpt>
      <trkpt lat="48.53023" lon="2.08885">
        <ele>147.8</ele>
        <time>2025-10-25T09:55:13Z</time>
      </trkpt>
      <trkpt lat="48.53021" lon="2.08886">
        <ele>147.6</ele>
        <time>2025-10-25T09:55:15Z</time>
      </trkpt>
      <trkpt lat="48.53018" lon="2.08888">
        <ele>147.2</ele>
        <time>2025-10-25T09:55:17Z</time>
      </trkpt>
      <trkpt lat="48.53016" lon="2.08889">
        <ele>147.2</ele>
        <time>2025-10-25T09:55:18Z</time>
      </trkpt>
      <trkpt lat="48.53013" lon="2.08891">
        <ele>147</ele>
        <time>2025-10-25T09:55:20Z</time>
      </trkpt>
      <trkpt lat="48.53011" lon="2.08892">
        <ele>146.8</ele>
        <time>2025-10-25T09:55:21Z</time>
      </trkpt>
      <trkpt lat="48.53009" lon="2.08893">
        <ele>146.8</ele>
        <time>2025-10-25T09:55:22Z</time>
      </trkpt>
      <trkpt lat="48.53007" lon="2.08894">
        <ele>146.6</ele>
        <time>2025-10-25T09:55:23Z</time>
      </trkpt>
      <trkpt lat="48.53005" lon="2.08895">
        <ele>146.6</ele>
        <time>2025-10-25T09:55:24Z</time>
      </trkpt>
      <trkpt lat="48.53003" lon="2.08896">
        <ele>146.4</ele>
        <time>2025-10-25T09:55:25Z</time>
      </trkpt>
      <trkpt lat="48.53001" lon="2.08897">
        <ele>146.4</ele>
        <time>2025-10-25T09:55:26Z</time>
      </trkpt>
      <trkpt lat="48.52998" lon="2.08899">
        <ele>146.2</ele>
        <time>2025-10-25T09:55:28Z</time>
      </trkpt>
      <trkpt lat="48.52995" lon="2.08902">
        <ele>146.2</ele>
        <time>2025-10-25T09:55:30Z</time>
      </trkpt>
      <trkpt lat="48.52993" lon="2.08903">
        <ele>146</ele>
        <time>2025-10-25T09:55:31Z</time>
      </trkpt>
      <trkpt lat="48.52991" lon="2.08904">
        <ele>146</ele>
        <time>2025-10-25T09:55:32Z</time>
      </trkpt>
      <trkpt lat="48.52989" lon="2.08905">
        <ele>145.8</ele>
        <time>2025-10-25T09:55:33Z</time>
      </trkpt>
      <trkpt lat="48.52988" lon="2.08907">
        <ele>145.8</ele>
        <time>2025-10-25T09:55:34Z</time>
      </trkpt>
      <trkpt lat="48.52986" lon="2.08908">
        <ele>145.6</ele>
        <time>2025-10-25T09:55:35Z</time>
      </trkpt>
      <trkpt lat="48.52984" lon="2.08909">
        <ele>145.6</ele>
        <time>2025-10-25T09:55:36Z</time>
      </trkpt>
      <trkpt lat="48.52982" lon="2.08911">
        <ele>145.4</ele>
        <time>2025-10-25T09:55:37Z</time>
      </trkpt>
      <trkpt lat="48.5298" lon="2.08912">
        <ele>145.4</ele>
        <time>2025-10-25T09:55:38Z</time>
      </trkpt>
      <trkpt lat="48.52978" lon="2.08914">
        <ele>145.2</ele>
        <time>2025-10-25T09:55:40Z</time>
      </trkpt>
      <trkpt lat="48.52975" lon="2.08916">
        <ele>145</ele>
        <time>2025-10-25T09:55:42Z</time>
      </trkpt>
      <trkpt lat="48.52972" lon="2.08918">
        <ele>144.8</ele>
        <time>2025-10-25T09:55:44Z</time>
      </trkpt>
      <trkpt lat="48.52969" lon="2.08921">
        <ele>144.6</ele>
        <time>2025-10-25T09:55:46Z</time>
      </trkpt>
      <trkpt lat="48.52967" lon="2.08923">
        <ele>144.4</ele>
        <time>2025-10-25T09:55:48Z</time>
      </trkpt>
      <trkpt lat="48.52965" lon="2.08925">
        <ele>144.4</ele>
        <time>2025-10-25T09:55:50Z</time>
      </trkpt>
      <trkpt lat="48.52963" lon="2.08927">
        <ele>144.4</ele>
        <time>2025-10-25T09:55:52Z</time>
      </trkpt>
      <trkpt lat="48.52961" lon="2.08929">
        <ele>144.2</ele>
        <time>2025-10-25T09:55:54Z</time>
      </trkpt>
      <trkpt lat="48.52958" lon="2.08931">
        <ele>144.2</ele>
        <time>2025-10-25T09:55:56Z</time>
      </trkpt>
      <trkpt lat="48.52956" lon="2.08934">
        <ele>144.2</ele>
        <time>2025-10-25T09:55:58Z</time>
      </trkpt>
      <trkpt lat="48.52954" lon="2.08937">
        <ele>144</ele>
        <time>2025-10-25T09:56:00Z</time>
      </trkpt>
      <trkpt lat="48.52951" lon="2.0894">
        <ele>144</ele>
        <time>2025-10-25T09:56:02Z</time>
      </trkpt>
      <trkpt lat="48.52949" lon="2.08943">
        <ele>143.8</ele>
        <time>2025-10-25T09:56:04Z</time>
      </trkpt>
      <trkpt lat="48.52947" lon="2.08946">
        <ele>143.8</ele>
        <time>2025-10-25T09:56:06Z</time>
      </trkpt>
      <trkpt lat="48.52944" lon="2.08949">
        <ele>143.6</ele>
        <time>2025-10-25T09:56:08Z</time>
      </trkpt>
      <trkpt lat="48.52941" lon="2.08951">
        <ele>143.6</ele>
        <time>2025-10-25T09:56:10Z</time>
      </trkpt>
      <trkpt lat="48.52939" lon="2.08953">
        <ele>143.6</ele>
        <time>2025-10-25T09:56:12Z</time>
      </trkpt>
      <trkpt lat="48.52937" lon="2.08954">
        <ele>143.4</ele>
        <time>2025-10-25T09:56:14Z</time>
      </trkpt>
      <trkpt lat="48.52935" lon="2.08955">
        <ele>143.4</ele>
        <time>2025-10-25T09:56:17Z</time>
      </trkpt>
      <trkpt lat="48.52933" lon="2.08956">
        <ele>143.6</ele>
        <time>2025-10-25T09:56:22Z</time>
      </trkpt>
      <trkpt lat="48.52931" lon="2.08958">
        <ele>143.4</ele>
        <time>2025-10-25T09:56:27Z</time>
      </trkpt>
      <trkpt lat="48.5293" lon="2.0896">
        <ele>142.6</ele>
        <time>2025-10-25T09:56:57Z</time>
      </trkpt>
      <trkpt lat="48.52928" lon="2.08962">
        <ele>142.4</ele>
        <time>2025-10-25T09:57:02Z</time>
      </trkpt>
      <trkpt lat="48.52926" lon="2.08965">
        <ele>142.2</ele>
        <time>2025-10-25T09:57:04Z</time>
      </trkpt>
      <trkpt lat="48.52924" lon="2.08968">
        <ele>142.2</ele>
        <time>2025-10-25T09:57:06Z</time>
      </trkpt>
      <trkpt lat="48.52922" lon="2.0897">
        <ele>142.2</ele>
        <time>2025-10-25T09:57:07Z</time>
      </trkpt>
      <trkpt lat="48.5292" lon="2.08972">
        <ele>142.2</ele>
        <time>2025-10-25T09:57:09Z</time>
      </trkpt>
      <trkpt lat="48.52918" lon="2.08974">
        <ele>142.2</ele>
        <time>2025-10-25T09:57:11Z</time>
      </trkpt>
      <trkpt lat="48.52917" lon="2.08975">
        <ele>142.4</ele>
        <time>2025-10-25T09:57:13Z</time>
      </trkpt>
      <trkpt lat="48.52915" lon="2.08977">
        <ele>142.4</ele>
        <time>2025-10-25T09:57:15Z</time>
      </trkpt>
      <trkpt lat="48.52913" lon="2.0898">
        <ele>142.6</ele>
        <time>2025-10-25T09:57:17Z</time>
      </trkpt>
      <trkpt lat="48.52911" lon="2.08983">
        <ele>142.6</ele>
        <time>2025-10-25T09:57:19Z</time>
      </trkpt>
      <trkpt lat="48.52909" lon="2.08987">
        <ele>142.6</ele>
        <time>2025-10-25T09:57:21Z</time>
      </trkpt>
      <trkpt lat="48.52907" lon="2.0899">
        <ele>142.8</ele>
        <time>2025-10-25T09:57:23Z</time>
      </trkpt>
      <trkpt lat="48.52905" lon="2.08993">
        <ele>143</ele>
        <time>2025-10-25T09:57:25Z</time>
      </trkpt>
      <trkpt lat="48.52903" lon="2.08996">
        <ele>143.2</ele>
        <time>2025-10-25T09:57:27Z</time>
      </trkpt>
      <trkpt lat="48.52901" lon="2.09">
        <ele>143.4</ele>
        <time>2025-10-25T09:57:29Z</time>
      </trkpt>
      <trkpt lat="48.529" lon="2.09003">
        <ele>143.4</ele>
        <time>2025-10-25T09:57:31Z</time>
      </trkpt>
      <trkpt lat="48.52898" lon="2.09007">
        <ele>143.6</ele>
        <time>2025-10-25T09:57:33Z</time>
      </trkpt>
      <trkpt lat="48.52896" lon="2.0901">
        <ele>143.6</ele>
        <time>2025-10-25T09:57:35Z</time>
      </trkpt>
      <trkpt lat="48.52895" lon="2.09014">
        <ele>143.8</ele>
        <time>2025-10-25T09:57:37Z</time>
      </trkpt>
      <trkpt lat="48.52893" lon="2.09018">
        <ele>143.8</ele>
        <time>2025-10-25T09:57:39Z</time>
      </trkpt>
      <trkpt lat="48.52892" lon="2.09022">
        <ele>144</ele>
        <time>2025-10-25T09:57:41Z</time>
      </trkpt>
      <trkpt lat="48.52889" lon="2.09026">
        <ele>144</ele>
        <time>2025-10-25T09:57:43Z</time>
      </trkpt>
      <trkpt lat="48.52887" lon="2.09029">
        <ele>144</ele>
        <time>2025-10-25T09:57:45Z</time>
      </trkpt>
      <trkpt lat="48.52885" lon="2.09033">
        <ele>144</ele>
        <time>2025-10-25T09:57:47Z</time>
      </trkpt>
      <trkpt lat="48.52885" lon="2.09037">
        <ele>144</ele>
        <time>2025-10-25T09:57:49Z</time>
      </trkpt>
      <trkpt lat="48.52885" lon="2.0904">
        <ele>143.8</ele>
        <time>2025-10-25T09:57:51Z</time>
      </trkpt>
      <trkpt lat="48.52887" lon="2.09042">
        <ele>143.6</ele>
        <time>2025-10-25T09:57:54Z</time>
      </trkpt>
      <trkpt lat="48.5289" lon="2.09042">
        <ele>143.4</ele>
        <time>2025-10-25T09:57:56Z</time>
      </trkpt>
      <trkpt lat="48.52892" lon="2.09041">
        <ele>143.2</ele>
        <time>2025-10-25T09:57:58Z</time>
      </trkpt>
      <trkpt lat="48.52895" lon="2.0904">
        <ele>143</ele>
        <time>2025-10-25T09:58:00Z</time>
      </trkpt>
      <trkpt lat="48.52898" lon="2.09039">
        <ele>142.8</ele>
        <time>2025-10-25T09:58:02Z</time>
      </trkpt>
      <trkpt lat="48.529" lon="2.09039">
        <ele>142.8</ele>
        <time>2025-10-25T09:58:04Z</time>
      </trkpt>
      <trkpt lat="48.52903" lon="2.0904">
        <ele>142.8</ele>
        <time>2025-10-25T09:58:06Z</time>
      </trkpt>
      <trkpt lat="48.52905" lon="2.09041">
        <ele>142.8</ele>
        <time>2025-10-25T09:58:08Z</time>
      </trkpt>
      <trkpt lat="48.52907" lon="2.09043">
        <ele>142.8</ele>
        <time>2025-10-25T09:58:10Z</time>
      </trkpt>
      <trkpt lat="48.52909" lon="2.09045">
        <ele>142.8</ele>
        <time>2025-10-25T09:58:12Z</time>
      </trkpt>
      <trkpt lat="48.5291" lon="2.09047">
        <ele>142.8</ele>
        <time>2025-10-25T09:58:14Z</time>
      </trkpt>
      <trkpt lat="48.52912" lon="2.09049">
        <ele>143</ele>
        <time>2025-10-25T09:58:16Z</time>
      </trkpt>
      <trkpt lat="48.52913" lon="2.09052">
        <ele>143.2</ele>
        <time>2025-10-25T09:58:18Z</time>
      </trkpt>
      <trkpt lat="48.52914" lon="2.09055">
        <ele>143.6</ele>
        <time>2025-10-25T09:58:20Z</time>
      </trkpt>
      <trkpt lat="48.52914" lon="2.09058">
        <ele>143.8</ele>
        <time>2025-10-25T09:58:22Z</time>
      </trkpt>
      <trkpt lat="48.52915" lon="2.09062">
        <ele>144</ele>
        <time>2025-10-25T09:58:24Z</time>
      </trkpt>
      <trkpt lat="48.52915" lon="2.09066">
        <ele>144.4</ele>
        <time>2025-10-25T09:58:26Z</time>
      </trkpt>
      <trkpt lat="48.52915" lon="2.0907">
        <ele>144.6</ele>
        <time>2025-10-25T09:58:28Z</time>
      </trkpt>
      <trkpt lat="48.52914" lon="2.09074">
        <ele>145</ele>
        <time>2025-10-25T09:58:30Z</time>
      </trkpt>
      <trkpt lat="48.52913" lon="2.09079">
        <ele>145.4</ele>
        <time>2025-10-25T09:58:32Z</time>
      </trkpt>
      <trkpt lat="48.52913" lon="2.09083">
        <ele>145.8</ele>
        <time>2025-10-25T09:58:34Z</time>
      </trkpt>
      <trkpt lat="48.52911" lon="2.09087">
        <ele>146.2</ele>
        <time>2025-10-25T09:58:36Z</time>
      </trkpt>
      <trkpt lat="48.5291" lon="2.09091">
        <ele>146.8</ele>
        <time>2025-10-25T09:58:38Z</time>
      </trkpt>
      <trkpt lat="48.52908" lon="2.09094">
        <ele>147.4</ele>
        <time>2025-10-25T09:58:40Z</time>
      </trkpt>
      <trkpt lat="48.52907" lon="2.09096">
        <ele>147.6</ele>
        <time>2025-10-25T09:58:41Z</time>
      </trkpt>
      <trkpt lat="48.52906" lon="2.09101">
        <ele>148.2</ele>
        <time>2025-10-25T09:58:43Z</time>
      </trkpt>
      <trkpt lat="48.52905" lon="2.09105">
        <ele>148.8</ele>
        <time>2025-10-25T09:58:45Z</time>
      </trkpt>
      <trkpt lat="48.52905" lon="2.09109">
        <ele>149.2</ele>
        <time>2025-10-25T09:58:47Z</time>
      </trkpt>
      <trkpt lat="48.52905" lon="2.09113">
        <ele>149.6</ele>
        <time>2025-10-25T09:58:49Z</time>
      </trkpt>
      <trkpt lat="48.52905" lon="2.09118">
        <ele>150</ele>
        <time>2025-10-25T09:58:51Z</time>
      </trkpt>
      <trkpt lat="48.52905" lon="2.09123">
        <ele>150.4</ele>
        <time>2025-10-25T09:58:53Z</time>
      </trkpt>
      <trkpt lat="48.52905" lon="2.09126">
        <ele>150.6</ele>
        <time>2025-10-25T09:58:54Z</time>
      </trkpt>
      <trkpt lat="48.52905" lon="2.0913">
        <ele>150.8</ele>
        <time>2025-10-25T09:58:55Z</time>
      </trkpt>
      <trkpt lat="48.52906" lon="2.09134">
        <ele>151</ele>
        <time>2025-10-25T09:58:56Z</time>
      </trkpt>
      <trkpt lat="48.52907" lon="2.09138">
        <ele>151.2</ele>
        <time>2025-10-25T09:58:57Z</time>
      </trkpt>
      <trkpt lat="48.52907" lon="2.09143">
        <ele>151.4</ele>
        <time>2025-10-25T09:58:58Z</time>
      </trkpt>
      <trkpt lat="48.52908" lon="2.09147">
        <ele>151.6</ele>
        <time>2025-10-25T09:58:59Z</time>
      </trkpt>
      <trkpt lat="48.52909" lon="2.09152">
        <ele>151.8</ele>
        <time>2025-10-25T09:59:00Z</time>
      </trkpt>
      <trkpt lat="48.52911" lon="2.09156">
        <ele>152</ele>
        <time>2025-10-25T09:59:01Z</time>
      </trkpt>
      <trkpt lat="48.52913" lon="2.0916">
        <ele>152.2</ele>
        <time>2025-10-25T09:59:02Z</time>
      </trkpt>
      <trkpt lat="48.52914" lon="2.09164">
        <ele>152.4</ele>
        <time>2025-10-25T09:59:03Z</time>
      </trkpt>
      <trkpt lat="48.52916" lon="2.09168">
        <ele>152.6</ele>
        <time>2025-10-25T09:59:04Z</time>
      </trkpt>
      <trkpt lat="48.52917" lon="2.09172">
        <ele>152.8</ele>
        <time>2025-10-25T09:59:05Z</time>
      </trkpt>
      <trkpt lat="48.5292" lon="2.09176">
        <ele>153</ele>
        <time>2025-10-25T09:59:06Z</time>
      </trkpt>
      <trkpt lat="48.52922" lon="2.09179">
        <ele>153.2</ele>
        <time>2025-10-25T09:59:07Z</time>
      </trkpt>
      <trkpt lat="48.52924" lon="2.09183">
        <ele>153.2</ele>
        <time>2025-10-25T09:59:08Z</time>
      </trkpt>
      <trkpt lat="48.52925" lon="2.09186">
        <ele>153.4</ele>
        <time>2025-10-25T09:59:09Z</time>
      </trkpt>
      <trkpt lat="48.52927" lon="2.0919">
        <ele>153.6</ele>
        <time>2025-10-25T09:59:10Z</time>
      </trkpt>
      <trkpt lat="48.52929" lon="2.09194">
        <ele>153.8</ele>
        <time>2025-10-25T09:59:11Z</time>
      </trkpt>
      <trkpt lat="48.52931" lon="2.09197">
        <ele>153.8</ele>
        <time>2025-10-25T09:59:12Z</time>
      </trkpt>
      <trkpt lat="48.52932" lon="2.09201">
        <ele>154</ele>
        <time>2025-10-25T09:59:13Z</time>
      </trkpt>
      <trkpt lat="48.52933" lon="2.09204">
        <ele>154.2</ele>
        <time>2025-10-25T09:59:14Z</time>
      </trkpt>
      <trkpt lat="48.52935" lon="2.09207">
        <ele>154.2</ele>
        <time>2025-10-25T09:59:15Z</time>
      </trkpt>
      <trkpt lat="48.52937" lon="2.0921">
        <ele>154.4</ele>
        <time>2025-10-25T09:59:16Z</time>
      </trkpt>
      <trkpt lat="48.5294" lon="2.09212">
        <ele>154.4</ele>
        <time>2025-10-25T09:59:17Z</time>
      </trkpt>
      <trkpt lat="48.52943" lon="2.09214">
        <ele>154.6</ele>
        <time>2025-10-25T09:59:18Z</time>
      </trkpt>
      <trkpt lat="48.52946" lon="2.09216">
        <ele>154.6</ele>
        <time>2025-10-25T09:59:19Z</time>
      </trkpt>
      <trkpt lat="48.52948" lon="2.09219">
        <ele>154.8</ele>
        <time>2025-10-25T09:59:20Z</time>
      </trkpt>
      <trkpt lat="48.52951" lon="2.09221">
        <ele>154.8</ele>
        <time>2025-10-25T09:59:21Z</time>
      </trkpt>
      <trkpt lat="48.52953" lon="2.09224">
        <ele>155</ele>
        <time>2025-10-25T09:59:22Z</time>
      </trkpt>
      <trkpt lat="48.52955" lon="2.09226">
        <ele>155.2</ele>
        <time>2025-10-25T09:59:23Z</time>
      </trkpt>
      <trkpt lat="48.52956" lon="2.09229">
        <ele>155.2</ele>
        <time>2025-10-25T09:59:24Z</time>
      </trkpt>
      <trkpt lat="48.52958" lon="2.09232">
        <ele>155.4</ele>
        <time>2025-10-25T09:59:25Z</time>
      </trkpt>
      <trkpt lat="48.5296" lon="2.09235">
        <ele>155.4</ele>
        <time>2025-10-25T09:59:26Z</time>
      </trkpt>
      <trkpt lat="48.52962" lon="2.09238">
        <ele>155.4</ele>
        <time>2025-10-25T09:59:27Z</time>
      </trkpt>
      <trkpt lat="48.52965" lon="2.09242">
        <ele>155.6</ele>
        <time>2025-10-25T09:59:28Z</time>
      </trkpt>
      <trkpt lat="48.52967" lon="2.09246">
        <ele>155.6</ele>
        <time>2025-10-25T09:59:29Z</time>
      </trkpt>
      <trkpt lat="48.5297" lon="2.0925">
        <ele>155.8</ele>
        <time>2025-10-25T09:59:30Z</time>
      </trkpt>
      <trkpt lat="48.52972" lon="2.09254">
        <ele>155.8</ele>
        <time>2025-10-25T09:59:31Z</time>
      </trkpt>
      <trkpt lat="48.52975" lon="2.09258">
        <ele>156</ele>
        <time>2025-10-25T09:59:32Z</time>
      </trkpt>
      <trkpt lat="48.52977" lon="2.09263">
        <ele>156</ele>
        <time>2025-10-25T09:59:33Z</time>
      </trkpt>
      <trkpt lat="48.52979" lon="2.09267">
        <ele>156.2</ele>
        <time>2025-10-25T09:59:34Z</time>
      </trkpt>
      <trkpt lat="48.5298" lon="2.09271">
        <ele>156.2</ele>
        <time>2025-10-25T09:59:35Z</time>
      </trkpt>
      <trkpt lat="48.52982" lon="2.09274">
        <ele>156.2</ele>
        <time>2025-10-25T09:59:36Z</time>
      </trkpt>
      <trkpt lat="48.52985" lon="2.09278">
        <ele>156.4</ele>
        <time>2025-10-25T09:59:37Z</time>
      </trkpt>
      <trkpt lat="48.52987" lon="2.09281">
        <ele>156.4</ele>
        <time>2025-10-25T09:59:38Z</time>
      </trkpt>
      <trkpt lat="48.5299" lon="2.09284">
        <ele>156.6</ele>
        <time>2025-10-25T09:59:39Z</time>
      </trkpt>
      <trkpt lat="48.52993" lon="2.09286">
        <ele>156.6</ele>
        <time>2025-10-25T09:59:40Z</time>
      </trkpt>
      <trkpt lat="48.52996" lon="2.09287">
        <ele>156.8</ele>
        <time>2025-10-25T09:59:41Z</time>
      </trkpt>
      <trkpt lat="48.53" lon="2.09288">
        <ele>156.8</ele>
        <time>2025-10-25T09:59:42Z</time>
      </trkpt>
      <trkpt lat="48.53004" lon="2.09288">
        <ele>156.8</ele>
        <time>2025-10-25T09:59:43Z</time>
      </trkpt>
      <trkpt lat="48.53007" lon="2.09288">
        <ele>157</ele>
        <time>2025-10-25T09:59:44Z</time>
      </trkpt>
      <trkpt lat="48.53011" lon="2.09288">
        <ele>157</ele>
        <time>2025-10-25T09:59:45Z</time>
      </trkpt>
      <trkpt lat="48.53014" lon="2.09288">
        <ele>157</ele>
        <time>2025-10-25T09:59:46Z</time>
      </trkpt>
      <trkpt lat="48.53017" lon="2.09288">
        <ele>157.2</ele>
        <time>2025-10-25T09:59:47Z</time>
      </trkpt>
      <trkpt lat="48.5302" lon="2.09288">
        <ele>157.2</ele>
        <time>2025-10-25T09:59:48Z</time>
      </trkpt>
      <trkpt lat="48.53022" lon="2.09288">
        <ele>157.2</ele>
        <time>2025-10-25T09:59:49Z</time>
      </trkpt>
      <trkpt lat="48.53024" lon="2.09288">
        <ele>157.2</ele>
        <time>2025-10-25T09:59:50Z</time>
      </trkpt>
      <trkpt lat="48.53027" lon="2.09288">
        <ele>157.4</ele>
        <time>2025-10-25T09:59:51Z</time>
      </trkpt>
      <trkpt lat="48.5303" lon="2.09288">
        <ele>157.4</ele>
        <time>2025-10-25T09:59:52Z</time>
      </trkpt>
      <trkpt lat="48.53034" lon="2.09289">
        <ele>157.4</ele>
        <time>2025-10-25T09:59:53Z</time>
      </trkpt>
      <trkpt lat="48.53036" lon="2.09289">
        <ele>157.4</ele>
        <time>2025-10-25T09:59:54Z</time>
      </trkpt>
      <trkpt lat="48.5304" lon="2.0929">
        <ele>157.4</ele>
        <time>2025-10-25T09:59:55Z</time>
      </trkpt>
      <trkpt lat="48.53042" lon="2.09291">
        <ele>157.4</ele>
        <time>2025-10-25T09:59:56Z</time>
      </trkpt>
      <trkpt lat="48.53045" lon="2.09292">
        <ele>157.4</ele>
        <time>2025-10-25T09:59:57Z</time>
      </trkpt>
      <trkpt lat="48.53047" lon="2.09292">
        <ele>157.4</ele>
        <time>2025-10-25T09:59:58Z</time>
      </trkpt>
      <trkpt lat="48.5305" lon="2.09293">
        <ele>157.4</ele>
        <time>2025-10-25T09:59:59Z</time>
      </trkpt>
      <trkpt lat="48.53052" lon="2.09293">
        <ele>157.6</ele>
        <time>2025-10-25T10:00:00Z</time>
      </trkpt>
      <trkpt lat="48.53054" lon="2.09293">
        <ele>157.6</ele>
        <time>2025-10-25T10:00:01Z</time>
      </trkpt>
      <trkpt lat="48.53056" lon="2.09292">
        <ele>157.6</ele>
        <time>2025-10-25T10:00:02Z</time>
      </trkpt>
      <trkpt lat="48.53059" lon="2.09292">
        <ele>157.6</ele>
        <time>2025-10-25T10:00:03Z</time>
      </trkpt>
      <trkpt lat="48.53062" lon="2.09291">
        <ele>157.6</ele>
        <time>2025-10-25T10:00:04Z</time>
      </trkpt>
      <trkpt lat="48.53065" lon="2.0929">
        <ele>157.6</ele>
        <time>2025-10-25T10:00:05Z</time>
      </trkpt>
      <trkpt lat="48.53068" lon="2.0929">
        <ele>157.6</ele>
        <time>2025-10-25T10:00:06Z</time>
      </trkpt>
      <trkpt lat="48.53071" lon="2.0929">
        <ele>157.6</ele>
        <time>2025-10-25T10:00:07Z</time>
      </trkpt>
      <trkpt lat="48.53075" lon="2.0929">
        <ele>157.6</ele>
        <time>2025-10-25T10:00:08Z</time>
      </trkpt>
      <trkpt lat="48.53078" lon="2.09291">
        <ele>157.6</ele>
        <time>2025-10-25T10:00:09Z</time>
      </trkpt>
      <trkpt lat="48.53082" lon="2.09292">
        <ele>157.6</ele>
        <time>2025-10-25T10:00:10Z</time>
      </trkpt>
      <trkpt lat="48.53085" lon="2.09292">
        <ele>157.6</ele>
        <time>2025-10-25T10:00:11Z</time>
      </trkpt>
      <trkpt lat="48.53089" lon="2.09293">
        <ele>157.6</ele>
        <time>2025-10-25T10:00:12Z</time>
      </trkpt>
      <trkpt lat="48.53093" lon="2.09294">
        <ele>157.6</ele>
        <time>2025-10-25T10:00:13Z</time>
      </trkpt>
      <trkpt lat="48.53098" lon="2.09295">
        <ele>157.6</ele>
        <time>2025-10-25T10:00:14Z</time>
      </trkpt>
      <trkpt lat="48.53102" lon="2.09296">
        <ele>157.6</ele>
        <time>2025-10-25T10:00:15Z</time>
      </trkpt>
      <trkpt lat="48.53106" lon="2.09297">
        <ele>157.6</ele>
        <time>2025-10-25T10:00:16Z</time>
      </trkpt>
      <trkpt lat="48.5311" lon="2.09298">
        <ele>157.6</ele>
        <time>2025-10-25T10:00:17Z</time>
      </trkpt>
      <trkpt lat="48.53114" lon="2.093">
        <ele>157.6</ele>
        <time>2025-10-25T10:00:18Z</time>
      </trkpt>
      <trkpt lat="48.53117" lon="2.09302">
        <ele>157.6</ele>
        <time>2025-10-25T10:00:19Z</time>
      </trkpt>
      <trkpt lat="48.53121" lon="2.09304">
        <ele>157.6</ele>
        <time>2025-10-25T10:00:20Z</time>
      </trkpt>
      <trkpt lat="48.53124" lon="2.09306">
        <ele>157.8</ele>
        <time>2025-10-25T10:00:21Z</time>
      </trkpt>
      <trkpt lat="48.53126" lon="2.09309">
        <ele>157.8</ele>
        <time>2025-10-25T10:00:22Z</time>
      </trkpt>
      <trkpt lat="48.53128" lon="2.09311">
        <ele>157.8</ele>
        <time>2025-10-25T10:00:23Z</time>
      </trkpt>
      <trkpt lat="48.5313" lon="2.09314">
        <ele>157.8</ele>
        <time>2025-10-25T10:00:24Z</time>
      </trkpt>
      <trkpt lat="48.53132" lon="2.09317">
        <ele>157.6</ele>
        <time>2025-10-25T10:00:25Z</time>
      </trkpt>
      <trkpt lat="48.53135" lon="2.09319">
        <ele>157.6</ele>
        <time>2025-10-25T10:00:26Z</time>
      </trkpt>
      <trkpt lat="48.53137" lon="2.09322">
        <ele>157.6</ele>
        <time>2025-10-25T10:00:27Z</time>
      </trkpt>
      <trkpt lat="48.5314" lon="2.09324">
        <ele>157.4</ele>
        <time>2025-10-25T10:00:28Z</time>
      </trkpt>
      <trkpt lat="48.53142" lon="2.09325">
        <ele>157.4</ele>
        <time>2025-10-25T10:00:29Z</time>
      </trkpt>
      <trkpt lat="48.53145" lon="2.09327">
        <ele>157.4</ele>
        <time>2025-10-25T10:00:30Z</time>
      </trkpt>
      <trkpt lat="48.53148" lon="2.09328">
        <ele>157.2</ele>
        <time>2025-10-25T10:00:31Z</time>
      </trkpt>
      <trkpt lat="48.5315" lon="2.09329">
        <ele>157.2</ele>
        <time>2025-10-25T10:00:32Z</time>
      </trkpt>
      <trkpt lat="48.53153" lon="2.0933">
        <ele>157.2</ele>
        <time>2025-10-25T10:00:33Z</time>
      </trkpt>
      <trkpt lat="48.53155" lon="2.09331">
        <ele>157</ele>
        <time>2025-10-25T10:00:34Z</time>
      </trkpt>
      <trkpt lat="48.53157" lon="2.09331">
        <ele>157</ele>
        <time>2025-10-25T10:00:35Z</time>
      </trkpt>
      <trkpt lat="48.53159" lon="2.09332">
        <ele>157</ele>
        <time>2025-10-25T10:00:36Z</time>
      </trkpt>
      <trkpt lat="48.53162" lon="2.09333">
        <ele>156.8</ele>
        <time>2025-10-25T10:00:38Z</time>
      </trkpt>
      <trkpt lat="48.53164" lon="2.09334">
        <ele>156.6</ele>
        <time>2025-10-25T10:00:40Z</time>
      </trkpt>
      <trkpt lat="48.53165" lon="2.09335">
        <ele>156.6</ele>
        <time>2025-10-25T10:00:42Z</time>
      </trkpt>
      <trkpt lat="48.53168" lon="2.09334">
        <ele>156.4</ele>
        <time>2025-10-25T10:00:44Z</time>
      </trkpt>
      <trkpt lat="48.5317" lon="2.09334">
        <ele>156.4</ele>
        <time>2025-10-25T10:00:45Z</time>
      </trkpt>
      <trkpt lat="48.53172" lon="2.09334">
        <ele>156.4</ele>
        <time>2025-10-25T10:00:46Z</time>
      </trkpt>
      <trkpt lat="48.53174" lon="2.09334">
        <ele>156.4</ele>
        <time>2025-10-25T10:00:47Z</time>
      </trkpt>
      <trkpt lat="48.53176" lon="2.09334">
        <ele>156.2</ele>
        <time>2025-10-25T10:00:48Z</time>
      </trkpt>
      <trkpt lat="48.53178" lon="2.09335">
        <ele>156.2</ele>
        <time>2025-10-25T10:00:49Z</time>
      </trkpt>
      <trkpt lat="48.5318" lon="2.09337">
        <ele>156.2</ele>
        <time>2025-10-25T10:00:51Z</time>
      </trkpt>
      <trkpt lat="48.53183" lon="2.09339">
        <ele>156.2</ele>
        <time>2025-10-25T10:00:53Z</time>
      </trkpt>
      <trkpt lat="48.53187" lon="2.09342">
        <ele>156.2</ele>
        <time>2025-10-25T10:00:55Z</time>
      </trkpt>
      <trkpt lat="48.5319" lon="2.09345">
        <ele>156.4</ele>
        <time>2025-10-25T10:00:57Z</time>
      </trkpt>
      <trkpt lat="48.53192" lon="2.09345">
        <ele>156.4</ele>
        <time>2025-10-25T10:00:58Z</time>
      </trkpt>
      <trkpt lat="48.53194" lon="2.09346">
        <ele>156.4</ele>
        <time>2025-10-25T10:00:59Z</time>
      </trkpt>
      <trkpt lat="48.53197" lon="2.09347">
        <ele>156.6</ele>
        <time>2025-10-25T10:01:00Z</time>
      </trkpt>
      <trkpt lat="48.53199" lon="2.09348">
        <ele>156.6</ele>
        <time>2025-10-25T10:01:01Z</time>
      </trkpt>
      <trkpt lat="48.53201" lon="2.0935">
        <ele>156.6</ele>
        <time>2025-10-25T10:01:02Z</time>
      </trkpt>
      <trkpt lat="48.53203" lon="2.09351">
        <ele>156.6</ele>
        <time>2025-10-25T10:01:03Z</time>
      </trkpt>
      <trkpt lat="48.53204" lon="2.09353">
        <ele>156.8</ele>
        <time>2025-10-25T10:01:04Z</time>
      </trkpt>
      <trkpt lat="48.53207" lon="2.09356">
        <ele>156.8</ele>
        <time>2025-10-25T10:01:06Z</time>
      </trkpt>
      <trkpt lat="48.53209" lon="2.09359">
        <ele>157</ele>
        <time>2025-10-25T10:01:08Z</time>
      </trkpt>
      <trkpt lat="48.53211" lon="2.0936">
        <ele>157</ele>
        <time>2025-10-25T10:01:09Z</time>
      </trkpt>
      <trkpt lat="48.53213" lon="2.09363">
        <ele>157.2</ele>
        <time>2025-10-25T10:01:11Z</time>
      </trkpt>
      <trkpt lat="48.53216" lon="2.09367">
        <ele>157.2</ele>
        <time>2025-10-25T10:01:13Z</time>
      </trkpt>
      <trkpt lat="48.53218" lon="2.0937">
        <ele>157.2</ele>
        <time>2025-10-25T10:01:15Z</time>
      </trkpt>
      <trkpt lat="48.5322" lon="2.09372">
        <ele>157.2</ele>
        <time>2025-10-25T10:01:17Z</time>
      </trkpt>
      <trkpt lat="48.53222" lon="2.09375">
        <ele>157</ele>
        <time>2025-10-25T10:01:19Z</time>
      </trkpt>
      <trkpt lat="48.53225" lon="2.09378">
        <ele>157</ele>
        <time>2025-10-25T10:01:21Z</time>
      </trkpt>
      <trkpt lat="48.53227" lon="2.0938">
        <ele>157</ele>
        <time>2025-10-25T10:01:22Z</time>
      </trkpt>
      <trkpt lat="48.53229" lon="2.09383">
        <ele>156.8</ele>
        <time>2025-10-25T10:01:24Z</time>
      </trkpt>
      <trkpt lat="48.53231" lon="2.09386">
        <ele>156.8</ele>
        <time>2025-10-25T10:01:26Z</time>
      </trkpt>
      <trkpt lat="48.53233" lon="2.09389">
        <ele>156.6</ele>
        <time>2025-10-25T10:01:28Z</time>
      </trkpt>
      <trkpt lat="48.53235" lon="2.09392">
        <ele>156.6</ele>
        <time>2025-10-25T10:01:30Z</time>
      </trkpt>
      <trkpt lat="48.53237" lon="2.09395">
        <ele>156.8</ele>
        <time>2025-10-25T10:01:32Z</time>
      </trkpt>
      <trkpt lat="48.53239" lon="2.09398">
        <ele>156.8</ele>
        <time>2025-10-25T10:01:34Z</time>
      </trkpt>
      <trkpt lat="48.53241" lon="2.09401">
        <ele>157</ele>
        <time>2025-10-25T10:01:36Z</time>
      </trkpt>
      <trkpt lat="48.53244" lon="2.09404">
        <ele>157.2</ele>
        <time>2025-10-25T10:01:38Z</time>
      </trkpt>
      <trkpt lat="48.53246" lon="2.09407">
        <ele>157.4</ele>
        <time>2025-10-25T10:01:40Z</time>
      </trkpt>
      <trkpt lat="48.53249" lon="2.09409">
        <ele>157.6</ele>
        <time>2025-10-25T10:01:42Z</time>
      </trkpt>
      <trkpt lat="48.53252" lon="2.09411">
        <ele>157.8</ele>
        <time>2025-10-25T10:01:44Z</time>
      </trkpt>
      <trkpt lat="48.53253" lon="2.09414">
        <ele>157.8</ele>
        <time>2025-10-25T10:01:46Z</time>
      </trkpt>
      <trkpt lat="48.53255" lon="2.09416">
        <ele>158</ele>
        <time>2025-10-25T10:01:48Z</time>
      </trkpt>
      <trkpt lat="48.53257" lon="2.0942">
        <ele>158</ele>
        <time>2025-10-25T10:01:50Z</time>
      </trkpt>
      <trkpt lat="48.53259" lon="2.09423">
        <ele>158</ele>
        <time>2025-10-25T10:01:52Z</time>
      </trkpt>
      <trkpt lat="48.5326" lon="2.09426">
        <ele>158</ele>
        <time>2025-10-25T10:01:54Z</time>
      </trkpt>
      <trkpt lat="48.5326" lon="2.09429">
        <ele>158</ele>
        <time>2025-10-25T10:01:56Z</time>
      </trkpt>
      <trkpt lat="48.5326" lon="2.09432">
        <ele>158</ele>
        <time>2025-10-25T10:01:58Z</time>
      </trkpt>
      <trkpt lat="48.53259" lon="2.09436">
        <ele>158</ele>
        <time>2025-10-25T10:02:00Z</time>
      </trkpt>
      <trkpt lat="48.53257" lon="2.09442">
        <ele>157.8</ele>
        <time>2025-10-25T10:02:02Z</time>
      </trkpt>
      <trkpt lat="48.53256" lon="2.09445">
        <ele>157.8</ele>
        <time>2025-10-25T10:02:03Z</time>
      </trkpt>
      <trkpt lat="48.53255" lon="2.09449">
        <ele>157.8</ele>
        <time>2025-10-25T10:02:04Z</time>
      </trkpt>
      <trkpt lat="48.53253" lon="2.09453">
        <ele>157.6</ele>
        <time>2025-10-25T10:02:05Z</time>
      </trkpt>
      <trkpt lat="48.53252" lon="2.09457">
        <ele>157.6</ele>
        <time>2025-10-25T10:02:06Z</time>
      </trkpt>
      <trkpt lat="48.53251" lon="2.09461">
        <ele>157.6</ele>
        <time>2025-10-25T10:02:07Z</time>
      </trkpt>
      <trkpt lat="48.53249" lon="2.09466">
        <ele>157.4</ele>
        <time>2025-10-25T10:02:08Z</time>
      </trkpt>
      <trkpt lat="48.53248" lon="2.0947">
        <ele>157.4</ele>
        <time>2025-10-25T10:02:09Z</time>
      </trkpt>
      <trkpt lat="48.53247" lon="2.09475">
        <ele>157.4</ele>
        <time>2025-10-25T10:02:10Z</time>
      </trkpt>
      <trkpt lat="48.53245" lon="2.09479">
        <ele>157.2</ele>
        <time>2025-10-25T10:02:11Z</time>
      </trkpt>
      <trkpt lat="48.53245" lon="2.09484">
        <ele>157.2</ele>
        <time>2025-10-25T10:02:12Z</time>
      </trkpt>
      <trkpt lat="48.53244" lon="2.09489">
        <ele>157</ele>
        <time>2025-10-25T10:02:13Z</time>
      </trkpt>
      <trkpt lat="48.53244" lon="2.09495">
        <ele>157</ele>
        <time>2025-10-25T10:02:14Z</time>
      </trkpt>
      <trkpt lat="48.53243" lon="2.095">
        <ele>156.8</ele>
        <time>2025-10-25T10:02:15Z</time>
      </trkpt>
      <trkpt lat="48.53243" lon="2.09506">
        <ele>156.8</ele>
        <time>2025-10-25T10:02:16Z</time>
      </trkpt>
      <trkpt lat="48.53243" lon="2.09513">
        <ele>156.6</ele>
        <time>2025-10-25T10:02:17Z</time>
      </trkpt>
      <trkpt lat="48.53244" lon="2.09519">
        <ele>156.6</ele>
        <time>2025-10-25T10:02:18Z</time>
      </trkpt>
      <trkpt lat="48.53244" lon="2.09526">
        <ele>156.4</ele>
        <time>2025-10-25T10:02:19Z</time>
      </trkpt>
      <trkpt lat="48.53244" lon="2.09533">
        <ele>156.2</ele>
        <time>2025-10-25T10:02:20Z</time>
      </trkpt>
      <trkpt lat="48.53243" lon="2.0954">
        <ele>156.2</ele>
        <time>2025-10-25T10:02:21Z</time>
      </trkpt>
      <trkpt lat="48.53243" lon="2.09547">
        <ele>156</ele>
        <time>2025-10-25T10:02:22Z</time>
      </trkpt>
      <trkpt lat="48.53242" lon="2.09554">
        <ele>156</ele>
        <time>2025-10-25T10:02:23Z</time>
      </trkpt>
      <trkpt lat="48.53242" lon="2.0956">
        <ele>155.8</ele>
        <time>2025-10-25T10:02:24Z</time>
      </trkpt>
      <trkpt lat="48.53243" lon="2.09566">
        <ele>155.6</ele>
        <time>2025-10-25T10:02:25Z</time>
      </trkpt>
      <trkpt lat="48.53243" lon="2.09572">
        <ele>155.4</ele>
        <time>2025-10-25T10:02:26Z</time>
      </trkpt>
      <trkpt lat="48.53244" lon="2.09577">
        <ele>155.4</ele>
        <time>2025-10-25T10:02:27Z</time>
      </trkpt>
      <trkpt lat="48.53244" lon="2.09583">
        <ele>155.2</ele>
        <time>2025-10-25T10:02:28Z</time>
      </trkpt>
      <trkpt lat="48.53244" lon="2.09588">
        <ele>155</ele>
        <time>2025-10-25T10:02:29Z</time>
      </trkpt>
      <trkpt lat="48.53244" lon="2.09594">
        <ele>154.8</ele>
        <time>2025-10-25T10:02:30Z</time>
      </trkpt>
      <trkpt lat="48.53243" lon="2.09599">
        <ele>154.6</ele>
        <time>2025-10-25T10:02:31Z</time>
      </trkpt>
      <trkpt lat="48.53243" lon="2.09604">
        <ele>154.4</ele>
        <time>2025-10-25T10:02:32Z</time>
      </trkpt>
      <trkpt lat="48.53243" lon="2.09609">
        <ele>154.2</ele>
        <time>2025-10-25T10:02:33Z</time>
      </trkpt>
      <trkpt lat="48.53243" lon="2.09614">
        <ele>154</ele>
        <time>2025-10-25T10:02:34Z</time>
      </trkpt>
      <trkpt lat="48.53242" lon="2.09619">
        <ele>153.8</ele>
        <time>2025-10-25T10:02:35Z</time>
      </trkpt>
      <trkpt lat="48.53242" lon="2.09625">
        <ele>153.8</ele>
        <time>2025-10-25T10:02:36Z</time>
      </trkpt>
      <trkpt lat="48.53242" lon="2.0963">
        <ele>153.6</ele>
        <time>2025-10-25T10:02:37Z</time>
      </trkpt>
      <trkpt lat="48.53242" lon="2.09636">
        <ele>153.4</ele>
        <time>2025-10-25T10:02:38Z</time>
      </trkpt>
      <trkpt lat="48.53242" lon="2.09642">
        <ele>153.2</ele>
        <time>2025-10-25T10:02:39Z</time>
      </trkpt>
      <trkpt lat="48.53242" lon="2.09648">
        <ele>153</ele>
        <time>2025-10-25T10:02:40Z</time>
      </trkpt>
      <trkpt lat="48.53242" lon="2.09655">
        <ele>152.8</ele>
        <time>2025-10-25T10:02:41Z</time>
      </trkpt>
      <trkpt lat="48.53242" lon="2.09661">
        <ele>152.6</ele>
        <time>2025-10-25T10:02:42Z</time>
      </trkpt>
      <trkpt lat="48.53243" lon="2.09667">
        <ele>152.6</ele>
        <time>2025-10-25T10:02:43Z</time>
      </trkpt>
      <trkpt lat="48.53243" lon="2.09673">
        <ele>152.4</ele>
        <time>2025-10-25T10:02:44Z</time>
      </trkpt>
      <trkpt lat="48.53244" lon="2.09678">
        <ele>152.2</ele>
        <time>2025-10-25T10:02:45Z</time>
      </trkpt>
      <trkpt lat="48.53245" lon="2.09683">
        <ele>152.2</ele>
        <time>2025-10-25T10:02:46Z</time>
      </trkpt>
      <trkpt lat="48.53245" lon="2.09688">
        <ele>152</ele>
        <time>2025-10-25T10:02:47Z</time>
      </trkpt>
      <trkpt lat="48.53246" lon="2.09693">
        <ele>151.8</ele>
        <time>2025-10-25T10:02:48Z</time>
      </trkpt>
      <trkpt lat="48.53247" lon="2.09698">
        <ele>151.6</ele>
        <time>2025-10-25T10:02:49Z</time>
      </trkpt>
      <trkpt lat="48.53249" lon="2.09702">
        <ele>151.6</ele>
        <time>2025-10-25T10:02:50Z</time>
      </trkpt>
      <trkpt lat="48.53249" lon="2.09707">
        <ele>151.4</ele>
        <time>2025-10-25T10:02:51Z</time>
      </trkpt>
      <trkpt lat="48.53251" lon="2.09712">
        <ele>151.2</ele>
        <time>2025-10-25T10:02:52Z</time>
      </trkpt>
      <trkpt lat="48.53252" lon="2.09717">
        <ele>151.2</ele>
        <time>2025-10-25T10:02:53Z</time>
      </trkpt>
      <trkpt lat="48.53253" lon="2.09723">
        <ele>151</ele>
        <time>2025-10-25T10:02:54Z</time>
      </trkpt>
      <trkpt lat="48.53254" lon="2.09728">
        <ele>151</ele>
        <time>2025-10-25T10:02:55Z</time>
      </trkpt>
      <trkpt lat="48.53256" lon="2.09734">
        <ele>150.8</ele>
        <time>2025-10-25T10:02:56Z</time>
      </trkpt>
      <trkpt lat="48.53257" lon="2.09739">
        <ele>150.8</ele>
        <time>2025-10-25T10:02:57Z</time>
      </trkpt>
      <trkpt lat="48.53259" lon="2.09744">
        <ele>150.8</ele>
        <time>2025-10-25T10:02:58Z</time>
      </trkpt>
      <trkpt lat="48.5326" lon="2.09749">
        <ele>150.6</ele>
        <time>2025-10-25T10:02:59Z</time>
      </trkpt>
      <trkpt lat="48.53261" lon="2.09755">
        <ele>150.6</ele>
        <time>2025-10-25T10:03:00Z</time>
      </trkpt>
      <trkpt lat="48.53263" lon="2.0976">
        <ele>150.4</ele>
        <time>2025-10-25T10:03:01Z</time>
      </trkpt>
      <trkpt lat="48.53265" lon="2.09764">
        <ele>150.4</ele>
        <time>2025-10-25T10:03:02Z</time>
      </trkpt>
      <trkpt lat="48.53266" lon="2.09769">
        <ele>150.2</ele>
        <time>2025-10-25T10:03:03Z</time>
      </trkpt>
      <trkpt lat="48.53267" lon="2.09773">
        <ele>150.2</ele>
        <time>2025-10-25T10:03:04Z</time>
      </trkpt>
      <trkpt lat="48.53269" lon="2.09777">
        <ele>150</ele>
        <time>2025-10-25T10:03:05Z</time>
      </trkpt>
      <trkpt lat="48.5327" lon="2.09782">
        <ele>150</ele>
        <time>2025-10-25T10:03:06Z</time>
      </trkpt>
      <trkpt lat="48.53272" lon="2.09786">
        <ele>149.8</ele>
        <time>2025-10-25T10:03:07Z</time>
      </trkpt>
      <trkpt lat="48.53274" lon="2.0979">
        <ele>149.8</ele>
        <time>2025-10-25T10:03:08Z</time>
      </trkpt>
      <trkpt lat="48.53275" lon="2.09794">
        <ele>149.6</ele>
        <time>2025-10-25T10:03:09Z</time>
      </trkpt>
      <trkpt lat="48.53277" lon="2.09799">
        <ele>149.6</ele>
        <time>2025-10-25T10:03:10Z</time>
      </trkpt>
      <trkpt lat="48.53278" lon="2.09803">
        <ele>149.4</ele>
        <time>2025-10-25T10:03:11Z</time>
      </trkpt>
      <trkpt lat="48.5328" lon="2.09808">
        <ele>149.2</ele>
        <time>2025-10-25T10:03:12Z</time>
      </trkpt>
      <trkpt lat="48.53281" lon="2.09812">
        <ele>149.2</ele>
        <time>2025-10-25T10:03:13Z</time>
      </trkpt>
      <trkpt lat="48.53283" lon="2.09817">
        <ele>149</ele>
        <time>2025-10-25T10:03:14Z</time>
      </trkpt>
      <trkpt lat="48.53284" lon="2.09821">
        <ele>149</ele>
        <time>2025-10-25T10:03:15Z</time>
      </trkpt>
      <trkpt lat="48.53285" lon="2.09825">
        <ele>148.8</ele>
        <time>2025-10-25T10:03:16Z</time>
      </trkpt>
      <trkpt lat="48.53286" lon="2.09828">
        <ele>148.8</ele>
        <time>2025-10-25T10:03:17Z</time>
      </trkpt>
      <trkpt lat="48.53287" lon="2.09831">
        <ele>148.6</ele>
        <time>2025-10-25T10:03:18Z</time>
      </trkpt>
      <trkpt lat="48.53288" lon="2.09834">
        <ele>148.6</ele>
        <time>2025-10-25T10:03:19Z</time>
      </trkpt>
      <trkpt lat="48.53288" lon="2.09837">
        <ele>148.6</ele>
        <time>2025-10-25T10:03:20Z</time>
      </trkpt>
      <trkpt lat="48.53289" lon="2.09839">
        <ele>148.4</ele>
        <time>2025-10-25T10:03:21Z</time>
      </trkpt>
      <trkpt lat="48.5329" lon="2.09844">
        <ele>148.4</ele>
        <time>2025-10-25T10:03:23Z</time>
      </trkpt>
      <trkpt lat="48.53291" lon="2.09848">
        <ele>148.2</ele>
        <time>2025-10-25T10:03:25Z</time>
      </trkpt>
      <trkpt lat="48.53293" lon="2.09852">
        <ele>148.2</ele>
        <time>2025-10-25T10:03:27Z</time>
      </trkpt>
      <trkpt lat="48.53295" lon="2.09856">
        <ele>148</ele>
        <time>2025-10-25T10:03:29Z</time>
      </trkpt>
      <trkpt lat="48.53296" lon="2.0986">
        <ele>147.8</ele>
        <time>2025-10-25T10:03:31Z</time>
      </trkpt>
      <trkpt lat="48.53297" lon="2.09864">
        <ele>147.8</ele>
        <time>2025-10-25T10:03:33Z</time>
      </trkpt>
      <trkpt lat="48.53299" lon="2.09868">
        <ele>147.6</ele>
        <time>2025-10-25T10:03:35Z</time>
      </trkpt>
      <trkpt lat="48.533" lon="2.09873">
        <ele>147.8</ele>
        <time>2025-10-25T10:03:37Z</time>
      </trkpt>
      <trkpt lat="48.53302" lon="2.09877">
        <ele>147.8</ele>
        <time>2025-10-25T10:03:39Z</time>
      </trkpt>
      <trkpt lat="48.53303" lon="2.0988">
        <ele>147.6</ele>
        <time>2025-10-25T10:03:41Z</time>
      </trkpt>
      <trkpt lat="48.53305" lon="2.09884">
        <ele>147.6</ele>
        <time>2025-10-25T10:03:43Z</time>
      </trkpt>
      <trkpt lat="48.53307" lon="2.09888">
        <ele>147.6</ele>
        <time>2025-10-25T10:03:45Z</time>
      </trkpt>
      <trkpt lat="48.53308" lon="2.09892">
        <ele>147.6</ele>
        <time>2025-10-25T10:03:47Z</time>
      </trkpt>
      <trkpt lat="48.5331" lon="2.09896">
        <ele>147.6</ele>
        <time>2025-10-25T10:03:49Z</time>
      </trkpt>
      <trkpt lat="48.53311" lon="2.099">
        <ele>147.6</ele>
        <time>2025-10-25T10:03:51Z</time>
      </trkpt>
      <trkpt lat="48.53313" lon="2.09904">
        <ele>147.6</ele>
        <time>2025-10-25T10:03:53Z</time>
      </trkpt>
      <trkpt lat="48.53314" lon="2.09907">
        <ele>147.8</ele>
        <time>2025-10-25T10:03:55Z</time>
      </trkpt>
      <trkpt lat="48.53316" lon="2.09911">
        <ele>147.8</ele>
        <time>2025-10-25T10:03:57Z</time>
      </trkpt>
      <trkpt lat="48.53316" lon="2.09915">
        <ele>148</ele>
        <time>2025-10-25T10:03:59Z</time>
      </trkpt>
      <trkpt lat="48.53317" lon="2.09919">
        <ele>148</ele>
        <time>2025-10-25T10:04:01Z</time>
      </trkpt>
      <trkpt lat="48.53318" lon="2.09923">
        <ele>148.2</ele>
        <time>2025-10-25T10:04:03Z</time>
      </trkpt>
      <trkpt lat="48.5332" lon="2.09928">
        <ele>148.4</ele>
        <time>2025-10-25T10:04:05Z</time>
      </trkpt>
      <trkpt lat="48.5332" lon="2.09932">
        <ele>148.6</ele>
        <time>2025-10-25T10:04:07Z</time>
      </trkpt>
      <trkpt lat="48.5332" lon="2.09936">
        <ele>148.6</ele>
        <time>2025-10-25T10:04:09Z</time>
      </trkpt>
      <trkpt lat="48.53319" lon="2.09942">
        <ele>148.8</ele>
        <time>2025-10-25T10:04:11Z</time>
      </trkpt>
      <trkpt lat="48.53318" lon="2.09946">
        <ele>148.6</ele>
        <time>2025-10-25T10:04:13Z</time>
      </trkpt>
      <trkpt lat="48.53318" lon="2.09951">
        <ele>148.6</ele>
        <time>2025-10-25T10:04:15Z</time>
      </trkpt>
      <trkpt lat="48.53318" lon="2.09955">
        <ele>148.8</ele>
        <time>2025-10-25T10:04:17Z</time>
      </trkpt>
      <trkpt lat="48.53318" lon="2.09958">
        <ele>148.8</ele>
        <time>2025-10-25T10:04:19Z</time>
      </trkpt>
      <trkpt lat="48.53318" lon="2.09962">
        <ele>148.8</ele>
        <time>2025-10-25T10:04:21Z</time>
      </trkpt>
      <trkpt lat="48.53318" lon="2.09966">
        <ele>148.8</ele>
        <time>2025-10-25T10:04:23Z</time>
      </trkpt>
      <trkpt lat="48.53318" lon="2.0997">
        <ele>148.8</ele>
        <time>2025-10-25T10:04:25Z</time>
      </trkpt>
      <trkpt lat="48.53318" lon="2.09975">
        <ele>148.8</ele>
        <time>2025-10-25T10:04:27Z</time>
      </trkpt>
      <trkpt lat="48.53318" lon="2.09979">
        <ele>148.8</ele>
        <time>2025-10-25T10:04:29Z</time>
      </trkpt>
      <trkpt lat="48.53318" lon="2.09983">
        <ele>148.8</ele>
        <time>2025-10-25T10:04:31Z</time>
      </trkpt>
      <trkpt lat="48.53318" lon="2.09987">
        <ele>148.8</ele>
        <time>2025-10-25T10:04:33Z</time>
      </trkpt>
      <trkpt lat="48.53318" lon="2.09991">
        <ele>148.8</ele>
        <time>2025-10-25T10:04:35Z</time>
      </trkpt>
      <trkpt lat="48.53318" lon="2.09995">
        <ele>148.8</ele>
        <time>2025-10-25T10:04:37Z</time>
      </trkpt>
      <trkpt lat="48.53318" lon="2.09998">
        <ele>148.6</ele>
        <time>2025-10-25T10:04:39Z</time>
      </trkpt>
      <trkpt lat="48.53318" lon="2.10001">
        <ele>148.6</ele>
        <time>2025-10-25T10:04:41Z</time>
      </trkpt>
      <trkpt lat="48.53318" lon="2.10006">
        <ele>148.6</ele>
        <time>2025-10-25T10:04:44Z</time>
      </trkpt>
      <trkpt lat="48.53318" lon="2.10009">
        <ele>148.6</ele>
        <time>2025-10-25T10:04:46Z</time>
      </trkpt>
      <trkpt lat="48.53318" lon="2.10013">
        <ele>148.6</ele>
        <time>2025-10-25T10:04:48Z</time>
      </trkpt>
      <trkpt lat="48.53318" lon="2.10017">
        <ele>148.6</ele>
        <time>2025-10-25T10:04:50Z</time>
      </trkpt>
      <trkpt lat="48.53318" lon="2.10021">
        <ele>148.8</ele>
        <time>2025-10-25T10:04:52Z</time>
      </trkpt>
      <trkpt lat="48.53319" lon="2.10025">
        <ele>148.8</ele>
        <time>2025-10-25T10:04:54Z</time>
      </trkpt>
      <trkpt lat="48.5332" lon="2.10029">
        <ele>148.8</ele>
        <time>2025-10-25T10:04:56Z</time>
      </trkpt>
      <trkpt lat="48.53322" lon="2.10033">
        <ele>148.8</ele>
        <time>2025-10-25T10:04:58Z</time>
      </trkpt>
      <trkpt lat="48.53323" lon="2.10037">
        <ele>148.8</ele>
        <time>2025-10-25T10:05:00Z</time>
      </trkpt>
      <trkpt lat="48.53324" lon="2.10041">
        <ele>148.6</ele>
        <time>2025-10-25T10:05:02Z</time>
      </trkpt>
      <trkpt lat="48.53325" lon="2.10045">
        <ele>148.6</ele>
        <time>2025-10-25T10:05:04Z</time>
      </trkpt>
      <trkpt lat="48.53326" lon="2.10049">
        <ele>148.6</ele>
        <time>2025-10-25T10:05:06Z</time>
      </trkpt>
      <trkpt lat="48.53328" lon="2.10053">
        <ele>148.6</ele>
        <time>2025-10-25T10:05:08Z</time>
      </trkpt>
      <trkpt lat="48.53329" lon="2.10056">
        <ele>148.8</ele>
        <time>2025-10-25T10:05:10Z</time>
      </trkpt>
      <trkpt lat="48.5333" lon="2.1006">
        <ele>148.8</ele>
        <time>2025-10-25T10:05:12Z</time>
      </trkpt>
      <trkpt lat="48.5333" lon="2.10063">
        <ele>148.8</ele>
        <time>2025-10-25T10:05:14Z</time>
      </trkpt>
      <trkpt lat="48.53331" lon="2.10067">
        <ele>148.8</ele>
        <time>2025-10-25T10:05:16Z</time>
      </trkpt>
      <trkpt lat="48.53332" lon="2.1007">
        <ele>148.8</ele>
        <time>2025-10-25T10:05:18Z</time>
      </trkpt>
      <trkpt lat="48.53332" lon="2.10073">
        <ele>148.8</ele>
        <time>2025-10-25T10:05:20Z</time>
      </trkpt>
      <trkpt lat="48.53332" lon="2.10077">
        <ele>148.6</ele>
        <time>2025-10-25T10:05:22Z</time>
      </trkpt>
      <trkpt lat="48.53332" lon="2.10081">
        <ele>148.4</ele>
        <time>2025-10-25T10:05:24Z</time>
      </trkpt>
      <trkpt lat="48.53331" lon="2.10085">
        <ele>148.4</ele>
        <time>2025-10-25T10:05:26Z</time>
      </trkpt>
      <trkpt lat="48.53331" lon="2.1009">
        <ele>148.4</ele>
        <time>2025-10-25T10:05:28Z</time>
      </trkpt>
      <trkpt lat="48.5333" lon="2.10094">
        <ele>148.6</ele>
        <time>2025-10-25T10:05:30Z</time>
      </trkpt>
      <trkpt lat="48.5333" lon="2.10098">
        <ele>148.8</ele>
        <time>2025-10-25T10:05:32Z</time>
      </trkpt>
      <trkpt lat="48.53329" lon="2.10102">
        <ele>148.8</ele>
        <time>2025-10-25T10:05:34Z</time>
      </trkpt>
      <trkpt lat="48.53327" lon="2.10107">
        <ele>148.8</ele>
        <time>2025-10-25T10:05:36Z</time>
      </trkpt>
      <trkpt lat="48.53326" lon="2.10111">
        <ele>148.8</ele>
        <time>2025-10-25T10:05:38Z</time>
      </trkpt>
      <trkpt lat="48.53324" lon="2.10114">
        <ele>148.8</ele>
        <time>2025-10-25T10:05:40Z</time>
      </trkpt>
      <trkpt lat="48.53324" lon="2.10118">
        <ele>148.8</ele>
        <time>2025-10-25T10:05:42Z</time>
      </trkpt>
      <trkpt lat="48.53323" lon="2.10122">
        <ele>148.6</ele>
        <time>2025-10-25T10:05:44Z</time>
      </trkpt>
      <trkpt lat="48.53322" lon="2.10126">
        <ele>148.4</ele>
        <time>2025-10-25T10:05:46Z</time>
      </trkpt>
      <trkpt lat="48.53322" lon="2.10131">
        <ele>148.2</ele>
        <time>2025-10-25T10:05:48Z</time>
      </trkpt>
      <trkpt lat="48.53321" lon="2.10134">
        <ele>148</ele>
        <time>2025-10-25T10:05:49Z</time>
      </trkpt>
      <trkpt lat="48.53321" lon="2.10137">
        <ele>148</ele>
        <time>2025-10-25T10:05:50Z</time>
      </trkpt>
      <trkpt lat="48.5332" lon="2.1014">
        <ele>147.8</ele>
        <time>2025-10-25T10:05:51Z</time>
      </trkpt>
      <trkpt lat="48.5332" lon="2.10143">
        <ele>147.8</ele>
        <time>2025-10-25T10:05:52Z</time>
      </trkpt>
      <trkpt lat="48.53319" lon="2.10146">
        <ele>148</ele>
        <time>2025-10-25T10:05:53Z</time>
      </trkpt>
      <trkpt lat="48.53318" lon="2.10151">
        <ele>148</ele>
        <time>2025-10-25T10:05:55Z</time>
      </trkpt>
      <trkpt lat="48.53318" lon="2.10155">
        <ele>148.2</ele>
        <time>2025-10-25T10:05:57Z</time>
      </trkpt>
      <trkpt lat="48.5332" lon="2.10158">
        <ele>148.4</ele>
        <time>2025-10-25T10:05:59Z</time>
      </trkpt>
      <trkpt lat="48.53322" lon="2.1016">
        <ele>148.6</ele>
        <time>2025-10-25T10:06:02Z</time>
      </trkpt>
      <trkpt lat="48.53324" lon="2.1016">
        <ele>148.8</ele>
        <time>2025-10-25T10:06:06Z</time>
      </trkpt>
      <trkpt lat="48.53326" lon="2.10163">
        <ele>148.6</ele>
        <time>2025-10-25T10:06:10Z</time>
      </trkpt>
      <trkpt lat="48.53328" lon="2.10165">
        <ele>148.6</ele>
        <time>2025-10-25T10:06:12Z</time>
      </trkpt>
      <trkpt lat="48.5333" lon="2.10167">
        <ele>148.8</ele>
        <time>2025-10-25T10:06:14Z</time>
      </trkpt>
      <trkpt lat="48.53332" lon="2.10169">
        <ele>148.8</ele>
        <time>2025-10-25T10:06:16Z</time>
      </trkpt>
      <trkpt lat="48.53335" lon="2.1017">
        <ele>148.8</ele>
        <time>2025-10-25T10:06:18Z</time>
      </trkpt>
      <trkpt lat="48.53338" lon="2.10171">
        <ele>148.6</ele>
        <time>2025-10-25T10:06:20Z</time>
      </trkpt>
      <trkpt lat="48.5334" lon="2.10173">
        <ele>148.6</ele>
        <time>2025-10-25T10:06:22Z</time>
      </trkpt>
      <trkpt lat="48.53343" lon="2.10174">
        <ele>148.6</ele>
        <time>2025-10-25T10:06:24Z</time>
      </trkpt>
      <trkpt lat="48.53346" lon="2.10176">
        <ele>148.6</ele>
        <time>2025-10-25T10:06:26Z</time>
      </trkpt>
      <trkpt lat="48.53348" lon="2.10177">
        <ele>148.4</ele>
        <time>2025-10-25T10:06:28Z</time>
      </trkpt>
      <trkpt lat="48.53351" lon="2.10178">
        <ele>148.4</ele>
        <time>2025-10-25T10:06:30Z</time>
      </trkpt>
      <trkpt lat="48.53354" lon="2.10178">
        <ele>148.2</ele>
        <time>2025-10-25T10:06:32Z</time>
      </trkpt>
      <trkpt lat="48.53356" lon="2.10178">
        <ele>148.2</ele>
        <time>2025-10-25T10:06:34Z</time>
      </trkpt>
      <trkpt lat="48.53359" lon="2.10178">
        <ele>148</ele>
        <time>2025-10-25T10:06:36Z</time>
      </trkpt>
      <trkpt lat="48.53362" lon="2.10178">
        <ele>148</ele>
        <time>2025-10-25T10:06:38Z</time>
      </trkpt>
      <trkpt lat="48.53364" lon="2.10178">
        <ele>148</ele>
        <time>2025-10-25T10:06:39Z</time>
      </trkpt>
      <trkpt lat="48.53367" lon="2.10179">
        <ele>148.2</ele>
        <time>2025-10-25T10:06:41Z</time>
      </trkpt>
      <trkpt lat="48.53369" lon="2.10179">
        <ele>148.2</ele>
        <time>2025-10-25T10:06:42Z</time>
      </trkpt>
      <trkpt lat="48.53372" lon="2.1018">
        <ele>148</ele>
        <time>2025-10-25T10:06:44Z</time>
      </trkpt>
      <trkpt lat="48.53375" lon="2.1018">
        <ele>148.2</ele>
        <time>2025-10-25T10:06:46Z</time>
      </trkpt>
      <trkpt lat="48.53378" lon="2.1018">
        <ele>148.2</ele>
        <time>2025-10-25T10:06:48Z</time>
      </trkpt>
      <trkpt lat="48.5338" lon="2.10181">
        <ele>148.4</ele>
        <time>2025-10-25T10:06:50Z</time>
      </trkpt>
      <trkpt lat="48.53383" lon="2.10182">
        <ele>148.4</ele>
        <time>2025-10-25T10:06:52Z</time>
      </trkpt>
      <trkpt lat="48.53386" lon="2.10183">
        <ele>148.4</ele>
        <time>2025-10-25T10:06:54Z</time>
      </trkpt>
      <trkpt lat="48.53388" lon="2.10183">
        <ele>148.2</ele>
        <time>2025-10-25T10:06:56Z</time>
      </trkpt>
      <trkpt lat="48.53391" lon="2.10184">
        <ele>148</ele>
        <time>2025-10-25T10:06:58Z</time>
      </trkpt>
      <trkpt lat="48.53394" lon="2.10184">
        <ele>148</ele>
        <time>2025-10-25T10:07:00Z</time>
      </trkpt>
      <trkpt lat="48.53396" lon="2.10184">
        <ele>147.8</ele>
        <time>2025-10-25T10:07:02Z</time>
      </trkpt>
      <trkpt lat="48.53399" lon="2.10184">
        <ele>147.6</ele>
        <time>2025-10-25T10:07:04Z</time>
      </trkpt>
      <trkpt lat="48.53402" lon="2.10185">
        <ele>147.6</ele>
        <time>2025-10-25T10:07:06Z</time>
      </trkpt>
      <trkpt lat="48.53404" lon="2.10186">
        <ele>147.6</ele>
        <time>2025-10-25T10:07:08Z</time>
      </trkpt>
      <trkpt lat="48.53407" lon="2.10187">
        <ele>147.6</ele>
        <time>2025-10-25T10:07:10Z</time>
      </trkpt>
      <trkpt lat="48.53409" lon="2.10188">
        <ele>147.6</ele>
        <time>2025-10-25T10:07:12Z</time>
      </trkpt>
      <trkpt lat="48.53412" lon="2.1019">
        <ele>147.4</ele>
        <time>2025-10-25T10:07:14Z</time>
      </trkpt>
      <trkpt lat="48.53414" lon="2.10193">
        <ele>147.4</ele>
        <time>2025-10-25T10:07:16Z</time>
      </trkpt>
      <trkpt lat="48.53416" lon="2.10196">
        <ele>147.6</ele>
        <time>2025-10-25T10:07:18Z</time>
      </trkpt>
      <trkpt lat="48.53418" lon="2.10199">
        <ele>147.6</ele>
        <time>2025-10-25T10:07:20Z</time>
      </trkpt>
      <trkpt lat="48.5342" lon="2.10202">
        <ele>147.8</ele>
        <time>2025-10-25T10:07:22Z</time>
      </trkpt>
      <trkpt lat="48.53422" lon="2.10206">
        <ele>147.8</ele>
        <time>2025-10-25T10:07:24Z</time>
      </trkpt>
      <trkpt lat="48.53424" lon="2.10208">
        <ele>148</ele>
        <time>2025-10-25T10:07:26Z</time>
      </trkpt>
      <trkpt lat="48.53427" lon="2.10211">
        <ele>148</ele>
        <time>2025-10-25T10:07:28Z</time>
      </trkpt>
      <trkpt lat="48.53429" lon="2.10214">
        <ele>148</ele>
        <time>2025-10-25T10:07:30Z</time>
      </trkpt>
      <trkpt lat="48.53431" lon="2.10217">
        <ele>148</ele>
        <time>2025-10-25T10:07:32Z</time>
      </trkpt>
      <trkpt lat="48.53433" lon="2.1022">
        <ele>148.2</ele>
        <time>2025-10-25T10:07:34Z</time>
      </trkpt>
      <trkpt lat="48.53435" lon="2.10222">
        <ele>148.2</ele>
        <time>2025-10-25T10:07:36Z</time>
      </trkpt>
      <trkpt lat="48.53437" lon="2.10225">
        <ele>148.4</ele>
        <time>2025-10-25T10:07:38Z</time>
      </trkpt>
      <trkpt lat="48.5344" lon="2.10228">
        <ele>148.6</ele>
        <time>2025-10-25T10:07:40Z</time>
      </trkpt>
      <trkpt lat="48.53441" lon="2.10229">
        <ele>148.6</ele>
        <time>2025-10-25T10:07:41Z</time>
      </trkpt>
      <trkpt lat="48.53444" lon="2.10232">
        <ele>148.8</ele>
        <time>2025-10-25T10:07:43Z</time>
      </trkpt>
      <trkpt lat="48.53445" lon="2.10235">
        <ele>148.8</ele>
        <time>2025-10-25T10:07:45Z</time>
      </trkpt>
      <trkpt lat="48.53447" lon="2.10239">
        <ele>148.8</ele>
        <time>2025-10-25T10:07:47Z</time>
      </trkpt>
      <trkpt lat="48.53448" lon="2.10243">
        <ele>148.8</ele>
        <time>2025-10-25T10:07:49Z</time>
      </trkpt>
      <trkpt lat="48.53449" lon="2.10246">
        <ele>148.8</ele>
        <time>2025-10-25T10:07:51Z</time>
      </trkpt>
      <trkpt lat="48.53452" lon="2.10249">
        <ele>148.8</ele>
        <time>2025-10-25T10:07:53Z</time>
      </trkpt>
      <trkpt lat="48.53454" lon="2.10252">
        <ele>148.6</ele>
        <time>2025-10-25T10:07:55Z</time>
      </trkpt>
      <trkpt lat="48.53456" lon="2.10255">
        <ele>148.6</ele>
        <time>2025-10-25T10:07:57Z</time>
      </trkpt>
      <trkpt lat="48.53458" lon="2.10259">
        <ele>148.6</ele>
        <time>2025-10-25T10:07:59Z</time>
      </trkpt>
      <trkpt lat="48.53459" lon="2.10263">
        <ele>148.6</ele>
        <time>2025-10-25T10:08:01Z</time>
      </trkpt>
      <trkpt lat="48.53459" lon="2.10267">
        <ele>148.6</ele>
        <time>2025-10-25T10:08:03Z</time>
      </trkpt>
      <trkpt lat="48.53459" lon="2.10271">
        <ele>148.6</ele>
        <time>2025-10-25T10:08:05Z</time>
      </trkpt>
      <trkpt lat="48.53458" lon="2.10274">
        <ele>148.4</ele>
        <time>2025-10-25T10:08:07Z</time>
      </trkpt>
      <trkpt lat="48.53455" lon="2.10277">
        <ele>148.4</ele>
        <time>2025-10-25T10:08:09Z</time>
      </trkpt>
      <trkpt lat="48.53454" lon="2.10278">
        <ele>148.4</ele>
        <time>2025-10-25T10:08:10Z</time>
      </trkpt>
      <trkpt lat="48.53451" lon="2.1028">
        <ele>148.2</ele>
        <time>2025-10-25T10:08:12Z</time>
      </trkpt>
      <trkpt lat="48.53448" lon="2.10282">
        <ele>148.2</ele>
        <time>2025-10-25T10:08:14Z</time>
      </trkpt>
      <trkpt lat="48.53445" lon="2.10285">
        <ele>148.2</ele>
        <time>2025-10-25T10:08:16Z</time>
      </trkpt>
      <trkpt lat="48.53442" lon="2.10287">
        <ele>148.2</ele>
        <time>2025-10-25T10:08:18Z</time>
      </trkpt>
      <trkpt lat="48.53439" lon="2.10289">
        <ele>148.2</ele>
        <time>2025-10-25T10:08:20Z</time>
      </trkpt>
      <trkpt lat="48.53437" lon="2.1029">
        <ele>148.2</ele>
        <time>2025-10-25T10:08:22Z</time>
      </trkpt>
      <trkpt lat="48.53434" lon="2.10292">
        <ele>148.2</ele>
        <time>2025-10-25T10:08:24Z</time>
      </trkpt>
      <trkpt lat="48.53432" lon="2.10293">
        <ele>148.2</ele>
        <time>2025-10-25T10:08:26Z</time>
      </trkpt>
      <trkpt lat="48.53429" lon="2.10295">
        <ele>148.2</ele>
        <time>2025-10-25T10:08:28Z</time>
      </trkpt>
      <trkpt lat="48.53427" lon="2.10298">
        <ele>148.2</ele>
        <time>2025-10-25T10:08:30Z</time>
      </trkpt>
      <trkpt lat="48.53425" lon="2.10301">
        <ele>148.2</ele>
        <time>2025-10-25T10:08:32Z</time>
      </trkpt>
      <trkpt lat="48.53422" lon="2.10304">
        <ele>148.2</ele>
        <time>2025-10-25T10:08:34Z</time>
      </trkpt>
      <trkpt lat="48.5342" lon="2.10307">
        <ele>148</ele>
        <time>2025-10-25T10:08:36Z</time>
      </trkpt>
      <trkpt lat="48.53418" lon="2.1031">
        <ele>148</ele>
        <time>2025-10-25T10:08:38Z</time>
      </trkpt>
      <trkpt lat="48.53416" lon="2.10313">
        <ele>148</ele>
        <time>2025-10-25T10:08:40Z</time>
      </trkpt>
      <trkpt lat="48.53413" lon="2.10316">
        <ele>148</ele>
        <time>2025-10-25T10:08:42Z</time>
      </trkpt>
      <trkpt lat="48.53411" lon="2.10318">
        <ele>148</ele>
        <time>2025-10-25T10:08:44Z</time>
      </trkpt>
      <trkpt lat="48.5341" lon="2.10321">
        <ele>148</ele>
        <time>2025-10-25T10:08:46Z</time>
      </trkpt>
      <trkpt lat="48.53409" lon="2.10325">
        <ele>148.2</ele>
        <time>2025-10-25T10:08:48Z</time>
      </trkpt>
      <trkpt lat="48.53409" lon="2.10328">
        <ele>148.2</ele>
        <time>2025-10-25T10:08:50Z</time>
      </trkpt>
      <trkpt lat="48.5341" lon="2.10332">
        <ele>148.2</ele>
        <time>2025-10-25T10:08:52Z</time>
      </trkpt>
      <trkpt lat="48.53412" lon="2.10335">
        <ele>148.2</ele>
        <time>2025-10-25T10:08:54Z</time>
      </trkpt>
      <trkpt lat="48.53413" lon="2.10338">
        <ele>148.2</ele>
        <time>2025-10-25T10:08:56Z</time>
      </trkpt>
      <trkpt lat="48.53416" lon="2.10342">
        <ele>148.4</ele>
        <time>2025-10-25T10:08:58Z</time>
      </trkpt>
      <trkpt lat="48.53418" lon="2.10345">
        <ele>148.4</ele>
        <time>2025-10-25T10:09:00Z</time>
      </trkpt>
      <trkpt lat="48.5342" lon="2.10349">
        <ele>148.6</ele>
        <time>2025-10-25T10:09:02Z</time>
      </trkpt>
      <trkpt lat="48.53421" lon="2.10352">
        <ele>148.6</ele>
        <time>2025-10-25T10:09:04Z</time>
      </trkpt>
      <trkpt lat="48.53423" lon="2.10354">
        <ele>148.6</ele>
        <time>2025-10-25T10:09:06Z</time>
      </trkpt>
      <trkpt lat="48.53425" lon="2.10357">
        <ele>148.6</ele>
        <time>2025-10-25T10:09:08Z</time>
      </trkpt>
      <trkpt lat="48.53427" lon="2.1036">
        <ele>148.6</ele>
        <time>2025-10-25T10:09:10Z</time>
      </trkpt>
      <trkpt lat="48.53429" lon="2.10363">
        <ele>148.6</ele>
        <time>2025-10-25T10:09:12Z</time>
      </trkpt>
      <trkpt lat="48.53431" lon="2.10366">
        <ele>148.6</ele>
        <time>2025-10-25T10:09:14Z</time>
      </trkpt>
      <trkpt lat="48.53434" lon="2.1037">
        <ele>148.8</ele>
        <time>2025-10-25T10:09:16Z</time>
      </trkpt>
      <trkpt lat="48.53435" lon="2.10372">
        <ele>148.8</ele>
        <time>2025-10-25T10:09:17Z</time>
      </trkpt>
      <trkpt lat="48.53437" lon="2.10375">
        <ele>148.6</ele>
        <time>2025-10-25T10:09:19Z</time>
      </trkpt>
      <trkpt lat="48.53439" lon="2.10379">
        <ele>148.4</ele>
        <time>2025-10-25T10:09:21Z</time>
      </trkpt>
      <trkpt lat="48.5344" lon="2.10382">
        <ele>148.4</ele>
        <time>2025-10-25T10:09:23Z</time>
      </trkpt>
      <trkpt lat="48.53443" lon="2.10385">
        <ele>148.4</ele>
        <time>2025-10-25T10:09:25Z</time>
      </trkpt>
      <trkpt lat="48.53445" lon="2.10388">
        <ele>148.4</ele>
        <time>2025-10-25T10:09:27Z</time>
      </trkpt>
      <trkpt lat="48.53447" lon="2.10391">
        <ele>148.4</ele>
        <time>2025-10-25T10:09:29Z</time>
      </trkpt>
      <trkpt lat="48.5345" lon="2.10394">
        <ele>148.2</ele>
        <time>2025-10-25T10:09:31Z</time>
      </trkpt>
      <trkpt lat="48.53452" lon="2.10398">
        <ele>148.2</ele>
        <time>2025-10-25T10:09:33Z</time>
      </trkpt>
      <trkpt lat="48.53455" lon="2.10401">
        <ele>148.2</ele>
        <time>2025-10-25T10:09:35Z</time>
      </trkpt>
      <trkpt lat="48.53457" lon="2.10404">
        <ele>148.2</ele>
        <time>2025-10-25T10:09:37Z</time>
      </trkpt>
      <trkpt lat="48.53459" lon="2.10407">
        <ele>148.2</ele>
        <time>2025-10-25T10:09:39Z</time>
      </trkpt>
      <trkpt lat="48.53461" lon="2.1041">
        <ele>148.2</ele>
        <time>2025-10-25T10:09:41Z</time>
      </trkpt>
      <trkpt lat="48.53464" lon="2.10413">
        <ele>148.2</ele>
        <time>2025-10-25T10:09:43Z</time>
      </trkpt>
      <trkpt lat="48.53466" lon="2.10417">
        <ele>148</ele>
        <time>2025-10-25T10:09:45Z</time>
      </trkpt>
      <trkpt lat="48.53468" lon="2.1042">
        <ele>148</ele>
        <time>2025-10-25T10:09:47Z</time>
      </trkpt>
      <trkpt lat="48.53469" lon="2.10423">
        <ele>148</ele>
        <time>2025-10-25T10:09:49Z</time>
      </trkpt>
      <trkpt lat="48.53471" lon="2.10426">
        <ele>148</ele>
        <time>2025-10-25T10:09:51Z</time>
      </trkpt>
      <trkpt lat="48.53473" lon="2.1043">
        <ele>148</ele>
        <time>2025-10-25T10:09:53Z</time>
      </trkpt>
      <trkpt lat="48.53474" lon="2.10433">
        <ele>148</ele>
        <time>2025-10-25T10:09:55Z</time>
      </trkpt>
      <trkpt lat="48.53476" lon="2.10437">
        <ele>148</ele>
        <time>2025-10-25T10:09:57Z</time>
      </trkpt>
      <trkpt lat="48.53478" lon="2.1044">
        <ele>148</ele>
        <time>2025-10-25T10:09:59Z</time>
      </trkpt>
      <trkpt lat="48.5348" lon="2.10444">
        <ele>148</ele>
        <time>2025-10-25T10:10:01Z</time>
      </trkpt>
      <trkpt lat="48.53481" lon="2.10448">
        <ele>148</ele>
        <time>2025-10-25T10:10:03Z</time>
      </trkpt>
      <trkpt lat="48.53483" lon="2.10452">
        <ele>148</ele>
        <time>2025-10-25T10:10:05Z</time>
      </trkpt>
      <trkpt lat="48.53484" lon="2.10456">
        <ele>148</ele>
        <time>2025-10-25T10:10:07Z</time>
      </trkpt>
      <trkpt lat="48.53485" lon="2.1046">
        <ele>148.2</ele>
        <time>2025-10-25T10:10:09Z</time>
      </trkpt>
      <trkpt lat="48.53486" lon="2.10464">
        <ele>148.2</ele>
        <time>2025-10-25T10:10:11Z</time>
      </trkpt>
      <trkpt lat="48.53487" lon="2.10468">
        <ele>148.2</ele>
        <time>2025-10-25T10:10:13Z</time>
      </trkpt>
      <trkpt lat="48.53488" lon="2.10472">
        <ele>148.2</ele>
        <time>2025-10-25T10:10:15Z</time>
      </trkpt>
      <trkpt lat="48.53489" lon="2.10476">
        <ele>148.2</ele>
        <time>2025-10-25T10:10:17Z</time>
      </trkpt>
      <trkpt lat="48.5349" lon="2.1048">
        <ele>148.4</ele>
        <time>2025-10-25T10:10:19Z</time>
      </trkpt>
      <trkpt lat="48.53491" lon="2.10484">
        <ele>148.4</ele>
        <time>2025-10-25T10:10:21Z</time>
      </trkpt>
      <trkpt lat="48.53491" lon="2.10488">
        <ele>148.2</ele>
        <time>2025-10-25T10:10:23Z</time>
      </trkpt>
      <trkpt lat="48.53492" lon="2.10492">
        <ele>148.2</ele>
        <time>2025-10-25T10:10:25Z</time>
      </trkpt>
      <trkpt lat="48.53493" lon="2.10495">
        <ele>148.4</ele>
        <time>2025-10-25T10:10:27Z</time>
      </trkpt>
      <trkpt lat="48.53494" lon="2.10499">
        <ele>148.6</ele>
        <time>2025-10-25T10:10:29Z</time>
      </trkpt>
      <trkpt lat="48.53495" lon="2.10503">
        <ele>148.6</ele>
        <time>2025-10-25T10:10:31Z</time>
      </trkpt>
      <trkpt lat="48.53495" lon="2.10507">
        <ele>148.6</ele>
        <time>2025-10-25T10:10:33Z</time>
      </trkpt>
      <trkpt lat="48.53496" lon="2.1051">
        <ele>148.6</ele>
        <time>2025-10-25T10:10:35Z</time>
      </trkpt>
      <trkpt lat="48.53497" lon="2.10515">
        <ele>148.4</ele>
        <time>2025-10-25T10:10:37Z</time>
      </trkpt>
      <trkpt lat="48.53498" lon="2.10519">
        <ele>148.4</ele>
        <time>2025-10-25T10:10:39Z</time>
      </trkpt>
      <trkpt lat="48.53499" lon="2.10523">
        <ele>148.4</ele>
        <time>2025-10-25T10:10:41Z</time>
      </trkpt>
      <trkpt lat="48.53499" lon="2.10526">
        <ele>148.2</ele>
        <time>2025-10-25T10:10:43Z</time>
      </trkpt>
      <trkpt lat="48.53499" lon="2.1053">
        <ele>148.2</ele>
        <time>2025-10-25T10:10:45Z</time>
      </trkpt>
      <trkpt lat="48.535" lon="2.10534">
        <ele>148</ele>
        <time>2025-10-25T10:10:47Z</time>
      </trkpt>
      <trkpt lat="48.535" lon="2.10538">
        <ele>148</ele>
        <time>2025-10-25T10:10:49Z</time>
      </trkpt>
      <trkpt lat="48.53501" lon="2.10542">
        <ele>147.8</ele>
        <time>2025-10-25T10:10:51Z</time>
      </trkpt>
      <trkpt lat="48.53502" lon="2.10546">
        <ele>147.8</ele>
        <time>2025-10-25T10:10:53Z</time>
      </trkpt>
      <trkpt lat="48.53503" lon="2.1055">
        <ele>147.8</ele>
        <time>2025-10-25T10:10:55Z</time>
      </trkpt>
      <trkpt lat="48.53505" lon="2.10554">
        <ele>148</ele>
        <time>2025-10-25T10:10:57Z</time>
      </trkpt>
      <trkpt lat="48.53505" lon="2.10558">
        <ele>148.2</ele>
        <time>2025-10-25T10:10:59Z</time>
      </trkpt>
      <trkpt lat="48.53506" lon="2.10562">
        <ele>148.2</ele>
        <time>2025-10-25T10:11:01Z</time>
      </trkpt>
      <trkpt lat="48.53507" lon="2.10567">
        <ele>148.4</ele>
        <time>2025-10-25T10:11:03Z</time>
      </trkpt>
      <trkpt lat="48.53507" lon="2.10571">
        <ele>148.8</ele>
        <time>2025-10-25T10:11:05Z</time>
      </trkpt>
      <trkpt lat="48.53508" lon="2.10575">
        <ele>148.8</ele>
        <time>2025-10-25T10:11:07Z</time>
      </trkpt>
      <trkpt lat="48.53509" lon="2.10579">
        <ele>149</ele>
        <time>2025-10-25T10:11:09Z</time>
      </trkpt>
      <trkpt lat="48.5351" lon="2.10583">
        <ele>149</ele>
        <time>2025-10-25T10:11:11Z</time>
      </trkpt>
      <trkpt lat="48.53511" lon="2.10587">
        <ele>149.2</ele>
        <time>2025-10-25T10:11:13Z</time>
      </trkpt>
      <trkpt lat="48.53511" lon="2.10591">
        <ele>149.2</ele>
        <time>2025-10-25T10:11:15Z</time>
      </trkpt>
      <trkpt lat="48.53512" lon="2.10595">
        <ele>149.2</ele>
        <time>2025-10-25T10:11:17Z</time>
      </trkpt>
      <trkpt lat="48.53513" lon="2.10599">
        <ele>149.2</ele>
        <time>2025-10-25T10:11:19Z</time>
      </trkpt>
      <trkpt lat="48.53514" lon="2.10603">
        <ele>149.2</ele>
        <time>2025-10-25T10:11:21Z</time>
      </trkpt>
      <trkpt lat="48.53515" lon="2.10607">
        <ele>149</ele>
        <time>2025-10-25T10:11:23Z</time>
      </trkpt>
      <trkpt lat="48.53515" lon="2.10611">
        <ele>149</ele>
        <time>2025-10-25T10:11:25Z</time>
      </trkpt>
      <trkpt lat="48.53516" lon="2.10615">
        <ele>149.2</ele>
        <time>2025-10-25T10:11:27Z</time>
      </trkpt>
      <trkpt lat="48.53516" lon="2.10619">
        <ele>149.2</ele>
        <time>2025-10-25T10:11:29Z</time>
      </trkpt>
      <trkpt lat="48.53517" lon="2.10623">
        <ele>149</ele>
        <time>2025-10-25T10:11:31Z</time>
      </trkpt>
      <trkpt lat="48.53517" lon="2.10627">
        <ele>149</ele>
        <time>2025-10-25T10:11:33Z</time>
      </trkpt>
      <trkpt lat="48.53518" lon="2.10631">
        <ele>148.8</ele>
        <time>2025-10-25T10:11:35Z</time>
      </trkpt>
      <trkpt lat="48.53519" lon="2.10636">
        <ele>148.8</ele>
        <time>2025-10-25T10:11:37Z</time>
      </trkpt>
      <trkpt lat="48.53519" lon="2.10641">
        <ele>148.6</ele>
        <time>2025-10-25T10:11:39Z</time>
      </trkpt>
      <trkpt lat="48.5352" lon="2.10646">
        <ele>148.6</ele>
        <time>2025-10-25T10:11:41Z</time>
      </trkpt>
      <trkpt lat="48.5352" lon="2.10649">
        <ele>148.6</ele>
        <time>2025-10-25T10:11:42Z</time>
      </trkpt>
      <trkpt lat="48.53521" lon="2.10654">
        <ele>148.6</ele>
        <time>2025-10-25T10:11:44Z</time>
      </trkpt>
      <trkpt lat="48.53521" lon="2.10659">
        <ele>148.6</ele>
        <time>2025-10-25T10:11:46Z</time>
      </trkpt>
      <trkpt lat="48.53522" lon="2.10663">
        <ele>148.4</ele>
        <time>2025-10-25T10:11:48Z</time>
      </trkpt>
      <trkpt lat="48.53523" lon="2.10667">
        <ele>148.2</ele>
        <time>2025-10-25T10:11:50Z</time>
      </trkpt>
      <trkpt lat="48.53524" lon="2.10671">
        <ele>148.2</ele>
        <time>2025-10-25T10:11:52Z</time>
      </trkpt>
      <trkpt lat="48.53525" lon="2.10675">
        <ele>148.2</ele>
        <time>2025-10-25T10:11:54Z</time>
      </trkpt>
      <trkpt lat="48.53525" lon="2.10679">
        <ele>148</ele>
        <time>2025-10-25T10:11:56Z</time>
      </trkpt>
      <trkpt lat="48.53526" lon="2.10683">
        <ele>148</ele>
        <time>2025-10-25T10:11:58Z</time>
      </trkpt>
      <trkpt lat="48.53527" lon="2.10687">
        <ele>148</ele>
        <time>2025-10-25T10:12:00Z</time>
      </trkpt>
      <trkpt lat="48.53527" lon="2.10691">
        <ele>148</ele>
        <time>2025-10-25T10:12:02Z</time>
      </trkpt>
      <trkpt lat="48.53528" lon="2.10694">
        <ele>148</ele>
        <time>2025-10-25T10:12:04Z</time>
      </trkpt>
      <trkpt lat="48.53528" lon="2.10698">
        <ele>148</ele>
        <time>2025-10-25T10:12:06Z</time>
      </trkpt>
      <trkpt lat="48.53529" lon="2.10703">
        <ele>148</ele>
        <time>2025-10-25T10:12:08Z</time>
      </trkpt>
      <trkpt lat="48.5353" lon="2.10707">
        <ele>148</ele>
        <time>2025-10-25T10:12:10Z</time>
      </trkpt>
      <trkpt lat="48.5353" lon="2.10712">
        <ele>148</ele>
        <time>2025-10-25T10:12:12Z</time>
      </trkpt>
      <trkpt lat="48.5353" lon="2.10717">
        <ele>148</ele>
        <time>2025-10-25T10:12:14Z</time>
      </trkpt>
      <trkpt lat="48.5353" lon="2.10721">
        <ele>148</ele>
        <time>2025-10-25T10:12:16Z</time>
      </trkpt>
      <trkpt lat="48.53531" lon="2.10724">
        <ele>148.2</ele>
        <time>2025-10-25T10:12:18Z</time>
      </trkpt>
      <trkpt lat="48.53531" lon="2.10728">
        <ele>148.2</ele>
        <time>2025-10-25T10:12:20Z</time>
      </trkpt>
      <trkpt lat="48.53532" lon="2.10731">
        <ele>148.2</ele>
        <time>2025-10-25T10:12:22Z</time>
      </trkpt>
      <trkpt lat="48.53532" lon="2.10735">
        <ele>148.4</ele>
        <time>2025-10-25T10:12:24Z</time>
      </trkpt>
      <trkpt lat="48.53532" lon="2.10739">
        <ele>148.4</ele>
        <time>2025-10-25T10:12:26Z</time>
      </trkpt>
      <trkpt lat="48.53533" lon="2.10743">
        <ele>148.6</ele>
        <time>2025-10-25T10:12:28Z</time>
      </trkpt>
      <trkpt lat="48.53533" lon="2.10747">
        <ele>148.8</ele>
        <time>2025-10-25T10:12:30Z</time>
      </trkpt>
      <trkpt lat="48.53533" lon="2.1075">
        <ele>148.8</ele>
        <time>2025-10-25T10:12:32Z</time>
      </trkpt>
      <trkpt lat="48.53534" lon="2.10754">
        <ele>149</ele>
        <time>2025-10-25T10:12:34Z</time>
      </trkpt>
      <trkpt lat="48.53535" lon="2.10758">
        <ele>149.2</ele>
        <time>2025-10-25T10:12:36Z</time>
      </trkpt>
      <trkpt lat="48.53535" lon="2.10762">
        <ele>149.4</ele>
        <time>2025-10-25T10:12:38Z</time>
      </trkpt>
      <trkpt lat="48.53536" lon="2.10765">
        <ele>149.4</ele>
        <time>2025-10-25T10:12:40Z</time>
      </trkpt>
      <trkpt lat="48.53537" lon="2.10769">
        <ele>149.6</ele>
        <time>2025-10-25T10:12:42Z</time>
      </trkpt>
      <trkpt lat="48.53537" lon="2.10772">
        <ele>150</ele>
        <time>2025-10-25T10:12:44Z</time>
      </trkpt>
      <trkpt lat="48.53538" lon="2.10776">
        <ele>150.2</ele>
        <time>2025-10-25T10:12:46Z</time>
      </trkpt>
      <trkpt lat="48.53539" lon="2.10779">
        <ele>150.6</ele>
        <time>2025-10-25T10:12:48Z</time>
      </trkpt>
      <trkpt lat="48.5354" lon="2.10783">
        <ele>150.8</ele>
        <time>2025-10-25T10:12:50Z</time>
      </trkpt>
      <trkpt lat="48.53541" lon="2.10786">
        <ele>151.2</ele>
        <time>2025-10-25T10:12:52Z</time>
      </trkpt>
      <trkpt lat="48.53541" lon="2.1079">
        <ele>151.4</ele>
        <time>2025-10-25T10:12:54Z</time>
      </trkpt>
      <trkpt lat="48.53541" lon="2.10793">
        <ele>151.8</ele>
        <time>2025-10-25T10:12:56Z</time>
      </trkpt>
      <trkpt lat="48.53542" lon="2.10797">
        <ele>152.2</ele>
        <time>2025-10-25T10:12:58Z</time>
      </trkpt>
      <trkpt lat="48.53543" lon="2.10801">
        <ele>152.6</ele>
        <time>2025-10-25T10:13:00Z</time>
      </trkpt>
      <trkpt lat="48.53542" lon="2.10805">
        <ele>152.8</ele>
        <time>2025-10-25T10:13:02Z</time>
      </trkpt>
      <trkpt lat="48.53542" lon="2.10809">
        <ele>153</ele>
        <time>2025-10-25T10:13:04Z</time>
      </trkpt>
      <trkpt lat="48.53541" lon="2.10813">
        <ele>153.2</ele>
        <time>2025-10-25T10:13:06Z</time>
      </trkpt>
      <trkpt lat="48.5354" lon="2.10816">
        <ele>153.4</ele>
        <time>2025-10-25T10:13:08Z</time>
      </trkpt>
      <trkpt lat="48.53539" lon="2.10819">
        <ele>153.6</ele>
        <time>2025-10-25T10:13:10Z</time>
      </trkpt>
      <trkpt lat="48.53539" lon="2.10823">
        <ele>153.8</ele>
        <time>2025-10-25T10:13:12Z</time>
      </trkpt>
      <trkpt lat="48.53538" lon="2.10827">
        <ele>154</ele>
        <time>2025-10-25T10:13:14Z</time>
      </trkpt>
      <trkpt lat="48.53538" lon="2.10831">
        <ele>153.8</ele>
        <time>2025-10-25T10:13:16Z</time>
      </trkpt>
      <trkpt lat="48.53538" lon="2.10835">
        <ele>153.8</ele>
        <time>2025-10-25T10:13:18Z</time>
      </trkpt>
      <trkpt lat="48.53538" lon="2.10839">
        <ele>154</ele>
        <time>2025-10-25T10:13:20Z</time>
      </trkpt>
      <trkpt lat="48.53537" lon="2.10843">
        <ele>154</ele>
        <time>2025-10-25T10:13:22Z</time>
      </trkpt>
      <trkpt lat="48.53537" lon="2.10847">
        <ele>154</ele>
        <time>2025-10-25T10:13:24Z</time>
      </trkpt>
      <trkpt lat="48.53537" lon="2.10851">
        <ele>154.2</ele>
        <time>2025-10-25T10:13:26Z</time>
      </trkpt>
      <trkpt lat="48.53538" lon="2.10856">
        <ele>154.2</ele>
        <time>2025-10-25T10:13:28Z</time>
      </trkpt>
      <trkpt lat="48.53539" lon="2.1086">
        <ele>154.2</ele>
        <time>2025-10-25T10:13:30Z</time>
      </trkpt>
      <trkpt lat="48.53539" lon="2.10865">
        <ele>154.2</ele>
        <time>2025-10-25T10:13:32Z</time>
      </trkpt>
      <trkpt lat="48.5354" lon="2.10869">
        <ele>154</ele>
        <time>2025-10-25T10:13:34Z</time>
      </trkpt>
      <trkpt lat="48.5354" lon="2.10873">
        <ele>154</ele>
        <time>2025-10-25T10:13:36Z</time>
      </trkpt>
      <trkpt lat="48.5354" lon="2.10877">
        <ele>153.8</ele>
        <time>2025-10-25T10:13:38Z</time>
      </trkpt>
      <trkpt lat="48.5354" lon="2.10881">
        <ele>153.8</ele>
        <time>2025-10-25T10:13:40Z</time>
      </trkpt>
      <trkpt lat="48.5354" lon="2.10886">
        <ele>153.8</ele>
        <time>2025-10-25T10:13:42Z</time>
      </trkpt>
      <trkpt lat="48.5354" lon="2.1089">
        <ele>153.8</ele>
        <time>2025-10-25T10:13:44Z</time>
      </trkpt>
      <trkpt lat="48.53541" lon="2.10894">
        <ele>153.8</ele>
        <time>2025-10-25T10:13:46Z</time>
      </trkpt>
      <trkpt lat="48.53541" lon="2.10898">
        <ele>154</ele>
        <time>2025-10-25T10:13:48Z</time>
      </trkpt>
      <trkpt lat="48.53543" lon="2.10901">
        <ele>154</ele>
        <time>2025-10-25T10:13:50Z</time>
      </trkpt>
      <trkpt lat="48.53544" lon="2.10904">
        <ele>153.8</ele>
        <time>2025-10-25T10:13:52Z</time>
      </trkpt>
      <trkpt lat="48.53546" lon="2.10908">
        <ele>153.8</ele>
        <time>2025-10-25T10:13:54Z</time>
      </trkpt>
      <trkpt lat="48.53548" lon="2.10912">
        <ele>153.8</ele>
        <time>2025-10-25T10:13:56Z</time>
      </trkpt>
      <trkpt lat="48.53549" lon="2.10916">
        <ele>154</ele>
        <time>2025-10-25T10:13:58Z</time>
      </trkpt>
      <trkpt lat="48.53551" lon="2.10919">
        <ele>154</ele>
        <time>2025-10-25T10:14:00Z</time>
      </trkpt>
      <trkpt lat="48.53553" lon="2.10922">
        <ele>154</ele>
        <time>2025-10-25T10:14:02Z</time>
      </trkpt>
      <trkpt lat="48.53555" lon="2.10925">
        <ele>154.2</ele>
        <time>2025-10-25T10:14:04Z</time>
      </trkpt>
      <trkpt lat="48.53557" lon="2.10927">
        <ele>154.2</ele>
        <time>2025-10-25T10:14:06Z</time>
      </trkpt>
      <trkpt lat="48.53559" lon="2.10931">
        <ele>154.2</ele>
        <time>2025-10-25T10:14:08Z</time>
      </trkpt>
      <trkpt lat="48.53562" lon="2.10934">
        <ele>154.2</ele>
        <time>2025-10-25T10:14:10Z</time>
      </trkpt>
      <trkpt lat="48.53564" lon="2.10937">
        <ele>154.2</ele>
        <time>2025-10-25T10:14:12Z</time>
      </trkpt>
      <trkpt lat="48.53565" lon="2.10941">
        <ele>154.2</ele>
        <time>2025-10-25T10:14:14Z</time>
      </trkpt>
      <trkpt lat="48.53567" lon="2.10945">
        <ele>153.8</ele>
        <time>2025-10-25T10:14:16Z</time>
      </trkpt>
      <trkpt lat="48.53568" lon="2.10949">
        <ele>153.6</ele>
        <time>2025-10-25T10:14:18Z</time>
      </trkpt>
      <trkpt lat="48.5357" lon="2.10952">
        <ele>153.4</ele>
        <time>2025-10-25T10:14:20Z</time>
      </trkpt>
      <trkpt lat="48.53572" lon="2.10955">
        <ele>153.4</ele>
        <time>2025-10-25T10:14:22Z</time>
      </trkpt>
      <trkpt lat="48.53574" lon="2.10958">
        <ele>153.4</ele>
        <time>2025-10-25T10:14:24Z</time>
      </trkpt>
      <trkpt lat="48.53576" lon="2.10961">
        <ele>153.4</ele>
        <time>2025-10-25T10:14:26Z</time>
      </trkpt>
      <trkpt lat="48.53578" lon="2.10964">
        <ele>153.4</ele>
        <time>2025-10-25T10:14:28Z</time>
      </trkpt>
      <trkpt lat="48.5358" lon="2.10967">
        <ele>153.4</ele>
        <time>2025-10-25T10:14:30Z</time>
      </trkpt>
      <trkpt lat="48.53583" lon="2.10969">
        <ele>153.4</ele>
        <time>2025-10-25T10:14:32Z</time>
      </trkpt>
      <trkpt lat="48.53585" lon="2.10972">
        <ele>153.6</ele>
        <time>2025-10-25T10:14:34Z</time>
      </trkpt>
      <trkpt lat="48.53587" lon="2.10976">
        <ele>153.6</ele>
        <time>2025-10-25T10:14:36Z</time>
      </trkpt>
      <trkpt lat="48.53589" lon="2.10979">
        <ele>153.8</ele>
        <time>2025-10-25T10:14:38Z</time>
      </trkpt>
      <trkpt lat="48.53591" lon="2.10983">
        <ele>153.8</ele>
        <time>2025-10-25T10:14:40Z</time>
      </trkpt>
      <trkpt lat="48.53592" lon="2.10986">
        <ele>154</ele>
        <time>2025-10-25T10:14:42Z</time>
      </trkpt>
      <trkpt lat="48.53594" lon="2.1099">
        <ele>154</ele>
        <time>2025-10-25T10:14:44Z</time>
      </trkpt>
      <trkpt lat="48.53595" lon="2.10993">
        <ele>154</ele>
        <time>2025-10-25T10:14:46Z</time>
      </trkpt>
      <trkpt lat="48.53597" lon="2.10997">
        <ele>154</ele>
        <time>2025-10-25T10:14:48Z</time>
      </trkpt>
      <trkpt lat="48.53598" lon="2.11001">
        <ele>154</ele>
        <time>2025-10-25T10:14:50Z</time>
      </trkpt>
      <trkpt lat="48.536" lon="2.11005">
        <ele>154</ele>
        <time>2025-10-25T10:14:52Z</time>
      </trkpt>
      <trkpt lat="48.536" lon="2.11008">
        <ele>154</ele>
        <time>2025-10-25T10:14:54Z</time>
      </trkpt>
      <trkpt lat="48.53602" lon="2.11012">
        <ele>154</ele>
        <time>2025-10-25T10:14:56Z</time>
      </trkpt>
      <trkpt lat="48.53603" lon="2.11015">
        <ele>154</ele>
        <time>2025-10-25T10:14:58Z</time>
      </trkpt>
      <trkpt lat="48.53605" lon="2.11019">
        <ele>154.2</ele>
        <time>2025-10-25T10:15:00Z</time>
      </trkpt>
      <trkpt lat="48.53606" lon="2.11022">
        <ele>154.2</ele>
        <time>2025-10-25T10:15:02Z</time>
      </trkpt>
      <trkpt lat="48.53608" lon="2.11026">
        <ele>154.4</ele>
        <time>2025-10-25T10:15:04Z</time>
      </trkpt>
      <trkpt lat="48.5361" lon="2.11029">
        <ele>154.6</ele>
        <time>2025-10-25T10:15:06Z</time>
      </trkpt>
      <trkpt lat="48.53612" lon="2.11033">
        <ele>154.8</ele>
        <time>2025-10-25T10:15:08Z</time>
      </trkpt>
      <trkpt lat="48.53613" lon="2.11036">
        <ele>155.2</ele>
        <time>2025-10-25T10:15:10Z</time>
      </trkpt>
      <trkpt lat="48.53615" lon="2.1104">
        <ele>155.2</ele>
        <time>2025-10-25T10:15:12Z</time>
      </trkpt>
      <trkpt lat="48.53616" lon="2.11044">
        <ele>155.4</ele>
        <time>2025-10-25T10:15:14Z</time>
      </trkpt>
      <trkpt lat="48.53618" lon="2.11046">
        <ele>155.4</ele>
        <time>2025-10-25T10:15:15Z</time>
      </trkpt>
      <trkpt lat="48.53619" lon="2.1105">
        <ele>155.4</ele>
        <time>2025-10-25T10:15:17Z</time>
      </trkpt>
      <trkpt lat="48.5362" lon="2.11052">
        <ele>155.4</ele>
        <time>2025-10-25T10:15:18Z</time>
      </trkpt>
      <trkpt lat="48.53622" lon="2.11056">
        <ele>155.6</ele>
        <time>2025-10-25T10:15:20Z</time>
      </trkpt>
      <trkpt lat="48.53623" lon="2.1106">
        <ele>155.8</ele>
        <time>2025-10-25T10:15:22Z</time>
      </trkpt>
      <trkpt lat="48.53624" lon="2.11063">
        <ele>156</ele>
        <time>2025-10-25T10:15:24Z</time>
      </trkpt>
      <trkpt lat="48.53624" lon="2.11067">
        <ele>156</ele>
        <time>2025-10-25T10:15:26Z</time>
      </trkpt>
      <trkpt lat="48.53624" lon="2.1107">
        <ele>156</ele>
        <time>2025-10-25T10:15:28Z</time>
      </trkpt>
      <trkpt lat="48.53624" lon="2.11074">
        <ele>156.2</ele>
        <time>2025-10-25T10:15:30Z</time>
      </trkpt>
      <trkpt lat="48.53624" lon="2.11078">
        <ele>156.4</ele>
        <time>2025-10-25T10:15:32Z</time>
      </trkpt>
      <trkpt lat="48.53624" lon="2.11082">
        <ele>156.4</ele>
        <time>2025-10-25T10:15:34Z</time>
      </trkpt>
      <trkpt lat="48.53624" lon="2.11085">
        <ele>156.6</ele>
        <time>2025-10-25T10:15:36Z</time>
      </trkpt>
      <trkpt lat="48.53624" lon="2.11089">
        <ele>156.8</ele>
        <time>2025-10-25T10:15:38Z</time>
      </trkpt>
      <trkpt lat="48.53624" lon="2.11093">
        <ele>157.2</ele>
        <time>2025-10-25T10:15:40Z</time>
      </trkpt>
      <trkpt lat="48.53625" lon="2.11097">
        <ele>157.4</ele>
        <time>2025-10-25T10:15:42Z</time>
      </trkpt>
      <trkpt lat="48.53625" lon="2.11101">
        <ele>157.6</ele>
        <time>2025-10-25T10:15:44Z</time>
      </trkpt>
      <trkpt lat="48.53626" lon="2.11106">
        <ele>158</ele>
        <time>2025-10-25T10:15:46Z</time>
      </trkpt>
      <trkpt lat="48.53627" lon="2.11111">
        <ele>158.4</ele>
        <time>2025-10-25T10:15:48Z</time>
      </trkpt>
      <trkpt lat="48.53628" lon="2.11113">
        <ele>158.6</ele>
        <time>2025-10-25T10:15:49Z</time>
      </trkpt>
      <trkpt lat="48.53628" lon="2.11118">
        <ele>158.8</ele>
        <time>2025-10-25T10:15:51Z</time>
      </trkpt>
      <trkpt lat="48.5363" lon="2.11122">
        <ele>159.2</ele>
        <time>2025-10-25T10:15:53Z</time>
      </trkpt>
      <trkpt lat="48.53631" lon="2.11126">
        <ele>159.4</ele>
        <time>2025-10-25T10:15:55Z</time>
      </trkpt>
      <trkpt lat="48.53633" lon="2.1113">
        <ele>159.6</ele>
        <time>2025-10-25T10:15:57Z</time>
      </trkpt>
      <trkpt lat="48.53634" lon="2.11134">
        <ele>159.6</ele>
        <time>2025-10-25T10:15:59Z</time>
      </trkpt>
      <trkpt lat="48.53636" lon="2.11138">
        <ele>159.8</ele>
        <time>2025-10-25T10:16:01Z</time>
      </trkpt>
      <trkpt lat="48.53637" lon="2.11141">
        <ele>160</ele>
        <time>2025-10-25T10:16:03Z</time>
      </trkpt>
      <trkpt lat="48.53638" lon="2.11144">
        <ele>160.2</ele>
        <time>2025-10-25T10:16:05Z</time>
      </trkpt>
      <trkpt lat="48.53638" lon="2.11148">
        <ele>160.4</ele>
        <time>2025-10-25T10:16:07Z</time>
      </trkpt>
      <trkpt lat="48.5364" lon="2.11152">
        <ele>160.6</ele>
        <time>2025-10-25T10:16:09Z</time>
      </trkpt>
      <trkpt lat="48.5364" lon="2.11157">
        <ele>160.8</ele>
        <time>2025-10-25T10:16:11Z</time>
      </trkpt>
      <trkpt lat="48.53641" lon="2.11161">
        <ele>160.8</ele>
        <time>2025-10-25T10:16:13Z</time>
      </trkpt>
      <trkpt lat="48.53642" lon="2.11166">
        <ele>161</ele>
        <time>2025-10-25T10:16:15Z</time>
      </trkpt>
      <trkpt lat="48.53643" lon="2.1117">
        <ele>161.2</ele>
        <time>2025-10-25T10:16:17Z</time>
      </trkpt>
      <trkpt lat="48.53644" lon="2.11174">
        <ele>161.2</ele>
        <time>2025-10-25T10:16:19Z</time>
      </trkpt>
      <trkpt lat="48.53645" lon="2.11179">
        <ele>161.2</ele>
        <time>2025-10-25T10:16:21Z</time>
      </trkpt>
      <trkpt lat="48.53647" lon="2.11182">
        <ele>161</ele>
        <time>2025-10-25T10:16:23Z</time>
      </trkpt>
      <trkpt lat="48.53648" lon="2.11186">
        <ele>160.8</ele>
        <time>2025-10-25T10:16:25Z</time>
      </trkpt>
      <trkpt lat="48.53649" lon="2.11188">
        <ele>160.8</ele>
        <time>2025-10-25T10:16:26Z</time>
      </trkpt>
      <trkpt lat="48.53651" lon="2.11193">
        <ele>160.8</ele>
        <time>2025-10-25T10:16:28Z</time>
      </trkpt>
      <trkpt lat="48.53652" lon="2.11195">
        <ele>160.8</ele>
        <time>2025-10-25T10:16:29Z</time>
      </trkpt>
      <trkpt lat="48.53653" lon="2.112">
        <ele>160.8</ele>
        <time>2025-10-25T10:16:31Z</time>
      </trkpt>
      <trkpt lat="48.53655" lon="2.11204">
        <ele>160.8</ele>
        <time>2025-10-25T10:16:33Z</time>
      </trkpt>
      <trkpt lat="48.53657" lon="2.11208">
        <ele>160.8</ele>
        <time>2025-10-25T10:16:35Z</time>
      </trkpt>
      <trkpt lat="48.53658" lon="2.11212">
        <ele>160.6</ele>
        <time>2025-10-25T10:16:37Z</time>
      </trkpt>
      <trkpt lat="48.5366" lon="2.11216">
        <ele>160.4</ele>
        <time>2025-10-25T10:16:39Z</time>
      </trkpt>
      <trkpt lat="48.53661" lon="2.11219">
        <ele>160.2</ele>
        <time>2025-10-25T10:16:41Z</time>
      </trkpt>
      <trkpt lat="48.53663" lon="2.11222">
        <ele>160.2</ele>
        <time>2025-10-25T10:16:43Z</time>
      </trkpt>
      <trkpt lat="48.53665" lon="2.11224">
        <ele>160.2</ele>
        <time>2025-10-25T10:16:45Z</time>
      </trkpt>
      <trkpt lat="48.53668" lon="2.11226">
        <ele>160</ele>
        <time>2025-10-25T10:16:47Z</time>
      </trkpt>
      <trkpt lat="48.5367" lon="2.11227">
        <ele>160</ele>
        <time>2025-10-25T10:16:48Z</time>
      </trkpt>
      <trkpt lat="48.53672" lon="2.11229">
        <ele>159.8</ele>
        <time>2025-10-25T10:16:49Z</time>
      </trkpt>
      <trkpt lat="48.53673" lon="2.1123">
        <ele>159.8</ele>
        <time>2025-10-25T10:16:50Z</time>
      </trkpt>
      <trkpt lat="48.53676" lon="2.11233">
        <ele>159.6</ele>
        <time>2025-10-25T10:16:52Z</time>
      </trkpt>
      <trkpt lat="48.53677" lon="2.11236">
        <ele>159.6</ele>
        <time>2025-10-25T10:16:54Z</time>
      </trkpt>
      <trkpt lat="48.53678" lon="2.11238">
        <ele>159.6</ele>
        <time>2025-10-25T10:16:56Z</time>
      </trkpt>
      <trkpt lat="48.5368" lon="2.1124">
        <ele>159.6</ele>
        <time>2025-10-25T10:16:58Z</time>
      </trkpt>
      <trkpt lat="48.53683" lon="2.11242">
        <ele>159.6</ele>
        <time>2025-10-25T10:17:00Z</time>
      </trkpt>
      <trkpt lat="48.53686" lon="2.11244">
        <ele>159.6</ele>
        <time>2025-10-25T10:17:02Z</time>
      </trkpt>
      <trkpt lat="48.53689" lon="2.11246">
        <ele>159.6</ele>
        <time>2025-10-25T10:17:04Z</time>
      </trkpt>
      <trkpt lat="48.53692" lon="2.11248">
        <ele>159.6</ele>
        <time>2025-10-25T10:17:06Z</time>
      </trkpt>
      <trkpt lat="48.53694" lon="2.1125">
        <ele>159.6</ele>
        <time>2025-10-25T10:17:08Z</time>
      </trkpt>
      <trkpt lat="48.53696" lon="2.11251">
        <ele>159.6</ele>
        <time>2025-10-25T10:17:10Z</time>
      </trkpt>
      <trkpt lat="48.53698" lon="2.11252">
        <ele>159.6</ele>
        <time>2025-10-25T10:17:12Z</time>
      </trkpt>
      <trkpt lat="48.53701" lon="2.11253">
        <ele>159.4</ele>
        <time>2025-10-25T10:17:14Z</time>
      </trkpt>
      <trkpt lat="48.53704" lon="2.11254">
        <ele>159.4</ele>
        <time>2025-10-25T10:17:16Z</time>
      </trkpt>
      <trkpt lat="48.53707" lon="2.11256">
        <ele>159.6</ele>
        <time>2025-10-25T10:17:18Z</time>
      </trkpt>
      <trkpt lat="48.53709" lon="2.11257">
        <ele>159.6</ele>
        <time>2025-10-25T10:17:20Z</time>
      </trkpt>
      <trkpt lat="48.53711" lon="2.11258">
        <ele>159.6</ele>
        <time>2025-10-25T10:17:22Z</time>
      </trkpt>
      <trkpt lat="48.53714" lon="2.11258">
        <ele>159.4</ele>
        <time>2025-10-25T10:17:24Z</time>
      </trkpt>
      <trkpt lat="48.53717" lon="2.1126">
        <ele>159.4</ele>
        <time>2025-10-25T10:17:26Z</time>
      </trkpt>
      <trkpt lat="48.53719" lon="2.11261">
        <ele>159.2</ele>
        <time>2025-10-25T10:17:28Z</time>
      </trkpt>
      <trkpt lat="48.53721" lon="2.11262">
        <ele>159.2</ele>
        <time>2025-10-25T10:17:29Z</time>
      </trkpt>
      <trkpt lat="48.53725" lon="2.11263">
        <ele>159.2</ele>
        <time>2025-10-25T10:17:31Z</time>
      </trkpt>
      <trkpt lat="48.53727" lon="2.11263">
        <ele>159</ele>
        <time>2025-10-25T10:17:32Z</time>
      </trkpt>
      <trkpt lat="48.5373" lon="2.11263">
        <ele>159.2</ele>
        <time>2025-10-25T10:17:34Z</time>
      </trkpt>
      <trkpt lat="48.53732" lon="2.11263">
        <ele>159.2</ele>
        <time>2025-10-25T10:17:35Z</time>
      </trkpt>
      <trkpt lat="48.53735" lon="2.11263">
        <ele>159.4</ele>
        <time>2025-10-25T10:17:37Z</time>
      </trkpt>
      <trkpt lat="48.53737" lon="2.11263">
        <ele>159.4</ele>
        <time>2025-10-25T10:17:38Z</time>
      </trkpt>
      <trkpt lat="48.53739" lon="2.11264">
        <ele>159.4</ele>
        <time>2025-10-25T10:17:39Z</time>
      </trkpt>
      <trkpt lat="48.53742" lon="2.11265">
        <ele>159.4</ele>
        <time>2025-10-25T10:17:41Z</time>
      </trkpt>
      <trkpt lat="48.53743" lon="2.11267">
        <ele>159.4</ele>
        <time>2025-10-25T10:17:42Z</time>
      </trkpt>
      <trkpt lat="48.53746" lon="2.1127">
        <ele>159.4</ele>
        <time>2025-10-25T10:17:44Z</time>
      </trkpt>
      <trkpt lat="48.53747" lon="2.11273">
        <ele>159.4</ele>
        <time>2025-10-25T10:17:46Z</time>
      </trkpt>
      <trkpt lat="48.53748" lon="2.11275">
        <ele>159.2</ele>
        <time>2025-10-25T10:17:48Z</time>
      </trkpt>
      <trkpt lat="48.53746" lon="2.11275">
        <ele>159.8</ele>
        <time>2025-10-25T10:17:59Z</time>
      </trkpt>
      <trkpt lat="48.53745" lon="2.11277">
        <ele>160</ele>
        <time>2025-10-25T10:18:04Z</time>
      </trkpt>
      <trkpt lat="48.53746" lon="2.1128">
        <ele>160.2</ele>
        <time>2025-10-25T10:18:07Z</time>
      </trkpt>
      <trkpt lat="48.53747" lon="2.11284">
        <ele>160.2</ele>
        <time>2025-10-25T10:18:09Z</time>
      </trkpt>
      <trkpt lat="48.53748" lon="2.11288">
        <ele>160.2</ele>
        <time>2025-10-25T10:18:11Z</time>
      </trkpt>
      <trkpt lat="48.53748" lon="2.11291">
        <ele>160.2</ele>
        <time>2025-10-25T10:18:13Z</time>
      </trkpt>
      <trkpt lat="48.53748" lon="2.11295">
        <ele>160.2</ele>
        <time>2025-10-25T10:18:15Z</time>
      </trkpt>
      <trkpt lat="48.53748" lon="2.11299">
        <ele>160</ele>
        <time>2025-10-25T10:18:17Z</time>
      </trkpt>
      <trkpt lat="48.53747" lon="2.11303">
        <ele>159.8</ele>
        <time>2025-10-25T10:18:19Z</time>
      </trkpt>
      <trkpt lat="48.53745" lon="2.11307">
        <ele>159.6</ele>
        <time>2025-10-25T10:18:21Z</time>
      </trkpt>
      <trkpt lat="48.53744" lon="2.11311">
        <ele>159.4</ele>
        <time>2025-10-25T10:18:23Z</time>
      </trkpt>
      <trkpt lat="48.53743" lon="2.11315">
        <ele>159.4</ele>
        <time>2025-10-25T10:18:25Z</time>
      </trkpt>
      <trkpt lat="48.53742" lon="2.11318">
        <ele>159.4</ele>
        <time>2025-10-25T10:18:27Z</time>
      </trkpt>
      <trkpt lat="48.53742" lon="2.11322">
        <ele>159.2</ele>
        <time>2025-10-25T10:18:29Z</time>
      </trkpt>
      <trkpt lat="48.53741" lon="2.11326">
        <ele>159</ele>
        <time>2025-10-25T10:18:31Z</time>
      </trkpt>
      <trkpt lat="48.5374" lon="2.11331">
        <ele>158.8</ele>
        <time>2025-10-25T10:18:33Z</time>
      </trkpt>
      <trkpt lat="48.53738" lon="2.11336">
        <ele>158.4</ele>
        <time>2025-10-25T10:18:35Z</time>
      </trkpt>
      <trkpt lat="48.53737" lon="2.1134">
        <ele>158</ele>
        <time>2025-10-25T10:18:37Z</time>
      </trkpt>
      <trkpt lat="48.53736" lon="2.11344">
        <ele>157.6</ele>
        <time>2025-10-25T10:18:39Z</time>
      </trkpt>
      <trkpt lat="48.53735" lon="2.11348">
        <ele>157.4</ele>
        <time>2025-10-25T10:18:41Z</time>
      </trkpt>
      <trkpt lat="48.53735" lon="2.11352">
        <ele>157</ele>
        <time>2025-10-25T10:18:43Z</time>
      </trkpt>
      <trkpt lat="48.53734" lon="2.11356">
        <ele>156.8</ele>
        <time>2025-10-25T10:18:45Z</time>
      </trkpt>
      <trkpt lat="48.53733" lon="2.1136">
        <ele>156.6</ele>
        <time>2025-10-25T10:18:47Z</time>
      </trkpt>
      <trkpt lat="48.53733" lon="2.11364">
        <ele>156.4</ele>
        <time>2025-10-25T10:18:49Z</time>
      </trkpt>
      <trkpt lat="48.53732" lon="2.11368">
        <ele>156.2</ele>
        <time>2025-10-25T10:18:51Z</time>
      </trkpt>
      <trkpt lat="48.53731" lon="2.11373">
        <ele>156</ele>
        <time>2025-10-25T10:18:53Z</time>
      </trkpt>
      <trkpt lat="48.5373" lon="2.11377">
        <ele>155.8</ele>
        <time>2025-10-25T10:18:55Z</time>
      </trkpt>
      <trkpt lat="48.53729" lon="2.11382">
        <ele>155.8</ele>
        <time>2025-10-25T10:18:57Z</time>
      </trkpt>
      <trkpt lat="48.53728" lon="2.11387">
        <ele>155.6</ele>
        <time>2025-10-25T10:18:59Z</time>
      </trkpt>
      <trkpt lat="48.53727" lon="2.11391">
        <ele>155.4</ele>
        <time>2025-10-25T10:19:01Z</time>
      </trkpt>
      <trkpt lat="48.53726" lon="2.11396">
        <ele>155.2</ele>
        <time>2025-10-25T10:19:03Z</time>
      </trkpt>
      <trkpt lat="48.53725" lon="2.114">
        <ele>154.8</ele>
        <time>2025-10-25T10:19:05Z</time>
      </trkpt>
      <trkpt lat="48.53724" lon="2.11404">
        <ele>154.6</ele>
        <time>2025-10-25T10:19:07Z</time>
      </trkpt>
      <trkpt lat="48.53723" lon="2.11408">
        <ele>154.2</ele>
        <time>2025-10-25T10:19:09Z</time>
      </trkpt>
      <trkpt lat="48.53722" lon="2.11412">
        <ele>154</ele>
        <time>2025-10-25T10:19:11Z</time>
      </trkpt>
      <trkpt lat="48.53722" lon="2.11416">
        <ele>154</ele>
        <time>2025-10-25T10:19:13Z</time>
      </trkpt>
      <trkpt lat="48.53721" lon="2.1142">
        <ele>153.8</ele>
        <time>2025-10-25T10:19:15Z</time>
      </trkpt>
      <trkpt lat="48.53721" lon="2.11424">
        <ele>153.6</ele>
        <time>2025-10-25T10:19:17Z</time>
      </trkpt>
      <trkpt lat="48.5372" lon="2.11428">
        <ele>153.4</ele>
        <time>2025-10-25T10:19:19Z</time>
      </trkpt>
      <trkpt lat="48.5372" lon="2.11433">
        <ele>153.2</ele>
        <time>2025-10-25T10:19:21Z</time>
      </trkpt>
      <trkpt lat="48.53719" lon="2.11437">
        <ele>153</ele>
        <time>2025-10-25T10:19:23Z</time>
      </trkpt>
      <trkpt lat="48.53718" lon="2.11442">
        <ele>152.8</ele>
        <time>2025-10-25T10:19:25Z</time>
      </trkpt>
      <trkpt lat="48.53717" lon="2.11447">
        <ele>152.6</ele>
        <time>2025-10-25T10:19:27Z</time>
      </trkpt>
      <trkpt lat="48.53716" lon="2.1145">
        <ele>152.6</ele>
        <time>2025-10-25T10:19:28Z</time>
      </trkpt>
      <trkpt lat="48.53716" lon="2.11452">
        <ele>152.4</ele>
        <time>2025-10-25T10:19:29Z</time>
      </trkpt>
      <trkpt lat="48.53715" lon="2.11455">
        <ele>152.2</ele>
        <time>2025-10-25T10:19:30Z</time>
      </trkpt>
      <trkpt lat="48.53715" lon="2.11458">
        <ele>152.2</ele>
        <time>2025-10-25T10:19:31Z</time>
      </trkpt>
      <trkpt lat="48.53714" lon="2.1146">
        <ele>152</ele>
        <time>2025-10-25T10:19:32Z</time>
      </trkpt>
      <trkpt lat="48.53713" lon="2.11466">
        <ele>151.8</ele>
        <time>2025-10-25T10:19:34Z</time>
      </trkpt>
      <trkpt lat="48.53712" lon="2.11471">
        <ele>151.8</ele>
        <time>2025-10-25T10:19:36Z</time>
      </trkpt>
      <trkpt lat="48.53711" lon="2.11475">
        <ele>151.6</ele>
        <time>2025-10-25T10:19:38Z</time>
      </trkpt>
      <trkpt lat="48.5371" lon="2.1148">
        <ele>151.4</ele>
        <time>2025-10-25T10:19:40Z</time>
      </trkpt>
      <trkpt lat="48.5371" lon="2.11484">
        <ele>151.4</ele>
        <time>2025-10-25T10:19:42Z</time>
      </trkpt>
      <trkpt lat="48.53709" lon="2.11488">
        <ele>151.4</ele>
        <time>2025-10-25T10:19:44Z</time>
      </trkpt>
      <trkpt lat="48.53709" lon="2.11491">
        <ele>151.4</ele>
        <time>2025-10-25T10:19:46Z</time>
      </trkpt>
      <trkpt lat="48.53708" lon="2.11495">
        <ele>151.4</ele>
        <time>2025-10-25T10:19:48Z</time>
      </trkpt>
      <trkpt lat="48.53707" lon="2.11499">
        <ele>151.6</ele>
        <time>2025-10-25T10:19:50Z</time>
      </trkpt>
      <trkpt lat="48.53707" lon="2.11504">
        <ele>151.6</ele>
        <time>2025-10-25T10:19:52Z</time>
      </trkpt>
      <trkpt lat="48.53706" lon="2.11508">
        <ele>151.6</ele>
        <time>2025-10-25T10:19:54Z</time>
      </trkpt>
      <trkpt lat="48.53706" lon="2.11512">
        <ele>151.6</ele>
        <time>2025-10-25T10:19:56Z</time>
      </trkpt>
      <trkpt lat="48.53705" lon="2.11516">
        <ele>151.4</ele>
        <time>2025-10-25T10:19:58Z</time>
      </trkpt>
      <trkpt lat="48.53704" lon="2.1152">
        <ele>151.2</ele>
        <time>2025-10-25T10:20:00Z</time>
      </trkpt>
      <trkpt lat="48.53704" lon="2.11524">
        <ele>151.2</ele>
        <time>2025-10-25T10:20:02Z</time>
      </trkpt>
      <trkpt lat="48.53703" lon="2.11528">
        <ele>151</ele>
        <time>2025-10-25T10:20:04Z</time>
      </trkpt>
      <trkpt lat="48.53702" lon="2.11532">
        <ele>151</ele>
        <time>2025-10-25T10:20:06Z</time>
      </trkpt>
      <trkpt lat="48.53702" lon="2.11536">
        <ele>150.8</ele>
        <time>2025-10-25T10:20:08Z</time>
      </trkpt>
      <trkpt lat="48.53701" lon="2.1154">
        <ele>150.6</ele>
        <time>2025-10-25T10:20:10Z</time>
      </trkpt>
      <trkpt lat="48.537" lon="2.11544">
        <ele>150.6</ele>
        <time>2025-10-25T10:20:12Z</time>
      </trkpt>
      <trkpt lat="48.537" lon="2.11548">
        <ele>150.6</ele>
        <time>2025-10-25T10:20:14Z</time>
      </trkpt>
      <trkpt lat="48.53699" lon="2.11551">
        <ele>150.4</ele>
        <time>2025-10-25T10:20:16Z</time>
      </trkpt>
      <trkpt lat="48.53698" lon="2.11555">
        <ele>150.4</ele>
        <time>2025-10-25T10:20:18Z</time>
      </trkpt>
      <trkpt lat="48.53697" lon="2.11559">
        <ele>150.6</ele>
        <time>2025-10-25T10:20:20Z</time>
      </trkpt>
      <trkpt lat="48.53696" lon="2.11564">
        <ele>150.6</ele>
        <time>2025-10-25T10:20:22Z</time>
      </trkpt>
      <trkpt lat="48.53696" lon="2.11568">
        <ele>150.6</ele>
        <time>2025-10-25T10:20:24Z</time>
      </trkpt>
      <trkpt lat="48.53696" lon="2.11572">
        <ele>150.4</ele>
        <time>2025-10-25T10:20:26Z</time>
      </trkpt>
      <trkpt lat="48.53696" lon="2.11576">
        <ele>150.4</ele>
        <time>2025-10-25T10:20:28Z</time>
      </trkpt>
      <trkpt lat="48.53695" lon="2.1158">
        <ele>150.4</ele>
        <time>2025-10-25T10:20:30Z</time>
      </trkpt>
      <trkpt lat="48.53695" lon="2.11583">
        <ele>150.4</ele>
        <time>2025-10-25T10:20:32Z</time>
      </trkpt>
      <trkpt lat="48.53694" lon="2.11588">
        <ele>150.6</ele>
        <time>2025-10-25T10:20:34Z</time>
      </trkpt>
      <trkpt lat="48.53692" lon="2.11592">
        <ele>150.6</ele>
        <time>2025-10-25T10:20:36Z</time>
      </trkpt>
      <trkpt lat="48.53691" lon="2.11596">
        <ele>150.6</ele>
        <time>2025-10-25T10:20:38Z</time>
      </trkpt>
      <trkpt lat="48.5369" lon="2.116">
        <ele>150.4</ele>
        <time>2025-10-25T10:20:40Z</time>
      </trkpt>
      <trkpt lat="48.53689" lon="2.11604">
        <ele>150.4</ele>
        <time>2025-10-25T10:20:42Z</time>
      </trkpt>
      <trkpt lat="48.53688" lon="2.11608">
        <ele>150.2</ele>
        <time>2025-10-25T10:20:44Z</time>
      </trkpt>
      <trkpt lat="48.53687" lon="2.11612">
        <ele>150.2</ele>
        <time>2025-10-25T10:20:46Z</time>
      </trkpt>
      <trkpt lat="48.53686" lon="2.11617">
        <ele>150.2</ele>
        <time>2025-10-25T10:20:48Z</time>
      </trkpt>
      <trkpt lat="48.53685" lon="2.11621">
        <ele>150</ele>
        <time>2025-10-25T10:20:50Z</time>
      </trkpt>
      <trkpt lat="48.53684" lon="2.11625">
        <ele>150</ele>
        <time>2025-10-25T10:20:52Z</time>
      </trkpt>
      <trkpt lat="48.53684" lon="2.11628">
        <ele>150.2</ele>
        <time>2025-10-25T10:20:54Z</time>
      </trkpt>
      <trkpt lat="48.53683" lon="2.11632">
        <ele>150</ele>
        <time>2025-10-25T10:20:56Z</time>
      </trkpt>
      <trkpt lat="48.53682" lon="2.11636">
        <ele>150</ele>
        <time>2025-10-25T10:20:58Z</time>
      </trkpt>
      <trkpt lat="48.53681" lon="2.1164">
        <ele>150</ele>
        <time>2025-10-25T10:21:00Z</time>
      </trkpt>
      <trkpt lat="48.5368" lon="2.11643">
        <ele>150</ele>
        <time>2025-10-25T10:21:02Z</time>
      </trkpt>
      <trkpt lat="48.53678" lon="2.11646">
        <ele>149.8</ele>
        <time>2025-10-25T10:21:04Z</time>
      </trkpt>
      <trkpt lat="48.53676" lon="2.11648">
        <ele>149.6</ele>
        <time>2025-10-25T10:21:06Z</time>
      </trkpt>
      <trkpt lat="48.53674" lon="2.11649">
        <ele>149.6</ele>
        <time>2025-10-25T10:21:08Z</time>
      </trkpt>
      <trkpt lat="48.53671" lon="2.1165">
        <ele>149.4</ele>
        <time>2025-10-25T10:21:10Z</time>
      </trkpt>
      <trkpt lat="48.53668" lon="2.1165">
        <ele>149.4</ele>
        <time>2025-10-25T10:21:12Z</time>
      </trkpt>
      <trkpt lat="48.53665" lon="2.1165">
        <ele>149.4</ele>
        <time>2025-10-25T10:21:14Z</time>
      </trkpt>
      <trkpt lat="48.53662" lon="2.1165">
        <ele>149.4</ele>
        <time>2025-10-25T10:21:16Z</time>
      </trkpt>
      <trkpt lat="48.53659" lon="2.1165">
        <ele>149.2</ele>
        <time>2025-10-25T10:21:18Z</time>
      </trkpt>
      <trkpt lat="48.53656" lon="2.1165">
        <ele>149.2</ele>
        <time>2025-10-25T10:21:20Z</time>
      </trkpt>
      <trkpt lat="48.53653" lon="2.1165">
        <ele>149.2</ele>
        <time>2025-10-25T10:21:22Z</time>
      </trkpt>
      <trkpt lat="48.53651" lon="2.11651">
        <ele>149.2</ele>
        <time>2025-10-25T10:21:24Z</time>
      </trkpt>
      <trkpt lat="48.53648" lon="2.11651">
        <ele>149.2</ele>
        <time>2025-10-25T10:21:26Z</time>
      </trkpt>
      <trkpt lat="48.53646" lon="2.11652">
        <ele>149.2</ele>
        <time>2025-10-25T10:21:28Z</time>
      </trkpt>
      <trkpt lat="48.53643" lon="2.11653">
        <ele>149.2</ele>
        <time>2025-10-25T10:21:31Z</time>
      </trkpt>
      <trkpt lat="48.53641" lon="2.11654">
        <ele>149.2</ele>
        <time>2025-10-25T10:21:34Z</time>
      </trkpt>
      <trkpt lat="48.53639" lon="2.11654">
        <ele>149.2</ele>
        <time>2025-10-25T10:21:36Z</time>
      </trkpt>
      <trkpt lat="48.53636" lon="2.11654">
        <ele>149.2</ele>
        <time>2025-10-25T10:21:38Z</time>
      </trkpt>
      <trkpt lat="48.53634" lon="2.11655">
        <ele>149.2</ele>
        <time>2025-10-25T10:21:39Z</time>
      </trkpt>
      <trkpt lat="48.53632" lon="2.11655">
        <ele>149.2</ele>
        <time>2025-10-25T10:21:40Z</time>
      </trkpt>
      <trkpt lat="48.5363" lon="2.11656">
        <ele>149.2</ele>
        <time>2025-10-25T10:21:41Z</time>
      </trkpt>
      <trkpt lat="48.53627" lon="2.11657">
        <ele>149.2</ele>
        <time>2025-10-25T10:21:43Z</time>
      </trkpt>
      <trkpt lat="48.53625" lon="2.11657">
        <ele>149.2</ele>
        <time>2025-10-25T10:21:44Z</time>
      </trkpt>
      <trkpt lat="48.53622" lon="2.11658">
        <ele>149.2</ele>
        <time>2025-10-25T10:21:46Z</time>
      </trkpt>
      <trkpt lat="48.53619" lon="2.11658">
        <ele>149.2</ele>
        <time>2025-10-25T10:21:48Z</time>
      </trkpt>
      <trkpt lat="48.53617" lon="2.11659">
        <ele>149.2</ele>
        <time>2025-10-25T10:21:50Z</time>
      </trkpt>
      <trkpt lat="48.53614" lon="2.1166">
        <ele>149.4</ele>
        <time>2025-10-25T10:21:52Z</time>
      </trkpt>
      <trkpt lat="48.53612" lon="2.11661">
        <ele>149.6</ele>
        <time>2025-10-25T10:21:54Z</time>
      </trkpt>
      <trkpt lat="48.5361" lon="2.11662">
        <ele>149.8</ele>
        <time>2025-10-25T10:21:56Z</time>
      </trkpt>
      <trkpt lat="48.53607" lon="2.11663">
        <ele>149.8</ele>
        <time>2025-10-25T10:21:58Z</time>
      </trkpt>
      <trkpt lat="48.53604" lon="2.11664">
        <ele>150</ele>
        <time>2025-10-25T10:22:00Z</time>
      </trkpt>
      <trkpt lat="48.53602" lon="2.11665">
        <ele>150</ele>
        <time>2025-10-25T10:22:02Z</time>
      </trkpt>
      <trkpt lat="48.53599" lon="2.11667">
        <ele>150</ele>
        <time>2025-10-25T10:22:04Z</time>
      </trkpt>
      <trkpt lat="48.53596" lon="2.11667">
        <ele>150</ele>
        <time>2025-10-25T10:22:06Z</time>
      </trkpt>
      <trkpt lat="48.53594" lon="2.11668">
        <ele>150</ele>
        <time>2025-10-25T10:22:08Z</time>
      </trkpt>
      <trkpt lat="48.53592" lon="2.11669">
        <ele>150</ele>
        <time>2025-10-25T10:22:10Z</time>
      </trkpt>
      <trkpt lat="48.53589" lon="2.1167">
        <ele>150</ele>
        <time>2025-10-25T10:22:12Z</time>
      </trkpt>
      <trkpt lat="48.53586" lon="2.11672">
        <ele>149.8</ele>
        <time>2025-10-25T10:22:14Z</time>
      </trkpt>
      <trkpt lat="48.53584" lon="2.11673">
        <ele>149.8</ele>
        <time>2025-10-25T10:22:16Z</time>
      </trkpt>
      <trkpt lat="48.53581" lon="2.11674">
        <ele>150</ele>
        <time>2025-10-25T10:22:18Z</time>
      </trkpt>
      <trkpt lat="48.53579" lon="2.11675">
        <ele>150</ele>
        <time>2025-10-25T10:22:20Z</time>
      </trkpt>
      <trkpt lat="48.53576" lon="2.11676">
        <ele>150</ele>
        <time>2025-10-25T10:22:22Z</time>
      </trkpt>
      <trkpt lat="48.53574" lon="2.11677">
        <ele>150</ele>
        <time>2025-10-25T10:22:24Z</time>
      </trkpt>
      <trkpt lat="48.53571" lon="2.11678">
        <ele>150.2</ele>
        <time>2025-10-25T10:22:26Z</time>
      </trkpt>
      <trkpt lat="48.53569" lon="2.11678">
        <ele>150.4</ele>
        <time>2025-10-25T10:22:28Z</time>
      </trkpt>
      <trkpt lat="48.53567" lon="2.11679">
        <ele>150.4</ele>
        <time>2025-10-25T10:22:30Z</time>
      </trkpt>
      <trkpt lat="48.53564" lon="2.1168">
        <ele>150.2</ele>
        <time>2025-10-25T10:22:32Z</time>
      </trkpt>
      <trkpt lat="48.53562" lon="2.11681">
        <ele>150.2</ele>
        <time>2025-10-25T10:22:34Z</time>
      </trkpt>
      <trkpt lat="48.53559" lon="2.11682">
        <ele>150.2</ele>
        <time>2025-10-25T10:22:36Z</time>
      </trkpt>
      <trkpt lat="48.53557" lon="2.11682">
        <ele>150.2</ele>
        <time>2025-10-25T10:22:38Z</time>
      </trkpt>
      <trkpt lat="48.53555" lon="2.11683">
        <ele>150</ele>
        <time>2025-10-25T10:22:40Z</time>
      </trkpt>
      <trkpt lat="48.53553" lon="2.11685">
        <ele>150</ele>
        <time>2025-10-25T10:22:42Z</time>
      </trkpt>
      <trkpt lat="48.53551" lon="2.11687">
        <ele>150</ele>
        <time>2025-10-25T10:22:44Z</time>
      </trkpt>
      <trkpt lat="48.53549" lon="2.11691">
        <ele>150</ele>
        <time>2025-10-25T10:22:46Z</time>
      </trkpt>
      <trkpt lat="48.53549" lon="2.11694">
        <ele>150</ele>
        <time>2025-10-25T10:22:48Z</time>
      </trkpt>
      <trkpt lat="48.53548" lon="2.11698">
        <ele>150</ele>
        <time>2025-10-25T10:22:50Z</time>
      </trkpt>
      <trkpt lat="48.53549" lon="2.11703">
        <ele>150.2</ele>
        <time>2025-10-25T10:22:52Z</time>
      </trkpt>
      <trkpt lat="48.53549" lon="2.11707">
        <ele>150.2</ele>
        <time>2025-10-25T10:22:54Z</time>
      </trkpt>
      <trkpt lat="48.5355" lon="2.11712">
        <ele>150.4</ele>
        <time>2025-10-25T10:22:56Z</time>
      </trkpt>
      <trkpt lat="48.5355" lon="2.11716">
        <ele>150.4</ele>
        <time>2025-10-25T10:22:58Z</time>
      </trkpt>
      <trkpt lat="48.53551" lon="2.1172">
        <ele>150.6</ele>
        <time>2025-10-25T10:23:00Z</time>
      </trkpt>
      <trkpt lat="48.53551" lon="2.11724">
        <ele>150.6</ele>
        <time>2025-10-25T10:23:02Z</time>
      </trkpt>
      <trkpt lat="48.53552" lon="2.11729">
        <ele>150.8</ele>
        <time>2025-10-25T10:23:04Z</time>
      </trkpt>
      <trkpt lat="48.53553" lon="2.11733">
        <ele>150.8</ele>
        <time>2025-10-25T10:23:06Z</time>
      </trkpt>
      <trkpt lat="48.53553" lon="2.11738">
        <ele>150.8</ele>
        <time>2025-10-25T10:23:08Z</time>
      </trkpt>
      <trkpt lat="48.53554" lon="2.11742">
        <ele>150.8</ele>
        <time>2025-10-25T10:23:10Z</time>
      </trkpt>
      <trkpt lat="48.53555" lon="2.11747">
        <ele>150.6</ele>
        <time>2025-10-25T10:23:12Z</time>
      </trkpt>
      <trkpt lat="48.53555" lon="2.11751">
        <ele>150.6</ele>
        <time>2025-10-25T10:23:14Z</time>
      </trkpt>
      <trkpt lat="48.53555" lon="2.11756">
        <ele>150.8</ele>
        <time>2025-10-25T10:23:16Z</time>
      </trkpt>
      <trkpt lat="48.53556" lon="2.1176">
        <ele>151</ele>
        <time>2025-10-25T10:23:18Z</time>
      </trkpt>
      <trkpt lat="48.53557" lon="2.11764">
        <ele>151</ele>
        <time>2025-10-25T10:23:20Z</time>
      </trkpt>
      <trkpt lat="48.53557" lon="2.11769">
        <ele>151.2</ele>
        <time>2025-10-25T10:23:22Z</time>
      </trkpt>
      <trkpt lat="48.53558" lon="2.11773">
        <ele>151.2</ele>
        <time>2025-10-25T10:23:24Z</time>
      </trkpt>
      <trkpt lat="48.53558" lon="2.11778">
        <ele>151.2</ele>
        <time>2025-10-25T10:23:26Z</time>
      </trkpt>
      <trkpt lat="48.53559" lon="2.11784">
        <ele>151</ele>
        <time>2025-10-25T10:23:28Z</time>
      </trkpt>
      <trkpt lat="48.53559" lon="2.11788">
        <ele>151.2</ele>
        <time>2025-10-25T10:23:30Z</time>
      </trkpt>
      <trkpt lat="48.5356" lon="2.11793">
        <ele>151.2</ele>
        <time>2025-10-25T10:23:32Z</time>
      </trkpt>
      <trkpt lat="48.5356" lon="2.11797">
        <ele>151.4</ele>
        <time>2025-10-25T10:23:34Z</time>
      </trkpt>
      <trkpt lat="48.53561" lon="2.11801">
        <ele>151.4</ele>
        <time>2025-10-25T10:23:36Z</time>
      </trkpt>
      <trkpt lat="48.53561" lon="2.11805">
        <ele>151.4</ele>
        <time>2025-10-25T10:23:38Z</time>
      </trkpt>
      <trkpt lat="48.53562" lon="2.11809">
        <ele>151.4</ele>
        <time>2025-10-25T10:23:40Z</time>
      </trkpt>
      <trkpt lat="48.53563" lon="2.11813">
        <ele>151.6</ele>
        <time>2025-10-25T10:23:42Z</time>
      </trkpt>
      <trkpt lat="48.53563" lon="2.11817">
        <ele>151.6</ele>
        <time>2025-10-25T10:23:44Z</time>
      </trkpt>
      <trkpt lat="48.53564" lon="2.11821">
        <ele>151.6</ele>
        <time>2025-10-25T10:23:46Z</time>
      </trkpt>
      <trkpt lat="48.53564" lon="2.11825">
        <ele>151.6</ele>
        <time>2025-10-25T10:23:48Z</time>
      </trkpt>
      <trkpt lat="48.53565" lon="2.11829">
        <ele>151.6</ele>
        <time>2025-10-25T10:23:50Z</time>
      </trkpt>
      <trkpt lat="48.53565" lon="2.11833">
        <ele>151.8</ele>
        <time>2025-10-25T10:23:52Z</time>
      </trkpt>
      <trkpt lat="48.53566" lon="2.11838">
        <ele>151.8</ele>
        <time>2025-10-25T10:23:54Z</time>
      </trkpt>
      <trkpt lat="48.53567" lon="2.11842">
        <ele>152</ele>
        <time>2025-10-25T10:23:56Z</time>
      </trkpt>
      <trkpt lat="48.53567" lon="2.11846">
        <ele>152</ele>
        <time>2025-10-25T10:23:58Z</time>
      </trkpt>
      <trkpt lat="48.53568" lon="2.1185">
        <ele>152.2</ele>
        <time>2025-10-25T10:24:00Z</time>
      </trkpt>
      <trkpt lat="48.53568" lon="2.11855">
        <ele>152.2</ele>
        <time>2025-10-25T10:24:02Z</time>
      </trkpt>
      <trkpt lat="48.53569" lon="2.11859">
        <ele>152.2</ele>
        <time>2025-10-25T10:24:04Z</time>
      </trkpt>
      <trkpt lat="48.53569" lon="2.11863">
        <ele>152</ele>
        <time>2025-10-25T10:24:06Z</time>
      </trkpt>
      <trkpt lat="48.5357" lon="2.11867">
        <ele>151.8</ele>
        <time>2025-10-25T10:24:08Z</time>
      </trkpt>
      <trkpt lat="48.53571" lon="2.11871">
        <ele>151.6</ele>
        <time>2025-10-25T10:24:10Z</time>
      </trkpt>
      <trkpt lat="48.53571" lon="2.11875">
        <ele>151.6</ele>
        <time>2025-10-25T10:24:12Z</time>
      </trkpt>
      <trkpt lat="48.53572" lon="2.11879">
        <ele>151.6</ele>
        <time>2025-10-25T10:24:14Z</time>
      </trkpt>
      <trkpt lat="48.53572" lon="2.11884">
        <ele>151.4</ele>
        <time>2025-10-25T10:24:16Z</time>
      </trkpt>
      <trkpt lat="48.53573" lon="2.11888">
        <ele>151.4</ele>
        <time>2025-10-25T10:24:18Z</time>
      </trkpt>
      <trkpt lat="48.53574" lon="2.11892">
        <ele>151.2</ele>
        <time>2025-10-25T10:24:20Z</time>
      </trkpt>
      <trkpt lat="48.53574" lon="2.11896">
        <ele>151.2</ele>
        <time>2025-10-25T10:24:22Z</time>
      </trkpt>
      <trkpt lat="48.53574" lon="2.11901">
        <ele>151.2</ele>
        <time>2025-10-25T10:24:24Z</time>
      </trkpt>
      <trkpt lat="48.53574" lon="2.11905">
        <ele>151</ele>
        <time>2025-10-25T10:24:26Z</time>
      </trkpt>
      <trkpt lat="48.53574" lon="2.1191">
        <ele>151.2</ele>
        <time>2025-10-25T10:24:28Z</time>
      </trkpt>
      <trkpt lat="48.53575" lon="2.11914">
        <ele>151.2</ele>
        <time>2025-10-25T10:24:30Z</time>
      </trkpt>
      <trkpt lat="48.53575" lon="2.11918">
        <ele>151.2</ele>
        <time>2025-10-25T10:24:32Z</time>
      </trkpt>
      <trkpt lat="48.53576" lon="2.11923">
        <ele>151.2</ele>
        <time>2025-10-25T10:24:34Z</time>
      </trkpt>
      <trkpt lat="48.53576" lon="2.11927">
        <ele>151</ele>
        <time>2025-10-25T10:24:36Z</time>
      </trkpt>
      <trkpt lat="48.53577" lon="2.11931">
        <ele>150.8</ele>
        <time>2025-10-25T10:24:38Z</time>
      </trkpt>
      <trkpt lat="48.53577" lon="2.11935">
        <ele>150.6</ele>
        <time>2025-10-25T10:24:40Z</time>
      </trkpt>
      <trkpt lat="48.53578" lon="2.11939">
        <ele>150.6</ele>
        <time>2025-10-25T10:24:42Z</time>
      </trkpt>
      <trkpt lat="48.53579" lon="2.11943">
        <ele>150.4</ele>
        <time>2025-10-25T10:24:44Z</time>
      </trkpt>
      <trkpt lat="48.5358" lon="2.11948">
        <ele>150.4</ele>
        <time>2025-10-25T10:24:46Z</time>
      </trkpt>
      <trkpt lat="48.5358" lon="2.11952">
        <ele>150.6</ele>
        <time>2025-10-25T10:24:48Z</time>
      </trkpt>
      <trkpt lat="48.53581" lon="2.11956">
        <ele>150.6</ele>
        <time>2025-10-25T10:24:50Z</time>
      </trkpt>
      <trkpt lat="48.53581" lon="2.1196">
        <ele>151</ele>
        <time>2025-10-25T10:24:52Z</time>
      </trkpt>
      <trkpt lat="48.53581" lon="2.11964">
        <ele>151</ele>
        <time>2025-10-25T10:24:54Z</time>
      </trkpt>
      <trkpt lat="48.53582" lon="2.11967">
        <ele>151</ele>
        <time>2025-10-25T10:24:56Z</time>
      </trkpt>
      <trkpt lat="48.53582" lon="2.11972">
        <ele>151.2</ele>
        <time>2025-10-25T10:24:58Z</time>
      </trkpt>
      <trkpt lat="48.53583" lon="2.11977">
        <ele>151.2</ele>
        <time>2025-10-25T10:25:00Z</time>
      </trkpt>
      <trkpt lat="48.53584" lon="2.11979">
        <ele>151.2</ele>
        <time>2025-10-25T10:25:01Z</time>
      </trkpt>
      <trkpt lat="48.53584" lon="2.11982">
        <ele>151.2</ele>
        <time>2025-10-25T10:25:02Z</time>
      </trkpt>
      <trkpt lat="48.53584" lon="2.11987">
        <ele>151.4</ele>
        <time>2025-10-25T10:25:04Z</time>
      </trkpt>
      <trkpt lat="48.53585" lon="2.11992">
        <ele>151.4</ele>
        <time>2025-10-25T10:25:06Z</time>
      </trkpt>
      <trkpt lat="48.53585" lon="2.11996">
        <ele>151.6</ele>
        <time>2025-10-25T10:25:08Z</time>
      </trkpt>
      <trkpt lat="48.53586" lon="2.11999">
        <ele>151.6</ele>
        <time>2025-10-25T10:25:10Z</time>
      </trkpt>
      <trkpt lat="48.53586" lon="2.12003">
        <ele>151.6</ele>
        <time>2025-10-25T10:25:12Z</time>
      </trkpt>
      <trkpt lat="48.53587" lon="2.12007">
        <ele>151.6</ele>
        <time>2025-10-25T10:25:14Z</time>
      </trkpt>
      <trkpt lat="48.53588" lon="2.12012">
        <ele>151.4</ele>
        <time>2025-10-25T10:25:16Z</time>
      </trkpt>
      <trkpt lat="48.53589" lon="2.12016">
        <ele>151.2</ele>
        <time>2025-10-25T10:25:18Z</time>
      </trkpt>
      <trkpt lat="48.5359" lon="2.1202">
        <ele>151</ele>
        <time>2025-10-25T10:25:20Z</time>
      </trkpt>
      <trkpt lat="48.53591" lon="2.12025">
        <ele>150.8</ele>
        <time>2025-10-25T10:25:22Z</time>
      </trkpt>
      <trkpt lat="48.53592" lon="2.12029">
        <ele>150.6</ele>
        <time>2025-10-25T10:25:24Z</time>
      </trkpt>
      <trkpt lat="48.53594" lon="2.12033">
        <ele>150.4</ele>
        <time>2025-10-25T10:25:26Z</time>
      </trkpt>
      <trkpt lat="48.53595" lon="2.12036">
        <ele>150</ele>
        <time>2025-10-25T10:25:28Z</time>
      </trkpt>
      <trkpt lat="48.53596" lon="2.1204">
        <ele>150</ele>
        <time>2025-10-25T10:25:30Z</time>
      </trkpt>
      <trkpt lat="48.53596" lon="2.12044">
        <ele>149.8</ele>
        <time>2025-10-25T10:25:32Z</time>
      </trkpt>
      <trkpt lat="48.53598" lon="2.12048">
        <ele>149.6</ele>
        <time>2025-10-25T10:25:34Z</time>
      </trkpt>
      <trkpt lat="48.53599" lon="2.12052">
        <ele>149.6</ele>
        <time>2025-10-25T10:25:36Z</time>
      </trkpt>
      <trkpt lat="48.536" lon="2.12056">
        <ele>149.4</ele>
        <time>2025-10-25T10:25:38Z</time>
      </trkpt>
      <trkpt lat="48.53602" lon="2.12059">
        <ele>149.2</ele>
        <time>2025-10-25T10:25:40Z</time>
      </trkpt>
      <trkpt lat="48.53603" lon="2.12063">
        <ele>149</ele>
        <time>2025-10-25T10:25:42Z</time>
      </trkpt>
      <trkpt lat="48.53604" lon="2.12067">
        <ele>148.8</ele>
        <time>2025-10-25T10:25:44Z</time>
      </trkpt>
      <trkpt lat="48.53605" lon="2.1207">
        <ele>148.8</ele>
        <time>2025-10-25T10:25:46Z</time>
      </trkpt>
      <trkpt lat="48.53606" lon="2.12074">
        <ele>148.6</ele>
        <time>2025-10-25T10:25:48Z</time>
      </trkpt>
      <trkpt lat="48.53607" lon="2.12078">
        <ele>148.4</ele>
        <time>2025-10-25T10:25:50Z</time>
      </trkpt>
      <trkpt lat="48.53608" lon="2.12082">
        <ele>148.2</ele>
        <time>2025-10-25T10:25:52Z</time>
      </trkpt>
      <trkpt lat="48.5361" lon="2.12086">
        <ele>148</ele>
        <time>2025-10-25T10:25:54Z</time>
      </trkpt>
      <trkpt lat="48.53611" lon="2.1209">
        <ele>147.8</ele>
        <time>2025-10-25T10:25:56Z</time>
      </trkpt>
      <trkpt lat="48.53612" lon="2.12094">
        <ele>147.8</ele>
        <time>2025-10-25T10:25:58Z</time>
      </trkpt>
      <trkpt lat="48.53613" lon="2.12098">
        <ele>147.6</ele>
        <time>2025-10-25T10:26:00Z</time>
      </trkpt>
      <trkpt lat="48.53615" lon="2.12101">
        <ele>147.4</ele>
        <time>2025-10-25T10:26:02Z</time>
      </trkpt>
      <trkpt lat="48.53616" lon="2.12105">
        <ele>147.4</ele>
        <time>2025-10-25T10:26:04Z</time>
      </trkpt>
      <trkpt lat="48.53617" lon="2.12108">
        <ele>147.4</ele>
        <time>2025-10-25T10:26:06Z</time>
      </trkpt>
      <trkpt lat="48.53618" lon="2.12112">
        <ele>147.2</ele>
        <time>2025-10-25T10:26:08Z</time>
      </trkpt>
      <trkpt lat="48.5362" lon="2.12116">
        <ele>147.2</ele>
        <time>2025-10-25T10:26:10Z</time>
      </trkpt>
      <trkpt lat="48.5362" lon="2.1212">
        <ele>147.2</ele>
        <time>2025-10-25T10:26:12Z</time>
      </trkpt>
      <trkpt lat="48.53622" lon="2.12123">
        <ele>147.4</ele>
        <time>2025-10-25T10:26:14Z</time>
      </trkpt>
      <trkpt lat="48.53623" lon="2.12127">
        <ele>147.4</ele>
        <time>2025-10-25T10:26:16Z</time>
      </trkpt>
      <trkpt lat="48.53624" lon="2.12131">
        <ele>147.4</ele>
        <time>2025-10-25T10:26:18Z</time>
      </trkpt>
      <trkpt lat="48.53626" lon="2.12135">
        <ele>147.4</ele>
        <time>2025-10-25T10:26:20Z</time>
      </trkpt>
      <trkpt lat="48.53627" lon="2.12139">
        <ele>147.2</ele>
        <time>2025-10-25T10:26:22Z</time>
      </trkpt>
      <trkpt lat="48.53628" lon="2.12143">
        <ele>147.2</ele>
        <time>2025-10-25T10:26:24Z</time>
      </trkpt>
      <trkpt lat="48.53629" lon="2.12147">
        <ele>147</ele>
        <time>2025-10-25T10:26:26Z</time>
      </trkpt>
      <trkpt lat="48.5363" lon="2.12151">
        <ele>147</ele>
        <time>2025-10-25T10:26:28Z</time>
      </trkpt>
      <trkpt lat="48.53632" lon="2.12155">
        <ele>146.8</ele>
        <time>2025-10-25T10:26:30Z</time>
      </trkpt>
      <trkpt lat="48.53633" lon="2.12159">
        <ele>146.6</ele>
        <time>2025-10-25T10:26:32Z</time>
      </trkpt>
      <trkpt lat="48.53634" lon="2.12162">
        <ele>146.4</ele>
        <time>2025-10-25T10:26:34Z</time>
      </trkpt>
      <trkpt lat="48.53635" lon="2.12166">
        <ele>146.2</ele>
        <time>2025-10-25T10:26:36Z</time>
      </trkpt>
      <trkpt lat="48.53636" lon="2.1217">
        <ele>146.2</ele>
        <time>2025-10-25T10:26:38Z</time>
      </trkpt>
      <trkpt lat="48.53637" lon="2.12173">
        <ele>146.2</ele>
        <time>2025-10-25T10:26:40Z</time>
      </trkpt>
      <trkpt lat="48.53639" lon="2.12177">
        <ele>146.2</ele>
        <time>2025-10-25T10:26:42Z</time>
      </trkpt>
      <trkpt lat="48.5364" lon="2.12181">
        <ele>146.2</ele>
        <time>2025-10-25T10:26:44Z</time>
      </trkpt>
      <trkpt lat="48.53642" lon="2.12184">
        <ele>146.2</ele>
        <time>2025-10-25T10:26:46Z</time>
      </trkpt>
      <trkpt lat="48.53643" lon="2.12188">
        <ele>146.2</ele>
        <time>2025-10-25T10:26:48Z</time>
      </trkpt>
      <trkpt lat="48.53644" lon="2.12192">
        <ele>146</ele>
        <time>2025-10-25T10:26:50Z</time>
      </trkpt>
      <trkpt lat="48.53646" lon="2.12195">
        <ele>146</ele>
        <time>2025-10-25T10:26:52Z</time>
      </trkpt>
      <trkpt lat="48.53648" lon="2.12199">
        <ele>145.8</ele>
        <time>2025-10-25T10:26:54Z</time>
      </trkpt>
      <trkpt lat="48.53649" lon="2.12203">
        <ele>145.6</ele>
        <time>2025-10-25T10:26:56Z</time>
      </trkpt>
      <trkpt lat="48.53651" lon="2.12207">
        <ele>145.4</ele>
        <time>2025-10-25T10:26:58Z</time>
      </trkpt>
      <trkpt lat="48.53652" lon="2.1221">
        <ele>145.4</ele>
        <time>2025-10-25T10:27:00Z</time>
      </trkpt>
      <trkpt lat="48.53654" lon="2.12214">
        <ele>145.2</ele>
        <time>2025-10-25T10:27:02Z</time>
      </trkpt>
      <trkpt lat="48.53655" lon="2.12217">
        <ele>145.2</ele>
        <time>2025-10-25T10:27:04Z</time>
      </trkpt>
      <trkpt lat="48.53657" lon="2.12221">
        <ele>145.2</ele>
        <time>2025-10-25T10:27:06Z</time>
      </trkpt>
      <trkpt lat="48.53658" lon="2.12224">
        <ele>145</ele>
        <time>2025-10-25T10:27:08Z</time>
      </trkpt>
      <trkpt lat="48.5366" lon="2.12228">
        <ele>145</ele>
        <time>2025-10-25T10:27:10Z</time>
      </trkpt>
      <trkpt lat="48.53662" lon="2.12231">
        <ele>144.8</ele>
        <time>2025-10-25T10:27:12Z</time>
      </trkpt>
      <trkpt lat="48.53664" lon="2.12235">
        <ele>144.6</ele>
        <time>2025-10-25T10:27:14Z</time>
      </trkpt>
      <trkpt lat="48.53666" lon="2.12238">
        <ele>144.6</ele>
        <time>2025-10-25T10:27:16Z</time>
      </trkpt>
      <trkpt lat="48.53667" lon="2.1224">
        <ele>144.4</ele>
        <time>2025-10-25T10:27:18Z</time>
      </trkpt>
      <trkpt lat="48.53668" lon="2.12243">
        <ele>144.2</ele>
        <time>2025-10-25T10:27:20Z</time>
      </trkpt>
      <trkpt lat="48.5367" lon="2.12247">
        <ele>144.2</ele>
        <time>2025-10-25T10:27:22Z</time>
      </trkpt>
      <trkpt lat="48.53671" lon="2.1225">
        <ele>144.2</ele>
        <time>2025-10-25T10:27:24Z</time>
      </trkpt>
      <trkpt lat="48.53673" lon="2.12254">
        <ele>144.2</ele>
        <time>2025-10-25T10:27:26Z</time>
      </trkpt>
      <trkpt lat="48.53674" lon="2.12258">
        <ele>144</ele>
        <time>2025-10-25T10:27:28Z</time>
      </trkpt>
      <trkpt lat="48.53676" lon="2.12262">
        <ele>144</ele>
        <time>2025-10-25T10:27:30Z</time>
      </trkpt>
      <trkpt lat="48.53677" lon="2.12266">
        <ele>143.8</ele>
        <time>2025-10-25T10:27:32Z</time>
      </trkpt>
      <trkpt lat="48.53679" lon="2.12269">
        <ele>143.8</ele>
        <time>2025-10-25T10:27:34Z</time>
      </trkpt>
      <trkpt lat="48.5368" lon="2.12273">
        <ele>143.8</ele>
        <time>2025-10-25T10:27:36Z</time>
      </trkpt>
      <trkpt lat="48.53682" lon="2.12277">
        <ele>143.8</ele>
        <time>2025-10-25T10:27:38Z</time>
      </trkpt>
      <trkpt lat="48.53683" lon="2.1228">
        <ele>143.8</ele>
        <time>2025-10-25T10:27:40Z</time>
      </trkpt>
      <trkpt lat="48.53685" lon="2.12283">
        <ele>143.8</ele>
        <time>2025-10-25T10:27:42Z</time>
      </trkpt>
      <trkpt lat="48.53686" lon="2.12285">
        <ele>143.8</ele>
        <time>2025-10-25T10:27:45Z</time>
      </trkpt>
      <trkpt lat="48.53686" lon="2.12288">
        <ele>143.8</ele>
        <time>2025-10-25T10:27:49Z</time>
      </trkpt>
      <trkpt lat="48.53687" lon="2.12291">
        <ele>143.8</ele>
        <time>2025-10-25T10:27:51Z</time>
      </trkpt>
      <trkpt lat="48.53689" lon="2.12294">
        <ele>143.6</ele>
        <time>2025-10-25T10:27:53Z</time>
      </trkpt>
      <trkpt lat="48.53691" lon="2.12297">
        <ele>143.4</ele>
        <time>2025-10-25T10:27:55Z</time>
      </trkpt>
      <trkpt lat="48.53692" lon="2.12301">
        <ele>143.2</ele>
        <time>2025-10-25T10:27:57Z</time>
      </trkpt>
      <trkpt lat="48.53694" lon="2.12304">
        <ele>143.2</ele>
        <time>2025-10-25T10:27:59Z</time>
      </trkpt>
      <trkpt lat="48.53695" lon="2.12308">
        <ele>143.2</ele>
        <time>2025-10-25T10:28:01Z</time>
      </trkpt>
      <trkpt lat="48.53697" lon="2.12311">
        <ele>143</ele>
        <time>2025-10-25T10:28:03Z</time>
      </trkpt>
      <trkpt lat="48.53698" lon="2.12315">
        <ele>143</ele>
        <time>2025-10-25T10:28:05Z</time>
      </trkpt>
      <trkpt lat="48.537" lon="2.12318">
        <ele>142.8</ele>
        <time>2025-10-25T10:28:07Z</time>
      </trkpt>
      <trkpt lat="48.53701" lon="2.12321">
        <ele>142.6</ele>
        <time>2025-10-25T10:28:09Z</time>
      </trkpt>
      <trkpt lat="48.53703" lon="2.12324">
        <ele>142.4</ele>
        <time>2025-10-25T10:28:11Z</time>
      </trkpt>
      <trkpt lat="48.53704" lon="2.12327">
        <ele>142.4</ele>
        <time>2025-10-25T10:28:13Z</time>
      </trkpt>
      <trkpt lat="48.53706" lon="2.1233">
        <ele>142.2</ele>
        <time>2025-10-25T10:28:15Z</time>
      </trkpt>
      <trkpt lat="48.53707" lon="2.12333">
        <ele>142</ele>
        <time>2025-10-25T10:28:17Z</time>
      </trkpt>
      <trkpt lat="48.53708" lon="2.12337">
        <ele>141.8</ele>
        <time>2025-10-25T10:28:19Z</time>
      </trkpt>
      <trkpt lat="48.53709" lon="2.12341">
        <ele>141.8</ele>
        <time>2025-10-25T10:28:21Z</time>
      </trkpt>
      <trkpt lat="48.5371" lon="2.12345">
        <ele>141.6</ele>
        <time>2025-10-25T10:28:23Z</time>
      </trkpt>
      <trkpt lat="48.53711" lon="2.12348">
        <ele>141.4</ele>
        <time>2025-10-25T10:28:25Z</time>
      </trkpt>
      <trkpt lat="48.53712" lon="2.12352">
        <ele>141.4</ele>
        <time>2025-10-25T10:28:27Z</time>
      </trkpt>
      <trkpt lat="48.53713" lon="2.12357">
        <ele>141.4</ele>
        <time>2025-10-25T10:28:29Z</time>
      </trkpt>
      <trkpt lat="48.53714" lon="2.12361">
        <ele>141.4</ele>
        <time>2025-10-25T10:28:31Z</time>
      </trkpt>
      <trkpt lat="48.53714" lon="2.12366">
        <ele>141.4</ele>
        <time>2025-10-25T10:28:33Z</time>
      </trkpt>
      <trkpt lat="48.53715" lon="2.12369">
        <ele>141.4</ele>
        <time>2025-10-25T10:28:35Z</time>
      </trkpt>
      <trkpt lat="48.53716" lon="2.12373">
        <ele>141.2</ele>
        <time>2025-10-25T10:28:37Z</time>
      </trkpt>
      <trkpt lat="48.53717" lon="2.12377">
        <ele>141.2</ele>
        <time>2025-10-25T10:28:39Z</time>
      </trkpt>
      <trkpt lat="48.53718" lon="2.12381">
        <ele>141.2</ele>
        <time>2025-10-25T10:28:41Z</time>
      </trkpt>
      <trkpt lat="48.53719" lon="2.12384">
        <ele>141.2</ele>
        <time>2025-10-25T10:28:43Z</time>
      </trkpt>
      <trkpt lat="48.5372" lon="2.12388">
        <ele>141.2</ele>
        <time>2025-10-25T10:28:45Z</time>
      </trkpt>
      <trkpt lat="48.53721" lon="2.12392">
        <ele>141</ele>
        <time>2025-10-25T10:28:47Z</time>
      </trkpt>
      <trkpt lat="48.53722" lon="2.12395">
        <ele>141</ele>
        <time>2025-10-25T10:28:49Z</time>
      </trkpt>
      <trkpt lat="48.53724" lon="2.12399">
        <ele>141</ele>
        <time>2025-10-25T10:28:51Z</time>
      </trkpt>
      <trkpt lat="48.53724" lon="2.12403">
        <ele>141.2</ele>
        <time>2025-10-25T10:28:53Z</time>
      </trkpt>
      <trkpt lat="48.53725" lon="2.12406">
        <ele>141.2</ele>
        <time>2025-10-25T10:28:55Z</time>
      </trkpt>
      <trkpt lat="48.53726" lon="2.1241">
        <ele>141.2</ele>
        <time>2025-10-25T10:28:57Z</time>
      </trkpt>
      <trkpt lat="48.53727" lon="2.12414">
        <ele>141.2</ele>
        <time>2025-10-25T10:28:59Z</time>
      </trkpt>
      <trkpt lat="48.53729" lon="2.12418">
        <ele>141</ele>
        <time>2025-10-25T10:29:01Z</time>
      </trkpt>
      <trkpt lat="48.5373" lon="2.12421">
        <ele>141</ele>
        <time>2025-10-25T10:29:03Z</time>
      </trkpt>
      <trkpt lat="48.53731" lon="2.12425">
        <ele>140.8</ele>
        <time>2025-10-25T10:29:05Z</time>
      </trkpt>
      <trkpt lat="48.53732" lon="2.12429">
        <ele>140.6</ele>
        <time>2025-10-25T10:29:07Z</time>
      </trkpt>
      <trkpt lat="48.53733" lon="2.12432">
        <ele>140.4</ele>
        <time>2025-10-25T10:29:09Z</time>
      </trkpt>
      <trkpt lat="48.53734" lon="2.12437">
        <ele>140.2</ele>
        <time>2025-10-25T10:29:11Z</time>
      </trkpt>
      <trkpt lat="48.53735" lon="2.12441">
        <ele>140</ele>
        <time>2025-10-25T10:29:13Z</time>
      </trkpt>
      <trkpt lat="48.53735" lon="2.12445">
        <ele>139.8</ele>
        <time>2025-10-25T10:29:15Z</time>
      </trkpt>
      <trkpt lat="48.53736" lon="2.12449">
        <ele>139.6</ele>
        <time>2025-10-25T10:29:17Z</time>
      </trkpt>
      <trkpt lat="48.53737" lon="2.12453">
        <ele>139.4</ele>
        <time>2025-10-25T10:29:19Z</time>
      </trkpt>
      <trkpt lat="48.53737" lon="2.12457">
        <ele>139.4</ele>
        <time>2025-10-25T10:29:21Z</time>
      </trkpt>
      <trkpt lat="48.53738" lon="2.12461">
        <ele>139.4</ele>
        <time>2025-10-25T10:29:23Z</time>
      </trkpt>
      <trkpt lat="48.53739" lon="2.12465">
        <ele>139.4</ele>
        <time>2025-10-25T10:29:25Z</time>
      </trkpt>
      <trkpt lat="48.53739" lon="2.12469">
        <ele>139.4</ele>
        <time>2025-10-25T10:29:27Z</time>
      </trkpt>
      <trkpt lat="48.5374" lon="2.12473">
        <ele>139.6</ele>
        <time>2025-10-25T10:29:29Z</time>
      </trkpt>
      <trkpt lat="48.53741" lon="2.12477">
        <ele>139.6</ele>
        <time>2025-10-25T10:29:31Z</time>
      </trkpt>
      <trkpt lat="48.53742" lon="2.12481">
        <ele>139.8</ele>
        <time>2025-10-25T10:29:33Z</time>
      </trkpt>
      <trkpt lat="48.53743" lon="2.12485">
        <ele>139.8</ele>
        <time>2025-10-25T10:29:35Z</time>
      </trkpt>
      <trkpt lat="48.53744" lon="2.12489">
        <ele>139.8</ele>
        <time>2025-10-25T10:29:37Z</time>
      </trkpt>
      <trkpt lat="48.53745" lon="2.12493">
        <ele>139.8</ele>
        <time>2025-10-25T10:29:39Z</time>
      </trkpt>
      <trkpt lat="48.53745" lon="2.12497">
        <ele>139.8</ele>
        <time>2025-10-25T10:29:41Z</time>
      </trkpt>
      <trkpt lat="48.53747" lon="2.125">
        <ele>140</ele>
        <time>2025-10-25T10:29:43Z</time>
      </trkpt>
      <trkpt lat="48.53748" lon="2.12502">
        <ele>140.2</ele>
        <time>2025-10-25T10:29:51Z</time>
      </trkpt>
      <trkpt lat="48.53749" lon="2.12506">
        <ele>140.4</ele>
        <time>2025-10-25T10:29:55Z</time>
      </trkpt>
      <trkpt lat="48.5375" lon="2.12509">
        <ele>140.4</ele>
        <time>2025-10-25T10:29:57Z</time>
      </trkpt>
      <trkpt lat="48.53751" lon="2.12512">
        <ele>140.4</ele>
        <time>2025-10-25T10:29:59Z</time>
      </trkpt>
      <trkpt lat="48.53751" lon="2.12516">
        <ele>140.6</ele>
        <time>2025-10-25T10:30:01Z</time>
      </trkpt>
      <trkpt lat="48.53752" lon="2.1252">
        <ele>140.6</ele>
        <time>2025-10-25T10:30:03Z</time>
      </trkpt>
      <trkpt lat="48.53753" lon="2.12524">
        <ele>140.8</ele>
        <time>2025-10-25T10:30:05Z</time>
      </trkpt>
      <trkpt lat="48.53755" lon="2.12528">
        <ele>140.8</ele>
        <time>2025-10-25T10:30:07Z</time>
      </trkpt>
      <trkpt lat="48.53756" lon="2.12532">
        <ele>141</ele>
        <time>2025-10-25T10:30:09Z</time>
      </trkpt>
      <trkpt lat="48.53757" lon="2.12536">
        <ele>141.2</ele>
        <time>2025-10-25T10:30:11Z</time>
      </trkpt>
      <trkpt lat="48.53758" lon="2.1254">
        <ele>141.4</ele>
        <time>2025-10-25T10:30:13Z</time>
      </trkpt>
      <trkpt lat="48.53759" lon="2.12544">
        <ele>141.6</ele>
        <time>2025-10-25T10:30:15Z</time>
      </trkpt>
      <trkpt lat="48.5376" lon="2.12548">
        <ele>142</ele>
        <time>2025-10-25T10:30:17Z</time>
      </trkpt>
      <trkpt lat="48.53761" lon="2.12552">
        <ele>142</ele>
        <time>2025-10-25T10:30:19Z</time>
      </trkpt>
      <trkpt lat="48.53762" lon="2.12556">
        <ele>142</ele>
        <time>2025-10-25T10:30:21Z</time>
      </trkpt>
      <trkpt lat="48.53764" lon="2.1256">
        <ele>142</ele>
        <time>2025-10-25T10:30:23Z</time>
      </trkpt>
      <trkpt lat="48.53764" lon="2.12564">
        <ele>142</ele>
        <time>2025-10-25T10:30:25Z</time>
      </trkpt>
      <trkpt lat="48.53765" lon="2.12569">
        <ele>142</ele>
        <time>2025-10-25T10:30:27Z</time>
      </trkpt>
      <trkpt lat="48.53767" lon="2.12573">
        <ele>142</ele>
        <time>2025-10-25T10:30:29Z</time>
      </trkpt>
      <trkpt lat="48.53767" lon="2.12577">
        <ele>141.8</ele>
        <time>2025-10-25T10:30:31Z</time>
      </trkpt>
      <trkpt lat="48.53768" lon="2.12581">
        <ele>141.8</ele>
        <time>2025-10-25T10:30:33Z</time>
      </trkpt>
      <trkpt lat="48.53769" lon="2.12585">
        <ele>141.6</ele>
        <time>2025-10-25T10:30:35Z</time>
      </trkpt>
      <trkpt lat="48.5377" lon="2.12589">
        <ele>141.6</ele>
        <time>2025-10-25T10:30:37Z</time>
      </trkpt>
      <trkpt lat="48.53771" lon="2.12593">
        <ele>141.4</ele>
        <time>2025-10-25T10:30:39Z</time>
      </trkpt>
      <trkpt lat="48.53771" lon="2.12597">
        <ele>141.4</ele>
        <time>2025-10-25T10:30:41Z</time>
      </trkpt>
      <trkpt lat="48.53772" lon="2.12601">
        <ele>141.4</ele>
        <time>2025-10-25T10:30:43Z</time>
      </trkpt>
      <trkpt lat="48.53773" lon="2.12605">
        <ele>141.2</ele>
        <time>2025-10-25T10:30:45Z</time>
      </trkpt>
      <trkpt lat="48.53774" lon="2.1261">
        <ele>141.2</ele>
        <time>2025-10-25T10:30:47Z</time>
      </trkpt>
      <trkpt lat="48.53775" lon="2.12614">
        <ele>141.2</ele>
        <time>2025-10-25T10:30:49Z</time>
      </trkpt>
      <trkpt lat="48.53776" lon="2.12618">
        <ele>141.2</ele>
        <time>2025-10-25T10:30:51Z</time>
      </trkpt>
      <trkpt lat="48.53777" lon="2.12622">
        <ele>141.2</ele>
        <time>2025-10-25T10:30:53Z</time>
      </trkpt>
      <trkpt lat="48.53779" lon="2.12626">
        <ele>141.2</ele>
        <time>2025-10-25T10:30:55Z</time>
      </trkpt>
      <trkpt lat="48.5378" lon="2.1263">
        <ele>141</ele>
        <time>2025-10-25T10:30:57Z</time>
      </trkpt>
      <trkpt lat="48.53781" lon="2.12634">
        <ele>141</ele>
        <time>2025-10-25T10:30:59Z</time>
      </trkpt>
      <trkpt lat="48.53782" lon="2.12638">
        <ele>141</ele>
        <time>2025-10-25T10:31:01Z</time>
      </trkpt>
      <trkpt lat="48.53784" lon="2.12642">
        <ele>140.8</ele>
        <time>2025-10-25T10:31:03Z</time>
      </trkpt>
      <trkpt lat="48.53785" lon="2.12645">
        <ele>140.8</ele>
        <time>2025-10-25T10:31:05Z</time>
      </trkpt>
      <trkpt lat="48.53787" lon="2.12649">
        <ele>140.6</ele>
        <time>2025-10-25T10:31:07Z</time>
      </trkpt>
      <trkpt lat="48.53788" lon="2.12652">
        <ele>140.4</ele>
        <time>2025-10-25T10:31:09Z</time>
      </trkpt>
      <trkpt lat="48.53789" lon="2.12656">
        <ele>140.6</ele>
        <time>2025-10-25T10:31:11Z</time>
      </trkpt>
      <trkpt lat="48.5379" lon="2.12659">
        <ele>140.6</ele>
        <time>2025-10-25T10:31:13Z</time>
      </trkpt>
      <trkpt lat="48.53792" lon="2.12662">
        <ele>140.8</ele>
        <time>2025-10-25T10:31:15Z</time>
      </trkpt>
      <trkpt lat="48.53794" lon="2.12665">
        <ele>140.8</ele>
        <time>2025-10-25T10:31:17Z</time>
      </trkpt>
      <trkpt lat="48.53796" lon="2.12669">
        <ele>141</ele>
        <time>2025-10-25T10:31:19Z</time>
      </trkpt>
      <trkpt lat="48.53797" lon="2.12672">
        <ele>141</ele>
        <time>2025-10-25T10:31:21Z</time>
      </trkpt>
      <trkpt lat="48.53799" lon="2.12675">
        <ele>141</ele>
        <time>2025-10-25T10:31:23Z</time>
      </trkpt>
      <trkpt lat="48.53801" lon="2.12678">
        <ele>140.8</ele>
        <time>2025-10-25T10:31:25Z</time>
      </trkpt>
      <trkpt lat="48.53802" lon="2.1268">
        <ele>141</ele>
        <time>2025-10-25T10:31:27Z</time>
      </trkpt>
      <trkpt lat="48.53803" lon="2.12683">
        <ele>141</ele>
        <time>2025-10-25T10:31:29Z</time>
      </trkpt>
      <trkpt lat="48.53805" lon="2.12687">
        <ele>141</ele>
        <time>2025-10-25T10:31:31Z</time>
      </trkpt>
      <trkpt lat="48.53807" lon="2.12691">
        <ele>141</ele>
        <time>2025-10-25T10:31:33Z</time>
      </trkpt>
      <trkpt lat="48.53808" lon="2.12693">
        <ele>141</ele>
        <time>2025-10-25T10:31:35Z</time>
      </trkpt>
      <trkpt lat="48.5381" lon="2.12696">
        <ele>140.8</ele>
        <time>2025-10-25T10:31:37Z</time>
      </trkpt>
      <trkpt lat="48.53811" lon="2.12699">
        <ele>140.8</ele>
        <time>2025-10-25T10:31:39Z</time>
      </trkpt>
      <trkpt lat="48.53812" lon="2.12702">
        <ele>140.8</ele>
        <time>2025-10-25T10:31:41Z</time>
      </trkpt>
      <trkpt lat="48.53813" lon="2.12706">
        <ele>140.8</ele>
        <time>2025-10-25T10:31:43Z</time>
      </trkpt>
      <trkpt lat="48.53813" lon="2.1271">
        <ele>140.8</ele>
        <time>2025-10-25T10:31:45Z</time>
      </trkpt>
      <trkpt lat="48.53815" lon="2.12714">
        <ele>140.8</ele>
        <time>2025-10-25T10:31:47Z</time>
      </trkpt>
      <trkpt lat="48.53816" lon="2.12718">
        <ele>141</ele>
        <time>2025-10-25T10:31:49Z</time>
      </trkpt>
      <trkpt lat="48.53817" lon="2.12722">
        <ele>141.2</ele>
        <time>2025-10-25T10:31:51Z</time>
      </trkpt>
      <trkpt lat="48.53818" lon="2.12726">
        <ele>141.2</ele>
        <time>2025-10-25T10:31:53Z</time>
      </trkpt>
      <trkpt lat="48.53819" lon="2.1273">
        <ele>141.4</ele>
        <time>2025-10-25T10:31:55Z</time>
      </trkpt>
      <trkpt lat="48.5382" lon="2.12734">
        <ele>141.6</ele>
        <time>2025-10-25T10:31:57Z</time>
      </trkpt>
      <trkpt lat="48.53821" lon="2.12738">
        <ele>142</ele>
        <time>2025-10-25T10:31:59Z</time>
      </trkpt>
      <trkpt lat="48.53823" lon="2.12742">
        <ele>142.2</ele>
        <time>2025-10-25T10:32:01Z</time>
      </trkpt>
      <trkpt lat="48.53824" lon="2.12746">
        <ele>142.4</ele>
        <time>2025-10-25T10:32:03Z</time>
      </trkpt>
      <trkpt lat="48.53825" lon="2.1275">
        <ele>142.8</ele>
        <time>2025-10-25T10:32:05Z</time>
      </trkpt>
      <trkpt lat="48.53827" lon="2.12753">
        <ele>143</ele>
        <time>2025-10-25T10:32:07Z</time>
      </trkpt>
      <trkpt lat="48.53828" lon="2.12756">
        <ele>143.2</ele>
        <time>2025-10-25T10:32:09Z</time>
      </trkpt>
      <trkpt lat="48.5383" lon="2.1276">
        <ele>143.2</ele>
        <time>2025-10-25T10:32:11Z</time>
      </trkpt>
      <trkpt lat="48.53831" lon="2.12763">
        <ele>143.4</ele>
        <time>2025-10-25T10:32:13Z</time>
      </trkpt>
      <trkpt lat="48.53833" lon="2.12767">
        <ele>143.4</ele>
        <time>2025-10-25T10:32:15Z</time>
      </trkpt>
      <trkpt lat="48.53834" lon="2.12771">
        <ele>143.4</ele>
        <time>2025-10-25T10:32:17Z</time>
      </trkpt>
      <trkpt lat="48.53835" lon="2.12774">
        <ele>143.6</ele>
        <time>2025-10-25T10:32:19Z</time>
      </trkpt>
      <trkpt lat="48.53837" lon="2.12778">
        <ele>143.8</ele>
        <time>2025-10-25T10:32:21Z</time>
      </trkpt>
      <trkpt lat="48.53839" lon="2.12782">
        <ele>144</ele>
        <time>2025-10-25T10:32:23Z</time>
      </trkpt>
      <trkpt lat="48.5384" lon="2.12785">
        <ele>144.2</ele>
        <time>2025-10-25T10:32:25Z</time>
      </trkpt>
      <trkpt lat="48.53842" lon="2.12789">
        <ele>144.4</ele>
        <time>2025-10-25T10:32:27Z</time>
      </trkpt>
      <trkpt lat="48.53843" lon="2.12793">
        <ele>144.6</ele>
        <time>2025-10-25T10:32:29Z</time>
      </trkpt>
      <trkpt lat="48.53844" lon="2.12797">
        <ele>144.8</ele>
        <time>2025-10-25T10:32:31Z</time>
      </trkpt>
      <trkpt lat="48.53845" lon="2.12801">
        <ele>145</ele>
        <time>2025-10-25T10:32:33Z</time>
      </trkpt>
      <trkpt lat="48.53847" lon="2.12804">
        <ele>145</ele>
        <time>2025-10-25T10:32:35Z</time>
      </trkpt>
      <trkpt lat="48.53849" lon="2.12807">
        <ele>145.2</ele>
        <time>2025-10-25T10:32:37Z</time>
      </trkpt>
      <trkpt lat="48.53851" lon="2.1281">
        <ele>145.2</ele>
        <time>2025-10-25T10:32:39Z</time>
      </trkpt>
      <trkpt lat="48.53852" lon="2.12814">
        <ele>145.6</ele>
        <time>2025-10-25T10:32:41Z</time>
      </trkpt>
      <trkpt lat="48.53854" lon="2.12817">
        <ele>145.8</ele>
        <time>2025-10-25T10:32:43Z</time>
      </trkpt>
      <trkpt lat="48.53855" lon="2.12821">
        <ele>146</ele>
        <time>2025-10-25T10:32:45Z</time>
      </trkpt>
      <trkpt lat="48.53856" lon="2.12825">
        <ele>146.2</ele>
        <time>2025-10-25T10:32:47Z</time>
      </trkpt>
      <trkpt lat="48.53857" lon="2.12828">
        <ele>146.6</ele>
        <time>2025-10-25T10:32:49Z</time>
      </trkpt>
      <trkpt lat="48.53859" lon="2.12833">
        <ele>146.8</ele>
        <time>2025-10-25T10:32:51Z</time>
      </trkpt>
      <trkpt lat="48.53859" lon="2.12837">
        <ele>146.8</ele>
        <time>2025-10-25T10:32:53Z</time>
      </trkpt>
      <trkpt lat="48.5386" lon="2.12841">
        <ele>147</ele>
        <time>2025-10-25T10:32:55Z</time>
      </trkpt>
      <trkpt lat="48.5386" lon="2.12845">
        <ele>147</ele>
        <time>2025-10-25T10:32:57Z</time>
      </trkpt>
      <trkpt lat="48.5386" lon="2.1285">
        <ele>147.2</ele>
        <time>2025-10-25T10:32:59Z</time>
      </trkpt>
      <trkpt lat="48.5386" lon="2.12854">
        <ele>147.4</ele>
        <time>2025-10-25T10:33:01Z</time>
      </trkpt>
      <trkpt lat="48.5386" lon="2.12858">
        <ele>147.8</ele>
        <time>2025-10-25T10:33:03Z</time>
      </trkpt>
      <trkpt lat="48.5386" lon="2.12862">
        <ele>148</ele>
        <time>2025-10-25T10:33:05Z</time>
      </trkpt>
      <trkpt lat="48.5386" lon="2.12865">
        <ele>148.4</ele>
        <time>2025-10-25T10:33:07Z</time>
      </trkpt>
      <trkpt lat="48.53859" lon="2.12869">
        <ele>148.4</ele>
        <time>2025-10-25T10:33:09Z</time>
      </trkpt>
      <trkpt lat="48.53859" lon="2.12874">
        <ele>148.6</ele>
        <time>2025-10-25T10:33:11Z</time>
      </trkpt>
      <trkpt lat="48.53859" lon="2.12878">
        <ele>148.8</ele>
        <time>2025-10-25T10:33:13Z</time>
      </trkpt>
      <trkpt lat="48.53858" lon="2.12883">
        <ele>149</ele>
        <time>2025-10-25T10:33:15Z</time>
      </trkpt>
      <trkpt lat="48.53857" lon="2.12887">
        <ele>149</ele>
        <time>2025-10-25T10:33:17Z</time>
      </trkpt>
      <trkpt lat="48.53857" lon="2.12891">
        <ele>149</ele>
        <time>2025-10-25T10:33:19Z</time>
      </trkpt>
      <trkpt lat="48.53856" lon="2.12895">
        <ele>148.8</ele>
        <time>2025-10-25T10:33:21Z</time>
      </trkpt>
      <trkpt lat="48.53856" lon="2.12899">
        <ele>148.8</ele>
        <time>2025-10-25T10:33:23Z</time>
      </trkpt>
      <trkpt lat="48.53856" lon="2.12903">
        <ele>148.8</ele>
        <time>2025-10-25T10:33:25Z</time>
      </trkpt>
      <trkpt lat="48.53856" lon="2.12907">
        <ele>148.8</ele>
        <time>2025-10-25T10:33:27Z</time>
      </trkpt>
      <trkpt lat="48.53855" lon="2.12911">
        <ele>148.8</ele>
        <time>2025-10-25T10:33:29Z</time>
      </trkpt>
      <trkpt lat="48.53855" lon="2.12915">
        <ele>148.8</ele>
        <time>2025-10-25T10:33:31Z</time>
      </trkpt>
      <trkpt lat="48.53854" lon="2.12919">
        <ele>148.8</ele>
        <time>2025-10-25T10:33:33Z</time>
      </trkpt>
      <trkpt lat="48.53853" lon="2.12923">
        <ele>148.8</ele>
        <time>2025-10-25T10:33:35Z</time>
      </trkpt>
      <trkpt lat="48.53853" lon="2.12927">
        <ele>148.6</ele>
        <time>2025-10-25T10:33:37Z</time>
      </trkpt>
      <trkpt lat="48.53852" lon="2.12931">
        <ele>148.6</ele>
        <time>2025-10-25T10:33:39Z</time>
      </trkpt>
      <trkpt lat="48.53852" lon="2.12936">
        <ele>148.6</ele>
        <time>2025-10-25T10:33:41Z</time>
      </trkpt>
      <trkpt lat="48.53852" lon="2.1294">
        <ele>148.6</ele>
        <time>2025-10-25T10:33:43Z</time>
      </trkpt>
      <trkpt lat="48.53852" lon="2.12944">
        <ele>148.6</ele>
        <time>2025-10-25T10:33:45Z</time>
      </trkpt>
      <trkpt lat="48.53852" lon="2.12948">
        <ele>148.4</ele>
        <time>2025-10-25T10:33:47Z</time>
      </trkpt>
      <trkpt lat="48.53851" lon="2.12953">
        <ele>148.4</ele>
        <time>2025-10-25T10:33:49Z</time>
      </trkpt>
      <trkpt lat="48.53851" lon="2.12957">
        <ele>148.4</ele>
        <time>2025-10-25T10:33:51Z</time>
      </trkpt>
      <trkpt lat="48.53851" lon="2.12962">
        <ele>148.6</ele>
        <time>2025-10-25T10:33:53Z</time>
      </trkpt>
      <trkpt lat="48.53851" lon="2.12966">
        <ele>148.6</ele>
        <time>2025-10-25T10:33:55Z</time>
      </trkpt>
      <trkpt lat="48.53851" lon="2.1297">
        <ele>148.8</ele>
        <time>2025-10-25T10:33:57Z</time>
      </trkpt>
      <trkpt lat="48.53851" lon="2.12974">
        <ele>148.8</ele>
        <time>2025-10-25T10:33:59Z</time>
      </trkpt>
      <trkpt lat="48.5385" lon="2.12978">
        <ele>149</ele>
        <time>2025-10-25T10:34:01Z</time>
      </trkpt>
      <trkpt lat="48.5385" lon="2.12982">
        <ele>149</ele>
        <time>2025-10-25T10:34:03Z</time>
      </trkpt>
      <trkpt lat="48.5385" lon="2.12987">
        <ele>149.2</ele>
        <time>2025-10-25T10:34:05Z</time>
      </trkpt>
      <trkpt lat="48.53849" lon="2.12992">
        <ele>149.2</ele>
        <time>2025-10-25T10:34:07Z</time>
      </trkpt>
      <trkpt lat="48.53849" lon="2.12996">
        <ele>149.2</ele>
        <time>2025-10-25T10:34:09Z</time>
      </trkpt>
      <trkpt lat="48.53849" lon="2.13001">
        <ele>149.4</ele>
        <time>2025-10-25T10:34:11Z</time>
      </trkpt>
      <trkpt lat="48.53848" lon="2.13005">
        <ele>149.4</ele>
        <time>2025-10-25T10:34:13Z</time>
      </trkpt>
      <trkpt lat="48.53848" lon="2.13009">
        <ele>149.4</ele>
        <time>2025-10-25T10:34:15Z</time>
      </trkpt>
      <trkpt lat="48.53847" lon="2.13014">
        <ele>149.4</ele>
        <time>2025-10-25T10:34:17Z</time>
      </trkpt>
      <trkpt lat="48.53847" lon="2.13018">
        <ele>149.6</ele>
        <time>2025-10-25T10:34:19Z</time>
      </trkpt>
      <trkpt lat="48.53847" lon="2.13022">
        <ele>149.8</ele>
        <time>2025-10-25T10:34:21Z</time>
      </trkpt>
      <trkpt lat="48.53847" lon="2.13027">
        <ele>150.2</ele>
        <time>2025-10-25T10:34:23Z</time>
      </trkpt>
      <trkpt lat="48.53846" lon="2.13031">
        <ele>150.4</ele>
        <time>2025-10-25T10:34:25Z</time>
      </trkpt>
      <trkpt lat="48.53846" lon="2.13036">
        <ele>150.4</ele>
        <time>2025-10-25T10:34:27Z</time>
      </trkpt>
      <trkpt lat="48.53846" lon="2.1304">
        <ele>150.6</ele>
        <time>2025-10-25T10:34:29Z</time>
      </trkpt>
      <trkpt lat="48.53845" lon="2.13044">
        <ele>150.6</ele>
        <time>2025-10-25T10:34:31Z</time>
      </trkpt>
      <trkpt lat="48.53845" lon="2.13048">
        <ele>150.8</ele>
        <time>2025-10-25T10:34:33Z</time>
      </trkpt>
      <trkpt lat="48.53845" lon="2.13052">
        <ele>151</ele>
        <time>2025-10-25T10:34:35Z</time>
      </trkpt>
      <trkpt lat="48.53845" lon="2.13057">
        <ele>151.4</ele>
        <time>2025-10-25T10:34:37Z</time>
      </trkpt>
      <trkpt lat="48.53844" lon="2.1306">
        <ele>151.6</ele>
        <time>2025-10-25T10:34:39Z</time>
      </trkpt>
      <trkpt lat="48.53844" lon="2.13064">
        <ele>151.8</ele>
        <time>2025-10-25T10:34:41Z</time>
      </trkpt>
      <trkpt lat="48.53844" lon="2.13068">
        <ele>151.8</ele>
        <time>2025-10-25T10:34:43Z</time>
      </trkpt>
      <trkpt lat="48.53844" lon="2.13072">
        <ele>152</ele>
        <time>2025-10-25T10:34:45Z</time>
      </trkpt>
      <trkpt lat="48.53845" lon="2.13077">
        <ele>152</ele>
        <time>2025-10-25T10:34:47Z</time>
      </trkpt>
      <trkpt lat="48.53845" lon="2.13081">
        <ele>152</ele>
        <time>2025-10-25T10:34:49Z</time>
      </trkpt>
      <trkpt lat="48.53846" lon="2.13084">
        <ele>152.2</ele>
        <time>2025-10-25T10:34:51Z</time>
      </trkpt>
      <trkpt lat="48.53847" lon="2.13088">
        <ele>152.2</ele>
        <time>2025-10-25T10:34:53Z</time>
      </trkpt>
      <trkpt lat="48.53848" lon="2.13092">
        <ele>152.2</ele>
        <time>2025-10-25T10:34:55Z</time>
      </trkpt>
      <trkpt lat="48.5385" lon="2.13095">
        <ele>152</ele>
        <time>2025-10-25T10:34:57Z</time>
      </trkpt>
      <trkpt lat="48.53851" lon="2.13099">
        <ele>152</ele>
        <time>2025-10-25T10:34:59Z</time>
      </trkpt>
      <trkpt lat="48.53851" lon="2.13103">
        <ele>152</ele>
        <time>2025-10-25T10:35:01Z</time>
      </trkpt>
      <trkpt lat="48.53852" lon="2.13107">
        <ele>152.2</ele>
        <time>2025-10-25T10:35:03Z</time>
      </trkpt>
      <trkpt lat="48.53852" lon="2.13111">
        <ele>152.4</ele>
        <time>2025-10-25T10:35:05Z</time>
      </trkpt>
      <trkpt lat="48.53854" lon="2.13115">
        <ele>152.6</ele>
        <time>2025-10-25T10:35:07Z</time>
      </trkpt>
      <trkpt lat="48.53856" lon="2.13118">
        <ele>152.8</ele>
        <time>2025-10-25T10:35:09Z</time>
      </trkpt>
      <trkpt lat="48.53857" lon="2.13122">
        <ele>153</ele>
        <time>2025-10-25T10:35:11Z</time>
      </trkpt>
      <trkpt lat="48.53859" lon="2.13125">
        <ele>153.2</ele>
        <time>2025-10-25T10:35:13Z</time>
      </trkpt>
      <trkpt lat="48.5386" lon="2.13129">
        <ele>153</ele>
        <time>2025-10-25T10:35:15Z</time>
      </trkpt>
      <trkpt lat="48.53862" lon="2.13133">
        <ele>153</ele>
        <time>2025-10-25T10:35:17Z</time>
      </trkpt>
      <trkpt lat="48.53864" lon="2.13136">
        <ele>152.8</ele>
        <time>2025-10-25T10:35:19Z</time>
      </trkpt>
      <trkpt lat="48.53865" lon="2.1314">
        <ele>152.6</ele>
        <time>2025-10-25T10:35:21Z</time>
      </trkpt>
      <trkpt lat="48.53867" lon="2.13144">
        <ele>152.6</ele>
        <time>2025-10-25T10:35:23Z</time>
      </trkpt>
      <trkpt lat="48.53868" lon="2.13148">
        <ele>152.4</ele>
        <time>2025-10-25T10:35:25Z</time>
      </trkpt>
      <trkpt lat="48.53868" lon="2.13151">
        <ele>152.4</ele>
        <time>2025-10-25T10:35:27Z</time>
      </trkpt>
      <trkpt lat="48.53869" lon="2.13155">
        <ele>152.4</ele>
        <time>2025-10-25T10:35:29Z</time>
      </trkpt>
      <trkpt lat="48.5387" lon="2.13158">
        <ele>152.2</ele>
        <time>2025-10-25T10:35:31Z</time>
      </trkpt>
      <trkpt lat="48.53872" lon="2.13162">
        <ele>152.2</ele>
        <time>2025-10-25T10:35:33Z</time>
      </trkpt>
      <trkpt lat="48.53873" lon="2.13165">
        <ele>152</ele>
        <time>2025-10-25T10:35:35Z</time>
      </trkpt>
      <trkpt lat="48.53874" lon="2.13169">
        <ele>151.8</ele>
        <time>2025-10-25T10:35:37Z</time>
      </trkpt>
      <trkpt lat="48.53875" lon="2.13172">
        <ele>151.8</ele>
        <time>2025-10-25T10:35:39Z</time>
      </trkpt>
      <trkpt lat="48.53876" lon="2.13176">
        <ele>151.8</ele>
        <time>2025-10-25T10:35:41Z</time>
      </trkpt>
      <trkpt lat="48.53878" lon="2.13179">
        <ele>152</ele>
        <time>2025-10-25T10:35:43Z</time>
      </trkpt>
      <trkpt lat="48.5388" lon="2.13183">
        <ele>152</ele>
        <time>2025-10-25T10:35:45Z</time>
      </trkpt>
      <trkpt lat="48.53881" lon="2.13186">
        <ele>152</ele>
        <time>2025-10-25T10:35:47Z</time>
      </trkpt>
      <trkpt lat="48.53882" lon="2.1319">
        <ele>152</ele>
        <time>2025-10-25T10:35:49Z</time>
      </trkpt>
      <trkpt lat="48.53884" lon="2.13193">
        <ele>152</ele>
        <time>2025-10-25T10:35:51Z</time>
      </trkpt>
      <trkpt lat="48.53885" lon="2.13197">
        <ele>152</ele>
        <time>2025-10-25T10:35:53Z</time>
      </trkpt>
      <trkpt lat="48.53886" lon="2.132">
        <ele>151.8</ele>
        <time>2025-10-25T10:35:55Z</time>
      </trkpt>
      <trkpt lat="48.53888" lon="2.13204">
        <ele>151.8</ele>
        <time>2025-10-25T10:35:57Z</time>
      </trkpt>
      <trkpt lat="48.53889" lon="2.13207">
        <ele>152</ele>
        <time>2025-10-25T10:35:59Z</time>
      </trkpt>
      <trkpt lat="48.5389" lon="2.13211">
        <ele>152</ele>
        <time>2025-10-25T10:36:01Z</time>
      </trkpt>
      <trkpt lat="48.53891" lon="2.13214">
        <ele>152</ele>
        <time>2025-10-25T10:36:03Z</time>
      </trkpt>
      <trkpt lat="48.53892" lon="2.13218">
        <ele>152</ele>
        <time>2025-10-25T10:36:05Z</time>
      </trkpt>
      <trkpt lat="48.53894" lon="2.13221">
        <ele>152</ele>
        <time>2025-10-25T10:36:07Z</time>
      </trkpt>
      <trkpt lat="48.53894" lon="2.13225">
        <ele>152.2</ele>
        <time>2025-10-25T10:36:09Z</time>
      </trkpt>
      <trkpt lat="48.53896" lon="2.13228">
        <ele>152.2</ele>
        <time>2025-10-25T10:36:11Z</time>
      </trkpt>
      <trkpt lat="48.53897" lon="2.13232">
        <ele>152.2</ele>
        <time>2025-10-25T10:36:13Z</time>
      </trkpt>
      <trkpt lat="48.53898" lon="2.13235">
        <ele>152.4</ele>
        <time>2025-10-25T10:36:15Z</time>
      </trkpt>
      <trkpt lat="48.539" lon="2.13239">
        <ele>152.6</ele>
        <time>2025-10-25T10:36:17Z</time>
      </trkpt>
      <trkpt lat="48.539" lon="2.13243">
        <ele>152.6</ele>
        <time>2025-10-25T10:36:19Z</time>
      </trkpt>
      <trkpt lat="48.53902" lon="2.13247">
        <ele>152.8</ele>
        <time>2025-10-25T10:36:21Z</time>
      </trkpt>
      <trkpt lat="48.53903" lon="2.1325">
        <ele>153</ele>
        <time>2025-10-25T10:36:23Z</time>
      </trkpt>
      <trkpt lat="48.53905" lon="2.13254">
        <ele>153</ele>
        <time>2025-10-25T10:36:25Z</time>
      </trkpt>
      <trkpt lat="48.53906" lon="2.13258">
        <ele>153.2</ele>
        <time>2025-10-25T10:36:27Z</time>
      </trkpt>
      <trkpt lat="48.53908" lon="2.13262">
        <ele>153.4</ele>
        <time>2025-10-25T10:36:29Z</time>
      </trkpt>
      <trkpt lat="48.53909" lon="2.13265">
        <ele>153.8</ele>
        <time>2025-10-25T10:36:31Z</time>
      </trkpt>
      <trkpt lat="48.5391" lon="2.13269">
        <ele>154</ele>
        <time>2025-10-25T10:36:33Z</time>
      </trkpt>
      <trkpt lat="48.53912" lon="2.13273">
        <ele>154.2</ele>
        <time>2025-10-25T10:36:35Z</time>
      </trkpt>
      <trkpt lat="48.53914" lon="2.13277">
        <ele>154.2</ele>
        <time>2025-10-25T10:36:37Z</time>
      </trkpt>
      <trkpt lat="48.53915" lon="2.13281">
        <ele>154.4</ele>
        <time>2025-10-25T10:36:39Z</time>
      </trkpt>
      <trkpt lat="48.53916" lon="2.13285">
        <ele>154.4</ele>
        <time>2025-10-25T10:36:41Z</time>
      </trkpt>
      <trkpt lat="48.53917" lon="2.13288">
        <ele>154.4</ele>
        <time>2025-10-25T10:36:43Z</time>
      </trkpt>
      <trkpt lat="48.53918" lon="2.13292">
        <ele>154.4</ele>
        <time>2025-10-25T10:36:45Z</time>
      </trkpt>
      <trkpt lat="48.53918" lon="2.13296">
        <ele>154.4</ele>
        <time>2025-10-25T10:36:47Z</time>
      </trkpt>
      <trkpt lat="48.53919" lon="2.133">
        <ele>154.4</ele>
        <time>2025-10-25T10:36:49Z</time>
      </trkpt>
      <trkpt lat="48.5392" lon="2.13304">
        <ele>154.4</ele>
        <time>2025-10-25T10:36:51Z</time>
      </trkpt>
      <trkpt lat="48.53921" lon="2.13308">
        <ele>154.4</ele>
        <time>2025-10-25T10:36:53Z</time>
      </trkpt>
      <trkpt lat="48.53922" lon="2.13312">
        <ele>154.2</ele>
        <time>2025-10-25T10:36:55Z</time>
      </trkpt>
      <trkpt lat="48.53922" lon="2.13316">
        <ele>154</ele>
        <time>2025-10-25T10:36:57Z</time>
      </trkpt>
      <trkpt lat="48.53922" lon="2.13321">
        <ele>154</ele>
        <time>2025-10-25T10:36:59Z</time>
      </trkpt>
      <trkpt lat="48.53922" lon="2.13325">
        <ele>154</ele>
        <time>2025-10-25T10:37:01Z</time>
      </trkpt>
      <trkpt lat="48.53922" lon="2.13329">
        <ele>154</ele>
        <time>2025-10-25T10:37:03Z</time>
      </trkpt>
      <trkpt lat="48.53922" lon="2.13333">
        <ele>154</ele>
        <time>2025-10-25T10:37:05Z</time>
      </trkpt>
      <trkpt lat="48.53922" lon="2.13337">
        <ele>153.8</ele>
        <time>2025-10-25T10:37:07Z</time>
      </trkpt>
      <trkpt lat="48.53922" lon="2.13342">
        <ele>153.8</ele>
        <time>2025-10-25T10:37:09Z</time>
      </trkpt>
      <trkpt lat="48.53922" lon="2.13346">
        <ele>153.6</ele>
        <time>2025-10-25T10:37:11Z</time>
      </trkpt>
      <trkpt lat="48.53923" lon="2.13351">
        <ele>153.4</ele>
        <time>2025-10-25T10:37:13Z</time>
      </trkpt>
      <trkpt lat="48.53924" lon="2.13355">
        <ele>153</ele>
        <time>2025-10-25T10:37:15Z</time>
      </trkpt>
      <trkpt lat="48.53924" lon="2.13359">
        <ele>152.8</ele>
        <time>2025-10-25T10:37:17Z</time>
      </trkpt>
      <trkpt lat="48.53926" lon="2.13363">
        <ele>152.6</ele>
        <time>2025-10-25T10:37:19Z</time>
      </trkpt>
      <trkpt lat="48.53927" lon="2.13367">
        <ele>152.4</ele>
        <time>2025-10-25T10:37:21Z</time>
      </trkpt>
      <trkpt lat="48.53928" lon="2.13371">
        <ele>152.2</ele>
        <time>2025-10-25T10:37:23Z</time>
      </trkpt>
      <trkpt lat="48.5393" lon="2.13374">
        <ele>152.2</ele>
        <time>2025-10-25T10:37:24Z</time>
      </trkpt>
      <trkpt lat="48.53931" lon="2.13377">
        <ele>152.2</ele>
        <time>2025-10-25T10:37:25Z</time>
      </trkpt>
      <trkpt lat="48.53932" lon="2.13379">
        <ele>152.2</ele>
        <time>2025-10-25T10:37:26Z</time>
      </trkpt>
      <trkpt lat="48.53933" lon="2.13382">
        <ele>152.2</ele>
        <time>2025-10-25T10:37:27Z</time>
      </trkpt>
      <trkpt lat="48.53934" lon="2.13385">
        <ele>152.2</ele>
        <time>2025-10-25T10:37:28Z</time>
      </trkpt>
      <trkpt lat="48.53935" lon="2.13387">
        <ele>152.2</ele>
        <time>2025-10-25T10:37:29Z</time>
      </trkpt>
      <trkpt lat="48.53936" lon="2.1339">
        <ele>152.2</ele>
        <time>2025-10-25T10:37:30Z</time>
      </trkpt>
      <trkpt lat="48.53937" lon="2.13394">
        <ele>152.2</ele>
        <time>2025-10-25T10:37:32Z</time>
      </trkpt>
      <trkpt lat="48.53939" lon="2.13399">
        <ele>152</ele>
        <time>2025-10-25T10:37:34Z</time>
      </trkpt>
      <trkpt lat="48.5394" lon="2.13401">
        <ele>152</ele>
        <time>2025-10-25T10:37:35Z</time>
      </trkpt>
      <trkpt lat="48.5394" lon="2.13404">
        <ele>151.8</ele>
        <time>2025-10-25T10:37:36Z</time>
      </trkpt>
      <trkpt lat="48.53941" lon="2.13407">
        <ele>151.8</ele>
        <time>2025-10-25T10:37:37Z</time>
      </trkpt>
      <trkpt lat="48.53942" lon="2.13409">
        <ele>151.8</ele>
        <time>2025-10-25T10:37:38Z</time>
      </trkpt>
      <trkpt lat="48.53944" lon="2.13414">
        <ele>151.6</ele>
        <time>2025-10-25T10:37:40Z</time>
      </trkpt>
      <trkpt lat="48.53945" lon="2.13418">
        <ele>151.4</ele>
        <time>2025-10-25T10:37:42Z</time>
      </trkpt>
      <trkpt lat="48.53946" lon="2.13422">
        <ele>151.4</ele>
        <time>2025-10-25T10:37:44Z</time>
      </trkpt>
      <trkpt lat="48.53946" lon="2.13426">
        <ele>151.4</ele>
        <time>2025-10-25T10:37:46Z</time>
      </trkpt>
      <trkpt lat="48.53948" lon="2.1343">
        <ele>151.4</ele>
        <time>2025-10-25T10:37:48Z</time>
      </trkpt>
      <trkpt lat="48.53949" lon="2.13434">
        <ele>151.4</ele>
        <time>2025-10-25T10:37:50Z</time>
      </trkpt>
      <trkpt lat="48.5395" lon="2.13438">
        <ele>151.4</ele>
        <time>2025-10-25T10:37:52Z</time>
      </trkpt>
      <trkpt lat="48.53951" lon="2.13441">
        <ele>151.4</ele>
        <time>2025-10-25T10:37:54Z</time>
      </trkpt>
      <trkpt lat="48.53952" lon="2.13445">
        <ele>151.4</ele>
        <time>2025-10-25T10:37:56Z</time>
      </trkpt>
      <trkpt lat="48.53952" lon="2.13448">
        <ele>151.6</ele>
        <time>2025-10-25T10:37:58Z</time>
      </trkpt>
      <trkpt lat="48.53953" lon="2.13452">
        <ele>151.8</ele>
        <time>2025-10-25T10:38:00Z</time>
      </trkpt>
      <trkpt lat="48.53954" lon="2.13456">
        <ele>152</ele>
        <time>2025-10-25T10:38:02Z</time>
      </trkpt>
      <trkpt lat="48.53955" lon="2.1346">
        <ele>152</ele>
        <time>2025-10-25T10:38:04Z</time>
      </trkpt>
      <trkpt lat="48.53956" lon="2.13464">
        <ele>152</ele>
        <time>2025-10-25T10:38:06Z</time>
      </trkpt>
      <trkpt lat="48.53958" lon="2.13468">
        <ele>152</ele>
        <time>2025-10-25T10:38:08Z</time>
      </trkpt>
      <trkpt lat="48.53959" lon="2.13472">
        <ele>152</ele>
        <time>2025-10-25T10:38:10Z</time>
      </trkpt>
      <trkpt lat="48.5396" lon="2.13475">
        <ele>152</ele>
        <time>2025-10-25T10:38:12Z</time>
      </trkpt>
      <trkpt lat="48.53961" lon="2.13479">
        <ele>152</ele>
        <time>2025-10-25T10:38:14Z</time>
      </trkpt>
      <trkpt lat="48.53962" lon="2.13482">
        <ele>152</ele>
        <time>2025-10-25T10:38:16Z</time>
      </trkpt>
      <trkpt lat="48.53964" lon="2.13486">
        <ele>152</ele>
        <time>2025-10-25T10:38:18Z</time>
      </trkpt>
      <trkpt lat="48.53965" lon="2.1349">
        <ele>152.2</ele>
        <time>2025-10-25T10:38:20Z</time>
      </trkpt>
      <trkpt lat="48.53966" lon="2.13493">
        <ele>152.2</ele>
        <time>2025-10-25T10:38:22Z</time>
      </trkpt>
      <trkpt lat="48.53967" lon="2.13497">
        <ele>152</ele>
        <time>2025-10-25T10:38:24Z</time>
      </trkpt>
      <trkpt lat="48.53968" lon="2.13501">
        <ele>151.8</ele>
        <time>2025-10-25T10:38:26Z</time>
      </trkpt>
      <trkpt lat="48.5397" lon="2.13505">
        <ele>151.6</ele>
        <time>2025-10-25T10:38:28Z</time>
      </trkpt>
      <trkpt lat="48.53971" lon="2.13509">
        <ele>151.6</ele>
        <time>2025-10-25T10:38:30Z</time>
      </trkpt>
      <trkpt lat="48.53972" lon="2.13513">
        <ele>151.6</ele>
        <time>2025-10-25T10:38:32Z</time>
      </trkpt>
      <trkpt lat="48.53973" lon="2.13517">
        <ele>151.8</ele>
        <time>2025-10-25T10:38:34Z</time>
      </trkpt>
      <trkpt lat="48.53974" lon="2.13521">
        <ele>151.8</ele>
        <time>2025-10-25T10:38:36Z</time>
      </trkpt>
      <trkpt lat="48.53974" lon="2.13525">
        <ele>151.8</ele>
        <time>2025-10-25T10:38:38Z</time>
      </trkpt>
      <trkpt lat="48.53976" lon="2.13529">
        <ele>152</ele>
        <time>2025-10-25T10:38:40Z</time>
      </trkpt>
      <trkpt lat="48.53977" lon="2.13533">
        <ele>152.2</ele>
        <time>2025-10-25T10:38:42Z</time>
      </trkpt>
      <trkpt lat="48.53978" lon="2.13537">
        <ele>152.2</ele>
        <time>2025-10-25T10:38:44Z</time>
      </trkpt>
      <trkpt lat="48.53979" lon="2.13541">
        <ele>152.2</ele>
        <time>2025-10-25T10:38:46Z</time>
      </trkpt>
      <trkpt lat="48.5398" lon="2.13545">
        <ele>152.2</ele>
        <time>2025-10-25T10:38:48Z</time>
      </trkpt>
      <trkpt lat="48.53981" lon="2.13549">
        <ele>152.2</ele>
        <time>2025-10-25T10:38:50Z</time>
      </trkpt>
      <trkpt lat="48.53982" lon="2.13553">
        <ele>152.2</ele>
        <time>2025-10-25T10:38:52Z</time>
      </trkpt>
      <trkpt lat="48.53983" lon="2.13557">
        <ele>152.2</ele>
        <time>2025-10-25T10:38:54Z</time>
      </trkpt>
      <trkpt lat="48.53985" lon="2.1356">
        <ele>152.2</ele>
        <time>2025-10-25T10:38:56Z</time>
      </trkpt>
      <trkpt lat="48.53987" lon="2.13565">
        <ele>152.2</ele>
        <time>2025-10-25T10:38:58Z</time>
      </trkpt>
      <trkpt lat="48.53988" lon="2.13569">
        <ele>152.2</ele>
        <time>2025-10-25T10:39:00Z</time>
      </trkpt>
      <trkpt lat="48.5399" lon="2.13573">
        <ele>152.2</ele>
        <time>2025-10-25T10:39:02Z</time>
      </trkpt>
      <trkpt lat="48.53991" lon="2.13577">
        <ele>152.4</ele>
        <time>2025-10-25T10:39:04Z</time>
      </trkpt>
      <trkpt lat="48.53992" lon="2.13581">
        <ele>152.2</ele>
        <time>2025-10-25T10:39:06Z</time>
      </trkpt>
      <trkpt lat="48.53993" lon="2.13585">
        <ele>152.2</ele>
        <time>2025-10-25T10:39:08Z</time>
      </trkpt>
      <trkpt lat="48.53994" lon="2.13589">
        <ele>152.2</ele>
        <time>2025-10-25T10:39:10Z</time>
      </trkpt>
      <trkpt lat="48.53995" lon="2.13593">
        <ele>152.2</ele>
        <time>2025-10-25T10:39:12Z</time>
      </trkpt>
      <trkpt lat="48.53997" lon="2.13597">
        <ele>152.2</ele>
        <time>2025-10-25T10:39:14Z</time>
      </trkpt>
      <trkpt lat="48.53998" lon="2.13602">
        <ele>152.2</ele>
        <time>2025-10-25T10:39:16Z</time>
      </trkpt>
      <trkpt lat="48.53999" lon="2.13604">
        <ele>152.4</ele>
        <time>2025-10-25T10:39:17Z</time>
      </trkpt>
      <trkpt lat="48.54" lon="2.13607">
        <ele>152.4</ele>
        <time>2025-10-25T10:39:18Z</time>
      </trkpt>
      <trkpt lat="48.54001" lon="2.1361">
        <ele>152.4</ele>
        <time>2025-10-25T10:39:19Z</time>
      </trkpt>
      <trkpt lat="48.54002" lon="2.13612">
        <ele>152.4</ele>
        <time>2025-10-25T10:39:20Z</time>
      </trkpt>
      <trkpt lat="48.54002" lon="2.13615">
        <ele>152.4</ele>
        <time>2025-10-25T10:39:21Z</time>
      </trkpt>
      <trkpt lat="48.54003" lon="2.13618">
        <ele>152.6</ele>
        <time>2025-10-25T10:39:22Z</time>
      </trkpt>
      <trkpt lat="48.54003" lon="2.13621">
        <ele>152.6</ele>
        <time>2025-10-25T10:39:23Z</time>
      </trkpt>
      <trkpt lat="48.54003" lon="2.13624">
        <ele>152.6</ele>
        <time>2025-10-25T10:39:24Z</time>
      </trkpt>
      <trkpt lat="48.54004" lon="2.13629">
        <ele>152.6</ele>
        <time>2025-10-25T10:39:26Z</time>
      </trkpt>
      <trkpt lat="48.54005" lon="2.13633">
        <ele>152.6</ele>
        <time>2025-10-25T10:39:28Z</time>
      </trkpt>
      <trkpt lat="48.54007" lon="2.13637">
        <ele>152.6</ele>
        <time>2025-10-25T10:39:30Z</time>
      </trkpt>
      <trkpt lat="48.54008" lon="2.13641">
        <ele>152.8</ele>
        <time>2025-10-25T10:39:32Z</time>
      </trkpt>
      <trkpt lat="48.54009" lon="2.13645">
        <ele>152.8</ele>
        <time>2025-10-25T10:39:34Z</time>
      </trkpt>
      <trkpt lat="48.5401" lon="2.1365">
        <ele>153</ele>
        <time>2025-10-25T10:39:36Z</time>
      </trkpt>
      <trkpt lat="48.54012" lon="2.13653">
        <ele>153</ele>
        <time>2025-10-25T10:39:38Z</time>
      </trkpt>
      <trkpt lat="48.54013" lon="2.13657">
        <ele>153</ele>
        <time>2025-10-25T10:39:40Z</time>
      </trkpt>
      <trkpt lat="48.54014" lon="2.13661">
        <ele>153</ele>
        <time>2025-10-25T10:39:42Z</time>
      </trkpt>
      <trkpt lat="48.54015" lon="2.13665">
        <ele>153</ele>
        <time>2025-10-25T10:39:44Z</time>
      </trkpt>
      <trkpt lat="48.54017" lon="2.13669">
        <ele>153</ele>
        <time>2025-10-25T10:39:46Z</time>
      </trkpt>
      <trkpt lat="48.54018" lon="2.13673">
        <ele>153</ele>
        <time>2025-10-25T10:39:48Z</time>
      </trkpt>
      <trkpt lat="48.54019" lon="2.13677">
        <ele>153</ele>
        <time>2025-10-25T10:39:50Z</time>
      </trkpt>
      <trkpt lat="48.5402" lon="2.13681">
        <ele>153</ele>
        <time>2025-10-25T10:39:52Z</time>
      </trkpt>
      <trkpt lat="48.54021" lon="2.13685">
        <ele>152.8</ele>
        <time>2025-10-25T10:39:54Z</time>
      </trkpt>
      <trkpt lat="48.54022" lon="2.13689">
        <ele>152.8</ele>
        <time>2025-10-25T10:39:56Z</time>
      </trkpt>
      <trkpt lat="48.54023" lon="2.13693">
        <ele>153</ele>
        <time>2025-10-25T10:39:58Z</time>
      </trkpt>
      <trkpt lat="48.54024" lon="2.13697">
        <ele>153</ele>
        <time>2025-10-25T10:40:00Z</time>
      </trkpt>
      <trkpt lat="48.54025" lon="2.13702">
        <ele>153</ele>
        <time>2025-10-25T10:40:02Z</time>
      </trkpt>
      <trkpt lat="48.54025" lon="2.13706">
        <ele>153</ele>
        <time>2025-10-25T10:40:04Z</time>
      </trkpt>
      <trkpt lat="48.54026" lon="2.1371">
        <ele>153</ele>
        <time>2025-10-25T10:40:06Z</time>
      </trkpt>
      <trkpt lat="48.54027" lon="2.13714">
        <ele>153</ele>
        <time>2025-10-25T10:40:08Z</time>
      </trkpt>
      <trkpt lat="48.54028" lon="2.13718">
        <ele>153.2</ele>
        <time>2025-10-25T10:40:10Z</time>
      </trkpt>
      <trkpt lat="48.54029" lon="2.13722">
        <ele>153.2</ele>
        <time>2025-10-25T10:40:12Z</time>
      </trkpt>
      <trkpt lat="48.5403" lon="2.13726">
        <ele>153.2</ele>
        <time>2025-10-25T10:40:14Z</time>
      </trkpt>
      <trkpt lat="48.54032" lon="2.1373">
        <ele>153.2</ele>
        <time>2025-10-25T10:40:16Z</time>
      </trkpt>
      <trkpt lat="48.54033" lon="2.13734">
        <ele>153</ele>
        <time>2025-10-25T10:40:18Z</time>
      </trkpt>
      <trkpt lat="48.54034" lon="2.13738">
        <ele>153</ele>
        <time>2025-10-25T10:40:20Z</time>
      </trkpt>
      <trkpt lat="48.54035" lon="2.13742">
        <ele>152.8</ele>
        <time>2025-10-25T10:40:22Z</time>
      </trkpt>
      <trkpt lat="48.54036" lon="2.13746">
        <ele>152.6</ele>
        <time>2025-10-25T10:40:24Z</time>
      </trkpt>
      <trkpt lat="48.54037" lon="2.13751">
        <ele>152.4</ele>
        <time>2025-10-25T10:40:26Z</time>
      </trkpt>
      <trkpt lat="48.54038" lon="2.13755">
        <ele>152.4</ele>
        <time>2025-10-25T10:40:28Z</time>
      </trkpt>
      <trkpt lat="48.5404" lon="2.1376">
        <ele>152.4</ele>
        <time>2025-10-25T10:40:30Z</time>
      </trkpt>
      <trkpt lat="48.54041" lon="2.13764">
        <ele>152.2</ele>
        <time>2025-10-25T10:40:32Z</time>
      </trkpt>
      <trkpt lat="48.54043" lon="2.13768">
        <ele>152.2</ele>
        <time>2025-10-25T10:40:34Z</time>
      </trkpt>
      <trkpt lat="48.54044" lon="2.13773">
        <ele>152.2</ele>
        <time>2025-10-25T10:40:36Z</time>
      </trkpt>
      <trkpt lat="48.54045" lon="2.13777">
        <ele>152</ele>
        <time>2025-10-25T10:40:38Z</time>
      </trkpt>
      <trkpt lat="48.54047" lon="2.13782">
        <ele>152</ele>
        <time>2025-10-25T10:40:40Z</time>
      </trkpt>
      <trkpt lat="48.54048" lon="2.13786">
        <ele>152</ele>
        <time>2025-10-25T10:40:42Z</time>
      </trkpt>
      <trkpt lat="48.5405" lon="2.13791">
        <ele>152</ele>
        <time>2025-10-25T10:40:44Z</time>
      </trkpt>
      <trkpt lat="48.54051" lon="2.13795">
        <ele>152.2</ele>
        <time>2025-10-25T10:40:46Z</time>
      </trkpt>
      <trkpt lat="48.54052" lon="2.13799">
        <ele>152.4</ele>
        <time>2025-10-25T10:40:48Z</time>
      </trkpt>
      <trkpt lat="48.54053" lon="2.13803">
        <ele>152.4</ele>
        <time>2025-10-25T10:40:50Z</time>
      </trkpt>
      <trkpt lat="48.54055" lon="2.13808">
        <ele>152.4</ele>
        <time>2025-10-25T10:40:52Z</time>
      </trkpt>
      <trkpt lat="48.54056" lon="2.13812">
        <ele>152.4</ele>
        <time>2025-10-25T10:40:54Z</time>
      </trkpt>
      <trkpt lat="48.54057" lon="2.13816">
        <ele>152.2</ele>
        <time>2025-10-25T10:40:56Z</time>
      </trkpt>
      <trkpt lat="48.54059" lon="2.13821">
        <ele>152.2</ele>
        <time>2025-10-25T10:40:58Z</time>
      </trkpt>
      <trkpt lat="48.5406" lon="2.13825">
        <ele>152.4</ele>
        <time>2025-10-25T10:41:00Z</time>
      </trkpt>
      <trkpt lat="48.54061" lon="2.13829">
        <ele>152.4</ele>
        <time>2025-10-25T10:41:02Z</time>
      </trkpt>
      <trkpt lat="48.54063" lon="2.13832">
        <ele>152.4</ele>
        <time>2025-10-25T10:41:04Z</time>
      </trkpt>
      <trkpt lat="48.54065" lon="2.13835">
        <ele>152.6</ele>
        <time>2025-10-25T10:41:06Z</time>
      </trkpt>
      <trkpt lat="48.54067" lon="2.13837">
        <ele>152.8</ele>
        <time>2025-10-25T10:41:08Z</time>
      </trkpt>
      <trkpt lat="48.5407" lon="2.13839">
        <ele>153</ele>
        <time>2025-10-25T10:41:10Z</time>
      </trkpt>
      <trkpt lat="48.54073" lon="2.13839">
        <ele>153</ele>
        <time>2025-10-25T10:41:12Z</time>
      </trkpt>
      <trkpt lat="48.54076" lon="2.1384">
        <ele>153.2</ele>
        <time>2025-10-25T10:41:14Z</time>
      </trkpt>
      <trkpt lat="48.54079" lon="2.1384">
        <ele>153</ele>
        <time>2025-10-25T10:41:16Z</time>
      </trkpt>
      <trkpt lat="48.54081" lon="2.1384">
        <ele>152.8</ele>
        <time>2025-10-25T10:41:17Z</time>
      </trkpt>
      <trkpt lat="48.54084" lon="2.1384">
        <ele>152.8</ele>
        <time>2025-10-25T10:41:19Z</time>
      </trkpt>
      <trkpt lat="48.54088" lon="2.13839">
        <ele>152.6</ele>
        <time>2025-10-25T10:41:21Z</time>
      </trkpt>
      <trkpt lat="48.54091" lon="2.1384">
        <ele>152.6</ele>
        <time>2025-10-25T10:41:23Z</time>
      </trkpt>
      <trkpt lat="48.54093" lon="2.1384">
        <ele>152.6</ele>
        <time>2025-10-25T10:41:25Z</time>
      </trkpt>
      <trkpt lat="48.54096" lon="2.13841">
        <ele>152.6</ele>
        <time>2025-10-25T10:41:27Z</time>
      </trkpt>
      <trkpt lat="48.54099" lon="2.13841">
        <ele>152.4</ele>
        <time>2025-10-25T10:41:29Z</time>
      </trkpt>
      <trkpt lat="48.54101" lon="2.13842">
        <ele>152.2</ele>
        <time>2025-10-25T10:41:31Z</time>
      </trkpt>
      <trkpt lat="48.54104" lon="2.13843">
        <ele>152.2</ele>
        <time>2025-10-25T10:41:33Z</time>
      </trkpt>
      <trkpt lat="48.54107" lon="2.13843">
        <ele>152.2</ele>
        <time>2025-10-25T10:41:35Z</time>
      </trkpt>
      <trkpt lat="48.5411" lon="2.13844">
        <ele>152.2</ele>
        <time>2025-10-25T10:41:37Z</time>
      </trkpt>
      <trkpt lat="48.54113" lon="2.13845">
        <ele>152.4</ele>
        <time>2025-10-25T10:41:39Z</time>
      </trkpt>
      <trkpt lat="48.54115" lon="2.13846">
        <ele>152.4</ele>
        <time>2025-10-25T10:41:40Z</time>
      </trkpt>
      <trkpt lat="48.54118" lon="2.13846">
        <ele>152.6</ele>
        <time>2025-10-25T10:41:42Z</time>
      </trkpt>
      <trkpt lat="48.54121" lon="2.13847">
        <ele>152.8</ele>
        <time>2025-10-25T10:41:44Z</time>
      </trkpt>
      <trkpt lat="48.54124" lon="2.13849">
        <ele>153</ele>
        <time>2025-10-25T10:41:46Z</time>
      </trkpt>
      <trkpt lat="48.54127" lon="2.13851">
        <ele>153</ele>
        <time>2025-10-25T10:41:48Z</time>
      </trkpt>
      <trkpt lat="48.5413" lon="2.13854">
        <ele>153</ele>
        <time>2025-10-25T10:41:50Z</time>
      </trkpt>
      <trkpt lat="48.54133" lon="2.13855">
        <ele>153</ele>
        <time>2025-10-25T10:41:52Z</time>
      </trkpt>
      <trkpt lat="48.54136" lon="2.13857">
        <ele>153</ele>
        <time>2025-10-25T10:41:54Z</time>
      </trkpt>
      <trkpt lat="48.54139" lon="2.13858">
        <ele>152.8</ele>
        <time>2025-10-25T10:41:56Z</time>
      </trkpt>
      <trkpt lat="48.54142" lon="2.13859">
        <ele>152.8</ele>
        <time>2025-10-25T10:41:58Z</time>
      </trkpt>
      <trkpt lat="48.54145" lon="2.1386">
        <ele>152.8</ele>
        <time>2025-10-25T10:42:00Z</time>
      </trkpt>
      <trkpt lat="48.54148" lon="2.13861">
        <ele>152.8</ele>
        <time>2025-10-25T10:42:02Z</time>
      </trkpt>
      <trkpt lat="48.54151" lon="2.13862">
        <ele>152.8</ele>
        <time>2025-10-25T10:42:04Z</time>
      </trkpt>
      <trkpt lat="48.54154" lon="2.13863">
        <ele>153</ele>
        <time>2025-10-25T10:42:06Z</time>
      </trkpt>
      <trkpt lat="48.54156" lon="2.13864">
        <ele>153.2</ele>
        <time>2025-10-25T10:42:08Z</time>
      </trkpt>
      <trkpt lat="48.54159" lon="2.13865">
        <ele>153.2</ele>
        <time>2025-10-25T10:42:10Z</time>
      </trkpt>
      <trkpt lat="48.54162" lon="2.13866">
        <ele>153.4</ele>
        <time>2025-10-25T10:42:12Z</time>
      </trkpt>
      <trkpt lat="48.54164" lon="2.13868">
        <ele>153.4</ele>
        <time>2025-10-25T10:42:14Z</time>
      </trkpt>
      <trkpt lat="48.54167" lon="2.13869">
        <ele>153.6</ele>
        <time>2025-10-25T10:42:16Z</time>
      </trkpt>
      <trkpt lat="48.5417" lon="2.13869">
        <ele>153.6</ele>
        <time>2025-10-25T10:42:18Z</time>
      </trkpt>
      <trkpt lat="48.54173" lon="2.1387">
        <ele>153.6</ele>
        <time>2025-10-25T10:42:20Z</time>
      </trkpt>
      <trkpt lat="48.54176" lon="2.13869">
        <ele>153.6</ele>
        <time>2025-10-25T10:42:22Z</time>
      </trkpt>
      <trkpt lat="48.54179" lon="2.13869">
        <ele>153.8</ele>
        <time>2025-10-25T10:42:24Z</time>
      </trkpt>
      <trkpt lat="48.54182" lon="2.13868">
        <ele>153.6</ele>
        <time>2025-10-25T10:42:26Z</time>
      </trkpt>
      <trkpt lat="48.54185" lon="2.13868">
        <ele>153.6</ele>
        <time>2025-10-25T10:42:28Z</time>
      </trkpt>
      <trkpt lat="48.54188" lon="2.13868">
        <ele>153.6</ele>
        <time>2025-10-25T10:42:30Z</time>
      </trkpt>
      <trkpt lat="48.54191" lon="2.13867">
        <ele>153.6</ele>
        <time>2025-10-25T10:42:32Z</time>
      </trkpt>
      <trkpt lat="48.54194" lon="2.13867">
        <ele>153.8</ele>
        <time>2025-10-25T10:42:34Z</time>
      </trkpt>
      <trkpt lat="48.54197" lon="2.13867">
        <ele>153.6</ele>
        <time>2025-10-25T10:42:36Z</time>
      </trkpt>
      <trkpt lat="48.542" lon="2.13867">
        <ele>153.6</ele>
        <time>2025-10-25T10:42:38Z</time>
      </trkpt>
      <trkpt lat="48.54203" lon="2.13866">
        <ele>153.6</ele>
        <time>2025-10-25T10:42:40Z</time>
      </trkpt>
      <trkpt lat="48.54205" lon="2.13865">
        <ele>153.6</ele>
        <time>2025-10-25T10:42:42Z</time>
      </trkpt>
      <trkpt lat="48.54208" lon="2.13865">
        <ele>153.8</ele>
        <time>2025-10-25T10:42:44Z</time>
      </trkpt>
      <trkpt lat="48.54211" lon="2.13864">
        <ele>153.8</ele>
        <time>2025-10-25T10:42:46Z</time>
      </trkpt>
      <trkpt lat="48.54214" lon="2.13863">
        <ele>154</ele>
        <time>2025-10-25T10:42:48Z</time>
      </trkpt>
      <trkpt lat="48.54216" lon="2.13862">
        <ele>154</ele>
        <time>2025-10-25T10:42:50Z</time>
      </trkpt>
      <trkpt lat="48.54219" lon="2.13861">
        <ele>153.8</ele>
        <time>2025-10-25T10:42:52Z</time>
      </trkpt>
      <trkpt lat="48.54222" lon="2.13861">
        <ele>153.6</ele>
        <time>2025-10-25T10:42:54Z</time>
      </trkpt>
      <trkpt lat="48.54224" lon="2.1386">
        <ele>153.6</ele>
        <time>2025-10-25T10:42:56Z</time>
      </trkpt>
      <trkpt lat="48.54228" lon="2.1386">
        <ele>153.6</ele>
        <time>2025-10-25T10:42:58Z</time>
      </trkpt>
      <trkpt lat="48.5423" lon="2.13859">
        <ele>153.6</ele>
        <time>2025-10-25T10:43:00Z</time>
      </trkpt>
      <trkpt lat="48.54233" lon="2.13859">
        <ele>153.8</ele>
        <time>2025-10-25T10:43:02Z</time>
      </trkpt>
      <trkpt lat="48.54236" lon="2.13859">
        <ele>153.8</ele>
        <time>2025-10-25T10:43:04Z</time>
      </trkpt>
      <trkpt lat="48.54239" lon="2.13858">
        <ele>153.8</ele>
        <time>2025-10-25T10:43:06Z</time>
      </trkpt>
      <trkpt lat="48.54242" lon="2.13858">
        <ele>153.8</ele>
        <time>2025-10-25T10:43:08Z</time>
      </trkpt>
      <trkpt lat="48.54244" lon="2.13857">
        <ele>153.6</ele>
        <time>2025-10-25T10:43:10Z</time>
      </trkpt>
      <trkpt lat="48.54247" lon="2.13856">
        <ele>153.6</ele>
        <time>2025-10-25T10:43:12Z</time>
      </trkpt>
      <trkpt lat="48.5425" lon="2.13855">
        <ele>153.6</ele>
        <time>2025-10-25T10:43:14Z</time>
      </trkpt>
      <trkpt lat="48.54253" lon="2.13855">
        <ele>153.8</ele>
        <time>2025-10-25T10:43:16Z</time>
      </trkpt>
      <trkpt lat="48.54258" lon="2.13855">
        <ele>153.6</ele>
        <time>2025-10-25T10:43:19Z</time>
      </trkpt>
      <trkpt lat="48.5426" lon="2.13854">
        <ele>153.6</ele>
        <time>2025-10-25T10:43:22Z</time>
      </trkpt>
      <trkpt lat="48.54262" lon="2.13854">
        <ele>154</ele>
        <time>2025-10-25T10:43:27Z</time>
      </trkpt>
      <trkpt lat="48.54264" lon="2.13853">
        <ele>154</ele>
        <time>2025-10-25T10:43:29Z</time>
      </trkpt>
      <trkpt lat="48.54266" lon="2.13852">
        <ele>154.2</ele>
        <time>2025-10-25T10:43:31Z</time>
      </trkpt>
      <trkpt lat="48.54269" lon="2.13851">
        <ele>154.4</ele>
        <time>2025-10-25T10:43:33Z</time>
      </trkpt>
      <trkpt lat="48.54271" lon="2.13851">
        <ele>154.6</ele>
        <time>2025-10-25T10:43:35Z</time>
      </trkpt>
      <trkpt lat="48.54274" lon="2.1385">
        <ele>154.6</ele>
        <time>2025-10-25T10:43:37Z</time>
      </trkpt>
      <trkpt lat="48.54277" lon="2.1385">
        <ele>154.8</ele>
        <time>2025-10-25T10:43:39Z</time>
      </trkpt>
      <trkpt lat="48.54279" lon="2.13849">
        <ele>154.8</ele>
        <time>2025-10-25T10:43:41Z</time>
      </trkpt>
      <trkpt lat="48.54281" lon="2.13848">
        <ele>154.8</ele>
        <time>2025-10-25T10:43:43Z</time>
      </trkpt>
      <trkpt lat="48.54284" lon="2.13847">
        <ele>154.8</ele>
        <time>2025-10-25T10:43:45Z</time>
      </trkpt>
      <trkpt lat="48.54286" lon="2.13846">
        <ele>155</ele>
        <time>2025-10-25T10:43:47Z</time>
      </trkpt>
      <trkpt lat="48.54289" lon="2.13845">
        <ele>154.8</ele>
        <time>2025-10-25T10:43:49Z</time>
      </trkpt>
      <trkpt lat="48.54291" lon="2.13844">
        <ele>154.6</ele>
        <time>2025-10-25T10:43:51Z</time>
      </trkpt>
      <trkpt lat="48.54293" lon="2.13844">
        <ele>154.6</ele>
        <time>2025-10-25T10:43:53Z</time>
      </trkpt>
      <trkpt lat="48.54296" lon="2.13843">
        <ele>154.8</ele>
        <time>2025-10-25T10:43:55Z</time>
      </trkpt>
      <trkpt lat="48.54298" lon="2.13841">
        <ele>154.6</ele>
        <time>2025-10-25T10:43:57Z</time>
      </trkpt>
      <trkpt lat="48.54301" lon="2.1384">
        <ele>154.8</ele>
        <time>2025-10-25T10:43:59Z</time>
      </trkpt>
      <trkpt lat="48.54303" lon="2.13839">
        <ele>154.8</ele>
        <time>2025-10-25T10:44:01Z</time>
      </trkpt>
      <trkpt lat="48.54306" lon="2.13838">
        <ele>155</ele>
        <time>2025-10-25T10:44:03Z</time>
      </trkpt>
      <trkpt lat="48.54308" lon="2.13837">
        <ele>155</ele>
        <time>2025-10-25T10:44:05Z</time>
      </trkpt>
      <trkpt lat="48.54311" lon="2.13836">
        <ele>155</ele>
        <time>2025-10-25T10:44:07Z</time>
      </trkpt>
      <trkpt lat="48.54314" lon="2.13835">
        <ele>155.2</ele>
        <time>2025-10-25T10:44:09Z</time>
      </trkpt>
      <trkpt lat="48.54316" lon="2.13833">
        <ele>155</ele>
        <time>2025-10-25T10:44:11Z</time>
      </trkpt>
      <trkpt lat="48.54319" lon="2.13832">
        <ele>155</ele>
        <time>2025-10-25T10:44:13Z</time>
      </trkpt>
      <trkpt lat="48.54322" lon="2.1383">
        <ele>155</ele>
        <time>2025-10-25T10:44:15Z</time>
      </trkpt>
      <trkpt lat="48.54327" lon="2.13827">
        <ele>155</ele>
        <time>2025-10-25T10:44:21Z</time>
      </trkpt>
      <trkpt lat="48.5433" lon="2.13826">
        <ele>154.8</ele>
        <time>2025-10-25T10:44:31Z</time>
      </trkpt>
      <trkpt lat="48.54332" lon="2.13825">
        <ele>154.8</ele>
        <time>2025-10-25T10:44:33Z</time>
      </trkpt>
      <trkpt lat="48.54334" lon="2.13824">
        <ele>154.6</ele>
        <time>2025-10-25T10:44:35Z</time>
      </trkpt>
      <trkpt lat="48.54337" lon="2.13823">
        <ele>154.6</ele>
        <time>2025-10-25T10:44:37Z</time>
      </trkpt>
      <trkpt lat="48.5434" lon="2.13821">
        <ele>154.4</ele>
        <time>2025-10-25T10:44:39Z</time>
      </trkpt>
      <trkpt lat="48.54342" lon="2.1382">
        <ele>154.2</ele>
        <time>2025-10-25T10:44:41Z</time>
      </trkpt>
      <trkpt lat="48.54345" lon="2.13818">
        <ele>154.2</ele>
        <time>2025-10-25T10:44:43Z</time>
      </trkpt>
      <trkpt lat="48.54348" lon="2.13817">
        <ele>154.2</ele>
        <time>2025-10-25T10:44:45Z</time>
      </trkpt>
      <trkpt lat="48.5435" lon="2.13815">
        <ele>154</ele>
        <time>2025-10-25T10:44:47Z</time>
      </trkpt>
      <trkpt lat="48.54353" lon="2.13813">
        <ele>154</ele>
        <time>2025-10-25T10:44:49Z</time>
      </trkpt>
      <trkpt lat="48.54355" lon="2.13811">
        <ele>153.8</ele>
        <time>2025-10-25T10:44:51Z</time>
      </trkpt>
      <trkpt lat="48.54358" lon="2.1381">
        <ele>153.8</ele>
        <time>2025-10-25T10:44:53Z</time>
      </trkpt>
      <trkpt lat="48.5436" lon="2.13809">
        <ele>153.6</ele>
        <time>2025-10-25T10:44:55Z</time>
      </trkpt>
      <trkpt lat="48.54363" lon="2.13807">
        <ele>153.6</ele>
        <time>2025-10-25T10:44:57Z</time>
      </trkpt>
      <trkpt lat="48.54365" lon="2.13806">
        <ele>153.6</ele>
        <time>2025-10-25T10:44:59Z</time>
      </trkpt>
      <trkpt lat="48.54367" lon="2.13804">
        <ele>153.6</ele>
        <time>2025-10-25T10:45:01Z</time>
      </trkpt>
      <trkpt lat="48.5437" lon="2.13803">
        <ele>153.6</ele>
        <time>2025-10-25T10:45:03Z</time>
      </trkpt>
      <trkpt lat="48.54372" lon="2.13802">
        <ele>153.8</ele>
        <time>2025-10-25T10:45:05Z</time>
      </trkpt>
      <trkpt lat="48.54375" lon="2.13801">
        <ele>153.8</ele>
        <time>2025-10-25T10:45:07Z</time>
      </trkpt>
      <trkpt lat="48.54378" lon="2.13801">
        <ele>153.8</ele>
        <time>2025-10-25T10:45:09Z</time>
      </trkpt>
      <trkpt lat="48.5438" lon="2.138">
        <ele>154.2</ele>
        <time>2025-10-25T10:45:11Z</time>
      </trkpt>
      <trkpt lat="48.54381" lon="2.13799">
        <ele>154.4</ele>
        <time>2025-10-25T10:45:13Z</time>
      </trkpt>
      <trkpt lat="48.54384" lon="2.13798">
        <ele>154.6</ele>
        <time>2025-10-25T10:45:15Z</time>
      </trkpt>
      <trkpt lat="48.54387" lon="2.13797">
        <ele>155</ele>
        <time>2025-10-25T10:45:17Z</time>
      </trkpt>
      <trkpt lat="48.5439" lon="2.13796">
        <ele>155.4</ele>
        <time>2025-10-25T10:45:19Z</time>
      </trkpt>
      <trkpt lat="48.54393" lon="2.13796">
        <ele>155.6</ele>
        <time>2025-10-25T10:45:21Z</time>
      </trkpt>
      <trkpt lat="48.54395" lon="2.13796">
        <ele>155.8</ele>
        <time>2025-10-25T10:45:22Z</time>
      </trkpt>
      <trkpt lat="48.54397" lon="2.13796">
        <ele>156</ele>
        <time>2025-10-25T10:45:24Z</time>
      </trkpt>
      <trkpt lat="48.544" lon="2.13797">
        <ele>156</ele>
        <time>2025-10-25T10:45:26Z</time>
      </trkpt>
      <trkpt lat="48.54403" lon="2.13797">
        <ele>156.2</ele>
        <time>2025-10-25T10:45:28Z</time>
      </trkpt>
      <trkpt lat="48.54405" lon="2.13798">
        <ele>156.2</ele>
        <time>2025-10-25T10:45:30Z</time>
      </trkpt>
      <trkpt lat="48.54407" lon="2.13799">
        <ele>156.2</ele>
        <time>2025-10-25T10:45:32Z</time>
      </trkpt>
      <trkpt lat="48.54409" lon="2.13799">
        <ele>156.2</ele>
        <time>2025-10-25T10:45:34Z</time>
      </trkpt>
      <trkpt lat="48.54411" lon="2.13799">
        <ele>156.2</ele>
        <time>2025-10-25T10:45:36Z</time>
      </trkpt>
      <trkpt lat="48.54414" lon="2.13798">
        <ele>156.2</ele>
        <time>2025-10-25T10:45:39Z</time>
      </trkpt>
      <trkpt lat="48.54416" lon="2.13798">
        <ele>156.2</ele>
        <time>2025-10-25T10:45:42Z</time>
      </trkpt>
      <trkpt lat="48.54418" lon="2.13795">
        <ele>156</ele>
        <time>2025-10-25T10:45:49Z</time>
      </trkpt>
      <trkpt lat="48.54419" lon="2.13793">
        <ele>155.8</ele>
        <time>2025-10-25T10:45:52Z</time>
      </trkpt>
      <trkpt lat="48.5442" lon="2.1379">
        <ele>155.8</ele>
        <time>2025-10-25T10:45:54Z</time>
      </trkpt>
      <trkpt lat="48.54421" lon="2.13786">
        <ele>156</ele>
        <time>2025-10-25T10:45:56Z</time>
      </trkpt>
      <trkpt lat="48.54422" lon="2.13782">
        <ele>156</ele>
        <time>2025-10-25T10:45:58Z</time>
      </trkpt>
      <trkpt lat="48.54423" lon="2.13778">
        <ele>156</ele>
        <time>2025-10-25T10:46:00Z</time>
      </trkpt>
      <trkpt lat="48.54424" lon="2.13775">
        <ele>156</ele>
        <time>2025-10-25T10:46:02Z</time>
      </trkpt>
      <trkpt lat="48.54424" lon="2.13772">
        <ele>156.2</ele>
        <time>2025-10-25T10:46:04Z</time>
      </trkpt>
      <trkpt lat="48.54426" lon="2.13769">
        <ele>156</ele>
        <time>2025-10-25T10:46:06Z</time>
      </trkpt>
      <trkpt lat="48.54427" lon="2.13766">
        <ele>156</ele>
        <time>2025-10-25T10:46:08Z</time>
      </trkpt>
      <trkpt lat="48.54427" lon="2.13762">
        <ele>155.8</ele>
        <time>2025-10-25T10:46:10Z</time>
      </trkpt>
      <trkpt lat="48.54428" lon="2.13757">
        <ele>155.8</ele>
        <time>2025-10-25T10:46:12Z</time>
      </trkpt>
      <trkpt lat="48.54428" lon="2.13752">
        <ele>155.4</ele>
        <time>2025-10-25T10:46:14Z</time>
      </trkpt>
      <trkpt lat="48.54429" lon="2.13748">
        <ele>155.2</ele>
        <time>2025-10-25T10:46:16Z</time>
      </trkpt>
      <trkpt lat="48.5443" lon="2.13744">
        <ele>155</ele>
        <time>2025-10-25T10:46:18Z</time>
      </trkpt>
      <trkpt lat="48.54431" lon="2.1374">
        <ele>154.8</ele>
        <time>2025-10-25T10:46:20Z</time>
      </trkpt>
      <trkpt lat="48.54432" lon="2.13737">
        <ele>154.6</ele>
        <time>2025-10-25T10:46:22Z</time>
      </trkpt>
      <trkpt lat="48.54432" lon="2.13733">
        <ele>154.4</ele>
        <time>2025-10-25T10:46:24Z</time>
      </trkpt>
      <trkpt lat="48.54432" lon="2.1373">
        <ele>154.2</ele>
        <time>2025-10-25T10:46:26Z</time>
      </trkpt>
      <trkpt lat="48.54432" lon="2.13727">
        <ele>153.8</ele>
        <time>2025-10-25T10:46:30Z</time>
      </trkpt>
      <trkpt lat="48.54432" lon="2.13723">
        <ele>153.4</ele>
        <time>2025-10-25T10:46:33Z</time>
      </trkpt>
      <trkpt lat="48.54432" lon="2.13719">
        <ele>153.2</ele>
        <time>2025-10-25T10:46:35Z</time>
      </trkpt>
      <trkpt lat="48.54432" lon="2.13715">
        <ele>153.2</ele>
        <time>2025-10-25T10:46:37Z</time>
      </trkpt>
      <trkpt lat="48.54433" lon="2.13712">
        <ele>153</ele>
        <time>2025-10-25T10:46:39Z</time>
      </trkpt>
      <trkpt lat="48.54434" lon="2.13708">
        <ele>153</ele>
        <time>2025-10-25T10:46:41Z</time>
      </trkpt>
      <trkpt lat="48.54436" lon="2.13705">
        <ele>152.8</ele>
        <time>2025-10-25T10:46:43Z</time>
      </trkpt>
      <trkpt lat="48.54437" lon="2.13701">
        <ele>152.6</ele>
        <time>2025-10-25T10:46:45Z</time>
      </trkpt>
      <trkpt lat="48.54439" lon="2.13697">
        <ele>152.6</ele>
        <time>2025-10-25T10:46:47Z</time>
      </trkpt>
      <trkpt lat="48.5444" lon="2.13695">
        <ele>152.6</ele>
        <time>2025-10-25T10:46:49Z</time>
      </trkpt>
      <trkpt lat="48.54442" lon="2.13693">
        <ele>152.4</ele>
        <time>2025-10-25T10:46:52Z</time>
      </trkpt>
      <trkpt lat="48.54444" lon="2.13691">
        <ele>152.4</ele>
        <time>2025-10-25T10:46:59Z</time>
      </trkpt>
      <trkpt lat="48.54446" lon="2.1369">
        <ele>152.4</ele>
        <time>2025-10-25T10:47:01Z</time>
      </trkpt>
      <trkpt lat="48.5445" lon="2.13688">
        <ele>152.2</ele>
        <time>2025-10-25T10:47:03Z</time>
      </trkpt>
      <trkpt lat="48.54452" lon="2.13687">
        <ele>152.2</ele>
        <time>2025-10-25T10:47:04Z</time>
      </trkpt>
      <trkpt lat="48.54455" lon="2.13685">
        <ele>152</ele>
        <time>2025-10-25T10:47:06Z</time>
      </trkpt>
      <trkpt lat="48.54457" lon="2.13684">
        <ele>152</ele>
        <time>2025-10-25T10:47:08Z</time>
      </trkpt>
      <trkpt lat="48.54459" lon="2.13683">
        <ele>151.8</ele>
        <time>2025-10-25T10:47:10Z</time>
      </trkpt>
      <trkpt lat="48.54461" lon="2.13683">
        <ele>151.6</ele>
        <time>2025-10-25T10:47:12Z</time>
      </trkpt>
      <trkpt lat="48.54464" lon="2.13683">
        <ele>151.4</ele>
        <time>2025-10-25T10:47:14Z</time>
      </trkpt>
      <trkpt lat="48.54466" lon="2.13682">
        <ele>151</ele>
        <time>2025-10-25T10:47:16Z</time>
      </trkpt>
      <trkpt lat="48.54468" lon="2.13682">
        <ele>151</ele>
        <time>2025-10-25T10:47:18Z</time>
      </trkpt>
      <trkpt lat="48.5447" lon="2.1368">
        <ele>150.6</ele>
        <time>2025-10-25T10:47:21Z</time>
      </trkpt>
      <trkpt lat="48.54472" lon="2.13679">
        <ele>150</ele>
        <time>2025-10-25T10:47:23Z</time>
      </trkpt>
      <trkpt lat="48.54474" lon="2.13676">
        <ele>149.6</ele>
        <time>2025-10-25T10:47:25Z</time>
      </trkpt>
      <trkpt lat="48.54476" lon="2.13674">
        <ele>149.2</ele>
        <time>2025-10-25T10:47:27Z</time>
      </trkpt>
      <trkpt lat="48.54479" lon="2.13672">
        <ele>148.8</ele>
        <time>2025-10-25T10:47:29Z</time>
      </trkpt>
      <trkpt lat="48.54482" lon="2.13671">
        <ele>148.6</ele>
        <time>2025-10-25T10:47:31Z</time>
      </trkpt>
      <trkpt lat="48.54484" lon="2.1367">
        <ele>148.4</ele>
        <time>2025-10-25T10:47:33Z</time>
      </trkpt>
      <trkpt lat="48.54486" lon="2.13668">
        <ele>148</ele>
        <time>2025-10-25T10:47:35Z</time>
      </trkpt>
      <trkpt lat="48.54487" lon="2.13667">
        <ele>147.6</ele>
        <time>2025-10-25T10:47:37Z</time>
      </trkpt>
      <trkpt lat="48.54489" lon="2.13665">
        <ele>147.4</ele>
        <time>2025-10-25T10:47:39Z</time>
      </trkpt>
      <trkpt lat="48.5449" lon="2.13663">
        <ele>147</ele>
        <time>2025-10-25T10:47:41Z</time>
      </trkpt>
      <trkpt lat="48.54492" lon="2.13661">
        <ele>146.6</ele>
        <time>2025-10-25T10:47:44Z</time>
      </trkpt>
      <trkpt lat="48.54494" lon="2.13659">
        <ele>146.4</ele>
        <time>2025-10-25T10:47:46Z</time>
      </trkpt>
      <trkpt lat="48.54496" lon="2.13658">
        <ele>146.2</ele>
        <time>2025-10-25T10:47:48Z</time>
      </trkpt>
      <trkpt lat="48.54498" lon="2.13657">
        <ele>145.8</ele>
        <time>2025-10-25T10:47:50Z</time>
      </trkpt>
      <trkpt lat="48.545" lon="2.13655">
        <ele>145.6</ele>
        <time>2025-10-25T10:47:52Z</time>
      </trkpt>
      <trkpt lat="48.54501" lon="2.13654">
        <ele>145.2</ele>
        <time>2025-10-25T10:47:54Z</time>
      </trkpt>
      <trkpt lat="48.54504" lon="2.13652">
        <ele>144.8</ele>
        <time>2025-10-25T10:47:56Z</time>
      </trkpt>
      <trkpt lat="48.54506" lon="2.1365">
        <ele>144.4</ele>
        <time>2025-10-25T10:47:58Z</time>
      </trkpt>
      <trkpt lat="48.54508" lon="2.13648">
        <ele>144</ele>
        <time>2025-10-25T10:48:00Z</time>
      </trkpt>
      <trkpt lat="48.5451" lon="2.13647">
        <ele>143.6</ele>
        <time>2025-10-25T10:48:02Z</time>
      </trkpt>
      <trkpt lat="48.54512" lon="2.13645">
        <ele>143.2</ele>
        <time>2025-10-25T10:48:04Z</time>
      </trkpt>
      <trkpt lat="48.54515" lon="2.13643">
        <ele>142.6</ele>
        <time>2025-10-25T10:48:06Z</time>
      </trkpt>
      <trkpt lat="48.54517" lon="2.1364">
        <ele>142.2</ele>
        <time>2025-10-25T10:48:08Z</time>
      </trkpt>
      <trkpt lat="48.54519" lon="2.13637">
        <ele>141.8</ele>
        <time>2025-10-25T10:48:10Z</time>
      </trkpt>
      <trkpt lat="48.5452" lon="2.13634">
        <ele>141.2</ele>
        <time>2025-10-25T10:48:12Z</time>
      </trkpt>
      <trkpt lat="48.54522" lon="2.13631">
        <ele>141</ele>
        <time>2025-10-25T10:48:14Z</time>
      </trkpt>
      <trkpt lat="48.54524" lon="2.13628">
        <ele>140.6</ele>
        <time>2025-10-25T10:48:16Z</time>
      </trkpt>
      <trkpt lat="48.54524" lon="2.13625">
        <ele>140.2</ele>
        <time>2025-10-25T10:48:18Z</time>
      </trkpt>
      <trkpt lat="48.54526" lon="2.13622">
        <ele>140.2</ele>
        <time>2025-10-25T10:48:20Z</time>
      </trkpt>
      <trkpt lat="48.54527" lon="2.13619">
        <ele>140</ele>
        <time>2025-10-25T10:48:22Z</time>
      </trkpt>
      <trkpt lat="48.54528" lon="2.13617">
        <ele>139.8</ele>
        <time>2025-10-25T10:48:24Z</time>
      </trkpt>
      <trkpt lat="48.5453" lon="2.13615">
        <ele>139.6</ele>
        <time>2025-10-25T10:48:26Z</time>
      </trkpt>
      <trkpt lat="48.54532" lon="2.13613">
        <ele>139.6</ele>
        <time>2025-10-25T10:48:28Z</time>
      </trkpt>
      <trkpt lat="48.54532" lon="2.1361">
        <ele>139.4</ele>
        <time>2025-10-25T10:48:30Z</time>
      </trkpt>
      <trkpt lat="48.54532" lon="2.13607">
        <ele>139.4</ele>
        <time>2025-10-25T10:48:32Z</time>
      </trkpt>
      <trkpt lat="48.54533" lon="2.13603">
        <ele>139.2</ele>
        <time>2025-10-25T10:48:34Z</time>
      </trkpt>
      <trkpt lat="48.54533" lon="2.136">
        <ele>139.2</ele>
        <time>2025-10-25T10:48:36Z</time>
      </trkpt>
      <trkpt lat="48.54532" lon="2.13597">
        <ele>139</ele>
        <time>2025-10-25T10:48:38Z</time>
      </trkpt>
      <trkpt lat="48.54532" lon="2.13594">
        <ele>138.8</ele>
        <time>2025-10-25T10:48:41Z</time>
      </trkpt>
      <trkpt lat="48.54532" lon="2.13591">
        <ele>138.6</ele>
        <time>2025-10-25T10:48:43Z</time>
      </trkpt>
      <trkpt lat="48.54532" lon="2.13588">
        <ele>138.4</ele>
        <time>2025-10-25T10:48:45Z</time>
      </trkpt>
      <trkpt lat="48.54533" lon="2.13584">
        <ele>138.2</ele>
        <time>2025-10-25T10:48:47Z</time>
      </trkpt>
      <trkpt lat="48.54533" lon="2.13581">
        <ele>137.8</ele>
        <time>2025-10-25T10:48:49Z</time>
      </trkpt>
      <trkpt lat="48.54533" lon="2.13576">
        <ele>137.4</ele>
        <time>2025-10-25T10:48:51Z</time>
      </trkpt>
      <trkpt lat="48.54534" lon="2.13572">
        <ele>137</ele>
        <time>2025-10-25T10:48:53Z</time>
      </trkpt>
      <trkpt lat="48.54534" lon="2.13567">
        <ele>136.8</ele>
        <time>2025-10-25T10:48:55Z</time>
      </trkpt>
      <trkpt lat="48.54534" lon="2.13563">
        <ele>136.4</ele>
        <time>2025-10-25T10:48:57Z</time>
      </trkpt>
      <trkpt lat="48.54536" lon="2.1356">
        <ele>135.8</ele>
        <time>2025-10-25T10:48:59Z</time>
      </trkpt>
      <trkpt lat="48.54537" lon="2.13556">
        <ele>135.4</ele>
        <time>2025-10-25T10:49:01Z</time>
      </trkpt>
      <trkpt lat="48.54539" lon="2.13553">
        <ele>134.8</ele>
        <time>2025-10-25T10:49:03Z</time>
      </trkpt>
      <trkpt lat="48.5454" lon="2.1355">
        <ele>134.4</ele>
        <time>2025-10-25T10:49:05Z</time>
      </trkpt>
      <trkpt lat="48.54541" lon="2.13546">
        <ele>134</ele>
        <time>2025-10-25T10:49:07Z</time>
      </trkpt>
      <trkpt lat="48.54543" lon="2.13543">
        <ele>133.6</ele>
        <time>2025-10-25T10:49:09Z</time>
      </trkpt>
      <trkpt lat="48.54544" lon="2.1354">
        <ele>133.2</ele>
        <time>2025-10-25T10:49:11Z</time>
      </trkpt>
      <trkpt lat="48.54546" lon="2.13536">
        <ele>132.8</ele>
        <time>2025-10-25T10:49:13Z</time>
      </trkpt>
      <trkpt lat="48.54548" lon="2.13533">
        <ele>132.4</ele>
        <time>2025-10-25T10:49:15Z</time>
      </trkpt>
      <trkpt lat="48.54549" lon="2.13528">
        <ele>132.2</ele>
        <time>2025-10-25T10:49:17Z</time>
      </trkpt>
      <trkpt lat="48.5455" lon="2.13525">
        <ele>132</ele>
        <time>2025-10-25T10:49:19Z</time>
      </trkpt>
      <trkpt lat="48.54551" lon="2.13521">
        <ele>131.8</ele>
        <time>2025-10-25T10:49:21Z</time>
      </trkpt>
      <trkpt lat="48.54552" lon="2.13519">
        <ele>131.4</ele>
        <time>2025-10-25T10:49:23Z</time>
      </trkpt>
      <trkpt lat="48.54554" lon="2.13516">
        <ele>131.2</ele>
        <time>2025-10-25T10:49:25Z</time>
      </trkpt>
      <trkpt lat="48.54556" lon="2.13514">
        <ele>130.8</ele>
        <time>2025-10-25T10:49:27Z</time>
      </trkpt>
      <trkpt lat="48.54557" lon="2.13512">
        <ele>130.4</ele>
        <time>2025-10-25T10:49:29Z</time>
      </trkpt>
      <trkpt lat="48.54558" lon="2.13509">
        <ele>130</ele>
        <time>2025-10-25T10:49:31Z</time>
      </trkpt>
      <trkpt lat="48.5456" lon="2.13505">
        <ele>129.6</ele>
        <time>2025-10-25T10:49:33Z</time>
      </trkpt>
      <trkpt lat="48.54561" lon="2.13502">
        <ele>129.4</ele>
        <time>2025-10-25T10:49:35Z</time>
      </trkpt>
      <trkpt lat="48.54563" lon="2.13499">
        <ele>129</ele>
        <time>2025-10-25T10:49:37Z</time>
      </trkpt>
      <trkpt lat="48.54565" lon="2.13495">
        <ele>128.8</ele>
        <time>2025-10-25T10:49:39Z</time>
      </trkpt>
      <trkpt lat="48.54567" lon="2.13492">
        <ele>128.8</ele>
        <time>2025-10-25T10:49:41Z</time>
      </trkpt>
      <trkpt lat="48.54568" lon="2.13488">
        <ele>128.6</ele>
        <time>2025-10-25T10:49:43Z</time>
      </trkpt>
      <trkpt lat="48.5457" lon="2.13485">
        <ele>128.4</ele>
        <time>2025-10-25T10:49:45Z</time>
      </trkpt>
      <trkpt lat="48.54572" lon="2.13482">
        <ele>128</ele>
        <time>2025-10-25T10:49:47Z</time>
      </trkpt>
      <trkpt lat="48.54573" lon="2.13479">
        <ele>127.6</ele>
        <time>2025-10-25T10:49:49Z</time>
      </trkpt>
      <trkpt lat="48.54575" lon="2.13476">
        <ele>127.2</ele>
        <time>2025-10-25T10:49:51Z</time>
      </trkpt>
      <trkpt lat="48.54576" lon="2.13474">
        <ele>126.8</ele>
        <time>2025-10-25T10:49:53Z</time>
      </trkpt>
      <trkpt lat="48.54578" lon="2.1347">
        <ele>126.2</ele>
        <time>2025-10-25T10:49:55Z</time>
      </trkpt>
      <trkpt lat="48.54579" lon="2.13467">
        <ele>125.6</ele>
        <time>2025-10-25T10:49:57Z</time>
      </trkpt>
      <trkpt lat="48.5458" lon="2.13464">
        <ele>125.4</ele>
        <time>2025-10-25T10:49:59Z</time>
      </trkpt>
      <trkpt lat="48.54581" lon="2.1346">
        <ele>125</ele>
        <time>2025-10-25T10:50:01Z</time>
      </trkpt>
      <trkpt lat="48.54582" lon="2.13457">
        <ele>124.6</ele>
        <time>2025-10-25T10:50:03Z</time>
      </trkpt>
      <trkpt lat="48.54583" lon="2.13453">
        <ele>124.2</ele>
        <time>2025-10-25T10:50:05Z</time>
      </trkpt>
      <trkpt lat="48.54585" lon="2.1345">
        <ele>123.8</ele>
        <time>2025-10-25T10:50:07Z</time>
      </trkpt>
      <trkpt lat="48.54586" lon="2.13447">
        <ele>123.4</ele>
        <time>2025-10-25T10:50:09Z</time>
      </trkpt>
      <trkpt lat="48.54588" lon="2.13444">
        <ele>123</ele>
        <time>2025-10-25T10:50:11Z</time>
      </trkpt>
      <trkpt lat="48.54589" lon="2.1344">
        <ele>122.6</ele>
        <time>2025-10-25T10:50:13Z</time>
      </trkpt>
      <trkpt lat="48.54589" lon="2.13436">
        <ele>122.4</ele>
        <time>2025-10-25T10:50:15Z</time>
      </trkpt>
      <trkpt lat="48.54591" lon="2.13431">
        <ele>122</ele>
        <time>2025-10-25T10:50:17Z</time>
      </trkpt>
      <trkpt lat="48.54593" lon="2.13427">
        <ele>121.6</ele>
        <time>2025-10-25T10:50:19Z</time>
      </trkpt>
      <trkpt lat="48.54595" lon="2.13423">
        <ele>121.2</ele>
        <time>2025-10-25T10:50:21Z</time>
      </trkpt>
      <trkpt lat="48.54596" lon="2.13419">
        <ele>121</ele>
        <time>2025-10-25T10:50:23Z</time>
      </trkpt>
      <trkpt lat="48.54598" lon="2.13416">
        <ele>120.4</ele>
        <time>2025-10-25T10:50:25Z</time>
      </trkpt>
      <trkpt lat="48.546" lon="2.13412">
        <ele>120</ele>
        <time>2025-10-25T10:50:27Z</time>
      </trkpt>
      <trkpt lat="48.54601" lon="2.1341">
        <ele>119.8</ele>
        <time>2025-10-25T10:50:28Z</time>
      </trkpt>
      <trkpt lat="48.54603" lon="2.13406">
        <ele>119.4</ele>
        <time>2025-10-25T10:50:30Z</time>
      </trkpt>
      <trkpt lat="48.54605" lon="2.13404">
        <ele>118.8</ele>
        <time>2025-10-25T10:50:32Z</time>
      </trkpt>
      <trkpt lat="48.54607" lon="2.13403">
        <ele>118.4</ele>
        <time>2025-10-25T10:50:34Z</time>
      </trkpt>
      <trkpt lat="48.54609" lon="2.13401">
        <ele>118</ele>
        <time>2025-10-25T10:50:36Z</time>
      </trkpt>
      <trkpt lat="48.54612" lon="2.13399">
        <ele>117.6</ele>
        <time>2025-10-25T10:50:38Z</time>
      </trkpt>
      <trkpt lat="48.54613" lon="2.13398">
        <ele>117.4</ele>
        <time>2025-10-25T10:50:39Z</time>
      </trkpt>
      <trkpt lat="48.54616" lon="2.13397">
        <ele>117</ele>
        <time>2025-10-25T10:50:40Z</time>
      </trkpt>
      <trkpt lat="48.54618" lon="2.13396">
        <ele>116.8</ele>
        <time>2025-10-25T10:50:41Z</time>
      </trkpt>
      <trkpt lat="48.5462" lon="2.13395">
        <ele>116.6</ele>
        <time>2025-10-25T10:50:42Z</time>
      </trkpt>
      <trkpt lat="48.54621" lon="2.13395">
        <ele>116.4</ele>
        <time>2025-10-25T10:50:43Z</time>
      </trkpt>
      <trkpt lat="48.54625" lon="2.13392">
        <ele>116</ele>
        <time>2025-10-25T10:50:45Z</time>
      </trkpt>
      <trkpt lat="48.54627" lon="2.1339">
        <ele>115.6</ele>
        <time>2025-10-25T10:50:47Z</time>
      </trkpt>
      <trkpt lat="48.54629" lon="2.13389">
        <ele>115.2</ele>
        <time>2025-10-25T10:50:49Z</time>
      </trkpt>
      <trkpt lat="48.54631" lon="2.13387">
        <ele>115</ele>
        <time>2025-10-25T10:50:51Z</time>
      </trkpt>
      <trkpt lat="48.54634" lon="2.13385">
        <ele>114.4</ele>
        <time>2025-10-25T10:50:53Z</time>
      </trkpt>
      <trkpt lat="48.54635" lon="2.13383">
        <ele>114.2</ele>
        <time>2025-10-25T10:50:54Z</time>
      </trkpt>
      <trkpt lat="48.54637" lon="2.13382">
        <ele>114</ele>
        <time>2025-10-25T10:50:55Z</time>
      </trkpt>
      <trkpt lat="48.5464" lon="2.1338">
        <ele>113.6</ele>
        <time>2025-10-25T10:50:57Z</time>
      </trkpt>
      <trkpt lat="48.54643" lon="2.13378">
        <ele>113.4</ele>
        <time>2025-10-25T10:50:59Z</time>
      </trkpt>
      <trkpt lat="48.54645" lon="2.13376">
        <ele>113.4</ele>
        <time>2025-10-25T10:51:01Z</time>
      </trkpt>
      <trkpt lat="48.54647" lon="2.13375">
        <ele>113.4</ele>
        <time>2025-10-25T10:51:03Z</time>
      </trkpt>
      <trkpt lat="48.5465" lon="2.13373">
        <ele>113</ele>
        <time>2025-10-25T10:51:05Z</time>
      </trkpt>
      <trkpt lat="48.54653" lon="2.13371">
        <ele>112.6</ele>
        <time>2025-10-25T10:51:07Z</time>
      </trkpt>
      <trkpt lat="48.54655" lon="2.1337">
        <ele>112.2</ele>
        <time>2025-10-25T10:51:09Z</time>
      </trkpt>
      <trkpt lat="48.54658" lon="2.13368">
        <ele>111.6</ele>
        <time>2025-10-25T10:51:11Z</time>
      </trkpt>
      <trkpt lat="48.5466" lon="2.13366">
        <ele>111.2</ele>
        <time>2025-10-25T10:51:13Z</time>
      </trkpt>
      <trkpt lat="48.54661" lon="2.13364">
        <ele>110.6</ele>
        <time>2025-10-25T10:51:15Z</time>
      </trkpt>
      <trkpt lat="48.54664" lon="2.13361">
        <ele>110.2</ele>
        <time>2025-10-25T10:51:17Z</time>
      </trkpt>
      <trkpt lat="48.54666" lon="2.13358">
        <ele>110</ele>
        <time>2025-10-25T10:51:19Z</time>
      </trkpt>
      <trkpt lat="48.54669" lon="2.13355">
        <ele>109.6</ele>
        <time>2025-10-25T10:51:21Z</time>
      </trkpt>
      <trkpt lat="48.54671" lon="2.13353">
        <ele>109.4</ele>
        <time>2025-10-25T10:51:23Z</time>
      </trkpt>
      <trkpt lat="48.54674" lon="2.13351">
        <ele>109</ele>
        <time>2025-10-25T10:51:25Z</time>
      </trkpt>
      <trkpt lat="48.54676" lon="2.13348">
        <ele>108.6</ele>
        <time>2025-10-25T10:51:27Z</time>
      </trkpt>
      <trkpt lat="48.54679" lon="2.13345">
        <ele>108.2</ele>
        <time>2025-10-25T10:51:29Z</time>
      </trkpt>
      <trkpt lat="48.54682" lon="2.13342">
        <ele>107.6</ele>
        <time>2025-10-25T10:51:31Z</time>
      </trkpt>
      <trkpt lat="48.54684" lon="2.13339">
        <ele>107.2</ele>
        <time>2025-10-25T10:51:33Z</time>
      </trkpt>
      <trkpt lat="48.54686" lon="2.13336">
        <ele>106.6</ele>
        <time>2025-10-25T10:51:35Z</time>
      </trkpt>
      <trkpt lat="48.54688" lon="2.13334">
        <ele>106.2</ele>
        <time>2025-10-25T10:51:37Z</time>
      </trkpt>
      <trkpt lat="48.5469" lon="2.13331">
        <ele>106</ele>
        <time>2025-10-25T10:51:39Z</time>
      </trkpt>
      <trkpt lat="48.54692" lon="2.13329">
        <ele>105.6</ele>
        <time>2025-10-25T10:51:41Z</time>
      </trkpt>
      <trkpt lat="48.54693" lon="2.13326">
        <ele>105.2</ele>
        <time>2025-10-25T10:51:43Z</time>
      </trkpt>
      <trkpt lat="48.54694" lon="2.13324">
        <ele>105</ele>
        <time>2025-10-25T10:51:45Z</time>
      </trkpt>
      <trkpt lat="48.54695" lon="2.13321">
        <ele>104.6</ele>
        <time>2025-10-25T10:51:47Z</time>
      </trkpt>
      <trkpt lat="48.54697" lon="2.13318">
        <ele>104.2</ele>
        <time>2025-10-25T10:51:49Z</time>
      </trkpt>
      <trkpt lat="48.54698" lon="2.13316">
        <ele>104</ele>
        <time>2025-10-25T10:51:51Z</time>
      </trkpt>
      <trkpt lat="48.547" lon="2.13313">
        <ele>103.6</ele>
        <time>2025-10-25T10:51:53Z</time>
      </trkpt>
      <trkpt lat="48.54702" lon="2.1331">
        <ele>103.4</ele>
        <time>2025-10-25T10:51:55Z</time>
      </trkpt>
      <trkpt lat="48.54704" lon="2.13308">
        <ele>103.2</ele>
        <time>2025-10-25T10:51:57Z</time>
      </trkpt>
      <trkpt lat="48.54706" lon="2.13306">
        <ele>103</ele>
        <time>2025-10-25T10:51:59Z</time>
      </trkpt>
      <trkpt lat="48.54708" lon="2.13303">
        <ele>102.8</ele>
        <time>2025-10-25T10:52:01Z</time>
      </trkpt>
      <trkpt lat="48.5471" lon="2.13301">
        <ele>102.4</ele>
        <time>2025-10-25T10:52:03Z</time>
      </trkpt>
      <trkpt lat="48.54712" lon="2.13298">
        <ele>102.2</ele>
        <time>2025-10-25T10:52:05Z</time>
      </trkpt>
      <trkpt lat="48.54715" lon="2.13296">
        <ele>101.8</ele>
        <time>2025-10-25T10:52:07Z</time>
      </trkpt>
      <trkpt lat="48.54717" lon="2.13293">
        <ele>101.2</ele>
        <time>2025-10-25T10:52:09Z</time>
      </trkpt>
      <trkpt lat="48.5472" lon="2.13291">
        <ele>101</ele>
        <time>2025-10-25T10:52:11Z</time>
      </trkpt>
      <trkpt lat="48.54722" lon="2.13289">
        <ele>100.6</ele>
        <time>2025-10-25T10:52:13Z</time>
      </trkpt>
      <trkpt lat="48.54725" lon="2.13288">
        <ele>100.4</ele>
        <time>2025-10-25T10:52:15Z</time>
      </trkpt>
      <trkpt lat="48.54727" lon="2.13287">
        <ele>100.2</ele>
        <time>2025-10-25T10:52:17Z</time>
      </trkpt>
      <trkpt lat="48.5473" lon="2.13286">
        <ele>100</ele>
        <time>2025-10-25T10:52:19Z</time>
      </trkpt>
      <trkpt lat="48.54732" lon="2.13284">
        <ele>99.8</ele>
        <time>2025-10-25T10:52:21Z</time>
      </trkpt>
      <trkpt lat="48.54735" lon="2.13283">
        <ele>99.4</ele>
        <time>2025-10-25T10:52:23Z</time>
      </trkpt>
      <trkpt lat="48.54738" lon="2.13281">
        <ele>99.2</ele>
        <time>2025-10-25T10:52:25Z</time>
      </trkpt>
      <trkpt lat="48.54741" lon="2.1328">
        <ele>99</ele>
        <time>2025-10-25T10:52:27Z</time>
      </trkpt>
      <trkpt lat="48.54743" lon="2.13278">
        <ele>99</ele>
        <time>2025-10-25T10:52:29Z</time>
      </trkpt>
      <trkpt lat="48.54746" lon="2.13276">
        <ele>98.6</ele>
        <time>2025-10-25T10:52:31Z</time>
      </trkpt>
      <trkpt lat="48.54748" lon="2.13275">
        <ele>98.4</ele>
        <time>2025-10-25T10:52:33Z</time>
      </trkpt>
      <trkpt lat="48.5475" lon="2.13274">
        <ele>98.2</ele>
        <time>2025-10-25T10:52:35Z</time>
      </trkpt>
      <trkpt lat="48.54753" lon="2.13272">
        <ele>97.8</ele>
        <time>2025-10-25T10:52:37Z</time>
      </trkpt>
      <trkpt lat="48.54756" lon="2.1327">
        <ele>97.6</ele>
        <time>2025-10-25T10:52:39Z</time>
      </trkpt>
      <trkpt lat="48.54758" lon="2.13268">
        <ele>97.2</ele>
        <time>2025-10-25T10:52:41Z</time>
      </trkpt>
      <trkpt lat="48.54761" lon="2.13265">
        <ele>96.8</ele>
        <time>2025-10-25T10:52:43Z</time>
      </trkpt>
      <trkpt lat="48.54764" lon="2.13264">
        <ele>96.4</ele>
        <time>2025-10-25T10:52:45Z</time>
      </trkpt>
      <trkpt lat="48.54766" lon="2.13263">
        <ele>96</ele>
        <time>2025-10-25T10:52:47Z</time>
      </trkpt>
      <trkpt lat="48.54769" lon="2.13264">
        <ele>95.4</ele>
        <time>2025-10-25T10:52:49Z</time>
      </trkpt>
      <trkpt lat="48.54772" lon="2.13266">
        <ele>95.2</ele>
        <time>2025-10-25T10:52:51Z</time>
      </trkpt>
      <trkpt lat="48.54774" lon="2.13269">
        <ele>94.8</ele>
        <time>2025-10-25T10:52:53Z</time>
      </trkpt>
      <trkpt lat="48.54776" lon="2.13272">
        <ele>94.4</ele>
        <time>2025-10-25T10:52:55Z</time>
      </trkpt>
      <trkpt lat="48.54778" lon="2.13275">
        <ele>94.2</ele>
        <time>2025-10-25T10:52:57Z</time>
      </trkpt>
      <trkpt lat="48.5478" lon="2.13278">
        <ele>94</ele>
        <time>2025-10-25T10:52:59Z</time>
      </trkpt>
      <trkpt lat="48.54782" lon="2.1328">
        <ele>93.8</ele>
        <time>2025-10-25T10:53:01Z</time>
      </trkpt>
      <trkpt lat="48.54785" lon="2.13283">
        <ele>93.4</ele>
        <time>2025-10-25T10:53:03Z</time>
      </trkpt>
      <trkpt lat="48.54788" lon="2.13286">
        <ele>93.2</ele>
        <time>2025-10-25T10:53:05Z</time>
      </trkpt>
      <trkpt lat="48.5479" lon="2.13288">
        <ele>92.8</ele>
        <time>2025-10-25T10:53:07Z</time>
      </trkpt>
      <trkpt lat="48.54792" lon="2.13291">
        <ele>92.4</ele>
        <time>2025-10-25T10:53:09Z</time>
      </trkpt>
      <trkpt lat="48.54794" lon="2.13293">
        <ele>92</ele>
        <time>2025-10-25T10:53:11Z</time>
      </trkpt>
      <trkpt lat="48.54796" lon="2.13294">
        <ele>91.6</ele>
        <time>2025-10-25T10:53:13Z</time>
      </trkpt>
      <trkpt lat="48.54799" lon="2.13295">
        <ele>91.4</ele>
        <time>2025-10-25T10:53:15Z</time>
      </trkpt>
      <trkpt lat="48.54802" lon="2.13296">
        <ele>91.2</ele>
        <time>2025-10-25T10:53:17Z</time>
      </trkpt>
      <trkpt lat="48.54804" lon="2.13297">
        <ele>91</ele>
        <time>2025-10-25T10:53:19Z</time>
      </trkpt>
      <trkpt lat="48.54807" lon="2.13297">
        <ele>90.8</ele>
        <time>2025-10-25T10:53:21Z</time>
      </trkpt>
      <trkpt lat="48.54809" lon="2.13298">
        <ele>90.6</ele>
        <time>2025-10-25T10:53:23Z</time>
      </trkpt>
      <trkpt lat="48.54812" lon="2.13298">
        <ele>90.2</ele>
        <time>2025-10-25T10:53:25Z</time>
      </trkpt>
      <trkpt lat="48.54815" lon="2.13298">
        <ele>89.8</ele>
        <time>2025-10-25T10:53:27Z</time>
      </trkpt>
      <trkpt lat="48.54818" lon="2.13299">
        <ele>89.6</ele>
        <time>2025-10-25T10:53:29Z</time>
      </trkpt>
      <trkpt lat="48.5482" lon="2.13299">
        <ele>89.4</ele>
        <time>2025-10-25T10:53:31Z</time>
      </trkpt>
      <trkpt lat="48.54823" lon="2.133">
        <ele>89.2</ele>
        <time>2025-10-25T10:53:33Z</time>
      </trkpt>
      <trkpt lat="48.54826" lon="2.13301">
        <ele>88.8</ele>
        <time>2025-10-25T10:53:35Z</time>
      </trkpt>
      <trkpt lat="48.54829" lon="2.13302">
        <ele>88.6</ele>
        <time>2025-10-25T10:53:37Z</time>
      </trkpt>
      <trkpt lat="48.54832" lon="2.13303">
        <ele>88.2</ele>
        <time>2025-10-25T10:53:39Z</time>
      </trkpt>
      <trkpt lat="48.54834" lon="2.13304">
        <ele>88</ele>
        <time>2025-10-25T10:53:41Z</time>
      </trkpt>
      <trkpt lat="48.54837" lon="2.13305">
        <ele>88</ele>
        <time>2025-10-25T10:53:43Z</time>
      </trkpt>
      <trkpt lat="48.54839" lon="2.13306">
        <ele>87.8</ele>
        <time>2025-10-25T10:53:45Z</time>
      </trkpt>
      <trkpt lat="48.54842" lon="2.13308">
        <ele>87.8</ele>
        <time>2025-10-25T10:53:47Z</time>
      </trkpt>
      <trkpt lat="48.54845" lon="2.13309">
        <ele>87.6</ele>
        <time>2025-10-25T10:53:49Z</time>
      </trkpt>
      <trkpt lat="48.54847" lon="2.13311">
        <ele>87.4</ele>
        <time>2025-10-25T10:53:51Z</time>
      </trkpt>
      <trkpt lat="48.54849" lon="2.13313">
        <ele>87</ele>
        <time>2025-10-25T10:53:53Z</time>
      </trkpt>
      <trkpt lat="48.54852" lon="2.13315">
        <ele>86.8</ele>
        <time>2025-10-25T10:53:55Z</time>
      </trkpt>
      <trkpt lat="48.54854" lon="2.13316">
        <ele>86.4</ele>
        <time>2025-10-25T10:53:57Z</time>
      </trkpt>
      <trkpt lat="48.54857" lon="2.13318">
        <ele>86.2</ele>
        <time>2025-10-25T10:53:59Z</time>
      </trkpt>
      <trkpt lat="48.54859" lon="2.13319">
        <ele>85.8</ele>
        <time>2025-10-25T10:54:01Z</time>
      </trkpt>
      <trkpt lat="48.54861" lon="2.13321">
        <ele>85.6</ele>
        <time>2025-10-25T10:54:03Z</time>
      </trkpt>
      <trkpt lat="48.54864" lon="2.13323">
        <ele>85.2</ele>
        <time>2025-10-25T10:54:05Z</time>
      </trkpt>
      <trkpt lat="48.54866" lon="2.13324">
        <ele>84.8</ele>
        <time>2025-10-25T10:54:07Z</time>
      </trkpt>
      <trkpt lat="48.54868" lon="2.13325">
        <ele>84.4</ele>
        <time>2025-10-25T10:54:09Z</time>
      </trkpt>
      <trkpt lat="48.54871" lon="2.13326">
        <ele>84</ele>
        <time>2025-10-25T10:54:11Z</time>
      </trkpt>
      <trkpt lat="48.54873" lon="2.13327">
        <ele>83.8</ele>
        <time>2025-10-25T10:54:13Z</time>
      </trkpt>
      <trkpt lat="48.54875" lon="2.13329">
        <ele>83.4</ele>
        <time>2025-10-25T10:54:15Z</time>
      </trkpt>
      <trkpt lat="48.54877" lon="2.1333">
        <ele>83</ele>
        <time>2025-10-25T10:54:17Z</time>
      </trkpt>
      <trkpt lat="48.54879" lon="2.13331">
        <ele>82.6</ele>
        <time>2025-10-25T10:54:19Z</time>
      </trkpt>
      <trkpt lat="48.54881" lon="2.13333">
        <ele>82.4</ele>
        <time>2025-10-25T10:54:21Z</time>
      </trkpt>
      <trkpt lat="48.54884" lon="2.13334">
        <ele>82.2</ele>
        <time>2025-10-25T10:54:23Z</time>
      </trkpt>
      <trkpt lat="48.54887" lon="2.13336">
        <ele>81.8</ele>
        <time>2025-10-25T10:54:25Z</time>
      </trkpt>
      <trkpt lat="48.54889" lon="2.13338">
        <ele>81.4</ele>
        <time>2025-10-25T10:54:27Z</time>
      </trkpt>
      <trkpt lat="48.54891" lon="2.1334">
        <ele>81</ele>
        <time>2025-10-25T10:54:29Z</time>
      </trkpt>
      <trkpt lat="48.54893" lon="2.13341">
        <ele>80.8</ele>
        <time>2025-10-25T10:54:31Z</time>
      </trkpt>
      <trkpt lat="48.54895" lon="2.13343">
        <ele>80.4</ele>
        <time>2025-10-25T10:54:33Z</time>
      </trkpt>
      <trkpt lat="48.54898" lon="2.13345">
        <ele>80.2</ele>
        <time>2025-10-25T10:54:35Z</time>
      </trkpt>
      <trkpt lat="48.54901" lon="2.13347">
        <ele>80</ele>
        <time>2025-10-25T10:54:37Z</time>
      </trkpt>
      <trkpt lat="48.54903" lon="2.13349">
        <ele>79.8</ele>
        <time>2025-10-25T10:54:39Z</time>
      </trkpt>
      <trkpt lat="48.54906" lon="2.13352">
        <ele>79.4</ele>
        <time>2025-10-25T10:54:41Z</time>
      </trkpt>
      <trkpt lat="48.54908" lon="2.13354">
        <ele>79.2</ele>
        <time>2025-10-25T10:54:43Z</time>
      </trkpt>
      <trkpt lat="48.54911" lon="2.13356">
        <ele>79</ele>
        <time>2025-10-25T10:54:45Z</time>
      </trkpt>
      <trkpt lat="48.54914" lon="2.13358">
        <ele>78.8</ele>
        <time>2025-10-25T10:54:47Z</time>
      </trkpt>
      <trkpt lat="48.54916" lon="2.1336">
        <ele>78.8</ele>
        <time>2025-10-25T10:54:49Z</time>
      </trkpt>
      <trkpt lat="48.54919" lon="2.13362">
        <ele>78.8</ele>
        <time>2025-10-25T10:54:51Z</time>
      </trkpt>
      <trkpt lat="48.54921" lon="2.13363">
        <ele>78.6</ele>
        <time>2025-10-25T10:54:53Z</time>
      </trkpt>
      <trkpt lat="48.54924" lon="2.13365">
        <ele>78.4</ele>
        <time>2025-10-25T10:54:55Z</time>
      </trkpt>
      <trkpt lat="48.54927" lon="2.13367">
        <ele>78.4</ele>
        <time>2025-10-25T10:54:57Z</time>
      </trkpt>
      <trkpt lat="48.54929" lon="2.13369">
        <ele>78</ele>
        <time>2025-10-25T10:54:59Z</time>
      </trkpt>
      <trkpt lat="48.54932" lon="2.13371">
        <ele>77.8</ele>
        <time>2025-10-25T10:55:01Z</time>
      </trkpt>
      <trkpt lat="48.54934" lon="2.13373">
        <ele>77.6</ele>
        <time>2025-10-25T10:55:03Z</time>
      </trkpt>
      <trkpt lat="48.54937" lon="2.13374">
        <ele>77.4</ele>
        <time>2025-10-25T10:55:05Z</time>
      </trkpt>
      <trkpt lat="48.54939" lon="2.13376">
        <ele>77.4</ele>
        <time>2025-10-25T10:55:07Z</time>
      </trkpt>
      <trkpt lat="48.54942" lon="2.13378">
        <ele>77.4</ele>
        <time>2025-10-25T10:55:09Z</time>
      </trkpt>
      <trkpt lat="48.54945" lon="2.13379">
        <ele>77.2</ele>
        <time>2025-10-25T10:55:11Z</time>
      </trkpt>
      <trkpt lat="48.54948" lon="2.13381">
        <ele>76.8</ele>
        <time>2025-10-25T10:55:13Z</time>
      </trkpt>
      <trkpt lat="48.54951" lon="2.13383">
        <ele>76.6</ele>
        <time>2025-10-25T10:55:15Z</time>
      </trkpt>
      <trkpt lat="48.54954" lon="2.13383">
        <ele>76.2</ele>
        <time>2025-10-25T10:55:17Z</time>
      </trkpt>
      <trkpt lat="48.54956" lon="2.13384">
        <ele>76</ele>
        <time>2025-10-25T10:55:19Z</time>
      </trkpt>
      <trkpt lat="48.54959" lon="2.13384">
        <ele>75.6</ele>
        <time>2025-10-25T10:55:21Z</time>
      </trkpt>
      <trkpt lat="48.54961" lon="2.13385">
        <ele>75.4</ele>
        <time>2025-10-25T10:55:23Z</time>
      </trkpt>
      <trkpt lat="48.54963" lon="2.13386">
        <ele>75.4</ele>
        <time>2025-10-25T10:55:25Z</time>
      </trkpt>
      <trkpt lat="48.54966" lon="2.13388">
        <ele>75.2</ele>
        <time>2025-10-25T10:55:27Z</time>
      </trkpt>
      <trkpt lat="48.54969" lon="2.13388">
        <ele>75</ele>
        <time>2025-10-25T10:55:29Z</time>
      </trkpt>
      <trkpt lat="48.54971" lon="2.13389">
        <ele>74.8</ele>
        <time>2025-10-25T10:55:31Z</time>
      </trkpt>
      <trkpt lat="48.54974" lon="2.13391">
        <ele>74.6</ele>
        <time>2025-10-25T10:55:33Z</time>
      </trkpt>
      <trkpt lat="48.54976" lon="2.13393">
        <ele>74.6</ele>
        <time>2025-10-25T10:55:35Z</time>
      </trkpt>
      <trkpt lat="48.54979" lon="2.13395">
        <ele>74.4</ele>
        <time>2025-10-25T10:55:37Z</time>
      </trkpt>
      <trkpt lat="48.54981" lon="2.13397">
        <ele>74.2</ele>
        <time>2025-10-25T10:55:39Z</time>
      </trkpt>
      <trkpt lat="48.54983" lon="2.13399">
        <ele>74</ele>
        <time>2025-10-25T10:55:41Z</time>
      </trkpt>
      <trkpt lat="48.54985" lon="2.13401">
        <ele>73.8</ele>
        <time>2025-10-25T10:55:43Z</time>
      </trkpt>
      <trkpt lat="48.54987" lon="2.13403">
        <ele>73.6</ele>
        <time>2025-10-25T10:55:45Z</time>
      </trkpt>
      <trkpt lat="48.5499" lon="2.13406">
        <ele>73.4</ele>
        <time>2025-10-25T10:55:47Z</time>
      </trkpt>
      <trkpt lat="48.54992" lon="2.13408">
        <ele>73.2</ele>
        <time>2025-10-25T10:55:49Z</time>
      </trkpt>
      <trkpt lat="48.54995" lon="2.13411">
        <ele>72.6</ele>
        <time>2025-10-25T10:55:52Z</time>
      </trkpt>
      <trkpt lat="48.54997" lon="2.13412">
        <ele>72.4</ele>
        <time>2025-10-25T10:55:55Z</time>
      </trkpt>
      <trkpt lat="48.54999" lon="2.13414">
        <ele>72</ele>
        <time>2025-10-25T10:55:59Z</time>
      </trkpt>
      <trkpt lat="48.55002" lon="2.13416">
        <ele>71.8</ele>
        <time>2025-10-25T10:56:01Z</time>
      </trkpt>
      <trkpt lat="48.55004" lon="2.1342">
        <ele>71.6</ele>
        <time>2025-10-25T10:56:03Z</time>
      </trkpt>
      <trkpt lat="48.55006" lon="2.13422">
        <ele>71.4</ele>
        <time>2025-10-25T10:56:04Z</time>
      </trkpt>
      <trkpt lat="48.55008" lon="2.13424">
        <ele>71.4</ele>
        <time>2025-10-25T10:56:05Z</time>
      </trkpt>
      <trkpt lat="48.55011" lon="2.13426">
        <ele>71.4</ele>
        <time>2025-10-25T10:56:06Z</time>
      </trkpt>
      <trkpt lat="48.55012" lon="2.13428">
        <ele>71.2</ele>
        <time>2025-10-25T10:56:07Z</time>
      </trkpt>
      <trkpt lat="48.55015" lon="2.1343">
        <ele>71.2</ele>
        <time>2025-10-25T10:56:08Z</time>
      </trkpt>
      <trkpt lat="48.55017" lon="2.13432">
        <ele>71</ele>
        <time>2025-10-25T10:56:09Z</time>
      </trkpt>
      <trkpt lat="48.55019" lon="2.13434">
        <ele>71</ele>
        <time>2025-10-25T10:56:10Z</time>
      </trkpt>
      <trkpt lat="48.55021" lon="2.13436">
        <ele>70.8</ele>
        <time>2025-10-25T10:56:11Z</time>
      </trkpt>
      <trkpt lat="48.55023" lon="2.13439">
        <ele>70.8</ele>
        <time>2025-10-25T10:56:12Z</time>
      </trkpt>
      <trkpt lat="48.55025" lon="2.13442">
        <ele>70.8</ele>
        <time>2025-10-25T10:56:13Z</time>
      </trkpt>
      <trkpt lat="48.55028" lon="2.13445">
        <ele>70.8</ele>
        <time>2025-10-25T10:56:14Z</time>
      </trkpt>
      <trkpt lat="48.5503" lon="2.13448">
        <ele>70.6</ele>
        <time>2025-10-25T10:56:15Z</time>
      </trkpt>
      <trkpt lat="48.55032" lon="2.13451">
        <ele>70.8</ele>
        <time>2025-10-25T10:56:16Z</time>
      </trkpt>
      <trkpt lat="48.55035" lon="2.13454">
        <ele>70.8</ele>
        <time>2025-10-25T10:56:17Z</time>
      </trkpt>
      <trkpt lat="48.55037" lon="2.13457">
        <ele>70.6</ele>
        <time>2025-10-25T10:56:18Z</time>
      </trkpt>
      <trkpt lat="48.5504" lon="2.1346">
        <ele>70.8</ele>
        <time>2025-10-25T10:56:19Z</time>
      </trkpt>
      <trkpt lat="48.55042" lon="2.13463">
        <ele>70.8</ele>
        <time>2025-10-25T10:56:20Z</time>
      </trkpt>
      <trkpt lat="48.55045" lon="2.13466">
        <ele>70.8</ele>
        <time>2025-10-25T10:56:21Z</time>
      </trkpt>
      <trkpt lat="48.55048" lon="2.13469">
        <ele>70.8</ele>
        <time>2025-10-25T10:56:22Z</time>
      </trkpt>
      <trkpt lat="48.55051" lon="2.13473">
        <ele>70.8</ele>
        <time>2025-10-25T10:56:23Z</time>
      </trkpt>
      <trkpt lat="48.55053" lon="2.13476">
        <ele>70.8</ele>
        <time>2025-10-25T10:56:24Z</time>
      </trkpt>
      <trkpt lat="48.55056" lon="2.1348">
        <ele>70.8</ele>
        <time>2025-10-25T10:56:25Z</time>
      </trkpt>
      <trkpt lat="48.55059" lon="2.13484">
        <ele>70.8</ele>
        <time>2025-10-25T10:56:26Z</time>
      </trkpt>
      <trkpt lat="48.55062" lon="2.13488">
        <ele>70.8</ele>
        <time>2025-10-25T10:56:27Z</time>
      </trkpt>
      <trkpt lat="48.55064" lon="2.13491">
        <ele>70.8</ele>
        <time>2025-10-25T10:56:28Z</time>
      </trkpt>
      <trkpt lat="48.55066" lon="2.13495">
        <ele>70.8</ele>
        <time>2025-10-25T10:56:29Z</time>
      </trkpt>
      <trkpt lat="48.55068" lon="2.13499">
        <ele>70.8</ele>
        <time>2025-10-25T10:56:30Z</time>
      </trkpt>
      <trkpt lat="48.55071" lon="2.13503">
        <ele>70.8</ele>
        <time>2025-10-25T10:56:31Z</time>
      </trkpt>
      <trkpt lat="48.55073" lon="2.13507">
        <ele>70.8</ele>
        <time>2025-10-25T10:56:32Z</time>
      </trkpt>
      <trkpt lat="48.55075" lon="2.13511">
        <ele>70.8</ele>
        <time>2025-10-25T10:56:33Z</time>
      </trkpt>
      <trkpt lat="48.55077" lon="2.13515">
        <ele>70.8</ele>
        <time>2025-10-25T10:56:34Z</time>
      </trkpt>
      <trkpt lat="48.55079" lon="2.13519">
        <ele>70.8</ele>
        <time>2025-10-25T10:56:35Z</time>
      </trkpt>
      <trkpt lat="48.55081" lon="2.13524">
        <ele>70.6</ele>
        <time>2025-10-25T10:56:36Z</time>
      </trkpt>
      <trkpt lat="48.55084" lon="2.13528">
        <ele>70.6</ele>
        <time>2025-10-25T10:56:37Z</time>
      </trkpt>
      <trkpt lat="48.55085" lon="2.13532">
        <ele>70.6</ele>
        <time>2025-10-25T10:56:38Z</time>
      </trkpt>
      <trkpt lat="48.55088" lon="2.13537">
        <ele>70.6</ele>
        <time>2025-10-25T10:56:39Z</time>
      </trkpt>
      <trkpt lat="48.5509" lon="2.13541">
        <ele>70.6</ele>
        <time>2025-10-25T10:56:40Z</time>
      </trkpt>
      <trkpt lat="48.55092" lon="2.13545">
        <ele>70.6</ele>
        <time>2025-10-25T10:56:41Z</time>
      </trkpt>
      <trkpt lat="48.55094" lon="2.1355">
        <ele>70.6</ele>
        <time>2025-10-25T10:56:42Z</time>
      </trkpt>
      <trkpt lat="48.55096" lon="2.13554">
        <ele>70.6</ele>
        <time>2025-10-25T10:56:43Z</time>
      </trkpt>
      <trkpt lat="48.55097" lon="2.13558">
        <ele>70.4</ele>
        <time>2025-10-25T10:56:44Z</time>
      </trkpt>
      <trkpt lat="48.55099" lon="2.13563">
        <ele>70.4</ele>
        <time>2025-10-25T10:56:45Z</time>
      </trkpt>
      <trkpt lat="48.55101" lon="2.13567">
        <ele>70.2</ele>
        <time>2025-10-25T10:56:46Z</time>
      </trkpt>
      <trkpt lat="48.55103" lon="2.13572">
        <ele>70.2</ele>
        <time>2025-10-25T10:56:47Z</time>
      </trkpt>
      <trkpt lat="48.55104" lon="2.13577">
        <ele>70</ele>
        <time>2025-10-25T10:56:48Z</time>
      </trkpt>
      <trkpt lat="48.55106" lon="2.13581">
        <ele>70</ele>
        <time>2025-10-25T10:56:49Z</time>
      </trkpt>
      <trkpt lat="48.55108" lon="2.13586">
        <ele>70</ele>
        <time>2025-10-25T10:56:50Z</time>
      </trkpt>
      <trkpt lat="48.55109" lon="2.1359">
        <ele>70</ele>
        <time>2025-10-25T10:56:51Z</time>
      </trkpt>
      <trkpt lat="48.5511" lon="2.13594">
        <ele>70</ele>
        <time>2025-10-25T10:56:52Z</time>
      </trkpt>
      <trkpt lat="48.55112" lon="2.13599">
        <ele>70</ele>
        <time>2025-10-25T10:56:53Z</time>
      </trkpt>
      <trkpt lat="48.55113" lon="2.13603">
        <ele>70.2</ele>
        <time>2025-10-25T10:56:54Z</time>
      </trkpt>
      <trkpt lat="48.55114" lon="2.13607">
        <ele>70.2</ele>
        <time>2025-10-25T10:56:55Z</time>
      </trkpt>
      <trkpt lat="48.55116" lon="2.13612">
        <ele>70.2</ele>
        <time>2025-10-25T10:56:56Z</time>
      </trkpt>
      <trkpt lat="48.55117" lon="2.13617">
        <ele>70.2</ele>
        <time>2025-10-25T10:56:57Z</time>
      </trkpt>
      <trkpt lat="48.55118" lon="2.13622">
        <ele>70.2</ele>
        <time>2025-10-25T10:56:58Z</time>
      </trkpt>
      <trkpt lat="48.5512" lon="2.13628">
        <ele>70.4</ele>
        <time>2025-10-25T10:56:59Z</time>
      </trkpt>
      <trkpt lat="48.55121" lon="2.13633">
        <ele>70.4</ele>
        <time>2025-10-25T10:57:00Z</time>
      </trkpt>
      <trkpt lat="48.55122" lon="2.13638">
        <ele>70.4</ele>
        <time>2025-10-25T10:57:01Z</time>
      </trkpt>
      <trkpt lat="48.55123" lon="2.13643">
        <ele>70.2</ele>
        <time>2025-10-25T10:57:02Z</time>
      </trkpt>
      <trkpt lat="48.55124" lon="2.13648">
        <ele>70.2</ele>
        <time>2025-10-25T10:57:03Z</time>
      </trkpt>
      <trkpt lat="48.55125" lon="2.13652">
        <ele>70</ele>
        <time>2025-10-25T10:57:04Z</time>
      </trkpt>
      <trkpt lat="48.55127" lon="2.13657">
        <ele>70</ele>
        <time>2025-10-25T10:57:05Z</time>
      </trkpt>
      <trkpt lat="48.55127" lon="2.13662">
        <ele>70</ele>
        <time>2025-10-25T10:57:06Z</time>
      </trkpt>
      <trkpt lat="48.55128" lon="2.13667">
        <ele>69.8</ele>
        <time>2025-10-25T10:57:07Z</time>
      </trkpt>
      <trkpt lat="48.55129" lon="2.13672">
        <ele>69.8</ele>
        <time>2025-10-25T10:57:08Z</time>
      </trkpt>
      <trkpt lat="48.5513" lon="2.13677">
        <ele>69.8</ele>
        <time>2025-10-25T10:57:09Z</time>
      </trkpt>
      <trkpt lat="48.55131" lon="2.13683">
        <ele>69.8</ele>
        <time>2025-10-25T10:57:10Z</time>
      </trkpt>
      <trkpt lat="48.55132" lon="2.13688">
        <ele>69.8</ele>
        <time>2025-10-25T10:57:11Z</time>
      </trkpt>
      <trkpt lat="48.55132" lon="2.13693">
        <ele>69.8</ele>
        <time>2025-10-25T10:57:12Z</time>
      </trkpt>
      <trkpt lat="48.55133" lon="2.13698">
        <ele>69.8</ele>
        <time>2025-10-25T10:57:13Z</time>
      </trkpt>
      <trkpt lat="48.55133" lon="2.13704">
        <ele>69.8</ele>
        <time>2025-10-25T10:57:14Z</time>
      </trkpt>
      <trkpt lat="48.55134" lon="2.13709">
        <ele>70</ele>
        <time>2025-10-25T10:57:15Z</time>
      </trkpt>
      <trkpt lat="48.55134" lon="2.13714">
        <ele>70</ele>
        <time>2025-10-25T10:57:16Z</time>
      </trkpt>
      <trkpt lat="48.55134" lon="2.13719">
        <ele>70.2</ele>
        <time>2025-10-25T10:57:17Z</time>
      </trkpt>
      <trkpt lat="48.55134" lon="2.13724">
        <ele>70.2</ele>
        <time>2025-10-25T10:57:18Z</time>
      </trkpt>
      <trkpt lat="48.55134" lon="2.13729">
        <ele>70.4</ele>
        <time>2025-10-25T10:57:19Z</time>
      </trkpt>
      <trkpt lat="48.55134" lon="2.13733">
        <ele>70.4</ele>
        <time>2025-10-25T10:57:20Z</time>
      </trkpt>
      <trkpt lat="48.55135" lon="2.13738">
        <ele>70.4</ele>
        <time>2025-10-25T10:57:21Z</time>
      </trkpt>
      <trkpt lat="48.55135" lon="2.13742">
        <ele>70.4</ele>
        <time>2025-10-25T10:57:22Z</time>
      </trkpt>
      <trkpt lat="48.55137" lon="2.13747">
        <ele>70.4</ele>
        <time>2025-10-25T10:57:23Z</time>
      </trkpt>
      <trkpt lat="48.55138" lon="2.13751">
        <ele>70.4</ele>
        <time>2025-10-25T10:57:24Z</time>
      </trkpt>
      <trkpt lat="48.55139" lon="2.13756">
        <ele>70.4</ele>
        <time>2025-10-25T10:57:25Z</time>
      </trkpt>
      <trkpt lat="48.5514" lon="2.1376">
        <ele>70.4</ele>
        <time>2025-10-25T10:57:26Z</time>
      </trkpt>
      <trkpt lat="48.55141" lon="2.13765">
        <ele>70.4</ele>
        <time>2025-10-25T10:57:27Z</time>
      </trkpt>
      <trkpt lat="48.55143" lon="2.13769">
        <ele>70.4</ele>
        <time>2025-10-25T10:57:28Z</time>
      </trkpt>
      <trkpt lat="48.55144" lon="2.13774">
        <ele>70.6</ele>
        <time>2025-10-25T10:57:29Z</time>
      </trkpt>
      <trkpt lat="48.55145" lon="2.13779">
        <ele>70.4</ele>
        <time>2025-10-25T10:57:30Z</time>
      </trkpt>
      <trkpt lat="48.55147" lon="2.13783">
        <ele>70.6</ele>
        <time>2025-10-25T10:57:31Z</time>
      </trkpt>
      <trkpt lat="48.55148" lon="2.13788">
        <ele>70.6</ele>
        <time>2025-10-25T10:57:32Z</time>
      </trkpt>
      <trkpt lat="48.55149" lon="2.13792">
        <ele>70.6</ele>
        <time>2025-10-25T10:57:33Z</time>
      </trkpt>
      <trkpt lat="48.55151" lon="2.13797">
        <ele>70.6</ele>
        <time>2025-10-25T10:57:34Z</time>
      </trkpt>
      <trkpt lat="48.55152" lon="2.13801">
        <ele>70.8</ele>
        <time>2025-10-25T10:57:35Z</time>
      </trkpt>
      <trkpt lat="48.55154" lon="2.13806">
        <ele>70.8</ele>
        <time>2025-10-25T10:57:36Z</time>
      </trkpt>
      <trkpt lat="48.55155" lon="2.13811">
        <ele>70.8</ele>
        <time>2025-10-25T10:57:37Z</time>
      </trkpt>
      <trkpt lat="48.55156" lon="2.13816">
        <ele>71</ele>
        <time>2025-10-25T10:57:38Z</time>
      </trkpt>
      <trkpt lat="48.55158" lon="2.13821">
        <ele>71</ele>
        <time>2025-10-25T10:57:39Z</time>
      </trkpt>
      <trkpt lat="48.55159" lon="2.13826">
        <ele>71.2</ele>
        <time>2025-10-25T10:57:40Z</time>
      </trkpt>
      <trkpt lat="48.55161" lon="2.1383">
        <ele>71.2</ele>
        <time>2025-10-25T10:57:41Z</time>
      </trkpt>
      <trkpt lat="48.55163" lon="2.13835">
        <ele>71.2</ele>
        <time>2025-10-25T10:57:42Z</time>
      </trkpt>
      <trkpt lat="48.55164" lon="2.13839">
        <ele>71.4</ele>
        <time>2025-10-25T10:57:43Z</time>
      </trkpt>
      <trkpt lat="48.55165" lon="2.13843">
        <ele>71.4</ele>
        <time>2025-10-25T10:57:44Z</time>
      </trkpt>
      <trkpt lat="48.55167" lon="2.13848">
        <ele>71.6</ele>
        <time>2025-10-25T10:57:45Z</time>
      </trkpt>
      <trkpt lat="48.55168" lon="2.13852">
        <ele>71.6</ele>
        <time>2025-10-25T10:57:46Z</time>
      </trkpt>
      <trkpt lat="48.55169" lon="2.13857">
        <ele>71.6</ele>
        <time>2025-10-25T10:57:47Z</time>
      </trkpt>
      <trkpt lat="48.55171" lon="2.13861">
        <ele>71.6</ele>
        <time>2025-10-25T10:57:48Z</time>
      </trkpt>
      <trkpt lat="48.55172" lon="2.13866">
        <ele>71.8</ele>
        <time>2025-10-25T10:57:49Z</time>
      </trkpt>
      <trkpt lat="48.55173" lon="2.1387">
        <ele>71.8</ele>
        <time>2025-10-25T10:57:50Z</time>
      </trkpt>
      <trkpt lat="48.55175" lon="2.13875">
        <ele>71.8</ele>
        <time>2025-10-25T10:57:51Z</time>
      </trkpt>
      <trkpt lat="48.55177" lon="2.13879">
        <ele>71.8</ele>
        <time>2025-10-25T10:57:52Z</time>
      </trkpt>
      <trkpt lat="48.55179" lon="2.13884">
        <ele>72</ele>
        <time>2025-10-25T10:57:53Z</time>
      </trkpt>
      <trkpt lat="48.5518" lon="2.13889">
        <ele>72</ele>
        <time>2025-10-25T10:57:54Z</time>
      </trkpt>
      <trkpt lat="48.55181" lon="2.13895">
        <ele>72</ele>
        <time>2025-10-25T10:57:55Z</time>
      </trkpt>
      <trkpt lat="48.55182" lon="2.139">
        <ele>72</ele>
        <time>2025-10-25T10:57:56Z</time>
      </trkpt>
      <trkpt lat="48.55183" lon="2.13905">
        <ele>72</ele>
        <time>2025-10-25T10:57:57Z</time>
      </trkpt>
      <trkpt lat="48.55185" lon="2.13911">
        <ele>72</ele>
        <time>2025-10-25T10:57:58Z</time>
      </trkpt>
      <trkpt lat="48.55186" lon="2.13916">
        <ele>72</ele>
        <time>2025-10-25T10:57:59Z</time>
      </trkpt>
      <trkpt lat="48.55187" lon="2.13922">
        <ele>72</ele>
        <time>2025-10-25T10:58:00Z</time>
      </trkpt>
      <trkpt lat="48.55188" lon="2.13927">
        <ele>72</ele>
        <time>2025-10-25T10:58:01Z</time>
      </trkpt>
      <trkpt lat="48.55189" lon="2.13933">
        <ele>72</ele>
        <time>2025-10-25T10:58:02Z</time>
      </trkpt>
      <trkpt lat="48.5519" lon="2.13938">
        <ele>72.2</ele>
        <time>2025-10-25T10:58:03Z</time>
      </trkpt>
      <trkpt lat="48.55191" lon="2.13943">
        <ele>72.2</ele>
        <time>2025-10-25T10:58:04Z</time>
      </trkpt>
      <trkpt lat="48.55192" lon="2.13949">
        <ele>72.2</ele>
        <time>2025-10-25T10:58:05Z</time>
      </trkpt>
      <trkpt lat="48.55193" lon="2.13954">
        <ele>72.2</ele>
        <time>2025-10-25T10:58:06Z</time>
      </trkpt>
      <trkpt lat="48.55195" lon="2.13959">
        <ele>72.4</ele>
        <time>2025-10-25T10:58:07Z</time>
      </trkpt>
      <trkpt lat="48.55196" lon="2.13963">
        <ele>72.4</ele>
        <time>2025-10-25T10:58:08Z</time>
      </trkpt>
      <trkpt lat="48.55198" lon="2.13968">
        <ele>72.4</ele>
        <time>2025-10-25T10:58:09Z</time>
      </trkpt>
      <trkpt lat="48.552" lon="2.13973">
        <ele>72.6</ele>
        <time>2025-10-25T10:58:10Z</time>
      </trkpt>
      <trkpt lat="48.55203" lon="2.13978">
        <ele>72.6</ele>
        <time>2025-10-25T10:58:11Z</time>
      </trkpt>
      <trkpt lat="48.55205" lon="2.13983">
        <ele>72.6</ele>
        <time>2025-10-25T10:58:12Z</time>
      </trkpt>
      <trkpt lat="48.55208" lon="2.13988">
        <ele>72.6</ele>
        <time>2025-10-25T10:58:13Z</time>
      </trkpt>
      <trkpt lat="48.5521" lon="2.13992">
        <ele>72.6</ele>
        <time>2025-10-25T10:58:14Z</time>
      </trkpt>
      <trkpt lat="48.55213" lon="2.13997">
        <ele>72.6</ele>
        <time>2025-10-25T10:58:15Z</time>
      </trkpt>
      <trkpt lat="48.55215" lon="2.14001">
        <ele>72.6</ele>
        <time>2025-10-25T10:58:16Z</time>
      </trkpt>
      <trkpt lat="48.55217" lon="2.14005">
        <ele>72.6</ele>
        <time>2025-10-25T10:58:17Z</time>
      </trkpt>
      <trkpt lat="48.55219" lon="2.14009">
        <ele>72.8</ele>
        <time>2025-10-25T10:58:18Z</time>
      </trkpt>
      <trkpt lat="48.55221" lon="2.14013">
        <ele>72.8</ele>
        <time>2025-10-25T10:58:19Z</time>
      </trkpt>
      <trkpt lat="48.55223" lon="2.14017">
        <ele>72.8</ele>
        <time>2025-10-25T10:58:20Z</time>
      </trkpt>
      <trkpt lat="48.55225" lon="2.14021">
        <ele>72.8</ele>
        <time>2025-10-25T10:58:21Z</time>
      </trkpt>
      <trkpt lat="48.55227" lon="2.14024">
        <ele>72.8</ele>
        <time>2025-10-25T10:58:22Z</time>
      </trkpt>
      <trkpt lat="48.5523" lon="2.14028">
        <ele>73</ele>
        <time>2025-10-25T10:58:23Z</time>
      </trkpt>
      <trkpt lat="48.55233" lon="2.14033">
        <ele>73</ele>
        <time>2025-10-25T10:58:24Z</time>
      </trkpt>
      <trkpt lat="48.55235" lon="2.14037">
        <ele>73</ele>
        <time>2025-10-25T10:58:25Z</time>
      </trkpt>
      <trkpt lat="48.55237" lon="2.14041">
        <ele>73.2</ele>
        <time>2025-10-25T10:58:26Z</time>
      </trkpt>
      <trkpt lat="48.5524" lon="2.14046">
        <ele>73.2</ele>
        <time>2025-10-25T10:58:27Z</time>
      </trkpt>
      <trkpt lat="48.55242" lon="2.1405">
        <ele>73.4</ele>
        <time>2025-10-25T10:58:28Z</time>
      </trkpt>
      <trkpt lat="48.55243" lon="2.14055">
        <ele>73.4</ele>
        <time>2025-10-25T10:58:29Z</time>
      </trkpt>
      <trkpt lat="48.55245" lon="2.1406">
        <ele>73.4</ele>
        <time>2025-10-25T10:58:30Z</time>
      </trkpt>
      <trkpt lat="48.55246" lon="2.14065">
        <ele>73.4</ele>
        <time>2025-10-25T10:58:31Z</time>
      </trkpt>
      <trkpt lat="48.55248" lon="2.1407">
        <ele>73.4</ele>
        <time>2025-10-25T10:58:32Z</time>
      </trkpt>
      <trkpt lat="48.5525" lon="2.14075">
        <ele>73.6</ele>
        <time>2025-10-25T10:58:33Z</time>
      </trkpt>
      <trkpt lat="48.55252" lon="2.14079">
        <ele>73.6</ele>
        <time>2025-10-25T10:58:34Z</time>
      </trkpt>
      <trkpt lat="48.55254" lon="2.14084">
        <ele>73.6</ele>
        <time>2025-10-25T10:58:35Z</time>
      </trkpt>
      <trkpt lat="48.55255" lon="2.14088">
        <ele>73.8</ele>
        <time>2025-10-25T10:58:36Z</time>
      </trkpt>
      <trkpt lat="48.55257" lon="2.14093">
        <ele>73.8</ele>
        <time>2025-10-25T10:58:37Z</time>
      </trkpt>
      <trkpt lat="48.55259" lon="2.14097">
        <ele>73.8</ele>
        <time>2025-10-25T10:58:38Z</time>
      </trkpt>
      <trkpt lat="48.55261" lon="2.14102">
        <ele>73.8</ele>
        <time>2025-10-25T10:58:39Z</time>
      </trkpt>
      <trkpt lat="48.55262" lon="2.14107">
        <ele>73.8</ele>
        <time>2025-10-25T10:58:40Z</time>
      </trkpt>
      <trkpt lat="48.55263" lon="2.14112">
        <ele>73.8</ele>
        <time>2025-10-25T10:58:41Z</time>
      </trkpt>
      <trkpt lat="48.55264" lon="2.14117">
        <ele>73.6</ele>
        <time>2025-10-25T10:58:42Z</time>
      </trkpt>
      <trkpt lat="48.55265" lon="2.14122">
        <ele>73.6</ele>
        <time>2025-10-25T10:58:43Z</time>
      </trkpt>
      <trkpt lat="48.55266" lon="2.14127">
        <ele>73.6</ele>
        <time>2025-10-25T10:58:44Z</time>
      </trkpt>
      <trkpt lat="48.55268" lon="2.14132">
        <ele>73.4</ele>
        <time>2025-10-25T10:58:45Z</time>
      </trkpt>
      <trkpt lat="48.55269" lon="2.14137">
        <ele>73.4</ele>
        <time>2025-10-25T10:58:46Z</time>
      </trkpt>
      <trkpt lat="48.55271" lon="2.14142">
        <ele>73.2</ele>
        <time>2025-10-25T10:58:47Z</time>
      </trkpt>
      <trkpt lat="48.55272" lon="2.14148">
        <ele>73.2</ele>
        <time>2025-10-25T10:58:48Z</time>
      </trkpt>
      <trkpt lat="48.55274" lon="2.14153">
        <ele>73</ele>
        <time>2025-10-25T10:58:49Z</time>
      </trkpt>
      <trkpt lat="48.55275" lon="2.14158">
        <ele>73</ele>
        <time>2025-10-25T10:58:50Z</time>
      </trkpt>
      <trkpt lat="48.55277" lon="2.14164">
        <ele>73</ele>
        <time>2025-10-25T10:58:51Z</time>
      </trkpt>
      <trkpt lat="48.55278" lon="2.14169">
        <ele>73</ele>
        <time>2025-10-25T10:58:52Z</time>
      </trkpt>
      <trkpt lat="48.5528" lon="2.14175">
        <ele>73</ele>
        <time>2025-10-25T10:58:53Z</time>
      </trkpt>
      <trkpt lat="48.55281" lon="2.14181">
        <ele>72.8</ele>
        <time>2025-10-25T10:58:54Z</time>
      </trkpt>
      <trkpt lat="48.55283" lon="2.14186">
        <ele>72.8</ele>
        <time>2025-10-25T10:58:55Z</time>
      </trkpt>
      <trkpt lat="48.55284" lon="2.14192">
        <ele>72.6</ele>
        <time>2025-10-25T10:58:56Z</time>
      </trkpt>
      <trkpt lat="48.55285" lon="2.14197">
        <ele>72.6</ele>
        <time>2025-10-25T10:58:57Z</time>
      </trkpt>
      <trkpt lat="48.55286" lon="2.14202">
        <ele>72.6</ele>
        <time>2025-10-25T10:58:58Z</time>
      </trkpt>
      <trkpt lat="48.55288" lon="2.14207">
        <ele>72.6</ele>
        <time>2025-10-25T10:58:59Z</time>
      </trkpt>
      <trkpt lat="48.55289" lon="2.14212">
        <ele>72.6</ele>
        <time>2025-10-25T10:59:00Z</time>
      </trkpt>
      <trkpt lat="48.5529" lon="2.14217">
        <ele>72.6</ele>
        <time>2025-10-25T10:59:01Z</time>
      </trkpt>
      <trkpt lat="48.5529" lon="2.14222">
        <ele>72.6</ele>
        <time>2025-10-25T10:59:02Z</time>
      </trkpt>
      <trkpt lat="48.55291" lon="2.14227">
        <ele>72.6</ele>
        <time>2025-10-25T10:59:03Z</time>
      </trkpt>
      <trkpt lat="48.55292" lon="2.14232">
        <ele>72.6</ele>
        <time>2025-10-25T10:59:04Z</time>
      </trkpt>
      <trkpt lat="48.55292" lon="2.14237">
        <ele>72.6</ele>
        <time>2025-10-25T10:59:05Z</time>
      </trkpt>
      <trkpt lat="48.55293" lon="2.14242">
        <ele>72.8</ele>
        <time>2025-10-25T10:59:06Z</time>
      </trkpt>
      <trkpt lat="48.55294" lon="2.14247">
        <ele>72.6</ele>
        <time>2025-10-25T10:59:07Z</time>
      </trkpt>
      <trkpt lat="48.55295" lon="2.14251">
        <ele>72.6</ele>
        <time>2025-10-25T10:59:08Z</time>
      </trkpt>
      <trkpt lat="48.55296" lon="2.14256">
        <ele>72.6</ele>
        <time>2025-10-25T10:59:09Z</time>
      </trkpt>
      <trkpt lat="48.55297" lon="2.14261">
        <ele>72.4</ele>
        <time>2025-10-25T10:59:10Z</time>
      </trkpt>
      <trkpt lat="48.55298" lon="2.14266">
        <ele>72.4</ele>
        <time>2025-10-25T10:59:11Z</time>
      </trkpt>
      <trkpt lat="48.55298" lon="2.1427">
        <ele>72.2</ele>
        <time>2025-10-25T10:59:12Z</time>
      </trkpt>
      <trkpt lat="48.55298" lon="2.14275">
        <ele>72.2</ele>
        <time>2025-10-25T10:59:13Z</time>
      </trkpt>
      <trkpt lat="48.55298" lon="2.1428">
        <ele>72</ele>
        <time>2025-10-25T10:59:14Z</time>
      </trkpt>
      <trkpt lat="48.55297" lon="2.14285">
        <ele>72</ele>
        <time>2025-10-25T10:59:15Z</time>
      </trkpt>
      <trkpt lat="48.55297" lon="2.1429">
        <ele>71.8</ele>
        <time>2025-10-25T10:59:16Z</time>
      </trkpt>
      <trkpt lat="48.55297" lon="2.14294">
        <ele>71.6</ele>
        <time>2025-10-25T10:59:17Z</time>
      </trkpt>
      <trkpt lat="48.55297" lon="2.14299">
        <ele>71.6</ele>
        <time>2025-10-25T10:59:18Z</time>
      </trkpt>
      <trkpt lat="48.55297" lon="2.14304">
        <ele>71.4</ele>
        <time>2025-10-25T10:59:19Z</time>
      </trkpt>
      <trkpt lat="48.55298" lon="2.14309">
        <ele>71.4</ele>
        <time>2025-10-25T10:59:20Z</time>
      </trkpt>
      <trkpt lat="48.55299" lon="2.14314">
        <ele>71.2</ele>
        <time>2025-10-25T10:59:21Z</time>
      </trkpt>
      <trkpt lat="48.553" lon="2.14319">
        <ele>71</ele>
        <time>2025-10-25T10:59:22Z</time>
      </trkpt>
      <trkpt lat="48.553" lon="2.14324">
        <ele>71</ele>
        <time>2025-10-25T10:59:23Z</time>
      </trkpt>
      <trkpt lat="48.55302" lon="2.14329">
        <ele>71</ele>
        <time>2025-10-25T10:59:24Z</time>
      </trkpt>
      <trkpt lat="48.55303" lon="2.14334">
        <ele>71</ele>
        <time>2025-10-25T10:59:25Z</time>
      </trkpt>
      <trkpt lat="48.55304" lon="2.14339">
        <ele>70.8</ele>
        <time>2025-10-25T10:59:26Z</time>
      </trkpt>
      <trkpt lat="48.55305" lon="2.14344">
        <ele>70.8</ele>
        <time>2025-10-25T10:59:27Z</time>
      </trkpt>
      <trkpt lat="48.55306" lon="2.1435">
        <ele>70.6</ele>
        <time>2025-10-25T10:59:28Z</time>
      </trkpt>
      <trkpt lat="48.55308" lon="2.14356">
        <ele>70.4</ele>
        <time>2025-10-25T10:59:29Z</time>
      </trkpt>
      <trkpt lat="48.55308" lon="2.14362">
        <ele>70.4</ele>
        <time>2025-10-25T10:59:30Z</time>
      </trkpt>
      <trkpt lat="48.55309" lon="2.14368">
        <ele>70.2</ele>
        <time>2025-10-25T10:59:31Z</time>
      </trkpt>
      <trkpt lat="48.5531" lon="2.14374">
        <ele>70</ele>
        <time>2025-10-25T10:59:32Z</time>
      </trkpt>
      <trkpt lat="48.55311" lon="2.1438">
        <ele>70</ele>
        <time>2025-10-25T10:59:33Z</time>
      </trkpt>
      <trkpt lat="48.55312" lon="2.14385">
        <ele>69.8</ele>
        <time>2025-10-25T10:59:34Z</time>
      </trkpt>
      <trkpt lat="48.55312" lon="2.14391">
        <ele>69.6</ele>
        <time>2025-10-25T10:59:35Z</time>
      </trkpt>
      <trkpt lat="48.55313" lon="2.14396">
        <ele>69.6</ele>
        <time>2025-10-25T10:59:36Z</time>
      </trkpt>
      <trkpt lat="48.55314" lon="2.14401">
        <ele>69.4</ele>
        <time>2025-10-25T10:59:37Z</time>
      </trkpt>
      <trkpt lat="48.55314" lon="2.14406">
        <ele>69.2</ele>
        <time>2025-10-25T10:59:38Z</time>
      </trkpt>
      <trkpt lat="48.55315" lon="2.14411">
        <ele>69.2</ele>
        <time>2025-10-25T10:59:39Z</time>
      </trkpt>
      <trkpt lat="48.55315" lon="2.14416">
        <ele>69.2</ele>
        <time>2025-10-25T10:59:40Z</time>
      </trkpt>
      <trkpt lat="48.55316" lon="2.14422">
        <ele>69</ele>
        <time>2025-10-25T10:59:41Z</time>
      </trkpt>
      <trkpt lat="48.55316" lon="2.14427">
        <ele>69</ele>
        <time>2025-10-25T10:59:42Z</time>
      </trkpt>
      <trkpt lat="48.55317" lon="2.14432">
        <ele>68.8</ele>
        <time>2025-10-25T10:59:43Z</time>
      </trkpt>
      <trkpt lat="48.55317" lon="2.14437">
        <ele>68.8</ele>
        <time>2025-10-25T10:59:44Z</time>
      </trkpt>
      <trkpt lat="48.55318" lon="2.14442">
        <ele>68.8</ele>
        <time>2025-10-25T10:59:45Z</time>
      </trkpt>
      <trkpt lat="48.55318" lon="2.14448">
        <ele>68.6</ele>
        <time>2025-10-25T10:59:46Z</time>
      </trkpt>
      <trkpt lat="48.55318" lon="2.14453">
        <ele>68.6</ele>
        <time>2025-10-25T10:59:47Z</time>
      </trkpt>
      <trkpt lat="48.55319" lon="2.14457">
        <ele>68.6</ele>
        <time>2025-10-25T10:59:48Z</time>
      </trkpt>
      <trkpt lat="48.55319" lon="2.14462">
        <ele>68.6</ele>
        <time>2025-10-25T10:59:49Z</time>
      </trkpt>
      <trkpt lat="48.5532" lon="2.14467">
        <ele>68.6</ele>
        <time>2025-10-25T10:59:50Z</time>
      </trkpt>
      <trkpt lat="48.5532" lon="2.14473">
        <ele>68.4</ele>
        <time>2025-10-25T10:59:51Z</time>
      </trkpt>
      <trkpt lat="48.55321" lon="2.14478">
        <ele>68.4</ele>
        <time>2025-10-25T10:59:52Z</time>
      </trkpt>
      <trkpt lat="48.55322" lon="2.14484">
        <ele>68.4</ele>
        <time>2025-10-25T10:59:53Z</time>
      </trkpt>
      <trkpt lat="48.55322" lon="2.14489">
        <ele>68.4</ele>
        <time>2025-10-25T10:59:54Z</time>
      </trkpt>
      <trkpt lat="48.55323" lon="2.14495">
        <ele>68.4</ele>
        <time>2025-10-25T10:59:55Z</time>
      </trkpt>
      <trkpt lat="48.55324" lon="2.14501">
        <ele>68.4</ele>
        <time>2025-10-25T10:59:56Z</time>
      </trkpt>
      <trkpt lat="48.55324" lon="2.14506">
        <ele>68.4</ele>
        <time>2025-10-25T10:59:57Z</time>
      </trkpt>
      <trkpt lat="48.55324" lon="2.14512">
        <ele>68.4</ele>
        <time>2025-10-25T10:59:58Z</time>
      </trkpt>
      <trkpt lat="48.55324" lon="2.14518">
        <ele>68.4</ele>
        <time>2025-10-25T10:59:59Z</time>
      </trkpt>
      <trkpt lat="48.55324" lon="2.14523">
        <ele>68.4</ele>
        <time>2025-10-25T11:00:00Z</time>
      </trkpt>
      <trkpt lat="48.55324" lon="2.14529">
        <ele>68.6</ele>
        <time>2025-10-25T11:00:01Z</time>
      </trkpt>
      <trkpt lat="48.55324" lon="2.14534">
        <ele>68.6</ele>
        <time>2025-10-25T11:00:02Z</time>
      </trkpt>
      <trkpt lat="48.55324" lon="2.1454">
        <ele>68.6</ele>
        <time>2025-10-25T11:00:03Z</time>
      </trkpt>
      <trkpt lat="48.55324" lon="2.14545">
        <ele>68.6</ele>
        <time>2025-10-25T11:00:04Z</time>
      </trkpt>
      <trkpt lat="48.55324" lon="2.14551">
        <ele>68.6</ele>
        <time>2025-10-25T11:00:05Z</time>
      </trkpt>
      <trkpt lat="48.55324" lon="2.14556">
        <ele>68.6</ele>
        <time>2025-10-25T11:00:06Z</time>
      </trkpt>
      <trkpt lat="48.55324" lon="2.14562">
        <ele>68.6</ele>
        <time>2025-10-25T11:00:07Z</time>
      </trkpt>
      <trkpt lat="48.55324" lon="2.14567">
        <ele>68.6</ele>
        <time>2025-10-25T11:00:08Z</time>
      </trkpt>
      <trkpt lat="48.55324" lon="2.14572">
        <ele>68.6</ele>
        <time>2025-10-25T11:00:09Z</time>
      </trkpt>
      <trkpt lat="48.55324" lon="2.14576">
        <ele>68.4</ele>
        <time>2025-10-25T11:00:10Z</time>
      </trkpt>
      <trkpt lat="48.55324" lon="2.14581">
        <ele>68.4</ele>
        <time>2025-10-25T11:00:11Z</time>
      </trkpt>
      <trkpt lat="48.55324" lon="2.14584">
        <ele>68.4</ele>
        <time>2025-10-25T11:00:12Z</time>
      </trkpt>
      <trkpt lat="48.55325" lon="2.14588">
        <ele>68.2</ele>
        <time>2025-10-25T11:00:13Z</time>
      </trkpt>
      <trkpt lat="48.55326" lon="2.14591">
        <ele>68.2</ele>
        <time>2025-10-25T11:00:14Z</time>
      </trkpt>
      <trkpt lat="48.55326" lon="2.14594">
        <ele>68.2</ele>
        <time>2025-10-25T11:00:15Z</time>
      </trkpt>
      <trkpt lat="48.55327" lon="2.14598">
        <ele>68.2</ele>
        <time>2025-10-25T11:00:17Z</time>
      </trkpt>
      <trkpt lat="48.55328" lon="2.14602">
        <ele>68.2</ele>
        <time>2025-10-25T11:00:19Z</time>
      </trkpt>
      <trkpt lat="48.55328" lon="2.14605">
        <ele>68.2</ele>
        <time>2025-10-25T11:00:21Z</time>
      </trkpt>
      <trkpt lat="48.55329" lon="2.14609">
        <ele>68.4</ele>
        <time>2025-10-25T11:00:23Z</time>
      </trkpt>
      <trkpt lat="48.5533" lon="2.14613">
        <ele>68.4</ele>
        <time>2025-10-25T11:00:25Z</time>
      </trkpt>
      <trkpt lat="48.55331" lon="2.14616">
        <ele>68.4</ele>
        <time>2025-10-25T11:00:27Z</time>
      </trkpt>
      <trkpt lat="48.55332" lon="2.1462">
        <ele>68.4</ele>
        <time>2025-10-25T11:00:29Z</time>
      </trkpt>
      <trkpt lat="48.55333" lon="2.14624">
        <ele>68.2</ele>
        <time>2025-10-25T11:00:31Z</time>
      </trkpt>
      <trkpt lat="48.55334" lon="2.14628">
        <ele>68.2</ele>
        <time>2025-10-25T11:00:33Z</time>
      </trkpt>
      <trkpt lat="48.55335" lon="2.14631">
        <ele>68</ele>
        <time>2025-10-25T11:00:35Z</time>
      </trkpt>
      <trkpt lat="48.55336" lon="2.14635">
        <ele>68</ele>
        <time>2025-10-25T11:00:37Z</time>
      </trkpt>
      <trkpt lat="48.55338" lon="2.1464">
        <ele>67.8</ele>
        <time>2025-10-25T11:00:39Z</time>
      </trkpt>
      <trkpt lat="48.55339" lon="2.14644">
        <ele>67.6</ele>
        <time>2025-10-25T11:00:41Z</time>
      </trkpt>
      <trkpt lat="48.5534" lon="2.14647">
        <ele>67.6</ele>
        <time>2025-10-25T11:00:43Z</time>
      </trkpt>
      <trkpt lat="48.5534" lon="2.1465">
        <ele>67.4</ele>
        <time>2025-10-25T11:00:45Z</time>
      </trkpt>
      <trkpt lat="48.55342" lon="2.14653">
        <ele>67.4</ele>
        <time>2025-10-25T11:00:47Z</time>
      </trkpt>
      <trkpt lat="48.55343" lon="2.14657">
        <ele>67.4</ele>
        <time>2025-10-25T11:00:49Z</time>
      </trkpt>
      <trkpt lat="48.55344" lon="2.14661">
        <ele>67.2</ele>
        <time>2025-10-25T11:00:51Z</time>
      </trkpt>
      <trkpt lat="48.55345" lon="2.14666">
        <ele>67.2</ele>
        <time>2025-10-25T11:00:53Z</time>
      </trkpt>
      <trkpt lat="48.55346" lon="2.1467">
        <ele>67.4</ele>
        <time>2025-10-25T11:00:55Z</time>
      </trkpt>
      <trkpt lat="48.55347" lon="2.14674">
        <ele>67.4</ele>
        <time>2025-10-25T11:00:57Z</time>
      </trkpt>
      <trkpt lat="48.55348" lon="2.14678">
        <ele>67.2</ele>
        <time>2025-10-25T11:00:59Z</time>
      </trkpt>
      <trkpt lat="48.55349" lon="2.14682">
        <ele>67</ele>
        <time>2025-10-25T11:01:01Z</time>
      </trkpt>
      <trkpt lat="48.5535" lon="2.14686">
        <ele>67</ele>
        <time>2025-10-25T11:01:03Z</time>
      </trkpt>
      <trkpt lat="48.5535" lon="2.1469">
        <ele>67</ele>
        <time>2025-10-25T11:01:05Z</time>
      </trkpt>
      <trkpt lat="48.55351" lon="2.14695">
        <ele>66.8</ele>
        <time>2025-10-25T11:01:07Z</time>
      </trkpt>
      <trkpt lat="48.55351" lon="2.147">
        <ele>66.8</ele>
        <time>2025-10-25T11:01:09Z</time>
      </trkpt>
      <trkpt lat="48.55352" lon="2.14705">
        <ele>66.8</ele>
        <time>2025-10-25T11:01:11Z</time>
      </trkpt>
      <trkpt lat="48.55353" lon="2.14707">
        <ele>67</ele>
        <time>2025-10-25T11:01:12Z</time>
      </trkpt>
      <trkpt lat="48.55353" lon="2.1471">
        <ele>67</ele>
        <time>2025-10-25T11:01:13Z</time>
      </trkpt>
      <trkpt lat="48.55354" lon="2.14715">
        <ele>67</ele>
        <time>2025-10-25T11:01:15Z</time>
      </trkpt>
      <trkpt lat="48.55354" lon="2.1472">
        <ele>67</ele>
        <time>2025-10-25T11:01:17Z</time>
      </trkpt>
      <trkpt lat="48.55354" lon="2.14724">
        <ele>67</ele>
        <time>2025-10-25T11:01:19Z</time>
      </trkpt>
      <trkpt lat="48.55354" lon="2.14729">
        <ele>67.2</ele>
        <time>2025-10-25T11:01:21Z</time>
      </trkpt>
      <trkpt lat="48.55354" lon="2.14733">
        <ele>67.2</ele>
        <time>2025-10-25T11:01:23Z</time>
      </trkpt>
      <trkpt lat="48.55354" lon="2.14737">
        <ele>67.2</ele>
        <time>2025-10-25T11:01:25Z</time>
      </trkpt>
      <trkpt lat="48.55354" lon="2.14742">
        <ele>67</ele>
        <time>2025-10-25T11:01:27Z</time>
      </trkpt>
      <trkpt lat="48.55353" lon="2.14746">
        <ele>67</ele>
        <time>2025-10-25T11:01:29Z</time>
      </trkpt>
      <trkpt lat="48.55353" lon="2.1475">
        <ele>66.8</ele>
        <time>2025-10-25T11:01:31Z</time>
      </trkpt>
      <trkpt lat="48.55352" lon="2.14754">
        <ele>67</ele>
        <time>2025-10-25T11:01:33Z</time>
      </trkpt>
      <trkpt lat="48.55352" lon="2.14758">
        <ele>67</ele>
        <time>2025-10-25T11:01:35Z</time>
      </trkpt>
      <trkpt lat="48.55352" lon="2.14762">
        <ele>67.2</ele>
        <time>2025-10-25T11:01:37Z</time>
      </trkpt>
      <trkpt lat="48.55352" lon="2.14765">
        <ele>67.2</ele>
        <time>2025-10-25T11:01:39Z</time>
      </trkpt>
      <trkpt lat="48.55352" lon="2.1477">
        <ele>67.2</ele>
        <time>2025-10-25T11:01:41Z</time>
      </trkpt>
      <trkpt lat="48.5535" lon="2.14775">
        <ele>67.4</ele>
        <time>2025-10-25T11:01:43Z</time>
      </trkpt>
      <trkpt lat="48.55349" lon="2.1478">
        <ele>67.4</ele>
        <time>2025-10-25T11:01:45Z</time>
      </trkpt>
      <trkpt lat="48.55348" lon="2.14784">
        <ele>67.6</ele>
        <time>2025-10-25T11:01:47Z</time>
      </trkpt>
      <trkpt lat="48.55347" lon="2.14788">
        <ele>67.6</ele>
        <time>2025-10-25T11:01:49Z</time>
      </trkpt>
      <trkpt lat="48.55346" lon="2.14792">
        <ele>67.6</ele>
        <time>2025-10-25T11:01:51Z</time>
      </trkpt>
      <trkpt lat="48.55346" lon="2.14797">
        <ele>67.8</ele>
        <time>2025-10-25T11:01:53Z</time>
      </trkpt>
      <trkpt lat="48.55345" lon="2.14801">
        <ele>67.8</ele>
        <time>2025-10-25T11:01:55Z</time>
      </trkpt>
      <trkpt lat="48.55344" lon="2.14804">
        <ele>68</ele>
        <time>2025-10-25T11:01:57Z</time>
      </trkpt>
      <trkpt lat="48.55343" lon="2.14808">
        <ele>68.2</ele>
        <time>2025-10-25T11:01:59Z</time>
      </trkpt>
      <trkpt lat="48.55343" lon="2.14812">
        <ele>68.4</ele>
        <time>2025-10-25T11:02:01Z</time>
      </trkpt>
      <trkpt lat="48.55342" lon="2.14816">
        <ele>68.8</ele>
        <time>2025-10-25T11:02:03Z</time>
      </trkpt>
      <trkpt lat="48.55342" lon="2.14819">
        <ele>69.2</ele>
        <time>2025-10-25T11:02:05Z</time>
      </trkpt>
      <trkpt lat="48.55342" lon="2.14822">
        <ele>69.4</ele>
        <time>2025-10-25T11:02:07Z</time>
      </trkpt>
      <trkpt lat="48.55342" lon="2.14826">
        <ele>69.4</ele>
        <time>2025-10-25T11:02:09Z</time>
      </trkpt>
      <trkpt lat="48.55342" lon="2.14829">
        <ele>69.6</ele>
        <time>2025-10-25T11:02:11Z</time>
      </trkpt>
      <trkpt lat="48.55343" lon="2.14833">
        <ele>69.6</ele>
        <time>2025-10-25T11:02:13Z</time>
      </trkpt>
      <trkpt lat="48.55343" lon="2.14838">
        <ele>69.8</ele>
        <time>2025-10-25T11:02:15Z</time>
      </trkpt>
      <trkpt lat="48.55342" lon="2.14842">
        <ele>69.8</ele>
        <time>2025-10-25T11:02:17Z</time>
      </trkpt>
      <trkpt lat="48.55342" lon="2.14847">
        <ele>69.8</ele>
        <time>2025-10-25T11:02:19Z</time>
      </trkpt>
      <trkpt lat="48.55343" lon="2.14852">
        <ele>70</ele>
        <time>2025-10-25T11:02:21Z</time>
      </trkpt>
      <trkpt lat="48.55343" lon="2.14856">
        <ele>70</ele>
        <time>2025-10-25T11:02:23Z</time>
      </trkpt>
      <trkpt lat="48.55344" lon="2.1486">
        <ele>70</ele>
        <time>2025-10-25T11:02:25Z</time>
      </trkpt>
      <trkpt lat="48.55344" lon="2.14865">
        <ele>70.2</ele>
        <time>2025-10-25T11:02:27Z</time>
      </trkpt>
      <trkpt lat="48.55344" lon="2.14869">
        <ele>70.2</ele>
        <time>2025-10-25T11:02:29Z</time>
      </trkpt>
      <trkpt lat="48.55345" lon="2.14874">
        <ele>70.2</ele>
        <time>2025-10-25T11:02:31Z</time>
      </trkpt>
      <trkpt lat="48.55346" lon="2.14878">
        <ele>70</ele>
        <time>2025-10-25T11:02:33Z</time>
      </trkpt>
      <trkpt lat="48.55346" lon="2.14882">
        <ele>70</ele>
        <time>2025-10-25T11:02:35Z</time>
      </trkpt>
      <trkpt lat="48.55347" lon="2.14885">
        <ele>70</ele>
        <time>2025-10-25T11:02:37Z</time>
      </trkpt>
      <trkpt lat="48.55348" lon="2.14889">
        <ele>70</ele>
        <time>2025-10-25T11:02:39Z</time>
      </trkpt>
      <trkpt lat="48.55348" lon="2.14893">
        <ele>70</ele>
        <time>2025-10-25T11:02:41Z</time>
      </trkpt>
      <trkpt lat="48.55348" lon="2.14897">
        <ele>70</ele>
        <time>2025-10-25T11:02:43Z</time>
      </trkpt>
      <trkpt lat="48.55349" lon="2.14901">
        <ele>69.8</ele>
        <time>2025-10-25T11:02:45Z</time>
      </trkpt>
      <trkpt lat="48.5535" lon="2.14905">
        <ele>69.6</ele>
        <time>2025-10-25T11:02:47Z</time>
      </trkpt>
      <trkpt lat="48.5535" lon="2.14909">
        <ele>69.6</ele>
        <time>2025-10-25T11:02:49Z</time>
      </trkpt>
      <trkpt lat="48.55352" lon="2.14914">
        <ele>69.6</ele>
        <time>2025-10-25T11:02:51Z</time>
      </trkpt>
      <trkpt lat="48.55353" lon="2.14918">
        <ele>69.8</ele>
        <time>2025-10-25T11:02:53Z</time>
      </trkpt>
      <trkpt lat="48.55355" lon="2.14922">
        <ele>70</ele>
        <time>2025-10-25T11:02:55Z</time>
      </trkpt>
      <trkpt lat="48.55356" lon="2.14925">
        <ele>69.8</ele>
        <time>2025-10-25T11:02:57Z</time>
      </trkpt>
      <trkpt lat="48.55358" lon="2.14929">
        <ele>69.8</ele>
        <time>2025-10-25T11:02:59Z</time>
      </trkpt>
      <trkpt lat="48.55359" lon="2.14933">
        <ele>69.6</ele>
        <time>2025-10-25T11:03:01Z</time>
      </trkpt>
      <trkpt lat="48.55361" lon="2.14937">
        <ele>69.4</ele>
        <time>2025-10-25T11:03:03Z</time>
      </trkpt>
      <trkpt lat="48.55362" lon="2.1494">
        <ele>69.2</ele>
        <time>2025-10-25T11:03:05Z</time>
      </trkpt>
      <trkpt lat="48.55364" lon="2.14944">
        <ele>69</ele>
        <time>2025-10-25T11:03:07Z</time>
      </trkpt>
      <trkpt lat="48.55365" lon="2.14947">
        <ele>69</ele>
        <time>2025-10-25T11:03:09Z</time>
      </trkpt>
      <trkpt lat="48.55367" lon="2.14951">
        <ele>69</ele>
        <time>2025-10-25T11:03:11Z</time>
      </trkpt>
      <trkpt lat="48.55369" lon="2.14955">
        <ele>68.8</ele>
        <time>2025-10-25T11:03:13Z</time>
      </trkpt>
      <trkpt lat="48.55371" lon="2.14958">
        <ele>68.8</ele>
        <time>2025-10-25T11:03:15Z</time>
      </trkpt>
      <trkpt lat="48.55373" lon="2.14962">
        <ele>68.8</ele>
        <time>2025-10-25T11:03:17Z</time>
      </trkpt>
      <trkpt lat="48.55375" lon="2.14965">
        <ele>68.8</ele>
        <time>2025-10-25T11:03:19Z</time>
      </trkpt>
      <trkpt lat="48.55377" lon="2.14968">
        <ele>68.8</ele>
        <time>2025-10-25T11:03:21Z</time>
      </trkpt>
      <trkpt lat="48.55379" lon="2.14971">
        <ele>69</ele>
        <time>2025-10-25T11:03:23Z</time>
      </trkpt>
      <trkpt lat="48.5538" lon="2.14973">
        <ele>69.2</ele>
        <time>2025-10-25T11:03:25Z</time>
      </trkpt>
      <trkpt lat="48.55382" lon="2.14976">
        <ele>69</ele>
        <time>2025-10-25T11:03:27Z</time>
      </trkpt>
      <trkpt lat="48.55384" lon="2.14979">
        <ele>69</ele>
        <time>2025-10-25T11:03:29Z</time>
      </trkpt>
      <trkpt lat="48.55386" lon="2.14982">
        <ele>68.8</ele>
        <time>2025-10-25T11:03:31Z</time>
      </trkpt>
      <trkpt lat="48.55388" lon="2.14985">
        <ele>68.8</ele>
        <time>2025-10-25T11:03:33Z</time>
      </trkpt>
      <trkpt lat="48.5539" lon="2.14989">
        <ele>68.6</ele>
        <time>2025-10-25T11:03:35Z</time>
      </trkpt>
      <trkpt lat="48.55391" lon="2.14992">
        <ele>68.6</ele>
        <time>2025-10-25T11:03:37Z</time>
      </trkpt>
      <trkpt lat="48.55393" lon="2.14995">
        <ele>68.6</ele>
        <time>2025-10-25T11:03:39Z</time>
      </trkpt>
      <trkpt lat="48.55394" lon="2.14998">
        <ele>68.8</ele>
        <time>2025-10-25T11:03:41Z</time>
      </trkpt>
      <trkpt lat="48.55396" lon="2.15001">
        <ele>68.8</ele>
        <time>2025-10-25T11:03:43Z</time>
      </trkpt>
      <trkpt lat="48.55397" lon="2.15005">
        <ele>68.8</ele>
        <time>2025-10-25T11:03:45Z</time>
      </trkpt>
      <trkpt lat="48.55399" lon="2.15008">
        <ele>68.8</ele>
        <time>2025-10-25T11:03:47Z</time>
      </trkpt>
      <trkpt lat="48.55401" lon="2.15012">
        <ele>69</ele>
        <time>2025-10-25T11:03:49Z</time>
      </trkpt>
      <trkpt lat="48.55403" lon="2.15016">
        <ele>69</ele>
        <time>2025-10-25T11:03:51Z</time>
      </trkpt>
      <trkpt lat="48.55405" lon="2.1502">
        <ele>69</ele>
        <time>2025-10-25T11:03:53Z</time>
      </trkpt>
      <trkpt lat="48.55407" lon="2.15024">
        <ele>69</ele>
        <time>2025-10-25T11:03:55Z</time>
      </trkpt>
      <trkpt lat="48.55408" lon="2.15029">
        <ele>69</ele>
        <time>2025-10-25T11:03:57Z</time>
      </trkpt>
      <trkpt lat="48.5541" lon="2.15033">
        <ele>69</ele>
        <time>2025-10-25T11:03:59Z</time>
      </trkpt>
      <trkpt lat="48.55411" lon="2.15035">
        <ele>69</ele>
        <time>2025-10-25T11:04:00Z</time>
      </trkpt>
      <trkpt lat="48.55412" lon="2.15039">
        <ele>69</ele>
        <time>2025-10-25T11:04:02Z</time>
      </trkpt>
      <trkpt lat="48.55413" lon="2.15042">
        <ele>69</ele>
        <time>2025-10-25T11:04:03Z</time>
      </trkpt>
      <trkpt lat="48.55415" lon="2.15046">
        <ele>69.2</ele>
        <time>2025-10-25T11:04:05Z</time>
      </trkpt>
      <trkpt lat="48.55416" lon="2.15049">
        <ele>69.2</ele>
        <time>2025-10-25T11:04:06Z</time>
      </trkpt>
      <trkpt lat="48.55418" lon="2.15053">
        <ele>69</ele>
        <time>2025-10-25T11:04:08Z</time>
      </trkpt>
      <trkpt lat="48.55419" lon="2.15055">
        <ele>69</ele>
        <time>2025-10-25T11:04:09Z</time>
      </trkpt>
      <trkpt lat="48.55421" lon="2.15058">
        <ele>68.8</ele>
        <time>2025-10-25T11:04:11Z</time>
      </trkpt>
      <trkpt lat="48.55424" lon="2.15062">
        <ele>68.8</ele>
        <time>2025-10-25T11:04:13Z</time>
      </trkpt>
      <trkpt lat="48.55425" lon="2.15066">
        <ele>68.6</ele>
        <time>2025-10-25T11:04:15Z</time>
      </trkpt>
      <trkpt lat="48.55427" lon="2.15069">
        <ele>68.6</ele>
        <time>2025-10-25T11:04:17Z</time>
      </trkpt>
      <trkpt lat="48.55428" lon="2.15072">
        <ele>68.4</ele>
        <time>2025-10-25T11:04:19Z</time>
      </trkpt>
      <trkpt lat="48.5543" lon="2.15076">
        <ele>68.4</ele>
        <time>2025-10-25T11:04:21Z</time>
      </trkpt>
      <trkpt lat="48.55432" lon="2.15079">
        <ele>68.2</ele>
        <time>2025-10-25T11:04:23Z</time>
      </trkpt>
      <trkpt lat="48.55434" lon="2.15083">
        <ele>68</ele>
        <time>2025-10-25T11:04:25Z</time>
      </trkpt>
      <trkpt lat="48.55436" lon="2.15086">
        <ele>68</ele>
        <time>2025-10-25T11:04:27Z</time>
      </trkpt>
      <trkpt lat="48.55437" lon="2.15089">
        <ele>68.2</ele>
        <time>2025-10-25T11:04:29Z</time>
      </trkpt>
      <trkpt lat="48.55439" lon="2.15092">
        <ele>68.4</ele>
        <time>2025-10-25T11:04:31Z</time>
      </trkpt>
      <trkpt lat="48.55442" lon="2.15096">
        <ele>68.6</ele>
        <time>2025-10-25T11:04:33Z</time>
      </trkpt>
      <trkpt lat="48.55444" lon="2.15099">
        <ele>68.8</ele>
        <time>2025-10-25T11:04:35Z</time>
      </trkpt>
      <trkpt lat="48.55447" lon="2.15103">
        <ele>69</ele>
        <time>2025-10-25T11:04:37Z</time>
      </trkpt>
      <trkpt lat="48.55449" lon="2.15105">
        <ele>69.2</ele>
        <time>2025-10-25T11:04:38Z</time>
      </trkpt>
      <trkpt lat="48.55451" lon="2.15107">
        <ele>69.2</ele>
        <time>2025-10-25T11:04:39Z</time>
      </trkpt>
      <trkpt lat="48.55452" lon="2.1511">
        <ele>69.4</ele>
        <time>2025-10-25T11:04:40Z</time>
      </trkpt>
      <trkpt lat="48.55455" lon="2.15113">
        <ele>69.4</ele>
        <time>2025-10-25T11:04:41Z</time>
      </trkpt>
      <trkpt lat="48.55457" lon="2.15116">
        <ele>69.4</ele>
        <time>2025-10-25T11:04:42Z</time>
      </trkpt>
      <trkpt lat="48.55459" lon="2.15119">
        <ele>69.4</ele>
        <time>2025-10-25T11:04:43Z</time>
      </trkpt>
      <trkpt lat="48.5546" lon="2.15123">
        <ele>69.2</ele>
        <time>2025-10-25T11:04:44Z</time>
      </trkpt>
      <trkpt lat="48.55463" lon="2.15126">
        <ele>69.4</ele>
        <time>2025-10-25T11:04:45Z</time>
      </trkpt>
      <trkpt lat="48.55465" lon="2.1513">
        <ele>69.4</ele>
        <time>2025-10-25T11:04:46Z</time>
      </trkpt>
      <trkpt lat="48.55467" lon="2.15133">
        <ele>69.4</ele>
        <time>2025-10-25T11:04:47Z</time>
      </trkpt>
      <trkpt lat="48.55469" lon="2.15136">
        <ele>69.4</ele>
        <time>2025-10-25T11:04:48Z</time>
      </trkpt>
      <trkpt lat="48.55471" lon="2.15139">
        <ele>69.4</ele>
        <time>2025-10-25T11:04:49Z</time>
      </trkpt>
      <trkpt lat="48.55472" lon="2.15142">
        <ele>69.4</ele>
        <time>2025-10-25T11:04:50Z</time>
      </trkpt>
      <trkpt lat="48.55474" lon="2.15144">
        <ele>69.6</ele>
        <time>2025-10-25T11:04:51Z</time>
      </trkpt>
      <trkpt lat="48.55475" lon="2.15147">
        <ele>69.6</ele>
        <time>2025-10-25T11:04:52Z</time>
      </trkpt>
      <trkpt lat="48.55477" lon="2.15149">
        <ele>69.6</ele>
        <time>2025-10-25T11:04:53Z</time>
      </trkpt>
      <trkpt lat="48.55479" lon="2.15152">
        <ele>69.8</ele>
        <time>2025-10-25T11:04:54Z</time>
      </trkpt>
      <trkpt lat="48.5548" lon="2.15154">
        <ele>69.8</ele>
        <time>2025-10-25T11:04:55Z</time>
      </trkpt>
      <trkpt lat="48.55483" lon="2.15157">
        <ele>69.6</ele>
        <time>2025-10-25T11:04:57Z</time>
      </trkpt>
      <trkpt lat="48.55485" lon="2.15159">
        <ele>69.6</ele>
        <time>2025-10-25T11:04:58Z</time>
      </trkpt>
      <trkpt lat="48.55487" lon="2.1516">
        <ele>69.6</ele>
        <time>2025-10-25T11:04:59Z</time>
      </trkpt>
      <trkpt lat="48.55488" lon="2.15162">
        <ele>69.8</ele>
        <time>2025-10-25T11:05:00Z</time>
      </trkpt>
      <trkpt lat="48.55491" lon="2.15165">
        <ele>69.8</ele>
        <time>2025-10-25T11:05:02Z</time>
      </trkpt>
      <trkpt lat="48.55493" lon="2.15168">
        <ele>70</ele>
        <time>2025-10-25T11:05:04Z</time>
      </trkpt>
      <trkpt lat="48.55495" lon="2.15172">
        <ele>70.2</ele>
        <time>2025-10-25T11:05:06Z</time>
      </trkpt>
      <trkpt lat="48.55497" lon="2.15176">
        <ele>70</ele>
        <time>2025-10-25T11:05:08Z</time>
      </trkpt>
      <trkpt lat="48.55499" lon="2.1518">
        <ele>70</ele>
        <time>2025-10-25T11:05:10Z</time>
      </trkpt>
      <trkpt lat="48.55501" lon="2.15184">
        <ele>69.8</ele>
        <time>2025-10-25T11:05:12Z</time>
      </trkpt>
      <trkpt lat="48.55502" lon="2.15189">
        <ele>69.8</ele>
        <time>2025-10-25T11:05:14Z</time>
      </trkpt>
      <trkpt lat="48.55504" lon="2.15193">
        <ele>69.4</ele>
        <time>2025-10-25T11:05:16Z</time>
      </trkpt>
      <trkpt lat="48.55505" lon="2.15197">
        <ele>69</ele>
        <time>2025-10-25T11:05:18Z</time>
      </trkpt>
      <trkpt lat="48.55507" lon="2.152">
        <ele>68.8</ele>
        <time>2025-10-25T11:05:20Z</time>
      </trkpt>
      <trkpt lat="48.55508" lon="2.15203">
        <ele>68.6</ele>
        <time>2025-10-25T11:05:22Z</time>
      </trkpt>
      <trkpt lat="48.55509" lon="2.15207">
        <ele>68.6</ele>
        <time>2025-10-25T11:05:24Z</time>
      </trkpt>
      <trkpt lat="48.5551" lon="2.1521">
        <ele>68.6</ele>
        <time>2025-10-25T11:05:26Z</time>
      </trkpt>
      <trkpt lat="48.55512" lon="2.15214">
        <ele>68.4</ele>
        <time>2025-10-25T11:05:28Z</time>
      </trkpt>
      <trkpt lat="48.55513" lon="2.15218">
        <ele>68.4</ele>
        <time>2025-10-25T11:05:30Z</time>
      </trkpt>
      <trkpt lat="48.55514" lon="2.15222">
        <ele>68.4</ele>
        <time>2025-10-25T11:05:32Z</time>
      </trkpt>
      <trkpt lat="48.55515" lon="2.15226">
        <ele>68.4</ele>
        <time>2025-10-25T11:05:34Z</time>
      </trkpt>
      <trkpt lat="48.55517" lon="2.1523">
        <ele>68.4</ele>
        <time>2025-10-25T11:05:36Z</time>
      </trkpt>
      <trkpt lat="48.55518" lon="2.15233">
        <ele>68.4</ele>
        <time>2025-10-25T11:05:38Z</time>
      </trkpt>
      <trkpt lat="48.55519" lon="2.15236">
        <ele>68.2</ele>
        <time>2025-10-25T11:05:40Z</time>
      </trkpt>
      <trkpt lat="48.5552" lon="2.1524">
        <ele>68.2</ele>
        <time>2025-10-25T11:05:42Z</time>
      </trkpt>
      <trkpt lat="48.55521" lon="2.15243">
        <ele>68</ele>
        <time>2025-10-25T11:05:44Z</time>
      </trkpt>
      <trkpt lat="48.55521" lon="2.15247">
        <ele>67.8</ele>
        <time>2025-10-25T11:05:46Z</time>
      </trkpt>
      <trkpt lat="48.55522" lon="2.15251">
        <ele>67.8</ele>
        <time>2025-10-25T11:05:48Z</time>
      </trkpt>
      <trkpt lat="48.55523" lon="2.15254">
        <ele>67.8</ele>
        <time>2025-10-25T11:05:50Z</time>
      </trkpt>
      <trkpt lat="48.55524" lon="2.15258">
        <ele>68</ele>
        <time>2025-10-25T11:05:52Z</time>
      </trkpt>
      <trkpt lat="48.55525" lon="2.15262">
        <ele>68</ele>
        <time>2025-10-25T11:05:54Z</time>
      </trkpt>
      <trkpt lat="48.55527" lon="2.15266">
        <ele>68</ele>
        <time>2025-10-25T11:05:56Z</time>
      </trkpt>
      <trkpt lat="48.55528" lon="2.1527">
        <ele>68.2</ele>
        <time>2025-10-25T11:05:58Z</time>
      </trkpt>
      <trkpt lat="48.55529" lon="2.15274">
        <ele>68.2</ele>
        <time>2025-10-25T11:06:00Z</time>
      </trkpt>
      <trkpt lat="48.5553" lon="2.15278">
        <ele>68.2</ele>
        <time>2025-10-25T11:06:02Z</time>
      </trkpt>
      <trkpt lat="48.55531" lon="2.15282">
        <ele>68.2</ele>
        <time>2025-10-25T11:06:04Z</time>
      </trkpt>
      <trkpt lat="48.55532" lon="2.15286">
        <ele>68.4</ele>
        <time>2025-10-25T11:06:06Z</time>
      </trkpt>
      <trkpt lat="48.55533" lon="2.15291">
        <ele>68.6</ele>
        <time>2025-10-25T11:06:08Z</time>
      </trkpt>
      <trkpt lat="48.55535" lon="2.15295">
        <ele>68.8</ele>
        <time>2025-10-25T11:06:10Z</time>
      </trkpt>
      <trkpt lat="48.55536" lon="2.15299">
        <ele>69</ele>
        <time>2025-10-25T11:06:12Z</time>
      </trkpt>
      <trkpt lat="48.55537" lon="2.15302">
        <ele>69.4</ele>
        <time>2025-10-25T11:06:14Z</time>
      </trkpt>
      <trkpt lat="48.55538" lon="2.15306">
        <ele>69.6</ele>
        <time>2025-10-25T11:06:16Z</time>
      </trkpt>
      <trkpt lat="48.55539" lon="2.15309">
        <ele>69.6</ele>
        <time>2025-10-25T11:06:18Z</time>
      </trkpt>
      <trkpt lat="48.55541" lon="2.15313">
        <ele>69.8</ele>
        <time>2025-10-25T11:06:20Z</time>
      </trkpt>
      <trkpt lat="48.55542" lon="2.15316">
        <ele>70</ele>
        <time>2025-10-25T11:06:22Z</time>
      </trkpt>
      <trkpt lat="48.55543" lon="2.15321">
        <ele>70</ele>
        <time>2025-10-25T11:06:24Z</time>
      </trkpt>
      <trkpt lat="48.55545" lon="2.15325">
        <ele>70</ele>
        <time>2025-10-25T11:06:26Z</time>
      </trkpt>
      <trkpt lat="48.55546" lon="2.1533">
        <ele>69.8</ele>
        <time>2025-10-25T11:06:28Z</time>
      </trkpt>
      <trkpt lat="48.55547" lon="2.15334">
        <ele>69.8</ele>
        <time>2025-10-25T11:06:30Z</time>
      </trkpt>
      <trkpt lat="48.55548" lon="2.15337">
        <ele>69.6</ele>
        <time>2025-10-25T11:06:32Z</time>
      </trkpt>
      <trkpt lat="48.5555" lon="2.15341">
        <ele>69.2</ele>
        <time>2025-10-25T11:06:35Z</time>
      </trkpt>
      <trkpt lat="48.55551" lon="2.15344">
        <ele>69</ele>
        <time>2025-10-25T11:06:38Z</time>
      </trkpt>
      <trkpt lat="48.55552" lon="2.15349">
        <ele>68.8</ele>
        <time>2025-10-25T11:06:40Z</time>
      </trkpt>
      <trkpt lat="48.55553" lon="2.15352">
        <ele>68.8</ele>
        <time>2025-10-25T11:06:41Z</time>
      </trkpt>
      <trkpt lat="48.55553" lon="2.15355">
        <ele>68.8</ele>
        <time>2025-10-25T11:06:42Z</time>
      </trkpt>
      <trkpt lat="48.55554" lon="2.15357">
        <ele>68.8</ele>
        <time>2025-10-25T11:06:43Z</time>
      </trkpt>
      <trkpt lat="48.55555" lon="2.15362">
        <ele>68.8</ele>
        <time>2025-10-25T11:06:45Z</time>
      </trkpt>
      <trkpt lat="48.55556" lon="2.15366">
        <ele>69</ele>
        <time>2025-10-25T11:06:47Z</time>
      </trkpt>
      <trkpt lat="48.55558" lon="2.1537">
        <ele>69.2</ele>
        <time>2025-10-25T11:06:49Z</time>
      </trkpt>
      <trkpt lat="48.55559" lon="2.15374">
        <ele>69.2</ele>
        <time>2025-10-25T11:06:51Z</time>
      </trkpt>
      <trkpt lat="48.55561" lon="2.15377">
        <ele>69.4</ele>
        <time>2025-10-25T11:06:53Z</time>
      </trkpt>
      <trkpt lat="48.55562" lon="2.1538">
        <ele>69.4</ele>
        <time>2025-10-25T11:06:55Z</time>
      </trkpt>
      <trkpt lat="48.55563" lon="2.15383">
        <ele>69.4</ele>
        <time>2025-10-25T11:06:57Z</time>
      </trkpt>
      <trkpt lat="48.55564" lon="2.15387">
        <ele>69.4</ele>
        <time>2025-10-25T11:06:59Z</time>
      </trkpt>
      <trkpt lat="48.55565" lon="2.15391">
        <ele>69.4</ele>
        <time>2025-10-25T11:07:01Z</time>
      </trkpt>
      <trkpt lat="48.55566" lon="2.15395">
        <ele>69.4</ele>
        <time>2025-10-25T11:07:03Z</time>
      </trkpt>
      <trkpt lat="48.55568" lon="2.154">
        <ele>69.4</ele>
        <time>2025-10-25T11:07:05Z</time>
      </trkpt>
      <trkpt lat="48.55569" lon="2.15404">
        <ele>69.4</ele>
        <time>2025-10-25T11:07:07Z</time>
      </trkpt>
      <trkpt lat="48.5557" lon="2.15406">
        <ele>69.4</ele>
        <time>2025-10-25T11:07:08Z</time>
      </trkpt>
      <trkpt lat="48.55572" lon="2.1541">
        <ele>69.4</ele>
        <time>2025-10-25T11:07:10Z</time>
      </trkpt>
      <trkpt lat="48.55573" lon="2.15415">
        <ele>69.2</ele>
        <time>2025-10-25T11:07:12Z</time>
      </trkpt>
      <trkpt lat="48.55574" lon="2.15418">
        <ele>69</ele>
        <time>2025-10-25T11:07:13Z</time>
      </trkpt>
      <trkpt lat="48.55574" lon="2.15421">
        <ele>69</ele>
        <time>2025-10-25T11:07:14Z</time>
      </trkpt>
      <trkpt lat="48.55575" lon="2.15424">
        <ele>68.8</ele>
        <time>2025-10-25T11:07:15Z</time>
      </trkpt>
      <trkpt lat="48.55575" lon="2.15427">
        <ele>68.6</ele>
        <time>2025-10-25T11:07:16Z</time>
      </trkpt>
      <trkpt lat="48.55576" lon="2.1543">
        <ele>68.6</ele>
        <time>2025-10-25T11:07:17Z</time>
      </trkpt>
      <trkpt lat="48.55576" lon="2.15434">
        <ele>68.4</ele>
        <time>2025-10-25T11:07:18Z</time>
      </trkpt>
      <trkpt lat="48.55576" lon="2.15437">
        <ele>68.2</ele>
        <time>2025-10-25T11:07:19Z</time>
      </trkpt>
      <trkpt lat="48.55576" lon="2.1544">
        <ele>68.2</ele>
        <time>2025-10-25T11:07:20Z</time>
      </trkpt>
      <trkpt lat="48.55577" lon="2.15443">
        <ele>68</ele>
        <time>2025-10-25T11:07:21Z</time>
      </trkpt>
      <trkpt lat="48.55577" lon="2.15446">
        <ele>68</ele>
        <time>2025-10-25T11:07:22Z</time>
      </trkpt>
      <trkpt lat="48.55578" lon="2.15449">
        <ele>67.8</ele>
        <time>2025-10-25T11:07:23Z</time>
      </trkpt>
      <trkpt lat="48.55578" lon="2.15454">
        <ele>67.6</ele>
        <time>2025-10-25T11:07:25Z</time>
      </trkpt>
      <trkpt lat="48.55579" lon="2.15458">
        <ele>67.6</ele>
        <time>2025-10-25T11:07:27Z</time>
      </trkpt>
      <trkpt lat="48.5558" lon="2.15462">
        <ele>67.4</ele>
        <time>2025-10-25T11:07:29Z</time>
      </trkpt>
      <trkpt lat="48.5558" lon="2.15466">
        <ele>67.4</ele>
        <time>2025-10-25T11:07:31Z</time>
      </trkpt>
      <trkpt lat="48.5558" lon="2.1547">
        <ele>67.4</ele>
        <time>2025-10-25T11:07:33Z</time>
      </trkpt>
      <trkpt lat="48.55581" lon="2.15474">
        <ele>67.4</ele>
        <time>2025-10-25T11:07:35Z</time>
      </trkpt>
      <trkpt lat="48.55582" lon="2.15478">
        <ele>67.6</ele>
        <time>2025-10-25T11:07:37Z</time>
      </trkpt>
      <trkpt lat="48.55582" lon="2.15482">
        <ele>67.6</ele>
        <time>2025-10-25T11:07:39Z</time>
      </trkpt>
      <trkpt lat="48.55583" lon="2.15486">
        <ele>67.6</ele>
        <time>2025-10-25T11:07:41Z</time>
      </trkpt>
      <trkpt lat="48.55584" lon="2.1549">
        <ele>67.6</ele>
        <time>2025-10-25T11:07:43Z</time>
      </trkpt>
      <trkpt lat="48.55584" lon="2.15494">
        <ele>67.4</ele>
        <time>2025-10-25T11:07:45Z</time>
      </trkpt>
      <trkpt lat="48.55585" lon="2.15498">
        <ele>67.4</ele>
        <time>2025-10-25T11:07:47Z</time>
      </trkpt>
      <trkpt lat="48.55586" lon="2.15501">
        <ele>67.2</ele>
        <time>2025-10-25T11:07:49Z</time>
      </trkpt>
      <trkpt lat="48.55587" lon="2.15505">
        <ele>67.2</ele>
        <time>2025-10-25T11:07:51Z</time>
      </trkpt>
      <trkpt lat="48.55588" lon="2.15509">
        <ele>67.2</ele>
        <time>2025-10-25T11:07:53Z</time>
      </trkpt>
      <trkpt lat="48.55589" lon="2.15513">
        <ele>67</ele>
        <time>2025-10-25T11:07:55Z</time>
      </trkpt>
      <trkpt lat="48.5559" lon="2.15517">
        <ele>66.8</ele>
        <time>2025-10-25T11:07:57Z</time>
      </trkpt>
      <trkpt lat="48.55591" lon="2.1552">
        <ele>66.8</ele>
        <time>2025-10-25T11:07:58Z</time>
      </trkpt>
      <trkpt lat="48.55593" lon="2.15524">
        <ele>66.8</ele>
        <time>2025-10-25T11:08:00Z</time>
      </trkpt>
      <trkpt lat="48.55594" lon="2.15529">
        <ele>66.8</ele>
        <time>2025-10-25T11:08:02Z</time>
      </trkpt>
      <trkpt lat="48.55596" lon="2.15532">
        <ele>66.6</ele>
        <time>2025-10-25T11:08:04Z</time>
      </trkpt>
      <trkpt lat="48.55597" lon="2.15536">
        <ele>66.6</ele>
        <time>2025-10-25T11:08:06Z</time>
      </trkpt>
      <trkpt lat="48.55599" lon="2.15539">
        <ele>66.4</ele>
        <time>2025-10-25T11:08:08Z</time>
      </trkpt>
      <trkpt lat="48.55601" lon="2.15542">
        <ele>66.4</ele>
        <time>2025-10-25T11:08:10Z</time>
      </trkpt>
      <trkpt lat="48.55603" lon="2.15546">
        <ele>66.2</ele>
        <time>2025-10-25T11:08:12Z</time>
      </trkpt>
      <trkpt lat="48.55604" lon="2.15549">
        <ele>66.2</ele>
        <time>2025-10-25T11:08:14Z</time>
      </trkpt>
      <trkpt lat="48.55606" lon="2.15552">
        <ele>66.2</ele>
        <time>2025-10-25T11:08:16Z</time>
      </trkpt>
      <trkpt lat="48.55608" lon="2.15555">
        <ele>66</ele>
        <time>2025-10-25T11:08:18Z</time>
      </trkpt>
      <trkpt lat="48.5561" lon="2.15558">
        <ele>65.8</ele>
        <time>2025-10-25T11:08:20Z</time>
      </trkpt>
      <trkpt lat="48.55612" lon="2.15561">
        <ele>65.8</ele>
        <time>2025-10-25T11:08:22Z</time>
      </trkpt>
      <trkpt lat="48.55613" lon="2.15565">
        <ele>65.6</ele>
        <time>2025-10-25T11:08:24Z</time>
      </trkpt>
      <trkpt lat="48.55615" lon="2.15568">
        <ele>65.6</ele>
        <time>2025-10-25T11:08:26Z</time>
      </trkpt>
      <trkpt lat="48.55616" lon="2.15571">
        <ele>65.6</ele>
        <time>2025-10-25T11:08:28Z</time>
      </trkpt>
      <trkpt lat="48.55618" lon="2.15574">
        <ele>65.6</ele>
        <time>2025-10-25T11:08:30Z</time>
      </trkpt>
      <trkpt lat="48.5562" lon="2.15577">
        <ele>65.6</ele>
        <time>2025-10-25T11:08:32Z</time>
      </trkpt>
      <trkpt lat="48.55621" lon="2.15581">
        <ele>65.6</ele>
        <time>2025-10-25T11:08:34Z</time>
      </trkpt>
      <trkpt lat="48.55623" lon="2.15584">
        <ele>65.8</ele>
        <time>2025-10-25T11:08:36Z</time>
      </trkpt>
      <trkpt lat="48.55624" lon="2.15588">
        <ele>65.8</ele>
        <time>2025-10-25T11:08:38Z</time>
      </trkpt>
      <trkpt lat="48.55626" lon="2.15591">
        <ele>66</ele>
        <time>2025-10-25T11:08:40Z</time>
      </trkpt>
      <trkpt lat="48.55628" lon="2.15595">
        <ele>65.8</ele>
        <time>2025-10-25T11:08:42Z</time>
      </trkpt>
      <trkpt lat="48.5563" lon="2.15599">
        <ele>65.8</ele>
        <time>2025-10-25T11:08:44Z</time>
      </trkpt>
      <trkpt lat="48.55632" lon="2.15602">
        <ele>65.8</ele>
        <time>2025-10-25T11:08:46Z</time>
      </trkpt>
      <trkpt lat="48.55634" lon="2.15606">
        <ele>65.8</ele>
        <time>2025-10-25T11:08:48Z</time>
      </trkpt>
      <trkpt lat="48.55636" lon="2.15609">
        <ele>66</ele>
        <time>2025-10-25T11:08:50Z</time>
      </trkpt>
      <trkpt lat="48.55639" lon="2.15611">
        <ele>66</ele>
        <time>2025-10-25T11:08:52Z</time>
      </trkpt>
      <trkpt lat="48.55642" lon="2.15613">
        <ele>66.2</ele>
        <time>2025-10-25T11:08:54Z</time>
      </trkpt>
      <trkpt lat="48.55645" lon="2.15613">
        <ele>66.2</ele>
        <time>2025-10-25T11:08:56Z</time>
      </trkpt>
      <trkpt lat="48.55648" lon="2.15613">
        <ele>66.2</ele>
        <time>2025-10-25T11:08:57Z</time>
      </trkpt>
      <trkpt lat="48.5565" lon="2.15613">
        <ele>66.2</ele>
        <time>2025-10-25T11:08:58Z</time>
      </trkpt>
      <trkpt lat="48.55652" lon="2.15612">
        <ele>66.2</ele>
        <time>2025-10-25T11:08:59Z</time>
      </trkpt>
      <trkpt lat="48.55654" lon="2.15611">
        <ele>66.2</ele>
        <time>2025-10-25T11:09:00Z</time>
      </trkpt>
      <trkpt lat="48.55656" lon="2.1561">
        <ele>66.2</ele>
        <time>2025-10-25T11:09:01Z</time>
      </trkpt>
      <trkpt lat="48.55658" lon="2.15609">
        <ele>66.2</ele>
        <time>2025-10-25T11:09:02Z</time>
      </trkpt>
      <trkpt lat="48.5566" lon="2.15606">
        <ele>66.4</ele>
        <time>2025-10-25T11:09:04Z</time>
      </trkpt>
      <trkpt lat="48.55664" lon="2.15604">
        <ele>66.2</ele>
        <time>2025-10-25T11:09:06Z</time>
      </trkpt>
      <trkpt lat="48.55667" lon="2.15603">
        <ele>66.4</ele>
        <time>2025-10-25T11:09:08Z</time>
      </trkpt>
      <trkpt lat="48.55669" lon="2.15601">
        <ele>66.2</ele>
        <time>2025-10-25T11:09:10Z</time>
      </trkpt>
      <trkpt lat="48.55672" lon="2.15599">
        <ele>66.2</ele>
        <time>2025-10-25T11:09:12Z</time>
      </trkpt>
      <trkpt lat="48.55675" lon="2.15597">
        <ele>66.2</ele>
        <time>2025-10-25T11:09:14Z</time>
      </trkpt>
      <trkpt lat="48.55677" lon="2.15595">
        <ele>66.4</ele>
        <time>2025-10-25T11:09:16Z</time>
      </trkpt>
      <trkpt lat="48.5568" lon="2.15593">
        <ele>66.6</ele>
        <time>2025-10-25T11:09:18Z</time>
      </trkpt>
      <trkpt lat="48.55683" lon="2.15591">
        <ele>66.4</ele>
        <time>2025-10-25T11:09:20Z</time>
      </trkpt>
      <trkpt lat="48.55685" lon="2.15589">
        <ele>66.4</ele>
        <time>2025-10-25T11:09:22Z</time>
      </trkpt>
      <trkpt lat="48.55688" lon="2.15587">
        <ele>66.2</ele>
        <time>2025-10-25T11:09:24Z</time>
      </trkpt>
      <trkpt lat="48.55691" lon="2.15585">
        <ele>66.2</ele>
        <time>2025-10-25T11:09:26Z</time>
      </trkpt>
      <trkpt lat="48.55694" lon="2.15583">
        <ele>66.2</ele>
        <time>2025-10-25T11:09:28Z</time>
      </trkpt>
      <trkpt lat="48.55697" lon="2.15581">
        <ele>66.2</ele>
        <time>2025-10-25T11:09:30Z</time>
      </trkpt>
      <trkpt lat="48.557" lon="2.15579">
        <ele>66.2</ele>
        <time>2025-10-25T11:09:32Z</time>
      </trkpt>
      <trkpt lat="48.55703" lon="2.15577">
        <ele>66.2</ele>
        <time>2025-10-25T11:09:34Z</time>
      </trkpt>
      <trkpt lat="48.55706" lon="2.15575">
        <ele>66</ele>
        <time>2025-10-25T11:09:36Z</time>
      </trkpt>
      <trkpt lat="48.55709" lon="2.15573">
        <ele>66</ele>
        <time>2025-10-25T11:09:38Z</time>
      </trkpt>
      <trkpt lat="48.55711" lon="2.15572">
        <ele>65.8</ele>
        <time>2025-10-25T11:09:40Z</time>
      </trkpt>
      <trkpt lat="48.55714" lon="2.1557">
        <ele>65.8</ele>
        <time>2025-10-25T11:09:42Z</time>
      </trkpt>
      <trkpt lat="48.55717" lon="2.15569">
        <ele>65.8</ele>
        <time>2025-10-25T11:09:44Z</time>
      </trkpt>
      <trkpt lat="48.5572" lon="2.15568">
        <ele>65.8</ele>
        <time>2025-10-25T11:09:46Z</time>
      </trkpt>
      <trkpt lat="48.55723" lon="2.15566">
        <ele>65.8</ele>
        <time>2025-10-25T11:09:48Z</time>
      </trkpt>
      <trkpt lat="48.55725" lon="2.15565">
        <ele>65.8</ele>
        <time>2025-10-25T11:09:50Z</time>
      </trkpt>
      <trkpt lat="48.55729" lon="2.15563">
        <ele>65.8</ele>
        <time>2025-10-25T11:09:52Z</time>
      </trkpt>
      <trkpt lat="48.55732" lon="2.15562">
        <ele>65.8</ele>
        <time>2025-10-25T11:09:54Z</time>
      </trkpt>
      <trkpt lat="48.55735" lon="2.1556">
        <ele>66</ele>
        <time>2025-10-25T11:09:56Z</time>
      </trkpt>
      <trkpt lat="48.55738" lon="2.15559">
        <ele>66.2</ele>
        <time>2025-10-25T11:09:58Z</time>
      </trkpt>
      <trkpt lat="48.55741" lon="2.15558">
        <ele>66.2</ele>
        <time>2025-10-25T11:10:00Z</time>
      </trkpt>
      <trkpt lat="48.55743" lon="2.15557">
        <ele>66.2</ele>
        <time>2025-10-25T11:10:02Z</time>
      </trkpt>
      <trkpt lat="48.55746" lon="2.15555">
        <ele>66.2</ele>
        <time>2025-10-25T11:10:04Z</time>
      </trkpt>
      <trkpt lat="48.55749" lon="2.15553">
        <ele>66</ele>
        <time>2025-10-25T11:10:06Z</time>
      </trkpt>
      <trkpt lat="48.55751" lon="2.15552">
        <ele>65.8</ele>
        <time>2025-10-25T11:10:08Z</time>
      </trkpt>
      <trkpt lat="48.55754" lon="2.1555">
        <ele>65.6</ele>
        <time>2025-10-25T11:10:10Z</time>
      </trkpt>
      <trkpt lat="48.55756" lon="2.15548">
        <ele>65.6</ele>
        <time>2025-10-25T11:10:12Z</time>
      </trkpt>
      <trkpt lat="48.55759" lon="2.15546">
        <ele>65.8</ele>
        <time>2025-10-25T11:10:14Z</time>
      </trkpt>
      <trkpt lat="48.55761" lon="2.15543">
        <ele>65.8</ele>
        <time>2025-10-25T11:10:16Z</time>
      </trkpt>
      <trkpt lat="48.55763" lon="2.15541">
        <ele>65.6</ele>
        <time>2025-10-25T11:10:18Z</time>
      </trkpt>
      <trkpt lat="48.55766" lon="2.15539">
        <ele>65.6</ele>
        <time>2025-10-25T11:10:20Z</time>
      </trkpt>
      <trkpt lat="48.55768" lon="2.15537">
        <ele>65.6</ele>
        <time>2025-10-25T11:10:22Z</time>
      </trkpt>
      <trkpt lat="48.55771" lon="2.15535">
        <ele>65.6</ele>
        <time>2025-10-25T11:10:24Z</time>
      </trkpt>
      <trkpt lat="48.55772" lon="2.15532">
        <ele>65.6</ele>
        <time>2025-10-25T11:10:26Z</time>
      </trkpt>
      <trkpt lat="48.55774" lon="2.15529">
        <ele>65.6</ele>
        <time>2025-10-25T11:10:28Z</time>
      </trkpt>
      <trkpt lat="48.55776" lon="2.15526">
        <ele>65.6</ele>
        <time>2025-10-25T11:10:30Z</time>
      </trkpt>
      <trkpt lat="48.55778" lon="2.15523">
        <ele>65.6</ele>
        <time>2025-10-25T11:10:32Z</time>
      </trkpt>
      <trkpt lat="48.55779" lon="2.15519">
        <ele>65.6</ele>
        <time>2025-10-25T11:10:34Z</time>
      </trkpt>
      <trkpt lat="48.5578" lon="2.15515">
        <ele>65.6</ele>
        <time>2025-10-25T11:10:36Z</time>
      </trkpt>
      <trkpt lat="48.55782" lon="2.15511">
        <ele>65.6</ele>
        <time>2025-10-25T11:10:38Z</time>
      </trkpt>
      <trkpt lat="48.55783" lon="2.15507">
        <ele>65.6</ele>
        <time>2025-10-25T11:10:40Z</time>
      </trkpt>
      <trkpt lat="48.55784" lon="2.15503">
        <ele>65.8</ele>
        <time>2025-10-25T11:10:42Z</time>
      </trkpt>
      <trkpt lat="48.55785" lon="2.15499">
        <ele>66</ele>
        <time>2025-10-25T11:10:44Z</time>
      </trkpt>
      <trkpt lat="48.55787" lon="2.15495">
        <ele>66</ele>
        <time>2025-10-25T11:10:46Z</time>
      </trkpt>
      <trkpt lat="48.55788" lon="2.15492">
        <ele>66.2</ele>
        <time>2025-10-25T11:10:48Z</time>
      </trkpt>
      <trkpt lat="48.55789" lon="2.15488">
        <ele>66.2</ele>
        <time>2025-10-25T11:10:50Z</time>
      </trkpt>
      <trkpt lat="48.5579" lon="2.15484">
        <ele>66.4</ele>
        <time>2025-10-25T11:10:52Z</time>
      </trkpt>
      <trkpt lat="48.55792" lon="2.1548">
        <ele>66.4</ele>
        <time>2025-10-25T11:10:54Z</time>
      </trkpt>
      <trkpt lat="48.55794" lon="2.15477">
        <ele>66.4</ele>
        <time>2025-10-25T11:10:56Z</time>
      </trkpt>
      <trkpt lat="48.55796" lon="2.15475">
        <ele>66.4</ele>
        <time>2025-10-25T11:10:58Z</time>
      </trkpt>
      <trkpt lat="48.55797" lon="2.15473">
        <ele>67</ele>
        <time>2025-10-25T11:11:01Z</time>
      </trkpt>
      <trkpt lat="48.55795" lon="2.15471">
        <ele>67.4</ele>
        <time>2025-10-25T11:11:07Z</time>
      </trkpt>
      <trkpt lat="48.55796" lon="2.1547">
        <ele>67.6</ele>
        <time>2025-10-25T11:11:12Z</time>
      </trkpt>
      <trkpt lat="48.55798" lon="2.15469">
        <ele>67.6</ele>
        <time>2025-10-25T11:11:14Z</time>
      </trkpt>
      <trkpt lat="48.55801" lon="2.15467">
        <ele>67.8</ele>
        <time>2025-10-25T11:11:16Z</time>
      </trkpt>
      <trkpt lat="48.55804" lon="2.15466">
        <ele>68</ele>
        <time>2025-10-25T11:11:18Z</time>
      </trkpt>
      <trkpt lat="48.55806" lon="2.15463">
        <ele>68.2</ele>
        <time>2025-10-25T11:11:20Z</time>
      </trkpt>
      <trkpt lat="48.55808" lon="2.15461">
        <ele>68.2</ele>
        <time>2025-10-25T11:11:22Z</time>
      </trkpt>
      <trkpt lat="48.5581" lon="2.15458">
        <ele>68.4</ele>
        <time>2025-10-25T11:11:24Z</time>
      </trkpt>
      <trkpt lat="48.55812" lon="2.15455">
        <ele>68.6</ele>
        <time>2025-10-25T11:11:26Z</time>
      </trkpt>
      <trkpt lat="48.55812" lon="2.15452">
        <ele>68.8</ele>
        <time>2025-10-25T11:11:28Z</time>
      </trkpt>
      <trkpt lat="48.55812" lon="2.15449">
        <ele>69</ele>
        <time>2025-10-25T11:11:31Z</time>
      </trkpt>
      <trkpt lat="48.55812" lon="2.15446">
        <ele>68.2</ele>
        <time>2025-10-25T11:11:56Z</time>
      </trkpt>
      <trkpt lat="48.55811" lon="2.15443">
        <ele>68.2</ele>
        <time>2025-10-25T11:11:58Z</time>
      </trkpt>
      <trkpt lat="48.5581" lon="2.15438">
        <ele>68.4</ele>
        <time>2025-10-25T11:12:00Z</time>
      </trkpt>
      <trkpt lat="48.55809" lon="2.15433">
        <ele>68.6</ele>
        <time>2025-10-25T11:12:02Z</time>
      </trkpt>
      <trkpt lat="48.55809" lon="2.15428">
        <ele>68.8</ele>
        <time>2025-10-25T11:12:04Z</time>
      </trkpt>
      <trkpt lat="48.55809" lon="2.15424">
        <ele>69</ele>
        <time>2025-10-25T11:12:06Z</time>
      </trkpt>
      <trkpt lat="48.55809" lon="2.15419">
        <ele>69</ele>
        <time>2025-10-25T11:12:08Z</time>
      </trkpt>
      <trkpt lat="48.5581" lon="2.15415">
        <ele>69</ele>
        <time>2025-10-25T11:12:10Z</time>
      </trkpt>
      <trkpt lat="48.55811" lon="2.15411">
        <ele>69</ele>
        <time>2025-10-25T11:12:12Z</time>
      </trkpt>
      <trkpt lat="48.55812" lon="2.15408">
        <ele>69.2</ele>
        <time>2025-10-25T11:12:14Z</time>
      </trkpt>
      <trkpt lat="48.55813" lon="2.15404">
        <ele>69.2</ele>
        <time>2025-10-25T11:12:16Z</time>
      </trkpt>
      <trkpt lat="48.55814" lon="2.154">
        <ele>69.2</ele>
        <time>2025-10-25T11:12:18Z</time>
      </trkpt>
      <trkpt lat="48.55815" lon="2.15396">
        <ele>69.4</ele>
        <time>2025-10-25T11:12:20Z</time>
      </trkpt>
      <trkpt lat="48.55816" lon="2.15392">
        <ele>69.4</ele>
        <time>2025-10-25T11:12:22Z</time>
      </trkpt>
      <trkpt lat="48.55817" lon="2.15389">
        <ele>69.4</ele>
        <time>2025-10-25T11:12:24Z</time>
      </trkpt>
      <trkpt lat="48.55819" lon="2.15385">
        <ele>69.6</ele>
        <time>2025-10-25T11:12:26Z</time>
      </trkpt>
      <trkpt lat="48.5582" lon="2.15382">
        <ele>69.8</ele>
        <time>2025-10-25T11:12:28Z</time>
      </trkpt>
      <trkpt lat="48.55822" lon="2.15379">
        <ele>69.8</ele>
        <time>2025-10-25T11:12:30Z</time>
      </trkpt>
      <trkpt lat="48.55824" lon="2.15376">
        <ele>69.8</ele>
        <time>2025-10-25T11:12:32Z</time>
      </trkpt>
      <trkpt lat="48.55825" lon="2.15374">
        <ele>69.8</ele>
        <time>2025-10-25T11:12:34Z</time>
      </trkpt>
      <trkpt lat="48.55826" lon="2.15371">
        <ele>69.8</ele>
        <time>2025-10-25T11:12:36Z</time>
      </trkpt>
      <trkpt lat="48.55828" lon="2.15368">
        <ele>69.8</ele>
        <time>2025-10-25T11:12:38Z</time>
      </trkpt>
      <trkpt lat="48.5583" lon="2.15366">
        <ele>69.8</ele>
        <time>2025-10-25T11:12:40Z</time>
      </trkpt>
      <trkpt lat="48.55832" lon="2.15363">
        <ele>70</ele>
        <time>2025-10-25T11:12:42Z</time>
      </trkpt>
      <trkpt lat="48.55834" lon="2.15361">
        <ele>70.4</ele>
        <time>2025-10-25T11:12:44Z</time>
      </trkpt>
      <trkpt lat="48.55835" lon="2.15359">
        <ele>70.6</ele>
        <time>2025-10-25T11:12:46Z</time>
      </trkpt>
      <trkpt lat="48.55837" lon="2.15357">
        <ele>70.8</ele>
        <time>2025-10-25T11:12:48Z</time>
      </trkpt>
      <trkpt lat="48.55838" lon="2.15354">
        <ele>71.2</ele>
        <time>2025-10-25T11:12:50Z</time>
      </trkpt>
      <trkpt lat="48.5584" lon="2.15352">
        <ele>71.6</ele>
        <time>2025-10-25T11:12:52Z</time>
      </trkpt>
      <trkpt lat="48.55841" lon="2.15349">
        <ele>71.8</ele>
        <time>2025-10-25T11:12:54Z</time>
      </trkpt>
      <trkpt lat="48.55842" lon="2.15346">
        <ele>72</ele>
        <time>2025-10-25T11:12:56Z</time>
      </trkpt>
      <trkpt lat="48.55844" lon="2.15343">
        <ele>72</ele>
        <time>2025-10-25T11:12:58Z</time>
      </trkpt>
      <trkpt lat="48.55846" lon="2.1534">
        <ele>72.2</ele>
        <time>2025-10-25T11:13:00Z</time>
      </trkpt>
      <trkpt lat="48.55847" lon="2.15337">
        <ele>72.2</ele>
        <time>2025-10-25T11:13:02Z</time>
      </trkpt>
      <trkpt lat="48.55849" lon="2.15335">
        <ele>72.2</ele>
        <time>2025-10-25T11:13:04Z</time>
      </trkpt>
      <trkpt lat="48.55851" lon="2.15333">
        <ele>72.4</ele>
        <time>2025-10-25T11:13:06Z</time>
      </trkpt>
      <trkpt lat="48.55853" lon="2.15331">
        <ele>72.4</ele>
        <time>2025-10-25T11:13:08Z</time>
      </trkpt>
      <trkpt lat="48.55855" lon="2.15329">
        <ele>72.6</ele>
        <time>2025-10-25T11:13:10Z</time>
      </trkpt>
      <trkpt lat="48.55857" lon="2.15328">
        <ele>72.8</ele>
        <time>2025-10-25T11:13:12Z</time>
      </trkpt>
      <trkpt lat="48.5586" lon="2.15328">
        <ele>73</ele>
        <time>2025-10-25T11:13:14Z</time>
      </trkpt>
      <trkpt lat="48.55862" lon="2.15328">
        <ele>73.4</ele>
        <time>2025-10-25T11:13:16Z</time>
      </trkpt>
      <trkpt lat="48.55864" lon="2.15327">
        <ele>73.6</ele>
        <time>2025-10-25T11:13:18Z</time>
      </trkpt>
      <trkpt lat="48.55866" lon="2.15325">
        <ele>74</ele>
        <time>2025-10-25T11:13:20Z</time>
      </trkpt>
      <trkpt lat="48.55868" lon="2.15323">
        <ele>74</ele>
        <time>2025-10-25T11:13:22Z</time>
      </trkpt>
      <trkpt lat="48.5587" lon="2.15321">
        <ele>74.2</ele>
        <time>2025-10-25T11:13:24Z</time>
      </trkpt>
      <trkpt lat="48.55873" lon="2.15319">
        <ele>74.4</ele>
        <time>2025-10-25T11:13:26Z</time>
      </trkpt>
      <trkpt lat="48.55875" lon="2.15317">
        <ele>74.6</ele>
        <time>2025-10-25T11:13:28Z</time>
      </trkpt>
      <trkpt lat="48.55876" lon="2.15314">
        <ele>75</ele>
        <time>2025-10-25T11:13:30Z</time>
      </trkpt>
      <trkpt lat="48.55878" lon="2.15312">
        <ele>75.2</ele>
        <time>2025-10-25T11:13:32Z</time>
      </trkpt>
      <trkpt lat="48.5588" lon="2.1531">
        <ele>75.4</ele>
        <time>2025-10-25T11:13:34Z</time>
      </trkpt>
      <trkpt lat="48.55882" lon="2.15308">
        <ele>75.6</ele>
        <time>2025-10-25T11:13:36Z</time>
      </trkpt>
      <trkpt lat="48.55884" lon="2.15306">
        <ele>75.6</ele>
        <time>2025-10-25T11:13:38Z</time>
      </trkpt>
      <trkpt lat="48.55885" lon="2.15304">
        <ele>75.6</ele>
        <time>2025-10-25T11:13:40Z</time>
      </trkpt>
      <trkpt lat="48.55887" lon="2.15301">
        <ele>75.8</ele>
        <time>2025-10-25T11:13:42Z</time>
      </trkpt>
      <trkpt lat="48.5589" lon="2.15299">
        <ele>76.2</ele>
        <time>2025-10-25T11:13:45Z</time>
      </trkpt>
      <trkpt lat="48.55892" lon="2.15297">
        <ele>76.4</ele>
        <time>2025-10-25T11:13:47Z</time>
      </trkpt>
      <trkpt lat="48.55893" lon="2.15294">
        <ele>76.6</ele>
        <time>2025-10-25T11:13:49Z</time>
      </trkpt>
      <trkpt lat="48.55895" lon="2.15292">
        <ele>76.8</ele>
        <time>2025-10-25T11:13:51Z</time>
      </trkpt>
      <trkpt lat="48.55897" lon="2.1529">
        <ele>77</ele>
        <time>2025-10-25T11:13:53Z</time>
      </trkpt>
      <trkpt lat="48.559" lon="2.15288">
        <ele>77.2</ele>
        <time>2025-10-25T11:13:55Z</time>
      </trkpt>
      <trkpt lat="48.55901" lon="2.15286">
        <ele>77.4</ele>
        <time>2025-10-25T11:13:57Z</time>
      </trkpt>
      <trkpt lat="48.55903" lon="2.15283">
        <ele>77.6</ele>
        <time>2025-10-25T11:13:59Z</time>
      </trkpt>
      <trkpt lat="48.55905" lon="2.15281">
        <ele>77.8</ele>
        <time>2025-10-25T11:14:01Z</time>
      </trkpt>
      <trkpt lat="48.55907" lon="2.15279">
        <ele>78.2</ele>
        <time>2025-10-25T11:14:03Z</time>
      </trkpt>
      <trkpt lat="48.55908" lon="2.15277">
        <ele>78.6</ele>
        <time>2025-10-25T11:14:05Z</time>
      </trkpt>
      <trkpt lat="48.5591" lon="2.15274">
        <ele>78.8</ele>
        <time>2025-10-25T11:14:07Z</time>
      </trkpt>
      <trkpt lat="48.55912" lon="2.15272">
        <ele>79.2</ele>
        <time>2025-10-25T11:14:09Z</time>
      </trkpt>
      <trkpt lat="48.55914" lon="2.1527">
        <ele>79.4</ele>
        <time>2025-10-25T11:14:11Z</time>
      </trkpt>
      <trkpt lat="48.55916" lon="2.15268">
        <ele>79.8</ele>
        <time>2025-10-25T11:14:13Z</time>
      </trkpt>
      <trkpt lat="48.55917" lon="2.15265">
        <ele>80</ele>
        <time>2025-10-25T11:14:15Z</time>
      </trkpt>
      <trkpt lat="48.55919" lon="2.15263">
        <ele>80.2</ele>
        <time>2025-10-25T11:14:17Z</time>
      </trkpt>
      <trkpt lat="48.55921" lon="2.15261">
        <ele>80.4</ele>
        <time>2025-10-25T11:14:19Z</time>
      </trkpt>
      <trkpt lat="48.55924" lon="2.15259">
        <ele>80.4</ele>
        <time>2025-10-25T11:14:22Z</time>
      </trkpt>
      <trkpt lat="48.55926" lon="2.15256">
        <ele>80.8</ele>
        <time>2025-10-25T11:14:27Z</time>
      </trkpt>
      <trkpt lat="48.55926" lon="2.15252">
        <ele>85.4</ele>
        <time>2025-10-25T11:15:11Z</time>
      </trkpt>
      <trkpt lat="48.55927" lon="2.15248">
        <ele>85.4</ele>
        <time>2025-10-25T11:15:13Z</time>
      </trkpt>
      <trkpt lat="48.55928" lon="2.15244">
        <ele>85.6</ele>
        <time>2025-10-25T11:15:15Z</time>
      </trkpt>
      <trkpt lat="48.55929" lon="2.15239">
        <ele>85.4</ele>
        <time>2025-10-25T11:15:17Z</time>
      </trkpt>
      <trkpt lat="48.5593" lon="2.15234">
        <ele>85.6</ele>
        <time>2025-10-25T11:15:19Z</time>
      </trkpt>
      <trkpt lat="48.5593" lon="2.1523">
        <ele>85.6</ele>
        <time>2025-10-25T11:15:21Z</time>
      </trkpt>
      <trkpt lat="48.5593" lon="2.15226">
        <ele>85.6</ele>
        <time>2025-10-25T11:15:23Z</time>
      </trkpt>
      <trkpt lat="48.55931" lon="2.15222">
        <ele>85.8</ele>
        <time>2025-10-25T11:15:25Z</time>
      </trkpt>
      <trkpt lat="48.55932" lon="2.15218">
        <ele>86</ele>
        <time>2025-10-25T11:15:27Z</time>
      </trkpt>
      <trkpt lat="48.55932" lon="2.15215">
        <ele>86.2</ele>
        <time>2025-10-25T11:15:29Z</time>
      </trkpt>
      <trkpt lat="48.55932" lon="2.15212">
        <ele>86.4</ele>
        <time>2025-10-25T11:15:31Z</time>
      </trkpt>
      <trkpt lat="48.55933" lon="2.15209">
        <ele>86.6</ele>
        <time>2025-10-25T11:15:33Z</time>
      </trkpt>
      <trkpt lat="48.55934" lon="2.15206">
        <ele>86.8</ele>
        <time>2025-10-25T11:15:35Z</time>
      </trkpt>
      <trkpt lat="48.55935" lon="2.15203">
        <ele>87</ele>
        <time>2025-10-25T11:15:37Z</time>
      </trkpt>
      <trkpt lat="48.55936" lon="2.152">
        <ele>87.4</ele>
        <time>2025-10-25T11:15:39Z</time>
      </trkpt>
      <trkpt lat="48.55937" lon="2.15197">
        <ele>87.6</ele>
        <time>2025-10-25T11:15:41Z</time>
      </trkpt>
      <trkpt lat="48.55937" lon="2.15194">
        <ele>87.8</ele>
        <time>2025-10-25T11:15:43Z</time>
      </trkpt>
      <trkpt lat="48.55938" lon="2.1519">
        <ele>88</ele>
        <time>2025-10-25T11:15:45Z</time>
      </trkpt>
      <trkpt lat="48.5594" lon="2.15186">
        <ele>88.4</ele>
        <time>2025-10-25T11:15:47Z</time>
      </trkpt>
      <trkpt lat="48.5594" lon="2.15183">
        <ele>88.6</ele>
        <time>2025-10-25T11:15:49Z</time>
      </trkpt>
      <trkpt lat="48.55942" lon="2.15179">
        <ele>88.6</ele>
        <time>2025-10-25T11:15:51Z</time>
      </trkpt>
      <trkpt lat="48.55944" lon="2.15175">
        <ele>88.8</ele>
        <time>2025-10-25T11:15:53Z</time>
      </trkpt>
      <trkpt lat="48.55946" lon="2.15172">
        <ele>89</ele>
        <time>2025-10-25T11:15:55Z</time>
      </trkpt>
      <trkpt lat="48.55947" lon="2.15169">
        <ele>89</ele>
        <time>2025-10-25T11:15:57Z</time>
      </trkpt>
      <trkpt lat="48.55948" lon="2.15165">
        <ele>89</ele>
        <time>2025-10-25T11:15:59Z</time>
      </trkpt>
      <trkpt lat="48.5595" lon="2.15162">
        <ele>89.2</ele>
        <time>2025-10-25T11:16:01Z</time>
      </trkpt>
      <trkpt lat="48.55953" lon="2.1516">
        <ele>89</ele>
        <time>2025-10-25T11:16:03Z</time>
      </trkpt>
      <trkpt lat="48.55955" lon="2.15157">
        <ele>89</ele>
        <time>2025-10-25T11:16:05Z</time>
      </trkpt>
      <trkpt lat="48.55956" lon="2.15154">
        <ele>89</ele>
        <time>2025-10-25T11:16:07Z</time>
      </trkpt>
      <trkpt lat="48.55957" lon="2.15151">
        <ele>89</ele>
        <time>2025-10-25T11:16:09Z</time>
      </trkpt>
      <trkpt lat="48.55958" lon="2.15148">
        <ele>89.2</ele>
        <time>2025-10-25T11:16:11Z</time>
      </trkpt>
      <trkpt lat="48.5596" lon="2.15144">
        <ele>89.4</ele>
        <time>2025-10-25T11:16:13Z</time>
      </trkpt>
      <trkpt lat="48.55961" lon="2.15141">
        <ele>89.6</ele>
        <time>2025-10-25T11:16:15Z</time>
      </trkpt>
      <trkpt lat="48.55962" lon="2.15137">
        <ele>89.8</ele>
        <time>2025-10-25T11:16:17Z</time>
      </trkpt>
      <trkpt lat="48.55964" lon="2.15134">
        <ele>90</ele>
        <time>2025-10-25T11:16:19Z</time>
      </trkpt>
      <trkpt lat="48.55965" lon="2.1513">
        <ele>90.4</ele>
        <time>2025-10-25T11:16:21Z</time>
      </trkpt>
      <trkpt lat="48.55967" lon="2.15126">
        <ele>91</ele>
        <time>2025-10-25T11:16:23Z</time>
      </trkpt>
      <trkpt lat="48.55968" lon="2.15122">
        <ele>91.4</ele>
        <time>2025-10-25T11:16:25Z</time>
      </trkpt>
      <trkpt lat="48.55969" lon="2.15119">
        <ele>91.8</ele>
        <time>2025-10-25T11:16:27Z</time>
      </trkpt>
      <trkpt lat="48.55971" lon="2.15116">
        <ele>92.2</ele>
        <time>2025-10-25T11:16:29Z</time>
      </trkpt>
      <trkpt lat="48.55972" lon="2.15113">
        <ele>92.4</ele>
        <time>2025-10-25T11:16:31Z</time>
      </trkpt>
      <trkpt lat="48.55973" lon="2.1511">
        <ele>92.6</ele>
        <time>2025-10-25T11:16:33Z</time>
      </trkpt>
      <trkpt lat="48.55975" lon="2.15106">
        <ele>92.8</ele>
        <time>2025-10-25T11:16:35Z</time>
      </trkpt>
      <trkpt lat="48.55976" lon="2.15103">
        <ele>93</ele>
        <time>2025-10-25T11:16:37Z</time>
      </trkpt>
      <trkpt lat="48.55978" lon="2.151">
        <ele>93.2</ele>
        <time>2025-10-25T11:16:39Z</time>
      </trkpt>
      <trkpt lat="48.5598" lon="2.15097">
        <ele>93.4</ele>
        <time>2025-10-25T11:16:41Z</time>
      </trkpt>
      <trkpt lat="48.55982" lon="2.15094">
        <ele>93.4</ele>
        <time>2025-10-25T11:16:43Z</time>
      </trkpt>
      <trkpt lat="48.55984" lon="2.15092">
        <ele>93.8</ele>
        <time>2025-10-25T11:16:45Z</time>
      </trkpt>
      <trkpt lat="48.55986" lon="2.1509">
        <ele>94</ele>
        <time>2025-10-25T11:16:47Z</time>
      </trkpt>
      <trkpt lat="48.55988" lon="2.15088">
        <ele>94</ele>
        <time>2025-10-25T11:16:49Z</time>
      </trkpt>
      <trkpt lat="48.5599" lon="2.15086">
        <ele>94.2</ele>
        <time>2025-10-25T11:16:51Z</time>
      </trkpt>
      <trkpt lat="48.55992" lon="2.15083">
        <ele>94.4</ele>
        <time>2025-10-25T11:16:53Z</time>
      </trkpt>
      <trkpt lat="48.55994" lon="2.1508">
        <ele>94.8</ele>
        <time>2025-10-25T11:16:55Z</time>
      </trkpt>
      <trkpt lat="48.55996" lon="2.15077">
        <ele>95</ele>
        <time>2025-10-25T11:16:57Z</time>
      </trkpt>
      <trkpt lat="48.55997" lon="2.15073">
        <ele>95.2</ele>
        <time>2025-10-25T11:16:59Z</time>
      </trkpt>
      <trkpt lat="48.55999" lon="2.15069">
        <ele>95.4</ele>
        <time>2025-10-25T11:17:01Z</time>
      </trkpt>
      <trkpt lat="48.56" lon="2.15066">
        <ele>95.6</ele>
        <time>2025-10-25T11:17:02Z</time>
      </trkpt>
      <trkpt lat="48.56001" lon="2.15064">
        <ele>95.6</ele>
        <time>2025-10-25T11:17:03Z</time>
      </trkpt>
      <trkpt lat="48.56002" lon="2.15061">
        <ele>95.8</ele>
        <time>2025-10-25T11:17:04Z</time>
      </trkpt>
      <trkpt lat="48.56004" lon="2.15058">
        <ele>95.8</ele>
        <time>2025-10-25T11:17:05Z</time>
      </trkpt>
      <trkpt lat="48.56005" lon="2.15055">
        <ele>95.8</ele>
        <time>2025-10-25T11:17:06Z</time>
      </trkpt>
      <trkpt lat="48.56007" lon="2.15052">
        <ele>95.8</ele>
        <time>2025-10-25T11:17:07Z</time>
      </trkpt>
      <trkpt lat="48.56008" lon="2.15049">
        <ele>96</ele>
        <time>2025-10-25T11:17:08Z</time>
      </trkpt>
      <trkpt lat="48.56009" lon="2.15046">
        <ele>96</ele>
        <time>2025-10-25T11:17:09Z</time>
      </trkpt>
      <trkpt lat="48.56011" lon="2.15043">
        <ele>96.2</ele>
        <time>2025-10-25T11:17:10Z</time>
      </trkpt>
      <trkpt lat="48.56012" lon="2.1504">
        <ele>96.4</ele>
        <time>2025-10-25T11:17:11Z</time>
      </trkpt>
      <trkpt lat="48.56013" lon="2.15037">
        <ele>96.4</ele>
        <time>2025-10-25T11:17:12Z</time>
      </trkpt>
      <trkpt lat="48.56015" lon="2.15034">
        <ele>96.6</ele>
        <time>2025-10-25T11:17:13Z</time>
      </trkpt>
      <trkpt lat="48.56016" lon="2.15031">
        <ele>96.8</ele>
        <time>2025-10-25T11:17:14Z</time>
      </trkpt>
      <trkpt lat="48.56017" lon="2.15027">
        <ele>96.8</ele>
        <time>2025-10-25T11:17:15Z</time>
      </trkpt>
      <trkpt lat="48.56019" lon="2.15022">
        <ele>97</ele>
        <time>2025-10-25T11:17:16Z</time>
      </trkpt>
      <trkpt lat="48.5602" lon="2.15018">
        <ele>97.2</ele>
        <time>2025-10-25T11:17:17Z</time>
      </trkpt>
      <trkpt lat="48.56021" lon="2.15013">
        <ele>97.2</ele>
        <time>2025-10-25T11:17:18Z</time>
      </trkpt>
      <trkpt lat="48.56023" lon="2.15009">
        <ele>97.2</ele>
        <time>2025-10-25T11:17:19Z</time>
      </trkpt>
      <trkpt lat="48.56024" lon="2.15005">
        <ele>97.2</ele>
        <time>2025-10-25T11:17:20Z</time>
      </trkpt>
      <trkpt lat="48.56025" lon="2.15002">
        <ele>97.4</ele>
        <time>2025-10-25T11:17:21Z</time>
      </trkpt>
      <trkpt lat="48.56027" lon="2.14999">
        <ele>97.4</ele>
        <time>2025-10-25T11:17:22Z</time>
      </trkpt>
      <trkpt lat="48.56028" lon="2.14996">
        <ele>97.6</ele>
        <time>2025-10-25T11:17:23Z</time>
      </trkpt>
      <trkpt lat="48.56029" lon="2.14993">
        <ele>97.6</ele>
        <time>2025-10-25T11:17:24Z</time>
      </trkpt>
      <trkpt lat="48.56031" lon="2.1499">
        <ele>97.8</ele>
        <time>2025-10-25T11:17:25Z</time>
      </trkpt>
      <trkpt lat="48.56032" lon="2.14987">
        <ele>98</ele>
        <time>2025-10-25T11:17:26Z</time>
      </trkpt>
      <trkpt lat="48.56034" lon="2.14983">
        <ele>98.2</ele>
        <time>2025-10-25T11:17:27Z</time>
      </trkpt>
      <trkpt lat="48.56035" lon="2.1498">
        <ele>98.4</ele>
        <time>2025-10-25T11:17:28Z</time>
      </trkpt>
      <trkpt lat="48.56037" lon="2.14976">
        <ele>98.6</ele>
        <time>2025-10-25T11:17:29Z</time>
      </trkpt>
      <trkpt lat="48.56039" lon="2.14973">
        <ele>98.6</ele>
        <time>2025-10-25T11:17:30Z</time>
      </trkpt>
      <trkpt lat="48.56041" lon="2.14969">
        <ele>98.8</ele>
        <time>2025-10-25T11:17:31Z</time>
      </trkpt>
      <trkpt lat="48.56044" lon="2.14965">
        <ele>99</ele>
        <time>2025-10-25T11:17:32Z</time>
      </trkpt>
      <trkpt lat="48.56046" lon="2.14961">
        <ele>99</ele>
        <time>2025-10-25T11:17:33Z</time>
      </trkpt>
      <trkpt lat="48.56048" lon="2.14958">
        <ele>99.2</ele>
        <time>2025-10-25T11:17:34Z</time>
      </trkpt>
      <trkpt lat="48.5605" lon="2.14954">
        <ele>99.4</ele>
        <time>2025-10-25T11:17:35Z</time>
      </trkpt>
      <trkpt lat="48.56052" lon="2.14951">
        <ele>99.4</ele>
        <time>2025-10-25T11:17:36Z</time>
      </trkpt>
      <trkpt lat="48.56054" lon="2.14947">
        <ele>99.6</ele>
        <time>2025-10-25T11:17:37Z</time>
      </trkpt>
      <trkpt lat="48.56056" lon="2.14944">
        <ele>99.6</ele>
        <time>2025-10-25T11:17:38Z</time>
      </trkpt>
      <trkpt lat="48.56058" lon="2.14941">
        <ele>99.6</ele>
        <time>2025-10-25T11:17:39Z</time>
      </trkpt>
      <trkpt lat="48.5606" lon="2.14938">
        <ele>99.6</ele>
        <time>2025-10-25T11:17:40Z</time>
      </trkpt>
      <trkpt lat="48.56062" lon="2.14935">
        <ele>99.6</ele>
        <time>2025-10-25T11:17:41Z</time>
      </trkpt>
      <trkpt lat="48.56064" lon="2.14931">
        <ele>99.8</ele>
        <time>2025-10-25T11:17:42Z</time>
      </trkpt>
      <trkpt lat="48.56066" lon="2.14928">
        <ele>99.8</ele>
        <time>2025-10-25T11:17:43Z</time>
      </trkpt>
      <trkpt lat="48.56068" lon="2.14925">
        <ele>100</ele>
        <time>2025-10-25T11:17:44Z</time>
      </trkpt>
      <trkpt lat="48.56069" lon="2.14921">
        <ele>100</ele>
        <time>2025-10-25T11:17:45Z</time>
      </trkpt>
      <trkpt lat="48.56071" lon="2.14918">
        <ele>100</ele>
        <time>2025-10-25T11:17:46Z</time>
      </trkpt>
      <trkpt lat="48.56073" lon="2.14914">
        <ele>100</ele>
        <time>2025-10-25T11:17:47Z</time>
      </trkpt>
      <trkpt lat="48.56075" lon="2.1491">
        <ele>100</ele>
        <time>2025-10-25T11:17:48Z</time>
      </trkpt>
      <trkpt lat="48.56076" lon="2.14906">
        <ele>100.2</ele>
        <time>2025-10-25T11:17:49Z</time>
      </trkpt>
      <trkpt lat="48.56077" lon="2.14902">
        <ele>100.2</ele>
        <time>2025-10-25T11:17:50Z</time>
      </trkpt>
      <trkpt lat="48.56079" lon="2.14898">
        <ele>100.2</ele>
        <time>2025-10-25T11:17:51Z</time>
      </trkpt>
      <trkpt lat="48.56079" lon="2.14894">
        <ele>100.2</ele>
        <time>2025-10-25T11:17:52Z</time>
      </trkpt>
      <trkpt lat="48.5608" lon="2.1489">
        <ele>100.4</ele>
        <time>2025-10-25T11:17:53Z</time>
      </trkpt>
      <trkpt lat="48.56081" lon="2.14886">
        <ele>100.4</ele>
        <time>2025-10-25T11:17:54Z</time>
      </trkpt>
      <trkpt lat="48.56082" lon="2.14883">
        <ele>100.4</ele>
        <time>2025-10-25T11:17:55Z</time>
      </trkpt>
      <trkpt lat="48.56083" lon="2.14879">
        <ele>100.6</ele>
        <time>2025-10-25T11:17:56Z</time>
      </trkpt>
      <trkpt lat="48.56083" lon="2.14874">
        <ele>100.6</ele>
        <time>2025-10-25T11:17:57Z</time>
      </trkpt>
      <trkpt lat="48.56084" lon="2.1487">
        <ele>100.6</ele>
        <time>2025-10-25T11:17:58Z</time>
      </trkpt>
      <trkpt lat="48.56085" lon="2.14866">
        <ele>100.6</ele>
        <time>2025-10-25T11:17:59Z</time>
      </trkpt>
      <trkpt lat="48.56085" lon="2.14862">
        <ele>100.6</ele>
        <time>2025-10-25T11:18:00Z</time>
      </trkpt>
      <trkpt lat="48.56086" lon="2.14858">
        <ele>100.4</ele>
        <time>2025-10-25T11:18:01Z</time>
      </trkpt>
      <trkpt lat="48.56087" lon="2.14854">
        <ele>100.4</ele>
        <time>2025-10-25T11:18:02Z</time>
      </trkpt>
      <trkpt lat="48.56088" lon="2.14851">
        <ele>100.4</ele>
        <time>2025-10-25T11:18:03Z</time>
      </trkpt>
      <trkpt lat="48.56089" lon="2.14848">
        <ele>100.4</ele>
        <time>2025-10-25T11:18:05Z</time>
      </trkpt>
      <trkpt lat="48.56089" lon="2.14845">
        <ele>100.8</ele>
        <time>2025-10-25T11:18:10Z</time>
      </trkpt>
      <trkpt lat="48.5609" lon="2.14841">
        <ele>101.4</ele>
        <time>2025-10-25T11:18:13Z</time>
      </trkpt>
      <trkpt lat="48.56091" lon="2.14836">
        <ele>101.6</ele>
        <time>2025-10-25T11:18:15Z</time>
      </trkpt>
      <trkpt lat="48.56092" lon="2.14834">
        <ele>101.8</ele>
        <time>2025-10-25T11:18:16Z</time>
      </trkpt>
      <trkpt lat="48.56093" lon="2.14831">
        <ele>101.8</ele>
        <time>2025-10-25T11:18:17Z</time>
      </trkpt>
      <trkpt lat="48.56095" lon="2.14828">
        <ele>102</ele>
        <time>2025-10-25T11:18:18Z</time>
      </trkpt>
      <trkpt lat="48.56096" lon="2.14825">
        <ele>102</ele>
        <time>2025-10-25T11:18:19Z</time>
      </trkpt>
      <trkpt lat="48.56097" lon="2.14822">
        <ele>102.2</ele>
        <time>2025-10-25T11:18:20Z</time>
      </trkpt>
      <trkpt lat="48.56099" lon="2.14819">
        <ele>102.2</ele>
        <time>2025-10-25T11:18:21Z</time>
      </trkpt>
      <trkpt lat="48.561" lon="2.14816">
        <ele>102.4</ele>
        <time>2025-10-25T11:18:22Z</time>
      </trkpt>
      <trkpt lat="48.56101" lon="2.14813">
        <ele>102.6</ele>
        <time>2025-10-25T11:18:23Z</time>
      </trkpt>
      <trkpt lat="48.56102" lon="2.14811">
        <ele>102.6</ele>
        <time>2025-10-25T11:18:24Z</time>
      </trkpt>
      <trkpt lat="48.56104" lon="2.14807">
        <ele>102.8</ele>
        <time>2025-10-25T11:18:26Z</time>
      </trkpt>
      <trkpt lat="48.56106" lon="2.14803">
        <ele>103.2</ele>
        <time>2025-10-25T11:18:28Z</time>
      </trkpt>
      <trkpt lat="48.56109" lon="2.148">
        <ele>103.4</ele>
        <time>2025-10-25T11:18:30Z</time>
      </trkpt>
      <trkpt lat="48.5611" lon="2.14798">
        <ele>103.4</ele>
        <time>2025-10-25T11:18:31Z</time>
      </trkpt>
      <trkpt lat="48.56112" lon="2.14795">
        <ele>103.6</ele>
        <time>2025-10-25T11:18:32Z</time>
      </trkpt>
      <trkpt lat="48.56113" lon="2.14792">
        <ele>103.6</ele>
        <time>2025-10-25T11:18:33Z</time>
      </trkpt>
      <trkpt lat="48.56114" lon="2.14789">
        <ele>103.8</ele>
        <time>2025-10-25T11:18:34Z</time>
      </trkpt>
      <trkpt lat="48.56115" lon="2.14786">
        <ele>103.8</ele>
        <time>2025-10-25T11:18:35Z</time>
      </trkpt>
      <trkpt lat="48.56117" lon="2.14782">
        <ele>103.8</ele>
        <time>2025-10-25T11:18:36Z</time>
      </trkpt>
      <trkpt lat="48.56118" lon="2.14779">
        <ele>104</ele>
        <time>2025-10-25T11:18:37Z</time>
      </trkpt>
      <trkpt lat="48.5612" lon="2.14775">
        <ele>104</ele>
        <time>2025-10-25T11:18:38Z</time>
      </trkpt>
      <trkpt lat="48.56121" lon="2.14772">
        <ele>104.2</ele>
        <time>2025-10-25T11:18:39Z</time>
      </trkpt>
      <trkpt lat="48.56123" lon="2.14769">
        <ele>104.2</ele>
        <time>2025-10-25T11:18:40Z</time>
      </trkpt>
      <trkpt lat="48.56124" lon="2.14765">
        <ele>104.4</ele>
        <time>2025-10-25T11:18:41Z</time>
      </trkpt>
      <trkpt lat="48.56126" lon="2.14762">
        <ele>104.4</ele>
        <time>2025-10-25T11:18:42Z</time>
      </trkpt>
      <trkpt lat="48.56127" lon="2.14759">
        <ele>104.6</ele>
        <time>2025-10-25T11:18:43Z</time>
      </trkpt>
      <trkpt lat="48.56129" lon="2.14756">
        <ele>104.6</ele>
        <time>2025-10-25T11:18:44Z</time>
      </trkpt>
      <trkpt lat="48.5613" lon="2.14752">
        <ele>104.6</ele>
        <time>2025-10-25T11:18:45Z</time>
      </trkpt>
      <trkpt lat="48.56132" lon="2.14749">
        <ele>104.8</ele>
        <time>2025-10-25T11:18:46Z</time>
      </trkpt>
      <trkpt lat="48.56133" lon="2.14746">
        <ele>104.8</ele>
        <time>2025-10-25T11:18:47Z</time>
      </trkpt>
      <trkpt lat="48.56134" lon="2.14743">
        <ele>105</ele>
        <time>2025-10-25T11:18:48Z</time>
      </trkpt>
      <trkpt lat="48.56135" lon="2.14739">
        <ele>105.2</ele>
        <time>2025-10-25T11:18:49Z</time>
      </trkpt>
      <trkpt lat="48.56137" lon="2.14735">
        <ele>105.2</ele>
        <time>2025-10-25T11:18:50Z</time>
      </trkpt>
      <trkpt lat="48.56138" lon="2.14731">
        <ele>105.4</ele>
        <time>2025-10-25T11:18:51Z</time>
      </trkpt>
      <trkpt lat="48.56139" lon="2.14727">
        <ele>105.4</ele>
        <time>2025-10-25T11:18:52Z</time>
      </trkpt>
      <trkpt lat="48.5614" lon="2.14723">
        <ele>105.4</ele>
        <time>2025-10-25T11:18:53Z</time>
      </trkpt>
      <trkpt lat="48.56141" lon="2.14718">
        <ele>105.6</ele>
        <time>2025-10-25T11:18:54Z</time>
      </trkpt>
      <trkpt lat="48.56142" lon="2.14714">
        <ele>105.8</ele>
        <time>2025-10-25T11:18:55Z</time>
      </trkpt>
      <trkpt lat="48.56144" lon="2.1471">
        <ele>105.8</ele>
        <time>2025-10-25T11:18:56Z</time>
      </trkpt>
      <trkpt lat="48.56145" lon="2.14706">
        <ele>106</ele>
        <time>2025-10-25T11:18:57Z</time>
      </trkpt>
      <trkpt lat="48.56147" lon="2.14703">
        <ele>106.2</ele>
        <time>2025-10-25T11:18:58Z</time>
      </trkpt>
      <trkpt lat="48.56148" lon="2.14699">
        <ele>106.4</ele>
        <time>2025-10-25T11:18:59Z</time>
      </trkpt>
      <trkpt lat="48.5615" lon="2.14696">
        <ele>106.6</ele>
        <time>2025-10-25T11:19:00Z</time>
      </trkpt>
      <trkpt lat="48.56152" lon="2.14692">
        <ele>106.8</ele>
        <time>2025-10-25T11:19:01Z</time>
      </trkpt>
      <trkpt lat="48.56154" lon="2.14688">
        <ele>107</ele>
        <time>2025-10-25T11:19:02Z</time>
      </trkpt>
      <trkpt lat="48.56155" lon="2.14685">
        <ele>107</ele>
        <time>2025-10-25T11:19:03Z</time>
      </trkpt>
      <trkpt lat="48.56157" lon="2.14681">
        <ele>107.2</ele>
        <time>2025-10-25T11:19:04Z</time>
      </trkpt>
      <trkpt lat="48.56159" lon="2.14678">
        <ele>107.4</ele>
        <time>2025-10-25T11:19:05Z</time>
      </trkpt>
      <trkpt lat="48.5616" lon="2.14674">
        <ele>107.6</ele>
        <time>2025-10-25T11:19:06Z</time>
      </trkpt>
      <trkpt lat="48.56162" lon="2.14671">
        <ele>107.8</ele>
        <time>2025-10-25T11:19:07Z</time>
      </trkpt>
      <trkpt lat="48.56164" lon="2.14668">
        <ele>108.2</ele>
        <time>2025-10-25T11:19:08Z</time>
      </trkpt>
      <trkpt lat="48.56166" lon="2.14665">
        <ele>108.4</ele>
        <time>2025-10-25T11:19:09Z</time>
      </trkpt>
      <trkpt lat="48.56168" lon="2.14662">
        <ele>108.6</ele>
        <time>2025-10-25T11:19:10Z</time>
      </trkpt>
      <trkpt lat="48.56171" lon="2.14659">
        <ele>108.8</ele>
        <time>2025-10-25T11:19:11Z</time>
      </trkpt>
      <trkpt lat="48.56172" lon="2.14656">
        <ele>108.8</ele>
        <time>2025-10-25T11:19:12Z</time>
      </trkpt>
      <trkpt lat="48.56174" lon="2.14653">
        <ele>109</ele>
        <time>2025-10-25T11:19:13Z</time>
      </trkpt>
      <trkpt lat="48.56176" lon="2.14649">
        <ele>109</ele>
        <time>2025-10-25T11:19:14Z</time>
      </trkpt>
      <trkpt lat="48.56178" lon="2.14645">
        <ele>109.2</ele>
        <time>2025-10-25T11:19:15Z</time>
      </trkpt>
      <trkpt lat="48.5618" lon="2.14642">
        <ele>109.2</ele>
        <time>2025-10-25T11:19:16Z</time>
      </trkpt>
      <trkpt lat="48.56182" lon="2.14638">
        <ele>109.2</ele>
        <time>2025-10-25T11:19:17Z</time>
      </trkpt>
      <trkpt lat="48.56184" lon="2.14634">
        <ele>109.2</ele>
        <time>2025-10-25T11:19:18Z</time>
      </trkpt>
      <trkpt lat="48.56186" lon="2.1463">
        <ele>109.4</ele>
        <time>2025-10-25T11:19:19Z</time>
      </trkpt>
      <trkpt lat="48.56188" lon="2.14627">
        <ele>109.4</ele>
        <time>2025-10-25T11:19:20Z</time>
      </trkpt>
      <trkpt lat="48.5619" lon="2.14623">
        <ele>109.6</ele>
        <time>2025-10-25T11:19:21Z</time>
      </trkpt>
      <trkpt lat="48.56192" lon="2.14619">
        <ele>109.6</ele>
        <time>2025-10-25T11:19:22Z</time>
      </trkpt>
      <trkpt lat="48.56193" lon="2.14615">
        <ele>109.8</ele>
        <time>2025-10-25T11:19:23Z</time>
      </trkpt>
      <trkpt lat="48.56195" lon="2.14612">
        <ele>110</ele>
        <time>2025-10-25T11:19:24Z</time>
      </trkpt>
      <trkpt lat="48.56197" lon="2.14608">
        <ele>110.2</ele>
        <time>2025-10-25T11:19:25Z</time>
      </trkpt>
      <trkpt lat="48.56199" lon="2.14604">
        <ele>110.4</ele>
        <time>2025-10-25T11:19:26Z</time>
      </trkpt>
      <trkpt lat="48.56201" lon="2.14601">
        <ele>110.6</ele>
        <time>2025-10-25T11:19:27Z</time>
      </trkpt>
      <trkpt lat="48.56203" lon="2.14597">
        <ele>110.8</ele>
        <time>2025-10-25T11:19:28Z</time>
      </trkpt>
      <trkpt lat="48.56204" lon="2.14593">
        <ele>111</ele>
        <time>2025-10-25T11:19:29Z</time>
      </trkpt>
      <trkpt lat="48.56206" lon="2.1459">
        <ele>111</ele>
        <time>2025-10-25T11:19:30Z</time>
      </trkpt>
      <trkpt lat="48.56207" lon="2.14586">
        <ele>111.2</ele>
        <time>2025-10-25T11:19:31Z</time>
      </trkpt>
      <trkpt lat="48.56209" lon="2.14582">
        <ele>111.2</ele>
        <time>2025-10-25T11:19:32Z</time>
      </trkpt>
      <trkpt lat="48.5621" lon="2.14579">
        <ele>111.4</ele>
        <time>2025-10-25T11:19:33Z</time>
      </trkpt>
      <trkpt lat="48.56212" lon="2.14575">
        <ele>111.6</ele>
        <time>2025-10-25T11:19:34Z</time>
      </trkpt>
      <trkpt lat="48.56214" lon="2.14571">
        <ele>111.8</ele>
        <time>2025-10-25T11:19:35Z</time>
      </trkpt>
      <trkpt lat="48.56215" lon="2.14568">
        <ele>111.8</ele>
        <time>2025-10-25T11:19:36Z</time>
      </trkpt>
      <trkpt lat="48.56217" lon="2.14564">
        <ele>112</ele>
        <time>2025-10-25T11:19:37Z</time>
      </trkpt>
      <trkpt lat="48.56218" lon="2.14561">
        <ele>112.2</ele>
        <time>2025-10-25T11:19:38Z</time>
      </trkpt>
      <trkpt lat="48.5622" lon="2.14558">
        <ele>112.4</ele>
        <time>2025-10-25T11:19:39Z</time>
      </trkpt>
      <trkpt lat="48.56221" lon="2.14555">
        <ele>112.8</ele>
        <time>2025-10-25T11:19:41Z</time>
      </trkpt>
      <trkpt lat="48.56223" lon="2.1455">
        <ele>113</ele>
        <time>2025-10-25T11:19:43Z</time>
      </trkpt>
      <trkpt lat="48.56224" lon="2.14547">
        <ele>113</ele>
        <time>2025-10-25T11:19:44Z</time>
      </trkpt>
      <trkpt lat="48.56226" lon="2.14544">
        <ele>113.2</ele>
        <time>2025-10-25T11:19:45Z</time>
      </trkpt>
      <trkpt lat="48.56228" lon="2.14541">
        <ele>113.2</ele>
        <time>2025-10-25T11:19:46Z</time>
      </trkpt>
      <trkpt lat="48.56229" lon="2.14537">
        <ele>113.4</ele>
        <time>2025-10-25T11:19:47Z</time>
      </trkpt>
      <trkpt lat="48.56231" lon="2.14533">
        <ele>113.6</ele>
        <time>2025-10-25T11:19:48Z</time>
      </trkpt>
      <trkpt lat="48.56232" lon="2.14529">
        <ele>113.6</ele>
        <time>2025-10-25T11:19:49Z</time>
      </trkpt>
      <trkpt lat="48.56234" lon="2.14525">
        <ele>113.8</ele>
        <time>2025-10-25T11:19:50Z</time>
      </trkpt>
      <trkpt lat="48.56236" lon="2.1452">
        <ele>114</ele>
        <time>2025-10-25T11:19:51Z</time>
      </trkpt>
      <trkpt lat="48.56237" lon="2.14515">
        <ele>114.2</ele>
        <time>2025-10-25T11:19:52Z</time>
      </trkpt>
      <trkpt lat="48.56239" lon="2.14509">
        <ele>114.2</ele>
        <time>2025-10-25T11:19:53Z</time>
      </trkpt>
      <trkpt lat="48.56241" lon="2.14504">
        <ele>114.4</ele>
        <time>2025-10-25T11:19:54Z</time>
      </trkpt>
      <trkpt lat="48.56242" lon="2.14498">
        <ele>114.6</ele>
        <time>2025-10-25T11:19:55Z</time>
      </trkpt>
      <trkpt lat="48.56244" lon="2.14493">
        <ele>114.8</ele>
        <time>2025-10-25T11:19:56Z</time>
      </trkpt>
      <trkpt lat="48.56245" lon="2.14488">
        <ele>114.8</ele>
        <time>2025-10-25T11:19:57Z</time>
      </trkpt>
      <trkpt lat="48.56246" lon="2.14482">
        <ele>115</ele>
        <time>2025-10-25T11:19:58Z</time>
      </trkpt>
      <trkpt lat="48.56247" lon="2.14477">
        <ele>115.2</ele>
        <time>2025-10-25T11:19:59Z</time>
      </trkpt>
      <trkpt lat="48.56248" lon="2.14471">
        <ele>115.2</ele>
        <time>2025-10-25T11:20:00Z</time>
      </trkpt>
      <trkpt lat="48.56248" lon="2.14466">
        <ele>115.4</ele>
        <time>2025-10-25T11:20:01Z</time>
      </trkpt>
      <trkpt lat="48.56249" lon="2.1446">
        <ele>115.6</ele>
        <time>2025-10-25T11:20:02Z</time>
      </trkpt>
      <trkpt lat="48.5625" lon="2.14454">
        <ele>115.6</ele>
        <time>2025-10-25T11:20:03Z</time>
      </trkpt>
      <trkpt lat="48.56251" lon="2.14448">
        <ele>115.6</ele>
        <time>2025-10-25T11:20:04Z</time>
      </trkpt>
      <trkpt lat="48.56252" lon="2.14443">
        <ele>115.8</ele>
        <time>2025-10-25T11:20:05Z</time>
      </trkpt>
      <trkpt lat="48.56253" lon="2.14437">
        <ele>115.8</ele>
        <time>2025-10-25T11:20:06Z</time>
      </trkpt>
      <trkpt lat="48.56253" lon="2.14431">
        <ele>115.8</ele>
        <time>2025-10-25T11:20:07Z</time>
      </trkpt>
      <trkpt lat="48.56254" lon="2.14426">
        <ele>115.8</ele>
        <time>2025-10-25T11:20:08Z</time>
      </trkpt>
      <trkpt lat="48.56255" lon="2.1442">
        <ele>115.8</ele>
        <time>2025-10-25T11:20:09Z</time>
      </trkpt>
      <trkpt lat="48.56256" lon="2.14415">
        <ele>115.8</ele>
        <time>2025-10-25T11:20:10Z</time>
      </trkpt>
      <trkpt lat="48.56257" lon="2.14409">
        <ele>115.8</ele>
        <time>2025-10-25T11:20:11Z</time>
      </trkpt>
      <trkpt lat="48.56257" lon="2.14404">
        <ele>116</ele>
        <time>2025-10-25T11:20:12Z</time>
      </trkpt>
      <trkpt lat="48.56258" lon="2.14399">
        <ele>116</ele>
        <time>2025-10-25T11:20:13Z</time>
      </trkpt>
      <trkpt lat="48.5626" lon="2.14395">
        <ele>116</ele>
        <time>2025-10-25T11:20:14Z</time>
      </trkpt>
      <trkpt lat="48.56261" lon="2.1439">
        <ele>116</ele>
        <time>2025-10-25T11:20:15Z</time>
      </trkpt>
      <trkpt lat="48.56262" lon="2.14385">
        <ele>116</ele>
        <time>2025-10-25T11:20:16Z</time>
      </trkpt>
      <trkpt lat="48.56263" lon="2.14381">
        <ele>116</ele>
        <time>2025-10-25T11:20:17Z</time>
      </trkpt>
      <trkpt lat="48.56264" lon="2.14376">
        <ele>116</ele>
        <time>2025-10-25T11:20:18Z</time>
      </trkpt>
      <trkpt lat="48.56265" lon="2.14371">
        <ele>116</ele>
        <time>2025-10-25T11:20:19Z</time>
      </trkpt>
      <trkpt lat="48.56265" lon="2.14365">
        <ele>116</ele>
        <time>2025-10-25T11:20:20Z</time>
      </trkpt>
      <trkpt lat="48.56266" lon="2.1436">
        <ele>116</ele>
        <time>2025-10-25T11:20:21Z</time>
      </trkpt>
      <trkpt lat="48.56266" lon="2.14354">
        <ele>116</ele>
        <time>2025-10-25T11:20:22Z</time>
      </trkpt>
      <trkpt lat="48.56267" lon="2.14348">
        <ele>116.2</ele>
        <time>2025-10-25T11:20:23Z</time>
      </trkpt>
      <trkpt lat="48.56267" lon="2.14341">
        <ele>116.2</ele>
        <time>2025-10-25T11:20:24Z</time>
      </trkpt>
      <trkpt lat="48.56267" lon="2.14335">
        <ele>116.2</ele>
        <time>2025-10-25T11:20:25Z</time>
      </trkpt>
      <trkpt lat="48.56267" lon="2.1433">
        <ele>116.2</ele>
        <time>2025-10-25T11:20:26Z</time>
      </trkpt>
      <trkpt lat="48.56266" lon="2.14324">
        <ele>116.4</ele>
        <time>2025-10-25T11:20:27Z</time>
      </trkpt>
      <trkpt lat="48.56266" lon="2.14318">
        <ele>116.4</ele>
        <time>2025-10-25T11:20:28Z</time>
      </trkpt>
      <trkpt lat="48.56266" lon="2.14313">
        <ele>116.6</ele>
        <time>2025-10-25T11:20:29Z</time>
      </trkpt>
      <trkpt lat="48.56267" lon="2.14308">
        <ele>116.6</ele>
        <time>2025-10-25T11:20:30Z</time>
      </trkpt>
      <trkpt lat="48.56267" lon="2.14303">
        <ele>116.8</ele>
        <time>2025-10-25T11:20:31Z</time>
      </trkpt>
      <trkpt lat="48.56268" lon="2.14298">
        <ele>116.8</ele>
        <time>2025-10-25T11:20:32Z</time>
      </trkpt>
      <trkpt lat="48.56268" lon="2.14293">
        <ele>116.8</ele>
        <time>2025-10-25T11:20:33Z</time>
      </trkpt>
      <trkpt lat="48.56269" lon="2.14289">
        <ele>117</ele>
        <time>2025-10-25T11:20:34Z</time>
      </trkpt>
      <trkpt lat="48.5627" lon="2.14284">
        <ele>117</ele>
        <time>2025-10-25T11:20:35Z</time>
      </trkpt>
      <trkpt lat="48.5627" lon="2.1428">
        <ele>117</ele>
        <time>2025-10-25T11:20:36Z</time>
      </trkpt>
      <trkpt lat="48.56271" lon="2.14275">
        <ele>116.8</ele>
        <time>2025-10-25T11:20:37Z</time>
      </trkpt>
      <trkpt lat="48.56271" lon="2.14271">
        <ele>116.8</ele>
        <time>2025-10-25T11:20:38Z</time>
      </trkpt>
      <trkpt lat="48.56272" lon="2.14266">
        <ele>116.8</ele>
        <time>2025-10-25T11:20:39Z</time>
      </trkpt>
      <trkpt lat="48.56273" lon="2.14261">
        <ele>116.8</ele>
        <time>2025-10-25T11:20:40Z</time>
      </trkpt>
      <trkpt lat="48.56273" lon="2.14257">
        <ele>116.8</ele>
        <time>2025-10-25T11:20:41Z</time>
      </trkpt>
      <trkpt lat="48.56275" lon="2.14252">
        <ele>116.8</ele>
        <time>2025-10-25T11:20:42Z</time>
      </trkpt>
      <trkpt lat="48.56276" lon="2.14247">
        <ele>116.8</ele>
        <time>2025-10-25T11:20:43Z</time>
      </trkpt>
      <trkpt lat="48.56278" lon="2.14243">
        <ele>116.8</ele>
        <time>2025-10-25T11:20:44Z</time>
      </trkpt>
      <trkpt lat="48.5628" lon="2.14238">
        <ele>116.6</ele>
        <time>2025-10-25T11:20:45Z</time>
      </trkpt>
      <trkpt lat="48.56282" lon="2.14234">
        <ele>116.6</ele>
        <time>2025-10-25T11:20:46Z</time>
      </trkpt>
      <trkpt lat="48.56284" lon="2.14229">
        <ele>116.4</ele>
        <time>2025-10-25T11:20:47Z</time>
      </trkpt>
      <trkpt lat="48.56286" lon="2.14224">
        <ele>116.4</ele>
        <time>2025-10-25T11:20:48Z</time>
      </trkpt>
      <trkpt lat="48.56288" lon="2.1422">
        <ele>116.2</ele>
        <time>2025-10-25T11:20:49Z</time>
      </trkpt>
      <trkpt lat="48.56291" lon="2.14216">
        <ele>116.2</ele>
        <time>2025-10-25T11:20:50Z</time>
      </trkpt>
      <trkpt lat="48.56293" lon="2.14211">
        <ele>116</ele>
        <time>2025-10-25T11:20:51Z</time>
      </trkpt>
      <trkpt lat="48.56295" lon="2.14207">
        <ele>116</ele>
        <time>2025-10-25T11:20:52Z</time>
      </trkpt>
      <trkpt lat="48.56298" lon="2.14202">
        <ele>115.8</ele>
        <time>2025-10-25T11:20:53Z</time>
      </trkpt>
      <trkpt lat="48.56301" lon="2.14196">
        <ele>115.6</ele>
        <time>2025-10-25T11:20:54Z</time>
      </trkpt>
      <trkpt lat="48.56303" lon="2.14191">
        <ele>115.6</ele>
        <time>2025-10-25T11:20:55Z</time>
      </trkpt>
      <trkpt lat="48.56306" lon="2.14186">
        <ele>115.4</ele>
        <time>2025-10-25T11:20:56Z</time>
      </trkpt>
      <trkpt lat="48.56309" lon="2.14181">
        <ele>115.2</ele>
        <time>2025-10-25T11:20:57Z</time>
      </trkpt>
      <trkpt lat="48.56311" lon="2.14176">
        <ele>115.2</ele>
        <time>2025-10-25T11:20:58Z</time>
      </trkpt>
      <trkpt lat="48.56314" lon="2.14172">
        <ele>115</ele>
        <time>2025-10-25T11:20:59Z</time>
      </trkpt>
      <trkpt lat="48.56316" lon="2.14168">
        <ele>115</ele>
        <time>2025-10-25T11:21:00Z</time>
      </trkpt>
      <trkpt lat="48.56318" lon="2.14164">
        <ele>114.8</ele>
        <time>2025-10-25T11:21:01Z</time>
      </trkpt>
      <trkpt lat="48.56321" lon="2.14161">
        <ele>114.8</ele>
        <time>2025-10-25T11:21:02Z</time>
      </trkpt>
      <trkpt lat="48.56324" lon="2.14157">
        <ele>114.8</ele>
        <time>2025-10-25T11:21:03Z</time>
      </trkpt>
      <trkpt lat="48.56326" lon="2.14154">
        <ele>114.6</ele>
        <time>2025-10-25T11:21:04Z</time>
      </trkpt>
      <trkpt lat="48.56329" lon="2.14151">
        <ele>114.6</ele>
        <time>2025-10-25T11:21:05Z</time>
      </trkpt>
      <trkpt lat="48.56332" lon="2.14147">
        <ele>114.4</ele>
        <time>2025-10-25T11:21:06Z</time>
      </trkpt>
      <trkpt lat="48.56335" lon="2.14144">
        <ele>114.4</ele>
        <time>2025-10-25T11:21:07Z</time>
      </trkpt>
      <trkpt lat="48.56339" lon="2.1414">
        <ele>114.2</ele>
        <time>2025-10-25T11:21:08Z</time>
      </trkpt>
      <trkpt lat="48.56341" lon="2.14137">
        <ele>114.2</ele>
        <time>2025-10-25T11:21:09Z</time>
      </trkpt>
      <trkpt lat="48.56344" lon="2.14133">
        <ele>114</ele>
        <time>2025-10-25T11:21:10Z</time>
      </trkpt>
      <trkpt lat="48.56347" lon="2.1413">
        <ele>114</ele>
        <time>2025-10-25T11:21:11Z</time>
      </trkpt>
      <trkpt lat="48.56349" lon="2.14126">
        <ele>113.8</ele>
        <time>2025-10-25T11:21:12Z</time>
      </trkpt>
      <trkpt lat="48.56352" lon="2.14122">
        <ele>113.8</ele>
        <time>2025-10-25T11:21:13Z</time>
      </trkpt>
      <trkpt lat="48.56355" lon="2.14119">
        <ele>113.6</ele>
        <time>2025-10-25T11:21:14Z</time>
      </trkpt>
      <trkpt lat="48.56358" lon="2.14116">
        <ele>113.6</ele>
        <time>2025-10-25T11:21:15Z</time>
      </trkpt>
      <trkpt lat="48.56361" lon="2.14113">
        <ele>113.4</ele>
        <time>2025-10-25T11:21:16Z</time>
      </trkpt>
      <trkpt lat="48.56363" lon="2.14111">
        <ele>113.2</ele>
        <time>2025-10-25T11:21:17Z</time>
      </trkpt>
      <trkpt lat="48.56366" lon="2.14108">
        <ele>113.2</ele>
        <time>2025-10-25T11:21:18Z</time>
      </trkpt>
      <trkpt lat="48.56369" lon="2.14106">
        <ele>113</ele>
        <time>2025-10-25T11:21:19Z</time>
      </trkpt>
      <trkpt lat="48.56372" lon="2.14104">
        <ele>112.8</ele>
        <time>2025-10-25T11:21:20Z</time>
      </trkpt>
      <trkpt lat="48.56374" lon="2.14101">
        <ele>112.8</ele>
        <time>2025-10-25T11:21:21Z</time>
      </trkpt>
      <trkpt lat="48.56377" lon="2.14099">
        <ele>112.8</ele>
        <time>2025-10-25T11:21:22Z</time>
      </trkpt>
      <trkpt lat="48.5638" lon="2.14096">
        <ele>112.6</ele>
        <time>2025-10-25T11:21:23Z</time>
      </trkpt>
      <trkpt lat="48.56383" lon="2.14093">
        <ele>112.6</ele>
        <time>2025-10-25T11:21:24Z</time>
      </trkpt>
      <trkpt lat="48.56385" lon="2.1409">
        <ele>112.4</ele>
        <time>2025-10-25T11:21:25Z</time>
      </trkpt>
      <trkpt lat="48.56388" lon="2.14087">
        <ele>112.4</ele>
        <time>2025-10-25T11:21:26Z</time>
      </trkpt>
      <trkpt lat="48.5639" lon="2.14084">
        <ele>112.2</ele>
        <time>2025-10-25T11:21:27Z</time>
      </trkpt>
      <trkpt lat="48.56393" lon="2.14081">
        <ele>112.2</ele>
        <time>2025-10-25T11:21:28Z</time>
      </trkpt>
      <trkpt lat="48.56395" lon="2.14078">
        <ele>112</ele>
        <time>2025-10-25T11:21:29Z</time>
      </trkpt>
      <trkpt lat="48.56397" lon="2.14075">
        <ele>111.8</ele>
        <time>2025-10-25T11:21:30Z</time>
      </trkpt>
      <trkpt lat="48.564" lon="2.14072">
        <ele>111.8</ele>
        <time>2025-10-25T11:21:31Z</time>
      </trkpt>
      <trkpt lat="48.56403" lon="2.14069">
        <ele>111.6</ele>
        <time>2025-10-25T11:21:32Z</time>
      </trkpt>
      <trkpt lat="48.56405" lon="2.14066">
        <ele>111.6</ele>
        <time>2025-10-25T11:21:33Z</time>
      </trkpt>
      <trkpt lat="48.56408" lon="2.14063">
        <ele>111.4</ele>
        <time>2025-10-25T11:21:34Z</time>
      </trkpt>
      <trkpt lat="48.5641" lon="2.1406">
        <ele>111.4</ele>
        <time>2025-10-25T11:21:35Z</time>
      </trkpt>
      <trkpt lat="48.56413" lon="2.14057">
        <ele>111.4</ele>
        <time>2025-10-25T11:21:36Z</time>
      </trkpt>
      <trkpt lat="48.56416" lon="2.14055">
        <ele>111.2</ele>
        <time>2025-10-25T11:21:37Z</time>
      </trkpt>
      <trkpt lat="48.56418" lon="2.14052">
        <ele>111.2</ele>
        <time>2025-10-25T11:21:38Z</time>
      </trkpt>
      <trkpt lat="48.5642" lon="2.14049">
        <ele>111.2</ele>
        <time>2025-10-25T11:21:39Z</time>
      </trkpt>
      <trkpt lat="48.56423" lon="2.14046">
        <ele>111.2</ele>
        <time>2025-10-25T11:21:40Z</time>
      </trkpt>
      <trkpt lat="48.56426" lon="2.14043">
        <ele>111.2</ele>
        <time>2025-10-25T11:21:41Z</time>
      </trkpt>
      <trkpt lat="48.56428" lon="2.14041">
        <ele>111.2</ele>
        <time>2025-10-25T11:21:42Z</time>
      </trkpt>
      <trkpt lat="48.5643" lon="2.14038">
        <ele>111.2</ele>
        <time>2025-10-25T11:21:43Z</time>
      </trkpt>
      <trkpt lat="48.56432" lon="2.14036">
        <ele>111.2</ele>
        <time>2025-10-25T11:21:44Z</time>
      </trkpt>
      <trkpt lat="48.56434" lon="2.14033">
        <ele>111</ele>
        <time>2025-10-25T11:21:45Z</time>
      </trkpt>
      <trkpt lat="48.56436" lon="2.14031">
        <ele>111</ele>
        <time>2025-10-25T11:21:46Z</time>
      </trkpt>
      <trkpt lat="48.56437" lon="2.1403">
        <ele>111</ele>
        <time>2025-10-25T11:21:47Z</time>
      </trkpt>
      <trkpt lat="48.5644" lon="2.14026">
        <ele>111</ele>
        <time>2025-10-25T11:21:49Z</time>
      </trkpt>
      <trkpt lat="48.56442" lon="2.14022">
        <ele>111.2</ele>
        <time>2025-10-25T11:21:51Z</time>
      </trkpt>
      <trkpt lat="48.56444" lon="2.14018">
        <ele>111.2</ele>
        <time>2025-10-25T11:21:53Z</time>
      </trkpt>
      <trkpt lat="48.56446" lon="2.14016">
        <ele>111</ele>
        <time>2025-10-25T11:21:55Z</time>
      </trkpt>
      <trkpt lat="48.56448" lon="2.14014">
        <ele>111</ele>
        <time>2025-10-25T11:21:57Z</time>
      </trkpt>
      <trkpt lat="48.56451" lon="2.14011">
        <ele>110.8</ele>
        <time>2025-10-25T11:21:59Z</time>
      </trkpt>
      <trkpt lat="48.56453" lon="2.14008">
        <ele>110.6</ele>
        <time>2025-10-25T11:22:01Z</time>
      </trkpt>
      <trkpt lat="48.56456" lon="2.14005">
        <ele>110.4</ele>
        <time>2025-10-25T11:22:03Z</time>
      </trkpt>
      <trkpt lat="48.56459" lon="2.14003">
        <ele>110.2</ele>
        <time>2025-10-25T11:22:05Z</time>
      </trkpt>
      <trkpt lat="48.5646" lon="2.14002">
        <ele>110.2</ele>
        <time>2025-10-25T11:22:06Z</time>
      </trkpt>
      <trkpt lat="48.56464" lon="2.14">
        <ele>110.2</ele>
        <time>2025-10-25T11:22:08Z</time>
      </trkpt>
      <trkpt lat="48.56466" lon="2.13998">
        <ele>110</ele>
        <time>2025-10-25T11:22:09Z</time>
      </trkpt>
      <trkpt lat="48.56468" lon="2.13997">
        <ele>110</ele>
        <time>2025-10-25T11:22:10Z</time>
      </trkpt>
      <trkpt lat="48.5647" lon="2.13995">
        <ele>109.8</ele>
        <time>2025-10-25T11:22:11Z</time>
      </trkpt>
      <trkpt lat="48.56472" lon="2.13992">
        <ele>109.8</ele>
        <time>2025-10-25T11:22:12Z</time>
      </trkpt>
      <trkpt lat="48.56475" lon="2.1399">
        <ele>109.6</ele>
        <time>2025-10-25T11:22:13Z</time>
      </trkpt>
      <trkpt lat="48.56477" lon="2.13987">
        <ele>109.6</ele>
        <time>2025-10-25T11:22:14Z</time>
      </trkpt>
      <trkpt lat="48.5648" lon="2.13984">
        <ele>109.4</ele>
        <time>2025-10-25T11:22:15Z</time>
      </trkpt>
      <trkpt lat="48.56482" lon="2.13981">
        <ele>109.4</ele>
        <time>2025-10-25T11:22:16Z</time>
      </trkpt>
      <trkpt lat="48.56485" lon="2.13978">
        <ele>109.2</ele>
        <time>2025-10-25T11:22:17Z</time>
      </trkpt>
      <trkpt lat="48.56488" lon="2.13975">
        <ele>109</ele>
        <time>2025-10-25T11:22:18Z</time>
      </trkpt>
      <trkpt lat="48.56491" lon="2.13971">
        <ele>109</ele>
        <time>2025-10-25T11:22:19Z</time>
      </trkpt>
      <trkpt lat="48.56493" lon="2.13969">
        <ele>108.8</ele>
        <time>2025-10-25T11:22:20Z</time>
      </trkpt>
      <trkpt lat="48.56496" lon="2.13966">
        <ele>108.8</ele>
        <time>2025-10-25T11:22:21Z</time>
      </trkpt>
      <trkpt lat="48.56499" lon="2.13962">
        <ele>108.6</ele>
        <time>2025-10-25T11:22:22Z</time>
      </trkpt>
      <trkpt lat="48.56502" lon="2.13959">
        <ele>108.6</ele>
        <time>2025-10-25T11:22:23Z</time>
      </trkpt>
      <trkpt lat="48.56505" lon="2.13956">
        <ele>108.4</ele>
        <time>2025-10-25T11:22:24Z</time>
      </trkpt>
      <trkpt lat="48.56508" lon="2.13954">
        <ele>108.4</ele>
        <time>2025-10-25T11:22:25Z</time>
      </trkpt>
      <trkpt lat="48.56512" lon="2.13951">
        <ele>108.2</ele>
        <time>2025-10-25T11:22:26Z</time>
      </trkpt>
      <trkpt lat="48.56515" lon="2.13948">
        <ele>108.2</ele>
        <time>2025-10-25T11:22:27Z</time>
      </trkpt>
      <trkpt lat="48.56518" lon="2.13945">
        <ele>108.2</ele>
        <time>2025-10-25T11:22:28Z</time>
      </trkpt>
      <trkpt lat="48.56521" lon="2.13943">
        <ele>108</ele>
        <time>2025-10-25T11:22:29Z</time>
      </trkpt>
      <trkpt lat="48.56524" lon="2.13939">
        <ele>108</ele>
        <time>2025-10-25T11:22:30Z</time>
      </trkpt>
      <trkpt lat="48.56526" lon="2.13936">
        <ele>108</ele>
        <time>2025-10-25T11:22:31Z</time>
      </trkpt>
      <trkpt lat="48.56529" lon="2.13933">
        <ele>108</ele>
        <time>2025-10-25T11:22:32Z</time>
      </trkpt>
      <trkpt lat="48.56532" lon="2.13929">
        <ele>108</ele>
        <time>2025-10-25T11:22:33Z</time>
      </trkpt>
      <trkpt lat="48.56534" lon="2.13924">
        <ele>108</ele>
        <time>2025-10-25T11:22:34Z</time>
      </trkpt>
      <trkpt lat="48.56536" lon="2.1392">
        <ele>108</ele>
        <time>2025-10-25T11:22:35Z</time>
      </trkpt>
      <trkpt lat="48.56538" lon="2.13915">
        <ele>108</ele>
        <time>2025-10-25T11:22:36Z</time>
      </trkpt>
      <trkpt lat="48.56541" lon="2.13909">
        <ele>107.8</ele>
        <time>2025-10-25T11:22:37Z</time>
      </trkpt>
      <trkpt lat="48.56543" lon="2.13904">
        <ele>107.8</ele>
        <time>2025-10-25T11:22:38Z</time>
      </trkpt>
      <trkpt lat="48.56545" lon="2.13898">
        <ele>107.8</ele>
        <time>2025-10-25T11:22:39Z</time>
      </trkpt>
      <trkpt lat="48.56547" lon="2.13892">
        <ele>107.8</ele>
        <time>2025-10-25T11:22:40Z</time>
      </trkpt>
      <trkpt lat="48.56548" lon="2.13885">
        <ele>107.6</ele>
        <time>2025-10-25T11:22:41Z</time>
      </trkpt>
      <trkpt lat="48.5655" lon="2.13878">
        <ele>107.6</ele>
        <time>2025-10-25T11:22:42Z</time>
      </trkpt>
      <trkpt lat="48.56551" lon="2.13872">
        <ele>107.6</ele>
        <time>2025-10-25T11:22:43Z</time>
      </trkpt>
      <trkpt lat="48.56553" lon="2.13865">
        <ele>107.4</ele>
        <time>2025-10-25T11:22:44Z</time>
      </trkpt>
      <trkpt lat="48.56555" lon="2.13859">
        <ele>107.4</ele>
        <time>2025-10-25T11:22:45Z</time>
      </trkpt>
      <trkpt lat="48.56557" lon="2.13852">
        <ele>107.4</ele>
        <time>2025-10-25T11:22:46Z</time>
      </trkpt>
      <trkpt lat="48.56559" lon="2.13846">
        <ele>107.2</ele>
        <time>2025-10-25T11:22:47Z</time>
      </trkpt>
      <trkpt lat="48.56561" lon="2.13839">
        <ele>107.2</ele>
        <time>2025-10-25T11:22:48Z</time>
      </trkpt>
      <trkpt lat="48.56563" lon="2.13831">
        <ele>107</ele>
        <time>2025-10-25T11:22:49Z</time>
      </trkpt>
      <trkpt lat="48.56565" lon="2.13824">
        <ele>107</ele>
        <time>2025-10-25T11:22:50Z</time>
      </trkpt>
      <trkpt lat="48.56567" lon="2.13817">
        <ele>107</ele>
        <time>2025-10-25T11:22:51Z</time>
      </trkpt>
      <trkpt lat="48.56568" lon="2.1381">
        <ele>106.8</ele>
        <time>2025-10-25T11:22:52Z</time>
      </trkpt>
      <trkpt lat="48.5657" lon="2.13803">
        <ele>106.8</ele>
        <time>2025-10-25T11:22:53Z</time>
      </trkpt>
      <trkpt lat="48.56572" lon="2.13796">
        <ele>106.8</ele>
        <time>2025-10-25T11:22:54Z</time>
      </trkpt>
      <trkpt lat="48.56574" lon="2.1379">
        <ele>106.6</ele>
        <time>2025-10-25T11:22:55Z</time>
      </trkpt>
      <trkpt lat="48.56577" lon="2.13783">
        <ele>106.6</ele>
        <time>2025-10-25T11:22:56Z</time>
      </trkpt>
      <trkpt lat="48.56579" lon="2.13776">
        <ele>106.4</ele>
        <time>2025-10-25T11:22:57Z</time>
      </trkpt>
      <trkpt lat="48.56581" lon="2.13769">
        <ele>106.2</ele>
        <time>2025-10-25T11:22:58Z</time>
      </trkpt>
      <trkpt lat="48.56583" lon="2.13761">
        <ele>106.2</ele>
        <time>2025-10-25T11:22:59Z</time>
      </trkpt>
      <trkpt lat="48.56584" lon="2.13753">
        <ele>106</ele>
        <time>2025-10-25T11:23:00Z</time>
      </trkpt>
      <trkpt lat="48.56586" lon="2.13744">
        <ele>106</ele>
        <time>2025-10-25T11:23:01Z</time>
      </trkpt>
      <trkpt lat="48.56587" lon="2.13736">
        <ele>106</ele>
        <time>2025-10-25T11:23:02Z</time>
      </trkpt>
      <trkpt lat="48.56588" lon="2.13728">
        <ele>105.8</ele>
        <time>2025-10-25T11:23:03Z</time>
      </trkpt>
      <trkpt lat="48.56589" lon="2.13721">
        <ele>105.6</ele>
        <time>2025-10-25T11:23:04Z</time>
      </trkpt>
      <trkpt lat="48.5659" lon="2.13714">
        <ele>105.6</ele>
        <time>2025-10-25T11:23:05Z</time>
      </trkpt>
      <trkpt lat="48.56591" lon="2.13707">
        <ele>105.4</ele>
        <time>2025-10-25T11:23:06Z</time>
      </trkpt>
      <trkpt lat="48.56593" lon="2.13701">
        <ele>105.2</ele>
        <time>2025-10-25T11:23:07Z</time>
      </trkpt>
      <trkpt lat="48.56594" lon="2.13695">
        <ele>105</ele>
        <time>2025-10-25T11:23:08Z</time>
      </trkpt>
      <trkpt lat="48.56595" lon="2.1369">
        <ele>105</ele>
        <time>2025-10-25T11:23:09Z</time>
      </trkpt>
      <trkpt lat="48.56596" lon="2.13685">
        <ele>104.8</ele>
        <time>2025-10-25T11:23:10Z</time>
      </trkpt>
      <trkpt lat="48.56597" lon="2.13679">
        <ele>104.6</ele>
        <time>2025-10-25T11:23:11Z</time>
      </trkpt>
      <trkpt lat="48.56598" lon="2.13674">
        <ele>104.6</ele>
        <time>2025-10-25T11:23:12Z</time>
      </trkpt>
      <trkpt lat="48.56599" lon="2.13669">
        <ele>104.4</ele>
        <time>2025-10-25T11:23:13Z</time>
      </trkpt>
      <trkpt lat="48.566" lon="2.13663">
        <ele>104.2</ele>
        <time>2025-10-25T11:23:14Z</time>
      </trkpt>
      <trkpt lat="48.56601" lon="2.13657">
        <ele>104.2</ele>
        <time>2025-10-25T11:23:15Z</time>
      </trkpt>
      <trkpt lat="48.56602" lon="2.13652">
        <ele>104</ele>
        <time>2025-10-25T11:23:16Z</time>
      </trkpt>
      <trkpt lat="48.56602" lon="2.13646">
        <ele>103.8</ele>
        <time>2025-10-25T11:23:17Z</time>
      </trkpt>
      <trkpt lat="48.56603" lon="2.13641">
        <ele>103.8</ele>
        <time>2025-10-25T11:23:18Z</time>
      </trkpt>
      <trkpt lat="48.56603" lon="2.13636">
        <ele>103.6</ele>
        <time>2025-10-25T11:23:19Z</time>
      </trkpt>
      <trkpt lat="48.56603" lon="2.13631">
        <ele>103.6</ele>
        <time>2025-10-25T11:23:20Z</time>
      </trkpt>
      <trkpt lat="48.56604" lon="2.13626">
        <ele>103.4</ele>
        <time>2025-10-25T11:23:21Z</time>
      </trkpt>
      <trkpt lat="48.56604" lon="2.13622">
        <ele>103.4</ele>
        <time>2025-10-25T11:23:22Z</time>
      </trkpt>
      <trkpt lat="48.56604" lon="2.13618">
        <ele>103.2</ele>
        <time>2025-10-25T11:23:23Z</time>
      </trkpt>
      <trkpt lat="48.56605" lon="2.13614">
        <ele>103.2</ele>
        <time>2025-10-25T11:23:24Z</time>
      </trkpt>
      <trkpt lat="48.56605" lon="2.1361">
        <ele>103.2</ele>
        <time>2025-10-25T11:23:25Z</time>
      </trkpt>
      <trkpt lat="48.56606" lon="2.13607">
        <ele>103</ele>
        <time>2025-10-25T11:23:26Z</time>
      </trkpt>
      <trkpt lat="48.56606" lon="2.13604">
        <ele>103</ele>
        <time>2025-10-25T11:23:27Z</time>
      </trkpt>
      <trkpt lat="48.56607" lon="2.13601">
        <ele>102.8</ele>
        <time>2025-10-25T11:23:28Z</time>
      </trkpt>
      <trkpt lat="48.56607" lon="2.13598">
        <ele>102.8</ele>
        <time>2025-10-25T11:23:29Z</time>
      </trkpt>
      <trkpt lat="48.56608" lon="2.13595">
        <ele>102.8</ele>
        <time>2025-10-25T11:23:30Z</time>
      </trkpt>
      <trkpt lat="48.56609" lon="2.13591">
        <ele>102.6</ele>
        <time>2025-10-25T11:23:32Z</time>
      </trkpt>
      <trkpt lat="48.5661" lon="2.13587">
        <ele>102.6</ele>
        <time>2025-10-25T11:23:34Z</time>
      </trkpt>
      <trkpt lat="48.56611" lon="2.13583">
        <ele>102.4</ele>
        <time>2025-10-25T11:23:36Z</time>
      </trkpt>
      <trkpt lat="48.56612" lon="2.13579">
        <ele>102.2</ele>
        <time>2025-10-25T11:23:38Z</time>
      </trkpt>
      <trkpt lat="48.56613" lon="2.13575">
        <ele>102</ele>
        <time>2025-10-25T11:23:40Z</time>
      </trkpt>
      <trkpt lat="48.56615" lon="2.13572">
        <ele>101.6</ele>
        <time>2025-10-25T11:23:42Z</time>
      </trkpt>
      <trkpt lat="48.56617" lon="2.13569">
        <ele>101.4</ele>
        <time>2025-10-25T11:23:44Z</time>
      </trkpt>
      <trkpt lat="48.56619" lon="2.13566">
        <ele>101</ele>
        <time>2025-10-25T11:23:46Z</time>
      </trkpt>
      <trkpt lat="48.56621" lon="2.13563">
        <ele>100.8</ele>
        <time>2025-10-25T11:23:48Z</time>
      </trkpt>
      <trkpt lat="48.56624" lon="2.13561">
        <ele>100.8</ele>
        <time>2025-10-25T11:23:50Z</time>
      </trkpt>
      <trkpt lat="48.56626" lon="2.13558">
        <ele>100.8</ele>
        <time>2025-10-25T11:23:52Z</time>
      </trkpt>
      <trkpt lat="48.56628" lon="2.13555">
        <ele>100.8</ele>
        <time>2025-10-25T11:23:54Z</time>
      </trkpt>
      <trkpt lat="48.5663" lon="2.13552">
        <ele>100.6</ele>
        <time>2025-10-25T11:23:56Z</time>
      </trkpt>
      <trkpt lat="48.56632" lon="2.13549">
        <ele>100.4</ele>
        <time>2025-10-25T11:23:58Z</time>
      </trkpt>
      <trkpt lat="48.56634" lon="2.13546">
        <ele>100.2</ele>
        <time>2025-10-25T11:24:00Z</time>
      </trkpt>
      <trkpt lat="48.56636" lon="2.13543">
        <ele>100.2</ele>
        <time>2025-10-25T11:24:02Z</time>
      </trkpt>
      <trkpt lat="48.56638" lon="2.1354">
        <ele>100.2</ele>
        <time>2025-10-25T11:24:04Z</time>
      </trkpt>
      <trkpt lat="48.5664" lon="2.13537">
        <ele>100</ele>
        <time>2025-10-25T11:24:06Z</time>
      </trkpt>
      <trkpt lat="48.56642" lon="2.13534">
        <ele>100</ele>
        <time>2025-10-25T11:24:08Z</time>
      </trkpt>
      <trkpt lat="48.56644" lon="2.13531">
        <ele>100</ele>
        <time>2025-10-25T11:24:10Z</time>
      </trkpt>
      <trkpt lat="48.56645" lon="2.13527">
        <ele>99.8</ele>
        <time>2025-10-25T11:24:12Z</time>
      </trkpt>
      <trkpt lat="48.56646" lon="2.13525">
        <ele>99.8</ele>
        <time>2025-10-25T11:24:13Z</time>
      </trkpt>
      <trkpt lat="48.56648" lon="2.13521">
        <ele>99.6</ele>
        <time>2025-10-25T11:24:15Z</time>
      </trkpt>
      <trkpt lat="48.5665" lon="2.13518">
        <ele>99.6</ele>
        <time>2025-10-25T11:24:17Z</time>
      </trkpt>
      <trkpt lat="48.56652" lon="2.13515">
        <ele>99.4</ele>
        <time>2025-10-25T11:24:19Z</time>
      </trkpt>
      <trkpt lat="48.56653" lon="2.13512">
        <ele>99.2</ele>
        <time>2025-10-25T11:24:21Z</time>
      </trkpt>
      <trkpt lat="48.56655" lon="2.13508">
        <ele>99.2</ele>
        <time>2025-10-25T11:24:23Z</time>
      </trkpt>
      <trkpt lat="48.56657" lon="2.13505">
        <ele>99</ele>
        <time>2025-10-25T11:24:25Z</time>
      </trkpt>
      <trkpt lat="48.56659" lon="2.13502">
        <ele>99.2</ele>
        <time>2025-10-25T11:24:27Z</time>
      </trkpt>
      <trkpt lat="48.56661" lon="2.13498">
        <ele>99.2</ele>
        <time>2025-10-25T11:24:29Z</time>
      </trkpt>
      <trkpt lat="48.56663" lon="2.13494">
        <ele>99.2</ele>
        <time>2025-10-25T11:24:31Z</time>
      </trkpt>
      <trkpt lat="48.56665" lon="2.13491">
        <ele>99</ele>
        <time>2025-10-25T11:24:33Z</time>
      </trkpt>
      <trkpt lat="48.56666" lon="2.13487">
        <ele>99</ele>
        <time>2025-10-25T11:24:35Z</time>
      </trkpt>
      <trkpt lat="48.56668" lon="2.13484">
        <ele>99</ele>
        <time>2025-10-25T11:24:37Z</time>
      </trkpt>
      <trkpt lat="48.5667" lon="2.1348">
        <ele>98.8</ele>
        <time>2025-10-25T11:24:39Z</time>
      </trkpt>
      <trkpt lat="48.56671" lon="2.13477">
        <ele>98.6</ele>
        <time>2025-10-25T11:24:41Z</time>
      </trkpt>
      <trkpt lat="48.56673" lon="2.13474">
        <ele>98.4</ele>
        <time>2025-10-25T11:24:43Z</time>
      </trkpt>
      <trkpt lat="48.56675" lon="2.1347">
        <ele>98.2</ele>
        <time>2025-10-25T11:24:45Z</time>
      </trkpt>
      <trkpt lat="48.56676" lon="2.13467">
        <ele>98.2</ele>
        <time>2025-10-25T11:24:47Z</time>
      </trkpt>
      <trkpt lat="48.56678" lon="2.13463">
        <ele>97.8</ele>
        <time>2025-10-25T11:24:49Z</time>
      </trkpt>
      <trkpt lat="48.5668" lon="2.1346">
        <ele>97.6</ele>
        <time>2025-10-25T11:24:51Z</time>
      </trkpt>
      <trkpt lat="48.56682" lon="2.13456">
        <ele>97.4</ele>
        <time>2025-10-25T11:24:53Z</time>
      </trkpt>
      <trkpt lat="48.56684" lon="2.13452">
        <ele>97.2</ele>
        <time>2025-10-25T11:24:55Z</time>
      </trkpt>
      <trkpt lat="48.56686" lon="2.13449">
        <ele>97.2</ele>
        <time>2025-10-25T11:24:57Z</time>
      </trkpt>
      <trkpt lat="48.56688" lon="2.13445">
        <ele>97</ele>
        <time>2025-10-25T11:24:59Z</time>
      </trkpt>
      <trkpt lat="48.5669" lon="2.13441">
        <ele>97</ele>
        <time>2025-10-25T11:25:01Z</time>
      </trkpt>
      <trkpt lat="48.56692" lon="2.13437">
        <ele>96.8</ele>
        <time>2025-10-25T11:25:03Z</time>
      </trkpt>
      <trkpt lat="48.56693" lon="2.13434">
        <ele>96.8</ele>
        <time>2025-10-25T11:25:05Z</time>
      </trkpt>
      <trkpt lat="48.56695" lon="2.1343">
        <ele>96.8</ele>
        <time>2025-10-25T11:25:07Z</time>
      </trkpt>
      <trkpt lat="48.56697" lon="2.13427">
        <ele>96.8</ele>
        <time>2025-10-25T11:25:09Z</time>
      </trkpt>
      <trkpt lat="48.56699" lon="2.13424">
        <ele>96.8</ele>
        <time>2025-10-25T11:25:11Z</time>
      </trkpt>
      <trkpt lat="48.56701" lon="2.13421">
        <ele>96.8</ele>
        <time>2025-10-25T11:25:13Z</time>
      </trkpt>
      <trkpt lat="48.56703" lon="2.13418">
        <ele>96.6</ele>
        <time>2025-10-25T11:25:15Z</time>
      </trkpt>
      <trkpt lat="48.56705" lon="2.13415">
        <ele>96.6</ele>
        <time>2025-10-25T11:25:17Z</time>
      </trkpt>
      <trkpt lat="48.56707" lon="2.13412">
        <ele>96.6</ele>
        <time>2025-10-25T11:25:19Z</time>
      </trkpt>
      <trkpt lat="48.56708" lon="2.13409">
        <ele>96.4</ele>
        <time>2025-10-25T11:25:21Z</time>
      </trkpt>
      <trkpt lat="48.5671" lon="2.13405">
        <ele>96.2</ele>
        <time>2025-10-25T11:25:23Z</time>
      </trkpt>
      <trkpt lat="48.56712" lon="2.13402">
        <ele>96</ele>
        <time>2025-10-25T11:25:25Z</time>
      </trkpt>
      <trkpt lat="48.56714" lon="2.13399">
        <ele>95.8</ele>
        <time>2025-10-25T11:25:27Z</time>
      </trkpt>
      <trkpt lat="48.56716" lon="2.13396">
        <ele>95.6</ele>
        <time>2025-10-25T11:25:29Z</time>
      </trkpt>
      <trkpt lat="48.56717" lon="2.13392">
        <ele>95.4</ele>
        <time>2025-10-25T11:25:31Z</time>
      </trkpt>
      <trkpt lat="48.56719" lon="2.13389">
        <ele>95.4</ele>
        <time>2025-10-25T11:25:33Z</time>
      </trkpt>
      <trkpt lat="48.56721" lon="2.13386">
        <ele>95.4</ele>
        <time>2025-10-25T11:25:35Z</time>
      </trkpt>
      <trkpt lat="48.56723" lon="2.13382">
        <ele>95.4</ele>
        <time>2025-10-25T11:25:37Z</time>
      </trkpt>
      <trkpt lat="48.56724" lon="2.13378">
        <ele>95.4</ele>
        <time>2025-10-25T11:25:39Z</time>
      </trkpt>
      <trkpt lat="48.56726" lon="2.13374">
        <ele>95.4</ele>
        <time>2025-10-25T11:25:41Z</time>
      </trkpt>
      <trkpt lat="48.56728" lon="2.13371">
        <ele>95.2</ele>
        <time>2025-10-25T11:25:43Z</time>
      </trkpt>
      <trkpt lat="48.5673" lon="2.13369">
        <ele>95</ele>
        <time>2025-10-25T11:25:45Z</time>
      </trkpt>
      <trkpt lat="48.56732" lon="2.13367">
        <ele>95</ele>
        <time>2025-10-25T11:25:47Z</time>
      </trkpt>
      <trkpt lat="48.56734" lon="2.13364">
        <ele>94.8</ele>
        <time>2025-10-25T11:25:49Z</time>
      </trkpt>
      <trkpt lat="48.56735" lon="2.13361">
        <ele>94.6</ele>
        <time>2025-10-25T11:25:51Z</time>
      </trkpt>
      <trkpt lat="48.56737" lon="2.13358">
        <ele>94.6</ele>
        <time>2025-10-25T11:25:53Z</time>
      </trkpt>
      <trkpt lat="48.56739" lon="2.13355">
        <ele>94.4</ele>
        <time>2025-10-25T11:25:55Z</time>
      </trkpt>
      <trkpt lat="48.5674" lon="2.13351">
        <ele>94.4</ele>
        <time>2025-10-25T11:25:57Z</time>
      </trkpt>
      <trkpt lat="48.56742" lon="2.13348">
        <ele>94.4</ele>
        <time>2025-10-25T11:25:59Z</time>
      </trkpt>
      <trkpt lat="48.56743" lon="2.13345">
        <ele>94.4</ele>
        <time>2025-10-25T11:26:01Z</time>
      </trkpt>
      <trkpt lat="48.56744" lon="2.13341">
        <ele>94.2</ele>
        <time>2025-10-25T11:26:03Z</time>
      </trkpt>
      <trkpt lat="48.56746" lon="2.13337">
        <ele>94.2</ele>
        <time>2025-10-25T11:26:05Z</time>
      </trkpt>
      <trkpt lat="48.56748" lon="2.13334">
        <ele>93.8</ele>
        <time>2025-10-25T11:26:07Z</time>
      </trkpt>
      <trkpt lat="48.56749" lon="2.13331">
        <ele>93.6</ele>
        <time>2025-10-25T11:26:09Z</time>
      </trkpt>
      <trkpt lat="48.5675" lon="2.13328">
        <ele>93.4</ele>
        <time>2025-10-25T11:26:11Z</time>
      </trkpt>
      <trkpt lat="48.56752" lon="2.13325">
        <ele>93.4</ele>
        <time>2025-10-25T11:26:13Z</time>
      </trkpt>
      <trkpt lat="48.56754" lon="2.13322">
        <ele>93.2</ele>
        <time>2025-10-25T11:26:15Z</time>
      </trkpt>
      <trkpt lat="48.56756" lon="2.13319">
        <ele>93.2</ele>
        <time>2025-10-25T11:26:17Z</time>
      </trkpt>
      <trkpt lat="48.56757" lon="2.13315">
        <ele>93</ele>
        <time>2025-10-25T11:26:19Z</time>
      </trkpt>
      <trkpt lat="48.56759" lon="2.13312">
        <ele>93</ele>
        <time>2025-10-25T11:26:21Z</time>
      </trkpt>
      <trkpt lat="48.56761" lon="2.13308">
        <ele>93</ele>
        <time>2025-10-25T11:26:23Z</time>
      </trkpt>
      <trkpt lat="48.56762" lon="2.13305">
        <ele>92.8</ele>
        <time>2025-10-25T11:26:25Z</time>
      </trkpt>
      <trkpt lat="48.56764" lon="2.13301">
        <ele>92.6</ele>
        <time>2025-10-25T11:26:27Z</time>
      </trkpt>
      <trkpt lat="48.56765" lon="2.13298">
        <ele>92.4</ele>
        <time>2025-10-25T11:26:29Z</time>
      </trkpt>
      <trkpt lat="48.56766" lon="2.13294">
        <ele>92.4</ele>
        <time>2025-10-25T11:26:31Z</time>
      </trkpt>
      <trkpt lat="48.56768" lon="2.13291">
        <ele>92.4</ele>
        <time>2025-10-25T11:26:33Z</time>
      </trkpt>
      <trkpt lat="48.5677" lon="2.13288">
        <ele>92.6</ele>
        <time>2025-10-25T11:26:35Z</time>
      </trkpt>
      <trkpt lat="48.56772" lon="2.13285">
        <ele>92.6</ele>
        <time>2025-10-25T11:26:37Z</time>
      </trkpt>
      <trkpt lat="48.56774" lon="2.13282">
        <ele>92.6</ele>
        <time>2025-10-25T11:26:39Z</time>
      </trkpt>
      <trkpt lat="48.56777" lon="2.1328">
        <ele>92.8</ele>
        <time>2025-10-25T11:26:41Z</time>
      </trkpt>
      <trkpt lat="48.56779" lon="2.13279">
        <ele>92.8</ele>
        <time>2025-10-25T11:26:43Z</time>
      </trkpt>
      <trkpt lat="48.56782" lon="2.13279">
        <ele>92.8</ele>
        <time>2025-10-25T11:26:45Z</time>
      </trkpt>
      <trkpt lat="48.56784" lon="2.13279">
        <ele>93</ele>
        <time>2025-10-25T11:26:47Z</time>
      </trkpt>
      <trkpt lat="48.56787" lon="2.1328">
        <ele>93</ele>
        <time>2025-10-25T11:26:49Z</time>
      </trkpt>
      <trkpt lat="48.56789" lon="2.13281">
        <ele>92.8</ele>
        <time>2025-10-25T11:26:51Z</time>
      </trkpt>
      <trkpt lat="48.56791" lon="2.13284">
        <ele>92.8</ele>
        <time>2025-10-25T11:26:53Z</time>
      </trkpt>
      <trkpt lat="48.56793" lon="2.13286">
        <ele>92.8</ele>
        <time>2025-10-25T11:26:55Z</time>
      </trkpt>
      <trkpt lat="48.56794" lon="2.13289">
        <ele>92.6</ele>
        <time>2025-10-25T11:26:57Z</time>
      </trkpt>
      <trkpt lat="48.56795" lon="2.13291">
        <ele>92.4</ele>
        <time>2025-10-25T11:26:59Z</time>
      </trkpt>
      <trkpt lat="48.56796" lon="2.13294">
        <ele>92.4</ele>
        <time>2025-10-25T11:27:02Z</time>
      </trkpt>
      <trkpt lat="48.56796" lon="2.13297">
        <ele>92.4</ele>
        <time>2025-10-25T11:27:04Z</time>
      </trkpt>
      <trkpt lat="48.56797" lon="2.133">
        <ele>92.2</ele>
        <time>2025-10-25T11:27:06Z</time>
      </trkpt>
      <trkpt lat="48.56798" lon="2.13303">
        <ele>92.2</ele>
        <time>2025-10-25T11:27:08Z</time>
      </trkpt>
      <trkpt lat="48.568" lon="2.13306">
        <ele>92.2</ele>
        <time>2025-10-25T11:27:10Z</time>
      </trkpt>
      <trkpt lat="48.56801" lon="2.13309">
        <ele>92.2</ele>
        <time>2025-10-25T11:27:12Z</time>
      </trkpt>
      <trkpt lat="48.56802" lon="2.13313">
        <ele>92.2</ele>
        <time>2025-10-25T11:27:14Z</time>
      </trkpt>
      <trkpt lat="48.56804" lon="2.13316">
        <ele>92.2</ele>
        <time>2025-10-25T11:27:16Z</time>
      </trkpt>
      <trkpt lat="48.56805" lon="2.13319">
        <ele>92.4</ele>
        <time>2025-10-25T11:27:18Z</time>
      </trkpt>
      <trkpt lat="48.56806" lon="2.13323">
        <ele>92.4</ele>
        <time>2025-10-25T11:27:20Z</time>
      </trkpt>
      <trkpt lat="48.56807" lon="2.13326">
        <ele>92.6</ele>
        <time>2025-10-25T11:27:22Z</time>
      </trkpt>
      <trkpt lat="48.56808" lon="2.13329">
        <ele>92.6</ele>
        <time>2025-10-25T11:27:24Z</time>
      </trkpt>
      <trkpt lat="48.5681" lon="2.13332">
        <ele>92.8</ele>
        <time>2025-10-25T11:27:26Z</time>
      </trkpt>
      <trkpt lat="48.56811" lon="2.13335">
        <ele>92.8</ele>
        <time>2025-10-25T11:27:28Z</time>
      </trkpt>
      <trkpt lat="48.56812" lon="2.13338">
        <ele>93</ele>
        <time>2025-10-25T11:27:30Z</time>
      </trkpt>
      <trkpt lat="48.56814" lon="2.13342">
        <ele>93</ele>
        <time>2025-10-25T11:27:32Z</time>
      </trkpt>
      <trkpt lat="48.56815" lon="2.13345">
        <ele>93</ele>
        <time>2025-10-25T11:27:34Z</time>
      </trkpt>
      <trkpt lat="48.56817" lon="2.13348">
        <ele>92.8</ele>
        <time>2025-10-25T11:27:36Z</time>
      </trkpt>
      <trkpt lat="48.56817" lon="2.13352">
        <ele>92.8</ele>
        <time>2025-10-25T11:27:38Z</time>
      </trkpt>
      <trkpt lat="48.56818" lon="2.13356">
        <ele>93</ele>
        <time>2025-10-25T11:27:40Z</time>
      </trkpt>
      <trkpt lat="48.56819" lon="2.1336">
        <ele>93</ele>
        <time>2025-10-25T11:27:42Z</time>
      </trkpt>
      <trkpt lat="48.5682" lon="2.13363">
        <ele>93.2</ele>
        <time>2025-10-25T11:27:44Z</time>
      </trkpt>
      <trkpt lat="48.56822" lon="2.13367">
        <ele>93.2</ele>
        <time>2025-10-25T11:27:46Z</time>
      </trkpt>
      <trkpt lat="48.56823" lon="2.13371">
        <ele>93.4</ele>
        <time>2025-10-25T11:27:48Z</time>
      </trkpt>
      <trkpt lat="48.56824" lon="2.13374">
        <ele>93.6</ele>
        <time>2025-10-25T11:27:50Z</time>
      </trkpt>
      <trkpt lat="48.56825" lon="2.13378">
        <ele>93.8</ele>
        <time>2025-10-25T11:27:52Z</time>
      </trkpt>
      <trkpt lat="48.56827" lon="2.13382">
        <ele>94</ele>
        <time>2025-10-25T11:27:54Z</time>
      </trkpt>
      <trkpt lat="48.56828" lon="2.13385">
        <ele>94</ele>
        <time>2025-10-25T11:27:56Z</time>
      </trkpt>
      <trkpt lat="48.56828" lon="2.13389">
        <ele>94</ele>
        <time>2025-10-25T11:27:58Z</time>
      </trkpt>
      <trkpt lat="48.56829" lon="2.13393">
        <ele>94.4</ele>
        <time>2025-10-25T11:28:00Z</time>
      </trkpt>
      <trkpt lat="48.5683" lon="2.13396">
        <ele>94.6</ele>
        <time>2025-10-25T11:28:02Z</time>
      </trkpt>
      <trkpt lat="48.56831" lon="2.134">
        <ele>94.8</ele>
        <time>2025-10-25T11:28:04Z</time>
      </trkpt>
      <trkpt lat="48.56832" lon="2.13404">
        <ele>95</ele>
        <time>2025-10-25T11:28:06Z</time>
      </trkpt>
      <trkpt lat="48.56833" lon="2.13407">
        <ele>95.2</ele>
        <time>2025-10-25T11:28:08Z</time>
      </trkpt>
      <trkpt lat="48.56835" lon="2.13411">
        <ele>95.6</ele>
        <time>2025-10-25T11:28:10Z</time>
      </trkpt>
      <trkpt lat="48.56836" lon="2.13415">
        <ele>96</ele>
        <time>2025-10-25T11:28:12Z</time>
      </trkpt>
      <trkpt lat="48.56838" lon="2.13418">
        <ele>96.2</ele>
        <time>2025-10-25T11:28:14Z</time>
      </trkpt>
      <trkpt lat="48.5684" lon="2.13422">
        <ele>96.4</ele>
        <time>2025-10-25T11:28:16Z</time>
      </trkpt>
      <trkpt lat="48.56841" lon="2.13426">
        <ele>96.4</ele>
        <time>2025-10-25T11:28:18Z</time>
      </trkpt>
      <trkpt lat="48.56843" lon="2.13429">
        <ele>96.4</ele>
        <time>2025-10-25T11:28:20Z</time>
      </trkpt>
      <trkpt lat="48.56843" lon="2.13433">
        <ele>96.4</ele>
        <time>2025-10-25T11:28:22Z</time>
      </trkpt>
      <trkpt lat="48.56844" lon="2.13438">
        <ele>96.4</ele>
        <time>2025-10-25T11:28:24Z</time>
      </trkpt>
      <trkpt lat="48.56846" lon="2.13442">
        <ele>96.6</ele>
        <time>2025-10-25T11:28:26Z</time>
      </trkpt>
      <trkpt lat="48.56847" lon="2.13446">
        <ele>96.8</ele>
        <time>2025-10-25T11:28:28Z</time>
      </trkpt>
      <trkpt lat="48.56849" lon="2.13449">
        <ele>96.8</ele>
        <time>2025-10-25T11:28:30Z</time>
      </trkpt>
      <trkpt lat="48.56852" lon="2.13452">
        <ele>96.8</ele>
        <time>2025-10-25T11:28:32Z</time>
      </trkpt>
      <trkpt lat="48.56854" lon="2.13454">
        <ele>97</ele>
        <time>2025-10-25T11:28:34Z</time>
      </trkpt>
      <trkpt lat="48.56857" lon="2.13456">
        <ele>97.2</ele>
        <time>2025-10-25T11:28:36Z</time>
      </trkpt>
      <trkpt lat="48.56859" lon="2.13457">
        <ele>97.4</ele>
        <time>2025-10-25T11:28:38Z</time>
      </trkpt>
      <trkpt lat="48.56861" lon="2.13458">
        <ele>97.8</ele>
        <time>2025-10-25T11:28:40Z</time>
      </trkpt>
      <trkpt lat="48.56864" lon="2.13459">
        <ele>98</ele>
        <time>2025-10-25T11:28:42Z</time>
      </trkpt>
      <trkpt lat="48.56867" lon="2.1346">
        <ele>98.2</ele>
        <time>2025-10-25T11:28:44Z</time>
      </trkpt>
      <trkpt lat="48.56869" lon="2.1346">
        <ele>98.4</ele>
        <time>2025-10-25T11:28:46Z</time>
      </trkpt>
      <trkpt lat="48.56872" lon="2.1346">
        <ele>98.6</ele>
        <time>2025-10-25T11:28:48Z</time>
      </trkpt>
      <trkpt lat="48.56875" lon="2.13461">
        <ele>98.8</ele>
        <time>2025-10-25T11:28:50Z</time>
      </trkpt>
      <trkpt lat="48.56877" lon="2.13462">
        <ele>98.8</ele>
        <time>2025-10-25T11:28:52Z</time>
      </trkpt>
      <trkpt lat="48.56879" lon="2.13462">
        <ele>99</ele>
        <time>2025-10-25T11:28:54Z</time>
      </trkpt>
      <trkpt lat="48.56881" lon="2.13463">
        <ele>99</ele>
        <time>2025-10-25T11:28:56Z</time>
      </trkpt>
      <trkpt lat="48.56884" lon="2.13464">
        <ele>99.2</ele>
        <time>2025-10-25T11:28:58Z</time>
      </trkpt>
      <trkpt lat="48.56887" lon="2.13465">
        <ele>99.4</ele>
        <time>2025-10-25T11:29:00Z</time>
      </trkpt>
      <trkpt lat="48.56889" lon="2.13465">
        <ele>99.4</ele>
        <time>2025-10-25T11:29:02Z</time>
      </trkpt>
      <trkpt lat="48.56892" lon="2.13466">
        <ele>99.4</ele>
        <time>2025-10-25T11:29:04Z</time>
      </trkpt>
      <trkpt lat="48.56895" lon="2.13466">
        <ele>99.4</ele>
        <time>2025-10-25T11:29:06Z</time>
      </trkpt>
      <trkpt lat="48.56897" lon="2.13467">
        <ele>99.4</ele>
        <time>2025-10-25T11:29:08Z</time>
      </trkpt>
      <trkpt lat="48.569" lon="2.13468">
        <ele>99.6</ele>
        <time>2025-10-25T11:29:10Z</time>
      </trkpt>
      <trkpt lat="48.56903" lon="2.13468">
        <ele>99.6</ele>
        <time>2025-10-25T11:29:12Z</time>
      </trkpt>
      <trkpt lat="48.56905" lon="2.13469">
        <ele>99.6</ele>
        <time>2025-10-25T11:29:14Z</time>
      </trkpt>
      <trkpt lat="48.56908" lon="2.13469">
        <ele>99.8</ele>
        <time>2025-10-25T11:29:16Z</time>
      </trkpt>
      <trkpt lat="48.56911" lon="2.1347">
        <ele>99.8</ele>
        <time>2025-10-25T11:29:18Z</time>
      </trkpt>
      <trkpt lat="48.56913" lon="2.1347">
        <ele>100</ele>
        <time>2025-10-25T11:29:19Z</time>
      </trkpt>
      <trkpt lat="48.56915" lon="2.1347">
        <ele>100</ele>
        <time>2025-10-25T11:29:20Z</time>
      </trkpt>
      <trkpt lat="48.56918" lon="2.1347">
        <ele>100</ele>
        <time>2025-10-25T11:29:22Z</time>
      </trkpt>
      <trkpt lat="48.56921" lon="2.13471">
        <ele>100</ele>
        <time>2025-10-25T11:29:24Z</time>
      </trkpt>
      <trkpt lat="48.56924" lon="2.13471">
        <ele>100</ele>
        <time>2025-10-25T11:29:26Z</time>
      </trkpt>
      <trkpt lat="48.56926" lon="2.13472">
        <ele>100.2</ele>
        <time>2025-10-25T11:29:28Z</time>
      </trkpt>
      <trkpt lat="48.56928" lon="2.13473">
        <ele>100.4</ele>
        <time>2025-10-25T11:29:30Z</time>
      </trkpt>
      <trkpt lat="48.56931" lon="2.13474">
        <ele>100.4</ele>
        <time>2025-10-25T11:29:32Z</time>
      </trkpt>
      <trkpt lat="48.56933" lon="2.13475">
        <ele>100.6</ele>
        <time>2025-10-25T11:29:34Z</time>
      </trkpt>
      <trkpt lat="48.56936" lon="2.13477">
        <ele>100.6</ele>
        <time>2025-10-25T11:29:36Z</time>
      </trkpt>
      <trkpt lat="48.56939" lon="2.13479">
        <ele>100.8</ele>
        <time>2025-10-25T11:29:38Z</time>
      </trkpt>
      <trkpt lat="48.56942" lon="2.13481">
        <ele>100.8</ele>
        <time>2025-10-25T11:29:40Z</time>
      </trkpt>
      <trkpt lat="48.56944" lon="2.13482">
        <ele>101</ele>
        <time>2025-10-25T11:29:42Z</time>
      </trkpt>
      <trkpt lat="48.56947" lon="2.13484">
        <ele>101.2</ele>
        <time>2025-10-25T11:29:44Z</time>
      </trkpt>
      <trkpt lat="48.5695" lon="2.13485">
        <ele>101.2</ele>
        <time>2025-10-25T11:29:46Z</time>
      </trkpt>
      <trkpt lat="48.56953" lon="2.13487">
        <ele>101</ele>
        <time>2025-10-25T11:29:48Z</time>
      </trkpt>
      <trkpt lat="48.56955" lon="2.13488">
        <ele>100.8</ele>
        <time>2025-10-25T11:29:50Z</time>
      </trkpt>
      <trkpt lat="48.56958" lon="2.1349">
        <ele>100.6</ele>
        <time>2025-10-25T11:29:52Z</time>
      </trkpt>
      <trkpt lat="48.56962" lon="2.13491">
        <ele>100.4</ele>
        <time>2025-10-25T11:29:54Z</time>
      </trkpt>
      <trkpt lat="48.56964" lon="2.13494">
        <ele>100.2</ele>
        <time>2025-10-25T11:29:56Z</time>
      </trkpt>
      <trkpt lat="48.56967" lon="2.13496">
        <ele>99.8</ele>
        <time>2025-10-25T11:29:58Z</time>
      </trkpt>
      <trkpt lat="48.5697" lon="2.13497">
        <ele>99.8</ele>
        <time>2025-10-25T11:30:00Z</time>
      </trkpt>
      <trkpt lat="48.56972" lon="2.13499">
        <ele>99.2</ele>
        <time>2025-10-25T11:30:02Z</time>
      </trkpt>
      <trkpt lat="48.56975" lon="2.13501">
        <ele>99</ele>
        <time>2025-10-25T11:30:04Z</time>
      </trkpt>
      <trkpt lat="48.56977" lon="2.13503">
        <ele>98.8</ele>
        <time>2025-10-25T11:30:06Z</time>
      </trkpt>
      <trkpt lat="48.5698" lon="2.13505">
        <ele>98.6</ele>
        <time>2025-10-25T11:30:08Z</time>
      </trkpt>
      <trkpt lat="48.56982" lon="2.13507">
        <ele>98.4</ele>
        <time>2025-10-25T11:30:10Z</time>
      </trkpt>
      <trkpt lat="48.56984" lon="2.1351">
        <ele>98.2</ele>
        <time>2025-10-25T11:30:12Z</time>
      </trkpt>
      <trkpt lat="48.56986" lon="2.13511">
        <ele>98</ele>
        <time>2025-10-25T11:30:13Z</time>
      </trkpt>
      <trkpt lat="48.56988" lon="2.13514">
        <ele>97.8</ele>
        <time>2025-10-25T11:30:15Z</time>
      </trkpt>
      <trkpt lat="48.56991" lon="2.13516">
        <ele>97.8</ele>
        <time>2025-10-25T11:30:17Z</time>
      </trkpt>
      <trkpt lat="48.56994" lon="2.13518">
        <ele>97.6</ele>
        <time>2025-10-25T11:30:19Z</time>
      </trkpt>
      <trkpt lat="48.56996" lon="2.13521">
        <ele>97.6</ele>
        <time>2025-10-25T11:30:21Z</time>
      </trkpt>
      <trkpt lat="48.56998" lon="2.13522">
        <ele>97.4</ele>
        <time>2025-10-25T11:30:22Z</time>
      </trkpt>
      <trkpt lat="48.57" lon="2.13525">
        <ele>97.2</ele>
        <time>2025-10-25T11:30:24Z</time>
      </trkpt>
      <trkpt lat="48.57003" lon="2.13528">
        <ele>97</ele>
        <time>2025-10-25T11:30:26Z</time>
      </trkpt>
      <trkpt lat="48.57005" lon="2.13532">
        <ele>96.6</ele>
        <time>2025-10-25T11:30:28Z</time>
      </trkpt>
      <trkpt lat="48.57007" lon="2.13535">
        <ele>96.4</ele>
        <time>2025-10-25T11:30:30Z</time>
      </trkpt>
      <trkpt lat="48.57008" lon="2.13539">
        <ele>96.2</ele>
        <time>2025-10-25T11:30:32Z</time>
      </trkpt>
      <trkpt lat="48.5701" lon="2.13542">
        <ele>95.8</ele>
        <time>2025-10-25T11:30:34Z</time>
      </trkpt>
      <trkpt lat="48.57012" lon="2.13545">
        <ele>95.6</ele>
        <time>2025-10-25T11:30:36Z</time>
      </trkpt>
      <trkpt lat="48.57014" lon="2.13547">
        <ele>95.4</ele>
        <time>2025-10-25T11:30:38Z</time>
      </trkpt>
      <trkpt lat="48.57017" lon="2.13549">
        <ele>95.4</ele>
        <time>2025-10-25T11:30:40Z</time>
      </trkpt>
      <trkpt lat="48.5702" lon="2.13551">
        <ele>95.4</ele>
        <time>2025-10-25T11:30:42Z</time>
      </trkpt>
      <trkpt lat="48.57022" lon="2.13553">
        <ele>95.2</ele>
        <time>2025-10-25T11:30:44Z</time>
      </trkpt>
      <trkpt lat="48.57024" lon="2.13555">
        <ele>95</ele>
        <time>2025-10-25T11:30:46Z</time>
      </trkpt>
      <trkpt lat="48.57027" lon="2.13556">
        <ele>95</ele>
        <time>2025-10-25T11:30:48Z</time>
      </trkpt>
      <trkpt lat="48.5703" lon="2.13558">
        <ele>94.8</ele>
        <time>2025-10-25T11:30:50Z</time>
      </trkpt>
      <trkpt lat="48.57033" lon="2.1356">
        <ele>94.6</ele>
        <time>2025-10-25T11:30:52Z</time>
      </trkpt>
      <trkpt lat="48.57036" lon="2.13561">
        <ele>94.6</ele>
        <time>2025-10-25T11:30:54Z</time>
      </trkpt>
      <trkpt lat="48.57038" lon="2.13562">
        <ele>94.6</ele>
        <time>2025-10-25T11:30:56Z</time>
      </trkpt>
      <trkpt lat="48.57041" lon="2.13562">
        <ele>94.4</ele>
        <time>2025-10-25T11:30:58Z</time>
      </trkpt>
      <trkpt lat="48.57044" lon="2.13562">
        <ele>94.4</ele>
        <time>2025-10-25T11:31:00Z</time>
      </trkpt>
      <trkpt lat="48.57046" lon="2.13562">
        <ele>94.4</ele>
        <time>2025-10-25T11:31:02Z</time>
      </trkpt>
      <trkpt lat="48.57048" lon="2.13563">
        <ele>94.4</ele>
        <time>2025-10-25T11:31:04Z</time>
      </trkpt>
      <trkpt lat="48.5705" lon="2.13563">
        <ele>94.6</ele>
        <time>2025-10-25T11:31:06Z</time>
      </trkpt>
      <trkpt lat="48.57052" lon="2.13564">
        <ele>94.4</ele>
        <time>2025-10-25T11:31:08Z</time>
      </trkpt>
      <trkpt lat="48.57056" lon="2.13564">
        <ele>94.4</ele>
        <time>2025-10-25T11:31:10Z</time>
      </trkpt>
      <trkpt lat="48.57058" lon="2.13565">
        <ele>94.4</ele>
        <time>2025-10-25T11:31:11Z</time>
      </trkpt>
      <trkpt lat="48.5706" lon="2.13566">
        <ele>94.4</ele>
        <time>2025-10-25T11:31:13Z</time>
      </trkpt>
      <trkpt lat="48.57062" lon="2.13566">
        <ele>94.4</ele>
        <time>2025-10-25T11:31:15Z</time>
      </trkpt>
      <trkpt lat="48.57064" lon="2.13566">
        <ele>94.4</ele>
        <time>2025-10-25T11:31:17Z</time>
      </trkpt>
      <trkpt lat="48.57066" lon="2.13566">
        <ele>94.4</ele>
        <time>2025-10-25T11:31:19Z</time>
      </trkpt>
      <trkpt lat="48.57069" lon="2.13567">
        <ele>94.2</ele>
        <time>2025-10-25T11:31:21Z</time>
      </trkpt>
      <trkpt lat="48.57072" lon="2.13568">
        <ele>94.2</ele>
        <time>2025-10-25T11:31:23Z</time>
      </trkpt>
      <trkpt lat="48.57075" lon="2.13568">
        <ele>94.2</ele>
        <time>2025-10-25T11:31:25Z</time>
      </trkpt>
      <trkpt lat="48.57077" lon="2.13568">
        <ele>94.2</ele>
        <time>2025-10-25T11:31:27Z</time>
      </trkpt>
      <trkpt lat="48.5708" lon="2.13568">
        <ele>94.2</ele>
        <time>2025-10-25T11:31:29Z</time>
      </trkpt>
      <trkpt lat="48.57082" lon="2.13568">
        <ele>94.4</ele>
        <time>2025-10-25T11:31:31Z</time>
      </trkpt>
      <trkpt lat="48.57085" lon="2.13569">
        <ele>94.6</ele>
        <time>2025-10-25T11:31:33Z</time>
      </trkpt>
      <trkpt lat="48.57088" lon="2.13569">
        <ele>94.6</ele>
        <time>2025-10-25T11:31:35Z</time>
      </trkpt>
      <trkpt lat="48.57091" lon="2.13569">
        <ele>94.6</ele>
        <time>2025-10-25T11:31:37Z</time>
      </trkpt>
      <trkpt lat="48.57093" lon="2.13569">
        <ele>94.6</ele>
        <time>2025-10-25T11:31:39Z</time>
      </trkpt>
      <trkpt lat="48.57097" lon="2.1357">
        <ele>94.4</ele>
        <time>2025-10-25T11:31:41Z</time>
      </trkpt>
      <trkpt lat="48.57099" lon="2.13571">
        <ele>94.4</ele>
        <time>2025-10-25T11:31:43Z</time>
      </trkpt>
      <trkpt lat="48.57102" lon="2.13572">
        <ele>94.2</ele>
        <time>2025-10-25T11:31:45Z</time>
      </trkpt>
      <trkpt lat="48.57105" lon="2.13573">
        <ele>94.2</ele>
        <time>2025-10-25T11:31:47Z</time>
      </trkpt>
      <trkpt lat="48.57108" lon="2.13574">
        <ele>94.2</ele>
        <time>2025-10-25T11:31:49Z</time>
      </trkpt>
      <trkpt lat="48.5711" lon="2.13575">
        <ele>94.2</ele>
        <time>2025-10-25T11:31:51Z</time>
      </trkpt>
      <trkpt lat="48.57112" lon="2.13576">
        <ele>94.2</ele>
        <time>2025-10-25T11:31:53Z</time>
      </trkpt>
      <trkpt lat="48.57115" lon="2.13577">
        <ele>94</ele>
        <time>2025-10-25T11:31:55Z</time>
      </trkpt>
      <trkpt lat="48.57118" lon="2.13577">
        <ele>93.8</ele>
        <time>2025-10-25T11:31:57Z</time>
      </trkpt>
      <trkpt lat="48.57121" lon="2.13578">
        <ele>93.6</ele>
        <time>2025-10-25T11:31:59Z</time>
      </trkpt>
      <trkpt lat="48.57124" lon="2.13578">
        <ele>93.2</ele>
        <time>2025-10-25T11:32:01Z</time>
      </trkpt>
      <trkpt lat="48.57127" lon="2.13577">
        <ele>93</ele>
        <time>2025-10-25T11:32:03Z</time>
      </trkpt>
      <trkpt lat="48.5713" lon="2.13578">
        <ele>92.8</ele>
        <time>2025-10-25T11:32:05Z</time>
      </trkpt>
      <trkpt lat="48.57133" lon="2.13578">
        <ele>92.6</ele>
        <time>2025-10-25T11:32:07Z</time>
      </trkpt>
      <trkpt lat="48.57136" lon="2.13579">
        <ele>92.4</ele>
        <time>2025-10-25T11:32:09Z</time>
      </trkpt>
      <trkpt lat="48.57139" lon="2.13579">
        <ele>92.4</ele>
        <time>2025-10-25T11:32:11Z</time>
      </trkpt>
      <trkpt lat="48.57141" lon="2.1358">
        <ele>92.2</ele>
        <time>2025-10-25T11:32:13Z</time>
      </trkpt>
      <trkpt lat="48.57143" lon="2.1358">
        <ele>92</ele>
        <time>2025-10-25T11:32:15Z</time>
      </trkpt>
      <trkpt lat="48.57146" lon="2.13581">
        <ele>91.8</ele>
        <time>2025-10-25T11:32:17Z</time>
      </trkpt>
      <trkpt lat="48.57148" lon="2.13582">
        <ele>91.8</ele>
        <time>2025-10-25T11:32:19Z</time>
      </trkpt>
      <trkpt lat="48.57151" lon="2.13583">
        <ele>91.8</ele>
        <time>2025-10-25T11:32:21Z</time>
      </trkpt>
      <trkpt lat="48.57153" lon="2.13584">
        <ele>91.8</ele>
        <time>2025-10-25T11:32:23Z</time>
      </trkpt>
      <trkpt lat="48.57155" lon="2.13584">
        <ele>91.6</ele>
        <time>2025-10-25T11:32:26Z</time>
      </trkpt>
      <trkpt lat="48.57157" lon="2.13585">
        <ele>90.8</ele>
        <time>2025-10-25T11:32:32Z</time>
      </trkpt>
      <trkpt lat="48.57159" lon="2.13586">
        <ele>90.6</ele>
        <time>2025-10-25T11:32:34Z</time>
      </trkpt>
      <trkpt lat="48.57161" lon="2.13587">
        <ele>90.6</ele>
        <time>2025-10-25T11:32:36Z</time>
      </trkpt>
      <trkpt lat="48.57164" lon="2.13589">
        <ele>90.4</ele>
        <time>2025-10-25T11:32:38Z</time>
      </trkpt>
      <trkpt lat="48.57166" lon="2.1359">
        <ele>90.2</ele>
        <time>2025-10-25T11:32:39Z</time>
      </trkpt>
      <trkpt lat="48.57169" lon="2.13591">
        <ele>89.8</ele>
        <time>2025-10-25T11:32:41Z</time>
      </trkpt>
      <trkpt lat="48.57172" lon="2.13592">
        <ele>89.6</ele>
        <time>2025-10-25T11:32:43Z</time>
      </trkpt>
      <trkpt lat="48.57173" lon="2.13592">
        <ele>89.4</ele>
        <time>2025-10-25T11:32:45Z</time>
      </trkpt>
      <trkpt lat="48.57176" lon="2.13593">
        <ele>89</ele>
        <time>2025-10-25T11:32:47Z</time>
      </trkpt>
      <trkpt lat="48.57179" lon="2.13593">
        <ele>88.8</ele>
        <time>2025-10-25T11:32:49Z</time>
      </trkpt>
      <trkpt lat="48.57181" lon="2.13593">
        <ele>88.4</ele>
        <time>2025-10-25T11:32:51Z</time>
      </trkpt>
      <trkpt lat="48.57184" lon="2.13593">
        <ele>88.2</ele>
        <time>2025-10-25T11:32:53Z</time>
      </trkpt>
      <trkpt lat="48.57187" lon="2.13594">
        <ele>87.8</ele>
        <time>2025-10-25T11:32:55Z</time>
      </trkpt>
      <trkpt lat="48.5719" lon="2.13596">
        <ele>87.6</ele>
        <time>2025-10-25T11:32:57Z</time>
      </trkpt>
      <trkpt lat="48.57193" lon="2.13597">
        <ele>87.2</ele>
        <time>2025-10-25T11:32:59Z</time>
      </trkpt>
      <trkpt lat="48.57196" lon="2.13598">
        <ele>86.8</ele>
        <time>2025-10-25T11:33:01Z</time>
      </trkpt>
      <trkpt lat="48.57198" lon="2.13598">
        <ele>86.6</ele>
        <time>2025-10-25T11:33:03Z</time>
      </trkpt>
      <trkpt lat="48.57201" lon="2.13599">
        <ele>86.2</ele>
        <time>2025-10-25T11:33:05Z</time>
      </trkpt>
      <trkpt lat="48.57203" lon="2.13599">
        <ele>86</ele>
        <time>2025-10-25T11:33:07Z</time>
      </trkpt>
      <trkpt lat="48.57206" lon="2.136">
        <ele>85.8</ele>
        <time>2025-10-25T11:33:09Z</time>
      </trkpt>
      <trkpt lat="48.57208" lon="2.13601">
        <ele>85.6</ele>
        <time>2025-10-25T11:33:11Z</time>
      </trkpt>
      <trkpt lat="48.57211" lon="2.13601">
        <ele>85.2</ele>
        <time>2025-10-25T11:33:13Z</time>
      </trkpt>
      <trkpt lat="48.57213" lon="2.13601">
        <ele>85</ele>
        <time>2025-10-25T11:33:15Z</time>
      </trkpt>
      <trkpt lat="48.57215" lon="2.13601">
        <ele>84.6</ele>
        <time>2025-10-25T11:33:17Z</time>
      </trkpt>
      <trkpt lat="48.57219" lon="2.13601">
        <ele>84.2</ele>
        <time>2025-10-25T11:33:19Z</time>
      </trkpt>
      <trkpt lat="48.57222" lon="2.13602">
        <ele>83.8</ele>
        <time>2025-10-25T11:33:21Z</time>
      </trkpt>
      <trkpt lat="48.57225" lon="2.13602">
        <ele>83.4</ele>
        <time>2025-10-25T11:33:23Z</time>
      </trkpt>
      <trkpt lat="48.57228" lon="2.13602">
        <ele>83</ele>
        <time>2025-10-25T11:33:25Z</time>
      </trkpt>
      <trkpt lat="48.57231" lon="2.13603">
        <ele>82.6</ele>
        <time>2025-10-25T11:33:27Z</time>
      </trkpt>
      <trkpt lat="48.57233" lon="2.13604">
        <ele>82.2</ele>
        <time>2025-10-25T11:33:29Z</time>
      </trkpt>
      <trkpt lat="48.57236" lon="2.13607">
        <ele>81.6</ele>
        <time>2025-10-25T11:33:31Z</time>
      </trkpt>
      <trkpt lat="48.57238" lon="2.1361">
        <ele>81.2</ele>
        <time>2025-10-25T11:33:33Z</time>
      </trkpt>
      <trkpt lat="48.57239" lon="2.13614">
        <ele>81</ele>
        <time>2025-10-25T11:33:35Z</time>
      </trkpt>
      <trkpt lat="48.5724" lon="2.13617">
        <ele>80.6</ele>
        <time>2025-10-25T11:33:37Z</time>
      </trkpt>
      <trkpt lat="48.57241" lon="2.13621">
        <ele>80.2</ele>
        <time>2025-10-25T11:33:39Z</time>
      </trkpt>
      <trkpt lat="48.57243" lon="2.13625">
        <ele>80</ele>
        <time>2025-10-25T11:33:41Z</time>
      </trkpt>
      <trkpt lat="48.57244" lon="2.13628">
        <ele>79.6</ele>
        <time>2025-10-25T11:33:43Z</time>
      </trkpt>
      <trkpt lat="48.57244" lon="2.13632">
        <ele>79.2</ele>
        <time>2025-10-25T11:33:45Z</time>
      </trkpt>
      <trkpt lat="48.57246" lon="2.13636">
        <ele>79</ele>
        <time>2025-10-25T11:33:47Z</time>
      </trkpt>
      <trkpt lat="48.57246" lon="2.1364">
        <ele>78.8</ele>
        <time>2025-10-25T11:33:49Z</time>
      </trkpt>
      <trkpt lat="48.57247" lon="2.13644">
        <ele>78.6</ele>
        <time>2025-10-25T11:33:51Z</time>
      </trkpt>
      <trkpt lat="48.57247" lon="2.13648">
        <ele>78.4</ele>
        <time>2025-10-25T11:33:53Z</time>
      </trkpt>
      <trkpt lat="48.57248" lon="2.13652">
        <ele>78.4</ele>
        <time>2025-10-25T11:33:55Z</time>
      </trkpt>
      <trkpt lat="48.57249" lon="2.13656">
        <ele>78.2</ele>
        <time>2025-10-25T11:33:57Z</time>
      </trkpt>
      <trkpt lat="48.5725" lon="2.1366">
        <ele>78</ele>
        <time>2025-10-25T11:33:59Z</time>
      </trkpt>
      <trkpt lat="48.57251" lon="2.13665">
        <ele>78</ele>
        <time>2025-10-25T11:34:01Z</time>
      </trkpt>
      <trkpt lat="48.57253" lon="2.13669">
        <ele>77.8</ele>
        <time>2025-10-25T11:34:03Z</time>
      </trkpt>
      <trkpt lat="48.57254" lon="2.13672">
        <ele>77.8</ele>
        <time>2025-10-25T11:34:05Z</time>
      </trkpt>
      <trkpt lat="48.57256" lon="2.13676">
        <ele>77.6</ele>
        <time>2025-10-25T11:34:07Z</time>
      </trkpt>
      <trkpt lat="48.57258" lon="2.1368">
        <ele>77.6</ele>
        <time>2025-10-25T11:34:09Z</time>
      </trkpt>
      <trkpt lat="48.57258" lon="2.13683">
        <ele>77.2</ele>
        <time>2025-10-25T11:34:11Z</time>
      </trkpt>
      <trkpt lat="48.57259" lon="2.13686">
        <ele>77</ele>
        <time>2025-10-25T11:34:13Z</time>
      </trkpt>
      <trkpt lat="48.5726" lon="2.13689">
        <ele>76.6</ele>
        <time>2025-10-25T11:34:15Z</time>
      </trkpt>
      <trkpt lat="48.5726" lon="2.13693">
        <ele>76.4</ele>
        <time>2025-10-25T11:34:17Z</time>
      </trkpt>
      <trkpt lat="48.57262" lon="2.13697">
        <ele>76</ele>
        <time>2025-10-25T11:34:19Z</time>
      </trkpt>
      <trkpt lat="48.57263" lon="2.137">
        <ele>75.8</ele>
        <time>2025-10-25T11:34:21Z</time>
      </trkpt>
      <trkpt lat="48.57264" lon="2.13704">
        <ele>75.4</ele>
        <time>2025-10-25T11:34:23Z</time>
      </trkpt>
      <trkpt lat="48.57266" lon="2.13708">
        <ele>75.4</ele>
        <time>2025-10-25T11:34:25Z</time>
      </trkpt>
      <trkpt lat="48.57267" lon="2.13711">
        <ele>75.2</ele>
        <time>2025-10-25T11:34:27Z</time>
      </trkpt>
      <trkpt lat="48.57268" lon="2.13715">
        <ele>74.8</ele>
        <time>2025-10-25T11:34:29Z</time>
      </trkpt>
      <trkpt lat="48.57268" lon="2.13719">
        <ele>74.6</ele>
        <time>2025-10-25T11:34:31Z</time>
      </trkpt>
      <trkpt lat="48.5727" lon="2.13723">
        <ele>74.6</ele>
        <time>2025-10-25T11:34:33Z</time>
      </trkpt>
      <trkpt lat="48.57271" lon="2.13727">
        <ele>74.4</ele>
        <time>2025-10-25T11:34:35Z</time>
      </trkpt>
      <trkpt lat="48.57272" lon="2.13731">
        <ele>74.4</ele>
        <time>2025-10-25T11:34:37Z</time>
      </trkpt>
      <trkpt lat="48.57274" lon="2.13735">
        <ele>74.4</ele>
        <time>2025-10-25T11:34:39Z</time>
      </trkpt>
      <trkpt lat="48.57275" lon="2.13739">
        <ele>74.2</ele>
        <time>2025-10-25T11:34:41Z</time>
      </trkpt>
      <trkpt lat="48.57276" lon="2.13743">
        <ele>74.2</ele>
        <time>2025-10-25T11:34:43Z</time>
      </trkpt>
      <trkpt lat="48.57277" lon="2.13747">
        <ele>74</ele>
        <time>2025-10-25T11:34:45Z</time>
      </trkpt>
      <trkpt lat="48.57278" lon="2.13751">
        <ele>73.8</ele>
        <time>2025-10-25T11:34:47Z</time>
      </trkpt>
      <trkpt lat="48.5728" lon="2.13755">
        <ele>73.6</ele>
        <time>2025-10-25T11:34:49Z</time>
      </trkpt>
      <trkpt lat="48.57281" lon="2.13759">
        <ele>73.2</ele>
        <time>2025-10-25T11:34:51Z</time>
      </trkpt>
      <trkpt lat="48.57282" lon="2.13762">
        <ele>73.2</ele>
        <time>2025-10-25T11:34:53Z</time>
      </trkpt>
      <trkpt lat="48.57283" lon="2.13766">
        <ele>72.8</ele>
        <time>2025-10-25T11:34:55Z</time>
      </trkpt>
      <trkpt lat="48.57284" lon="2.1377">
        <ele>72.6</ele>
        <time>2025-10-25T11:34:57Z</time>
      </trkpt>
      <trkpt lat="48.57286" lon="2.13774">
        <ele>72.4</ele>
        <time>2025-10-25T11:34:59Z</time>
      </trkpt>
      <trkpt lat="48.57287" lon="2.13779">
        <ele>72.2</ele>
        <time>2025-10-25T11:35:01Z</time>
      </trkpt>
      <trkpt lat="48.57289" lon="2.13783">
        <ele>72.2</ele>
        <time>2025-10-25T11:35:03Z</time>
      </trkpt>
      <trkpt lat="48.5729" lon="2.13788">
        <ele>72.2</ele>
        <time>2025-10-25T11:35:05Z</time>
      </trkpt>
      <trkpt lat="48.5729" lon="2.13792">
        <ele>72.2</ele>
        <time>2025-10-25T11:35:07Z</time>
      </trkpt>
      <trkpt lat="48.57291" lon="2.13796">
        <ele>72.2</ele>
        <time>2025-10-25T11:35:09Z</time>
      </trkpt>
      <trkpt lat="48.57292" lon="2.138">
        <ele>72.2</ele>
        <time>2025-10-25T11:35:11Z</time>
      </trkpt>
      <trkpt lat="48.57294" lon="2.13804">
        <ele>72.2</ele>
        <time>2025-10-25T11:35:13Z</time>
      </trkpt>
      <trkpt lat="48.57295" lon="2.13808">
        <ele>72</ele>
        <time>2025-10-25T11:35:15Z</time>
      </trkpt>
      <trkpt lat="48.57297" lon="2.13812">
        <ele>71.8</ele>
        <time>2025-10-25T11:35:17Z</time>
      </trkpt>
      <trkpt lat="48.57298" lon="2.13815">
        <ele>71.6</ele>
        <time>2025-10-25T11:35:19Z</time>
      </trkpt>
      <trkpt lat="48.573" lon="2.13819">
        <ele>71.4</ele>
        <time>2025-10-25T11:35:21Z</time>
      </trkpt>
      <trkpt lat="48.573" lon="2.13823">
        <ele>71.4</ele>
        <time>2025-10-25T11:35:23Z</time>
      </trkpt>
      <trkpt lat="48.57301" lon="2.13828">
        <ele>71.4</ele>
        <time>2025-10-25T11:35:25Z</time>
      </trkpt>
      <trkpt lat="48.57302" lon="2.13832">
        <ele>71.2</ele>
        <time>2025-10-25T11:35:27Z</time>
      </trkpt>
      <trkpt lat="48.57303" lon="2.13836">
        <ele>71</ele>
        <time>2025-10-25T11:35:29Z</time>
      </trkpt>
      <trkpt lat="48.57304" lon="2.1384">
        <ele>70.8</ele>
        <time>2025-10-25T11:35:31Z</time>
      </trkpt>
      <trkpt lat="48.57305" lon="2.13844">
        <ele>70.6</ele>
        <time>2025-10-25T11:35:33Z</time>
      </trkpt>
      <trkpt lat="48.57307" lon="2.13848">
        <ele>70.6</ele>
        <time>2025-10-25T11:35:35Z</time>
      </trkpt>
      <trkpt lat="48.57308" lon="2.13852">
        <ele>70.4</ele>
        <time>2025-10-25T11:35:37Z</time>
      </trkpt>
      <trkpt lat="48.5731" lon="2.13855">
        <ele>70.4</ele>
        <time>2025-10-25T11:35:39Z</time>
      </trkpt>
      <trkpt lat="48.5731" lon="2.13859">
        <ele>70.4</ele>
        <time>2025-10-25T11:35:41Z</time>
      </trkpt>
      <trkpt lat="48.57312" lon="2.13863">
        <ele>70.2</ele>
        <time>2025-10-25T11:35:43Z</time>
      </trkpt>
      <trkpt lat="48.57313" lon="2.13866">
        <ele>70.4</ele>
        <time>2025-10-25T11:35:45Z</time>
      </trkpt>
      <trkpt lat="48.57314" lon="2.1387">
        <ele>70.4</ele>
        <time>2025-10-25T11:35:47Z</time>
      </trkpt>
      <trkpt lat="48.57315" lon="2.13874">
        <ele>70.2</ele>
        <time>2025-10-25T11:35:49Z</time>
      </trkpt>
      <trkpt lat="48.57316" lon="2.13877">
        <ele>70.2</ele>
        <time>2025-10-25T11:35:51Z</time>
      </trkpt>
      <trkpt lat="48.57318" lon="2.13881">
        <ele>70.2</ele>
        <time>2025-10-25T11:35:53Z</time>
      </trkpt>
      <trkpt lat="48.57319" lon="2.13884">
        <ele>70.2</ele>
        <time>2025-10-25T11:35:55Z</time>
      </trkpt>
      <trkpt lat="48.5732" lon="2.13888">
        <ele>70.2</ele>
        <time>2025-10-25T11:35:57Z</time>
      </trkpt>
      <trkpt lat="48.57321" lon="2.13892">
        <ele>70.4</ele>
        <time>2025-10-25T11:35:59Z</time>
      </trkpt>
      <trkpt lat="48.57322" lon="2.13895">
        <ele>70.4</ele>
        <time>2025-10-25T11:36:01Z</time>
      </trkpt>
      <trkpt lat="48.57323" lon="2.13899">
        <ele>70.2</ele>
        <time>2025-10-25T11:36:03Z</time>
      </trkpt>
      <trkpt lat="48.57324" lon="2.13903">
        <ele>70</ele>
        <time>2025-10-25T11:36:05Z</time>
      </trkpt>
      <trkpt lat="48.57325" lon="2.13907">
        <ele>70</ele>
        <time>2025-10-25T11:36:07Z</time>
      </trkpt>
      <trkpt lat="48.57327" lon="2.13911">
        <ele>69.6</ele>
        <time>2025-10-25T11:36:09Z</time>
      </trkpt>
      <trkpt lat="48.57328" lon="2.13915">
        <ele>69.4</ele>
        <time>2025-10-25T11:36:11Z</time>
      </trkpt>
      <trkpt lat="48.5733" lon="2.13919">
        <ele>69.4</ele>
        <time>2025-10-25T11:36:13Z</time>
      </trkpt>
      <trkpt lat="48.57331" lon="2.13923">
        <ele>69.2</ele>
        <time>2025-10-25T11:36:15Z</time>
      </trkpt>
      <trkpt lat="48.57332" lon="2.13927">
        <ele>69</ele>
        <time>2025-10-25T11:36:17Z</time>
      </trkpt>
      <trkpt lat="48.57333" lon="2.1393">
        <ele>69</ele>
        <time>2025-10-25T11:36:19Z</time>
      </trkpt>
      <trkpt lat="48.57334" lon="2.13934">
        <ele>68.8</ele>
        <time>2025-10-25T11:36:21Z</time>
      </trkpt>
      <trkpt lat="48.57335" lon="2.13937">
        <ele>68.8</ele>
        <time>2025-10-25T11:36:23Z</time>
      </trkpt>
      <trkpt lat="48.57337" lon="2.13941">
        <ele>68.8</ele>
        <time>2025-10-25T11:36:25Z</time>
      </trkpt>
      <trkpt lat="48.57338" lon="2.13945">
        <ele>68.6</ele>
        <time>2025-10-25T11:36:27Z</time>
      </trkpt>
      <trkpt lat="48.5734" lon="2.13948">
        <ele>68.6</ele>
        <time>2025-10-25T11:36:29Z</time>
      </trkpt>
      <trkpt lat="48.5734" lon="2.13952">
        <ele>68.4</ele>
        <time>2025-10-25T11:36:31Z</time>
      </trkpt>
      <trkpt lat="48.57342" lon="2.13956">
        <ele>68.4</ele>
        <time>2025-10-25T11:36:33Z</time>
      </trkpt>
      <trkpt lat="48.57342" lon="2.1396">
        <ele>68.6</ele>
        <time>2025-10-25T11:36:35Z</time>
      </trkpt>
      <trkpt lat="48.57343" lon="2.13965">
        <ele>68.6</ele>
        <time>2025-10-25T11:36:37Z</time>
      </trkpt>
      <trkpt lat="48.57344" lon="2.13969">
        <ele>68.6</ele>
        <time>2025-10-25T11:36:39Z</time>
      </trkpt>
      <trkpt lat="48.57345" lon="2.13973">
        <ele>68.4</ele>
        <time>2025-10-25T11:36:41Z</time>
      </trkpt>
      <trkpt lat="48.57346" lon="2.13978">
        <ele>68.4</ele>
        <time>2025-10-25T11:36:43Z</time>
      </trkpt>
      <trkpt lat="48.57347" lon="2.13982">
        <ele>68.2</ele>
        <time>2025-10-25T11:36:45Z</time>
      </trkpt>
      <trkpt lat="48.57348" lon="2.13986">
        <ele>68</ele>
        <time>2025-10-25T11:36:47Z</time>
      </trkpt>
      <trkpt lat="48.57349" lon="2.13991">
        <ele>68</ele>
        <time>2025-10-25T11:36:49Z</time>
      </trkpt>
      <trkpt lat="48.5735" lon="2.13995">
        <ele>67.8</ele>
        <time>2025-10-25T11:36:51Z</time>
      </trkpt>
      <trkpt lat="48.57351" lon="2.14">
        <ele>67.8</ele>
        <time>2025-10-25T11:36:53Z</time>
      </trkpt>
      <trkpt lat="48.57352" lon="2.14004">
        <ele>67.6</ele>
        <time>2025-10-25T11:36:55Z</time>
      </trkpt>
      <trkpt lat="48.57352" lon="2.14008">
        <ele>67.4</ele>
        <time>2025-10-25T11:36:57Z</time>
      </trkpt>
      <trkpt lat="48.57353" lon="2.14012">
        <ele>67.2</ele>
        <time>2025-10-25T11:36:59Z</time>
      </trkpt>
      <trkpt lat="48.57354" lon="2.14016">
        <ele>67.2</ele>
        <time>2025-10-25T11:37:01Z</time>
      </trkpt>
      <trkpt lat="48.57356" lon="2.1402">
        <ele>67.2</ele>
        <time>2025-10-25T11:37:03Z</time>
      </trkpt>
      <trkpt lat="48.57357" lon="2.14024">
        <ele>67.2</ele>
        <time>2025-10-25T11:37:05Z</time>
      </trkpt>
      <trkpt lat="48.57359" lon="2.14027">
        <ele>67.2</ele>
        <time>2025-10-25T11:37:07Z</time>
      </trkpt>
      <trkpt lat="48.57361" lon="2.14031">
        <ele>67</ele>
        <time>2025-10-25T11:37:09Z</time>
      </trkpt>
      <trkpt lat="48.57363" lon="2.14035">
        <ele>66.8</ele>
        <time>2025-10-25T11:37:11Z</time>
      </trkpt>
      <trkpt lat="48.57364" lon="2.14038">
        <ele>66.6</ele>
        <time>2025-10-25T11:37:13Z</time>
      </trkpt>
      <trkpt lat="48.57367" lon="2.14041">
        <ele>66.8</ele>
        <time>2025-10-25T11:37:15Z</time>
      </trkpt>
      <trkpt lat="48.57369" lon="2.14044">
        <ele>66.8</ele>
        <time>2025-10-25T11:37:17Z</time>
      </trkpt>
      <trkpt lat="48.57372" lon="2.14046">
        <ele>66.8</ele>
        <time>2025-10-25T11:37:19Z</time>
      </trkpt>
      <trkpt lat="48.57374" lon="2.14048">
        <ele>66.8</ele>
        <time>2025-10-25T11:37:21Z</time>
      </trkpt>
      <trkpt lat="48.57376" lon="2.14049">
        <ele>66.8</ele>
        <time>2025-10-25T11:37:23Z</time>
      </trkpt>
      <trkpt lat="48.57379" lon="2.14051">
        <ele>66.8</ele>
        <time>2025-10-25T11:37:25Z</time>
      </trkpt>
      <trkpt lat="48.57381" lon="2.14051">
        <ele>66.6</ele>
        <time>2025-10-25T11:37:27Z</time>
      </trkpt>
      <trkpt lat="48.57384" lon="2.14052">
        <ele>66.6</ele>
        <time>2025-10-25T11:37:29Z</time>
      </trkpt>
      <trkpt lat="48.57387" lon="2.14052">
        <ele>66.6</ele>
        <time>2025-10-25T11:37:31Z</time>
      </trkpt>
      <trkpt lat="48.5739" lon="2.14052">
        <ele>66.4</ele>
        <time>2025-10-25T11:37:33Z</time>
      </trkpt>
      <trkpt lat="48.57393" lon="2.14052">
        <ele>66.2</ele>
        <time>2025-10-25T11:37:35Z</time>
      </trkpt>
      <trkpt lat="48.57396" lon="2.14052">
        <ele>66</ele>
        <time>2025-10-25T11:37:37Z</time>
      </trkpt>
      <trkpt lat="48.57399" lon="2.14051">
        <ele>65.8</ele>
        <time>2025-10-25T11:37:39Z</time>
      </trkpt>
      <trkpt lat="48.57402" lon="2.14051">
        <ele>65.6</ele>
        <time>2025-10-25T11:37:41Z</time>
      </trkpt>
      <trkpt lat="48.57405" lon="2.14051">
        <ele>65.4</ele>
        <time>2025-10-25T11:37:43Z</time>
      </trkpt>
      <trkpt lat="48.57408" lon="2.14051">
        <ele>65.2</ele>
        <time>2025-10-25T11:37:45Z</time>
      </trkpt>
      <trkpt lat="48.57411" lon="2.14051">
        <ele>65</ele>
        <time>2025-10-25T11:37:47Z</time>
      </trkpt>
      <trkpt lat="48.57414" lon="2.14051">
        <ele>65</ele>
        <time>2025-10-25T11:37:49Z</time>
      </trkpt>
      <trkpt lat="48.57417" lon="2.14051">
        <ele>65</ele>
        <time>2025-10-25T11:37:51Z</time>
      </trkpt>
      <trkpt lat="48.5742" lon="2.14051">
        <ele>64.8</ele>
        <time>2025-10-25T11:37:53Z</time>
      </trkpt>
      <trkpt lat="48.57423" lon="2.14051">
        <ele>64.6</ele>
        <time>2025-10-25T11:37:55Z</time>
      </trkpt>
      <trkpt lat="48.57427" lon="2.14051">
        <ele>64.6</ele>
        <time>2025-10-25T11:37:57Z</time>
      </trkpt>
      <trkpt lat="48.57429" lon="2.14051">
        <ele>64.4</ele>
        <time>2025-10-25T11:37:59Z</time>
      </trkpt>
      <trkpt lat="48.57432" lon="2.14052">
        <ele>64.2</ele>
        <time>2025-10-25T11:38:01Z</time>
      </trkpt>
      <trkpt lat="48.57435" lon="2.14052">
        <ele>64</ele>
        <time>2025-10-25T11:38:03Z</time>
      </trkpt>
      <trkpt lat="48.57438" lon="2.14052">
        <ele>63.6</ele>
        <time>2025-10-25T11:38:05Z</time>
      </trkpt>
      <trkpt lat="48.57441" lon="2.14052">
        <ele>63.2</ele>
        <time>2025-10-25T11:38:07Z</time>
      </trkpt>
      <trkpt lat="48.57444" lon="2.14052">
        <ele>63</ele>
        <time>2025-10-25T11:38:09Z</time>
      </trkpt>
      <trkpt lat="48.57446" lon="2.14052">
        <ele>62.6</ele>
        <time>2025-10-25T11:38:11Z</time>
      </trkpt>
      <trkpt lat="48.57449" lon="2.14052">
        <ele>62.4</ele>
        <time>2025-10-25T11:38:13Z</time>
      </trkpt>
      <trkpt lat="48.57452" lon="2.14052">
        <ele>62.4</ele>
        <time>2025-10-25T11:38:15Z</time>
      </trkpt>
      <trkpt lat="48.57455" lon="2.14051">
        <ele>62.2</ele>
        <time>2025-10-25T11:38:17Z</time>
      </trkpt>
      <trkpt lat="48.57459" lon="2.14051">
        <ele>62.2</ele>
        <time>2025-10-25T11:38:19Z</time>
      </trkpt>
      <trkpt lat="48.57461" lon="2.14051">
        <ele>62.2</ele>
        <time>2025-10-25T11:38:21Z</time>
      </trkpt>
      <trkpt lat="48.57463" lon="2.14051">
        <ele>62.2</ele>
        <time>2025-10-25T11:38:22Z</time>
      </trkpt>
      <trkpt lat="48.57467" lon="2.1405">
        <ele>62.2</ele>
        <time>2025-10-25T11:38:24Z</time>
      </trkpt>
      <trkpt lat="48.57469" lon="2.1405">
        <ele>62</ele>
        <time>2025-10-25T11:38:26Z</time>
      </trkpt>
      <trkpt lat="48.57473" lon="2.1405">
        <ele>62.2</ele>
        <time>2025-10-25T11:38:28Z</time>
      </trkpt>
      <trkpt lat="48.57476" lon="2.1405">
        <ele>62</ele>
        <time>2025-10-25T11:38:30Z</time>
      </trkpt>
      <trkpt lat="48.57478" lon="2.14049">
        <ele>62</ele>
        <time>2025-10-25T11:38:32Z</time>
      </trkpt>
      <trkpt lat="48.57482" lon="2.14049">
        <ele>62</ele>
        <time>2025-10-25T11:38:34Z</time>
      </trkpt>
      <trkpt lat="48.57485" lon="2.14048">
        <ele>61.8</ele>
        <time>2025-10-25T11:38:36Z</time>
      </trkpt>
      <trkpt lat="48.57487" lon="2.14048">
        <ele>61.6</ele>
        <time>2025-10-25T11:38:38Z</time>
      </trkpt>
      <trkpt lat="48.57491" lon="2.14048">
        <ele>61.4</ele>
        <time>2025-10-25T11:38:40Z</time>
      </trkpt>
      <trkpt lat="48.57493" lon="2.14048">
        <ele>61.4</ele>
        <time>2025-10-25T11:38:42Z</time>
      </trkpt>
      <trkpt lat="48.57497" lon="2.14048">
        <ele>61.4</ele>
        <time>2025-10-25T11:38:44Z</time>
      </trkpt>
      <trkpt lat="48.575" lon="2.14048">
        <ele>61.4</ele>
        <time>2025-10-25T11:38:46Z</time>
      </trkpt>
      <trkpt lat="48.57503" lon="2.14047">
        <ele>61.6</ele>
        <time>2025-10-25T11:38:48Z</time>
      </trkpt>
      <trkpt lat="48.57506" lon="2.14047">
        <ele>61.8</ele>
        <time>2025-10-25T11:38:50Z</time>
      </trkpt>
      <trkpt lat="48.57509" lon="2.14046">
        <ele>62</ele>
        <time>2025-10-25T11:38:52Z</time>
      </trkpt>
      <trkpt lat="48.57512" lon="2.14046">
        <ele>62.2</ele>
        <time>2025-10-25T11:38:54Z</time>
      </trkpt>
      <trkpt lat="48.57515" lon="2.14046">
        <ele>62.2</ele>
        <time>2025-10-25T11:38:56Z</time>
      </trkpt>
      <trkpt lat="48.57518" lon="2.14046">
        <ele>62.4</ele>
        <time>2025-10-25T11:38:58Z</time>
      </trkpt>
      <trkpt lat="48.5752" lon="2.14046">
        <ele>62.6</ele>
        <time>2025-10-25T11:39:00Z</time>
      </trkpt>
      <trkpt lat="48.57523" lon="2.14046">
        <ele>63</ele>
        <time>2025-10-25T11:39:02Z</time>
      </trkpt>
      <trkpt lat="48.57526" lon="2.14046">
        <ele>63.2</ele>
        <time>2025-10-25T11:39:04Z</time>
      </trkpt>
      <trkpt lat="48.57529" lon="2.14046">
        <ele>63.4</ele>
        <time>2025-10-25T11:39:06Z</time>
      </trkpt>
      <trkpt lat="48.57532" lon="2.14046">
        <ele>63.6</ele>
        <time>2025-10-25T11:39:08Z</time>
      </trkpt>
      <trkpt lat="48.57534" lon="2.14047">
        <ele>63.6</ele>
        <time>2025-10-25T11:39:09Z</time>
      </trkpt>
      <trkpt lat="48.57538" lon="2.14047">
        <ele>63.8</ele>
        <time>2025-10-25T11:39:11Z</time>
      </trkpt>
      <trkpt lat="48.57541" lon="2.14048">
        <ele>64</ele>
        <time>2025-10-25T11:39:13Z</time>
      </trkpt>
      <trkpt lat="48.57543" lon="2.14048">
        <ele>64</ele>
        <time>2025-10-25T11:39:14Z</time>
      </trkpt>
      <trkpt lat="48.57546" lon="2.14049">
        <ele>64.2</ele>
        <time>2025-10-25T11:39:16Z</time>
      </trkpt>
      <trkpt lat="48.57548" lon="2.14049">
        <ele>64.2</ele>
        <time>2025-10-25T11:39:17Z</time>
      </trkpt>
      <trkpt lat="48.5755" lon="2.1405">
        <ele>64.4</ele>
        <time>2025-10-25T11:39:18Z</time>
      </trkpt>
      <trkpt lat="48.57553" lon="2.1405">
        <ele>64.6</ele>
        <time>2025-10-25T11:39:20Z</time>
      </trkpt>
      <trkpt lat="48.57555" lon="2.1405">
        <ele>64.6</ele>
        <time>2025-10-25T11:39:21Z</time>
      </trkpt>
      <trkpt lat="48.57558" lon="2.14049">
        <ele>64.8</ele>
        <time>2025-10-25T11:39:23Z</time>
      </trkpt>
      <trkpt lat="48.57562" lon="2.14049">
        <ele>64.8</ele>
        <time>2025-10-25T11:39:25Z</time>
      </trkpt>
      <trkpt lat="48.57564" lon="2.14049">
        <ele>64.8</ele>
        <time>2025-10-25T11:39:26Z</time>
      </trkpt>
      <trkpt lat="48.57567" lon="2.14049">
        <ele>65</ele>
        <time>2025-10-25T11:39:28Z</time>
      </trkpt>
      <trkpt lat="48.5757" lon="2.14048">
        <ele>65</ele>
        <time>2025-10-25T11:39:30Z</time>
      </trkpt>
      <trkpt lat="48.57572" lon="2.14048">
        <ele>64.8</ele>
        <time>2025-10-25T11:39:32Z</time>
      </trkpt>
      <trkpt lat="48.57576" lon="2.14048">
        <ele>64.6</ele>
        <time>2025-10-25T11:39:34Z</time>
      </trkpt>
      <trkpt lat="48.57579" lon="2.14047">
        <ele>64.4</ele>
        <time>2025-10-25T11:39:36Z</time>
      </trkpt>
      <trkpt lat="48.57582" lon="2.14045">
        <ele>64.4</ele>
        <time>2025-10-25T11:39:38Z</time>
      </trkpt>
      <trkpt lat="48.57584" lon="2.14043">
        <ele>64.6</ele>
        <time>2025-10-25T11:39:40Z</time>
      </trkpt>
      <trkpt lat="48.57588" lon="2.14041">
        <ele>64.6</ele>
        <time>2025-10-25T11:39:42Z</time>
      </trkpt>
      <trkpt lat="48.5759" lon="2.14038">
        <ele>64.6</ele>
        <time>2025-10-25T11:39:44Z</time>
      </trkpt>
      <trkpt lat="48.57593" lon="2.14036">
        <ele>64.6</ele>
        <time>2025-10-25T11:39:46Z</time>
      </trkpt>
      <trkpt lat="48.57595" lon="2.14033">
        <ele>64.6</ele>
        <time>2025-10-25T11:39:48Z</time>
      </trkpt>
      <trkpt lat="48.57598" lon="2.1403">
        <ele>64.6</ele>
        <time>2025-10-25T11:39:50Z</time>
      </trkpt>
      <trkpt lat="48.576" lon="2.14027">
        <ele>64.8</ele>
        <time>2025-10-25T11:39:52Z</time>
      </trkpt>
      <trkpt lat="48.57602" lon="2.14024">
        <ele>64.6</ele>
        <time>2025-10-25T11:39:54Z</time>
      </trkpt>
      <trkpt lat="48.57604" lon="2.14021">
        <ele>64.6</ele>
        <time>2025-10-25T11:39:56Z</time>
      </trkpt>
      <trkpt lat="48.57606" lon="2.14018">
        <ele>64.6</ele>
        <time>2025-10-25T11:39:58Z</time>
      </trkpt>
      <trkpt lat="48.57608" lon="2.14014">
        <ele>64.6</ele>
        <time>2025-10-25T11:40:00Z</time>
      </trkpt>
      <trkpt lat="48.5761" lon="2.14011">
        <ele>64.6</ele>
        <time>2025-10-25T11:40:02Z</time>
      </trkpt>
      <trkpt lat="48.57612" lon="2.14007">
        <ele>64.6</ele>
        <time>2025-10-25T11:40:04Z</time>
      </trkpt>
      <trkpt lat="48.57613" lon="2.14005">
        <ele>64.6</ele>
        <time>2025-10-25T11:40:05Z</time>
      </trkpt>
      <trkpt lat="48.57615" lon="2.14001">
        <ele>64.6</ele>
        <time>2025-10-25T11:40:07Z</time>
      </trkpt>
      <trkpt lat="48.57617" lon="2.13997">
        <ele>64.6</ele>
        <time>2025-10-25T11:40:09Z</time>
      </trkpt>
      <trkpt lat="48.57619" lon="2.13994">
        <ele>64.8</ele>
        <time>2025-10-25T11:40:11Z</time>
      </trkpt>
      <trkpt lat="48.57621" lon="2.1399">
        <ele>64.8</ele>
        <time>2025-10-25T11:40:13Z</time>
      </trkpt>
      <trkpt lat="48.57624" lon="2.13987">
        <ele>65</ele>
        <time>2025-10-25T11:40:15Z</time>
      </trkpt>
      <trkpt lat="48.57626" lon="2.13984">
        <ele>64.8</ele>
        <time>2025-10-25T11:40:17Z</time>
      </trkpt>
      <trkpt lat="48.57628" lon="2.13982">
        <ele>64.6</ele>
        <time>2025-10-25T11:40:19Z</time>
      </trkpt>
      <trkpt lat="48.5763" lon="2.13979">
        <ele>64.6</ele>
        <time>2025-10-25T11:40:21Z</time>
      </trkpt>
      <trkpt lat="48.57633" lon="2.13977">
        <ele>64.4</ele>
        <time>2025-10-25T11:40:23Z</time>
      </trkpt>
      <trkpt lat="48.57636" lon="2.13974">
        <ele>64.2</ele>
        <time>2025-10-25T11:40:25Z</time>
      </trkpt>
      <trkpt lat="48.57638" lon="2.13972">
        <ele>64</ele>
        <time>2025-10-25T11:40:27Z</time>
      </trkpt>
      <trkpt lat="48.5764" lon="2.1397">
        <ele>64</ele>
        <time>2025-10-25T11:40:29Z</time>
      </trkpt>
      <trkpt lat="48.57643" lon="2.13967">
        <ele>64.2</ele>
        <time>2025-10-25T11:40:31Z</time>
      </trkpt>
      <trkpt lat="48.57646" lon="2.13965">
        <ele>64.2</ele>
        <time>2025-10-25T11:40:33Z</time>
      </trkpt>
      <trkpt lat="48.57648" lon="2.13963">
        <ele>64.2</ele>
        <time>2025-10-25T11:40:35Z</time>
      </trkpt>
      <trkpt lat="48.57651" lon="2.13961">
        <ele>64</ele>
        <time>2025-10-25T11:40:37Z</time>
      </trkpt>
      <trkpt lat="48.57654" lon="2.13959">
        <ele>63.8</ele>
        <time>2025-10-25T11:40:39Z</time>
      </trkpt>
      <trkpt lat="48.57656" lon="2.13957">
        <ele>63.8</ele>
        <time>2025-10-25T11:40:41Z</time>
      </trkpt>
      <trkpt lat="48.5766" lon="2.13955">
        <ele>63.4</ele>
        <time>2025-10-25T11:40:43Z</time>
      </trkpt>
      <trkpt lat="48.57662" lon="2.13953">
        <ele>63.2</ele>
        <time>2025-10-25T11:40:45Z</time>
      </trkpt>
      <trkpt lat="48.57665" lon="2.13952">
        <ele>62.8</ele>
        <time>2025-10-25T11:40:47Z</time>
      </trkpt>
      <trkpt lat="48.57667" lon="2.1395">
        <ele>62.6</ele>
        <time>2025-10-25T11:40:49Z</time>
      </trkpt>
      <trkpt lat="48.5767" lon="2.13948">
        <ele>62.4</ele>
        <time>2025-10-25T11:40:51Z</time>
      </trkpt>
      <trkpt lat="48.57673" lon="2.13947">
        <ele>62</ele>
        <time>2025-10-25T11:40:53Z</time>
      </trkpt>
      <trkpt lat="48.57676" lon="2.13945">
        <ele>62</ele>
        <time>2025-10-25T11:40:55Z</time>
      </trkpt>
      <trkpt lat="48.57679" lon="2.13944">
        <ele>61.8</ele>
        <time>2025-10-25T11:40:57Z</time>
      </trkpt>
      <trkpt lat="48.57681" lon="2.13942">
        <ele>61.6</ele>
        <time>2025-10-25T11:40:59Z</time>
      </trkpt>
      <trkpt lat="48.57684" lon="2.1394">
        <ele>61.4</ele>
        <time>2025-10-25T11:41:01Z</time>
      </trkpt>
      <trkpt lat="48.57687" lon="2.13939">
        <ele>61.2</ele>
        <time>2025-10-25T11:41:03Z</time>
      </trkpt>
      <trkpt lat="48.57691" lon="2.13937">
        <ele>61.2</ele>
        <time>2025-10-25T11:41:05Z</time>
      </trkpt>
      <trkpt lat="48.57693" lon="2.13936">
        <ele>61.2</ele>
        <time>2025-10-25T11:41:07Z</time>
      </trkpt>
      <trkpt lat="48.57696" lon="2.13935">
        <ele>61.2</ele>
        <time>2025-10-25T11:41:09Z</time>
      </trkpt>
      <trkpt lat="48.57699" lon="2.13934">
        <ele>61.2</ele>
        <time>2025-10-25T11:41:11Z</time>
      </trkpt>
      <trkpt lat="48.57701" lon="2.13933">
        <ele>61</ele>
        <time>2025-10-25T11:41:13Z</time>
      </trkpt>
      <trkpt lat="48.57705" lon="2.13932">
        <ele>61</ele>
        <time>2025-10-25T11:41:15Z</time>
      </trkpt>
      <trkpt lat="48.57708" lon="2.13932">
        <ele>60.8</ele>
        <time>2025-10-25T11:41:17Z</time>
      </trkpt>
      <trkpt lat="48.57709" lon="2.13931">
        <ele>60.8</ele>
        <time>2025-10-25T11:41:18Z</time>
      </trkpt>
      <trkpt lat="48.57713" lon="2.13931">
        <ele>60.6</ele>
        <time>2025-10-25T11:41:20Z</time>
      </trkpt>
      <trkpt lat="48.57715" lon="2.13931">
        <ele>60.6</ele>
        <time>2025-10-25T11:41:21Z</time>
      </trkpt>
      <trkpt lat="48.57717" lon="2.13931">
        <ele>60.6</ele>
        <time>2025-10-25T11:41:23Z</time>
      </trkpt>
      <trkpt lat="48.57721" lon="2.13933">
        <ele>60.4</ele>
        <time>2025-10-25T11:41:25Z</time>
      </trkpt>
      <trkpt lat="48.57724" lon="2.13934">
        <ele>60.2</ele>
        <time>2025-10-25T11:41:27Z</time>
      </trkpt>
      <trkpt lat="48.57726" lon="2.13935">
        <ele>60.2</ele>
        <time>2025-10-25T11:41:29Z</time>
      </trkpt>
      <trkpt lat="48.57729" lon="2.13938">
        <ele>59.8</ele>
        <time>2025-10-25T11:41:31Z</time>
      </trkpt>
      <trkpt lat="48.57731" lon="2.13941">
        <ele>59.6</ele>
        <time>2025-10-25T11:41:33Z</time>
      </trkpt>
      <trkpt lat="48.57733" lon="2.13945">
        <ele>59.4</ele>
        <time>2025-10-25T11:41:35Z</time>
      </trkpt>
      <trkpt lat="48.57735" lon="2.13949">
        <ele>59.4</ele>
        <time>2025-10-25T11:41:37Z</time>
      </trkpt>
      <trkpt lat="48.57738" lon="2.13951">
        <ele>59.2</ele>
        <time>2025-10-25T11:41:39Z</time>
      </trkpt>
      <trkpt lat="48.5774" lon="2.13954">
        <ele>59.2</ele>
        <time>2025-10-25T11:41:41Z</time>
      </trkpt>
      <trkpt lat="48.57743" lon="2.13955">
        <ele>59.2</ele>
        <time>2025-10-25T11:41:43Z</time>
      </trkpt>
      <trkpt lat="48.57746" lon="2.13956">
        <ele>59.4</ele>
        <time>2025-10-25T11:41:45Z</time>
      </trkpt>
      <trkpt lat="48.57749" lon="2.13956">
        <ele>59.4</ele>
        <time>2025-10-25T11:41:47Z</time>
      </trkpt>
      <trkpt lat="48.57751" lon="2.13956">
        <ele>59.4</ele>
        <time>2025-10-25T11:41:49Z</time>
      </trkpt>
      <trkpt lat="48.57755" lon="2.13955">
        <ele>59.6</ele>
        <time>2025-10-25T11:41:51Z</time>
      </trkpt>
      <trkpt lat="48.57757" lon="2.13954">
        <ele>59.6</ele>
        <time>2025-10-25T11:41:53Z</time>
      </trkpt>
      <trkpt lat="48.57761" lon="2.13952">
        <ele>59.8</ele>
        <time>2025-10-25T11:41:55Z</time>
      </trkpt>
      <trkpt lat="48.57763" lon="2.13949">
        <ele>59.8</ele>
        <time>2025-10-25T11:41:57Z</time>
      </trkpt>
      <trkpt lat="48.57765" lon="2.13945">
        <ele>60</ele>
        <time>2025-10-25T11:41:59Z</time>
      </trkpt>
      <trkpt lat="48.57766" lon="2.13941">
        <ele>59.8</ele>
        <time>2025-10-25T11:42:01Z</time>
      </trkpt>
      <trkpt lat="48.57768" lon="2.13938">
        <ele>59.8</ele>
        <time>2025-10-25T11:42:03Z</time>
      </trkpt>
      <trkpt lat="48.5777" lon="2.13934">
        <ele>59.8</ele>
        <time>2025-10-25T11:42:05Z</time>
      </trkpt>
      <trkpt lat="48.57772" lon="2.13931">
        <ele>59.6</ele>
        <time>2025-10-25T11:42:07Z</time>
      </trkpt>
      <trkpt lat="48.57774" lon="2.13929">
        <ele>59.8</ele>
        <time>2025-10-25T11:42:09Z</time>
      </trkpt>
      <trkpt lat="48.57777" lon="2.13928">
        <ele>59.8</ele>
        <time>2025-10-25T11:42:11Z</time>
      </trkpt>
      <trkpt lat="48.5778" lon="2.13927">
        <ele>59.6</ele>
        <time>2025-10-25T11:42:13Z</time>
      </trkpt>
      <trkpt lat="48.57782" lon="2.13927">
        <ele>59.4</ele>
        <time>2025-10-25T11:42:15Z</time>
      </trkpt>
      <trkpt lat="48.57785" lon="2.13928">
        <ele>59.6</ele>
        <time>2025-10-25T11:42:17Z</time>
      </trkpt>
      <trkpt lat="48.57788" lon="2.13928">
        <ele>59.6</ele>
        <time>2025-10-25T11:42:19Z</time>
      </trkpt>
      <trkpt lat="48.5779" lon="2.13929">
        <ele>59.6</ele>
        <time>2025-10-25T11:42:21Z</time>
      </trkpt>
      <trkpt lat="48.57793" lon="2.1393">
        <ele>59.6</ele>
        <time>2025-10-25T11:42:23Z</time>
      </trkpt>
      <trkpt lat="48.57796" lon="2.13931">
        <ele>59.6</ele>
        <time>2025-10-25T11:42:25Z</time>
      </trkpt>
      <trkpt lat="48.57799" lon="2.13931">
        <ele>59.6</ele>
        <time>2025-10-25T11:42:27Z</time>
      </trkpt>
      <trkpt lat="48.57802" lon="2.13931">
        <ele>59.6</ele>
        <time>2025-10-25T11:42:29Z</time>
      </trkpt>
      <trkpt lat="48.57804" lon="2.13932">
        <ele>59.8</ele>
        <time>2025-10-25T11:42:31Z</time>
      </trkpt>
      <trkpt lat="48.57807" lon="2.13932">
        <ele>59.6</ele>
        <time>2025-10-25T11:42:33Z</time>
      </trkpt>
      <trkpt lat="48.5781" lon="2.13932">
        <ele>59.6</ele>
        <time>2025-10-25T11:42:35Z</time>
      </trkpt>
      <trkpt lat="48.57812" lon="2.13932">
        <ele>59.6</ele>
        <time>2025-10-25T11:42:37Z</time>
      </trkpt>
      <trkpt lat="48.57815" lon="2.13932">
        <ele>59.8</ele>
        <time>2025-10-25T11:42:41Z</time>
      </trkpt>
      <trkpt lat="48.57817" lon="2.13933">
        <ele>59.4</ele>
        <time>2025-10-25T11:42:57Z</time>
      </trkpt>
      <trkpt lat="48.57819" lon="2.13934">
        <ele>59.4</ele>
        <time>2025-10-25T11:43:00Z</time>
      </trkpt>
      <trkpt lat="48.57822" lon="2.13935">
        <ele>59.6</ele>
        <time>2025-10-25T11:43:02Z</time>
      </trkpt>
      <trkpt lat="48.57825" lon="2.13935">
        <ele>59.8</ele>
        <time>2025-10-25T11:43:04Z</time>
      </trkpt>
      <trkpt lat="48.57827" lon="2.13935">
        <ele>59.8</ele>
        <time>2025-10-25T11:43:05Z</time>
      </trkpt>
      <trkpt lat="48.5783" lon="2.13936">
        <ele>60</ele>
        <time>2025-10-25T11:43:07Z</time>
      </trkpt>
      <trkpt lat="48.57833" lon="2.13936">
        <ele>60.2</ele>
        <time>2025-10-25T11:43:09Z</time>
      </trkpt>
      <trkpt lat="48.57836" lon="2.13937">
        <ele>60.2</ele>
        <time>2025-10-25T11:43:11Z</time>
      </trkpt>
      <trkpt lat="48.57838" lon="2.13937">
        <ele>60.4</ele>
        <time>2025-10-25T11:43:13Z</time>
      </trkpt>
      <trkpt lat="48.57841" lon="2.13937">
        <ele>60.4</ele>
        <time>2025-10-25T11:43:15Z</time>
      </trkpt>
      <trkpt lat="48.57844" lon="2.13937">
        <ele>60.4</ele>
        <time>2025-10-25T11:43:17Z</time>
      </trkpt>
      <trkpt lat="48.57846" lon="2.13937">
        <ele>60.6</ele>
        <time>2025-10-25T11:43:19Z</time>
      </trkpt>
      <trkpt lat="48.57849" lon="2.13937">
        <ele>60.8</ele>
        <time>2025-10-25T11:43:21Z</time>
      </trkpt>
      <trkpt lat="48.57852" lon="2.13937">
        <ele>61</ele>
        <time>2025-10-25T11:43:23Z</time>
      </trkpt>
      <trkpt lat="48.57854" lon="2.13937">
        <ele>61</ele>
        <time>2025-10-25T11:43:25Z</time>
      </trkpt>
      <trkpt lat="48.57857" lon="2.13937">
        <ele>61</ele>
        <time>2025-10-25T11:43:27Z</time>
      </trkpt>
      <trkpt lat="48.57859" lon="2.13937">
        <ele>61.2</ele>
        <time>2025-10-25T11:43:29Z</time>
      </trkpt>
      <trkpt lat="48.57862" lon="2.13938">
        <ele>61.2</ele>
        <time>2025-10-25T11:43:31Z</time>
      </trkpt>
      <trkpt lat="48.57864" lon="2.13938">
        <ele>61.2</ele>
        <time>2025-10-25T11:43:33Z</time>
      </trkpt>
      <trkpt lat="48.57867" lon="2.13938">
        <ele>61.4</ele>
        <time>2025-10-25T11:43:35Z</time>
      </trkpt>
      <trkpt lat="48.5787" lon="2.13938">
        <ele>61.6</ele>
        <time>2025-10-25T11:43:37Z</time>
      </trkpt>
      <trkpt lat="48.57873" lon="2.13938">
        <ele>61.6</ele>
        <time>2025-10-25T11:43:39Z</time>
      </trkpt>
      <trkpt lat="48.57876" lon="2.13938">
        <ele>61.8</ele>
        <time>2025-10-25T11:43:41Z</time>
      </trkpt>
      <trkpt lat="48.57879" lon="2.13938">
        <ele>61.8</ele>
        <time>2025-10-25T11:43:43Z</time>
      </trkpt>
      <trkpt lat="48.57882" lon="2.13938">
        <ele>62</ele>
        <time>2025-10-25T11:43:45Z</time>
      </trkpt>
      <trkpt lat="48.57884" lon="2.13938">
        <ele>62.2</ele>
        <time>2025-10-25T11:43:47Z</time>
      </trkpt>
      <trkpt lat="48.57886" lon="2.13937">
        <ele>62.4</ele>
        <time>2025-10-25T11:43:48Z</time>
      </trkpt>
      <trkpt lat="48.57889" lon="2.13937">
        <ele>62.6</ele>
        <time>2025-10-25T11:43:49Z</time>
      </trkpt>
      <trkpt lat="48.57891" lon="2.13936">
        <ele>62.6</ele>
        <time>2025-10-25T11:43:50Z</time>
      </trkpt>
      <trkpt lat="48.57894" lon="2.13936">
        <ele>62.8</ele>
        <time>2025-10-25T11:43:51Z</time>
      </trkpt>
      <trkpt lat="48.57897" lon="2.13935">
        <ele>63</ele>
        <time>2025-10-25T11:43:52Z</time>
      </trkpt>
      <trkpt lat="48.579" lon="2.13934">
        <ele>63.2</ele>
        <time>2025-10-25T11:43:53Z</time>
      </trkpt>
      <trkpt lat="48.57903" lon="2.13934">
        <ele>63.4</ele>
        <time>2025-10-25T11:43:54Z</time>
      </trkpt>
      <trkpt lat="48.57906" lon="2.13934">
        <ele>63.4</ele>
        <time>2025-10-25T11:43:55Z</time>
      </trkpt>
      <trkpt lat="48.57908" lon="2.13934">
        <ele>63.4</ele>
        <time>2025-10-25T11:43:56Z</time>
      </trkpt>
      <trkpt lat="48.5791" lon="2.13933">
        <ele>63.4</ele>
        <time>2025-10-25T11:43:57Z</time>
      </trkpt>
      <trkpt lat="48.57912" lon="2.13933">
        <ele>63.4</ele>
        <time>2025-10-25T11:43:58Z</time>
      </trkpt>
      <trkpt lat="48.57915" lon="2.13933">
        <ele>63.6</ele>
        <time>2025-10-25T11:44:00Z</time>
      </trkpt>
      <trkpt lat="48.57917" lon="2.13933">
        <ele>64</ele>
        <time>2025-10-25T11:44:02Z</time>
      </trkpt>
      <trkpt lat="48.57919" lon="2.13933">
        <ele>64.4</ele>
        <time>2025-10-25T11:44:04Z</time>
      </trkpt>
      <trkpt lat="48.57922" lon="2.13932">
        <ele>65</ele>
        <time>2025-10-25T11:44:06Z</time>
      </trkpt>
      <trkpt lat="48.57924" lon="2.13931">
        <ele>65.6</ele>
        <time>2025-10-25T11:44:08Z</time>
      </trkpt>
      <trkpt lat="48.57926" lon="2.13929">
        <ele>66.2</ele>
        <time>2025-10-25T11:44:10Z</time>
      </trkpt>
      <trkpt lat="48.57929" lon="2.13928">
        <ele>66.8</ele>
        <time>2025-10-25T11:44:12Z</time>
      </trkpt>
      <trkpt lat="48.57932" lon="2.13926">
        <ele>67.2</ele>
        <time>2025-10-25T11:44:14Z</time>
      </trkpt>
      <trkpt lat="48.57934" lon="2.13926">
        <ele>67.6</ele>
        <time>2025-10-25T11:44:16Z</time>
      </trkpt>
      <trkpt lat="48.57936" lon="2.13926">
        <ele>68</ele>
        <time>2025-10-25T11:44:18Z</time>
      </trkpt>
      <trkpt lat="48.57939" lon="2.13927">
        <ele>68.4</ele>
        <time>2025-10-25T11:44:20Z</time>
      </trkpt>
      <trkpt lat="48.57941" lon="2.13926">
        <ele>68.6</ele>
        <time>2025-10-25T11:44:22Z</time>
      </trkpt>
      <trkpt lat="48.57943" lon="2.13924">
        <ele>68.8</ele>
        <time>2025-10-25T11:44:24Z</time>
      </trkpt>
      <trkpt lat="48.57945" lon="2.13923">
        <ele>69.2</ele>
        <time>2025-10-25T11:44:27Z</time>
      </trkpt>
      <trkpt lat="48.57946" lon="2.13921">
        <ele>70.4</ele>
        <time>2025-10-25T11:44:45Z</time>
      </trkpt>
      <trkpt lat="48.57949" lon="2.13921">
        <ele>71.2</ele>
        <time>2025-10-25T11:44:50Z</time>
      </trkpt>
      <trkpt lat="48.57951" lon="2.13921">
        <ele>72</ele>
        <time>2025-10-25T11:44:52Z</time>
      </trkpt>
      <trkpt lat="48.57953" lon="2.13921">
        <ele>72.8</ele>
        <time>2025-10-25T11:44:55Z</time>
      </trkpt>
      <trkpt lat="48.57955" lon="2.1392">
        <ele>73.6</ele>
        <time>2025-10-25T11:44:58Z</time>
      </trkpt>
      <trkpt lat="48.57957" lon="2.1392">
        <ele>74</ele>
        <time>2025-10-25T11:45:01Z</time>
      </trkpt>
      <trkpt lat="48.5796" lon="2.13919">
        <ele>74.2</ele>
        <time>2025-10-25T11:45:04Z</time>
      </trkpt>
      <trkpt lat="48.57963" lon="2.13917">
        <ele>74.6</ele>
        <time>2025-10-25T11:45:07Z</time>
      </trkpt>
      <trkpt lat="48.57964" lon="2.13915">
        <ele>74.8</ele>
        <time>2025-10-25T11:45:09Z</time>
      </trkpt>
      <trkpt lat="48.57966" lon="2.13913">
        <ele>75</ele>
        <time>2025-10-25T11:45:11Z</time>
      </trkpt>
      <trkpt lat="48.57969" lon="2.13911">
        <ele>75</ele>
        <time>2025-10-25T11:45:13Z</time>
      </trkpt>
      <trkpt lat="48.57971" lon="2.13908">
        <ele>75.2</ele>
        <time>2025-10-25T11:45:15Z</time>
      </trkpt>
      <trkpt lat="48.57972" lon="2.13905">
        <ele>75.2</ele>
        <time>2025-10-25T11:45:17Z</time>
      </trkpt>
      <trkpt lat="48.57974" lon="2.13901">
        <ele>75.4</ele>
        <time>2025-10-25T11:45:19Z</time>
      </trkpt>
      <trkpt lat="48.57975" lon="2.13897">
        <ele>75.6</ele>
        <time>2025-10-25T11:45:21Z</time>
      </trkpt>
      <trkpt lat="48.57977" lon="2.13895">
        <ele>76</ele>
        <time>2025-10-25T11:45:23Z</time>
      </trkpt>
      <trkpt lat="48.57978" lon="2.13892">
        <ele>76.2</ele>
        <time>2025-10-25T11:45:25Z</time>
      </trkpt>
      <trkpt lat="48.57979" lon="2.13889">
        <ele>76.6</ele>
        <time>2025-10-25T11:45:27Z</time>
      </trkpt>
      <trkpt lat="48.57981" lon="2.13887">
        <ele>76.6</ele>
        <time>2025-10-25T11:45:29Z</time>
      </trkpt>
      <trkpt lat="48.57984" lon="2.13884">
        <ele>76.8</ele>
        <time>2025-10-25T11:45:31Z</time>
      </trkpt>
      <trkpt lat="48.57987" lon="2.13882">
        <ele>76.8</ele>
        <time>2025-10-25T11:45:33Z</time>
      </trkpt>
      <trkpt lat="48.57989" lon="2.1388">
        <ele>77</ele>
        <time>2025-10-25T11:45:35Z</time>
      </trkpt>
      <trkpt lat="48.57992" lon="2.13878">
        <ele>77.4</ele>
        <time>2025-10-25T11:45:37Z</time>
      </trkpt>
      <trkpt lat="48.57994" lon="2.13875">
        <ele>77.8</ele>
        <time>2025-10-25T11:45:39Z</time>
      </trkpt>
      <trkpt lat="48.57995" lon="2.13872">
        <ele>78</ele>
        <time>2025-10-25T11:45:41Z</time>
      </trkpt>
      <trkpt lat="48.57996" lon="2.13869">
        <ele>78.4</ele>
        <time>2025-10-25T11:45:43Z</time>
      </trkpt>
      <trkpt lat="48.57997" lon="2.13868">
        <ele>78.6</ele>
        <time>2025-10-25T11:45:45Z</time>
      </trkpt>
      <trkpt lat="48.58" lon="2.13867">
        <ele>79</ele>
        <time>2025-10-25T11:45:48Z</time>
      </trkpt>
      <trkpt lat="48.58002" lon="2.13866">
        <ele>79.2</ele>
        <time>2025-10-25T11:45:50Z</time>
      </trkpt>
      <trkpt lat="48.58004" lon="2.13866">
        <ele>79.4</ele>
        <time>2025-10-25T11:45:52Z</time>
      </trkpt>
      <trkpt lat="48.58007" lon="2.13864">
        <ele>79.6</ele>
        <time>2025-10-25T11:45:54Z</time>
      </trkpt>
      <trkpt lat="48.58009" lon="2.13863">
        <ele>79.8</ele>
        <time>2025-10-25T11:45:56Z</time>
      </trkpt>
      <trkpt lat="48.58013" lon="2.13862">
        <ele>80</ele>
        <time>2025-10-25T11:45:58Z</time>
      </trkpt>
      <trkpt lat="48.58016" lon="2.13861">
        <ele>80.4</ele>
        <time>2025-10-25T11:46:00Z</time>
      </trkpt>
      <trkpt lat="48.58019" lon="2.1386">
        <ele>80.6</ele>
        <time>2025-10-25T11:46:02Z</time>
      </trkpt>
      <trkpt lat="48.58021" lon="2.13859">
        <ele>80.8</ele>
        <time>2025-10-25T11:46:04Z</time>
      </trkpt>
      <trkpt lat="48.58023" lon="2.13858">
        <ele>81.2</ele>
        <time>2025-10-25T11:46:06Z</time>
      </trkpt>
      <trkpt lat="48.58025" lon="2.13857">
        <ele>81.6</ele>
        <time>2025-10-25T11:46:08Z</time>
      </trkpt>
      <trkpt lat="48.58028" lon="2.13855">
        <ele>81.8</ele>
        <time>2025-10-25T11:46:10Z</time>
      </trkpt>
      <trkpt lat="48.58031" lon="2.13854">
        <ele>82.2</ele>
        <time>2025-10-25T11:46:12Z</time>
      </trkpt>
      <trkpt lat="48.58033" lon="2.13854">
        <ele>82.4</ele>
        <time>2025-10-25T11:46:14Z</time>
      </trkpt>
      <trkpt lat="48.58036" lon="2.13853">
        <ele>82.8</ele>
        <time>2025-10-25T11:46:16Z</time>
      </trkpt>
      <trkpt lat="48.58039" lon="2.13853">
        <ele>83</ele>
        <time>2025-10-25T11:46:18Z</time>
      </trkpt>
      <trkpt lat="48.58043" lon="2.13851">
        <ele>83.2</ele>
        <time>2025-10-25T11:46:20Z</time>
      </trkpt>
      <trkpt lat="48.58045" lon="2.13851">
        <ele>83.4</ele>
        <time>2025-10-25T11:46:22Z</time>
      </trkpt>
      <trkpt lat="48.58048" lon="2.13851">
        <ele>83.6</ele>
        <time>2025-10-25T11:46:24Z</time>
      </trkpt>
      <trkpt lat="48.58051" lon="2.13851">
        <ele>83.8</ele>
        <time>2025-10-25T11:46:26Z</time>
      </trkpt>
      <trkpt lat="48.58053" lon="2.13851">
        <ele>83.8</ele>
        <time>2025-10-25T11:46:28Z</time>
      </trkpt>
      <trkpt lat="48.58056" lon="2.13851">
        <ele>84</ele>
        <time>2025-10-25T11:46:30Z</time>
      </trkpt>
      <trkpt lat="48.58059" lon="2.1385">
        <ele>84</ele>
        <time>2025-10-25T11:46:32Z</time>
      </trkpt>
      <trkpt lat="48.58061" lon="2.1385">
        <ele>84.2</ele>
        <time>2025-10-25T11:46:34Z</time>
      </trkpt>
      <trkpt lat="48.58065" lon="2.1385">
        <ele>84.2</ele>
        <time>2025-10-25T11:46:36Z</time>
      </trkpt>
      <trkpt lat="48.58067" lon="2.1385">
        <ele>84.2</ele>
        <time>2025-10-25T11:46:37Z</time>
      </trkpt>
      <trkpt lat="48.58069" lon="2.1385">
        <ele>84.4</ele>
        <time>2025-10-25T11:46:38Z</time>
      </trkpt>
      <trkpt lat="48.58073" lon="2.1385">
        <ele>84.6</ele>
        <time>2025-10-25T11:46:40Z</time>
      </trkpt>
      <trkpt lat="48.58076" lon="2.13849">
        <ele>84.8</ele>
        <time>2025-10-25T11:46:42Z</time>
      </trkpt>
      <trkpt lat="48.58078" lon="2.13848">
        <ele>85</ele>
        <time>2025-10-25T11:46:44Z</time>
      </trkpt>
      <trkpt lat="48.58081" lon="2.13847">
        <ele>85.4</ele>
        <time>2025-10-25T11:46:46Z</time>
      </trkpt>
      <trkpt lat="48.58083" lon="2.13846">
        <ele>85.8</ele>
        <time>2025-10-25T11:46:48Z</time>
      </trkpt>
      <trkpt lat="48.58086" lon="2.13845">
        <ele>86</ele>
        <time>2025-10-25T11:46:50Z</time>
      </trkpt>
      <trkpt lat="48.58088" lon="2.13844">
        <ele>86.4</ele>
        <time>2025-10-25T11:46:52Z</time>
      </trkpt>
      <trkpt lat="48.58091" lon="2.13843">
        <ele>86.6</ele>
        <time>2025-10-25T11:46:54Z</time>
      </trkpt>
      <trkpt lat="48.58093" lon="2.13842">
        <ele>87</ele>
        <time>2025-10-25T11:46:56Z</time>
      </trkpt>
      <trkpt lat="48.58096" lon="2.1384">
        <ele>87.2</ele>
        <time>2025-10-25T11:46:58Z</time>
      </trkpt>
      <trkpt lat="48.58098" lon="2.13839">
        <ele>87.4</ele>
        <time>2025-10-25T11:47:00Z</time>
      </trkpt>
      <trkpt lat="48.581" lon="2.13837">
        <ele>87.6</ele>
        <time>2025-10-25T11:47:02Z</time>
      </trkpt>
      <trkpt lat="48.58103" lon="2.13836">
        <ele>87.8</ele>
        <time>2025-10-25T11:47:04Z</time>
      </trkpt>
      <trkpt lat="48.58106" lon="2.13835">
        <ele>88</ele>
        <time>2025-10-25T11:47:06Z</time>
      </trkpt>
      <trkpt lat="48.58108" lon="2.13833">
        <ele>88.2</ele>
        <time>2025-10-25T11:47:08Z</time>
      </trkpt>
      <trkpt lat="48.5811" lon="2.13832">
        <ele>88.2</ele>
        <time>2025-10-25T11:47:10Z</time>
      </trkpt>
      <trkpt lat="48.58112" lon="2.13831">
        <ele>88.4</ele>
        <time>2025-10-25T11:47:12Z</time>
      </trkpt>
      <trkpt lat="48.58115" lon="2.13829">
        <ele>88.6</ele>
        <time>2025-10-25T11:47:14Z</time>
      </trkpt>
      <trkpt lat="48.58117" lon="2.13827">
        <ele>88.8</ele>
        <time>2025-10-25T11:47:16Z</time>
      </trkpt>
      <trkpt lat="48.5812" lon="2.13825">
        <ele>89</ele>
        <time>2025-10-25T11:47:18Z</time>
      </trkpt>
      <trkpt lat="48.58122" lon="2.13824">
        <ele>89.2</ele>
        <time>2025-10-25T11:47:20Z</time>
      </trkpt>
      <trkpt lat="48.58125" lon="2.13823">
        <ele>89.4</ele>
        <time>2025-10-25T11:47:22Z</time>
      </trkpt>
      <trkpt lat="48.58127" lon="2.13821">
        <ele>89.4</ele>
        <time>2025-10-25T11:47:24Z</time>
      </trkpt>
      <trkpt lat="48.5813" lon="2.13819">
        <ele>89.6</ele>
        <time>2025-10-25T11:47:26Z</time>
      </trkpt>
      <trkpt lat="48.58132" lon="2.13818">
        <ele>89.6</ele>
        <time>2025-10-25T11:47:28Z</time>
      </trkpt>
      <trkpt lat="48.58135" lon="2.13816">
        <ele>89.6</ele>
        <time>2025-10-25T11:47:30Z</time>
      </trkpt>
      <trkpt lat="48.58138" lon="2.13814">
        <ele>90</ele>
        <time>2025-10-25T11:47:32Z</time>
      </trkpt>
      <trkpt lat="48.5814" lon="2.13812">
        <ele>90.2</ele>
        <time>2025-10-25T11:47:34Z</time>
      </trkpt>
      <trkpt lat="48.58143" lon="2.1381">
        <ele>90.2</ele>
        <time>2025-10-25T11:47:36Z</time>
      </trkpt>
      <trkpt lat="48.58145" lon="2.13809">
        <ele>90.4</ele>
        <time>2025-10-25T11:47:38Z</time>
      </trkpt>
      <trkpt lat="48.58148" lon="2.13807">
        <ele>90.6</ele>
        <time>2025-10-25T11:47:40Z</time>
      </trkpt>
      <trkpt lat="48.5815" lon="2.13806">
        <ele>90.8</ele>
        <time>2025-10-25T11:47:42Z</time>
      </trkpt>
      <trkpt lat="48.58154" lon="2.13804">
        <ele>90.6</ele>
        <time>2025-10-25T11:47:44Z</time>
      </trkpt>
      <trkpt lat="48.58156" lon="2.13803">
        <ele>90.6</ele>
        <time>2025-10-25T11:47:46Z</time>
      </trkpt>
      <trkpt lat="48.58158" lon="2.13801">
        <ele>90.4</ele>
        <time>2025-10-25T11:47:48Z</time>
      </trkpt>
      <trkpt lat="48.58161" lon="2.138">
        <ele>90.6</ele>
        <time>2025-10-25T11:47:50Z</time>
      </trkpt>
      <trkpt lat="48.58164" lon="2.138">
        <ele>90.6</ele>
        <time>2025-10-25T11:47:52Z</time>
      </trkpt>
      <trkpt lat="48.58167" lon="2.13799">
        <ele>90.8</ele>
        <time>2025-10-25T11:47:54Z</time>
      </trkpt>
      <trkpt lat="48.5817" lon="2.13798">
        <ele>90.8</ele>
        <time>2025-10-25T11:47:56Z</time>
      </trkpt>
      <trkpt lat="48.58173" lon="2.13797">
        <ele>90.8</ele>
        <time>2025-10-25T11:47:58Z</time>
      </trkpt>
      <trkpt lat="48.58176" lon="2.13796">
        <ele>90.8</ele>
        <time>2025-10-25T11:48:00Z</time>
      </trkpt>
      <trkpt lat="48.58178" lon="2.13794">
        <ele>91</ele>
        <time>2025-10-25T11:48:02Z</time>
      </trkpt>
      <trkpt lat="48.58181" lon="2.13793">
        <ele>91</ele>
        <time>2025-10-25T11:48:04Z</time>
      </trkpt>
      <trkpt lat="48.58184" lon="2.13791">
        <ele>91</ele>
        <time>2025-10-25T11:48:06Z</time>
      </trkpt>
      <trkpt lat="48.58187" lon="2.1379">
        <ele>91</ele>
        <time>2025-10-25T11:48:08Z</time>
      </trkpt>
      <trkpt lat="48.58189" lon="2.13789">
        <ele>91</ele>
        <time>2025-10-25T11:48:10Z</time>
      </trkpt>
      <trkpt lat="48.58192" lon="2.13788">
        <ele>91.2</ele>
        <time>2025-10-25T11:48:12Z</time>
      </trkpt>
      <trkpt lat="48.58195" lon="2.13787">
        <ele>91.2</ele>
        <time>2025-10-25T11:48:14Z</time>
      </trkpt>
      <trkpt lat="48.58197" lon="2.13787">
        <ele>91.4</ele>
        <time>2025-10-25T11:48:16Z</time>
      </trkpt>
      <trkpt lat="48.582" lon="2.13785">
        <ele>91.4</ele>
        <time>2025-10-25T11:48:18Z</time>
      </trkpt>
      <trkpt lat="48.58202" lon="2.13784">
        <ele>91.4</ele>
        <time>2025-10-25T11:48:20Z</time>
      </trkpt>
      <trkpt lat="48.58205" lon="2.13782">
        <ele>91.2</ele>
        <time>2025-10-25T11:48:22Z</time>
      </trkpt>
      <trkpt lat="48.58207" lon="2.1378">
        <ele>91.2</ele>
        <time>2025-10-25T11:48:24Z</time>
      </trkpt>
      <trkpt lat="48.5821" lon="2.13779">
        <ele>91</ele>
        <time>2025-10-25T11:48:26Z</time>
      </trkpt>
      <trkpt lat="48.58213" lon="2.13778">
        <ele>91</ele>
        <time>2025-10-25T11:48:28Z</time>
      </trkpt>
      <trkpt lat="48.58216" lon="2.13777">
        <ele>91</ele>
        <time>2025-10-25T11:48:30Z</time>
      </trkpt>
      <trkpt lat="48.58219" lon="2.13777">
        <ele>90.8</ele>
        <time>2025-10-25T11:48:32Z</time>
      </trkpt>
      <trkpt lat="48.58221" lon="2.13775">
        <ele>90.8</ele>
        <time>2025-10-25T11:48:34Z</time>
      </trkpt>
      <trkpt lat="48.58223" lon="2.13774">
        <ele>90.8</ele>
        <time>2025-10-25T11:48:36Z</time>
      </trkpt>
      <trkpt lat="48.58226" lon="2.13773">
        <ele>91</ele>
        <time>2025-10-25T11:48:38Z</time>
      </trkpt>
      <trkpt lat="48.58228" lon="2.13771">
        <ele>91</ele>
        <time>2025-10-25T11:48:40Z</time>
      </trkpt>
      <trkpt lat="48.5823" lon="2.13769">
        <ele>91.2</ele>
        <time>2025-10-25T11:48:42Z</time>
      </trkpt>
      <trkpt lat="48.58233" lon="2.13768">
        <ele>91.2</ele>
        <time>2025-10-25T11:48:44Z</time>
      </trkpt>
      <trkpt lat="48.58235" lon="2.13766">
        <ele>91.4</ele>
        <time>2025-10-25T11:48:46Z</time>
      </trkpt>
      <trkpt lat="48.58237" lon="2.13764">
        <ele>91.6</ele>
        <time>2025-10-25T11:48:48Z</time>
      </trkpt>
      <trkpt lat="48.58239" lon="2.13762">
        <ele>92</ele>
        <time>2025-10-25T11:48:50Z</time>
      </trkpt>
      <trkpt lat="48.58242" lon="2.1376">
        <ele>92</ele>
        <time>2025-10-25T11:48:52Z</time>
      </trkpt>
      <trkpt lat="48.58244" lon="2.13758">
        <ele>92</ele>
        <time>2025-10-25T11:48:54Z</time>
      </trkpt>
      <trkpt lat="48.58247" lon="2.13756">
        <ele>92</ele>
        <time>2025-10-25T11:48:56Z</time>
      </trkpt>
      <trkpt lat="48.58249" lon="2.13754">
        <ele>92.2</ele>
        <time>2025-10-25T11:48:58Z</time>
      </trkpt>
      <trkpt lat="48.58252" lon="2.13753">
        <ele>92.2</ele>
        <time>2025-10-25T11:49:00Z</time>
      </trkpt>
      <trkpt lat="48.58254" lon="2.13751">
        <ele>92.2</ele>
        <time>2025-10-25T11:49:02Z</time>
      </trkpt>
      <trkpt lat="48.58256" lon="2.13749">
        <ele>92.2</ele>
        <time>2025-10-25T11:49:04Z</time>
      </trkpt>
      <trkpt lat="48.58258" lon="2.13746">
        <ele>92.2</ele>
        <time>2025-10-25T11:49:06Z</time>
      </trkpt>
      <trkpt lat="48.5826" lon="2.13744">
        <ele>92.2</ele>
        <time>2025-10-25T11:49:08Z</time>
      </trkpt>
      <trkpt lat="48.58263" lon="2.13742">
        <ele>92.2</ele>
        <time>2025-10-25T11:49:10Z</time>
      </trkpt>
      <trkpt lat="48.58265" lon="2.13739">
        <ele>92.4</ele>
        <time>2025-10-25T11:49:12Z</time>
      </trkpt>
      <trkpt lat="48.58268" lon="2.13737">
        <ele>92.4</ele>
        <time>2025-10-25T11:49:14Z</time>
      </trkpt>
      <trkpt lat="48.5827" lon="2.13734">
        <ele>92.4</ele>
        <time>2025-10-25T11:49:16Z</time>
      </trkpt>
      <trkpt lat="48.58272" lon="2.13732">
        <ele>92.4</ele>
        <time>2025-10-25T11:49:18Z</time>
      </trkpt>
      <trkpt lat="48.58275" lon="2.1373">
        <ele>92.4</ele>
        <time>2025-10-25T11:49:20Z</time>
      </trkpt>
      <trkpt lat="48.58277" lon="2.13727">
        <ele>92.4</ele>
        <time>2025-10-25T11:49:22Z</time>
      </trkpt>
      <trkpt lat="48.58279" lon="2.13725">
        <ele>92.6</ele>
        <time>2025-10-25T11:49:24Z</time>
      </trkpt>
      <trkpt lat="48.58282" lon="2.13723">
        <ele>92.6</ele>
        <time>2025-10-25T11:49:26Z</time>
      </trkpt>
      <trkpt lat="48.58284" lon="2.13721">
        <ele>92.6</ele>
        <time>2025-10-25T11:49:28Z</time>
      </trkpt>
      <trkpt lat="48.58286" lon="2.1372">
        <ele>92.8</ele>
        <time>2025-10-25T11:49:30Z</time>
      </trkpt>
      <trkpt lat="48.58288" lon="2.13718">
        <ele>93</ele>
        <time>2025-10-25T11:49:32Z</time>
      </trkpt>
      <trkpt lat="48.58291" lon="2.13716">
        <ele>93.2</ele>
        <time>2025-10-25T11:49:34Z</time>
      </trkpt>
      <trkpt lat="48.58293" lon="2.13714">
        <ele>93.4</ele>
        <time>2025-10-25T11:49:36Z</time>
      </trkpt>
      <trkpt lat="48.58295" lon="2.13711">
        <ele>93.4</ele>
        <time>2025-10-25T11:49:38Z</time>
      </trkpt>
      <trkpt lat="48.58298" lon="2.13709">
        <ele>93.4</ele>
        <time>2025-10-25T11:49:40Z</time>
      </trkpt>
      <trkpt lat="48.583" lon="2.13708">
        <ele>93.6</ele>
        <time>2025-10-25T11:49:42Z</time>
      </trkpt>
      <trkpt lat="48.58303" lon="2.13707">
        <ele>93.8</ele>
        <time>2025-10-25T11:49:44Z</time>
      </trkpt>
      <trkpt lat="48.58306" lon="2.13705">
        <ele>93.8</ele>
        <time>2025-10-25T11:49:46Z</time>
      </trkpt>
      <trkpt lat="48.58308" lon="2.13704">
        <ele>93.6</ele>
        <time>2025-10-25T11:49:48Z</time>
      </trkpt>
      <trkpt lat="48.58311" lon="2.13703">
        <ele>93.6</ele>
        <time>2025-10-25T11:49:50Z</time>
      </trkpt>
      <trkpt lat="48.58314" lon="2.13701">
        <ele>93.8</ele>
        <time>2025-10-25T11:49:52Z</time>
      </trkpt>
      <trkpt lat="48.58317" lon="2.137">
        <ele>93.6</ele>
        <time>2025-10-25T11:49:54Z</time>
      </trkpt>
      <trkpt lat="48.5832" lon="2.13699">
        <ele>93.6</ele>
        <time>2025-10-25T11:49:56Z</time>
      </trkpt>
      <trkpt lat="48.58323" lon="2.13697">
        <ele>93.6</ele>
        <time>2025-10-25T11:49:58Z</time>
      </trkpt>
      <trkpt lat="48.58326" lon="2.13696">
        <ele>93.8</ele>
        <time>2025-10-25T11:50:00Z</time>
      </trkpt>
      <trkpt lat="48.58328" lon="2.13695">
        <ele>93.8</ele>
        <time>2025-10-25T11:50:01Z</time>
      </trkpt>
      <trkpt lat="48.5833" lon="2.13693">
        <ele>93.8</ele>
        <time>2025-10-25T11:50:02Z</time>
      </trkpt>
      <trkpt lat="48.58333" lon="2.13692">
        <ele>93.8</ele>
        <time>2025-10-25T11:50:03Z</time>
      </trkpt>
      <trkpt lat="48.58335" lon="2.13691">
        <ele>93.8</ele>
        <time>2025-10-25T11:50:04Z</time>
      </trkpt>
      <trkpt lat="48.58338" lon="2.13689">
        <ele>93.8</ele>
        <time>2025-10-25T11:50:05Z</time>
      </trkpt>
      <trkpt lat="48.58341" lon="2.13688">
        <ele>93.8</ele>
        <time>2025-10-25T11:50:06Z</time>
      </trkpt>
      <trkpt lat="48.58343" lon="2.13686">
        <ele>93.8</ele>
        <time>2025-10-25T11:50:07Z</time>
      </trkpt>
      <trkpt lat="48.58346" lon="2.13685">
        <ele>93.8</ele>
        <time>2025-10-25T11:50:08Z</time>
      </trkpt>
      <trkpt lat="48.58349" lon="2.13684">
        <ele>93.8</ele>
        <time>2025-10-25T11:50:09Z</time>
      </trkpt>
      <trkpt lat="48.58352" lon="2.13682">
        <ele>93.8</ele>
        <time>2025-10-25T11:50:10Z</time>
      </trkpt>
      <trkpt lat="48.58355" lon="2.13681">
        <ele>93.8</ele>
        <time>2025-10-25T11:50:11Z</time>
      </trkpt>
      <trkpt lat="48.58358" lon="2.1368">
        <ele>93.8</ele>
        <time>2025-10-25T11:50:12Z</time>
      </trkpt>
      <trkpt lat="48.5836" lon="2.13679">
        <ele>94</ele>
        <time>2025-10-25T11:50:13Z</time>
      </trkpt>
      <trkpt lat="48.58363" lon="2.13678">
        <ele>94</ele>
        <time>2025-10-25T11:50:14Z</time>
      </trkpt>
      <trkpt lat="48.58367" lon="2.13677">
        <ele>94</ele>
        <time>2025-10-25T11:50:15Z</time>
      </trkpt>
      <trkpt lat="48.5837" lon="2.13675">
        <ele>94</ele>
        <time>2025-10-25T11:50:16Z</time>
      </trkpt>
      <trkpt lat="48.58374" lon="2.13673">
        <ele>94.2</ele>
        <time>2025-10-25T11:50:17Z</time>
      </trkpt>
      <trkpt lat="48.58378" lon="2.13671">
        <ele>94.2</ele>
        <time>2025-10-25T11:50:18Z</time>
      </trkpt>
      <trkpt lat="48.58381" lon="2.13669">
        <ele>94.2</ele>
        <time>2025-10-25T11:50:19Z</time>
      </trkpt>
      <trkpt lat="48.58386" lon="2.13666">
        <ele>94.4</ele>
        <time>2025-10-25T11:50:20Z</time>
      </trkpt>
      <trkpt lat="48.5839" lon="2.13663">
        <ele>94.4</ele>
        <time>2025-10-25T11:50:21Z</time>
      </trkpt>
      <trkpt lat="48.58395" lon="2.1366">
        <ele>94.4</ele>
        <time>2025-10-25T11:50:22Z</time>
      </trkpt>
      <trkpt lat="48.584" lon="2.13656">
        <ele>94.6</ele>
        <time>2025-10-25T11:50:23Z</time>
      </trkpt>
      <trkpt lat="48.58405" lon="2.13653">
        <ele>94.6</ele>
        <time>2025-10-25T11:50:24Z</time>
      </trkpt>
      <trkpt lat="48.5841" lon="2.13649">
        <ele>94.6</ele>
        <time>2025-10-25T11:50:25Z</time>
      </trkpt>
      <trkpt lat="48.58414" lon="2.13645">
        <ele>94.8</ele>
        <time>2025-10-25T11:50:26Z</time>
      </trkpt>
      <trkpt lat="48.58419" lon="2.13641">
        <ele>94.8</ele>
        <time>2025-10-25T11:50:27Z</time>
      </trkpt>
      <trkpt lat="48.58424" lon="2.13637">
        <ele>94.8</ele>
        <time>2025-10-25T11:50:28Z</time>
      </trkpt>
      <trkpt lat="48.58429" lon="2.13633">
        <ele>94.8</ele>
        <time>2025-10-25T11:50:29Z</time>
      </trkpt>
      <trkpt lat="48.58434" lon="2.13628">
        <ele>94.8</ele>
        <time>2025-10-25T11:50:30Z</time>
      </trkpt>
      <trkpt lat="48.58438" lon="2.13624">
        <ele>94.8</ele>
        <time>2025-10-25T11:50:31Z</time>
      </trkpt>
      <trkpt lat="48.58443" lon="2.13619">
        <ele>94.8</ele>
        <time>2025-10-25T11:50:32Z</time>
      </trkpt>
      <trkpt lat="48.58448" lon="2.13614">
        <ele>94.8</ele>
        <time>2025-10-25T11:50:33Z</time>
      </trkpt>
      <trkpt lat="48.58452" lon="2.13609">
        <ele>94.8</ele>
        <time>2025-10-25T11:50:34Z</time>
      </trkpt>
      <trkpt lat="48.58457" lon="2.13604">
        <ele>95</ele>
        <time>2025-10-25T11:50:35Z</time>
      </trkpt>
      <trkpt lat="48.58461" lon="2.13599">
        <ele>95</ele>
        <time>2025-10-25T11:50:36Z</time>
      </trkpt>
      <trkpt lat="48.58466" lon="2.13594">
        <ele>95</ele>
        <time>2025-10-25T11:50:37Z</time>
      </trkpt>
      <trkpt lat="48.5847" lon="2.13589">
        <ele>95</ele>
        <time>2025-10-25T11:50:38Z</time>
      </trkpt>
      <trkpt lat="48.58474" lon="2.13584">
        <ele>95</ele>
        <time>2025-10-25T11:50:39Z</time>
      </trkpt>
      <trkpt lat="48.58478" lon="2.13578">
        <ele>95</ele>
        <time>2025-10-25T11:50:40Z</time>
      </trkpt>
      <trkpt lat="48.58482" lon="2.13573">
        <ele>95</ele>
        <time>2025-10-25T11:50:41Z</time>
      </trkpt>
      <trkpt lat="48.58486" lon="2.13568">
        <ele>95</ele>
        <time>2025-10-25T11:50:42Z</time>
      </trkpt>
      <trkpt lat="48.5849" lon="2.13563">
        <ele>95</ele>
        <time>2025-10-25T11:50:43Z</time>
      </trkpt>
      <trkpt lat="48.58494" lon="2.13558">
        <ele>95.2</ele>
        <time>2025-10-25T11:50:44Z</time>
      </trkpt>
      <trkpt lat="48.58498" lon="2.13553">
        <ele>95.2</ele>
        <time>2025-10-25T11:50:45Z</time>
      </trkpt>
      <trkpt lat="48.58502" lon="2.13548">
        <ele>95.2</ele>
        <time>2025-10-25T11:50:46Z</time>
      </trkpt>
      <trkpt lat="48.58506" lon="2.13543">
        <ele>95.2</ele>
        <time>2025-10-25T11:50:47Z</time>
      </trkpt>
      <trkpt lat="48.58509" lon="2.13539">
        <ele>95.2</ele>
        <time>2025-10-25T11:50:48Z</time>
      </trkpt>
      <trkpt lat="48.58514" lon="2.13535">
        <ele>95.2</ele>
        <time>2025-10-25T11:50:49Z</time>
      </trkpt>
      <trkpt lat="48.58517" lon="2.13531">
        <ele>95.2</ele>
        <time>2025-10-25T11:50:50Z</time>
      </trkpt>
      <trkpt lat="48.58522" lon="2.13527">
        <ele>95.2</ele>
        <time>2025-10-25T11:50:51Z</time>
      </trkpt>
      <trkpt lat="48.58526" lon="2.13523">
        <ele>95.2</ele>
        <time>2025-10-25T11:50:52Z</time>
      </trkpt>
      <trkpt lat="48.5853" lon="2.1352">
        <ele>95.2</ele>
        <time>2025-10-25T11:50:53Z</time>
      </trkpt>
      <trkpt lat="48.58535" lon="2.13516">
        <ele>95.2</ele>
        <time>2025-10-25T11:50:54Z</time>
      </trkpt>
      <trkpt lat="48.58539" lon="2.13513">
        <ele>95.2</ele>
        <time>2025-10-25T11:50:55Z</time>
      </trkpt>
      <trkpt lat="48.58544" lon="2.1351">
        <ele>95.2</ele>
        <time>2025-10-25T11:50:56Z</time>
      </trkpt>
      <trkpt lat="48.58548" lon="2.13507">
        <ele>95.4</ele>
        <time>2025-10-25T11:50:57Z</time>
      </trkpt>
      <trkpt lat="48.58553" lon="2.13504">
        <ele>95.4</ele>
        <time>2025-10-25T11:50:58Z</time>
      </trkpt>
      <trkpt lat="48.58558" lon="2.13501">
        <ele>95.4</ele>
        <time>2025-10-25T11:50:59Z</time>
      </trkpt>
      <trkpt lat="48.58563" lon="2.13498">
        <ele>95.4</ele>
        <time>2025-10-25T11:51:00Z</time>
      </trkpt>
      <trkpt lat="48.58567" lon="2.13495">
        <ele>95.4</ele>
        <time>2025-10-25T11:51:01Z</time>
      </trkpt>
      <trkpt lat="48.58572" lon="2.13492">
        <ele>95.4</ele>
        <time>2025-10-25T11:51:02Z</time>
      </trkpt>
      <trkpt lat="48.58577" lon="2.1349">
        <ele>95.4</ele>
        <time>2025-10-25T11:51:03Z</time>
      </trkpt>
      <trkpt lat="48.58582" lon="2.13487">
        <ele>95.6</ele>
        <time>2025-10-25T11:51:04Z</time>
      </trkpt>
      <trkpt lat="48.58588" lon="2.13484">
        <ele>95.6</ele>
        <time>2025-10-25T11:51:05Z</time>
      </trkpt>
      <trkpt lat="48.58593" lon="2.13482">
        <ele>95.6</ele>
        <time>2025-10-25T11:51:06Z</time>
      </trkpt>
      <trkpt lat="48.58599" lon="2.1348">
        <ele>95.6</ele>
        <time>2025-10-25T11:51:07Z</time>
      </trkpt>
      <trkpt lat="48.58604" lon="2.13478">
        <ele>95.6</ele>
        <time>2025-10-25T11:51:08Z</time>
      </trkpt>
      <trkpt lat="48.5861" lon="2.13476">
        <ele>95.6</ele>
        <time>2025-10-25T11:51:09Z</time>
      </trkpt>
      <trkpt lat="48.58615" lon="2.13473">
        <ele>95.8</ele>
        <time>2025-10-25T11:51:10Z</time>
      </trkpt>
      <trkpt lat="48.5862" lon="2.13471">
        <ele>95.8</ele>
        <time>2025-10-25T11:51:11Z</time>
      </trkpt>
      <trkpt lat="48.58626" lon="2.1347">
        <ele>95.8</ele>
        <time>2025-10-25T11:51:12Z</time>
      </trkpt>
      <trkpt lat="48.58631" lon="2.13468">
        <ele>95.8</ele>
        <time>2025-10-25T11:51:13Z</time>
      </trkpt>
      <trkpt lat="48.58637" lon="2.13466">
        <ele>96</ele>
        <time>2025-10-25T11:51:14Z</time>
      </trkpt>
      <trkpt lat="48.58643" lon="2.13464">
        <ele>96</ele>
        <time>2025-10-25T11:51:15Z</time>
      </trkpt>
      <trkpt lat="48.58649" lon="2.13463">
        <ele>96.2</ele>
        <time>2025-10-25T11:51:16Z</time>
      </trkpt>
      <trkpt lat="48.58654" lon="2.13461">
        <ele>96.2</ele>
        <time>2025-10-25T11:51:17Z</time>
      </trkpt>
      <trkpt lat="48.5866" lon="2.1346">
        <ele>96.4</ele>
        <time>2025-10-25T11:51:18Z</time>
      </trkpt>
      <trkpt lat="48.58666" lon="2.13459">
        <ele>96.4</ele>
        <time>2025-10-25T11:51:19Z</time>
      </trkpt>
      <trkpt lat="48.58671" lon="2.13458">
        <ele>96.4</ele>
        <time>2025-10-25T11:51:20Z</time>
      </trkpt>
      <trkpt lat="48.58676" lon="2.13457">
        <ele>96.4</ele>
        <time>2025-10-25T11:51:21Z</time>
      </trkpt>
      <trkpt lat="48.58682" lon="2.13456">
        <ele>96.4</ele>
        <time>2025-10-25T11:51:22Z</time>
      </trkpt>
      <trkpt lat="48.58687" lon="2.13455">
        <ele>96.4</ele>
        <time>2025-10-25T11:51:23Z</time>
      </trkpt>
      <trkpt lat="48.58692" lon="2.13454">
        <ele>96.6</ele>
        <time>2025-10-25T11:51:24Z</time>
      </trkpt>
      <trkpt lat="48.58697" lon="2.13453">
        <ele>96.6</ele>
        <time>2025-10-25T11:51:25Z</time>
      </trkpt>
      <trkpt lat="48.58701" lon="2.13452">
        <ele>96.6</ele>
        <time>2025-10-25T11:51:26Z</time>
      </trkpt>
      <trkpt lat="48.58706" lon="2.1345">
        <ele>96.6</ele>
        <time>2025-10-25T11:51:27Z</time>
      </trkpt>
      <trkpt lat="48.58711" lon="2.13449">
        <ele>96.6</ele>
        <time>2025-10-25T11:51:28Z</time>
      </trkpt>
      <trkpt lat="48.58716" lon="2.13449">
        <ele>96.6</ele>
        <time>2025-10-25T11:51:29Z</time>
      </trkpt>
      <trkpt lat="48.58721" lon="2.13448">
        <ele>96.6</ele>
        <time>2025-10-25T11:51:30Z</time>
      </trkpt>
      <trkpt lat="48.58726" lon="2.13447">
        <ele>96.8</ele>
        <time>2025-10-25T11:51:31Z</time>
      </trkpt>
      <trkpt lat="48.5873" lon="2.13447">
        <ele>96.8</ele>
        <time>2025-10-25T11:51:32Z</time>
      </trkpt>
      <trkpt lat="48.58736" lon="2.13446">
        <ele>96.6</ele>
        <time>2025-10-25T11:51:33Z</time>
      </trkpt>
      <trkpt lat="48.5874" lon="2.13446">
        <ele>96.8</ele>
        <time>2025-10-25T11:51:34Z</time>
      </trkpt>
      <trkpt lat="48.58746" lon="2.13446">
        <ele>96.8</ele>
        <time>2025-10-25T11:51:35Z</time>
      </trkpt>
      <trkpt lat="48.58751" lon="2.13446">
        <ele>96.8</ele>
        <time>2025-10-25T11:51:36Z</time>
      </trkpt>
      <trkpt lat="48.58756" lon="2.13445">
        <ele>96.8</ele>
        <time>2025-10-25T11:51:37Z</time>
      </trkpt>
      <trkpt lat="48.58762" lon="2.13445">
        <ele>96.8</ele>
        <time>2025-10-25T11:51:38Z</time>
      </trkpt>
      <trkpt lat="48.58768" lon="2.13445">
        <ele>97</ele>
        <time>2025-10-25T11:51:39Z</time>
      </trkpt>
      <trkpt lat="48.58773" lon="2.13445">
        <ele>97</ele>
        <time>2025-10-25T11:51:40Z</time>
      </trkpt>
      <trkpt lat="48.58778" lon="2.13445">
        <ele>97</ele>
        <time>2025-10-25T11:51:41Z</time>
      </trkpt>
      <trkpt lat="48.58784" lon="2.13445">
        <ele>97.2</ele>
        <time>2025-10-25T11:51:42Z</time>
      </trkpt>
      <trkpt lat="48.58789" lon="2.13445">
        <ele>97.2</ele>
        <time>2025-10-25T11:51:43Z</time>
      </trkpt>
      <trkpt lat="48.58795" lon="2.13445">
        <ele>97.2</ele>
        <time>2025-10-25T11:51:44Z</time>
      </trkpt>
      <trkpt lat="48.58801" lon="2.13445">
        <ele>97.2</ele>
        <time>2025-10-25T11:51:45Z</time>
      </trkpt>
      <trkpt lat="48.58807" lon="2.13446">
        <ele>97.2</ele>
        <time>2025-10-25T11:51:46Z</time>
      </trkpt>
      <trkpt lat="48.58812" lon="2.13446">
        <ele>97.2</ele>
        <time>2025-10-25T11:51:47Z</time>
      </trkpt>
      <trkpt lat="48.58818" lon="2.13446">
        <ele>97.2</ele>
        <time>2025-10-25T11:51:48Z</time>
      </trkpt>
      <trkpt lat="48.58823" lon="2.13445">
        <ele>97.2</ele>
        <time>2025-10-25T11:51:49Z</time>
      </trkpt>
      <trkpt lat="48.58829" lon="2.13445">
        <ele>97.4</ele>
        <time>2025-10-25T11:51:50Z</time>
      </trkpt>
      <trkpt lat="48.58835" lon="2.13446">
        <ele>97.4</ele>
        <time>2025-10-25T11:51:51Z</time>
      </trkpt>
      <trkpt lat="48.5884" lon="2.13446">
        <ele>97.4</ele>
        <time>2025-10-25T11:51:52Z</time>
      </trkpt>
      <trkpt lat="48.58845" lon="2.13446">
        <ele>97.6</ele>
        <time>2025-10-25T11:51:53Z</time>
      </trkpt>
      <trkpt lat="48.58851" lon="2.13446">
        <ele>97.8</ele>
        <time>2025-10-25T11:51:54Z</time>
      </trkpt>
      <trkpt lat="48.58856" lon="2.13446">
        <ele>97.8</ele>
        <time>2025-10-25T11:51:55Z</time>
      </trkpt>
      <trkpt lat="48.58861" lon="2.13446">
        <ele>98</ele>
        <time>2025-10-25T11:51:56Z</time>
      </trkpt>
      <trkpt lat="48.58866" lon="2.13446">
        <ele>98</ele>
        <time>2025-10-25T11:51:57Z</time>
      </trkpt>
      <trkpt lat="48.5887" lon="2.13446">
        <ele>98</ele>
        <time>2025-10-25T11:51:58Z</time>
      </trkpt>
      <trkpt lat="48.58874" lon="2.13446">
        <ele>98.2</ele>
        <time>2025-10-25T11:51:59Z</time>
      </trkpt>
      <trkpt lat="48.58878" lon="2.13446">
        <ele>98.2</ele>
        <time>2025-10-25T11:52:00Z</time>
      </trkpt>
      <trkpt lat="48.58882" lon="2.13446">
        <ele>98.2</ele>
        <time>2025-10-25T11:52:01Z</time>
      </trkpt>
      <trkpt lat="48.58885" lon="2.13447">
        <ele>98.2</ele>
        <time>2025-10-25T11:52:02Z</time>
      </trkpt>
      <trkpt lat="48.58889" lon="2.13447">
        <ele>98.4</ele>
        <time>2025-10-25T11:52:03Z</time>
      </trkpt>
      <trkpt lat="48.58892" lon="2.13447">
        <ele>98.4</ele>
        <time>2025-10-25T11:52:04Z</time>
      </trkpt>
      <trkpt lat="48.58895" lon="2.13447">
        <ele>98.6</ele>
        <time>2025-10-25T11:52:05Z</time>
      </trkpt>
      <trkpt lat="48.58898" lon="2.13447">
        <ele>98.6</ele>
        <time>2025-10-25T11:52:06Z</time>
      </trkpt>
      <trkpt lat="48.58901" lon="2.13447">
        <ele>98.8</ele>
        <time>2025-10-25T11:52:07Z</time>
      </trkpt>
      <trkpt lat="48.58904" lon="2.13447">
        <ele>99</ele>
        <time>2025-10-25T11:52:08Z</time>
      </trkpt>
      <trkpt lat="48.58907" lon="2.13447">
        <ele>99</ele>
        <time>2025-10-25T11:52:09Z</time>
      </trkpt>
      <trkpt lat="48.5891" lon="2.13447">
        <ele>99.2</ele>
        <time>2025-10-25T11:52:10Z</time>
      </trkpt>
      <trkpt lat="48.58914" lon="2.13447">
        <ele>99.4</ele>
        <time>2025-10-25T11:52:11Z</time>
      </trkpt>
      <trkpt lat="48.58917" lon="2.13447">
        <ele>99.6</ele>
        <time>2025-10-25T11:52:12Z</time>
      </trkpt>
      <trkpt lat="48.5892" lon="2.13447">
        <ele>99.6</ele>
        <time>2025-10-25T11:52:13Z</time>
      </trkpt>
      <trkpt lat="48.58923" lon="2.13447">
        <ele>99.8</ele>
        <time>2025-10-25T11:52:14Z</time>
      </trkpt>
      <trkpt lat="48.58926" lon="2.13447">
        <ele>99.8</ele>
        <time>2025-10-25T11:52:15Z</time>
      </trkpt>
      <trkpt lat="48.5893" lon="2.13447">
        <ele>100</ele>
        <time>2025-10-25T11:52:16Z</time>
      </trkpt>
      <trkpt lat="48.58932" lon="2.13447">
        <ele>100</ele>
        <time>2025-10-25T11:52:17Z</time>
      </trkpt>
      <trkpt lat="48.58935" lon="2.13447">
        <ele>100</ele>
        <time>2025-10-25T11:52:18Z</time>
      </trkpt>
      <trkpt lat="48.58938" lon="2.13447">
        <ele>100.2</ele>
        <time>2025-10-25T11:52:19Z</time>
      </trkpt>
      <trkpt lat="48.58941" lon="2.13447">
        <ele>100.2</ele>
        <time>2025-10-25T11:52:20Z</time>
      </trkpt>
      <trkpt lat="48.58943" lon="2.13447">
        <ele>100.2</ele>
        <time>2025-10-25T11:52:21Z</time>
      </trkpt>
      <trkpt lat="48.58945" lon="2.13447">
        <ele>100.2</ele>
        <time>2025-10-25T11:52:22Z</time>
      </trkpt>
      <trkpt lat="48.58947" lon="2.13447">
        <ele>100.2</ele>
        <time>2025-10-25T11:52:23Z</time>
      </trkpt>
      <trkpt lat="48.5895" lon="2.13448">
        <ele>100.4</ele>
        <time>2025-10-25T11:52:25Z</time>
      </trkpt>
      <trkpt lat="48.58952" lon="2.13448">
        <ele>100.4</ele>
        <time>2025-10-25T11:52:27Z</time>
      </trkpt>
      <trkpt lat="48.58955" lon="2.13448">
        <ele>100.6</ele>
        <time>2025-10-25T11:52:29Z</time>
      </trkpt>
      <trkpt lat="48.58957" lon="2.13448">
        <ele>100.6</ele>
        <time>2025-10-25T11:52:31Z</time>
      </trkpt>
      <trkpt lat="48.58959" lon="2.13448">
        <ele>100.6</ele>
        <time>2025-10-25T11:52:33Z</time>
      </trkpt>
      <trkpt lat="48.58961" lon="2.13448">
        <ele>100.6</ele>
        <time>2025-10-25T11:52:35Z</time>
      </trkpt>
      <trkpt lat="48.58963" lon="2.13447">
        <ele>100.6</ele>
        <time>2025-10-25T11:52:37Z</time>
      </trkpt>
      <trkpt lat="48.58966" lon="2.13446">
        <ele>100.6</ele>
        <time>2025-10-25T11:52:39Z</time>
      </trkpt>
      <trkpt lat="48.58968" lon="2.13446">
        <ele>100.8</ele>
        <time>2025-10-25T11:52:41Z</time>
      </trkpt>
      <trkpt lat="48.58971" lon="2.13446">
        <ele>100.8</ele>
        <time>2025-10-25T11:52:43Z</time>
      </trkpt>
      <trkpt lat="48.58972" lon="2.13447">
        <ele>101</ele>
        <time>2025-10-25T11:52:45Z</time>
      </trkpt>
      <trkpt lat="48.58975" lon="2.13447">
        <ele>101.2</ele>
        <time>2025-10-25T11:52:47Z</time>
      </trkpt>
      <trkpt lat="48.58977" lon="2.13447">
        <ele>101.4</ele>
        <time>2025-10-25T11:52:49Z</time>
      </trkpt>
      <trkpt lat="48.5898" lon="2.13446">
        <ele>101.4</ele>
        <time>2025-10-25T11:52:51Z</time>
      </trkpt>
      <trkpt lat="48.58982" lon="2.13446">
        <ele>101.6</ele>
        <time>2025-10-25T11:52:53Z</time>
      </trkpt>
      <trkpt lat="48.58985" lon="2.13445">
        <ele>101.6</ele>
        <time>2025-10-25T11:52:55Z</time>
      </trkpt>
      <trkpt lat="48.58988" lon="2.13443">
        <ele>101.8</ele>
        <time>2025-10-25T11:52:57Z</time>
      </trkpt>
      <trkpt lat="48.5899" lon="2.13441">
        <ele>101.8</ele>
        <time>2025-10-25T11:52:59Z</time>
      </trkpt>
      <trkpt lat="48.58992" lon="2.1344">
        <ele>102</ele>
        <time>2025-10-25T11:53:01Z</time>
      </trkpt>
      <trkpt lat="48.58995" lon="2.13438">
        <ele>102</ele>
        <time>2025-10-25T11:53:03Z</time>
      </trkpt>
      <trkpt lat="48.58997" lon="2.13436">
        <ele>102.4</ele>
        <time>2025-10-25T11:53:05Z</time>
      </trkpt>
      <trkpt lat="48.59" lon="2.13434">
        <ele>102.6</ele>
        <time>2025-10-25T11:53:07Z</time>
      </trkpt>
      <trkpt lat="48.59003" lon="2.13433">
        <ele>102.8</ele>
        <time>2025-10-25T11:53:09Z</time>
      </trkpt>
      <trkpt lat="48.59005" lon="2.13431">
        <ele>103</ele>
        <time>2025-10-25T11:53:11Z</time>
      </trkpt>
      <trkpt lat="48.59008" lon="2.13429">
        <ele>103</ele>
        <time>2025-10-25T11:53:13Z</time>
      </trkpt>
      <trkpt lat="48.59011" lon="2.13427">
        <ele>103</ele>
        <time>2025-10-25T11:53:15Z</time>
      </trkpt>
      <trkpt lat="48.59013" lon="2.13424">
        <ele>103.2</ele>
        <time>2025-10-25T11:53:17Z</time>
      </trkpt>
      <trkpt lat="48.59016" lon="2.13422">
        <ele>103.2</ele>
        <time>2025-10-25T11:53:19Z</time>
      </trkpt>
      <trkpt lat="48.59018" lon="2.13421">
        <ele>103.4</ele>
        <time>2025-10-25T11:53:21Z</time>
      </trkpt>
      <trkpt lat="48.5902" lon="2.13419">
        <ele>103.4</ele>
        <time>2025-10-25T11:53:23Z</time>
      </trkpt>
      <trkpt lat="48.59023" lon="2.13416">
        <ele>103.4</ele>
        <time>2025-10-25T11:53:25Z</time>
      </trkpt>
      <trkpt lat="48.59025" lon="2.13414">
        <ele>103.4</ele>
        <time>2025-10-25T11:53:27Z</time>
      </trkpt>
      <trkpt lat="48.59027" lon="2.13411">
        <ele>103.4</ele>
        <time>2025-10-25T11:53:29Z</time>
      </trkpt>
      <trkpt lat="48.5903" lon="2.1341">
        <ele>103.6</ele>
        <time>2025-10-25T11:53:31Z</time>
      </trkpt>
      <trkpt lat="48.59032" lon="2.13408">
        <ele>103.8</ele>
        <time>2025-10-25T11:53:33Z</time>
      </trkpt>
      <trkpt lat="48.59034" lon="2.13406">
        <ele>104</ele>
        <time>2025-10-25T11:53:35Z</time>
      </trkpt>
      <trkpt lat="48.59036" lon="2.13403">
        <ele>104</ele>
        <time>2025-10-25T11:53:37Z</time>
      </trkpt>
      <trkpt lat="48.59039" lon="2.13401">
        <ele>104</ele>
        <time>2025-10-25T11:53:39Z</time>
      </trkpt>
      <trkpt lat="48.59041" lon="2.13399">
        <ele>104.2</ele>
        <time>2025-10-25T11:53:41Z</time>
      </trkpt>
      <trkpt lat="48.59044" lon="2.13397">
        <ele>104.4</ele>
        <time>2025-10-25T11:53:43Z</time>
      </trkpt>
      <trkpt lat="48.59046" lon="2.13395">
        <ele>104.6</ele>
        <time>2025-10-25T11:53:45Z</time>
      </trkpt>
      <trkpt lat="48.59048" lon="2.13394">
        <ele>104.6</ele>
        <time>2025-10-25T11:53:47Z</time>
      </trkpt>
      <trkpt lat="48.59051" lon="2.13393">
        <ele>104.6</ele>
        <time>2025-10-25T11:53:49Z</time>
      </trkpt>
      <trkpt lat="48.59054" lon="2.13391">
        <ele>104.8</ele>
        <time>2025-10-25T11:53:51Z</time>
      </trkpt>
      <trkpt lat="48.59056" lon="2.13389">
        <ele>105</ele>
        <time>2025-10-25T11:53:53Z</time>
      </trkpt>
      <trkpt lat="48.59059" lon="2.13388">
        <ele>105</ele>
        <time>2025-10-25T11:53:55Z</time>
      </trkpt>
      <trkpt lat="48.59061" lon="2.13387">
        <ele>105.2</ele>
        <time>2025-10-25T11:53:57Z</time>
      </trkpt>
      <trkpt lat="48.59063" lon="2.13385">
        <ele>105.4</ele>
        <time>2025-10-25T11:53:59Z</time>
      </trkpt>
      <trkpt lat="48.59066" lon="2.13383">
        <ele>105.6</ele>
        <time>2025-10-25T11:54:01Z</time>
      </trkpt>
      <trkpt lat="48.59068" lon="2.13381">
        <ele>105.6</ele>
        <time>2025-10-25T11:54:03Z</time>
      </trkpt>
      <trkpt lat="48.5907" lon="2.13379">
        <ele>105.6</ele>
        <time>2025-10-25T11:54:05Z</time>
      </trkpt>
      <trkpt lat="48.59073" lon="2.13378">
        <ele>105.6</ele>
        <time>2025-10-25T11:54:07Z</time>
      </trkpt>
      <trkpt lat="48.59075" lon="2.13376">
        <ele>105.6</ele>
        <time>2025-10-25T11:54:09Z</time>
      </trkpt>
      <trkpt lat="48.59077" lon="2.13374">
        <ele>105.6</ele>
        <time>2025-10-25T11:54:11Z</time>
      </trkpt>
      <trkpt lat="48.5908" lon="2.13373">
        <ele>105.6</ele>
        <time>2025-10-25T11:54:13Z</time>
      </trkpt>
      <trkpt lat="48.59083" lon="2.13371">
        <ele>105.8</ele>
        <time>2025-10-25T11:54:15Z</time>
      </trkpt>
      <trkpt lat="48.59085" lon="2.13369">
        <ele>105.8</ele>
        <time>2025-10-25T11:54:17Z</time>
      </trkpt>
      <trkpt lat="48.59087" lon="2.13367">
        <ele>106</ele>
        <time>2025-10-25T11:54:19Z</time>
      </trkpt>
      <trkpt lat="48.5909" lon="2.13365">
        <ele>106.2</ele>
        <time>2025-10-25T11:54:21Z</time>
      </trkpt>
      <trkpt lat="48.59092" lon="2.13364">
        <ele>106.2</ele>
        <time>2025-10-25T11:54:23Z</time>
      </trkpt>
      <trkpt lat="48.59095" lon="2.13362">
        <ele>106.2</ele>
        <time>2025-10-25T11:54:25Z</time>
      </trkpt>
      <trkpt lat="48.59098" lon="2.1336">
        <ele>106</ele>
        <time>2025-10-25T11:54:27Z</time>
      </trkpt>
      <trkpt lat="48.591" lon="2.13359">
        <ele>105.8</ele>
        <time>2025-10-25T11:54:29Z</time>
      </trkpt>
      <trkpt lat="48.59102" lon="2.13357">
        <ele>105.8</ele>
        <time>2025-10-25T11:54:31Z</time>
      </trkpt>
      <trkpt lat="48.59105" lon="2.13356">
        <ele>105.6</ele>
        <time>2025-10-25T11:54:33Z</time>
      </trkpt>
      <trkpt lat="48.59107" lon="2.13356">
        <ele>105.6</ele>
        <time>2025-10-25T11:54:35Z</time>
      </trkpt>
      <trkpt lat="48.5911" lon="2.13356">
        <ele>105.6</ele>
        <time>2025-10-25T11:54:37Z</time>
      </trkpt>
      <trkpt lat="48.59112" lon="2.13356">
        <ele>105.6</ele>
        <time>2025-10-25T11:54:39Z</time>
      </trkpt>
      <trkpt lat="48.59115" lon="2.13355">
        <ele>105.6</ele>
        <time>2025-10-25T11:54:41Z</time>
      </trkpt>
      <trkpt lat="48.59117" lon="2.13354">
        <ele>105.8</ele>
        <time>2025-10-25T11:54:43Z</time>
      </trkpt>
      <trkpt lat="48.5912" lon="2.13352">
        <ele>106.2</ele>
        <time>2025-10-25T11:54:45Z</time>
      </trkpt>
      <trkpt lat="48.59123" lon="2.1335">
        <ele>106.4</ele>
        <time>2025-10-25T11:54:47Z</time>
      </trkpt>
      <trkpt lat="48.59125" lon="2.13347">
        <ele>106.8</ele>
        <time>2025-10-25T11:54:49Z</time>
      </trkpt>
      <trkpt lat="48.59128" lon="2.13345">
        <ele>107</ele>
        <time>2025-10-25T11:54:51Z</time>
      </trkpt>
      <trkpt lat="48.5913" lon="2.13342">
        <ele>107.4</ele>
        <time>2025-10-25T11:54:53Z</time>
      </trkpt>
      <trkpt lat="48.59132" lon="2.1334">
        <ele>108</ele>
        <time>2025-10-25T11:54:55Z</time>
      </trkpt>
      <trkpt lat="48.59135" lon="2.13337">
        <ele>108.2</ele>
        <time>2025-10-25T11:54:57Z</time>
      </trkpt>
      <trkpt lat="48.59138" lon="2.13336">
        <ele>108.4</ele>
        <time>2025-10-25T11:54:59Z</time>
      </trkpt>
      <trkpt lat="48.5914" lon="2.13334">
        <ele>108.6</ele>
        <time>2025-10-25T11:55:01Z</time>
      </trkpt>
      <trkpt lat="48.59143" lon="2.13333">
        <ele>108.6</ele>
        <time>2025-10-25T11:55:03Z</time>
      </trkpt>
      <trkpt lat="48.59145" lon="2.13331">
        <ele>108.8</ele>
        <time>2025-10-25T11:55:05Z</time>
      </trkpt>
      <trkpt lat="48.59148" lon="2.1333">
        <ele>108.8</ele>
        <time>2025-10-25T11:55:07Z</time>
      </trkpt>
      <trkpt lat="48.5915" lon="2.1333">
        <ele>108.8</ele>
        <time>2025-10-25T11:55:09Z</time>
      </trkpt>
      <trkpt lat="48.59152" lon="2.13329">
        <ele>108.8</ele>
        <time>2025-10-25T11:55:11Z</time>
      </trkpt>
      <trkpt lat="48.59155" lon="2.13328">
        <ele>108.8</ele>
        <time>2025-10-25T11:55:13Z</time>
      </trkpt>
      <trkpt lat="48.59157" lon="2.13327">
        <ele>108.8</ele>
        <time>2025-10-25T11:55:15Z</time>
      </trkpt>
      <trkpt lat="48.5916" lon="2.13326">
        <ele>109</ele>
        <time>2025-10-25T11:55:17Z</time>
      </trkpt>
      <trkpt lat="48.59163" lon="2.13326">
        <ele>109</ele>
        <time>2025-10-25T11:55:19Z</time>
      </trkpt>
      <trkpt lat="48.59166" lon="2.13325">
        <ele>109.2</ele>
        <time>2025-10-25T11:55:21Z</time>
      </trkpt>
      <trkpt lat="48.59169" lon="2.13322">
        <ele>109.2</ele>
        <time>2025-10-25T11:55:23Z</time>
      </trkpt>
      <trkpt lat="48.59171" lon="2.13321">
        <ele>109.2</ele>
        <time>2025-10-25T11:55:24Z</time>
      </trkpt>
      <trkpt lat="48.59173" lon="2.13318">
        <ele>109</ele>
        <time>2025-10-25T11:55:26Z</time>
      </trkpt>
      <trkpt lat="48.59175" lon="2.13316">
        <ele>109</ele>
        <time>2025-10-25T11:55:28Z</time>
      </trkpt>
      <trkpt lat="48.59178" lon="2.13316">
        <ele>109.2</ele>
        <time>2025-10-25T11:55:30Z</time>
      </trkpt>
      <trkpt lat="48.5918" lon="2.13315">
        <ele>109</ele>
        <time>2025-10-25T11:55:32Z</time>
      </trkpt>
      <trkpt lat="48.59183" lon="2.13314">
        <ele>109</ele>
        <time>2025-10-25T11:55:34Z</time>
      </trkpt>
      <trkpt lat="48.59187" lon="2.13313">
        <ele>108.8</ele>
        <time>2025-10-25T11:55:36Z</time>
      </trkpt>
      <trkpt lat="48.5919" lon="2.13312">
        <ele>108.6</ele>
        <time>2025-10-25T11:55:38Z</time>
      </trkpt>
      <trkpt lat="48.59192" lon="2.13312">
        <ele>108.4</ele>
        <time>2025-10-25T11:55:40Z</time>
      </trkpt>
      <trkpt lat="48.59195" lon="2.13311">
        <ele>108.4</ele>
        <time>2025-10-25T11:55:42Z</time>
      </trkpt>
      <trkpt lat="48.59197" lon="2.1331">
        <ele>108</ele>
        <time>2025-10-25T11:55:44Z</time>
      </trkpt>
      <trkpt lat="48.59199" lon="2.13309">
        <ele>107.8</ele>
        <time>2025-10-25T11:55:46Z</time>
      </trkpt>
      <trkpt lat="48.59202" lon="2.13308">
        <ele>107.2</ele>
        <time>2025-10-25T11:55:49Z</time>
      </trkpt>
      <trkpt lat="48.59204" lon="2.13308">
        <ele>107</ele>
        <time>2025-10-25T11:55:51Z</time>
      </trkpt>
      <trkpt lat="48.59206" lon="2.13308">
        <ele>106.6</ele>
        <time>2025-10-25T11:55:53Z</time>
      </trkpt>
      <trkpt lat="48.59208" lon="2.13308">
        <ele>106.4</ele>
        <time>2025-10-25T11:55:55Z</time>
      </trkpt>
      <trkpt lat="48.5921" lon="2.13306">
        <ele>104.4</ele>
        <time>2025-10-25T11:56:10Z</time>
      </trkpt>
      <trkpt lat="48.59213" lon="2.13306">
        <ele>104.4</ele>
        <time>2025-10-25T11:56:12Z</time>
      </trkpt>
      <trkpt lat="48.59216" lon="2.13305">
        <ele>104.2</ele>
        <time>2025-10-25T11:56:14Z</time>
      </trkpt>
      <trkpt lat="48.59218" lon="2.13304">
        <ele>104.2</ele>
        <time>2025-10-25T11:56:16Z</time>
      </trkpt>
      <trkpt lat="48.59221" lon="2.13302">
        <ele>104</ele>
        <time>2025-10-25T11:56:18Z</time>
      </trkpt>
      <trkpt lat="48.59224" lon="2.13302">
        <ele>104</ele>
        <time>2025-10-25T11:56:20Z</time>
      </trkpt>
      <trkpt lat="48.59226" lon="2.13301">
        <ele>103.8</ele>
        <time>2025-10-25T11:56:22Z</time>
      </trkpt>
      <trkpt lat="48.59228" lon="2.13301">
        <ele>103.4</ele>
        <time>2025-10-25T11:56:24Z</time>
      </trkpt>
      <trkpt lat="48.5923" lon="2.13301">
        <ele>103.2</ele>
        <time>2025-10-25T11:56:26Z</time>
      </trkpt>
      <trkpt lat="48.59233" lon="2.133">
        <ele>102.8</ele>
        <time>2025-10-25T11:56:28Z</time>
      </trkpt>
      <trkpt lat="48.59236" lon="2.13299">
        <ele>102.6</ele>
        <time>2025-10-25T11:56:30Z</time>
      </trkpt>
      <trkpt lat="48.59239" lon="2.13298">
        <ele>102.2</ele>
        <time>2025-10-25T11:56:32Z</time>
      </trkpt>
      <trkpt lat="48.59242" lon="2.13297">
        <ele>102</ele>
        <time>2025-10-25T11:56:34Z</time>
      </trkpt>
      <trkpt lat="48.59245" lon="2.13296">
        <ele>101.6</ele>
        <time>2025-10-25T11:56:36Z</time>
      </trkpt>
      <trkpt lat="48.59247" lon="2.13296">
        <ele>101.6</ele>
        <time>2025-10-25T11:56:37Z</time>
      </trkpt>
      <trkpt lat="48.5925" lon="2.13295">
        <ele>101.4</ele>
        <time>2025-10-25T11:56:39Z</time>
      </trkpt>
      <trkpt lat="48.59253" lon="2.13294">
        <ele>101.2</ele>
        <time>2025-10-25T11:56:41Z</time>
      </trkpt>
      <trkpt lat="48.59256" lon="2.13293">
        <ele>101</ele>
        <time>2025-10-25T11:56:43Z</time>
      </trkpt>
      <trkpt lat="48.59258" lon="2.13292">
        <ele>100.8</ele>
        <time>2025-10-25T11:56:45Z</time>
      </trkpt>
      <trkpt lat="48.5926" lon="2.1329">
        <ele>100.4</ele>
        <time>2025-10-25T11:56:48Z</time>
      </trkpt>
      <trkpt lat="48.59263" lon="2.1329">
        <ele>100</ele>
        <time>2025-10-25T11:56:50Z</time>
      </trkpt>
      <trkpt lat="48.59265" lon="2.13289">
        <ele>99.8</ele>
        <time>2025-10-25T11:56:51Z</time>
      </trkpt>
      <trkpt lat="48.59267" lon="2.13289">
        <ele>99.6</ele>
        <time>2025-10-25T11:56:52Z</time>
      </trkpt>
      <trkpt lat="48.59269" lon="2.13289">
        <ele>99.4</ele>
        <time>2025-10-25T11:56:53Z</time>
      </trkpt>
      <trkpt lat="48.59271" lon="2.13288">
        <ele>99.2</ele>
        <time>2025-10-25T11:56:54Z</time>
      </trkpt>
      <trkpt lat="48.59274" lon="2.13287">
        <ele>98.8</ele>
        <time>2025-10-25T11:56:56Z</time>
      </trkpt>
      <trkpt lat="48.59277" lon="2.13286">
        <ele>98.4</ele>
        <time>2025-10-25T11:56:58Z</time>
      </trkpt>
      <trkpt lat="48.5928" lon="2.13285">
        <ele>98</ele>
        <time>2025-10-25T11:57:00Z</time>
      </trkpt>
      <trkpt lat="48.59283" lon="2.13284">
        <ele>97.6</ele>
        <time>2025-10-25T11:57:02Z</time>
      </trkpt>
      <trkpt lat="48.59286" lon="2.13284">
        <ele>97.4</ele>
        <time>2025-10-25T11:57:04Z</time>
      </trkpt>
      <trkpt lat="48.59289" lon="2.13283">
        <ele>97.2</ele>
        <time>2025-10-25T11:57:06Z</time>
      </trkpt>
      <trkpt lat="48.59292" lon="2.13282">
        <ele>97.2</ele>
        <time>2025-10-25T11:57:08Z</time>
      </trkpt>
      <trkpt lat="48.59294" lon="2.13281">
        <ele>97</ele>
        <time>2025-10-25T11:57:10Z</time>
      </trkpt>
      <trkpt lat="48.59296" lon="2.13281">
        <ele>96.8</ele>
        <time>2025-10-25T11:57:12Z</time>
      </trkpt>
      <trkpt lat="48.59299" lon="2.13281">
        <ele>96.8</ele>
        <time>2025-10-25T11:57:14Z</time>
      </trkpt>
      <trkpt lat="48.59301" lon="2.1328">
        <ele>96.8</ele>
        <time>2025-10-25T11:57:16Z</time>
      </trkpt>
      <trkpt lat="48.59304" lon="2.13279">
        <ele>96.6</ele>
        <time>2025-10-25T11:57:18Z</time>
      </trkpt>
      <trkpt lat="48.59307" lon="2.13278">
        <ele>96.4</ele>
        <time>2025-10-25T11:57:20Z</time>
      </trkpt>
      <trkpt lat="48.5931" lon="2.13278">
        <ele>96.2</ele>
        <time>2025-10-25T11:57:22Z</time>
      </trkpt>
      <trkpt lat="48.59313" lon="2.13276">
        <ele>96.4</ele>
        <time>2025-10-25T11:57:24Z</time>
      </trkpt>
      <trkpt lat="48.59315" lon="2.13275">
        <ele>96.4</ele>
        <time>2025-10-25T11:57:26Z</time>
      </trkpt>
      <trkpt lat="48.59317" lon="2.13275">
        <ele>96.4</ele>
        <time>2025-10-25T11:57:28Z</time>
      </trkpt>
      <trkpt lat="48.5932" lon="2.13274">
        <ele>96.4</ele>
        <time>2025-10-25T11:57:30Z</time>
      </trkpt>
      <trkpt lat="48.59324" lon="2.13274">
        <ele>96.4</ele>
        <time>2025-10-25T11:57:32Z</time>
      </trkpt>
      <trkpt lat="48.59326" lon="2.13274">
        <ele>96.2</ele>
        <time>2025-10-25T11:57:34Z</time>
      </trkpt>
      <trkpt lat="48.5933" lon="2.13273">
        <ele>96</ele>
        <time>2025-10-25T11:57:36Z</time>
      </trkpt>
      <trkpt lat="48.59332" lon="2.13273">
        <ele>95.8</ele>
        <time>2025-10-25T11:57:38Z</time>
      </trkpt>
      <trkpt lat="48.59335" lon="2.13272">
        <ele>95.6</ele>
        <time>2025-10-25T11:57:40Z</time>
      </trkpt>
      <trkpt lat="48.59338" lon="2.13271">
        <ele>95.4</ele>
        <time>2025-10-25T11:57:42Z</time>
      </trkpt>
      <trkpt lat="48.59341" lon="2.1327">
        <ele>95.2</ele>
        <time>2025-10-25T11:57:44Z</time>
      </trkpt>
      <trkpt lat="48.59343" lon="2.13269">
        <ele>95.2</ele>
        <time>2025-10-25T11:57:46Z</time>
      </trkpt>
      <trkpt lat="48.59346" lon="2.13268">
        <ele>95</ele>
        <time>2025-10-25T11:57:48Z</time>
      </trkpt>
      <trkpt lat="48.59348" lon="2.13267">
        <ele>95</ele>
        <time>2025-10-25T11:57:50Z</time>
      </trkpt>
      <trkpt lat="48.59351" lon="2.13266">
        <ele>95</ele>
        <time>2025-10-25T11:57:52Z</time>
      </trkpt>
      <trkpt lat="48.59353" lon="2.13265">
        <ele>95</ele>
        <time>2025-10-25T11:57:54Z</time>
      </trkpt>
      <trkpt lat="48.59357" lon="2.13264">
        <ele>95.2</ele>
        <time>2025-10-25T11:57:56Z</time>
      </trkpt>
      <trkpt lat="48.5936" lon="2.13263">
        <ele>95.2</ele>
        <time>2025-10-25T11:57:58Z</time>
      </trkpt>
      <trkpt lat="48.59364" lon="2.13262">
        <ele>95.4</ele>
        <time>2025-10-25T11:58:00Z</time>
      </trkpt>
      <trkpt lat="48.59367" lon="2.13261">
        <ele>95.4</ele>
        <time>2025-10-25T11:58:02Z</time>
      </trkpt>
      <trkpt lat="48.5937" lon="2.13261">
        <ele>95.4</ele>
        <time>2025-10-25T11:58:04Z</time>
      </trkpt>
      <trkpt lat="48.59372" lon="2.1326">
        <ele>95.4</ele>
        <time>2025-10-25T11:58:06Z</time>
      </trkpt>
      <trkpt lat="48.59375" lon="2.1326">
        <ele>95.4</ele>
        <time>2025-10-25T11:58:08Z</time>
      </trkpt>
      <trkpt lat="48.59378" lon="2.1326">
        <ele>95.4</ele>
        <time>2025-10-25T11:58:10Z</time>
      </trkpt>
      <trkpt lat="48.5938" lon="2.1326">
        <ele>95.4</ele>
        <time>2025-10-25T11:58:12Z</time>
      </trkpt>
      <trkpt lat="48.59383" lon="2.1326">
        <ele>95.4</ele>
        <time>2025-10-25T11:58:14Z</time>
      </trkpt>
      <trkpt lat="48.59385" lon="2.1326">
        <ele>95.4</ele>
        <time>2025-10-25T11:58:16Z</time>
      </trkpt>
      <trkpt lat="48.59387" lon="2.13259">
        <ele>95.2</ele>
        <time>2025-10-25T11:58:18Z</time>
      </trkpt>
      <trkpt lat="48.59389" lon="2.13259">
        <ele>95.2</ele>
        <time>2025-10-25T11:58:20Z</time>
      </trkpt>
      <trkpt lat="48.59392" lon="2.13259">
        <ele>95</ele>
        <time>2025-10-25T11:58:22Z</time>
      </trkpt>
      <trkpt lat="48.59395" lon="2.13258">
        <ele>94.8</ele>
        <time>2025-10-25T11:58:24Z</time>
      </trkpt>
      <trkpt lat="48.59398" lon="2.13258">
        <ele>94.6</ele>
        <time>2025-10-25T11:58:26Z</time>
      </trkpt>
      <trkpt lat="48.594" lon="2.13257">
        <ele>94.6</ele>
        <time>2025-10-25T11:58:28Z</time>
      </trkpt>
      <trkpt lat="48.59402" lon="2.13257">
        <ele>94.6</ele>
        <time>2025-10-25T11:58:30Z</time>
      </trkpt>
      <trkpt lat="48.59404" lon="2.13256">
        <ele>94.6</ele>
        <time>2025-10-25T11:58:32Z</time>
      </trkpt>
      <trkpt lat="48.59407" lon="2.13255">
        <ele>94.6</ele>
        <time>2025-10-25T11:58:34Z</time>
      </trkpt>
      <trkpt lat="48.59409" lon="2.13254">
        <ele>94.6</ele>
        <time>2025-10-25T11:58:36Z</time>
      </trkpt>
      <trkpt lat="48.59412" lon="2.13253">
        <ele>94.8</ele>
        <time>2025-10-25T11:58:38Z</time>
      </trkpt>
      <trkpt lat="48.59413" lon="2.13251">
        <ele>95</ele>
        <time>2025-10-25T11:58:40Z</time>
      </trkpt>
      <trkpt lat="48.59415" lon="2.13248">
        <ele>95.2</ele>
        <time>2025-10-25T11:58:42Z</time>
      </trkpt>
      <trkpt lat="48.59417" lon="2.13247">
        <ele>95.2</ele>
        <time>2025-10-25T11:58:44Z</time>
      </trkpt>
      <trkpt lat="48.59419" lon="2.13245">
        <ele>95.2</ele>
        <time>2025-10-25T11:58:46Z</time>
      </trkpt>
      <trkpt lat="48.5942" lon="2.13244">
        <ele>95.2</ele>
        <time>2025-10-25T11:58:48Z</time>
      </trkpt>
      <trkpt lat="48.59423" lon="2.13242">
        <ele>95.4</ele>
        <time>2025-10-25T11:58:50Z</time>
      </trkpt>
      <trkpt lat="48.59424" lon="2.1324">
        <ele>95.4</ele>
        <time>2025-10-25T11:58:51Z</time>
      </trkpt>
      <trkpt lat="48.59426" lon="2.13238">
        <ele>95.6</ele>
        <time>2025-10-25T11:58:52Z</time>
      </trkpt>
      <trkpt lat="48.59427" lon="2.13236">
        <ele>95.8</ele>
        <time>2025-10-25T11:58:53Z</time>
      </trkpt>
      <trkpt lat="48.59429" lon="2.13234">
        <ele>95.8</ele>
        <time>2025-10-25T11:58:54Z</time>
      </trkpt>
      <trkpt lat="48.5943" lon="2.13231">
        <ele>95.8</ele>
        <time>2025-10-25T11:58:55Z</time>
      </trkpt>
      <trkpt lat="48.59431" lon="2.13229">
        <ele>96</ele>
        <time>2025-10-25T11:58:56Z</time>
      </trkpt>
      <trkpt lat="48.59433" lon="2.13227">
        <ele>96</ele>
        <time>2025-10-25T11:58:57Z</time>
      </trkpt>
      <trkpt lat="48.59434" lon="2.13223">
        <ele>96</ele>
        <time>2025-10-25T11:58:59Z</time>
      </trkpt>
      <trkpt lat="48.59435" lon="2.13219">
        <ele>95.8</ele>
        <time>2025-10-25T11:59:01Z</time>
      </trkpt>
      <trkpt lat="48.59435" lon="2.13216">
        <ele>95.6</ele>
        <time>2025-10-25T11:59:03Z</time>
      </trkpt>
      <trkpt lat="48.59435" lon="2.13212">
        <ele>95.4</ele>
        <time>2025-10-25T11:59:05Z</time>
      </trkpt>
      <trkpt lat="48.59434" lon="2.13208">
        <ele>95.2</ele>
        <time>2025-10-25T11:59:07Z</time>
      </trkpt>
      <trkpt lat="48.59434" lon="2.13204">
        <ele>95</ele>
        <time>2025-10-25T11:59:09Z</time>
      </trkpt>
      <trkpt lat="48.59433" lon="2.132">
        <ele>94.8</ele>
        <time>2025-10-25T11:59:11Z</time>
      </trkpt>
      <trkpt lat="48.59433" lon="2.13197">
        <ele>94.6</ele>
        <time>2025-10-25T11:59:13Z</time>
      </trkpt>
      <trkpt lat="48.59433" lon="2.13192">
        <ele>94.4</ele>
        <time>2025-10-25T11:59:15Z</time>
      </trkpt>
      <trkpt lat="48.59433" lon="2.13187">
        <ele>94.2</ele>
        <time>2025-10-25T11:59:17Z</time>
      </trkpt>
      <trkpt lat="48.59433" lon="2.13184">
        <ele>94</ele>
        <time>2025-10-25T11:59:18Z</time>
      </trkpt>
      <trkpt lat="48.59433" lon="2.13181">
        <ele>94</ele>
        <time>2025-10-25T11:59:19Z</time>
      </trkpt>
      <trkpt lat="48.59432" lon="2.13178">
        <ele>93.8</ele>
        <time>2025-10-25T11:59:20Z</time>
      </trkpt>
      <trkpt lat="48.59432" lon="2.13173">
        <ele>93.6</ele>
        <time>2025-10-25T11:59:22Z</time>
      </trkpt>
      <trkpt lat="48.59431" lon="2.13169">
        <ele>93.4</ele>
        <time>2025-10-25T11:59:24Z</time>
      </trkpt>
      <trkpt lat="48.59431" lon="2.13165">
        <ele>93.2</ele>
        <time>2025-10-25T11:59:26Z</time>
      </trkpt>
      <trkpt lat="48.59431" lon="2.13161">
        <ele>93.2</ele>
        <time>2025-10-25T11:59:28Z</time>
      </trkpt>
      <trkpt lat="48.5943" lon="2.13157">
        <ele>92.8</ele>
        <time>2025-10-25T11:59:30Z</time>
      </trkpt>
      <trkpt lat="48.59429" lon="2.13152">
        <ele>92.6</ele>
        <time>2025-10-25T11:59:32Z</time>
      </trkpt>
      <trkpt lat="48.59429" lon="2.13148">
        <ele>92.2</ele>
        <time>2025-10-25T11:59:34Z</time>
      </trkpt>
      <trkpt lat="48.59428" lon="2.13144">
        <ele>92</ele>
        <time>2025-10-25T11:59:36Z</time>
      </trkpt>
      <trkpt lat="48.59428" lon="2.13139">
        <ele>91.8</ele>
        <time>2025-10-25T11:59:38Z</time>
      </trkpt>
      <trkpt lat="48.59427" lon="2.13135">
        <ele>91.2</ele>
        <time>2025-10-25T11:59:41Z</time>
      </trkpt>
      <trkpt lat="48.59426" lon="2.13132">
        <ele>90.2</ele>
        <time>2025-10-25T11:59:48Z</time>
      </trkpt>
      <trkpt lat="48.59427" lon="2.13128">
        <ele>82.6</ele>
        <time>2025-10-25T12:05:57Z</time>
      </trkpt>
      <trkpt lat="48.59427" lon="2.13125">
        <ele>82.6</ele>
        <time>2025-10-25T12:06:02Z</time>
      </trkpt>
      <trkpt lat="48.59426" lon="2.13122">
        <ele>82.4</ele>
        <time>2025-10-25T12:06:04Z</time>
      </trkpt>
      <trkpt lat="48.59425" lon="2.13118">
        <ele>82.4</ele>
        <time>2025-10-25T12:06:07Z</time>
      </trkpt>
      <trkpt lat="48.59424" lon="2.13115">
        <ele>82.2</ele>
        <time>2025-10-25T12:06:11Z</time>
      </trkpt>
      <trkpt lat="48.59424" lon="2.13113">
        <ele>82.2</ele>
        <time>2025-10-25T12:06:14Z</time>
      </trkpt>
      <trkpt lat="48.59423" lon="2.13109">
        <ele>82.2</ele>
        <time>2025-10-25T12:06:17Z</time>
      </trkpt>
      <trkpt lat="48.59422" lon="2.13106">
        <ele>82.2</ele>
        <time>2025-10-25T12:06:19Z</time>
      </trkpt>
      <trkpt lat="48.59421" lon="2.13104">
        <ele>82</ele>
        <time>2025-10-25T12:06:21Z</time>
      </trkpt>
      <trkpt lat="48.59421" lon="2.13099">
        <ele>82</ele>
        <time>2025-10-25T12:06:25Z</time>
      </trkpt>
      <trkpt lat="48.59421" lon="2.13095">
        <ele>82.6</ele>
        <time>2025-10-25T12:07:46Z</time>
      </trkpt>
      <trkpt lat="48.59421" lon="2.13091">
        <ele>82.6</ele>
        <time>2025-10-25T12:07:51Z</time>
      </trkpt>
      <trkpt lat="48.5942" lon="2.13087">
        <ele>82.6</ele>
        <time>2025-10-25T12:07:53Z</time>
      </trkpt>
      <trkpt lat="48.5942" lon="2.13082">
        <ele>82.6</ele>
        <time>2025-10-25T12:07:55Z</time>
      </trkpt>
      <trkpt lat="48.59419" lon="2.13077">
        <ele>82.4</ele>
        <time>2025-10-25T12:07:57Z</time>
      </trkpt>
      <trkpt lat="48.59418" lon="2.13072">
        <ele>82.4</ele>
        <time>2025-10-25T12:07:59Z</time>
      </trkpt>
      <trkpt lat="48.59417" lon="2.13068">
        <ele>82.4</ele>
        <time>2025-10-25T12:08:01Z</time>
      </trkpt>
      <trkpt lat="48.59417" lon="2.13064">
        <ele>82.4</ele>
        <time>2025-10-25T12:08:03Z</time>
      </trkpt>
      <trkpt lat="48.59417" lon="2.1306">
        <ele>82.6</ele>
        <time>2025-10-25T12:08:05Z</time>
      </trkpt>
      <trkpt lat="48.59416" lon="2.13056">
        <ele>82.4</ele>
        <time>2025-10-25T12:08:07Z</time>
      </trkpt>
      <trkpt lat="48.59415" lon="2.13053">
        <ele>82.2</ele>
        <time>2025-10-25T12:08:09Z</time>
      </trkpt>
      <trkpt lat="48.59415" lon="2.13049">
        <ele>82</ele>
        <time>2025-10-25T12:08:11Z</time>
      </trkpt>
      <trkpt lat="48.59414" lon="2.13045">
        <ele>82</ele>
        <time>2025-10-25T12:08:13Z</time>
      </trkpt>
      <trkpt lat="48.59413" lon="2.13042">
        <ele>81.8</ele>
        <time>2025-10-25T12:08:15Z</time>
      </trkpt>
      <trkpt lat="48.59413" lon="2.13038">
        <ele>81.6</ele>
        <time>2025-10-25T12:08:17Z</time>
      </trkpt>
      <trkpt lat="48.59413" lon="2.13033">
        <ele>81.6</ele>
        <time>2025-10-25T12:08:19Z</time>
      </trkpt>
      <trkpt lat="48.59412" lon="2.13029">
        <ele>81.4</ele>
        <time>2025-10-25T12:08:21Z</time>
      </trkpt>
      <trkpt lat="48.59412" lon="2.13026">
        <ele>81.2</ele>
        <time>2025-10-25T12:08:23Z</time>
      </trkpt>
      <trkpt lat="48.59412" lon="2.13022">
        <ele>81</ele>
        <time>2025-10-25T12:08:25Z</time>
      </trkpt>
      <trkpt lat="48.59412" lon="2.13018">
        <ele>81</ele>
        <time>2025-10-25T12:08:27Z</time>
      </trkpt>
      <trkpt lat="48.59411" lon="2.13014">
        <ele>80.8</ele>
        <time>2025-10-25T12:08:29Z</time>
      </trkpt>
      <trkpt lat="48.59411" lon="2.1301">
        <ele>80.6</ele>
        <time>2025-10-25T12:08:31Z</time>
      </trkpt>
      <trkpt lat="48.5941" lon="2.13006">
        <ele>80.6</ele>
        <time>2025-10-25T12:08:33Z</time>
      </trkpt>
      <trkpt lat="48.59409" lon="2.13002">
        <ele>80.4</ele>
        <time>2025-10-25T12:08:35Z</time>
      </trkpt>
      <trkpt lat="48.59409" lon="2.12997">
        <ele>80.2</ele>
        <time>2025-10-25T12:08:37Z</time>
      </trkpt>
      <trkpt lat="48.59408" lon="2.12993">
        <ele>80</ele>
        <time>2025-10-25T12:08:39Z</time>
      </trkpt>
      <trkpt lat="48.59408" lon="2.12989">
        <ele>80</ele>
        <time>2025-10-25T12:08:41Z</time>
      </trkpt>
      <trkpt lat="48.59407" lon="2.12985">
        <ele>79.8</ele>
        <time>2025-10-25T12:08:43Z</time>
      </trkpt>
      <trkpt lat="48.59407" lon="2.12982">
        <ele>79.8</ele>
        <time>2025-10-25T12:08:45Z</time>
      </trkpt>
      <trkpt lat="48.59407" lon="2.12979">
        <ele>79.6</ele>
        <time>2025-10-25T12:08:48Z</time>
      </trkpt>
      <trkpt lat="48.59406" lon="2.12976">
        <ele>79.4</ele>
        <time>2025-10-25T12:08:51Z</time>
      </trkpt>
      <trkpt lat="48.59405" lon="2.12973">
        <ele>79.2</ele>
        <time>2025-10-25T12:08:53Z</time>
      </trkpt>
      <trkpt lat="48.59405" lon="2.12969">
        <ele>79.2</ele>
        <time>2025-10-25T12:08:55Z</time>
      </trkpt>
      <trkpt lat="48.59404" lon="2.12965">
        <ele>79.2</ele>
        <time>2025-10-25T12:08:57Z</time>
      </trkpt>
      <trkpt lat="48.59403" lon="2.12962">
        <ele>79.4</ele>
        <time>2025-10-25T12:08:59Z</time>
      </trkpt>
      <trkpt lat="48.59402" lon="2.12958">
        <ele>79.6</ele>
        <time>2025-10-25T12:09:01Z</time>
      </trkpt>
      <trkpt lat="48.59401" lon="2.12954">
        <ele>79.6</ele>
        <time>2025-10-25T12:09:03Z</time>
      </trkpt>
      <trkpt lat="48.594" lon="2.1295">
        <ele>79.6</ele>
        <time>2025-10-25T12:09:05Z</time>
      </trkpt>
      <trkpt lat="48.59399" lon="2.12946">
        <ele>79.6</ele>
        <time>2025-10-25T12:09:07Z</time>
      </trkpt>
      <trkpt lat="48.59397" lon="2.12942">
        <ele>79.4</ele>
        <time>2025-10-25T12:09:09Z</time>
      </trkpt>
      <trkpt lat="48.59396" lon="2.12938">
        <ele>79.2</ele>
        <time>2025-10-25T12:09:11Z</time>
      </trkpt>
      <trkpt lat="48.59395" lon="2.12934">
        <ele>79.2</ele>
        <time>2025-10-25T12:09:13Z</time>
      </trkpt>
      <trkpt lat="48.59395" lon="2.1293">
        <ele>79</ele>
        <time>2025-10-25T12:09:15Z</time>
      </trkpt>
      <trkpt lat="48.59393" lon="2.12926">
        <ele>79</ele>
        <time>2025-10-25T12:09:17Z</time>
      </trkpt>
      <trkpt lat="48.59393" lon="2.12922">
        <ele>78.8</ele>
        <time>2025-10-25T12:09:19Z</time>
      </trkpt>
      <trkpt lat="48.59391" lon="2.12919">
        <ele>78.6</ele>
        <time>2025-10-25T12:09:21Z</time>
      </trkpt>
      <trkpt lat="48.5939" lon="2.12915">
        <ele>78.6</ele>
        <time>2025-10-25T12:09:23Z</time>
      </trkpt>
      <trkpt lat="48.59389" lon="2.1291">
        <ele>78.4</ele>
        <time>2025-10-25T12:09:25Z</time>
      </trkpt>
      <trkpt lat="48.59388" lon="2.12906">
        <ele>78.2</ele>
        <time>2025-10-25T12:09:27Z</time>
      </trkpt>
      <trkpt lat="48.59387" lon="2.12902">
        <ele>78.2</ele>
        <time>2025-10-25T12:09:29Z</time>
      </trkpt>
      <trkpt lat="48.59386" lon="2.12898">
        <ele>78</ele>
        <time>2025-10-25T12:09:31Z</time>
      </trkpt>
      <trkpt lat="48.59385" lon="2.12894">
        <ele>78</ele>
        <time>2025-10-25T12:09:33Z</time>
      </trkpt>
      <trkpt lat="48.59384" lon="2.1289">
        <ele>77.6</ele>
        <time>2025-10-25T12:09:35Z</time>
      </trkpt>
      <trkpt lat="48.59383" lon="2.12887">
        <ele>77.4</ele>
        <time>2025-10-25T12:09:37Z</time>
      </trkpt>
      <trkpt lat="48.59382" lon="2.12883">
        <ele>77</ele>
        <time>2025-10-25T12:09:39Z</time>
      </trkpt>
      <trkpt lat="48.59381" lon="2.12879">
        <ele>77</ele>
        <time>2025-10-25T12:09:41Z</time>
      </trkpt>
      <trkpt lat="48.59381" lon="2.12875">
        <ele>76.8</ele>
        <time>2025-10-25T12:09:43Z</time>
      </trkpt>
      <trkpt lat="48.5938" lon="2.12871">
        <ele>76.8</ele>
        <time>2025-10-25T12:09:45Z</time>
      </trkpt>
      <trkpt lat="48.59379" lon="2.12867">
        <ele>76.8</ele>
        <time>2025-10-25T12:09:47Z</time>
      </trkpt>
      <trkpt lat="48.59378" lon="2.12863">
        <ele>76.8</ele>
        <time>2025-10-25T12:09:49Z</time>
      </trkpt>
      <trkpt lat="48.59377" lon="2.12859">
        <ele>76.8</ele>
        <time>2025-10-25T12:09:51Z</time>
      </trkpt>
      <trkpt lat="48.59376" lon="2.12856">
        <ele>76.8</ele>
        <time>2025-10-25T12:09:53Z</time>
      </trkpt>
      <trkpt lat="48.59375" lon="2.12852">
        <ele>76.8</ele>
        <time>2025-10-25T12:09:55Z</time>
      </trkpt>
      <trkpt lat="48.59373" lon="2.12848">
        <ele>76.8</ele>
        <time>2025-10-25T12:09:57Z</time>
      </trkpt>
      <trkpt lat="48.59373" lon="2.12844">
        <ele>76.6</ele>
        <time>2025-10-25T12:09:59Z</time>
      </trkpt>
      <trkpt lat="48.59372" lon="2.1284">
        <ele>76.8</ele>
        <time>2025-10-25T12:10:01Z</time>
      </trkpt>
      <trkpt lat="48.59371" lon="2.12836">
        <ele>76.8</ele>
        <time>2025-10-25T12:10:03Z</time>
      </trkpt>
      <trkpt lat="48.59369" lon="2.12832">
        <ele>76.8</ele>
        <time>2025-10-25T12:10:05Z</time>
      </trkpt>
      <trkpt lat="48.59369" lon="2.12828">
        <ele>76.8</ele>
        <time>2025-10-25T12:10:07Z</time>
      </trkpt>
      <trkpt lat="48.59367" lon="2.12824">
        <ele>76.8</ele>
        <time>2025-10-25T12:10:09Z</time>
      </trkpt>
      <trkpt lat="48.59367" lon="2.1282">
        <ele>76.8</ele>
        <time>2025-10-25T12:10:11Z</time>
      </trkpt>
      <trkpt lat="48.59365" lon="2.12817">
        <ele>76.8</ele>
        <time>2025-10-25T12:10:13Z</time>
      </trkpt>
      <trkpt lat="48.59364" lon="2.12813">
        <ele>76.8</ele>
        <time>2025-10-25T12:10:15Z</time>
      </trkpt>
      <trkpt lat="48.59363" lon="2.12809">
        <ele>76.6</ele>
        <time>2025-10-25T12:10:17Z</time>
      </trkpt>
      <trkpt lat="48.59363" lon="2.12805">
        <ele>76.6</ele>
        <time>2025-10-25T12:10:19Z</time>
      </trkpt>
      <trkpt lat="48.59361" lon="2.12801">
        <ele>76.4</ele>
        <time>2025-10-25T12:10:21Z</time>
      </trkpt>
      <trkpt lat="48.59361" lon="2.12798">
        <ele>76.2</ele>
        <time>2025-10-25T12:10:23Z</time>
      </trkpt>
      <trkpt lat="48.59359" lon="2.12794">
        <ele>76</ele>
        <time>2025-10-25T12:10:25Z</time>
      </trkpt>
      <trkpt lat="48.59358" lon="2.1279">
        <ele>75.8</ele>
        <time>2025-10-25T12:10:27Z</time>
      </trkpt>
      <trkpt lat="48.59357" lon="2.12786">
        <ele>75.6</ele>
        <time>2025-10-25T12:10:29Z</time>
      </trkpt>
      <trkpt lat="48.59356" lon="2.12782">
        <ele>75.6</ele>
        <time>2025-10-25T12:10:31Z</time>
      </trkpt>
      <trkpt lat="48.59355" lon="2.12778">
        <ele>75.4</ele>
        <time>2025-10-25T12:10:33Z</time>
      </trkpt>
      <trkpt lat="48.59355" lon="2.12775">
        <ele>75.2</ele>
        <time>2025-10-25T12:10:35Z</time>
      </trkpt>
      <trkpt lat="48.59353" lon="2.12771">
        <ele>75.2</ele>
        <time>2025-10-25T12:10:37Z</time>
      </trkpt>
      <trkpt lat="48.59353" lon="2.12767">
        <ele>75.2</ele>
        <time>2025-10-25T12:10:39Z</time>
      </trkpt>
      <trkpt lat="48.59352" lon="2.12763">
        <ele>75.2</ele>
        <time>2025-10-25T12:10:41Z</time>
      </trkpt>
      <trkpt lat="48.59351" lon="2.12759">
        <ele>75.2</ele>
        <time>2025-10-25T12:10:43Z</time>
      </trkpt>
      <trkpt lat="48.59349" lon="2.12754">
        <ele>75.4</ele>
        <time>2025-10-25T12:10:45Z</time>
      </trkpt>
      <trkpt lat="48.59348" lon="2.1275">
        <ele>75.4</ele>
        <time>2025-10-25T12:10:47Z</time>
      </trkpt>
      <trkpt lat="48.59347" lon="2.12747">
        <ele>75.2</ele>
        <time>2025-10-25T12:10:49Z</time>
      </trkpt>
      <trkpt lat="48.59346" lon="2.12743">
        <ele>75.2</ele>
        <time>2025-10-25T12:10:51Z</time>
      </trkpt>
      <trkpt lat="48.59345" lon="2.12739">
        <ele>75</ele>
        <time>2025-10-25T12:10:53Z</time>
      </trkpt>
      <trkpt lat="48.59344" lon="2.12735">
        <ele>75</ele>
        <time>2025-10-25T12:10:55Z</time>
      </trkpt>
      <trkpt lat="48.59343" lon="2.12731">
        <ele>75</ele>
        <time>2025-10-25T12:10:57Z</time>
      </trkpt>
      <trkpt lat="48.59341" lon="2.12727">
        <ele>74.8</ele>
        <time>2025-10-25T12:10:59Z</time>
      </trkpt>
      <trkpt lat="48.5934" lon="2.12724">
        <ele>75</ele>
        <time>2025-10-25T12:11:01Z</time>
      </trkpt>
      <trkpt lat="48.59339" lon="2.12721">
        <ele>75.2</ele>
        <time>2025-10-25T12:11:03Z</time>
      </trkpt>
      <trkpt lat="48.59338" lon="2.12717">
        <ele>75.2</ele>
        <time>2025-10-25T12:11:05Z</time>
      </trkpt>
      <trkpt lat="48.59336" lon="2.12714">
        <ele>75.4</ele>
        <time>2025-10-25T12:11:07Z</time>
      </trkpt>
      <trkpt lat="48.59335" lon="2.1271">
        <ele>75.6</ele>
        <time>2025-10-25T12:11:09Z</time>
      </trkpt>
      <trkpt lat="48.59334" lon="2.12705">
        <ele>75.6</ele>
        <time>2025-10-25T12:11:11Z</time>
      </trkpt>
      <trkpt lat="48.59333" lon="2.12701">
        <ele>75.6</ele>
        <time>2025-10-25T12:11:13Z</time>
      </trkpt>
      <trkpt lat="48.59332" lon="2.12697">
        <ele>75.6</ele>
        <time>2025-10-25T12:11:15Z</time>
      </trkpt>
      <trkpt lat="48.59332" lon="2.12693">
        <ele>75.6</ele>
        <time>2025-10-25T12:11:17Z</time>
      </trkpt>
      <trkpt lat="48.5933" lon="2.1269">
        <ele>75.8</ele>
        <time>2025-10-25T12:11:19Z</time>
      </trkpt>
      <trkpt lat="48.59329" lon="2.12687">
        <ele>76</ele>
        <time>2025-10-25T12:11:21Z</time>
      </trkpt>
      <trkpt lat="48.59326" lon="2.12686">
        <ele>76.2</ele>
        <time>2025-10-25T12:11:23Z</time>
      </trkpt>
      <trkpt lat="48.59324" lon="2.12686">
        <ele>76.2</ele>
        <time>2025-10-25T12:11:25Z</time>
      </trkpt>
      <trkpt lat="48.59321" lon="2.12688">
        <ele>76.4</ele>
        <time>2025-10-25T12:11:27Z</time>
      </trkpt>
      <trkpt lat="48.59318" lon="2.1269">
        <ele>76.2</ele>
        <time>2025-10-25T12:11:29Z</time>
      </trkpt>
      <trkpt lat="48.59315" lon="2.12692">
        <ele>76.2</ele>
        <time>2025-10-25T12:11:31Z</time>
      </trkpt>
      <trkpt lat="48.59312" lon="2.12694">
        <ele>76.4</ele>
        <time>2025-10-25T12:11:33Z</time>
      </trkpt>
      <trkpt lat="48.59309" lon="2.12696">
        <ele>76.4</ele>
        <time>2025-10-25T12:11:35Z</time>
      </trkpt>
      <trkpt lat="48.59306" lon="2.12697">
        <ele>76.4</ele>
        <time>2025-10-25T12:11:37Z</time>
      </trkpt>
      <trkpt lat="48.59303" lon="2.12698">
        <ele>76.6</ele>
        <time>2025-10-25T12:11:39Z</time>
      </trkpt>
      <trkpt lat="48.593" lon="2.12698">
        <ele>76.8</ele>
        <time>2025-10-25T12:11:41Z</time>
      </trkpt>
      <trkpt lat="48.59298" lon="2.12698">
        <ele>77</ele>
        <time>2025-10-25T12:11:43Z</time>
      </trkpt>
      <trkpt lat="48.59295" lon="2.12697">
        <ele>77</ele>
        <time>2025-10-25T12:11:45Z</time>
      </trkpt>
      <trkpt lat="48.59292" lon="2.12696">
        <ele>77</ele>
        <time>2025-10-25T12:11:47Z</time>
      </trkpt>
      <trkpt lat="48.5929" lon="2.12695">
        <ele>77.2</ele>
        <time>2025-10-25T12:11:49Z</time>
      </trkpt>
      <trkpt lat="48.59286" lon="2.12695">
        <ele>77.4</ele>
        <time>2025-10-25T12:11:51Z</time>
      </trkpt>
      <trkpt lat="48.59284" lon="2.12695">
        <ele>77.4</ele>
        <time>2025-10-25T12:11:53Z</time>
      </trkpt>
      <trkpt lat="48.59282" lon="2.12694">
        <ele>77.2</ele>
        <time>2025-10-25T12:11:55Z</time>
      </trkpt>
      <trkpt lat="48.59278" lon="2.12694">
        <ele>77.2</ele>
        <time>2025-10-25T12:11:57Z</time>
      </trkpt>
      <trkpt lat="48.59276" lon="2.12693">
        <ele>77</ele>
        <time>2025-10-25T12:11:59Z</time>
      </trkpt>
      <trkpt lat="48.59272" lon="2.12692">
        <ele>77</ele>
        <time>2025-10-25T12:12:01Z</time>
      </trkpt>
      <trkpt lat="48.59269" lon="2.12692">
        <ele>76.8</ele>
        <time>2025-10-25T12:12:03Z</time>
      </trkpt>
      <trkpt lat="48.59267" lon="2.12692">
        <ele>76.8</ele>
        <time>2025-10-25T12:12:05Z</time>
      </trkpt>
      <trkpt lat="48.59264" lon="2.12691">
        <ele>76.6</ele>
        <time>2025-10-25T12:12:07Z</time>
      </trkpt>
      <trkpt lat="48.59261" lon="2.1269">
        <ele>76.4</ele>
        <time>2025-10-25T12:12:09Z</time>
      </trkpt>
      <trkpt lat="48.59259" lon="2.12688">
        <ele>76.4</ele>
        <time>2025-10-25T12:12:11Z</time>
      </trkpt>
      <trkpt lat="48.59256" lon="2.12686">
        <ele>76.4</ele>
        <time>2025-10-25T12:12:13Z</time>
      </trkpt>
      <trkpt lat="48.59253" lon="2.12683">
        <ele>76.6</ele>
        <time>2025-10-25T12:12:15Z</time>
      </trkpt>
      <trkpt lat="48.59251" lon="2.12681">
        <ele>76.6</ele>
        <time>2025-10-25T12:12:17Z</time>
      </trkpt>
      <trkpt lat="48.59249" lon="2.12678">
        <ele>76.8</ele>
        <time>2025-10-25T12:12:19Z</time>
      </trkpt>
      <trkpt lat="48.59247" lon="2.12675">
        <ele>76.6</ele>
        <time>2025-10-25T12:12:21Z</time>
      </trkpt>
      <trkpt lat="48.59245" lon="2.12673">
        <ele>76.6</ele>
        <time>2025-10-25T12:12:23Z</time>
      </trkpt>
      <trkpt lat="48.59244" lon="2.12671">
        <ele>76.6</ele>
        <time>2025-10-25T12:12:25Z</time>
      </trkpt>
      <trkpt lat="48.59242" lon="2.12668">
        <ele>76.6</ele>
        <time>2025-10-25T12:12:27Z</time>
      </trkpt>
      <trkpt lat="48.5924" lon="2.12666">
        <ele>76.6</ele>
        <time>2025-10-25T12:12:29Z</time>
      </trkpt>
      <trkpt lat="48.59239" lon="2.12663">
        <ele>76.6</ele>
        <time>2025-10-25T12:12:31Z</time>
      </trkpt>
      <trkpt lat="48.59237" lon="2.1266">
        <ele>76.8</ele>
        <time>2025-10-25T12:12:33Z</time>
      </trkpt>
      <trkpt lat="48.59236" lon="2.12656">
        <ele>76.8</ele>
        <time>2025-10-25T12:12:35Z</time>
      </trkpt>
      <trkpt lat="48.59234" lon="2.12652">
        <ele>77</ele>
        <time>2025-10-25T12:12:37Z</time>
      </trkpt>
      <trkpt lat="48.59232" lon="2.12648">
        <ele>77</ele>
        <time>2025-10-25T12:12:39Z</time>
      </trkpt>
      <trkpt lat="48.5923" lon="2.12644">
        <ele>77.2</ele>
        <time>2025-10-25T12:12:41Z</time>
      </trkpt>
      <trkpt lat="48.59228" lon="2.1264">
        <ele>77.4</ele>
        <time>2025-10-25T12:12:43Z</time>
      </trkpt>
      <trkpt lat="48.59227" lon="2.12637">
        <ele>77.4</ele>
        <time>2025-10-25T12:12:45Z</time>
      </trkpt>
      <trkpt lat="48.59226" lon="2.12634">
        <ele>77.4</ele>
        <time>2025-10-25T12:12:47Z</time>
      </trkpt>
      <trkpt lat="48.59224" lon="2.12631">
        <ele>77.6</ele>
        <time>2025-10-25T12:12:49Z</time>
      </trkpt>
      <trkpt lat="48.59222" lon="2.12629">
        <ele>78</ele>
        <time>2025-10-25T12:12:53Z</time>
      </trkpt>
      <trkpt lat="48.59221" lon="2.12626">
        <ele>79.8</ele>
        <time>2025-10-25T12:13:23Z</time>
      </trkpt>
      <trkpt lat="48.59219" lon="2.12619">
        <ele>79.8</ele>
        <time>2025-10-25T12:13:31Z</time>
      </trkpt>
      <trkpt lat="48.59218" lon="2.12616">
        <ele>79.6</ele>
        <time>2025-10-25T12:13:33Z</time>
      </trkpt>
      <trkpt lat="48.59217" lon="2.12613">
        <ele>79.6</ele>
        <time>2025-10-25T12:13:35Z</time>
      </trkpt>
      <trkpt lat="48.59216" lon="2.12609">
        <ele>79.2</ele>
        <time>2025-10-25T12:13:38Z</time>
      </trkpt>
      <trkpt lat="48.59215" lon="2.12606">
        <ele>79</ele>
        <time>2025-10-25T12:13:44Z</time>
      </trkpt>
      <trkpt lat="48.59214" lon="2.12603">
        <ele>79</ele>
        <time>2025-10-25T12:13:48Z</time>
      </trkpt>
      <trkpt lat="48.59213" lon="2.126">
        <ele>79.4</ele>
        <time>2025-10-25T12:13:53Z</time>
      </trkpt>
      <trkpt lat="48.59212" lon="2.12596">
        <ele>79.8</ele>
        <time>2025-10-25T12:13:59Z</time>
      </trkpt>
      <trkpt lat="48.59212" lon="2.12594">
        <ele>80</ele>
        <time>2025-10-25T12:14:08Z</time>
      </trkpt>
      <trkpt lat="48.59214" lon="2.12597">
        <ele>79.4</ele>
        <time>2025-10-25T12:14:40Z</time>
      </trkpt>
      <trkpt lat="48.59216" lon="2.12601">
        <ele>79.2</ele>
        <time>2025-10-25T12:14:42Z</time>
      </trkpt>
      <trkpt lat="48.59217" lon="2.12604">
        <ele>79.2</ele>
        <time>2025-10-25T12:14:43Z</time>
      </trkpt>
      <trkpt lat="48.59218" lon="2.12606">
        <ele>79.2</ele>
        <time>2025-10-25T12:14:44Z</time>
      </trkpt>
      <trkpt lat="48.59219" lon="2.12609">
        <ele>79</ele>
        <time>2025-10-25T12:14:45Z</time>
      </trkpt>
      <trkpt lat="48.5922" lon="2.12611">
        <ele>79</ele>
        <time>2025-10-25T12:14:46Z</time>
      </trkpt>
      <trkpt lat="48.59221" lon="2.12615">
        <ele>79</ele>
        <time>2025-10-25T12:14:48Z</time>
      </trkpt>
      <trkpt lat="48.59221" lon="2.12619">
        <ele>78.6</ele>
        <time>2025-10-25T12:14:51Z</time>
      </trkpt>
      <trkpt lat="48.59219" lon="2.12617">
        <ele>78.6</ele>
        <time>2025-10-25T12:15:05Z</time>
      </trkpt>
      <trkpt lat="48.59218" lon="2.12613">
        <ele>78.6</ele>
        <time>2025-10-25T12:15:07Z</time>
      </trkpt>
      <trkpt lat="48.59216" lon="2.1261">
        <ele>78.4</ele>
        <time>2025-10-25T12:15:09Z</time>
      </trkpt>
      <trkpt lat="48.59215" lon="2.12606">
        <ele>78.4</ele>
        <time>2025-10-25T12:15:11Z</time>
      </trkpt>
      <trkpt lat="48.59214" lon="2.12603">
        <ele>78.4</ele>
        <time>2025-10-25T12:15:13Z</time>
      </trkpt>
      <trkpt lat="48.59212" lon="2.12599">
        <ele>78.4</ele>
        <time>2025-10-25T12:15:15Z</time>
      </trkpt>
      <trkpt lat="48.59211" lon="2.12596">
        <ele>78.4</ele>
        <time>2025-10-25T12:15:17Z</time>
      </trkpt>
      <trkpt lat="48.5921" lon="2.12593">
        <ele>78.2</ele>
        <time>2025-10-25T12:15:19Z</time>
      </trkpt>
      <trkpt lat="48.5921" lon="2.1259">
        <ele>78</ele>
        <time>2025-10-25T12:15:21Z</time>
      </trkpt>
      <trkpt lat="48.59208" lon="2.12586">
        <ele>77.6</ele>
        <time>2025-10-25T12:15:23Z</time>
      </trkpt>
      <trkpt lat="48.59207" lon="2.12583">
        <ele>77.6</ele>
        <time>2025-10-25T12:15:25Z</time>
      </trkpt>
      <trkpt lat="48.59206" lon="2.12579">
        <ele>77.4</ele>
        <time>2025-10-25T12:15:27Z</time>
      </trkpt>
      <trkpt lat="48.59204" lon="2.12576">
        <ele>77.4</ele>
        <time>2025-10-25T12:15:29Z</time>
      </trkpt>
      <trkpt lat="48.59203" lon="2.12573">
        <ele>77.2</ele>
        <time>2025-10-25T12:15:31Z</time>
      </trkpt>
      <trkpt lat="48.59201" lon="2.1257">
        <ele>77.2</ele>
        <time>2025-10-25T12:15:33Z</time>
      </trkpt>
      <trkpt lat="48.59201" lon="2.12567">
        <ele>77.2</ele>
        <time>2025-10-25T12:15:35Z</time>
      </trkpt>
      <trkpt lat="48.592" lon="2.12564">
        <ele>77</ele>
        <time>2025-10-25T12:15:37Z</time>
      </trkpt>
      <trkpt lat="48.59198" lon="2.12561">
        <ele>77</ele>
        <time>2025-10-25T12:15:39Z</time>
      </trkpt>
      <trkpt lat="48.59197" lon="2.12557">
        <ele>76.8</ele>
        <time>2025-10-25T12:15:41Z</time>
      </trkpt>
      <trkpt lat="48.59196" lon="2.12553">
        <ele>76.6</ele>
        <time>2025-10-25T12:15:43Z</time>
      </trkpt>
      <trkpt lat="48.59195" lon="2.1255">
        <ele>76.6</ele>
        <time>2025-10-25T12:15:45Z</time>
      </trkpt>
      <trkpt lat="48.59193" lon="2.12546">
        <ele>76.6</ele>
        <time>2025-10-25T12:15:47Z</time>
      </trkpt>
      <trkpt lat="48.59192" lon="2.12543">
        <ele>76.6</ele>
        <time>2025-10-25T12:15:49Z</time>
      </trkpt>
      <trkpt lat="48.59191" lon="2.1254">
        <ele>76.6</ele>
        <time>2025-10-25T12:15:51Z</time>
      </trkpt>
      <trkpt lat="48.5919" lon="2.12537">
        <ele>76.8</ele>
        <time>2025-10-25T12:15:53Z</time>
      </trkpt>
      <trkpt lat="48.59189" lon="2.12534">
        <ele>76.8</ele>
        <time>2025-10-25T12:15:55Z</time>
      </trkpt>
      <trkpt lat="48.59188" lon="2.12531">
        <ele>77</ele>
        <time>2025-10-25T12:15:57Z</time>
      </trkpt>
      <trkpt lat="48.59187" lon="2.12527">
        <ele>77</ele>
        <time>2025-10-25T12:15:59Z</time>
      </trkpt>
      <trkpt lat="48.59186" lon="2.12524">
        <ele>77.2</ele>
        <time>2025-10-25T12:16:01Z</time>
      </trkpt>
      <trkpt lat="48.59185" lon="2.12521">
        <ele>77.4</ele>
        <time>2025-10-25T12:16:03Z</time>
      </trkpt>
      <trkpt lat="48.59184" lon="2.12519">
        <ele>77.6</ele>
        <time>2025-10-25T12:16:05Z</time>
      </trkpt>
      <trkpt lat="48.59183" lon="2.12516">
        <ele>77.6</ele>
        <time>2025-10-25T12:16:07Z</time>
      </trkpt>
      <trkpt lat="48.59183" lon="2.12513">
        <ele>77.8</ele>
        <time>2025-10-25T12:16:09Z</time>
      </trkpt>
      <trkpt lat="48.59182" lon="2.1251">
        <ele>77.8</ele>
        <time>2025-10-25T12:16:11Z</time>
      </trkpt>
      <trkpt lat="48.5918" lon="2.12506">
        <ele>77.8</ele>
        <time>2025-10-25T12:16:13Z</time>
      </trkpt>
      <trkpt lat="48.59179" lon="2.12502">
        <ele>78</ele>
        <time>2025-10-25T12:16:15Z</time>
      </trkpt>
      <trkpt lat="48.59177" lon="2.12498">
        <ele>78</ele>
        <time>2025-10-25T12:16:17Z</time>
      </trkpt>
      <trkpt lat="48.59177" lon="2.12495">
        <ele>78.2</ele>
        <time>2025-10-25T12:16:19Z</time>
      </trkpt>
      <trkpt lat="48.59175" lon="2.12492">
        <ele>78.4</ele>
        <time>2025-10-25T12:16:21Z</time>
      </trkpt>
      <trkpt lat="48.59173" lon="2.12488">
        <ele>78.2</ele>
        <time>2025-10-25T12:16:23Z</time>
      </trkpt>
      <trkpt lat="48.59171" lon="2.12483">
        <ele>78.2</ele>
        <time>2025-10-25T12:16:25Z</time>
      </trkpt>
      <trkpt lat="48.5917" lon="2.1248">
        <ele>78.2</ele>
        <time>2025-10-25T12:16:27Z</time>
      </trkpt>
      <trkpt lat="48.59169" lon="2.12476">
        <ele>78</ele>
        <time>2025-10-25T12:16:29Z</time>
      </trkpt>
      <trkpt lat="48.59168" lon="2.12472">
        <ele>77.8</ele>
        <time>2025-10-25T12:16:31Z</time>
      </trkpt>
      <trkpt lat="48.59167" lon="2.12468">
        <ele>77.6</ele>
        <time>2025-10-25T12:16:33Z</time>
      </trkpt>
      <trkpt lat="48.59166" lon="2.12464">
        <ele>77.4</ele>
        <time>2025-10-25T12:16:35Z</time>
      </trkpt>
      <trkpt lat="48.59165" lon="2.12461">
        <ele>77.2</ele>
        <time>2025-10-25T12:16:37Z</time>
      </trkpt>
      <trkpt lat="48.59164" lon="2.12458">
        <ele>77</ele>
        <time>2025-10-25T12:16:39Z</time>
      </trkpt>
      <trkpt lat="48.59164" lon="2.12454">
        <ele>77</ele>
        <time>2025-10-25T12:16:41Z</time>
      </trkpt>
      <trkpt lat="48.59163" lon="2.1245">
        <ele>76.8</ele>
        <time>2025-10-25T12:16:43Z</time>
      </trkpt>
      <trkpt lat="48.59163" lon="2.12445">
        <ele>76.8</ele>
        <time>2025-10-25T12:16:45Z</time>
      </trkpt>
      <trkpt lat="48.59162" lon="2.1244">
        <ele>77</ele>
        <time>2025-10-25T12:16:47Z</time>
      </trkpt>
      <trkpt lat="48.59161" lon="2.12435">
        <ele>77</ele>
        <time>2025-10-25T12:16:49Z</time>
      </trkpt>
      <trkpt lat="48.59161" lon="2.12432">
        <ele>77</ele>
        <time>2025-10-25T12:16:51Z</time>
      </trkpt>
      <trkpt lat="48.59161" lon="2.12428">
        <ele>77.2</ele>
        <time>2025-10-25T12:16:53Z</time>
      </trkpt>
      <trkpt lat="48.5916" lon="2.12424">
        <ele>77.2</ele>
        <time>2025-10-25T12:16:55Z</time>
      </trkpt>
      <trkpt lat="48.59159" lon="2.12419">
        <ele>77.4</ele>
        <time>2025-10-25T12:16:57Z</time>
      </trkpt>
      <trkpt lat="48.59159" lon="2.12415">
        <ele>77.4</ele>
        <time>2025-10-25T12:16:59Z</time>
      </trkpt>
      <trkpt lat="48.59158" lon="2.12411">
        <ele>77.4</ele>
        <time>2025-10-25T12:17:01Z</time>
      </trkpt>
      <trkpt lat="48.59158" lon="2.12407">
        <ele>77.4</ele>
        <time>2025-10-25T12:17:03Z</time>
      </trkpt>
      <trkpt lat="48.59158" lon="2.12403">
        <ele>77.4</ele>
        <time>2025-10-25T12:17:05Z</time>
      </trkpt>
      <trkpt lat="48.59157" lon="2.12399">
        <ele>77.4</ele>
        <time>2025-10-25T12:17:07Z</time>
      </trkpt>
      <trkpt lat="48.59157" lon="2.12395">
        <ele>77.4</ele>
        <time>2025-10-25T12:17:09Z</time>
      </trkpt>
      <trkpt lat="48.59157" lon="2.12392">
        <ele>77.2</ele>
        <time>2025-10-25T12:17:11Z</time>
      </trkpt>
      <trkpt lat="48.59156" lon="2.12388">
        <ele>77.4</ele>
        <time>2025-10-25T12:17:13Z</time>
      </trkpt>
      <trkpt lat="48.59156" lon="2.12384">
        <ele>77.2</ele>
        <time>2025-10-25T12:17:15Z</time>
      </trkpt>
      <trkpt lat="48.59155" lon="2.12379">
        <ele>77.2</ele>
        <time>2025-10-25T12:17:17Z</time>
      </trkpt>
      <trkpt lat="48.59154" lon="2.12374">
        <ele>77</ele>
        <time>2025-10-25T12:17:19Z</time>
      </trkpt>
      <trkpt lat="48.59153" lon="2.1237">
        <ele>76.8</ele>
        <time>2025-10-25T12:17:21Z</time>
      </trkpt>
      <trkpt lat="48.59152" lon="2.12366">
        <ele>76.8</ele>
        <time>2025-10-25T12:17:23Z</time>
      </trkpt>
      <trkpt lat="48.59151" lon="2.12361">
        <ele>76.6</ele>
        <time>2025-10-25T12:17:25Z</time>
      </trkpt>
      <trkpt lat="48.59151" lon="2.12356">
        <ele>76.6</ele>
        <time>2025-10-25T12:17:27Z</time>
      </trkpt>
      <trkpt lat="48.59151" lon="2.12352">
        <ele>76.6</ele>
        <time>2025-10-25T12:17:29Z</time>
      </trkpt>
      <trkpt lat="48.5915" lon="2.12348">
        <ele>76.6</ele>
        <time>2025-10-25T12:17:31Z</time>
      </trkpt>
      <trkpt lat="48.59149" lon="2.12344">
        <ele>76.4</ele>
        <time>2025-10-25T12:17:33Z</time>
      </trkpt>
      <trkpt lat="48.59149" lon="2.1234">
        <ele>76.2</ele>
        <time>2025-10-25T12:17:35Z</time>
      </trkpt>
      <trkpt lat="48.59148" lon="2.12337">
        <ele>76.2</ele>
        <time>2025-10-25T12:17:37Z</time>
      </trkpt>
      <trkpt lat="48.59147" lon="2.12333">
        <ele>76.2</ele>
        <time>2025-10-25T12:17:39Z</time>
      </trkpt>
      <trkpt lat="48.59146" lon="2.12329">
        <ele>76.4</ele>
        <time>2025-10-25T12:17:41Z</time>
      </trkpt>
      <trkpt lat="48.59145" lon="2.12326">
        <ele>76.4</ele>
        <time>2025-10-25T12:17:43Z</time>
      </trkpt>
      <trkpt lat="48.59144" lon="2.12322">
        <ele>76.4</ele>
        <time>2025-10-25T12:17:45Z</time>
      </trkpt>
      <trkpt lat="48.59143" lon="2.12318">
        <ele>76.2</ele>
        <time>2025-10-25T12:17:47Z</time>
      </trkpt>
      <trkpt lat="48.59143" lon="2.12314">
        <ele>76</ele>
        <time>2025-10-25T12:17:49Z</time>
      </trkpt>
      <trkpt lat="48.59141" lon="2.12311">
        <ele>75.8</ele>
        <time>2025-10-25T12:17:51Z</time>
      </trkpt>
      <trkpt lat="48.59141" lon="2.12308">
        <ele>75.6</ele>
        <time>2025-10-25T12:17:53Z</time>
      </trkpt>
      <trkpt lat="48.5914" lon="2.12305">
        <ele>75.4</ele>
        <time>2025-10-25T12:17:55Z</time>
      </trkpt>
      <trkpt lat="48.59139" lon="2.12302">
        <ele>75.4</ele>
        <time>2025-10-25T12:17:57Z</time>
      </trkpt>
      <trkpt lat="48.59139" lon="2.12298">
        <ele>75.4</ele>
        <time>2025-10-25T12:17:59Z</time>
      </trkpt>
      <trkpt lat="48.59138" lon="2.12294">
        <ele>75.4</ele>
        <time>2025-10-25T12:18:01Z</time>
      </trkpt>
      <trkpt lat="48.59137" lon="2.1229">
        <ele>75.4</ele>
        <time>2025-10-25T12:18:03Z</time>
      </trkpt>
      <trkpt lat="48.59137" lon="2.12286">
        <ele>75.6</ele>
        <time>2025-10-25T12:18:05Z</time>
      </trkpt>
      <trkpt lat="48.59136" lon="2.12282">
        <ele>75.6</ele>
        <time>2025-10-25T12:18:07Z</time>
      </trkpt>
      <trkpt lat="48.59135" lon="2.12277">
        <ele>75.8</ele>
        <time>2025-10-25T12:18:09Z</time>
      </trkpt>
      <trkpt lat="48.59134" lon="2.12273">
        <ele>75.8</ele>
        <time>2025-10-25T12:18:11Z</time>
      </trkpt>
      <trkpt lat="48.59133" lon="2.1227">
        <ele>75.8</ele>
        <time>2025-10-25T12:18:13Z</time>
      </trkpt>
      <trkpt lat="48.59132" lon="2.12266">
        <ele>75.8</ele>
        <time>2025-10-25T12:18:15Z</time>
      </trkpt>
      <trkpt lat="48.59132" lon="2.12263">
        <ele>75.8</ele>
        <time>2025-10-25T12:18:17Z</time>
      </trkpt>
      <trkpt lat="48.59131" lon="2.1226">
        <ele>75.8</ele>
        <time>2025-10-25T12:18:19Z</time>
      </trkpt>
      <trkpt lat="48.5913" lon="2.12257">
        <ele>75.8</ele>
        <time>2025-10-25T12:18:21Z</time>
      </trkpt>
      <trkpt lat="48.59129" lon="2.12254">
        <ele>76</ele>
        <time>2025-10-25T12:18:23Z</time>
      </trkpt>
      <trkpt lat="48.59128" lon="2.12249">
        <ele>76</ele>
        <time>2025-10-25T12:18:25Z</time>
      </trkpt>
      <trkpt lat="48.59126" lon="2.12245">
        <ele>76</ele>
        <time>2025-10-25T12:18:27Z</time>
      </trkpt>
      <trkpt lat="48.59125" lon="2.1224">
        <ele>75.8</ele>
        <time>2025-10-25T12:18:29Z</time>
      </trkpt>
      <trkpt lat="48.59124" lon="2.12236">
        <ele>75.8</ele>
        <time>2025-10-25T12:18:31Z</time>
      </trkpt>
      <trkpt lat="48.59123" lon="2.12232">
        <ele>76</ele>
        <time>2025-10-25T12:18:33Z</time>
      </trkpt>
      <trkpt lat="48.59123" lon="2.12228">
        <ele>76</ele>
        <time>2025-10-25T12:18:35Z</time>
      </trkpt>
      <trkpt lat="48.59121" lon="2.12224">
        <ele>76</ele>
        <time>2025-10-25T12:18:37Z</time>
      </trkpt>
      <trkpt lat="48.5912" lon="2.1222">
        <ele>76.2</ele>
        <time>2025-10-25T12:18:39Z</time>
      </trkpt>
      <trkpt lat="48.59119" lon="2.12215">
        <ele>76.4</ele>
        <time>2025-10-25T12:18:41Z</time>
      </trkpt>
      <trkpt lat="48.59119" lon="2.12211">
        <ele>76.4</ele>
        <time>2025-10-25T12:18:43Z</time>
      </trkpt>
      <trkpt lat="48.59119" lon="2.12207">
        <ele>76.6</ele>
        <time>2025-10-25T12:18:45Z</time>
      </trkpt>
      <trkpt lat="48.59119" lon="2.12203">
        <ele>76.6</ele>
        <time>2025-10-25T12:18:47Z</time>
      </trkpt>
      <trkpt lat="48.5912" lon="2.122">
        <ele>76.6</ele>
        <time>2025-10-25T12:18:49Z</time>
      </trkpt>
      <trkpt lat="48.59121" lon="2.12196">
        <ele>76.6</ele>
        <time>2025-10-25T12:18:51Z</time>
      </trkpt>
      <trkpt lat="48.59122" lon="2.12191">
        <ele>76.6</ele>
        <time>2025-10-25T12:18:53Z</time>
      </trkpt>
      <trkpt lat="48.59123" lon="2.12186">
        <ele>76.6</ele>
        <time>2025-10-25T12:18:55Z</time>
      </trkpt>
      <trkpt lat="48.59125" lon="2.12183">
        <ele>76.8</ele>
        <time>2025-10-25T12:18:57Z</time>
      </trkpt>
      <trkpt lat="48.59127" lon="2.12179">
        <ele>76.8</ele>
        <time>2025-10-25T12:18:59Z</time>
      </trkpt>
      <trkpt lat="48.59129" lon="2.12175">
        <ele>77</ele>
        <time>2025-10-25T12:19:01Z</time>
      </trkpt>
      <trkpt lat="48.59131" lon="2.12171">
        <ele>77.2</ele>
        <time>2025-10-25T12:19:03Z</time>
      </trkpt>
      <trkpt lat="48.59133" lon="2.12167">
        <ele>77.2</ele>
        <time>2025-10-25T12:19:05Z</time>
      </trkpt>
      <trkpt lat="48.59135" lon="2.12164">
        <ele>77.2</ele>
        <time>2025-10-25T12:19:07Z</time>
      </trkpt>
      <trkpt lat="48.59137" lon="2.12161">
        <ele>77.2</ele>
        <time>2025-10-25T12:19:09Z</time>
      </trkpt>
      <trkpt lat="48.59139" lon="2.12159">
        <ele>77.2</ele>
        <time>2025-10-25T12:19:11Z</time>
      </trkpt>
      <trkpt lat="48.59141" lon="2.12156">
        <ele>77</ele>
        <time>2025-10-25T12:19:13Z</time>
      </trkpt>
      <trkpt lat="48.59143" lon="2.12153">
        <ele>76.8</ele>
        <time>2025-10-25T12:19:15Z</time>
      </trkpt>
      <trkpt lat="48.59146" lon="2.1215">
        <ele>76.4</ele>
        <time>2025-10-25T12:19:17Z</time>
      </trkpt>
      <trkpt lat="48.59148" lon="2.12146">
        <ele>76.2</ele>
        <time>2025-10-25T12:19:19Z</time>
      </trkpt>
      <trkpt lat="48.5915" lon="2.12144">
        <ele>76</ele>
        <time>2025-10-25T12:19:21Z</time>
      </trkpt>
      <trkpt lat="48.59153" lon="2.12141">
        <ele>75.8</ele>
        <time>2025-10-25T12:19:23Z</time>
      </trkpt>
      <trkpt lat="48.59155" lon="2.12139">
        <ele>75.6</ele>
        <time>2025-10-25T12:19:25Z</time>
      </trkpt>
      <trkpt lat="48.59157" lon="2.12137">
        <ele>75.4</ele>
        <time>2025-10-25T12:19:26Z</time>
      </trkpt>
      <trkpt lat="48.59159" lon="2.12135">
        <ele>75.4</ele>
        <time>2025-10-25T12:19:28Z</time>
      </trkpt>
      <trkpt lat="48.59161" lon="2.12132">
        <ele>75.2</ele>
        <time>2025-10-25T12:19:30Z</time>
      </trkpt>
      <trkpt lat="48.59163" lon="2.12129">
        <ele>75</ele>
        <time>2025-10-25T12:19:32Z</time>
      </trkpt>
      <trkpt lat="48.59165" lon="2.12126">
        <ele>75</ele>
        <time>2025-10-25T12:19:34Z</time>
      </trkpt>
      <trkpt lat="48.59167" lon="2.12124">
        <ele>74.8</ele>
        <time>2025-10-25T12:19:36Z</time>
      </trkpt>
      <trkpt lat="48.5917" lon="2.12121">
        <ele>74.6</ele>
        <time>2025-10-25T12:19:38Z</time>
      </trkpt>
      <trkpt lat="48.59172" lon="2.12118">
        <ele>74.4</ele>
        <time>2025-10-25T12:19:40Z</time>
      </trkpt>
      <trkpt lat="48.59174" lon="2.12115">
        <ele>74.2</ele>
        <time>2025-10-25T12:19:42Z</time>
      </trkpt>
      <trkpt lat="48.59176" lon="2.12112">
        <ele>74</ele>
        <time>2025-10-25T12:19:44Z</time>
      </trkpt>
      <trkpt lat="48.59178" lon="2.12109">
        <ele>74</ele>
        <time>2025-10-25T12:19:46Z</time>
      </trkpt>
      <trkpt lat="48.5918" lon="2.12106">
        <ele>73.8</ele>
        <time>2025-10-25T12:19:48Z</time>
      </trkpt>
      <trkpt lat="48.59182" lon="2.12103">
        <ele>73.6</ele>
        <time>2025-10-25T12:19:50Z</time>
      </trkpt>
      <trkpt lat="48.59184" lon="2.121">
        <ele>73.6</ele>
        <time>2025-10-25T12:19:52Z</time>
      </trkpt>
      <trkpt lat="48.59186" lon="2.12097">
        <ele>73.4</ele>
        <time>2025-10-25T12:19:54Z</time>
      </trkpt>
      <trkpt lat="48.59188" lon="2.12094">
        <ele>73.4</ele>
        <time>2025-10-25T12:19:56Z</time>
      </trkpt>
      <trkpt lat="48.5919" lon="2.12092">
        <ele>73.2</ele>
        <time>2025-10-25T12:19:58Z</time>
      </trkpt>
      <trkpt lat="48.59192" lon="2.12089">
        <ele>73.2</ele>
        <time>2025-10-25T12:20:00Z</time>
      </trkpt>
      <trkpt lat="48.59194" lon="2.12086">
        <ele>73</ele>
        <time>2025-10-25T12:20:02Z</time>
      </trkpt>
      <trkpt lat="48.59196" lon="2.12084">
        <ele>73</ele>
        <time>2025-10-25T12:20:04Z</time>
      </trkpt>
      <trkpt lat="48.59199" lon="2.12082">
        <ele>72.8</ele>
        <time>2025-10-25T12:20:06Z</time>
      </trkpt>
      <trkpt lat="48.59201" lon="2.12079">
        <ele>72.8</ele>
        <time>2025-10-25T12:20:08Z</time>
      </trkpt>
      <trkpt lat="48.59203" lon="2.12076">
        <ele>72.6</ele>
        <time>2025-10-25T12:20:10Z</time>
      </trkpt>
      <trkpt lat="48.59205" lon="2.12073">
        <ele>72.6</ele>
        <time>2025-10-25T12:20:12Z</time>
      </trkpt>
      <trkpt lat="48.59208" lon="2.1207">
        <ele>72.4</ele>
        <time>2025-10-25T12:20:14Z</time>
      </trkpt>
      <trkpt lat="48.5921" lon="2.12067">
        <ele>72.4</ele>
        <time>2025-10-25T12:20:16Z</time>
      </trkpt>
      <trkpt lat="48.59212" lon="2.12063">
        <ele>72.4</ele>
        <time>2025-10-25T12:20:18Z</time>
      </trkpt>
      <trkpt lat="48.59214" lon="2.1206">
        <ele>72.4</ele>
        <time>2025-10-25T12:20:20Z</time>
      </trkpt>
      <trkpt lat="48.59216" lon="2.12057">
        <ele>72.4</ele>
        <time>2025-10-25T12:20:22Z</time>
      </trkpt>
      <trkpt lat="48.59218" lon="2.12054">
        <ele>72.4</ele>
        <time>2025-10-25T12:20:24Z</time>
      </trkpt>
      <trkpt lat="48.5922" lon="2.12052">
        <ele>72.4</ele>
        <time>2025-10-25T12:20:26Z</time>
      </trkpt>
      <trkpt lat="48.59222" lon="2.12049">
        <ele>72.6</ele>
        <time>2025-10-25T12:20:28Z</time>
      </trkpt>
      <trkpt lat="48.59224" lon="2.12046">
        <ele>72.6</ele>
        <time>2025-10-25T12:20:30Z</time>
      </trkpt>
      <trkpt lat="48.59226" lon="2.12044">
        <ele>72.6</ele>
        <time>2025-10-25T12:20:32Z</time>
      </trkpt>
      <trkpt lat="48.59228" lon="2.12042">
        <ele>72.6</ele>
        <time>2025-10-25T12:20:34Z</time>
      </trkpt>
      <trkpt lat="48.5923" lon="2.12039">
        <ele>72.6</ele>
        <time>2025-10-25T12:20:36Z</time>
      </trkpt>
      <trkpt lat="48.59232" lon="2.12037">
        <ele>72.6</ele>
        <time>2025-10-25T12:20:38Z</time>
      </trkpt>
      <trkpt lat="48.59233" lon="2.12034">
        <ele>72.6</ele>
        <time>2025-10-25T12:20:40Z</time>
      </trkpt>
      <trkpt lat="48.59235" lon="2.12031">
        <ele>72.6</ele>
        <time>2025-10-25T12:20:42Z</time>
      </trkpt>
      <trkpt lat="48.59237" lon="2.12029">
        <ele>72.6</ele>
        <time>2025-10-25T12:20:44Z</time>
      </trkpt>
      <trkpt lat="48.59239" lon="2.12026">
        <ele>73</ele>
        <time>2025-10-25T12:20:46Z</time>
      </trkpt>
      <trkpt lat="48.59241" lon="2.12024">
        <ele>73.2</ele>
        <time>2025-10-25T12:20:48Z</time>
      </trkpt>
      <trkpt lat="48.59243" lon="2.12021">
        <ele>73.4</ele>
        <time>2025-10-25T12:20:50Z</time>
      </trkpt>
      <trkpt lat="48.59245" lon="2.12018">
        <ele>73.4</ele>
        <time>2025-10-25T12:20:52Z</time>
      </trkpt>
      <trkpt lat="48.59247" lon="2.12016">
        <ele>73.6</ele>
        <time>2025-10-25T12:20:54Z</time>
      </trkpt>
      <trkpt lat="48.59249" lon="2.12013">
        <ele>73.6</ele>
        <time>2025-10-25T12:20:56Z</time>
      </trkpt>
      <trkpt lat="48.59251" lon="2.1201">
        <ele>73.8</ele>
        <time>2025-10-25T12:20:58Z</time>
      </trkpt>
      <trkpt lat="48.59252" lon="2.12007">
        <ele>74</ele>
        <time>2025-10-25T12:21:00Z</time>
      </trkpt>
      <trkpt lat="48.59255" lon="2.12004">
        <ele>74.2</ele>
        <time>2025-10-25T12:21:02Z</time>
      </trkpt>
      <trkpt lat="48.59257" lon="2.12001">
        <ele>74.6</ele>
        <time>2025-10-25T12:21:04Z</time>
      </trkpt>
      <trkpt lat="48.59259" lon="2.11997">
        <ele>74.8</ele>
        <time>2025-10-25T12:21:06Z</time>
      </trkpt>
      <trkpt lat="48.59261" lon="2.11994">
        <ele>75</ele>
        <time>2025-10-25T12:21:08Z</time>
      </trkpt>
      <trkpt lat="48.59263" lon="2.11991">
        <ele>75.2</ele>
        <time>2025-10-25T12:21:10Z</time>
      </trkpt>
      <trkpt lat="48.59265" lon="2.11988">
        <ele>75.2</ele>
        <time>2025-10-25T12:21:12Z</time>
      </trkpt>
      <trkpt lat="48.59267" lon="2.11985">
        <ele>75.4</ele>
        <time>2025-10-25T12:21:14Z</time>
      </trkpt>
      <trkpt lat="48.59269" lon="2.11985">
        <ele>75.6</ele>
        <time>2025-10-25T12:21:16Z</time>
      </trkpt>
      <trkpt lat="48.59272" lon="2.11985">
        <ele>76</ele>
        <time>2025-10-25T12:21:18Z</time>
      </trkpt>
      <trkpt lat="48.59274" lon="2.11986">
        <ele>76.4</ele>
        <time>2025-10-25T12:21:20Z</time>
      </trkpt>
      <trkpt lat="48.59276" lon="2.11988">
        <ele>76.6</ele>
        <time>2025-10-25T12:21:22Z</time>
      </trkpt>
      <trkpt lat="48.59277" lon="2.1199">
        <ele>77</ele>
        <time>2025-10-25T12:21:24Z</time>
      </trkpt>
      <trkpt lat="48.59278" lon="2.11994">
        <ele>77.2</ele>
        <time>2025-10-25T12:21:26Z</time>
      </trkpt>
      <trkpt lat="48.59279" lon="2.11997">
        <ele>77.2</ele>
        <time>2025-10-25T12:21:28Z</time>
      </trkpt>
      <trkpt lat="48.5928" lon="2.12">
        <ele>77.4</ele>
        <time>2025-10-25T12:21:30Z</time>
      </trkpt>
      <trkpt lat="48.59282" lon="2.12004">
        <ele>77.8</ele>
        <time>2025-10-25T12:21:32Z</time>
      </trkpt>
      <trkpt lat="48.59284" lon="2.12007">
        <ele>78</ele>
        <time>2025-10-25T12:21:34Z</time>
      </trkpt>
      <trkpt lat="48.59286" lon="2.12008">
        <ele>78</ele>
        <time>2025-10-25T12:21:35Z</time>
      </trkpt>
      <trkpt lat="48.59288" lon="2.12012">
        <ele>78.2</ele>
        <time>2025-10-25T12:21:37Z</time>
      </trkpt>
      <trkpt lat="48.59291" lon="2.12015">
        <ele>78.2</ele>
        <time>2025-10-25T12:21:39Z</time>
      </trkpt>
      <trkpt lat="48.59293" lon="2.12018">
        <ele>78.2</ele>
        <time>2025-10-25T12:21:41Z</time>
      </trkpt>
      <trkpt lat="48.59296" lon="2.12021">
        <ele>78.2</ele>
        <time>2025-10-25T12:21:43Z</time>
      </trkpt>
      <trkpt lat="48.59297" lon="2.12023">
        <ele>78.2</ele>
        <time>2025-10-25T12:21:44Z</time>
      </trkpt>
      <trkpt lat="48.593" lon="2.12025">
        <ele>78.6</ele>
        <time>2025-10-25T12:21:46Z</time>
      </trkpt>
      <trkpt lat="48.59302" lon="2.12027">
        <ele>78.8</ele>
        <time>2025-10-25T12:21:48Z</time>
      </trkpt>
      <trkpt lat="48.59304" lon="2.12029">
        <ele>79.2</ele>
        <time>2025-10-25T12:21:50Z</time>
      </trkpt>
      <trkpt lat="48.59306" lon="2.12031">
        <ele>79.4</ele>
        <time>2025-10-25T12:21:53Z</time>
      </trkpt>
      <trkpt lat="48.59308" lon="2.12033">
        <ele>79.6</ele>
        <time>2025-10-25T12:21:55Z</time>
      </trkpt>
      <trkpt lat="48.5931" lon="2.12035">
        <ele>79.6</ele>
        <time>2025-10-25T12:21:57Z</time>
      </trkpt>
      <trkpt lat="48.59312" lon="2.12037">
        <ele>79.6</ele>
        <time>2025-10-25T12:21:59Z</time>
      </trkpt>
      <trkpt lat="48.59314" lon="2.1204">
        <ele>79.8</ele>
        <time>2025-10-25T12:22:01Z</time>
      </trkpt>
      <trkpt lat="48.59316" lon="2.12042">
        <ele>79.8</ele>
        <time>2025-10-25T12:22:03Z</time>
      </trkpt>
      <trkpt lat="48.59318" lon="2.12045">
        <ele>79.6</ele>
        <time>2025-10-25T12:22:05Z</time>
      </trkpt>
      <trkpt lat="48.59321" lon="2.12048">
        <ele>79.8</ele>
        <time>2025-10-25T12:22:07Z</time>
      </trkpt>
      <trkpt lat="48.59324" lon="2.12051">
        <ele>79.8</ele>
        <time>2025-10-25T12:22:09Z</time>
      </trkpt>
      <trkpt lat="48.59325" lon="2.12053">
        <ele>79.8</ele>
        <time>2025-10-25T12:22:10Z</time>
      </trkpt>
      <trkpt lat="48.59327" lon="2.12056">
        <ele>80</ele>
        <time>2025-10-25T12:22:12Z</time>
      </trkpt>
      <trkpt lat="48.59329" lon="2.12059">
        <ele>80.2</ele>
        <time>2025-10-25T12:22:14Z</time>
      </trkpt>
      <trkpt lat="48.59332" lon="2.12062">
        <ele>80.4</ele>
        <time>2025-10-25T12:22:16Z</time>
      </trkpt>
      <trkpt lat="48.59333" lon="2.12063">
        <ele>80.4</ele>
        <time>2025-10-25T12:22:17Z</time>
      </trkpt>
      <trkpt lat="48.59336" lon="2.12066">
        <ele>80.4</ele>
        <time>2025-10-25T12:22:19Z</time>
      </trkpt>
      <trkpt lat="48.59337" lon="2.12067">
        <ele>80.6</ele>
        <time>2025-10-25T12:22:20Z</time>
      </trkpt>
      <trkpt lat="48.59339" lon="2.12069">
        <ele>80.6</ele>
        <time>2025-10-25T12:22:21Z</time>
      </trkpt>
      <trkpt lat="48.59342" lon="2.12071">
        <ele>80.8</ele>
        <time>2025-10-25T12:22:23Z</time>
      </trkpt>
      <trkpt lat="48.59343" lon="2.12073">
        <ele>80.8</ele>
        <time>2025-10-25T12:22:24Z</time>
      </trkpt>
      <trkpt lat="48.59345" lon="2.12075">
        <ele>81</ele>
        <time>2025-10-25T12:22:25Z</time>
      </trkpt>
      <trkpt lat="48.59346" lon="2.12077">
        <ele>81</ele>
        <time>2025-10-25T12:22:26Z</time>
      </trkpt>
      <trkpt lat="48.59348" lon="2.12079">
        <ele>81</ele>
        <time>2025-10-25T12:22:27Z</time>
      </trkpt>
      <trkpt lat="48.59349" lon="2.1208">
        <ele>81.2</ele>
        <time>2025-10-25T12:22:28Z</time>
      </trkpt>
      <trkpt lat="48.59352" lon="2.12083">
        <ele>81.2</ele>
        <time>2025-10-25T12:22:30Z</time>
      </trkpt>
      <trkpt lat="48.59353" lon="2.12085">
        <ele>81.4</ele>
        <time>2025-10-25T12:22:32Z</time>
      </trkpt>
      <trkpt lat="48.59355" lon="2.12087">
        <ele>81.4</ele>
        <time>2025-10-25T12:22:34Z</time>
      </trkpt>
      <trkpt lat="48.59357" lon="2.1209">
        <ele>81.6</ele>
        <time>2025-10-25T12:22:37Z</time>
      </trkpt>
      <trkpt lat="48.59359" lon="2.12092">
        <ele>81.6</ele>
        <time>2025-10-25T12:22:39Z</time>
      </trkpt>
      <trkpt lat="48.59361" lon="2.12094">
        <ele>81.4</ele>
        <time>2025-10-25T12:22:41Z</time>
      </trkpt>
      <trkpt lat="48.59363" lon="2.12097">
        <ele>81.2</ele>
        <time>2025-10-25T12:22:43Z</time>
      </trkpt>
      <trkpt lat="48.59364" lon="2.12099">
        <ele>81</ele>
        <time>2025-10-25T12:22:45Z</time>
      </trkpt>
      <trkpt lat="48.59366" lon="2.12102">
        <ele>80.8</ele>
        <time>2025-10-25T12:22:47Z</time>
      </trkpt>
      <trkpt lat="48.59368" lon="2.12105">
        <ele>80.6</ele>
        <time>2025-10-25T12:22:49Z</time>
      </trkpt>
      <trkpt lat="48.5937" lon="2.12108">
        <ele>80.4</ele>
        <time>2025-10-25T12:22:51Z</time>
      </trkpt>
      <trkpt lat="48.59372" lon="2.12111">
        <ele>80.4</ele>
        <time>2025-10-25T12:22:53Z</time>
      </trkpt>
      <trkpt lat="48.59375" lon="2.12114">
        <ele>80.4</ele>
        <time>2025-10-25T12:22:55Z</time>
      </trkpt>
      <trkpt lat="48.59377" lon="2.12117">
        <ele>80.6</ele>
        <time>2025-10-25T12:22:57Z</time>
      </trkpt>
      <trkpt lat="48.5938" lon="2.12121">
        <ele>80.8</ele>
        <time>2025-10-25T12:23:00Z</time>
      </trkpt>
      <trkpt lat="48.59381" lon="2.12123">
        <ele>81</ele>
        <time>2025-10-25T12:23:03Z</time>
      </trkpt>
      <trkpt lat="48.59383" lon="2.12126">
        <ele>81.2</ele>
        <time>2025-10-25T12:23:06Z</time>
      </trkpt>
      <trkpt lat="48.59385" lon="2.1213">
        <ele>81.2</ele>
        <time>2025-10-25T12:23:09Z</time>
      </trkpt>
      <trkpt lat="48.59387" lon="2.12132">
        <ele>81.2</ele>
        <time>2025-10-25T12:23:11Z</time>
      </trkpt>
      <trkpt lat="48.59388" lon="2.12134">
        <ele>81.2</ele>
        <time>2025-10-25T12:23:13Z</time>
      </trkpt>
      <trkpt lat="48.59391" lon="2.12137">
        <ele>81.2</ele>
        <time>2025-10-25T12:23:15Z</time>
      </trkpt>
      <trkpt lat="48.59393" lon="2.12139">
        <ele>81</ele>
        <time>2025-10-25T12:23:17Z</time>
      </trkpt>
      <trkpt lat="48.59395" lon="2.12142">
        <ele>81</ele>
        <time>2025-10-25T12:23:19Z</time>
      </trkpt>
      <trkpt lat="48.59397" lon="2.12144">
        <ele>81</ele>
        <time>2025-10-25T12:23:20Z</time>
      </trkpt>
      <trkpt lat="48.59399" lon="2.12145">
        <ele>81</ele>
        <time>2025-10-25T12:23:21Z</time>
      </trkpt>
      <trkpt lat="48.59401" lon="2.12147">
        <ele>81</ele>
        <time>2025-10-25T12:23:22Z</time>
      </trkpt>
      <trkpt lat="48.59404" lon="2.12149">
        <ele>81</ele>
        <time>2025-10-25T12:23:24Z</time>
      </trkpt>
      <trkpt lat="48.59406" lon="2.12151">
        <ele>81</ele>
        <time>2025-10-25T12:23:26Z</time>
      </trkpt>
      <trkpt lat="48.59409" lon="2.12153">
        <ele>81</ele>
        <time>2025-10-25T12:23:28Z</time>
      </trkpt>
      <trkpt lat="48.59411" lon="2.12155">
        <ele>81</ele>
        <time>2025-10-25T12:23:30Z</time>
      </trkpt>
      <trkpt lat="48.59413" lon="2.12156">
        <ele>81</ele>
        <time>2025-10-25T12:23:31Z</time>
      </trkpt>
      <trkpt lat="48.59414" lon="2.12157">
        <ele>81</ele>
        <time>2025-10-25T12:23:32Z</time>
      </trkpt>
      <trkpt lat="48.59417" lon="2.1216">
        <ele>81.2</ele>
        <time>2025-10-25T12:23:34Z</time>
      </trkpt>
      <trkpt lat="48.59419" lon="2.12161">
        <ele>81.2</ele>
        <time>2025-10-25T12:23:35Z</time>
      </trkpt>
      <trkpt lat="48.59421" lon="2.12163">
        <ele>81.2</ele>
        <time>2025-10-25T12:23:36Z</time>
      </trkpt>
      <trkpt lat="48.59422" lon="2.12164">
        <ele>81</ele>
        <time>2025-10-25T12:23:37Z</time>
      </trkpt>
      <trkpt lat="48.59425" lon="2.12167">
        <ele>80.8</ele>
        <time>2025-10-25T12:23:39Z</time>
      </trkpt>
      <trkpt lat="48.59428" lon="2.12169">
        <ele>80.6</ele>
        <time>2025-10-25T12:23:41Z</time>
      </trkpt>
      <trkpt lat="48.59431" lon="2.12171">
        <ele>80.6</ele>
        <time>2025-10-25T12:23:43Z</time>
      </trkpt>
      <trkpt lat="48.59435" lon="2.12172">
        <ele>80.4</ele>
        <time>2025-10-25T12:23:45Z</time>
      </trkpt>
      <trkpt lat="48.59437" lon="2.12174">
        <ele>80.2</ele>
        <time>2025-10-25T12:23:47Z</time>
      </trkpt>
      <trkpt lat="48.5944" lon="2.12175">
        <ele>80</ele>
        <time>2025-10-25T12:23:49Z</time>
      </trkpt>
      <trkpt lat="48.59443" lon="2.12177">
        <ele>80</ele>
        <time>2025-10-25T12:23:51Z</time>
      </trkpt>
      <trkpt lat="48.59445" lon="2.12178">
        <ele>79.8</ele>
        <time>2025-10-25T12:23:53Z</time>
      </trkpt>
      <trkpt lat="48.59448" lon="2.12179">
        <ele>79.8</ele>
        <time>2025-10-25T12:23:55Z</time>
      </trkpt>
      <trkpt lat="48.59451" lon="2.12182">
        <ele>79.6</ele>
        <time>2025-10-25T12:23:57Z</time>
      </trkpt>
      <trkpt lat="48.59452" lon="2.12184">
        <ele>79.6</ele>
        <time>2025-10-25T12:23:59Z</time>
      </trkpt>
      <trkpt lat="48.59453" lon="2.12186">
        <ele>79.4</ele>
        <time>2025-10-25T12:24:01Z</time>
      </trkpt>
      <trkpt lat="48.59455" lon="2.12189">
        <ele>79.2</ele>
        <time>2025-10-25T12:24:03Z</time>
      </trkpt>
      <trkpt lat="48.59457" lon="2.12192">
        <ele>79.2</ele>
        <time>2025-10-25T12:24:05Z</time>
      </trkpt>
      <trkpt lat="48.59459" lon="2.12193">
        <ele>79</ele>
        <time>2025-10-25T12:24:06Z</time>
      </trkpt>
      <trkpt lat="48.59461" lon="2.12195">
        <ele>79</ele>
        <time>2025-10-25T12:24:07Z</time>
      </trkpt>
      <trkpt lat="48.59463" lon="2.12197">
        <ele>79</ele>
        <time>2025-10-25T12:24:08Z</time>
      </trkpt>
      <trkpt lat="48.59465" lon="2.12198">
        <ele>79</ele>
        <time>2025-10-25T12:24:09Z</time>
      </trkpt>
      <trkpt lat="48.59468" lon="2.12199">
        <ele>79</ele>
        <time>2025-10-25T12:24:10Z</time>
      </trkpt>
      <trkpt lat="48.5947" lon="2.12199">
        <ele>79</ele>
        <time>2025-10-25T12:24:11Z</time>
      </trkpt>
      <trkpt lat="48.59473" lon="2.122">
        <ele>78.8</ele>
        <time>2025-10-25T12:24:13Z</time>
      </trkpt>
      <trkpt lat="48.59476" lon="2.12201">
        <ele>78.8</ele>
        <time>2025-10-25T12:24:15Z</time>
      </trkpt>
      <trkpt lat="48.59479" lon="2.12201">
        <ele>78.8</ele>
        <time>2025-10-25T12:24:17Z</time>
      </trkpt>
      <trkpt lat="48.59482" lon="2.12202">
        <ele>78.8</ele>
        <time>2025-10-25T12:24:19Z</time>
      </trkpt>
      <trkpt lat="48.59484" lon="2.12203">
        <ele>78.8</ele>
        <time>2025-10-25T12:24:21Z</time>
      </trkpt>
      <trkpt lat="48.59486" lon="2.12203">
        <ele>78.6</ele>
        <time>2025-10-25T12:24:25Z</time>
      </trkpt>
      <trkpt lat="48.59489" lon="2.12203">
        <ele>78.6</ele>
        <time>2025-10-25T12:24:29Z</time>
      </trkpt>
      <trkpt lat="48.59491" lon="2.12204">
        <ele>78.6</ele>
        <time>2025-10-25T12:24:31Z</time>
      </trkpt>
      <trkpt lat="48.59494" lon="2.12204">
        <ele>78.6</ele>
        <time>2025-10-25T12:24:33Z</time>
      </trkpt>
      <trkpt lat="48.59497" lon="2.12205">
        <ele>78.6</ele>
        <time>2025-10-25T12:24:35Z</time>
      </trkpt>
      <trkpt lat="48.595" lon="2.12205">
        <ele>78.8</ele>
        <time>2025-10-25T12:24:37Z</time>
      </trkpt>
      <trkpt lat="48.59504" lon="2.12206">
        <ele>78.8</ele>
        <time>2025-10-25T12:24:39Z</time>
      </trkpt>
      <trkpt lat="48.59507" lon="2.12206">
        <ele>78.8</ele>
        <time>2025-10-25T12:24:41Z</time>
      </trkpt>
      <trkpt lat="48.5951" lon="2.12207">
        <ele>79</ele>
        <time>2025-10-25T12:24:43Z</time>
      </trkpt>
      <trkpt lat="48.59513" lon="2.12208">
        <ele>79</ele>
        <time>2025-10-25T12:24:45Z</time>
      </trkpt>
      <trkpt lat="48.59516" lon="2.12208">
        <ele>78.8</ele>
        <time>2025-10-25T12:24:47Z</time>
      </trkpt>
      <trkpt lat="48.59519" lon="2.12209">
        <ele>78.8</ele>
        <time>2025-10-25T12:24:49Z</time>
      </trkpt>
      <trkpt lat="48.59522" lon="2.1221">
        <ele>78.8</ele>
        <time>2025-10-25T12:24:51Z</time>
      </trkpt>
      <trkpt lat="48.59525" lon="2.12211">
        <ele>78.8</ele>
        <time>2025-10-25T12:24:53Z</time>
      </trkpt>
      <trkpt lat="48.59528" lon="2.12212">
        <ele>78.6</ele>
        <time>2025-10-25T12:24:55Z</time>
      </trkpt>
      <trkpt lat="48.5953" lon="2.12213">
        <ele>78.6</ele>
        <time>2025-10-25T12:24:57Z</time>
      </trkpt>
      <trkpt lat="48.59533" lon="2.12214">
        <ele>78.6</ele>
        <time>2025-10-25T12:24:59Z</time>
      </trkpt>
      <trkpt lat="48.59536" lon="2.12215">
        <ele>78.8</ele>
        <time>2025-10-25T12:25:01Z</time>
      </trkpt>
      <trkpt lat="48.59538" lon="2.12216">
        <ele>78.8</ele>
        <time>2025-10-25T12:25:03Z</time>
      </trkpt>
      <trkpt lat="48.5954" lon="2.12217">
        <ele>79</ele>
        <time>2025-10-25T12:25:05Z</time>
      </trkpt>
      <trkpt lat="48.59543" lon="2.12217">
        <ele>79.2</ele>
        <time>2025-10-25T12:25:07Z</time>
      </trkpt>
      <trkpt lat="48.59546" lon="2.12218">
        <ele>79.2</ele>
        <time>2025-10-25T12:25:09Z</time>
      </trkpt>
      <trkpt lat="48.59548" lon="2.12219">
        <ele>79</ele>
        <time>2025-10-25T12:25:11Z</time>
      </trkpt>
      <trkpt lat="48.59551" lon="2.12219">
        <ele>79</ele>
        <time>2025-10-25T12:25:13Z</time>
      </trkpt>
      <trkpt lat="48.59554" lon="2.12219">
        <ele>79</ele>
        <time>2025-10-25T12:25:15Z</time>
      </trkpt>
      <trkpt lat="48.59556" lon="2.12219">
        <ele>79</ele>
        <time>2025-10-25T12:25:17Z</time>
      </trkpt>
      <trkpt lat="48.59558" lon="2.12219">
        <ele>79</ele>
        <time>2025-10-25T12:25:19Z</time>
      </trkpt>
      <trkpt lat="48.5956" lon="2.12219">
        <ele>79</ele>
        <time>2025-10-25T12:25:21Z</time>
      </trkpt>
      <trkpt lat="48.59563" lon="2.12219">
        <ele>78.8</ele>
        <time>2025-10-25T12:25:24Z</time>
      </trkpt>
      <trkpt lat="48.59565" lon="2.12219">
        <ele>78.8</ele>
        <time>2025-10-25T12:25:27Z</time>
      </trkpt>
      <trkpt lat="48.59568" lon="2.12219">
        <ele>78.8</ele>
        <time>2025-10-25T12:25:29Z</time>
      </trkpt>
      <trkpt lat="48.59571" lon="2.12219">
        <ele>78.8</ele>
        <time>2025-10-25T12:25:31Z</time>
      </trkpt>
      <trkpt lat="48.59574" lon="2.12219">
        <ele>78.8</ele>
        <time>2025-10-25T12:25:33Z</time>
      </trkpt>
      <trkpt lat="48.59576" lon="2.12218">
        <ele>78.8</ele>
        <time>2025-10-25T12:25:34Z</time>
      </trkpt>
      <trkpt lat="48.59579" lon="2.12219">
        <ele>79</ele>
        <time>2025-10-25T12:25:36Z</time>
      </trkpt>
      <trkpt lat="48.59582" lon="2.1222">
        <ele>79.2</ele>
        <time>2025-10-25T12:25:38Z</time>
      </trkpt>
      <trkpt lat="48.59585" lon="2.12221">
        <ele>79.2</ele>
        <time>2025-10-25T12:25:40Z</time>
      </trkpt>
      <trkpt lat="48.59588" lon="2.12223">
        <ele>79.2</ele>
        <time>2025-10-25T12:25:42Z</time>
      </trkpt>
      <trkpt lat="48.5959" lon="2.12223">
        <ele>79.2</ele>
        <time>2025-10-25T12:25:44Z</time>
      </trkpt>
      <trkpt lat="48.59593" lon="2.12224">
        <ele>79.2</ele>
        <time>2025-10-25T12:25:46Z</time>
      </trkpt>
      <trkpt lat="48.59596" lon="2.12224">
        <ele>79.2</ele>
        <time>2025-10-25T12:25:48Z</time>
      </trkpt>
      <trkpt lat="48.59598" lon="2.12225">
        <ele>79</ele>
        <time>2025-10-25T12:25:50Z</time>
      </trkpt>
      <trkpt lat="48.59601" lon="2.12226">
        <ele>79</ele>
        <time>2025-10-25T12:25:52Z</time>
      </trkpt>
      <trkpt lat="48.59604" lon="2.12227">
        <ele>79</ele>
        <time>2025-10-25T12:25:54Z</time>
      </trkpt>
      <trkpt lat="48.59607" lon="2.12228">
        <ele>79</ele>
        <time>2025-10-25T12:25:56Z</time>
      </trkpt>
      <trkpt lat="48.5961" lon="2.12229">
        <ele>79</ele>
        <time>2025-10-25T12:25:58Z</time>
      </trkpt>
      <trkpt lat="48.59613" lon="2.12229">
        <ele>78.8</ele>
        <time>2025-10-25T12:26:00Z</time>
      </trkpt>
      <trkpt lat="48.59615" lon="2.12228">
        <ele>78.8</ele>
        <time>2025-10-25T12:26:02Z</time>
      </trkpt>
      <trkpt lat="48.59618" lon="2.12227">
        <ele>79</ele>
        <time>2025-10-25T12:26:04Z</time>
      </trkpt>
      <trkpt lat="48.5962" lon="2.12227">
        <ele>79.2</ele>
        <time>2025-10-25T12:26:05Z</time>
      </trkpt>
      <trkpt lat="48.59623" lon="2.12227">
        <ele>79.2</ele>
        <time>2025-10-25T12:26:07Z</time>
      </trkpt>
      <trkpt lat="48.59625" lon="2.12227">
        <ele>79.2</ele>
        <time>2025-10-25T12:26:08Z</time>
      </trkpt>
      <trkpt lat="48.59628" lon="2.12227">
        <ele>79.4</ele>
        <time>2025-10-25T12:26:10Z</time>
      </trkpt>
      <trkpt lat="48.59631" lon="2.12228">
        <ele>79.4</ele>
        <time>2025-10-25T12:26:12Z</time>
      </trkpt>
      <trkpt lat="48.59634" lon="2.12228">
        <ele>79.4</ele>
        <time>2025-10-25T12:26:14Z</time>
      </trkpt>
      <trkpt lat="48.59636" lon="2.12229">
        <ele>79.4</ele>
        <time>2025-10-25T12:26:16Z</time>
      </trkpt>
      <trkpt lat="48.59638" lon="2.12229">
        <ele>79.4</ele>
        <time>2025-10-25T12:26:18Z</time>
      </trkpt>
      <trkpt lat="48.59641" lon="2.1223">
        <ele>79.4</ele>
        <time>2025-10-25T12:26:20Z</time>
      </trkpt>
      <trkpt lat="48.59643" lon="2.1223">
        <ele>79.2</ele>
        <time>2025-10-25T12:26:22Z</time>
      </trkpt>
      <trkpt lat="48.59646" lon="2.12231">
        <ele>79.2</ele>
        <time>2025-10-25T12:26:24Z</time>
      </trkpt>
      <trkpt lat="48.59649" lon="2.12232">
        <ele>79.2</ele>
        <time>2025-10-25T12:26:26Z</time>
      </trkpt>
      <trkpt lat="48.59652" lon="2.12233">
        <ele>79.2</ele>
        <time>2025-10-25T12:26:28Z</time>
      </trkpt>
      <trkpt lat="48.59655" lon="2.12234">
        <ele>79.2</ele>
        <time>2025-10-25T12:26:30Z</time>
      </trkpt>
      <trkpt lat="48.59658" lon="2.12234">
        <ele>79.2</ele>
        <time>2025-10-25T12:26:32Z</time>
      </trkpt>
      <trkpt lat="48.5966" lon="2.12234">
        <ele>79.2</ele>
        <time>2025-10-25T12:26:34Z</time>
      </trkpt>
      <trkpt lat="48.59663" lon="2.12234">
        <ele>79</ele>
        <time>2025-10-25T12:26:36Z</time>
      </trkpt>
      <trkpt lat="48.59666" lon="2.12235">
        <ele>79</ele>
        <time>2025-10-25T12:26:38Z</time>
      </trkpt>
      <trkpt lat="48.59669" lon="2.12236">
        <ele>79</ele>
        <time>2025-10-25T12:26:40Z</time>
      </trkpt>
      <trkpt lat="48.59672" lon="2.12238">
        <ele>79</ele>
        <time>2025-10-25T12:26:42Z</time>
      </trkpt>
      <trkpt lat="48.59675" lon="2.12239">
        <ele>79.2</ele>
        <time>2025-10-25T12:26:44Z</time>
      </trkpt>
      <trkpt lat="48.59677" lon="2.12239">
        <ele>79.4</ele>
        <time>2025-10-25T12:26:46Z</time>
      </trkpt>
      <trkpt lat="48.5968" lon="2.1224">
        <ele>79.6</ele>
        <time>2025-10-25T12:26:48Z</time>
      </trkpt>
      <trkpt lat="48.59682" lon="2.1224">
        <ele>79.8</ele>
        <time>2025-10-25T12:26:50Z</time>
      </trkpt>
      <trkpt lat="48.59684" lon="2.1224">
        <ele>80</ele>
        <time>2025-10-25T12:26:52Z</time>
      </trkpt>
      <trkpt lat="48.59686" lon="2.1224">
        <ele>80.2</ele>
        <time>2025-10-25T12:26:54Z</time>
      </trkpt>
      <trkpt lat="48.59689" lon="2.1224">
        <ele>80.4</ele>
        <time>2025-10-25T12:26:56Z</time>
      </trkpt>
      <trkpt lat="48.59692" lon="2.12241">
        <ele>80.4</ele>
        <time>2025-10-25T12:26:58Z</time>
      </trkpt>
      <trkpt lat="48.59695" lon="2.12241">
        <ele>80.6</ele>
        <time>2025-10-25T12:27:00Z</time>
      </trkpt>
      <trkpt lat="48.59698" lon="2.12242">
        <ele>80.6</ele>
        <time>2025-10-25T12:27:02Z</time>
      </trkpt>
      <trkpt lat="48.59701" lon="2.12242">
        <ele>80.6</ele>
        <time>2025-10-25T12:27:04Z</time>
      </trkpt>
      <trkpt lat="48.59704" lon="2.12242">
        <ele>80.8</ele>
        <time>2025-10-25T12:27:06Z</time>
      </trkpt>
      <trkpt lat="48.59707" lon="2.12242">
        <ele>80.8</ele>
        <time>2025-10-25T12:27:08Z</time>
      </trkpt>
      <trkpt lat="48.59709" lon="2.12242">
        <ele>81</ele>
        <time>2025-10-25T12:27:10Z</time>
      </trkpt>
      <trkpt lat="48.59712" lon="2.12242">
        <ele>81.2</ele>
        <time>2025-10-25T12:27:12Z</time>
      </trkpt>
      <trkpt lat="48.59714" lon="2.12242">
        <ele>81.2</ele>
        <time>2025-10-25T12:27:14Z</time>
      </trkpt>
      <trkpt lat="48.59716" lon="2.12242">
        <ele>81.4</ele>
        <time>2025-10-25T12:27:16Z</time>
      </trkpt>
      <trkpt lat="48.59719" lon="2.12241">
        <ele>81.6</ele>
        <time>2025-10-25T12:27:18Z</time>
      </trkpt>
      <trkpt lat="48.59721" lon="2.12242">
        <ele>81.8</ele>
        <time>2025-10-25T12:27:20Z</time>
      </trkpt>
      <trkpt lat="48.59724" lon="2.12242">
        <ele>82</ele>
        <time>2025-10-25T12:27:22Z</time>
      </trkpt>
      <trkpt lat="48.59727" lon="2.12241">
        <ele>82.4</ele>
        <time>2025-10-25T12:27:24Z</time>
      </trkpt>
      <trkpt lat="48.5973" lon="2.12241">
        <ele>82.6</ele>
        <time>2025-10-25T12:27:26Z</time>
      </trkpt>
      <trkpt lat="48.59733" lon="2.1224">
        <ele>82.6</ele>
        <time>2025-10-25T12:27:28Z</time>
      </trkpt>
      <trkpt lat="48.59735" lon="2.12238">
        <ele>82.8</ele>
        <time>2025-10-25T12:27:30Z</time>
      </trkpt>
      <trkpt lat="48.59737" lon="2.12237">
        <ele>82.8</ele>
        <time>2025-10-25T12:27:32Z</time>
      </trkpt>
      <trkpt lat="48.5974" lon="2.12237">
        <ele>82.8</ele>
        <time>2025-10-25T12:27:34Z</time>
      </trkpt>
      <trkpt lat="48.59742" lon="2.12237">
        <ele>82.8</ele>
        <time>2025-10-25T12:27:35Z</time>
      </trkpt>
      <trkpt lat="48.59746" lon="2.12237">
        <ele>82.8</ele>
        <time>2025-10-25T12:27:37Z</time>
      </trkpt>
      <trkpt lat="48.59749" lon="2.12237">
        <ele>82.8</ele>
        <time>2025-10-25T12:27:39Z</time>
      </trkpt>
      <trkpt lat="48.59752" lon="2.12237">
        <ele>82.8</ele>
        <time>2025-10-25T12:27:41Z</time>
      </trkpt>
      <trkpt lat="48.59755" lon="2.12238">
        <ele>82.8</ele>
        <time>2025-10-25T12:27:43Z</time>
      </trkpt>
      <trkpt lat="48.59758" lon="2.12239">
        <ele>83</ele>
        <time>2025-10-25T12:27:45Z</time>
      </trkpt>
      <trkpt lat="48.59761" lon="2.12239">
        <ele>83</ele>
        <time>2025-10-25T12:27:47Z</time>
      </trkpt>
      <trkpt lat="48.59763" lon="2.12239">
        <ele>83.2</ele>
        <time>2025-10-25T12:27:49Z</time>
      </trkpt>
      <trkpt lat="48.59766" lon="2.12238">
        <ele>83.4</ele>
        <time>2025-10-25T12:27:51Z</time>
      </trkpt>
      <trkpt lat="48.59768" lon="2.12238">
        <ele>83.4</ele>
        <time>2025-10-25T12:27:53Z</time>
      </trkpt>
      <trkpt lat="48.5977" lon="2.12237">
        <ele>83.4</ele>
        <time>2025-10-25T12:27:55Z</time>
      </trkpt>
      <trkpt lat="48.59772" lon="2.12236">
        <ele>83.4</ele>
        <time>2025-10-25T12:27:57Z</time>
      </trkpt>
      <trkpt lat="48.59775" lon="2.12236">
        <ele>83.4</ele>
        <time>2025-10-25T12:27:59Z</time>
      </trkpt>
      <trkpt lat="48.59777" lon="2.12237">
        <ele>83.4</ele>
        <time>2025-10-25T12:28:00Z</time>
      </trkpt>
      <trkpt lat="48.5978" lon="2.12237">
        <ele>83.4</ele>
        <time>2025-10-25T12:28:02Z</time>
      </trkpt>
      <trkpt lat="48.59783" lon="2.12238">
        <ele>83.4</ele>
        <time>2025-10-25T12:28:04Z</time>
      </trkpt>
      <trkpt lat="48.59786" lon="2.12237">
        <ele>83.2</ele>
        <time>2025-10-25T12:28:06Z</time>
      </trkpt>
      <trkpt lat="48.59788" lon="2.12236">
        <ele>83.4</ele>
        <time>2025-10-25T12:28:08Z</time>
      </trkpt>
      <trkpt lat="48.59791" lon="2.12236">
        <ele>83.4</ele>
        <time>2025-10-25T12:28:10Z</time>
      </trkpt>
      <trkpt lat="48.59794" lon="2.12237">
        <ele>83.4</ele>
        <time>2025-10-25T12:28:12Z</time>
      </trkpt>
      <trkpt lat="48.59796" lon="2.12237">
        <ele>83.4</ele>
        <time>2025-10-25T12:28:14Z</time>
      </trkpt>
      <trkpt lat="48.59799" lon="2.12237">
        <ele>83.4</ele>
        <time>2025-10-25T12:28:16Z</time>
      </trkpt>
      <trkpt lat="48.59802" lon="2.12238">
        <ele>83.4</ele>
        <time>2025-10-25T12:28:18Z</time>
      </trkpt>
      <trkpt lat="48.59805" lon="2.12238">
        <ele>83.4</ele>
        <time>2025-10-25T12:28:20Z</time>
      </trkpt>
      <trkpt lat="48.59808" lon="2.12238">
        <ele>83.2</ele>
        <time>2025-10-25T12:28:22Z</time>
      </trkpt>
      <trkpt lat="48.59811" lon="2.12238">
        <ele>83.2</ele>
        <time>2025-10-25T12:28:24Z</time>
      </trkpt>
      <trkpt lat="48.59813" lon="2.12238">
        <ele>83.4</ele>
        <time>2025-10-25T12:28:26Z</time>
      </trkpt>
      <trkpt lat="48.59815" lon="2.12238">
        <ele>83.4</ele>
        <time>2025-10-25T12:28:28Z</time>
      </trkpt>
      <trkpt lat="48.59817" lon="2.1224">
        <ele>83.4</ele>
        <time>2025-10-25T12:28:31Z</time>
      </trkpt>
      <trkpt lat="48.5982" lon="2.12242">
        <ele>83.6</ele>
        <time>2025-10-25T12:28:35Z</time>
      </trkpt>
      <trkpt lat="48.59822" lon="2.12245">
        <ele>83.8</ele>
        <time>2025-10-25T12:28:38Z</time>
      </trkpt>
      <trkpt lat="48.59823" lon="2.12246">
        <ele>83.8</ele>
        <time>2025-10-25T12:28:41Z</time>
      </trkpt>
      <trkpt lat="48.59826" lon="2.12247">
        <ele>83.8</ele>
        <time>2025-10-25T12:28:44Z</time>
      </trkpt>
      <trkpt lat="48.59828" lon="2.12247">
        <ele>84</ele>
        <time>2025-10-25T12:28:46Z</time>
      </trkpt>
      <trkpt lat="48.59829" lon="2.12249">
        <ele>84.2</ele>
        <time>2025-10-25T12:28:48Z</time>
      </trkpt>
      <trkpt lat="48.59831" lon="2.12252">
        <ele>84.4</ele>
        <time>2025-10-25T12:28:50Z</time>
      </trkpt>
      <trkpt lat="48.59832" lon="2.12256">
        <ele>84.6</ele>
        <time>2025-10-25T12:28:52Z</time>
      </trkpt>
      <trkpt lat="48.59833" lon="2.1226">
        <ele>84.8</ele>
        <time>2025-10-25T12:28:54Z</time>
      </trkpt>
      <trkpt lat="48.59834" lon="2.12265">
        <ele>85</ele>
        <time>2025-10-25T12:28:56Z</time>
      </trkpt>
      <trkpt lat="48.59836" lon="2.12269">
        <ele>85</ele>
        <time>2025-10-25T12:28:58Z</time>
      </trkpt>
      <trkpt lat="48.59837" lon="2.12274">
        <ele>85</ele>
        <time>2025-10-25T12:29:00Z</time>
      </trkpt>
      <trkpt lat="48.59838" lon="2.12276">
        <ele>85</ele>
        <time>2025-10-25T12:29:01Z</time>
      </trkpt>
      <trkpt lat="48.5984" lon="2.1228">
        <ele>85</ele>
        <time>2025-10-25T12:29:03Z</time>
      </trkpt>
      <trkpt lat="48.59842" lon="2.12285">
        <ele>84.8</ele>
        <time>2025-10-25T12:29:05Z</time>
      </trkpt>
      <trkpt lat="48.59844" lon="2.12289">
        <ele>84.6</ele>
        <time>2025-10-25T12:29:07Z</time>
      </trkpt>
      <trkpt lat="48.59845" lon="2.12291">
        <ele>84.4</ele>
        <time>2025-10-25T12:29:08Z</time>
      </trkpt>
      <trkpt lat="48.59847" lon="2.12294">
        <ele>84.4</ele>
        <time>2025-10-25T12:29:10Z</time>
      </trkpt>
      <trkpt lat="48.59848" lon="2.12298">
        <ele>84.2</ele>
        <time>2025-10-25T12:29:12Z</time>
      </trkpt>
      <trkpt lat="48.5985" lon="2.12302">
        <ele>84</ele>
        <time>2025-10-25T12:29:14Z</time>
      </trkpt>
      <trkpt lat="48.59852" lon="2.12306">
        <ele>84</ele>
        <time>2025-10-25T12:29:16Z</time>
      </trkpt>
      <trkpt lat="48.59853" lon="2.1231">
        <ele>84</ele>
        <time>2025-10-25T12:29:18Z</time>
      </trkpt>
      <trkpt lat="48.59854" lon="2.12314">
        <ele>84</ele>
        <time>2025-10-25T12:29:20Z</time>
      </trkpt>
      <trkpt lat="48.59856" lon="2.12317">
        <ele>84.2</ele>
        <time>2025-10-25T12:29:22Z</time>
      </trkpt>
      <trkpt lat="48.59857" lon="2.1232">
        <ele>84.2</ele>
        <time>2025-10-25T12:29:24Z</time>
      </trkpt>
      <trkpt lat="48.59858" lon="2.12323">
        <ele>84.2</ele>
        <time>2025-10-25T12:29:26Z</time>
      </trkpt>
      <trkpt lat="48.5986" lon="2.12327">
        <ele>84.2</ele>
        <time>2025-10-25T12:29:28Z</time>
      </trkpt>
      <trkpt lat="48.5986" lon="2.1233">
        <ele>84.2</ele>
        <time>2025-10-25T12:29:30Z</time>
      </trkpt>
      <trkpt lat="48.59862" lon="2.12333">
        <ele>84.2</ele>
        <time>2025-10-25T12:29:32Z</time>
      </trkpt>
      <trkpt lat="48.59862" lon="2.12337">
        <ele>84.2</ele>
        <time>2025-10-25T12:29:34Z</time>
      </trkpt>
      <trkpt lat="48.59864" lon="2.12341">
        <ele>84.2</ele>
        <time>2025-10-25T12:29:36Z</time>
      </trkpt>
      <trkpt lat="48.59864" lon="2.12344">
        <ele>84</ele>
        <time>2025-10-25T12:29:38Z</time>
      </trkpt>
      <trkpt lat="48.59864" lon="2.12348">
        <ele>83.8</ele>
        <time>2025-10-25T12:29:41Z</time>
      </trkpt>
      <trkpt lat="48.59864" lon="2.12351">
        <ele>83.2</ele>
        <time>2025-10-25T12:29:49Z</time>
      </trkpt>
      <trkpt lat="48.59866" lon="2.12354">
        <ele>83</ele>
        <time>2025-10-25T12:29:51Z</time>
      </trkpt>
      <trkpt lat="48.59866" lon="2.12357">
        <ele>82.8</ele>
        <time>2025-10-25T12:29:53Z</time>
      </trkpt>
      <trkpt lat="48.59867" lon="2.1236">
        <ele>82.8</ele>
        <time>2025-10-25T12:29:55Z</time>
      </trkpt>
      <trkpt lat="48.59868" lon="2.12363">
        <ele>82.8</ele>
        <time>2025-10-25T12:29:57Z</time>
      </trkpt>
      <trkpt lat="48.59868" lon="2.12366">
        <ele>82.8</ele>
        <time>2025-10-25T12:29:59Z</time>
      </trkpt>
      <trkpt lat="48.59868" lon="2.1237">
        <ele>82.8</ele>
        <time>2025-10-25T12:30:01Z</time>
      </trkpt>
      <trkpt lat="48.59868" lon="2.12373">
        <ele>83</ele>
        <time>2025-10-25T12:30:03Z</time>
      </trkpt>
      <trkpt lat="48.5987" lon="2.12376">
        <ele>83</ele>
        <time>2025-10-25T12:30:05Z</time>
      </trkpt>
      <trkpt lat="48.5987" lon="2.1238">
        <ele>83</ele>
        <time>2025-10-25T12:30:07Z</time>
      </trkpt>
      <trkpt lat="48.59871" lon="2.12384">
        <ele>83</ele>
        <time>2025-10-25T12:30:09Z</time>
      </trkpt>
      <trkpt lat="48.59872" lon="2.12387">
        <ele>83</ele>
        <time>2025-10-25T12:30:11Z</time>
      </trkpt>
      <trkpt lat="48.59873" lon="2.12391">
        <ele>83</ele>
        <time>2025-10-25T12:30:13Z</time>
      </trkpt>
      <trkpt lat="48.59874" lon="2.12396">
        <ele>83</ele>
        <time>2025-10-25T12:30:15Z</time>
      </trkpt>
      <trkpt lat="48.59874" lon="2.12399">
        <ele>83</ele>
        <time>2025-10-25T12:30:16Z</time>
      </trkpt>
      <trkpt lat="48.59875" lon="2.12402">
        <ele>83</ele>
        <time>2025-10-25T12:30:17Z</time>
      </trkpt>
      <trkpt lat="48.59875" lon="2.12405">
        <ele>83</ele>
        <time>2025-10-25T12:30:18Z</time>
      </trkpt>
      <trkpt lat="48.59876" lon="2.12408">
        <ele>83</ele>
        <time>2025-10-25T12:30:19Z</time>
      </trkpt>
      <trkpt lat="48.59876" lon="2.12411">
        <ele>83.2</ele>
        <time>2025-10-25T12:30:20Z</time>
      </trkpt>
      <trkpt lat="48.59877" lon="2.12415">
        <ele>83</ele>
        <time>2025-10-25T12:30:22Z</time>
      </trkpt>
      <trkpt lat="48.59878" lon="2.12418">
        <ele>83</ele>
        <time>2025-10-25T12:30:24Z</time>
      </trkpt>
      <trkpt lat="48.59878" lon="2.12421">
        <ele>83</ele>
        <time>2025-10-25T12:30:26Z</time>
      </trkpt>
      <trkpt lat="48.59879" lon="2.12424">
        <ele>83.2</ele>
        <time>2025-10-25T12:30:28Z</time>
      </trkpt>
      <trkpt lat="48.59879" lon="2.12427">
        <ele>83.2</ele>
        <time>2025-10-25T12:30:30Z</time>
      </trkpt>
      <trkpt lat="48.5988" lon="2.12431">
        <ele>83.2</ele>
        <time>2025-10-25T12:30:32Z</time>
      </trkpt>
      <trkpt lat="48.59881" lon="2.12434">
        <ele>83.4</ele>
        <time>2025-10-25T12:30:34Z</time>
      </trkpt>
      <trkpt lat="48.59882" lon="2.12437">
        <ele>83.6</ele>
        <time>2025-10-25T12:30:36Z</time>
      </trkpt>
      <trkpt lat="48.59884" lon="2.1244">
        <ele>83.8</ele>
        <time>2025-10-25T12:30:38Z</time>
      </trkpt>
      <trkpt lat="48.59885" lon="2.12444">
        <ele>84</ele>
        <time>2025-10-25T12:30:40Z</time>
      </trkpt>
      <trkpt lat="48.59885" lon="2.12448">
        <ele>84</ele>
        <time>2025-10-25T12:30:42Z</time>
      </trkpt>
      <trkpt lat="48.59886" lon="2.12452">
        <ele>84.2</ele>
        <time>2025-10-25T12:30:44Z</time>
      </trkpt>
      <trkpt lat="48.59887" lon="2.12456">
        <ele>84.2</ele>
        <time>2025-10-25T12:30:46Z</time>
      </trkpt>
      <trkpt lat="48.59888" lon="2.1246">
        <ele>84.4</ele>
        <time>2025-10-25T12:30:48Z</time>
      </trkpt>
      <trkpt lat="48.59889" lon="2.12464">
        <ele>84.4</ele>
        <time>2025-10-25T12:30:50Z</time>
      </trkpt>
      <trkpt lat="48.5989" lon="2.12467">
        <ele>84.4</ele>
        <time>2025-10-25T12:30:52Z</time>
      </trkpt>
      <trkpt lat="48.59892" lon="2.12471">
        <ele>84.4</ele>
        <time>2025-10-25T12:30:54Z</time>
      </trkpt>
      <trkpt lat="48.59893" lon="2.12474">
        <ele>84.4</ele>
        <time>2025-10-25T12:30:56Z</time>
      </trkpt>
      <trkpt lat="48.59895" lon="2.12477">
        <ele>84.4</ele>
        <time>2025-10-25T12:30:58Z</time>
      </trkpt>
      <trkpt lat="48.59896" lon="2.1248">
        <ele>84.4</ele>
        <time>2025-10-25T12:31:00Z</time>
      </trkpt>
      <trkpt lat="48.59897" lon="2.12484">
        <ele>84.6</ele>
        <time>2025-10-25T12:31:02Z</time>
      </trkpt>
      <trkpt lat="48.59899" lon="2.12488">
        <ele>84.6</ele>
        <time>2025-10-25T12:31:04Z</time>
      </trkpt>
      <trkpt lat="48.599" lon="2.12492">
        <ele>84.8</ele>
        <time>2025-10-25T12:31:06Z</time>
      </trkpt>
      <trkpt lat="48.59901" lon="2.12494">
        <ele>84.8</ele>
        <time>2025-10-25T12:31:07Z</time>
      </trkpt>
      <trkpt lat="48.59903" lon="2.12499">
        <ele>85</ele>
        <time>2025-10-25T12:31:09Z</time>
      </trkpt>
      <trkpt lat="48.59906" lon="2.12503">
        <ele>85.2</ele>
        <time>2025-10-25T12:31:11Z</time>
      </trkpt>
      <trkpt lat="48.59907" lon="2.12505">
        <ele>85.2</ele>
        <time>2025-10-25T12:31:12Z</time>
      </trkpt>
      <trkpt lat="48.59909" lon="2.12509">
        <ele>85.2</ele>
        <time>2025-10-25T12:31:14Z</time>
      </trkpt>
      <trkpt lat="48.59911" lon="2.12513">
        <ele>85.4</ele>
        <time>2025-10-25T12:31:16Z</time>
      </trkpt>
      <trkpt lat="48.59913" lon="2.12516">
        <ele>85.4</ele>
        <time>2025-10-25T12:31:18Z</time>
      </trkpt>
      <trkpt lat="48.59914" lon="2.12519">
        <ele>85.6</ele>
        <time>2025-10-25T12:31:20Z</time>
      </trkpt>
      <trkpt lat="48.59915" lon="2.12522">
        <ele>85.8</ele>
        <time>2025-10-25T12:31:22Z</time>
      </trkpt>
      <trkpt lat="48.59916" lon="2.12525">
        <ele>86</ele>
        <time>2025-10-25T12:31:24Z</time>
      </trkpt>
      <trkpt lat="48.59917" lon="2.12529">
        <ele>86</ele>
        <time>2025-10-25T12:31:26Z</time>
      </trkpt>
      <trkpt lat="48.59919" lon="2.12535">
        <ele>86.2</ele>
        <time>2025-10-25T12:31:28Z</time>
      </trkpt>
      <trkpt lat="48.59919" lon="2.12538">
        <ele>86.2</ele>
        <time>2025-10-25T12:31:29Z</time>
      </trkpt>
      <trkpt lat="48.5992" lon="2.12542">
        <ele>86.4</ele>
        <time>2025-10-25T12:31:30Z</time>
      </trkpt>
      <trkpt lat="48.59921" lon="2.12546">
        <ele>86.4</ele>
        <time>2025-10-25T12:31:31Z</time>
      </trkpt>
      <trkpt lat="48.59922" lon="2.1255">
        <ele>86.4</ele>
        <time>2025-10-25T12:31:32Z</time>
      </trkpt>
      <trkpt lat="48.59923" lon="2.12555">
        <ele>86.6</ele>
        <time>2025-10-25T12:31:33Z</time>
      </trkpt>
      <trkpt lat="48.59924" lon="2.12559">
        <ele>86.6</ele>
        <time>2025-10-25T12:31:34Z</time>
      </trkpt>
      <trkpt lat="48.59925" lon="2.12563">
        <ele>86.6</ele>
        <time>2025-10-25T12:31:35Z</time>
      </trkpt>
      <trkpt lat="48.59926" lon="2.12568">
        <ele>86.8</ele>
        <time>2025-10-25T12:31:36Z</time>
      </trkpt>
      <trkpt lat="48.59927" lon="2.12572">
        <ele>86.8</ele>
        <time>2025-10-25T12:31:37Z</time>
      </trkpt>
      <trkpt lat="48.59928" lon="2.12576">
        <ele>87</ele>
        <time>2025-10-25T12:31:38Z</time>
      </trkpt>
      <trkpt lat="48.59929" lon="2.12581">
        <ele>87</ele>
        <time>2025-10-25T12:31:39Z</time>
      </trkpt>
      <trkpt lat="48.5993" lon="2.12585">
        <ele>87.2</ele>
        <time>2025-10-25T12:31:40Z</time>
      </trkpt>
      <trkpt lat="48.59931" lon="2.12589">
        <ele>87.2</ele>
        <time>2025-10-25T12:31:41Z</time>
      </trkpt>
      <trkpt lat="48.59932" lon="2.12594">
        <ele>87.2</ele>
        <time>2025-10-25T12:31:42Z</time>
      </trkpt>
      <trkpt lat="48.59933" lon="2.12598">
        <ele>87.2</ele>
        <time>2025-10-25T12:31:43Z</time>
      </trkpt>
      <trkpt lat="48.59934" lon="2.12602">
        <ele>87.4</ele>
        <time>2025-10-25T12:31:44Z</time>
      </trkpt>
      <trkpt lat="48.59935" lon="2.12606">
        <ele>87.6</ele>
        <time>2025-10-25T12:31:45Z</time>
      </trkpt>
      <trkpt lat="48.59936" lon="2.1261">
        <ele>87.6</ele>
        <time>2025-10-25T12:31:46Z</time>
      </trkpt>
      <trkpt lat="48.59937" lon="2.12614">
        <ele>87.8</ele>
        <time>2025-10-25T12:31:47Z</time>
      </trkpt>
      <trkpt lat="48.59938" lon="2.12618">
        <ele>87.8</ele>
        <time>2025-10-25T12:31:48Z</time>
      </trkpt>
      <trkpt lat="48.59939" lon="2.12622">
        <ele>88</ele>
        <time>2025-10-25T12:31:49Z</time>
      </trkpt>
      <trkpt lat="48.5994" lon="2.12626">
        <ele>88.2</ele>
        <time>2025-10-25T12:31:50Z</time>
      </trkpt>
      <trkpt lat="48.5994" lon="2.1263">
        <ele>88.4</ele>
        <time>2025-10-25T12:31:51Z</time>
      </trkpt>
      <trkpt lat="48.59941" lon="2.12634">
        <ele>88.6</ele>
        <time>2025-10-25T12:31:52Z</time>
      </trkpt>
      <trkpt lat="48.59942" lon="2.12638">
        <ele>88.8</ele>
        <time>2025-10-25T12:31:53Z</time>
      </trkpt>
      <trkpt lat="48.59943" lon="2.12642">
        <ele>89</ele>
        <time>2025-10-25T12:31:54Z</time>
      </trkpt>
      <trkpt lat="48.59943" lon="2.12646">
        <ele>89.2</ele>
        <time>2025-10-25T12:31:55Z</time>
      </trkpt>
      <trkpt lat="48.59944" lon="2.12649">
        <ele>89.2</ele>
        <time>2025-10-25T12:31:56Z</time>
      </trkpt>
      <trkpt lat="48.59945" lon="2.12652">
        <ele>89.2</ele>
        <time>2025-10-25T12:31:57Z</time>
      </trkpt>
      <trkpt lat="48.59945" lon="2.12655">
        <ele>89.4</ele>
        <time>2025-10-25T12:31:58Z</time>
      </trkpt>
      <trkpt lat="48.59946" lon="2.1266">
        <ele>89.6</ele>
        <time>2025-10-25T12:32:00Z</time>
      </trkpt>
      <trkpt lat="48.59946" lon="2.12664">
        <ele>89.8</ele>
        <time>2025-10-25T12:32:02Z</time>
      </trkpt>
      <trkpt lat="48.59946" lon="2.12669">
        <ele>90</ele>
        <time>2025-10-25T12:32:04Z</time>
      </trkpt>
      <trkpt lat="48.59946" lon="2.12672">
        <ele>90</ele>
        <time>2025-10-25T12:32:05Z</time>
      </trkpt>
      <trkpt lat="48.59946" lon="2.12675">
        <ele>90.2</ele>
        <time>2025-10-25T12:32:06Z</time>
      </trkpt>
      <trkpt lat="48.59946" lon="2.12679">
        <ele>90.2</ele>
        <time>2025-10-25T12:32:07Z</time>
      </trkpt>
      <trkpt lat="48.59946" lon="2.12683">
        <ele>90.4</ele>
        <time>2025-10-25T12:32:08Z</time>
      </trkpt>
      <trkpt lat="48.59946" lon="2.12688">
        <ele>90.4</ele>
        <time>2025-10-25T12:32:09Z</time>
      </trkpt>
      <trkpt lat="48.59947" lon="2.12693">
        <ele>90.6</ele>
        <time>2025-10-25T12:32:10Z</time>
      </trkpt>
      <trkpt lat="48.59947" lon="2.12698">
        <ele>90.6</ele>
        <time>2025-10-25T12:32:11Z</time>
      </trkpt>
      <trkpt lat="48.59948" lon="2.12702">
        <ele>90.8</ele>
        <time>2025-10-25T12:32:12Z</time>
      </trkpt>
      <trkpt lat="48.59948" lon="2.12707">
        <ele>90.8</ele>
        <time>2025-10-25T12:32:13Z</time>
      </trkpt>
      <trkpt lat="48.59949" lon="2.12712">
        <ele>91</ele>
        <time>2025-10-25T12:32:14Z</time>
      </trkpt>
      <trkpt lat="48.59949" lon="2.12717">
        <ele>91</ele>
        <time>2025-10-25T12:32:15Z</time>
      </trkpt>
      <trkpt lat="48.5995" lon="2.12722">
        <ele>91</ele>
        <time>2025-10-25T12:32:16Z</time>
      </trkpt>
      <trkpt lat="48.5995" lon="2.12727">
        <ele>91</ele>
        <time>2025-10-25T12:32:17Z</time>
      </trkpt>
      <trkpt lat="48.59951" lon="2.12733">
        <ele>91</ele>
        <time>2025-10-25T12:32:18Z</time>
      </trkpt>
      <trkpt lat="48.59952" lon="2.12738">
        <ele>91.2</ele>
        <time>2025-10-25T12:32:19Z</time>
      </trkpt>
      <trkpt lat="48.59953" lon="2.12743">
        <ele>91.2</ele>
        <time>2025-10-25T12:32:20Z</time>
      </trkpt>
      <trkpt lat="48.59954" lon="2.12748">
        <ele>91.2</ele>
        <time>2025-10-25T12:32:21Z</time>
      </trkpt>
      <trkpt lat="48.59955" lon="2.12754">
        <ele>91.2</ele>
        <time>2025-10-25T12:32:22Z</time>
      </trkpt>
      <trkpt lat="48.59955" lon="2.12759">
        <ele>91.4</ele>
        <time>2025-10-25T12:32:23Z</time>
      </trkpt>
      <trkpt lat="48.59956" lon="2.12764">
        <ele>91.4</ele>
        <time>2025-10-25T12:32:24Z</time>
      </trkpt>
      <trkpt lat="48.59956" lon="2.12769">
        <ele>91.6</ele>
        <time>2025-10-25T12:32:25Z</time>
      </trkpt>
      <trkpt lat="48.59957" lon="2.12775">
        <ele>91.6</ele>
        <time>2025-10-25T12:32:26Z</time>
      </trkpt>
      <trkpt lat="48.59958" lon="2.1278">
        <ele>91.8</ele>
        <time>2025-10-25T12:32:27Z</time>
      </trkpt>
      <trkpt lat="48.59959" lon="2.12787">
        <ele>91.8</ele>
        <time>2025-10-25T12:32:28Z</time>
      </trkpt>
      <trkpt lat="48.59959" lon="2.12793">
        <ele>92</ele>
        <time>2025-10-25T12:32:29Z</time>
      </trkpt>
      <trkpt lat="48.59961" lon="2.128">
        <ele>92</ele>
        <time>2025-10-25T12:32:30Z</time>
      </trkpt>
      <trkpt lat="48.59961" lon="2.12808">
        <ele>92</ele>
        <time>2025-10-25T12:32:31Z</time>
      </trkpt>
      <trkpt lat="48.59963" lon="2.12816">
        <ele>92.2</ele>
        <time>2025-10-25T12:32:32Z</time>
      </trkpt>
      <trkpt lat="48.59964" lon="2.12824">
        <ele>92.2</ele>
        <time>2025-10-25T12:32:33Z</time>
      </trkpt>
      <trkpt lat="48.59965" lon="2.12832">
        <ele>92.2</ele>
        <time>2025-10-25T12:32:34Z</time>
      </trkpt>
      <trkpt lat="48.59966" lon="2.1284">
        <ele>92.2</ele>
        <time>2025-10-25T12:32:35Z</time>
      </trkpt>
      <trkpt lat="48.59967" lon="2.12848">
        <ele>92.2</ele>
        <time>2025-10-25T12:32:36Z</time>
      </trkpt>
      <trkpt lat="48.59968" lon="2.12856">
        <ele>92.4</ele>
        <time>2025-10-25T12:32:37Z</time>
      </trkpt>
      <trkpt lat="48.59969" lon="2.12864">
        <ele>92.4</ele>
        <time>2025-10-25T12:32:38Z</time>
      </trkpt>
      <trkpt lat="48.5997" lon="2.12872">
        <ele>92.4</ele>
        <time>2025-10-25T12:32:39Z</time>
      </trkpt>
      <trkpt lat="48.59971" lon="2.12879">
        <ele>92.6</ele>
        <time>2025-10-25T12:32:40Z</time>
      </trkpt>
      <trkpt lat="48.59972" lon="2.12887">
        <ele>92.6</ele>
        <time>2025-10-25T12:32:41Z</time>
      </trkpt>
      <trkpt lat="48.59973" lon="2.12894">
        <ele>92.8</ele>
        <time>2025-10-25T12:32:42Z</time>
      </trkpt>
      <trkpt lat="48.59974" lon="2.12901">
        <ele>92.8</ele>
        <time>2025-10-25T12:32:43Z</time>
      </trkpt>
      <trkpt lat="48.59975" lon="2.12908">
        <ele>93</ele>
        <time>2025-10-25T12:32:44Z</time>
      </trkpt>
      <trkpt lat="48.59975" lon="2.12915">
        <ele>93</ele>
        <time>2025-10-25T12:32:45Z</time>
      </trkpt>
      <trkpt lat="48.59977" lon="2.12922">
        <ele>93</ele>
        <time>2025-10-25T12:32:46Z</time>
      </trkpt>
      <trkpt lat="48.59978" lon="2.12929">
        <ele>93.2</ele>
        <time>2025-10-25T12:32:47Z</time>
      </trkpt>
      <trkpt lat="48.59979" lon="2.12937">
        <ele>93.4</ele>
        <time>2025-10-25T12:32:48Z</time>
      </trkpt>
      <trkpt lat="48.59981" lon="2.12944">
        <ele>93.4</ele>
        <time>2025-10-25T12:32:49Z</time>
      </trkpt>
      <trkpt lat="48.59982" lon="2.12952">
        <ele>93.6</ele>
        <time>2025-10-25T12:32:50Z</time>
      </trkpt>
      <trkpt lat="48.59983" lon="2.1296">
        <ele>93.6</ele>
        <time>2025-10-25T12:32:51Z</time>
      </trkpt>
      <trkpt lat="48.59985" lon="2.12967">
        <ele>93.8</ele>
        <time>2025-10-25T12:32:52Z</time>
      </trkpt>
      <trkpt lat="48.59986" lon="2.12975">
        <ele>94</ele>
        <time>2025-10-25T12:32:53Z</time>
      </trkpt>
      <trkpt lat="48.59987" lon="2.12983">
        <ele>94</ele>
        <time>2025-10-25T12:32:54Z</time>
      </trkpt>
      <trkpt lat="48.59988" lon="2.1299">
        <ele>94.2</ele>
        <time>2025-10-25T12:32:55Z</time>
      </trkpt>
      <trkpt lat="48.59989" lon="2.12998">
        <ele>94.2</ele>
        <time>2025-10-25T12:32:56Z</time>
      </trkpt>
      <trkpt lat="48.59991" lon="2.13005">
        <ele>94.4</ele>
        <time>2025-10-25T12:32:57Z</time>
      </trkpt>
      <trkpt lat="48.59991" lon="2.13013">
        <ele>94.4</ele>
        <time>2025-10-25T12:32:58Z</time>
      </trkpt>
      <trkpt lat="48.59993" lon="2.13021">
        <ele>94.6</ele>
        <time>2025-10-25T12:32:59Z</time>
      </trkpt>
      <trkpt lat="48.59994" lon="2.13028">
        <ele>94.6</ele>
        <time>2025-10-25T12:33:00Z</time>
      </trkpt>
      <trkpt lat="48.59996" lon="2.13036">
        <ele>94.6</ele>
        <time>2025-10-25T12:33:01Z</time>
      </trkpt>
      <trkpt lat="48.59997" lon="2.13044">
        <ele>94.6</ele>
        <time>2025-10-25T12:33:02Z</time>
      </trkpt>
      <trkpt lat="48.59999" lon="2.13052">
        <ele>94.8</ele>
        <time>2025-10-25T12:33:03Z</time>
      </trkpt>
      <trkpt lat="48.6" lon="2.1306">
        <ele>94.8</ele>
        <time>2025-10-25T12:33:04Z</time>
      </trkpt>
      <trkpt lat="48.60001" lon="2.13067">
        <ele>94.8</ele>
        <time>2025-10-25T12:33:05Z</time>
      </trkpt>
      <trkpt lat="48.60003" lon="2.13074">
        <ele>94.8</ele>
        <time>2025-10-25T12:33:06Z</time>
      </trkpt>
      <trkpt lat="48.60004" lon="2.13081">
        <ele>95</ele>
        <time>2025-10-25T12:33:07Z</time>
      </trkpt>
      <trkpt lat="48.60005" lon="2.13088">
        <ele>95</ele>
        <time>2025-10-25T12:33:08Z</time>
      </trkpt>
      <trkpt lat="48.60006" lon="2.13094">
        <ele>95</ele>
        <time>2025-10-25T12:33:09Z</time>
      </trkpt>
      <trkpt lat="48.60008" lon="2.13099">
        <ele>95.2</ele>
        <time>2025-10-25T12:33:10Z</time>
      </trkpt>
      <trkpt lat="48.6001" lon="2.13104">
        <ele>95.2</ele>
        <time>2025-10-25T12:33:11Z</time>
      </trkpt>
      <trkpt lat="48.60013" lon="2.13107">
        <ele>95.4</ele>
        <time>2025-10-25T12:33:12Z</time>
      </trkpt>
      <trkpt lat="48.60017" lon="2.13108">
        <ele>95.6</ele>
        <time>2025-10-25T12:33:13Z</time>
      </trkpt>
      <trkpt lat="48.60021" lon="2.13108">
        <ele>95.6</ele>
        <time>2025-10-25T12:33:14Z</time>
      </trkpt>
      <trkpt lat="48.60026" lon="2.13106">
        <ele>95.8</ele>
        <time>2025-10-25T12:33:15Z</time>
      </trkpt>
      <trkpt lat="48.60031" lon="2.13104">
        <ele>95.8</ele>
        <time>2025-10-25T12:33:16Z</time>
      </trkpt>
      <trkpt lat="48.60036" lon="2.131">
        <ele>95.8</ele>
        <time>2025-10-25T12:33:17Z</time>
      </trkpt>
      <trkpt lat="48.60041" lon="2.13097">
        <ele>95.8</ele>
        <time>2025-10-25T12:33:18Z</time>
      </trkpt>
      <trkpt lat="48.60046" lon="2.13094">
        <ele>96</ele>
        <time>2025-10-25T12:33:19Z</time>
      </trkpt>
      <trkpt lat="48.60051" lon="2.13091">
        <ele>96</ele>
        <time>2025-10-25T12:33:20Z</time>
      </trkpt>
      <trkpt lat="48.60056" lon="2.13088">
        <ele>96</ele>
        <time>2025-10-25T12:33:21Z</time>
      </trkpt>
      <trkpt lat="48.60061" lon="2.13086">
        <ele>96</ele>
        <time>2025-10-25T12:33:22Z</time>
      </trkpt>
      <trkpt lat="48.60067" lon="2.13085">
        <ele>96</ele>
        <time>2025-10-25T12:33:23Z</time>
      </trkpt>
      <trkpt lat="48.60072" lon="2.13083">
        <ele>96</ele>
        <time>2025-10-25T12:33:24Z</time>
      </trkpt>
      <trkpt lat="48.60078" lon="2.13082">
        <ele>96</ele>
        <time>2025-10-25T12:33:25Z</time>
      </trkpt>
      <trkpt lat="48.60084" lon="2.13081">
        <ele>96</ele>
        <time>2025-10-25T12:33:26Z</time>
      </trkpt>
      <trkpt lat="48.60089" lon="2.13079">
        <ele>96.2</ele>
        <time>2025-10-25T12:33:27Z</time>
      </trkpt>
      <trkpt lat="48.60095" lon="2.13078">
        <ele>96.2</ele>
        <time>2025-10-25T12:33:28Z</time>
      </trkpt>
      <trkpt lat="48.601" lon="2.13076">
        <ele>96.4</ele>
        <time>2025-10-25T12:33:29Z</time>
      </trkpt>
      <trkpt lat="48.60106" lon="2.13075">
        <ele>96.4</ele>
        <time>2025-10-25T12:33:30Z</time>
      </trkpt>
      <trkpt lat="48.60112" lon="2.13074">
        <ele>96.6</ele>
        <time>2025-10-25T12:33:31Z</time>
      </trkpt>
      <trkpt lat="48.60117" lon="2.13073">
        <ele>96.6</ele>
        <time>2025-10-25T12:33:32Z</time>
      </trkpt>
      <trkpt lat="48.60123" lon="2.13072">
        <ele>96.8</ele>
        <time>2025-10-25T12:33:33Z</time>
      </trkpt>
      <trkpt lat="48.60129" lon="2.13071">
        <ele>97</ele>
        <time>2025-10-25T12:33:34Z</time>
      </trkpt>
      <trkpt lat="48.60134" lon="2.1307">
        <ele>97.2</ele>
        <time>2025-10-25T12:33:35Z</time>
      </trkpt>
      <trkpt lat="48.6014" lon="2.13069">
        <ele>97.2</ele>
        <time>2025-10-25T12:33:36Z</time>
      </trkpt>
      <trkpt lat="48.60146" lon="2.13068">
        <ele>97.4</ele>
        <time>2025-10-25T12:33:37Z</time>
      </trkpt>
      <trkpt lat="48.60152" lon="2.13066">
        <ele>97.4</ele>
        <time>2025-10-25T12:33:38Z</time>
      </trkpt>
      <trkpt lat="48.60158" lon="2.13065">
        <ele>97.4</ele>
        <time>2025-10-25T12:33:39Z</time>
      </trkpt>
      <trkpt lat="48.60164" lon="2.13063">
        <ele>97.6</ele>
        <time>2025-10-25T12:33:40Z</time>
      </trkpt>
      <trkpt lat="48.6017" lon="2.13062">
        <ele>97.6</ele>
        <time>2025-10-25T12:33:41Z</time>
      </trkpt>
      <trkpt lat="48.60175" lon="2.1306">
        <ele>97.6</ele>
        <time>2025-10-25T12:33:42Z</time>
      </trkpt>
      <trkpt lat="48.60181" lon="2.13059">
        <ele>97.8</ele>
        <time>2025-10-25T12:33:43Z</time>
      </trkpt>
      <trkpt lat="48.60186" lon="2.13058">
        <ele>97.8</ele>
        <time>2025-10-25T12:33:44Z</time>
      </trkpt>
      <trkpt lat="48.60192" lon="2.13056">
        <ele>98</ele>
        <time>2025-10-25T12:33:45Z</time>
      </trkpt>
      <trkpt lat="48.60197" lon="2.13055">
        <ele>98</ele>
        <time>2025-10-25T12:33:46Z</time>
      </trkpt>
      <trkpt lat="48.60203" lon="2.13054">
        <ele>98.2</ele>
        <time>2025-10-25T12:33:47Z</time>
      </trkpt>
      <trkpt lat="48.60207" lon="2.13053">
        <ele>98.2</ele>
        <time>2025-10-25T12:33:48Z</time>
      </trkpt>
      <trkpt lat="48.60212" lon="2.13052">
        <ele>98.4</ele>
        <time>2025-10-25T12:33:49Z</time>
      </trkpt>
      <trkpt lat="48.60217" lon="2.13051">
        <ele>98.4</ele>
        <time>2025-10-25T12:33:50Z</time>
      </trkpt>
      <trkpt lat="48.60221" lon="2.13049">
        <ele>98.6</ele>
        <time>2025-10-25T12:33:51Z</time>
      </trkpt>
      <trkpt lat="48.60226" lon="2.13048">
        <ele>98.6</ele>
        <time>2025-10-25T12:33:52Z</time>
      </trkpt>
      <trkpt lat="48.6023" lon="2.13047">
        <ele>98.8</ele>
        <time>2025-10-25T12:33:53Z</time>
      </trkpt>
      <trkpt lat="48.60235" lon="2.13046">
        <ele>98.8</ele>
        <time>2025-10-25T12:33:54Z</time>
      </trkpt>
      <trkpt lat="48.60239" lon="2.13045">
        <ele>98.8</ele>
        <time>2025-10-25T12:33:55Z</time>
      </trkpt>
      <trkpt lat="48.60243" lon="2.13044">
        <ele>99</ele>
        <time>2025-10-25T12:33:56Z</time>
      </trkpt>
      <trkpt lat="48.60247" lon="2.13043">
        <ele>99</ele>
        <time>2025-10-25T12:33:57Z</time>
      </trkpt>
      <trkpt lat="48.60251" lon="2.13042">
        <ele>99</ele>
        <time>2025-10-25T12:33:58Z</time>
      </trkpt>
      <trkpt lat="48.60254" lon="2.13041">
        <ele>99</ele>
        <time>2025-10-25T12:33:59Z</time>
      </trkpt>
      <trkpt lat="48.60258" lon="2.13041">
        <ele>99</ele>
        <time>2025-10-25T12:34:00Z</time>
      </trkpt>
      <trkpt lat="48.60261" lon="2.1304">
        <ele>99</ele>
        <time>2025-10-25T12:34:01Z</time>
      </trkpt>
      <trkpt lat="48.60265" lon="2.13039">
        <ele>99</ele>
        <time>2025-10-25T12:34:02Z</time>
      </trkpt>
      <trkpt lat="48.60268" lon="2.13038">
        <ele>99</ele>
        <time>2025-10-25T12:34:03Z</time>
      </trkpt>
      <trkpt lat="48.60271" lon="2.13038">
        <ele>99</ele>
        <time>2025-10-25T12:34:04Z</time>
      </trkpt>
      <trkpt lat="48.60274" lon="2.13037">
        <ele>99</ele>
        <time>2025-10-25T12:34:05Z</time>
      </trkpt>
      <trkpt lat="48.60277" lon="2.13036">
        <ele>99.2</ele>
        <time>2025-10-25T12:34:06Z</time>
      </trkpt>
      <trkpt lat="48.6028" lon="2.13035">
        <ele>99.2</ele>
        <time>2025-10-25T12:34:07Z</time>
      </trkpt>
      <trkpt lat="48.60283" lon="2.13034">
        <ele>99.4</ele>
        <time>2025-10-25T12:34:08Z</time>
      </trkpt>
      <trkpt lat="48.60286" lon="2.13033">
        <ele>99.4</ele>
        <time>2025-10-25T12:34:09Z</time>
      </trkpt>
      <trkpt lat="48.60289" lon="2.13032">
        <ele>99.6</ele>
        <time>2025-10-25T12:34:10Z</time>
      </trkpt>
      <trkpt lat="48.60292" lon="2.13031">
        <ele>99.6</ele>
        <time>2025-10-25T12:34:11Z</time>
      </trkpt>
      <trkpt lat="48.60294" lon="2.1303">
        <ele>99.8</ele>
        <time>2025-10-25T12:34:12Z</time>
      </trkpt>
      <trkpt lat="48.60296" lon="2.1303">
        <ele>99.8</ele>
        <time>2025-10-25T12:34:13Z</time>
      </trkpt>
      <trkpt lat="48.60298" lon="2.13029">
        <ele>99.8</ele>
        <time>2025-10-25T12:34:14Z</time>
      </trkpt>
      <trkpt lat="48.603" lon="2.13029">
        <ele>99.8</ele>
        <time>2025-10-25T12:34:15Z</time>
      </trkpt>
      <trkpt lat="48.60303" lon="2.13028">
        <ele>100</ele>
        <time>2025-10-25T12:34:17Z</time>
      </trkpt>
      <trkpt lat="48.60305" lon="2.13028">
        <ele>100</ele>
        <time>2025-10-25T12:34:19Z</time>
      </trkpt>
      <trkpt lat="48.60308" lon="2.13028">
        <ele>100</ele>
        <time>2025-10-25T12:34:21Z</time>
      </trkpt>
      <trkpt lat="48.6031" lon="2.13027">
        <ele>100</ele>
        <time>2025-10-25T12:34:23Z</time>
      </trkpt>
      <trkpt lat="48.60313" lon="2.13026">
        <ele>100.2</ele>
        <time>2025-10-25T12:34:25Z</time>
      </trkpt>
      <trkpt lat="48.60316" lon="2.13025">
        <ele>100.2</ele>
        <time>2025-10-25T12:34:27Z</time>
      </trkpt>
      <trkpt lat="48.60319" lon="2.13024">
        <ele>100.2</ele>
        <time>2025-10-25T12:34:29Z</time>
      </trkpt>
      <trkpt lat="48.60322" lon="2.13022">
        <ele>100.2</ele>
        <time>2025-10-25T12:34:31Z</time>
      </trkpt>
      <trkpt lat="48.60324" lon="2.13021">
        <ele>100.4</ele>
        <time>2025-10-25T12:34:33Z</time>
      </trkpt>
      <trkpt lat="48.60327" lon="2.1302">
        <ele>100.6</ele>
        <time>2025-10-25T12:34:35Z</time>
      </trkpt>
      <trkpt lat="48.60329" lon="2.13019">
        <ele>100.8</ele>
        <time>2025-10-25T12:34:37Z</time>
      </trkpt>
      <trkpt lat="48.60332" lon="2.13017">
        <ele>101</ele>
        <time>2025-10-25T12:34:39Z</time>
      </trkpt>
      <trkpt lat="48.60334" lon="2.13015">
        <ele>101.2</ele>
        <time>2025-10-25T12:34:41Z</time>
      </trkpt>
      <trkpt lat="48.60337" lon="2.13013">
        <ele>101.2</ele>
        <time>2025-10-25T12:34:43Z</time>
      </trkpt>
      <trkpt lat="48.60339" lon="2.13011">
        <ele>101.4</ele>
        <time>2025-10-25T12:34:45Z</time>
      </trkpt>
      <trkpt lat="48.60342" lon="2.1301">
        <ele>101.4</ele>
        <time>2025-10-25T12:34:47Z</time>
      </trkpt>
      <trkpt lat="48.60344" lon="2.13009">
        <ele>101.4</ele>
        <time>2025-10-25T12:34:49Z</time>
      </trkpt>
      <trkpt lat="48.60346" lon="2.13008">
        <ele>101.6</ele>
        <time>2025-10-25T12:34:51Z</time>
      </trkpt>
      <trkpt lat="48.60349" lon="2.13007">
        <ele>101.6</ele>
        <time>2025-10-25T12:34:53Z</time>
      </trkpt>
      <trkpt lat="48.60352" lon="2.13006">
        <ele>101.6</ele>
        <time>2025-10-25T12:34:55Z</time>
      </trkpt>
      <trkpt lat="48.60355" lon="2.13004">
        <ele>101.4</ele>
        <time>2025-10-25T12:34:57Z</time>
      </trkpt>
      <trkpt lat="48.60357" lon="2.13003">
        <ele>101.2</ele>
        <time>2025-10-25T12:34:59Z</time>
      </trkpt>
      <trkpt lat="48.6036" lon="2.13002">
        <ele>101.2</ele>
        <time>2025-10-25T12:35:01Z</time>
      </trkpt>
      <trkpt lat="48.60363" lon="2.13">
        <ele>101.2</ele>
        <time>2025-10-25T12:35:03Z</time>
      </trkpt>
      <trkpt lat="48.60366" lon="2.12999">
        <ele>101</ele>
        <time>2025-10-25T12:35:05Z</time>
      </trkpt>
      <trkpt lat="48.60369" lon="2.12998">
        <ele>100.8</ele>
        <time>2025-10-25T12:35:07Z</time>
      </trkpt>
      <trkpt lat="48.60372" lon="2.12996">
        <ele>100.6</ele>
        <time>2025-10-25T12:35:09Z</time>
      </trkpt>
      <trkpt lat="48.60374" lon="2.12995">
        <ele>100.6</ele>
        <time>2025-10-25T12:35:11Z</time>
      </trkpt>
      <trkpt lat="48.60377" lon="2.12994">
        <ele>100.4</ele>
        <time>2025-10-25T12:35:13Z</time>
      </trkpt>
      <trkpt lat="48.6038" lon="2.12992">
        <ele>100.4</ele>
        <time>2025-10-25T12:35:15Z</time>
      </trkpt>
      <trkpt lat="48.60382" lon="2.12991">
        <ele>100.2</ele>
        <time>2025-10-25T12:35:17Z</time>
      </trkpt>
      <trkpt lat="48.60385" lon="2.1299">
        <ele>100.4</ele>
        <time>2025-10-25T12:35:19Z</time>
      </trkpt>
      <trkpt lat="48.60388" lon="2.12989">
        <ele>100.4</ele>
        <time>2025-10-25T12:35:21Z</time>
      </trkpt>
      <trkpt lat="48.6039" lon="2.12988">
        <ele>100.4</ele>
        <time>2025-10-25T12:35:23Z</time>
      </trkpt>
      <trkpt lat="48.60392" lon="2.12987">
        <ele>100.4</ele>
        <time>2025-10-25T12:35:25Z</time>
      </trkpt>
      <trkpt lat="48.60395" lon="2.12985">
        <ele>100.4</ele>
        <time>2025-10-25T12:35:27Z</time>
      </trkpt>
      <trkpt lat="48.60398" lon="2.12983">
        <ele>100.2</ele>
        <time>2025-10-25T12:35:29Z</time>
      </trkpt>
      <trkpt lat="48.604" lon="2.12982">
        <ele>100.2</ele>
        <time>2025-10-25T12:35:31Z</time>
      </trkpt>
      <trkpt lat="48.60402" lon="2.12981">
        <ele>100.2</ele>
        <time>2025-10-25T12:35:33Z</time>
      </trkpt>
      <trkpt lat="48.60405" lon="2.12981">
        <ele>100.2</ele>
        <time>2025-10-25T12:35:35Z</time>
      </trkpt>
      <trkpt lat="48.60407" lon="2.1298">
        <ele>100.2</ele>
        <time>2025-10-25T12:35:37Z</time>
      </trkpt>
      <trkpt lat="48.6041" lon="2.12979">
        <ele>100</ele>
        <time>2025-10-25T12:35:39Z</time>
      </trkpt>
      <trkpt lat="48.60412" lon="2.12978">
        <ele>100</ele>
        <time>2025-10-25T12:35:41Z</time>
      </trkpt>
      <trkpt lat="48.60415" lon="2.12977">
        <ele>100</ele>
        <time>2025-10-25T12:35:43Z</time>
      </trkpt>
      <trkpt lat="48.60418" lon="2.12975">
        <ele>99.8</ele>
        <time>2025-10-25T12:35:45Z</time>
      </trkpt>
      <trkpt lat="48.6042" lon="2.12974">
        <ele>99.8</ele>
        <time>2025-10-25T12:35:47Z</time>
      </trkpt>
      <trkpt lat="48.60424" lon="2.12973">
        <ele>99.6</ele>
        <time>2025-10-25T12:35:49Z</time>
      </trkpt>
      <trkpt lat="48.60427" lon="2.12972">
        <ele>99.6</ele>
        <time>2025-10-25T12:35:51Z</time>
      </trkpt>
      <trkpt lat="48.6043" lon="2.12971">
        <ele>99.4</ele>
        <time>2025-10-25T12:35:53Z</time>
      </trkpt>
      <trkpt lat="48.60432" lon="2.1297">
        <ele>99.2</ele>
        <time>2025-10-25T12:35:55Z</time>
      </trkpt>
      <trkpt lat="48.60435" lon="2.12969">
        <ele>99</ele>
        <time>2025-10-25T12:35:57Z</time>
      </trkpt>
      <trkpt lat="48.60438" lon="2.12967">
        <ele>99.2</ele>
        <time>2025-10-25T12:35:59Z</time>
      </trkpt>
      <trkpt lat="48.60441" lon="2.12966">
        <ele>99.2</ele>
        <time>2025-10-25T12:36:01Z</time>
      </trkpt>
      <trkpt lat="48.60444" lon="2.12964">
        <ele>99</ele>
        <time>2025-10-25T12:36:03Z</time>
      </trkpt>
      <trkpt lat="48.60446" lon="2.12962">
        <ele>99</ele>
        <time>2025-10-25T12:36:05Z</time>
      </trkpt>
      <trkpt lat="48.60448" lon="2.12961">
        <ele>98.8</ele>
        <time>2025-10-25T12:36:07Z</time>
      </trkpt>
      <trkpt lat="48.60451" lon="2.1296">
        <ele>98.6</ele>
        <time>2025-10-25T12:36:09Z</time>
      </trkpt>
      <trkpt lat="48.60453" lon="2.12958">
        <ele>98.6</ele>
        <time>2025-10-25T12:36:11Z</time>
      </trkpt>
      <trkpt lat="48.60456" lon="2.12957">
        <ele>98.6</ele>
        <time>2025-10-25T12:36:13Z</time>
      </trkpt>
      <trkpt lat="48.60458" lon="2.12956">
        <ele>98.4</ele>
        <time>2025-10-25T12:36:15Z</time>
      </trkpt>
      <trkpt lat="48.60461" lon="2.12955">
        <ele>98.4</ele>
        <time>2025-10-25T12:36:17Z</time>
      </trkpt>
      <trkpt lat="48.60464" lon="2.12954">
        <ele>98.2</ele>
        <time>2025-10-25T12:36:19Z</time>
      </trkpt>
      <trkpt lat="48.60466" lon="2.12953">
        <ele>98</ele>
        <time>2025-10-25T12:36:21Z</time>
      </trkpt>
      <trkpt lat="48.60469" lon="2.12952">
        <ele>98</ele>
        <time>2025-10-25T12:36:23Z</time>
      </trkpt>
      <trkpt lat="48.60471" lon="2.12951">
        <ele>97.8</ele>
        <time>2025-10-25T12:36:25Z</time>
      </trkpt>
      <trkpt lat="48.60474" lon="2.1295">
        <ele>97.8</ele>
        <time>2025-10-25T12:36:27Z</time>
      </trkpt>
      <trkpt lat="48.60477" lon="2.12949">
        <ele>97.6</ele>
        <time>2025-10-25T12:36:29Z</time>
      </trkpt>
      <trkpt lat="48.60479" lon="2.12948">
        <ele>97.4</ele>
        <time>2025-10-25T12:36:31Z</time>
      </trkpt>
      <trkpt lat="48.60483" lon="2.12947">
        <ele>97.2</ele>
        <time>2025-10-25T12:36:33Z</time>
      </trkpt>
      <trkpt lat="48.60485" lon="2.12945">
        <ele>97.2</ele>
        <time>2025-10-25T12:36:35Z</time>
      </trkpt>
      <trkpt lat="48.60489" lon="2.12944">
        <ele>97.2</ele>
        <time>2025-10-25T12:36:37Z</time>
      </trkpt>
      <trkpt lat="48.60492" lon="2.12942">
        <ele>97</ele>
        <time>2025-10-25T12:36:39Z</time>
      </trkpt>
      <trkpt lat="48.60494" lon="2.12941">
        <ele>96.8</ele>
        <time>2025-10-25T12:36:41Z</time>
      </trkpt>
      <trkpt lat="48.60497" lon="2.12939">
        <ele>96.8</ele>
        <time>2025-10-25T12:36:43Z</time>
      </trkpt>
      <trkpt lat="48.605" lon="2.12937">
        <ele>97</ele>
        <time>2025-10-25T12:36:45Z</time>
      </trkpt>
      <trkpt lat="48.60503" lon="2.12936">
        <ele>97</ele>
        <time>2025-10-25T12:36:47Z</time>
      </trkpt>
      <trkpt lat="48.60506" lon="2.12935">
        <ele>96.8</ele>
        <time>2025-10-25T12:36:49Z</time>
      </trkpt>
      <trkpt lat="48.60508" lon="2.12933">
        <ele>97</ele>
        <time>2025-10-25T12:36:51Z</time>
      </trkpt>
      <trkpt lat="48.60511" lon="2.12931">
        <ele>96.8</ele>
        <time>2025-10-25T12:36:53Z</time>
      </trkpt>
      <trkpt lat="48.60514" lon="2.1293">
        <ele>96.8</ele>
        <time>2025-10-25T12:36:55Z</time>
      </trkpt>
      <trkpt lat="48.60517" lon="2.12928">
        <ele>96.6</ele>
        <time>2025-10-25T12:36:57Z</time>
      </trkpt>
      <trkpt lat="48.6052" lon="2.12927">
        <ele>96.6</ele>
        <time>2025-10-25T12:36:59Z</time>
      </trkpt>
      <trkpt lat="48.60523" lon="2.12925">
        <ele>96.4</ele>
        <time>2025-10-25T12:37:01Z</time>
      </trkpt>
      <trkpt lat="48.60525" lon="2.12923">
        <ele>96.2</ele>
        <time>2025-10-25T12:37:03Z</time>
      </trkpt>
      <trkpt lat="48.60527" lon="2.12921">
        <ele>96.2</ele>
        <time>2025-10-25T12:37:05Z</time>
      </trkpt>
      <trkpt lat="48.6053" lon="2.12919">
        <ele>96</ele>
        <time>2025-10-25T12:37:07Z</time>
      </trkpt>
      <trkpt lat="48.60533" lon="2.12917">
        <ele>96</ele>
        <time>2025-10-25T12:37:09Z</time>
      </trkpt>
      <trkpt lat="48.60535" lon="2.12916">
        <ele>96.2</ele>
        <time>2025-10-25T12:37:11Z</time>
      </trkpt>
      <trkpt lat="48.60538" lon="2.12914">
        <ele>96.2</ele>
        <time>2025-10-25T12:37:13Z</time>
      </trkpt>
      <trkpt lat="48.6054" lon="2.12912">
        <ele>96.2</ele>
        <time>2025-10-25T12:37:15Z</time>
      </trkpt>
      <trkpt lat="48.60543" lon="2.1291">
        <ele>96.2</ele>
        <time>2025-10-25T12:37:17Z</time>
      </trkpt>
      <trkpt lat="48.60546" lon="2.12908">
        <ele>96</ele>
        <time>2025-10-25T12:37:19Z</time>
      </trkpt>
      <trkpt lat="48.60548" lon="2.12906">
        <ele>96</ele>
        <time>2025-10-25T12:37:21Z</time>
      </trkpt>
      <trkpt lat="48.60551" lon="2.12904">
        <ele>95.8</ele>
        <time>2025-10-25T12:37:23Z</time>
      </trkpt>
      <trkpt lat="48.60553" lon="2.12902">
        <ele>95.6</ele>
        <time>2025-10-25T12:37:25Z</time>
      </trkpt>
      <trkpt lat="48.60556" lon="2.129">
        <ele>95.4</ele>
        <time>2025-10-25T12:37:27Z</time>
      </trkpt>
      <trkpt lat="48.60558" lon="2.12898">
        <ele>95.2</ele>
        <time>2025-10-25T12:37:29Z</time>
      </trkpt>
      <trkpt lat="48.60561" lon="2.12896">
        <ele>95</ele>
        <time>2025-10-25T12:37:31Z</time>
      </trkpt>
      <trkpt lat="48.60563" lon="2.12894">
        <ele>94.8</ele>
        <time>2025-10-25T12:37:33Z</time>
      </trkpt>
      <trkpt lat="48.60566" lon="2.12892">
        <ele>94.6</ele>
        <time>2025-10-25T12:37:35Z</time>
      </trkpt>
      <trkpt lat="48.60568" lon="2.1289">
        <ele>94.6</ele>
        <time>2025-10-25T12:37:37Z</time>
      </trkpt>
      <trkpt lat="48.60571" lon="2.12887">
        <ele>94.4</ele>
        <time>2025-10-25T12:37:39Z</time>
      </trkpt>
      <trkpt lat="48.60573" lon="2.12885">
        <ele>94.4</ele>
        <time>2025-10-25T12:37:41Z</time>
      </trkpt>
      <trkpt lat="48.60575" lon="2.12882">
        <ele>94.4</ele>
        <time>2025-10-25T12:37:43Z</time>
      </trkpt>
      <trkpt lat="48.60577" lon="2.1288">
        <ele>94.4</ele>
        <time>2025-10-25T12:37:45Z</time>
      </trkpt>
      <trkpt lat="48.6058" lon="2.12877">
        <ele>94.2</ele>
        <time>2025-10-25T12:37:47Z</time>
      </trkpt>
      <trkpt lat="48.60582" lon="2.12875">
        <ele>94.2</ele>
        <time>2025-10-25T12:37:49Z</time>
      </trkpt>
      <trkpt lat="48.60585" lon="2.12872">
        <ele>94.2</ele>
        <time>2025-10-25T12:37:51Z</time>
      </trkpt>
      <trkpt lat="48.60587" lon="2.1287">
        <ele>94.2</ele>
        <time>2025-10-25T12:37:53Z</time>
      </trkpt>
      <trkpt lat="48.60589" lon="2.12867">
        <ele>94.2</ele>
        <time>2025-10-25T12:37:55Z</time>
      </trkpt>
      <trkpt lat="48.60591" lon="2.12865">
        <ele>94</ele>
        <time>2025-10-25T12:37:57Z</time>
      </trkpt>
      <trkpt lat="48.60594" lon="2.12863">
        <ele>94</ele>
        <time>2025-10-25T12:37:59Z</time>
      </trkpt>
      <trkpt lat="48.60596" lon="2.1286">
        <ele>93.8</ele>
        <time>2025-10-25T12:38:01Z</time>
      </trkpt>
      <trkpt lat="48.60598" lon="2.12858">
        <ele>93.8</ele>
        <time>2025-10-25T12:38:03Z</time>
      </trkpt>
      <trkpt lat="48.60601" lon="2.12855">
        <ele>94</ele>
        <time>2025-10-25T12:38:05Z</time>
      </trkpt>
      <trkpt lat="48.60603" lon="2.12852">
        <ele>94.2</ele>
        <time>2025-10-25T12:38:07Z</time>
      </trkpt>
      <trkpt lat="48.60605" lon="2.12849">
        <ele>94</ele>
        <time>2025-10-25T12:38:09Z</time>
      </trkpt>
      <trkpt lat="48.60607" lon="2.12846">
        <ele>94</ele>
        <time>2025-10-25T12:38:11Z</time>
      </trkpt>
      <trkpt lat="48.60609" lon="2.12842">
        <ele>93.8</ele>
        <time>2025-10-25T12:38:13Z</time>
      </trkpt>
      <trkpt lat="48.60611" lon="2.12839">
        <ele>93.8</ele>
        <time>2025-10-25T12:38:15Z</time>
      </trkpt>
      <trkpt lat="48.60613" lon="2.12836">
        <ele>93.8</ele>
        <time>2025-10-25T12:38:17Z</time>
      </trkpt>
      <trkpt lat="48.60615" lon="2.12833">
        <ele>93.8</ele>
        <time>2025-10-25T12:38:19Z</time>
      </trkpt>
      <trkpt lat="48.60617" lon="2.12829">
        <ele>93.6</ele>
        <time>2025-10-25T12:38:21Z</time>
      </trkpt>
      <trkpt lat="48.60619" lon="2.12826">
        <ele>93.6</ele>
        <time>2025-10-25T12:38:23Z</time>
      </trkpt>
      <trkpt lat="48.60621" lon="2.12823">
        <ele>93.6</ele>
        <time>2025-10-25T12:38:25Z</time>
      </trkpt>
      <trkpt lat="48.60622" lon="2.12819">
        <ele>93.6</ele>
        <time>2025-10-25T12:38:27Z</time>
      </trkpt>
      <trkpt lat="48.60624" lon="2.12816">
        <ele>93.6</ele>
        <time>2025-10-25T12:38:29Z</time>
      </trkpt>
      <trkpt lat="48.60626" lon="2.12812">
        <ele>93.8</ele>
        <time>2025-10-25T12:38:31Z</time>
      </trkpt>
      <trkpt lat="48.60627" lon="2.12808">
        <ele>93.8</ele>
        <time>2025-10-25T12:38:33Z</time>
      </trkpt>
      <trkpt lat="48.60628" lon="2.12804">
        <ele>94</ele>
        <time>2025-10-25T12:38:35Z</time>
      </trkpt>
      <trkpt lat="48.60629" lon="2.12799">
        <ele>94</ele>
        <time>2025-10-25T12:38:37Z</time>
      </trkpt>
      <trkpt lat="48.6063" lon="2.12795">
        <ele>94</ele>
        <time>2025-10-25T12:38:39Z</time>
      </trkpt>
      <trkpt lat="48.60631" lon="2.1279">
        <ele>94</ele>
        <time>2025-10-25T12:38:41Z</time>
      </trkpt>
      <trkpt lat="48.60631" lon="2.12786">
        <ele>93.8</ele>
        <time>2025-10-25T12:38:43Z</time>
      </trkpt>
      <trkpt lat="48.60631" lon="2.12781">
        <ele>93.6</ele>
        <time>2025-10-25T12:38:45Z</time>
      </trkpt>
      <trkpt lat="48.6063" lon="2.12776">
        <ele>93.6</ele>
        <time>2025-10-25T12:38:47Z</time>
      </trkpt>
      <trkpt lat="48.6063" lon="2.12771">
        <ele>93.4</ele>
        <time>2025-10-25T12:38:49Z</time>
      </trkpt>
      <trkpt lat="48.6063" lon="2.12766">
        <ele>93.2</ele>
        <time>2025-10-25T12:38:51Z</time>
      </trkpt>
      <trkpt lat="48.60629" lon="2.12761">
        <ele>93.2</ele>
        <time>2025-10-25T12:38:53Z</time>
      </trkpt>
      <trkpt lat="48.60628" lon="2.12756">
        <ele>93</ele>
        <time>2025-10-25T12:38:55Z</time>
      </trkpt>
      <trkpt lat="48.60628" lon="2.12751">
        <ele>93</ele>
        <time>2025-10-25T12:38:57Z</time>
      </trkpt>
      <trkpt lat="48.60627" lon="2.12746">
        <ele>92.8</ele>
        <time>2025-10-25T12:38:59Z</time>
      </trkpt>
      <trkpt lat="48.60626" lon="2.12741">
        <ele>92.8</ele>
        <time>2025-10-25T12:39:01Z</time>
      </trkpt>
      <trkpt lat="48.60626" lon="2.12736">
        <ele>92.6</ele>
        <time>2025-10-25T12:39:03Z</time>
      </trkpt>
      <trkpt lat="48.60625" lon="2.12731">
        <ele>92.4</ele>
        <time>2025-10-25T12:39:05Z</time>
      </trkpt>
      <trkpt lat="48.60624" lon="2.12726">
        <ele>92.2</ele>
        <time>2025-10-25T12:39:07Z</time>
      </trkpt>
      <trkpt lat="48.60623" lon="2.12722">
        <ele>92.4</ele>
        <time>2025-10-25T12:39:09Z</time>
      </trkpt>
      <trkpt lat="48.60622" lon="2.12718">
        <ele>92.4</ele>
        <time>2025-10-25T12:39:11Z</time>
      </trkpt>
      <trkpt lat="48.60621" lon="2.12713">
        <ele>92.2</ele>
        <time>2025-10-25T12:39:13Z</time>
      </trkpt>
      <trkpt lat="48.6062" lon="2.12709">
        <ele>92.2</ele>
        <time>2025-10-25T12:39:15Z</time>
      </trkpt>
      <trkpt lat="48.6062" lon="2.12704">
        <ele>92</ele>
        <time>2025-10-25T12:39:17Z</time>
      </trkpt>
      <trkpt lat="48.60619" lon="2.127">
        <ele>92</ele>
        <time>2025-10-25T12:39:19Z</time>
      </trkpt>
      <trkpt lat="48.60618" lon="2.12695">
        <ele>92</ele>
        <time>2025-10-25T12:39:21Z</time>
      </trkpt>
      <trkpt lat="48.60618" lon="2.12691">
        <ele>91.8</ele>
        <time>2025-10-25T12:39:23Z</time>
      </trkpt>
      <trkpt lat="48.60618" lon="2.12686">
        <ele>91.6</ele>
        <time>2025-10-25T12:39:25Z</time>
      </trkpt>
      <trkpt lat="48.60617" lon="2.12682">
        <ele>91.6</ele>
        <time>2025-10-25T12:39:27Z</time>
      </trkpt>
      <trkpt lat="48.60616" lon="2.12677">
        <ele>91.8</ele>
        <time>2025-10-25T12:39:29Z</time>
      </trkpt>
      <trkpt lat="48.60615" lon="2.12673">
        <ele>91.8</ele>
        <time>2025-10-25T12:39:31Z</time>
      </trkpt>
      <trkpt lat="48.60615" lon="2.12668">
        <ele>91.6</ele>
        <time>2025-10-25T12:39:33Z</time>
      </trkpt>
      <trkpt lat="48.60614" lon="2.12663">
        <ele>91.4</ele>
        <time>2025-10-25T12:39:35Z</time>
      </trkpt>
      <trkpt lat="48.60614" lon="2.12658">
        <ele>91.4</ele>
        <time>2025-10-25T12:39:37Z</time>
      </trkpt>
      <trkpt lat="48.60613" lon="2.12654">
        <ele>91.2</ele>
        <time>2025-10-25T12:39:39Z</time>
      </trkpt>
      <trkpt lat="48.60612" lon="2.12649">
        <ele>91</ele>
        <time>2025-10-25T12:39:41Z</time>
      </trkpt>
      <trkpt lat="48.60612" lon="2.12645">
        <ele>90.8</ele>
        <time>2025-10-25T12:39:43Z</time>
      </trkpt>
      <trkpt lat="48.60611" lon="2.1264">
        <ele>90.4</ele>
        <time>2025-10-25T12:39:45Z</time>
      </trkpt>
      <trkpt lat="48.60611" lon="2.12635">
        <ele>90.2</ele>
        <time>2025-10-25T12:39:47Z</time>
      </trkpt>
      <trkpt lat="48.6061" lon="2.12631">
        <ele>90.2</ele>
        <time>2025-10-25T12:39:49Z</time>
      </trkpt>
      <trkpt lat="48.60609" lon="2.12627">
        <ele>90.2</ele>
        <time>2025-10-25T12:39:51Z</time>
      </trkpt>
      <trkpt lat="48.60609" lon="2.12622">
        <ele>90</ele>
        <time>2025-10-25T12:39:53Z</time>
      </trkpt>
      <trkpt lat="48.60608" lon="2.12618">
        <ele>90</ele>
        <time>2025-10-25T12:39:55Z</time>
      </trkpt>
      <trkpt lat="48.60608" lon="2.12613">
        <ele>90</ele>
        <time>2025-10-25T12:39:57Z</time>
      </trkpt>
      <trkpt lat="48.60608" lon="2.12609">
        <ele>90</ele>
        <time>2025-10-25T12:39:59Z</time>
      </trkpt>
      <trkpt lat="48.60607" lon="2.12604">
        <ele>90</ele>
        <time>2025-10-25T12:40:01Z</time>
      </trkpt>
      <trkpt lat="48.60606" lon="2.126">
        <ele>90.2</ele>
        <time>2025-10-25T12:40:03Z</time>
      </trkpt>
      <trkpt lat="48.60606" lon="2.12596">
        <ele>90.2</ele>
        <time>2025-10-25T12:40:05Z</time>
      </trkpt>
      <trkpt lat="48.60605" lon="2.12592">
        <ele>90</ele>
        <time>2025-10-25T12:40:07Z</time>
      </trkpt>
      <trkpt lat="48.60604" lon="2.12587">
        <ele>89.8</ele>
        <time>2025-10-25T12:40:09Z</time>
      </trkpt>
      <trkpt lat="48.60604" lon="2.12583">
        <ele>89.8</ele>
        <time>2025-10-25T12:40:11Z</time>
      </trkpt>
      <trkpt lat="48.60603" lon="2.12578">
        <ele>89.8</ele>
        <time>2025-10-25T12:40:13Z</time>
      </trkpt>
      <trkpt lat="48.60603" lon="2.12574">
        <ele>89.6</ele>
        <time>2025-10-25T12:40:15Z</time>
      </trkpt>
      <trkpt lat="48.60602" lon="2.1257">
        <ele>89.6</ele>
        <time>2025-10-25T12:40:17Z</time>
      </trkpt>
      <trkpt lat="48.60601" lon="2.12565">
        <ele>89.6</ele>
        <time>2025-10-25T12:40:19Z</time>
      </trkpt>
      <trkpt lat="48.606" lon="2.12561">
        <ele>89.4</ele>
        <time>2025-10-25T12:40:21Z</time>
      </trkpt>
      <trkpt lat="48.60599" lon="2.12556">
        <ele>89.2</ele>
        <time>2025-10-25T12:40:23Z</time>
      </trkpt>
      <trkpt lat="48.60599" lon="2.12552">
        <ele>89.2</ele>
        <time>2025-10-25T12:40:25Z</time>
      </trkpt>
      <trkpt lat="48.60598" lon="2.12547">
        <ele>89.2</ele>
        <time>2025-10-25T12:40:27Z</time>
      </trkpt>
      <trkpt lat="48.60598" lon="2.12543">
        <ele>89</ele>
        <time>2025-10-25T12:40:29Z</time>
      </trkpt>
      <trkpt lat="48.60597" lon="2.12539">
        <ele>89</ele>
        <time>2025-10-25T12:40:31Z</time>
      </trkpt>
      <trkpt lat="48.60596" lon="2.12534">
        <ele>88.8</ele>
        <time>2025-10-25T12:40:33Z</time>
      </trkpt>
      <trkpt lat="48.60596" lon="2.1253">
        <ele>88.8</ele>
        <time>2025-10-25T12:40:35Z</time>
      </trkpt>
      <trkpt lat="48.60595" lon="2.12526">
        <ele>88.6</ele>
        <time>2025-10-25T12:40:37Z</time>
      </trkpt>
      <trkpt lat="48.60595" lon="2.12522">
        <ele>88.4</ele>
        <time>2025-10-25T12:40:39Z</time>
      </trkpt>
      <trkpt lat="48.60594" lon="2.12517">
        <ele>88.2</ele>
        <time>2025-10-25T12:40:41Z</time>
      </trkpt>
      <trkpt lat="48.60593" lon="2.12513">
        <ele>88.2</ele>
        <time>2025-10-25T12:40:43Z</time>
      </trkpt>
      <trkpt lat="48.60592" lon="2.12508">
        <ele>88</ele>
        <time>2025-10-25T12:40:45Z</time>
      </trkpt>
      <trkpt lat="48.60591" lon="2.12504">
        <ele>88</ele>
        <time>2025-10-25T12:40:47Z</time>
      </trkpt>
      <trkpt lat="48.6059" lon="2.125">
        <ele>88</ele>
        <time>2025-10-25T12:40:49Z</time>
      </trkpt>
      <trkpt lat="48.60589" lon="2.12496">
        <ele>88</ele>
        <time>2025-10-25T12:40:51Z</time>
      </trkpt>
      <trkpt lat="48.60588" lon="2.12493">
        <ele>88</ele>
        <time>2025-10-25T12:40:53Z</time>
      </trkpt>
      <trkpt lat="48.60587" lon="2.12489">
        <ele>88</ele>
        <time>2025-10-25T12:40:55Z</time>
      </trkpt>
      <trkpt lat="48.60587" lon="2.12484">
        <ele>88</ele>
        <time>2025-10-25T12:40:57Z</time>
      </trkpt>
      <trkpt lat="48.60588" lon="2.12481">
        <ele>88</ele>
        <time>2025-10-25T12:40:59Z</time>
      </trkpt>
      <trkpt lat="48.60588" lon="2.12477">
        <ele>88</ele>
        <time>2025-10-25T12:41:01Z</time>
      </trkpt>
      <trkpt lat="48.6059" lon="2.12475">
        <ele>88</ele>
        <time>2025-10-25T12:41:03Z</time>
      </trkpt>
      <trkpt lat="48.60592" lon="2.12472">
        <ele>88</ele>
        <time>2025-10-25T12:41:05Z</time>
      </trkpt>
      <trkpt lat="48.60595" lon="2.12471">
        <ele>88</ele>
        <time>2025-10-25T12:41:07Z</time>
      </trkpt>
      <trkpt lat="48.60598" lon="2.12472">
        <ele>88</ele>
        <time>2025-10-25T12:41:09Z</time>
      </trkpt>
      <trkpt lat="48.60601" lon="2.12473">
        <ele>88</ele>
        <time>2025-10-25T12:41:11Z</time>
      </trkpt>
      <trkpt lat="48.60604" lon="2.12473">
        <ele>88</ele>
        <time>2025-10-25T12:41:13Z</time>
      </trkpt>
      <trkpt lat="48.60607" lon="2.12474">
        <ele>88</ele>
        <time>2025-10-25T12:41:15Z</time>
      </trkpt>
      <trkpt lat="48.6061" lon="2.12475">
        <ele>88.2</ele>
        <time>2025-10-25T12:41:17Z</time>
      </trkpt>
      <trkpt lat="48.60612" lon="2.12476">
        <ele>88.4</ele>
        <time>2025-10-25T12:41:19Z</time>
      </trkpt>
      <trkpt lat="48.60615" lon="2.12477">
        <ele>88.4</ele>
        <time>2025-10-25T12:41:21Z</time>
      </trkpt>
      <trkpt lat="48.60617" lon="2.12477">
        <ele>88.4</ele>
        <time>2025-10-25T12:41:22Z</time>
      </trkpt>
      <trkpt lat="48.6062" lon="2.12477">
        <ele>88.4</ele>
        <time>2025-10-25T12:41:24Z</time>
      </trkpt>
      <trkpt lat="48.60622" lon="2.12477">
        <ele>88.4</ele>
        <time>2025-10-25T12:41:25Z</time>
      </trkpt>
      <trkpt lat="48.60625" lon="2.12477">
        <ele>88.4</ele>
        <time>2025-10-25T12:41:27Z</time>
      </trkpt>
      <trkpt lat="48.60627" lon="2.12477">
        <ele>88.6</ele>
        <time>2025-10-25T12:41:28Z</time>
      </trkpt>
      <trkpt lat="48.6063" lon="2.12476">
        <ele>88.8</ele>
        <time>2025-10-25T12:41:30Z</time>
      </trkpt>
      <trkpt lat="48.60633" lon="2.12476">
        <ele>88.8</ele>
        <time>2025-10-25T12:41:32Z</time>
      </trkpt>
      <trkpt lat="48.60636" lon="2.12475">
        <ele>88.8</ele>
        <time>2025-10-25T12:41:34Z</time>
      </trkpt>
      <trkpt lat="48.60638" lon="2.12474">
        <ele>88.8</ele>
        <time>2025-10-25T12:41:36Z</time>
      </trkpt>
      <trkpt lat="48.60641" lon="2.12474">
        <ele>88.8</ele>
        <time>2025-10-25T12:41:38Z</time>
      </trkpt>
      <trkpt lat="48.60644" lon="2.12473">
        <ele>88.8</ele>
        <time>2025-10-25T12:41:40Z</time>
      </trkpt>
      <trkpt lat="48.60647" lon="2.12473">
        <ele>88.8</ele>
        <time>2025-10-25T12:41:42Z</time>
      </trkpt>
      <trkpt lat="48.6065" lon="2.12472">
        <ele>89</ele>
        <time>2025-10-25T12:41:44Z</time>
      </trkpt>
      <trkpt lat="48.60652" lon="2.12472">
        <ele>89</ele>
        <time>2025-10-25T12:41:45Z</time>
      </trkpt>
      <trkpt lat="48.60655" lon="2.12472">
        <ele>89.2</ele>
        <time>2025-10-25T12:41:47Z</time>
      </trkpt>
      <trkpt lat="48.60658" lon="2.12472">
        <ele>89.2</ele>
        <time>2025-10-25T12:41:49Z</time>
      </trkpt>
      <trkpt lat="48.6066" lon="2.12471">
        <ele>89.2</ele>
        <time>2025-10-25T12:41:51Z</time>
      </trkpt>
      <trkpt lat="48.60664" lon="2.12471">
        <ele>89.4</ele>
        <time>2025-10-25T12:41:53Z</time>
      </trkpt>
      <trkpt lat="48.60667" lon="2.1247">
        <ele>89.4</ele>
        <time>2025-10-25T12:41:55Z</time>
      </trkpt>
      <trkpt lat="48.6067" lon="2.1247">
        <ele>89.4</ele>
        <time>2025-10-25T12:41:57Z</time>
      </trkpt>
      <trkpt lat="48.60672" lon="2.1247">
        <ele>89.4</ele>
        <time>2025-10-25T12:41:59Z</time>
      </trkpt>
      <trkpt lat="48.60676" lon="2.12469">
        <ele>89.4</ele>
        <time>2025-10-25T12:42:01Z</time>
      </trkpt>
      <trkpt lat="48.60678" lon="2.12468">
        <ele>89.6</ele>
        <time>2025-10-25T12:42:03Z</time>
      </trkpt>
      <trkpt lat="48.6068" lon="2.12468">
        <ele>89.6</ele>
        <time>2025-10-25T12:42:04Z</time>
      </trkpt>
      <trkpt lat="48.60683" lon="2.12467">
        <ele>89.8</ele>
        <time>2025-10-25T12:42:06Z</time>
      </trkpt>
      <trkpt lat="48.60685" lon="2.12467">
        <ele>89.8</ele>
        <time>2025-10-25T12:42:07Z</time>
      </trkpt>
      <trkpt lat="48.60688" lon="2.12466">
        <ele>89.8</ele>
        <time>2025-10-25T12:42:09Z</time>
      </trkpt>
      <trkpt lat="48.6069" lon="2.12466">
        <ele>89.6</ele>
        <time>2025-10-25T12:42:10Z</time>
      </trkpt>
      <trkpt lat="48.60693" lon="2.12465">
        <ele>89.6</ele>
        <time>2025-10-25T12:42:12Z</time>
      </trkpt>
      <trkpt lat="48.60696" lon="2.12464">
        <ele>89.4</ele>
        <time>2025-10-25T12:42:14Z</time>
      </trkpt>
      <trkpt lat="48.60699" lon="2.12464">
        <ele>89.2</ele>
        <time>2025-10-25T12:42:16Z</time>
      </trkpt>
      <trkpt lat="48.60701" lon="2.12464">
        <ele>89.2</ele>
        <time>2025-10-25T12:42:18Z</time>
      </trkpt>
      <trkpt lat="48.60704" lon="2.12464">
        <ele>89.2</ele>
        <time>2025-10-25T12:42:20Z</time>
      </trkpt>
      <trkpt lat="48.60708" lon="2.12464">
        <ele>89.2</ele>
        <time>2025-10-25T12:42:22Z</time>
      </trkpt>
      <trkpt lat="48.6071" lon="2.12464">
        <ele>89.2</ele>
        <time>2025-10-25T12:42:24Z</time>
      </trkpt>
      <trkpt lat="48.60714" lon="2.12463">
        <ele>89.2</ele>
        <time>2025-10-25T12:42:26Z</time>
      </trkpt>
      <trkpt lat="48.60716" lon="2.12462">
        <ele>89.2</ele>
        <time>2025-10-25T12:42:28Z</time>
      </trkpt>
      <trkpt lat="48.6072" lon="2.12461">
        <ele>89.4</ele>
        <time>2025-10-25T12:42:30Z</time>
      </trkpt>
      <trkpt lat="48.60723" lon="2.1246">
        <ele>89.4</ele>
        <time>2025-10-25T12:42:32Z</time>
      </trkpt>
      <trkpt lat="48.60726" lon="2.12458">
        <ele>89.6</ele>
        <time>2025-10-25T12:42:34Z</time>
      </trkpt>
      <trkpt lat="48.60729" lon="2.12457">
        <ele>89.6</ele>
        <time>2025-10-25T12:42:36Z</time>
      </trkpt>
      <trkpt lat="48.60733" lon="2.12456">
        <ele>89.6</ele>
        <time>2025-10-25T12:42:38Z</time>
      </trkpt>
      <trkpt lat="48.60736" lon="2.12456">
        <ele>89.6</ele>
        <time>2025-10-25T12:42:40Z</time>
      </trkpt>
      <trkpt lat="48.6074" lon="2.12455">
        <ele>89.6</ele>
        <time>2025-10-25T12:42:42Z</time>
      </trkpt>
      <trkpt lat="48.60743" lon="2.12455">
        <ele>89.4</ele>
        <time>2025-10-25T12:42:44Z</time>
      </trkpt>
      <trkpt lat="48.60745" lon="2.12454">
        <ele>89.4</ele>
        <time>2025-10-25T12:42:46Z</time>
      </trkpt>
      <trkpt lat="48.60748" lon="2.12453">
        <ele>89.4</ele>
        <time>2025-10-25T12:42:48Z</time>
      </trkpt>
      <trkpt lat="48.60751" lon="2.12453">
        <ele>89.2</ele>
        <time>2025-10-25T12:42:50Z</time>
      </trkpt>
      <trkpt lat="48.60754" lon="2.12452">
        <ele>89.2</ele>
        <time>2025-10-25T12:42:52Z</time>
      </trkpt>
      <trkpt lat="48.60756" lon="2.12451">
        <ele>89.2</ele>
        <time>2025-10-25T12:42:54Z</time>
      </trkpt>
      <trkpt lat="48.60759" lon="2.12451">
        <ele>89.2</ele>
        <time>2025-10-25T12:42:56Z</time>
      </trkpt>
      <trkpt lat="48.60762" lon="2.1245">
        <ele>89.4</ele>
        <time>2025-10-25T12:42:58Z</time>
      </trkpt>
      <trkpt lat="48.60764" lon="2.1245">
        <ele>89.4</ele>
        <time>2025-10-25T12:42:59Z</time>
      </trkpt>
      <trkpt lat="48.60767" lon="2.12449">
        <ele>89.6</ele>
        <time>2025-10-25T12:43:01Z</time>
      </trkpt>
      <trkpt lat="48.60771" lon="2.12448">
        <ele>89.6</ele>
        <time>2025-10-25T12:43:03Z</time>
      </trkpt>
      <trkpt lat="48.60773" lon="2.12447">
        <ele>89.6</ele>
        <time>2025-10-25T12:43:05Z</time>
      </trkpt>
      <trkpt lat="48.60777" lon="2.12446">
        <ele>89.6</ele>
        <time>2025-10-25T12:43:07Z</time>
      </trkpt>
      <trkpt lat="48.60779" lon="2.12445">
        <ele>89.6</ele>
        <time>2025-10-25T12:43:09Z</time>
      </trkpt>
      <trkpt lat="48.60783" lon="2.12444">
        <ele>89.6</ele>
        <time>2025-10-25T12:43:11Z</time>
      </trkpt>
      <trkpt lat="48.60786" lon="2.12443">
        <ele>89.8</ele>
        <time>2025-10-25T12:43:13Z</time>
      </trkpt>
      <trkpt lat="48.60789" lon="2.12442">
        <ele>89.6</ele>
        <time>2025-10-25T12:43:15Z</time>
      </trkpt>
      <trkpt lat="48.60792" lon="2.12442">
        <ele>89.6</ele>
        <time>2025-10-25T12:43:17Z</time>
      </trkpt>
      <trkpt lat="48.60794" lon="2.12442">
        <ele>89.8</ele>
        <time>2025-10-25T12:43:18Z</time>
      </trkpt>
      <trkpt lat="48.60797" lon="2.12441">
        <ele>89.8</ele>
        <time>2025-10-25T12:43:20Z</time>
      </trkpt>
      <trkpt lat="48.60799" lon="2.12441">
        <ele>89.8</ele>
        <time>2025-10-25T12:43:21Z</time>
      </trkpt>
      <trkpt lat="48.60801" lon="2.12441">
        <ele>90</ele>
        <time>2025-10-25T12:43:22Z</time>
      </trkpt>
      <trkpt lat="48.60804" lon="2.1244">
        <ele>90</ele>
        <time>2025-10-25T12:43:24Z</time>
      </trkpt>
      <trkpt lat="48.60807" lon="2.12439">
        <ele>90</ele>
        <time>2025-10-25T12:43:26Z</time>
      </trkpt>
      <trkpt lat="48.60811" lon="2.12438">
        <ele>90.2</ele>
        <time>2025-10-25T12:43:28Z</time>
      </trkpt>
      <trkpt lat="48.60813" lon="2.12437">
        <ele>90.2</ele>
        <time>2025-10-25T12:43:30Z</time>
      </trkpt>
      <trkpt lat="48.60816" lon="2.12436">
        <ele>90.2</ele>
        <time>2025-10-25T12:43:32Z</time>
      </trkpt>
      <trkpt lat="48.60819" lon="2.12436">
        <ele>90.2</ele>
        <time>2025-10-25T12:43:34Z</time>
      </trkpt>
      <trkpt lat="48.60822" lon="2.12435">
        <ele>90.2</ele>
        <time>2025-10-25T12:43:36Z</time>
      </trkpt>
      <trkpt lat="48.60826" lon="2.12434">
        <ele>90.2</ele>
        <time>2025-10-25T12:43:38Z</time>
      </trkpt>
      <trkpt lat="48.60829" lon="2.12434">
        <ele>90.4</ele>
        <time>2025-10-25T12:43:40Z</time>
      </trkpt>
      <trkpt lat="48.60832" lon="2.12433">
        <ele>90.4</ele>
        <time>2025-10-25T12:43:42Z</time>
      </trkpt>
      <trkpt lat="48.60835" lon="2.12433">
        <ele>90.4</ele>
        <time>2025-10-25T12:43:44Z</time>
      </trkpt>
      <trkpt lat="48.60838" lon="2.12432">
        <ele>90.6</ele>
        <time>2025-10-25T12:43:46Z</time>
      </trkpt>
      <trkpt lat="48.60841" lon="2.12432">
        <ele>90.6</ele>
        <time>2025-10-25T12:43:48Z</time>
      </trkpt>
      <trkpt lat="48.60844" lon="2.12431">
        <ele>90.8</ele>
        <time>2025-10-25T12:43:50Z</time>
      </trkpt>
      <trkpt lat="48.60847" lon="2.1243">
        <ele>90.6</ele>
        <time>2025-10-25T12:43:52Z</time>
      </trkpt>
      <trkpt lat="48.6085" lon="2.12429">
        <ele>90.8</ele>
        <time>2025-10-25T12:43:54Z</time>
      </trkpt>
      <trkpt lat="48.60852" lon="2.12428">
        <ele>90.8</ele>
        <time>2025-10-25T12:43:56Z</time>
      </trkpt>
      <trkpt lat="48.60855" lon="2.12426">
        <ele>90.8</ele>
        <time>2025-10-25T12:43:58Z</time>
      </trkpt>
      <trkpt lat="48.60858" lon="2.12425">
        <ele>91</ele>
        <time>2025-10-25T12:44:00Z</time>
      </trkpt>
      <trkpt lat="48.60861" lon="2.12424">
        <ele>91</ele>
        <time>2025-10-25T12:44:02Z</time>
      </trkpt>
      <trkpt lat="48.60863" lon="2.12423">
        <ele>91</ele>
        <time>2025-10-25T12:44:04Z</time>
      </trkpt>
      <trkpt lat="48.60866" lon="2.12422">
        <ele>91</ele>
        <time>2025-10-25T12:44:06Z</time>
      </trkpt>
      <trkpt lat="48.60869" lon="2.1242">
        <ele>91.2</ele>
        <time>2025-10-25T12:44:08Z</time>
      </trkpt>
      <trkpt lat="48.60872" lon="2.12419">
        <ele>91.2</ele>
        <time>2025-10-25T12:44:10Z</time>
      </trkpt>
      <trkpt lat="48.60875" lon="2.12418">
        <ele>91.4</ele>
        <time>2025-10-25T12:44:12Z</time>
      </trkpt>
      <trkpt lat="48.60878" lon="2.12417">
        <ele>91.4</ele>
        <time>2025-10-25T12:44:14Z</time>
      </trkpt>
      <trkpt lat="48.60881" lon="2.12416">
        <ele>91.4</ele>
        <time>2025-10-25T12:44:16Z</time>
      </trkpt>
      <trkpt lat="48.60884" lon="2.12415">
        <ele>91.6</ele>
        <time>2025-10-25T12:44:18Z</time>
      </trkpt>
      <trkpt lat="48.60887" lon="2.12414">
        <ele>91.6</ele>
        <time>2025-10-25T12:44:20Z</time>
      </trkpt>
      <trkpt lat="48.6089" lon="2.12413">
        <ele>91.6</ele>
        <time>2025-10-25T12:44:22Z</time>
      </trkpt>
      <trkpt lat="48.60893" lon="2.12412">
        <ele>91.6</ele>
        <time>2025-10-25T12:44:24Z</time>
      </trkpt>
      <trkpt lat="48.60896" lon="2.12411">
        <ele>91.6</ele>
        <time>2025-10-25T12:44:26Z</time>
      </trkpt>
      <trkpt lat="48.60899" lon="2.1241">
        <ele>91.8</ele>
        <time>2025-10-25T12:44:28Z</time>
      </trkpt>
      <trkpt lat="48.60902" lon="2.12409">
        <ele>91.6</ele>
        <time>2025-10-25T12:44:30Z</time>
      </trkpt>
      <trkpt lat="48.60905" lon="2.12408">
        <ele>91.4</ele>
        <time>2025-10-25T12:44:32Z</time>
      </trkpt>
      <trkpt lat="48.60908" lon="2.12407">
        <ele>91.2</ele>
        <time>2025-10-25T12:44:34Z</time>
      </trkpt>
      <trkpt lat="48.60911" lon="2.12406">
        <ele>91.2</ele>
        <time>2025-10-25T12:44:36Z</time>
      </trkpt>
      <trkpt lat="48.60913" lon="2.12406">
        <ele>91.2</ele>
        <time>2025-10-25T12:44:37Z</time>
      </trkpt>
      <trkpt lat="48.60915" lon="2.12406">
        <ele>91</ele>
        <time>2025-10-25T12:44:38Z</time>
      </trkpt>
      <trkpt lat="48.60916" lon="2.12405">
        <ele>91</ele>
        <time>2025-10-25T12:44:39Z</time>
      </trkpt>
      <trkpt lat="48.60918" lon="2.12405">
        <ele>91</ele>
        <time>2025-10-25T12:44:40Z</time>
      </trkpt>
      <trkpt lat="48.6092" lon="2.12405">
        <ele>91</ele>
        <time>2025-10-25T12:44:41Z</time>
      </trkpt>
      <trkpt lat="48.60922" lon="2.12404">
        <ele>91</ele>
        <time>2025-10-25T12:44:42Z</time>
      </trkpt>
      <trkpt lat="48.60924" lon="2.12404">
        <ele>91</ele>
        <time>2025-10-25T12:44:43Z</time>
      </trkpt>
      <trkpt lat="48.60928" lon="2.12403">
        <ele>91</ele>
        <time>2025-10-25T12:44:45Z</time>
      </trkpt>
      <trkpt lat="48.6093" lon="2.12402">
        <ele>91</ele>
        <time>2025-10-25T12:44:47Z</time>
      </trkpt>
      <trkpt lat="48.60933" lon="2.124">
        <ele>91</ele>
        <time>2025-10-25T12:44:49Z</time>
      </trkpt>
      <trkpt lat="48.60936" lon="2.12399">
        <ele>91.2</ele>
        <time>2025-10-25T12:44:51Z</time>
      </trkpt>
      <trkpt lat="48.6094" lon="2.12398">
        <ele>91.2</ele>
        <time>2025-10-25T12:44:53Z</time>
      </trkpt>
      <trkpt lat="48.60941" lon="2.12398">
        <ele>91.2</ele>
        <time>2025-10-25T12:44:54Z</time>
      </trkpt>
      <trkpt lat="48.60944" lon="2.12397">
        <ele>91.2</ele>
        <time>2025-10-25T12:44:56Z</time>
      </trkpt>
      <trkpt lat="48.60948" lon="2.12396">
        <ele>91.2</ele>
        <time>2025-10-25T12:44:58Z</time>
      </trkpt>
      <trkpt lat="48.6095" lon="2.12394">
        <ele>91</ele>
        <time>2025-10-25T12:45:00Z</time>
      </trkpt>
      <trkpt lat="48.60953" lon="2.12393">
        <ele>91</ele>
        <time>2025-10-25T12:45:02Z</time>
      </trkpt>
      <trkpt lat="48.60956" lon="2.12392">
        <ele>91</ele>
        <time>2025-10-25T12:45:04Z</time>
      </trkpt>
      <trkpt lat="48.60959" lon="2.12391">
        <ele>91</ele>
        <time>2025-10-25T12:45:06Z</time>
      </trkpt>
      <trkpt lat="48.60962" lon="2.1239">
        <ele>91</ele>
        <time>2025-10-25T12:45:08Z</time>
      </trkpt>
      <trkpt lat="48.60964" lon="2.12389">
        <ele>91</ele>
        <time>2025-10-25T12:45:10Z</time>
      </trkpt>
      <trkpt lat="48.60968" lon="2.12388">
        <ele>91</ele>
        <time>2025-10-25T12:45:12Z</time>
      </trkpt>
      <trkpt lat="48.6097" lon="2.12387">
        <ele>90.8</ele>
        <time>2025-10-25T12:45:14Z</time>
      </trkpt>
      <trkpt lat="48.60973" lon="2.12386">
        <ele>90.8</ele>
        <time>2025-10-25T12:45:16Z</time>
      </trkpt>
      <trkpt lat="48.60976" lon="2.12385">
        <ele>90.8</ele>
        <time>2025-10-25T12:45:18Z</time>
      </trkpt>
      <trkpt lat="48.60978" lon="2.12384">
        <ele>90.8</ele>
        <time>2025-10-25T12:45:20Z</time>
      </trkpt>
      <trkpt lat="48.60981" lon="2.12382">
        <ele>90.8</ele>
        <time>2025-10-25T12:45:22Z</time>
      </trkpt>
      <trkpt lat="48.60984" lon="2.12381">
        <ele>90.6</ele>
        <time>2025-10-25T12:45:24Z</time>
      </trkpt>
      <trkpt lat="48.60988" lon="2.12378">
        <ele>90.6</ele>
        <time>2025-10-25T12:45:26Z</time>
      </trkpt>
      <trkpt lat="48.6099" lon="2.12376">
        <ele>90.6</ele>
        <time>2025-10-25T12:45:28Z</time>
      </trkpt>
      <trkpt lat="48.60992" lon="2.12372">
        <ele>90.6</ele>
        <time>2025-10-25T12:45:30Z</time>
      </trkpt>
      <trkpt lat="48.60994" lon="2.12369">
        <ele>90.4</ele>
        <time>2025-10-25T12:45:32Z</time>
      </trkpt>
      <trkpt lat="48.60996" lon="2.12365">
        <ele>90.4</ele>
        <time>2025-10-25T12:45:34Z</time>
      </trkpt>
      <trkpt lat="48.60997" lon="2.12361">
        <ele>90.6</ele>
        <time>2025-10-25T12:45:37Z</time>
      </trkpt>
      <trkpt lat="48.60997" lon="2.12358">
        <ele>90.8</ele>
        <time>2025-10-25T12:45:43Z</time>
      </trkpt>
      <trkpt lat="48.60998" lon="2.12355">
        <ele>90.6</ele>
        <time>2025-10-25T12:45:45Z</time>
      </trkpt>
      <trkpt lat="48.60998" lon="2.12351">
        <ele>90.4</ele>
        <time>2025-10-25T12:45:47Z</time>
      </trkpt>
      <trkpt lat="48.60999" lon="2.12347">
        <ele>90.2</ele>
        <time>2025-10-25T12:45:49Z</time>
      </trkpt>
      <trkpt lat="48.61" lon="2.12342">
        <ele>90</ele>
        <time>2025-10-25T12:45:51Z</time>
      </trkpt>
      <trkpt lat="48.61" lon="2.12338">
        <ele>89.8</ele>
        <time>2025-10-25T12:45:53Z</time>
      </trkpt>
      <trkpt lat="48.61" lon="2.12334">
        <ele>89.6</ele>
        <time>2025-10-25T12:45:55Z</time>
      </trkpt>
      <trkpt lat="48.60999" lon="2.1233">
        <ele>89.4</ele>
        <time>2025-10-25T12:45:57Z</time>
      </trkpt>
      <trkpt lat="48.60999" lon="2.12326">
        <ele>89.2</ele>
        <time>2025-10-25T12:45:59Z</time>
      </trkpt>
      <trkpt lat="48.60998" lon="2.12322">
        <ele>89.2</ele>
        <time>2025-10-25T12:46:01Z</time>
      </trkpt>
      <trkpt lat="48.60998" lon="2.12318">
        <ele>89</ele>
        <time>2025-10-25T12:46:03Z</time>
      </trkpt>
      <trkpt lat="48.60997" lon="2.12314">
        <ele>89</ele>
        <time>2025-10-25T12:46:05Z</time>
      </trkpt>
      <trkpt lat="48.60996" lon="2.1231">
        <ele>88.8</ele>
        <time>2025-10-25T12:46:07Z</time>
      </trkpt>
      <trkpt lat="48.60996" lon="2.12306">
        <ele>88.8</ele>
        <time>2025-10-25T12:46:09Z</time>
      </trkpt>
      <trkpt lat="48.60995" lon="2.12302">
        <ele>89</ele>
        <time>2025-10-25T12:46:11Z</time>
      </trkpt>
      <trkpt lat="48.60994" lon="2.12297">
        <ele>88.8</ele>
        <time>2025-10-25T12:46:13Z</time>
      </trkpt>
      <trkpt lat="48.60993" lon="2.12293">
        <ele>88.8</ele>
        <time>2025-10-25T12:46:15Z</time>
      </trkpt>
      <trkpt lat="48.60992" lon="2.12289">
        <ele>88.6</ele>
        <time>2025-10-25T12:46:17Z</time>
      </trkpt>
      <trkpt lat="48.60991" lon="2.12284">
        <ele>88.2</ele>
        <time>2025-10-25T12:46:19Z</time>
      </trkpt>
      <trkpt lat="48.6099" lon="2.1228">
        <ele>88.2</ele>
        <time>2025-10-25T12:46:21Z</time>
      </trkpt>
      <trkpt lat="48.6099" lon="2.12275">
        <ele>88</ele>
        <time>2025-10-25T12:46:23Z</time>
      </trkpt>
      <trkpt lat="48.6099" lon="2.12271">
        <ele>87.6</ele>
        <time>2025-10-25T12:46:25Z</time>
      </trkpt>
      <trkpt lat="48.60989" lon="2.12266">
        <ele>87.4</ele>
        <time>2025-10-25T12:46:27Z</time>
      </trkpt>
      <trkpt lat="48.60989" lon="2.12262">
        <ele>87.2</ele>
        <time>2025-10-25T12:46:29Z</time>
      </trkpt>
      <trkpt lat="48.60989" lon="2.12258">
        <ele>87.2</ele>
        <time>2025-10-25T12:46:31Z</time>
      </trkpt>
      <trkpt lat="48.60988" lon="2.12254">
        <ele>87</ele>
        <time>2025-10-25T12:46:33Z</time>
      </trkpt>
      <trkpt lat="48.60988" lon="2.1225">
        <ele>87.2</ele>
        <time>2025-10-25T12:46:35Z</time>
      </trkpt>
      <trkpt lat="48.60988" lon="2.12245">
        <ele>87.2</ele>
        <time>2025-10-25T12:46:37Z</time>
      </trkpt>
      <trkpt lat="48.60988" lon="2.12241">
        <ele>87.4</ele>
        <time>2025-10-25T12:46:39Z</time>
      </trkpt>
      <trkpt lat="48.60987" lon="2.12236">
        <ele>87.8</ele>
        <time>2025-10-25T12:46:41Z</time>
      </trkpt>
      <trkpt lat="48.60987" lon="2.12232">
        <ele>88</ele>
        <time>2025-10-25T12:46:43Z</time>
      </trkpt>
      <trkpt lat="48.60986" lon="2.12227">
        <ele>88</ele>
        <time>2025-10-25T12:46:45Z</time>
      </trkpt>
      <trkpt lat="48.60986" lon="2.12221">
        <ele>88</ele>
        <time>2025-10-25T12:46:47Z</time>
      </trkpt>
      <trkpt lat="48.60986" lon="2.12216">
        <ele>88</ele>
        <time>2025-10-25T12:46:49Z</time>
      </trkpt>
      <trkpt lat="48.60986" lon="2.12212">
        <ele>88.2</ele>
        <time>2025-10-25T12:46:51Z</time>
      </trkpt>
      <trkpt lat="48.60986" lon="2.12207">
        <ele>88.4</ele>
        <time>2025-10-25T12:46:53Z</time>
      </trkpt>
      <trkpt lat="48.60987" lon="2.12202">
        <ele>88.8</ele>
        <time>2025-10-25T12:46:55Z</time>
      </trkpt>
      <trkpt lat="48.60988" lon="2.12197">
        <ele>89</ele>
        <time>2025-10-25T12:46:57Z</time>
      </trkpt>
      <trkpt lat="48.60988" lon="2.12193">
        <ele>89.2</ele>
        <time>2025-10-25T12:46:59Z</time>
      </trkpt>
      <trkpt lat="48.60989" lon="2.12188">
        <ele>89.6</ele>
        <time>2025-10-25T12:47:01Z</time>
      </trkpt>
      <trkpt lat="48.6099" lon="2.12185">
        <ele>89.8</ele>
        <time>2025-10-25T12:47:02Z</time>
      </trkpt>
      <trkpt lat="48.60991" lon="2.12183">
        <ele>90</ele>
        <time>2025-10-25T12:47:03Z</time>
      </trkpt>
      <trkpt lat="48.60992" lon="2.12178">
        <ele>90.2</ele>
        <time>2025-10-25T12:47:05Z</time>
      </trkpt>
      <trkpt lat="48.60993" lon="2.12173">
        <ele>90.4</ele>
        <time>2025-10-25T12:47:07Z</time>
      </trkpt>
      <trkpt lat="48.60994" lon="2.12169">
        <ele>90.8</ele>
        <time>2025-10-25T12:47:09Z</time>
      </trkpt>
      <trkpt lat="48.60994" lon="2.12165">
        <ele>91</ele>
        <time>2025-10-25T12:47:11Z</time>
      </trkpt>
      <trkpt lat="48.60995" lon="2.12161">
        <ele>91.4</ele>
        <time>2025-10-25T12:47:13Z</time>
      </trkpt>
      <trkpt lat="48.60996" lon="2.12156">
        <ele>91.4</ele>
        <time>2025-10-25T12:47:15Z</time>
      </trkpt>
      <trkpt lat="48.60997" lon="2.12152">
        <ele>91.6</ele>
        <time>2025-10-25T12:47:17Z</time>
      </trkpt>
      <trkpt lat="48.60998" lon="2.12148">
        <ele>91.8</ele>
        <time>2025-10-25T12:47:19Z</time>
      </trkpt>
      <trkpt lat="48.60999" lon="2.12144">
        <ele>92.2</ele>
        <time>2025-10-25T12:47:21Z</time>
      </trkpt>
      <trkpt lat="48.61" lon="2.1214">
        <ele>92.2</ele>
        <time>2025-10-25T12:47:23Z</time>
      </trkpt>
      <trkpt lat="48.61" lon="2.12136">
        <ele>92.4</ele>
        <time>2025-10-25T12:47:25Z</time>
      </trkpt>
      <trkpt lat="48.61001" lon="2.12132">
        <ele>92.4</ele>
        <time>2025-10-25T12:47:27Z</time>
      </trkpt>
      <trkpt lat="48.61002" lon="2.12129">
        <ele>92.4</ele>
        <time>2025-10-25T12:47:29Z</time>
      </trkpt>
      <trkpt lat="48.61003" lon="2.12125">
        <ele>92.6</ele>
        <time>2025-10-25T12:47:31Z</time>
      </trkpt>
      <trkpt lat="48.61004" lon="2.12122">
        <ele>92.6</ele>
        <time>2025-10-25T12:47:33Z</time>
      </trkpt>
      <trkpt lat="48.61004" lon="2.12118">
        <ele>92.4</ele>
        <time>2025-10-25T12:47:35Z</time>
      </trkpt>
      <trkpt lat="48.61004" lon="2.12114">
        <ele>92.2</ele>
        <time>2025-10-25T12:47:37Z</time>
      </trkpt>
      <trkpt lat="48.61006" lon="2.1211">
        <ele>92</ele>
        <time>2025-10-25T12:47:39Z</time>
      </trkpt>
      <trkpt lat="48.61008" lon="2.12107">
        <ele>91.8</ele>
        <time>2025-10-25T12:47:41Z</time>
      </trkpt>
      <trkpt lat="48.6101" lon="2.12103">
        <ele>91.6</ele>
        <time>2025-10-25T12:47:43Z</time>
      </trkpt>
      <trkpt lat="48.61011" lon="2.12101">
        <ele>91.6</ele>
        <time>2025-10-25T12:47:44Z</time>
      </trkpt>
      <trkpt lat="48.61012" lon="2.12099">
        <ele>91.4</ele>
        <time>2025-10-25T12:47:45Z</time>
      </trkpt>
      <trkpt lat="48.61013" lon="2.12096">
        <ele>91.4</ele>
        <time>2025-10-25T12:47:46Z</time>
      </trkpt>
      <trkpt lat="48.61014" lon="2.12094">
        <ele>91.2</ele>
        <time>2025-10-25T12:47:47Z</time>
      </trkpt>
      <trkpt lat="48.61016" lon="2.12092">
        <ele>91</ele>
        <time>2025-10-25T12:47:48Z</time>
      </trkpt>
      <trkpt lat="48.61017" lon="2.1209">
        <ele>91</ele>
        <time>2025-10-25T12:47:49Z</time>
      </trkpt>
      <trkpt lat="48.61019" lon="2.12086">
        <ele>90.8</ele>
        <time>2025-10-25T12:47:51Z</time>
      </trkpt>
      <trkpt lat="48.61022" lon="2.12083">
        <ele>90.8</ele>
        <time>2025-10-25T12:47:53Z</time>
      </trkpt>
      <trkpt lat="48.61025" lon="2.12081">
        <ele>90.6</ele>
        <time>2025-10-25T12:47:56Z</time>
      </trkpt>
      <trkpt lat="48.61027" lon="2.1208">
        <ele>89.4</ele>
        <time>2025-10-25T12:48:13Z</time>
      </trkpt>
      <trkpt lat="48.61029" lon="2.12079">
        <ele>89</ele>
        <time>2025-10-25T12:48:18Z</time>
      </trkpt>
      <trkpt lat="48.61032" lon="2.12078">
        <ele>88.6</ele>
        <time>2025-10-25T12:48:20Z</time>
      </trkpt>
      <trkpt lat="48.61035" lon="2.12077">
        <ele>88.4</ele>
        <time>2025-10-25T12:48:22Z</time>
      </trkpt>
      <trkpt lat="48.61038" lon="2.12075">
        <ele>88.4</ele>
        <time>2025-10-25T12:48:24Z</time>
      </trkpt>
      <trkpt lat="48.61041" lon="2.12075">
        <ele>88.2</ele>
        <time>2025-10-25T12:48:26Z</time>
      </trkpt>
      <trkpt lat="48.61044" lon="2.12074">
        <ele>88.2</ele>
        <time>2025-10-25T12:48:28Z</time>
      </trkpt>
      <trkpt lat="48.61047" lon="2.12074">
        <ele>88.2</ele>
        <time>2025-10-25T12:48:30Z</time>
      </trkpt>
      <trkpt lat="48.61049" lon="2.12074">
        <ele>88</ele>
        <time>2025-10-25T12:48:32Z</time>
      </trkpt>
      <trkpt lat="48.61052" lon="2.12074">
        <ele>87.8</ele>
        <time>2025-10-25T12:48:34Z</time>
      </trkpt>
      <trkpt lat="48.61054" lon="2.12074">
        <ele>87.8</ele>
        <time>2025-10-25T12:48:37Z</time>
      </trkpt>
      <trkpt lat="48.61056" lon="2.12073">
        <ele>87.6</ele>
        <time>2025-10-25T12:48:39Z</time>
      </trkpt>
      <trkpt lat="48.61058" lon="2.12073">
        <ele>87.4</ele>
        <time>2025-10-25T12:48:41Z</time>
      </trkpt>
      <trkpt lat="48.6106" lon="2.12072">
        <ele>87.2</ele>
        <time>2025-10-25T12:48:43Z</time>
      </trkpt>
      <trkpt lat="48.61063" lon="2.12071">
        <ele>87</ele>
        <time>2025-10-25T12:48:45Z</time>
      </trkpt>
      <trkpt lat="48.61067" lon="2.1207">
        <ele>86.8</ele>
        <time>2025-10-25T12:48:47Z</time>
      </trkpt>
      <trkpt lat="48.61069" lon="2.12069">
        <ele>86.6</ele>
        <time>2025-10-25T12:48:49Z</time>
      </trkpt>
      <trkpt lat="48.61071" lon="2.12068">
        <ele>86.6</ele>
        <time>2025-10-25T12:48:50Z</time>
      </trkpt>
      <trkpt lat="48.61074" lon="2.12068">
        <ele>86.6</ele>
        <time>2025-10-25T12:48:52Z</time>
      </trkpt>
      <trkpt lat="48.61076" lon="2.12067">
        <ele>86.4</ele>
        <time>2025-10-25T12:48:54Z</time>
      </trkpt>
      <trkpt lat="48.61079" lon="2.12066">
        <ele>86.2</ele>
        <time>2025-10-25T12:48:56Z</time>
      </trkpt>
      <trkpt lat="48.61082" lon="2.12065">
        <ele>86.2</ele>
        <time>2025-10-25T12:48:58Z</time>
      </trkpt>
      <trkpt lat="48.61084" lon="2.12064">
        <ele>86</ele>
        <time>2025-10-25T12:49:00Z</time>
      </trkpt>
      <trkpt lat="48.61087" lon="2.12063">
        <ele>86</ele>
        <time>2025-10-25T12:49:02Z</time>
      </trkpt>
      <trkpt lat="48.6109" lon="2.12061">
        <ele>86</ele>
        <time>2025-10-25T12:49:04Z</time>
      </trkpt>
      <trkpt lat="48.61093" lon="2.1206">
        <ele>86</ele>
        <time>2025-10-25T12:49:06Z</time>
      </trkpt>
      <trkpt lat="48.61097" lon="2.12058">
        <ele>86.2</ele>
        <time>2025-10-25T12:49:08Z</time>
      </trkpt>
      <trkpt lat="48.61099" lon="2.12057">
        <ele>86.2</ele>
        <time>2025-10-25T12:49:10Z</time>
      </trkpt>
      <trkpt lat="48.61102" lon="2.12055">
        <ele>86.2</ele>
        <time>2025-10-25T12:49:12Z</time>
      </trkpt>
      <trkpt lat="48.61104" lon="2.12054">
        <ele>86.4</ele>
        <time>2025-10-25T12:49:14Z</time>
      </trkpt>
      <trkpt lat="48.61107" lon="2.12053">
        <ele>86.4</ele>
        <time>2025-10-25T12:49:16Z</time>
      </trkpt>
      <trkpt lat="48.61109" lon="2.12052">
        <ele>86.6</ele>
        <time>2025-10-25T12:49:18Z</time>
      </trkpt>
      <trkpt lat="48.61112" lon="2.12051">
        <ele>86.6</ele>
        <time>2025-10-25T12:49:20Z</time>
      </trkpt>
      <trkpt lat="48.61115" lon="2.12049">
        <ele>86.8</ele>
        <time>2025-10-25T12:49:22Z</time>
      </trkpt>
      <trkpt lat="48.61117" lon="2.12048">
        <ele>87</ele>
        <time>2025-10-25T12:49:24Z</time>
      </trkpt>
      <trkpt lat="48.6112" lon="2.12046">
        <ele>87.2</ele>
        <time>2025-10-25T12:49:26Z</time>
      </trkpt>
      <trkpt lat="48.61122" lon="2.12045">
        <ele>87.4</ele>
        <time>2025-10-25T12:49:28Z</time>
      </trkpt>
      <trkpt lat="48.61125" lon="2.12044">
        <ele>87.6</ele>
        <time>2025-10-25T12:49:30Z</time>
      </trkpt>
      <trkpt lat="48.61128" lon="2.12043">
        <ele>87.8</ele>
        <time>2025-10-25T12:49:32Z</time>
      </trkpt>
      <trkpt lat="48.61131" lon="2.12043">
        <ele>87.8</ele>
        <time>2025-10-25T12:49:34Z</time>
      </trkpt>
      <trkpt lat="48.61133" lon="2.12043">
        <ele>88</ele>
        <time>2025-10-25T12:49:36Z</time>
      </trkpt>
      <trkpt lat="48.61135" lon="2.12042">
        <ele>88.2</ele>
        <time>2025-10-25T12:49:38Z</time>
      </trkpt>
      <trkpt lat="48.61138" lon="2.12042">
        <ele>88.4</ele>
        <time>2025-10-25T12:49:40Z</time>
      </trkpt>
      <trkpt lat="48.6114" lon="2.12042">
        <ele>88.6</ele>
        <time>2025-10-25T12:49:42Z</time>
      </trkpt>
      <trkpt lat="48.61143" lon="2.12042">
        <ele>88.6</ele>
        <time>2025-10-25T12:49:44Z</time>
      </trkpt>
      <trkpt lat="48.61145" lon="2.12041">
        <ele>88.6</ele>
        <time>2025-10-25T12:49:46Z</time>
      </trkpt>
      <trkpt lat="48.61148" lon="2.12041">
        <ele>88.6</ele>
        <time>2025-10-25T12:49:48Z</time>
      </trkpt>
      <trkpt lat="48.61151" lon="2.12041">
        <ele>88.6</ele>
        <time>2025-10-25T12:49:50Z</time>
      </trkpt>
      <trkpt lat="48.61153" lon="2.12041">
        <ele>88.8</ele>
        <time>2025-10-25T12:49:52Z</time>
      </trkpt>
      <trkpt lat="48.61156" lon="2.1204">
        <ele>89</ele>
        <time>2025-10-25T12:49:54Z</time>
      </trkpt>
      <trkpt lat="48.61158" lon="2.12039">
        <ele>89</ele>
        <time>2025-10-25T12:49:56Z</time>
      </trkpt>
      <trkpt lat="48.61161" lon="2.12038">
        <ele>89.2</ele>
        <time>2025-10-25T12:49:58Z</time>
      </trkpt>
      <trkpt lat="48.61164" lon="2.12037">
        <ele>89.4</ele>
        <time>2025-10-25T12:50:00Z</time>
      </trkpt>
      <trkpt lat="48.61166" lon="2.12037">
        <ele>89.6</ele>
        <time>2025-10-25T12:50:02Z</time>
      </trkpt>
      <trkpt lat="48.61169" lon="2.12036">
        <ele>89.6</ele>
        <time>2025-10-25T12:50:04Z</time>
      </trkpt>
      <trkpt lat="48.61172" lon="2.12036">
        <ele>89.8</ele>
        <time>2025-10-25T12:50:06Z</time>
      </trkpt>
      <trkpt lat="48.61175" lon="2.12035">
        <ele>89.8</ele>
        <time>2025-10-25T12:50:08Z</time>
      </trkpt>
      <trkpt lat="48.61178" lon="2.12034">
        <ele>89.8</ele>
        <time>2025-10-25T12:50:10Z</time>
      </trkpt>
      <trkpt lat="48.61181" lon="2.12032">
        <ele>89.6</ele>
        <time>2025-10-25T12:50:12Z</time>
      </trkpt>
      <trkpt lat="48.61184" lon="2.12031">
        <ele>89.6</ele>
        <time>2025-10-25T12:50:14Z</time>
      </trkpt>
      <trkpt lat="48.61187" lon="2.1203">
        <ele>89.4</ele>
        <time>2025-10-25T12:50:16Z</time>
      </trkpt>
      <trkpt lat="48.6119" lon="2.12029">
        <ele>89</ele>
        <time>2025-10-25T12:50:18Z</time>
      </trkpt>
      <trkpt lat="48.61193" lon="2.12028">
        <ele>89</ele>
        <time>2025-10-25T12:50:20Z</time>
      </trkpt>
      <trkpt lat="48.61195" lon="2.12027">
        <ele>88.8</ele>
        <time>2025-10-25T12:50:21Z</time>
      </trkpt>
      <trkpt lat="48.61198" lon="2.12027">
        <ele>88.6</ele>
        <time>2025-10-25T12:50:23Z</time>
      </trkpt>
      <trkpt lat="48.61201" lon="2.12026">
        <ele>88.4</ele>
        <time>2025-10-25T12:50:25Z</time>
      </trkpt>
      <trkpt lat="48.61204" lon="2.12025">
        <ele>88.2</ele>
        <time>2025-10-25T12:50:27Z</time>
      </trkpt>
      <trkpt lat="48.61207" lon="2.12024">
        <ele>88.2</ele>
        <time>2025-10-25T12:50:29Z</time>
      </trkpt>
      <trkpt lat="48.6121" lon="2.12023">
        <ele>88</ele>
        <time>2025-10-25T12:50:31Z</time>
      </trkpt>
      <trkpt lat="48.61213" lon="2.12022">
        <ele>87.8</ele>
        <time>2025-10-25T12:50:33Z</time>
      </trkpt>
      <trkpt lat="48.61216" lon="2.12021">
        <ele>87.6</ele>
        <time>2025-10-25T12:50:35Z</time>
      </trkpt>
      <trkpt lat="48.61219" lon="2.1202">
        <ele>87.4</ele>
        <time>2025-10-25T12:50:37Z</time>
      </trkpt>
      <trkpt lat="48.61221" lon="2.12019">
        <ele>87.4</ele>
        <time>2025-10-25T12:50:39Z</time>
      </trkpt>
      <trkpt lat="48.61224" lon="2.12019">
        <ele>87.2</ele>
        <time>2025-10-25T12:50:41Z</time>
      </trkpt>
      <trkpt lat="48.61227" lon="2.12018">
        <ele>87.2</ele>
        <time>2025-10-25T12:50:43Z</time>
      </trkpt>
      <trkpt lat="48.6123" lon="2.12017">
        <ele>87</ele>
        <time>2025-10-25T12:50:45Z</time>
      </trkpt>
      <trkpt lat="48.61232" lon="2.12015">
        <ele>87</ele>
        <time>2025-10-25T12:50:47Z</time>
      </trkpt>
      <trkpt lat="48.61236" lon="2.12014">
        <ele>86.8</ele>
        <time>2025-10-25T12:50:49Z</time>
      </trkpt>
      <trkpt lat="48.61239" lon="2.12012">
        <ele>86.8</ele>
        <time>2025-10-25T12:50:51Z</time>
      </trkpt>
      <trkpt lat="48.61242" lon="2.1201">
        <ele>86.8</ele>
        <time>2025-10-25T12:50:53Z</time>
      </trkpt>
      <trkpt lat="48.61244" lon="2.12008">
        <ele>86.6</ele>
        <time>2025-10-25T12:50:55Z</time>
      </trkpt>
      <trkpt lat="48.61247" lon="2.12006">
        <ele>86.6</ele>
        <time>2025-10-25T12:50:57Z</time>
      </trkpt>
      <trkpt lat="48.6125" lon="2.12004">
        <ele>86.4</ele>
        <time>2025-10-25T12:50:59Z</time>
      </trkpt>
      <trkpt lat="48.61252" lon="2.12002">
        <ele>86.2</ele>
        <time>2025-10-25T12:51:01Z</time>
      </trkpt>
      <trkpt lat="48.61254" lon="2.12">
        <ele>86</ele>
        <time>2025-10-25T12:51:03Z</time>
      </trkpt>
      <trkpt lat="48.61257" lon="2.11998">
        <ele>85.8</ele>
        <time>2025-10-25T12:51:05Z</time>
      </trkpt>
      <trkpt lat="48.61259" lon="2.11996">
        <ele>85.6</ele>
        <time>2025-10-25T12:51:07Z</time>
      </trkpt>
      <trkpt lat="48.61261" lon="2.11994">
        <ele>85.6</ele>
        <time>2025-10-25T12:51:09Z</time>
      </trkpt>
      <trkpt lat="48.61264" lon="2.11992">
        <ele>85.6</ele>
        <time>2025-10-25T12:51:11Z</time>
      </trkpt>
      <trkpt lat="48.61266" lon="2.1199">
        <ele>85.6</ele>
        <time>2025-10-25T12:51:13Z</time>
      </trkpt>
      <trkpt lat="48.61268" lon="2.11988">
        <ele>85.6</ele>
        <time>2025-10-25T12:51:15Z</time>
      </trkpt>
      <trkpt lat="48.6127" lon="2.11986">
        <ele>85.8</ele>
        <time>2025-10-25T12:51:17Z</time>
      </trkpt>
      <trkpt lat="48.61273" lon="2.11984">
        <ele>85.8</ele>
        <time>2025-10-25T12:51:19Z</time>
      </trkpt>
      <trkpt lat="48.61275" lon="2.11982">
        <ele>86</ele>
        <time>2025-10-25T12:51:21Z</time>
      </trkpt>
      <trkpt lat="48.61277" lon="2.11979">
        <ele>86.2</ele>
        <time>2025-10-25T12:51:23Z</time>
      </trkpt>
      <trkpt lat="48.61279" lon="2.11977">
        <ele>86.4</ele>
        <time>2025-10-25T12:51:25Z</time>
      </trkpt>
      <trkpt lat="48.61281" lon="2.11974">
        <ele>86.4</ele>
        <time>2025-10-25T12:51:27Z</time>
      </trkpt>
      <trkpt lat="48.61282" lon="2.11972">
        <ele>86.4</ele>
        <time>2025-10-25T12:51:29Z</time>
      </trkpt>
      <trkpt lat="48.61284" lon="2.1197">
        <ele>86.4</ele>
        <time>2025-10-25T12:51:31Z</time>
      </trkpt>
      <trkpt lat="48.61286" lon="2.11967">
        <ele>86.4</ele>
        <time>2025-10-25T12:51:33Z</time>
      </trkpt>
      <trkpt lat="48.61288" lon="2.11964">
        <ele>86.4</ele>
        <time>2025-10-25T12:51:35Z</time>
      </trkpt>
      <trkpt lat="48.6129" lon="2.11962">
        <ele>86.4</ele>
        <time>2025-10-25T12:51:37Z</time>
      </trkpt>
      <trkpt lat="48.61293" lon="2.11959">
        <ele>86.6</ele>
        <time>2025-10-25T12:51:39Z</time>
      </trkpt>
      <trkpt lat="48.61294" lon="2.11957">
        <ele>86.6</ele>
        <time>2025-10-25T12:51:41Z</time>
      </trkpt>
      <trkpt lat="48.61296" lon="2.11955">
        <ele>86.6</ele>
        <time>2025-10-25T12:51:43Z</time>
      </trkpt>
      <trkpt lat="48.61298" lon="2.11952">
        <ele>86.4</ele>
        <time>2025-10-25T12:51:46Z</time>
      </trkpt>
      <trkpt lat="48.613" lon="2.1195">
        <ele>86.2</ele>
        <time>2025-10-25T12:51:48Z</time>
      </trkpt>
      <trkpt lat="48.61302" lon="2.11948">
        <ele>86.2</ele>
        <time>2025-10-25T12:51:50Z</time>
      </trkpt>
      <trkpt lat="48.61305" lon="2.11946">
        <ele>86.4</ele>
        <time>2025-10-25T12:51:52Z</time>
      </trkpt>
      <trkpt lat="48.61307" lon="2.11944">
        <ele>86.4</ele>
        <time>2025-10-25T12:51:54Z</time>
      </trkpt>
      <trkpt lat="48.6131" lon="2.11941">
        <ele>86.4</ele>
        <time>2025-10-25T12:51:56Z</time>
      </trkpt>
      <trkpt lat="48.61343" lon="2.11886">
        <ele>87</ele>
        <time>2025-10-25T12:52:32Z</time>
      </trkpt>
      <trkpt lat="48.61346" lon="2.11884">
        <ele>87</ele>
        <time>2025-10-25T12:52:34Z</time>
      </trkpt>
      <trkpt lat="48.61348" lon="2.11883">
        <ele>87.2</ele>
        <time>2025-10-25T12:52:35Z</time>
      </trkpt>
      <trkpt lat="48.61351" lon="2.11881">
        <ele>87.2</ele>
        <time>2025-10-25T12:52:37Z</time>
      </trkpt>
      <trkpt lat="48.61354" lon="2.1188">
        <ele>87.4</ele>
        <time>2025-10-25T12:52:39Z</time>
      </trkpt>
      <trkpt lat="48.61356" lon="2.11879">
        <ele>87.6</ele>
        <time>2025-10-25T12:52:41Z</time>
      </trkpt>
      <trkpt lat="48.61359" lon="2.11877">
        <ele>87.6</ele>
        <time>2025-10-25T12:52:43Z</time>
      </trkpt>
      <trkpt lat="48.61361" lon="2.11876">
        <ele>87.6</ele>
        <time>2025-10-25T12:52:45Z</time>
      </trkpt>
      <trkpt lat="48.61363" lon="2.11874">
        <ele>87.6</ele>
        <time>2025-10-25T12:52:47Z</time>
      </trkpt>
      <trkpt lat="48.61412" lon="2.11821">
        <ele>88.2</ele>
        <time>2025-10-25T12:53:28Z</time>
      </trkpt>
      <trkpt lat="48.61414" lon="2.11821">
        <ele>88.4</ele>
        <time>2025-10-25T12:53:29Z</time>
      </trkpt>
      <trkpt lat="48.61416" lon="2.11821">
        <ele>88.4</ele>
        <time>2025-10-25T12:53:30Z</time>
      </trkpt>
      <trkpt lat="48.61419" lon="2.11821">
        <ele>88.6</ele>
        <time>2025-10-25T12:53:32Z</time>
      </trkpt>
      <trkpt lat="48.61422" lon="2.1182">
        <ele>89</ele>
        <time>2025-10-25T12:53:34Z</time>
      </trkpt>
      <trkpt lat="48.61425" lon="2.11819">
        <ele>89.2</ele>
        <time>2025-10-25T12:53:36Z</time>
      </trkpt>
      <trkpt lat="48.61428" lon="2.11817">
        <ele>89.2</ele>
        <time>2025-10-25T12:53:38Z</time>
      </trkpt>
      <trkpt lat="48.61431" lon="2.11816">
        <ele>89.2</ele>
        <time>2025-10-25T12:53:40Z</time>
      </trkpt>
      <trkpt lat="48.61433" lon="2.11814">
        <ele>89</ele>
        <time>2025-10-25T12:53:42Z</time>
      </trkpt>
      <trkpt lat="48.61435" lon="2.11812">
        <ele>89</ele>
        <time>2025-10-25T12:53:44Z</time>
      </trkpt>
      <trkpt lat="48.61438" lon="2.1181">
        <ele>88.8</ele>
        <time>2025-10-25T12:53:46Z</time>
      </trkpt>
      <trkpt lat="48.6144" lon="2.11808">
        <ele>88.8</ele>
        <time>2025-10-25T12:53:48Z</time>
      </trkpt>
      <trkpt lat="48.61443" lon="2.11807">
        <ele>88.8</ele>
        <time>2025-10-25T12:53:50Z</time>
      </trkpt>
      <trkpt lat="48.61445" lon="2.11805">
        <ele>88.6</ele>
        <time>2025-10-25T12:53:52Z</time>
      </trkpt>
      <trkpt lat="48.61448" lon="2.11803">
        <ele>88.6</ele>
        <time>2025-10-25T12:53:54Z</time>
      </trkpt>
      <trkpt lat="48.6145" lon="2.11802">
        <ele>88.6</ele>
        <time>2025-10-25T12:53:56Z</time>
      </trkpt>
      <trkpt lat="48.61452" lon="2.118">
        <ele>88.8</ele>
        <time>2025-10-25T12:53:58Z</time>
      </trkpt>
      <trkpt lat="48.61454" lon="2.11799">
        <ele>89</ele>
        <time>2025-10-25T12:54:00Z</time>
      </trkpt>
      <trkpt lat="48.61457" lon="2.11797">
        <ele>89</ele>
        <time>2025-10-25T12:54:02Z</time>
      </trkpt>
      <trkpt lat="48.61459" lon="2.11795">
        <ele>89</ele>
        <time>2025-10-25T12:54:04Z</time>
      </trkpt>
      <trkpt lat="48.61462" lon="2.11793">
        <ele>89</ele>
        <time>2025-10-25T12:54:06Z</time>
      </trkpt>
      <trkpt lat="48.61464" lon="2.11792">
        <ele>89</ele>
        <time>2025-10-25T12:54:08Z</time>
      </trkpt>
      <trkpt lat="48.61467" lon="2.11791">
        <ele>89</ele>
        <time>2025-10-25T12:54:10Z</time>
      </trkpt>
      <trkpt lat="48.61469" lon="2.1179">
        <ele>88.8</ele>
        <time>2025-10-25T12:54:12Z</time>
      </trkpt>
      <trkpt lat="48.61472" lon="2.11789">
        <ele>88.6</ele>
        <time>2025-10-25T12:54:14Z</time>
      </trkpt>
      <trkpt lat="48.61475" lon="2.11789">
        <ele>88.4</ele>
        <time>2025-10-25T12:54:18Z</time>
      </trkpt>
      <trkpt lat="48.61477" lon="2.11788">
        <ele>88.2</ele>
        <time>2025-10-25T12:54:23Z</time>
      </trkpt>
      <trkpt lat="48.61479" lon="2.11788">
        <ele>88.2</ele>
        <time>2025-10-25T12:54:26Z</time>
      </trkpt>
      <trkpt lat="48.61481" lon="2.11789">
        <ele>88.4</ele>
        <time>2025-10-25T12:54:28Z</time>
      </trkpt>
      <trkpt lat="48.61484" lon="2.11789">
        <ele>88.4</ele>
        <time>2025-10-25T12:54:30Z</time>
      </trkpt>
      <trkpt lat="48.61486" lon="2.1179">
        <ele>88.4</ele>
        <time>2025-10-25T12:54:32Z</time>
      </trkpt>
      <trkpt lat="48.61488" lon="2.11791">
        <ele>88.4</ele>
        <time>2025-10-25T12:54:34Z</time>
      </trkpt>
      <trkpt lat="48.61491" lon="2.11792">
        <ele>88.2</ele>
        <time>2025-10-25T12:54:36Z</time>
      </trkpt>
      <trkpt lat="48.61493" lon="2.11793">
        <ele>88</ele>
        <time>2025-10-25T12:54:38Z</time>
      </trkpt>
      <trkpt lat="48.61496" lon="2.11794">
        <ele>88</ele>
        <time>2025-10-25T12:54:40Z</time>
      </trkpt>
      <trkpt lat="48.61499" lon="2.11794">
        <ele>88</ele>
        <time>2025-10-25T12:54:42Z</time>
      </trkpt>
      <trkpt lat="48.615" lon="2.11793">
        <ele>88</ele>
        <time>2025-10-25T12:54:44Z</time>
      </trkpt>
      <trkpt lat="48.61502" lon="2.11791">
        <ele>88</ele>
        <time>2025-10-25T12:54:46Z</time>
      </trkpt>
      <trkpt lat="48.61502" lon="2.11787">
        <ele>88</ele>
        <time>2025-10-25T12:54:48Z</time>
      </trkpt>
      <trkpt lat="48.61502" lon="2.11784">
        <ele>88</ele>
        <time>2025-10-25T12:54:50Z</time>
      </trkpt>
      <trkpt lat="48.615" lon="2.1178">
        <ele>88.2</ele>
        <time>2025-10-25T12:54:52Z</time>
      </trkpt>
      <trkpt lat="48.615" lon="2.11777">
        <ele>88.4</ele>
        <time>2025-10-25T12:54:54Z</time>
      </trkpt>
      <trkpt lat="48.61498" lon="2.11773">
        <ele>88.4</ele>
        <time>2025-10-25T12:54:56Z</time>
      </trkpt>
      <trkpt lat="48.61496" lon="2.1177">
        <ele>88.2</ele>
        <time>2025-10-25T12:54:58Z</time>
      </trkpt>
      <trkpt lat="48.61495" lon="2.11766">
        <ele>88.4</ele>
        <time>2025-10-25T12:55:00Z</time>
      </trkpt>
      <trkpt lat="48.61494" lon="2.11762">
        <ele>88.4</ele>
        <time>2025-10-25T12:55:02Z</time>
      </trkpt>
      <trkpt lat="48.61492" lon="2.11758">
        <ele>88.4</ele>
        <time>2025-10-25T12:55:04Z</time>
      </trkpt>
      <trkpt lat="48.61491" lon="2.11755">
        <ele>88.4</ele>
        <time>2025-10-25T12:55:06Z</time>
      </trkpt>
      <trkpt lat="48.6149" lon="2.11751">
        <ele>88.4</ele>
        <time>2025-10-25T12:55:08Z</time>
      </trkpt>
      <trkpt lat="48.61488" lon="2.11747">
        <ele>88.4</ele>
        <time>2025-10-25T12:55:10Z</time>
      </trkpt>
      <trkpt lat="48.61487" lon="2.11744">
        <ele>88.2</ele>
        <time>2025-10-25T12:55:12Z</time>
      </trkpt>
      <trkpt lat="48.61486" lon="2.1174">
        <ele>88.2</ele>
        <time>2025-10-25T12:55:14Z</time>
      </trkpt>
      <trkpt lat="48.61485" lon="2.11736">
        <ele>88.2</ele>
        <time>2025-10-25T12:55:16Z</time>
      </trkpt>
      <trkpt lat="48.61484" lon="2.11732">
        <ele>88.4</ele>
        <time>2025-10-25T12:55:18Z</time>
      </trkpt>
      <trkpt lat="48.61484" lon="2.11728">
        <ele>88.4</ele>
        <time>2025-10-25T12:55:20Z</time>
      </trkpt>
      <trkpt lat="48.61483" lon="2.11724">
        <ele>88.4</ele>
        <time>2025-10-25T12:55:22Z</time>
      </trkpt>
      <trkpt lat="48.61482" lon="2.1172">
        <ele>88.4</ele>
        <time>2025-10-25T12:55:24Z</time>
      </trkpt>
      <trkpt lat="48.61482" lon="2.11715">
        <ele>88.2</ele>
        <time>2025-10-25T12:55:26Z</time>
      </trkpt>
      <trkpt lat="48.61481" lon="2.1171">
        <ele>88</ele>
        <time>2025-10-25T12:55:28Z</time>
      </trkpt>
      <trkpt lat="48.61481" lon="2.11707">
        <ele>88</ele>
        <time>2025-10-25T12:55:29Z</time>
      </trkpt>
      <trkpt lat="48.6148" lon="2.11704">
        <ele>88</ele>
        <time>2025-10-25T12:55:30Z</time>
      </trkpt>
      <trkpt lat="48.6148" lon="2.11701">
        <ele>88</ele>
        <time>2025-10-25T12:55:31Z</time>
      </trkpt>
      <trkpt lat="48.6148" lon="2.11698">
        <ele>88</ele>
        <time>2025-10-25T12:55:32Z</time>
      </trkpt>
      <trkpt lat="48.6148" lon="2.11695">
        <ele>87.8</ele>
        <time>2025-10-25T12:55:33Z</time>
      </trkpt>
      <trkpt lat="48.6148" lon="2.11692">
        <ele>87.8</ele>
        <time>2025-10-25T12:55:34Z</time>
      </trkpt>
      <trkpt lat="48.6148" lon="2.11687">
        <ele>87.6</ele>
        <time>2025-10-25T12:55:36Z</time>
      </trkpt>
      <trkpt lat="48.61479" lon="2.11683">
        <ele>87.6</ele>
        <time>2025-10-25T12:55:38Z</time>
      </trkpt>
      <trkpt lat="48.61479" lon="2.11679">
        <ele>87.4</ele>
        <time>2025-10-25T12:55:40Z</time>
      </trkpt>
      <trkpt lat="48.6148" lon="2.11675">
        <ele>87.4</ele>
        <time>2025-10-25T12:55:42Z</time>
      </trkpt>
      <trkpt lat="48.6148" lon="2.1167">
        <ele>87.2</ele>
        <time>2025-10-25T12:55:44Z</time>
      </trkpt>
      <trkpt lat="48.6148" lon="2.11667">
        <ele>87.2</ele>
        <time>2025-10-25T12:55:45Z</time>
      </trkpt>
      <trkpt lat="48.6148" lon="2.11664">
        <ele>87.2</ele>
        <time>2025-10-25T12:55:46Z</time>
      </trkpt>
      <trkpt lat="48.6148" lon="2.11661">
        <ele>87.4</ele>
        <time>2025-10-25T12:55:47Z</time>
      </trkpt>
      <trkpt lat="48.61479" lon="2.11659">
        <ele>87.4</ele>
        <time>2025-10-25T12:55:48Z</time>
      </trkpt>
      <trkpt lat="48.61479" lon="2.11654">
        <ele>87.6</ele>
        <time>2025-10-25T12:55:50Z</time>
      </trkpt>
      <trkpt lat="48.61479" lon="2.11649">
        <ele>87.6</ele>
        <time>2025-10-25T12:55:52Z</time>
      </trkpt>
      <trkpt lat="48.61478" lon="2.11645">
        <ele>87.8</ele>
        <time>2025-10-25T12:55:54Z</time>
      </trkpt>
      <trkpt lat="48.61478" lon="2.1164">
        <ele>87.8</ele>
        <time>2025-10-25T12:55:56Z</time>
      </trkpt>
      <trkpt lat="48.61477" lon="2.11636">
        <ele>87.8</ele>
        <time>2025-10-25T12:55:58Z</time>
      </trkpt>
      <trkpt lat="48.61477" lon="2.11632">
        <ele>88</ele>
        <time>2025-10-25T12:56:00Z</time>
      </trkpt>
      <trkpt lat="48.61477" lon="2.11627">
        <ele>88.2</ele>
        <time>2025-10-25T12:56:02Z</time>
      </trkpt>
      <trkpt lat="48.61477" lon="2.11622">
        <ele>88.2</ele>
        <time>2025-10-25T12:56:04Z</time>
      </trkpt>
      <trkpt lat="48.61477" lon="2.11617">
        <ele>88.4</ele>
        <time>2025-10-25T12:56:06Z</time>
      </trkpt>
      <trkpt lat="48.61476" lon="2.11613">
        <ele>88.6</ele>
        <time>2025-10-25T12:56:08Z</time>
      </trkpt>
      <trkpt lat="48.61476" lon="2.11609">
        <ele>88.8</ele>
        <time>2025-10-25T12:56:10Z</time>
      </trkpt>
      <trkpt lat="48.61477" lon="2.11605">
        <ele>89</ele>
        <time>2025-10-25T12:56:12Z</time>
      </trkpt>
      <trkpt lat="48.61477" lon="2.116">
        <ele>89</ele>
        <time>2025-10-25T12:56:14Z</time>
      </trkpt>
      <trkpt lat="48.61477" lon="2.11596">
        <ele>89</ele>
        <time>2025-10-25T12:56:16Z</time>
      </trkpt>
      <trkpt lat="48.61477" lon="2.11592">
        <ele>89</ele>
        <time>2025-10-25T12:56:18Z</time>
      </trkpt>
      <trkpt lat="48.61477" lon="2.11588">
        <ele>88.8</ele>
        <time>2025-10-25T12:56:20Z</time>
      </trkpt>
      <trkpt lat="48.61477" lon="2.11584">
        <ele>88.6</ele>
        <time>2025-10-25T12:56:22Z</time>
      </trkpt>
      <trkpt lat="48.61477" lon="2.1158">
        <ele>88.6</ele>
        <time>2025-10-25T12:56:24Z</time>
      </trkpt>
      <trkpt lat="48.61477" lon="2.11576">
        <ele>88.6</ele>
        <time>2025-10-25T12:56:26Z</time>
      </trkpt>
      <trkpt lat="48.61477" lon="2.11571">
        <ele>88.8</ele>
        <time>2025-10-25T12:56:28Z</time>
      </trkpt>
      <trkpt lat="48.61477" lon="2.11566">
        <ele>88.8</ele>
        <time>2025-10-25T12:56:30Z</time>
      </trkpt>
      <trkpt lat="48.61477" lon="2.11563">
        <ele>88.8</ele>
        <time>2025-10-25T12:56:31Z</time>
      </trkpt>
      <trkpt lat="48.61477" lon="2.11559">
        <ele>88.8</ele>
        <time>2025-10-25T12:56:32Z</time>
      </trkpt>
      <trkpt lat="48.61476" lon="2.11556">
        <ele>88.8</ele>
        <time>2025-10-25T12:56:33Z</time>
      </trkpt>
      <trkpt lat="48.61476" lon="2.11553">
        <ele>89</ele>
        <time>2025-10-25T12:56:34Z</time>
      </trkpt>
      <trkpt lat="48.61476" lon="2.1155">
        <ele>89</ele>
        <time>2025-10-25T12:56:35Z</time>
      </trkpt>
      <trkpt lat="48.61476" lon="2.11547">
        <ele>89</ele>
        <time>2025-10-25T12:56:36Z</time>
      </trkpt>
      <trkpt lat="48.61476" lon="2.11544">
        <ele>89.2</ele>
        <time>2025-10-25T12:56:37Z</time>
      </trkpt>
      <trkpt lat="48.61476" lon="2.11539">
        <ele>89.2</ele>
        <time>2025-10-25T12:56:39Z</time>
      </trkpt>
      <trkpt lat="48.61476" lon="2.11535">
        <ele>89.2</ele>
        <time>2025-10-25T12:56:41Z</time>
      </trkpt>
      <trkpt lat="48.61476" lon="2.11532">
        <ele>89</ele>
        <time>2025-10-25T12:56:43Z</time>
      </trkpt>
      <trkpt lat="48.61476" lon="2.11528">
        <ele>89</ele>
        <time>2025-10-25T12:56:45Z</time>
      </trkpt>
      <trkpt lat="48.61476" lon="2.11524">
        <ele>89</ele>
        <time>2025-10-25T12:56:47Z</time>
      </trkpt>
      <trkpt lat="48.61475" lon="2.11519">
        <ele>89</ele>
        <time>2025-10-25T12:56:49Z</time>
      </trkpt>
      <trkpt lat="48.61476" lon="2.11515">
        <ele>89</ele>
        <time>2025-10-25T12:56:51Z</time>
      </trkpt>
      <trkpt lat="48.61475" lon="2.1151">
        <ele>89.2</ele>
        <time>2025-10-25T12:56:53Z</time>
      </trkpt>
      <trkpt lat="48.61475" lon="2.11505">
        <ele>89.2</ele>
        <time>2025-10-25T12:56:55Z</time>
      </trkpt>
      <trkpt lat="48.61475" lon="2.11501">
        <ele>89.4</ele>
        <time>2025-10-25T12:56:57Z</time>
      </trkpt>
      <trkpt lat="48.61474" lon="2.11496">
        <ele>89.4</ele>
        <time>2025-10-25T12:56:59Z</time>
      </trkpt>
      <trkpt lat="48.61474" lon="2.11492">
        <ele>89.4</ele>
        <time>2025-10-25T12:57:01Z</time>
      </trkpt>
      <trkpt lat="48.61473" lon="2.11488">
        <ele>89.6</ele>
        <time>2025-10-25T12:57:03Z</time>
      </trkpt>
      <trkpt lat="48.61472" lon="2.11483">
        <ele>89.6</ele>
        <time>2025-10-25T12:57:05Z</time>
      </trkpt>
      <trkpt lat="48.61472" lon="2.11479">
        <ele>89.6</ele>
        <time>2025-10-25T12:57:07Z</time>
      </trkpt>
      <trkpt lat="48.61471" lon="2.11475">
        <ele>89.8</ele>
        <time>2025-10-25T12:57:09Z</time>
      </trkpt>
      <trkpt lat="48.6147" lon="2.11471">
        <ele>90</ele>
        <time>2025-10-25T12:57:11Z</time>
      </trkpt>
      <trkpt lat="48.61469" lon="2.11467">
        <ele>90</ele>
        <time>2025-10-25T12:57:13Z</time>
      </trkpt>
      <trkpt lat="48.61468" lon="2.11463">
        <ele>90</ele>
        <time>2025-10-25T12:57:15Z</time>
      </trkpt>
      <trkpt lat="48.61468" lon="2.11459">
        <ele>90</ele>
        <time>2025-10-25T12:57:17Z</time>
      </trkpt>
      <trkpt lat="48.61466" lon="2.11455">
        <ele>90</ele>
        <time>2025-10-25T12:57:19Z</time>
      </trkpt>
      <trkpt lat="48.61466" lon="2.11452">
        <ele>90</ele>
        <time>2025-10-25T12:57:21Z</time>
      </trkpt>
      <trkpt lat="48.61464" lon="2.11448">
        <ele>90</ele>
        <time>2025-10-25T12:57:23Z</time>
      </trkpt>
      <trkpt lat="48.61463" lon="2.11444">
        <ele>90</ele>
        <time>2025-10-25T12:57:25Z</time>
      </trkpt>
      <trkpt lat="48.61462" lon="2.1144">
        <ele>90.2</ele>
        <time>2025-10-25T12:57:27Z</time>
      </trkpt>
      <trkpt lat="48.61462" lon="2.11436">
        <ele>90.4</ele>
        <time>2025-10-25T12:57:29Z</time>
      </trkpt>
      <trkpt lat="48.61461" lon="2.11432">
        <ele>90.4</ele>
        <time>2025-10-25T12:57:31Z</time>
      </trkpt>
      <trkpt lat="48.6146" lon="2.11428">
        <ele>90.4</ele>
        <time>2025-10-25T12:57:33Z</time>
      </trkpt>
      <trkpt lat="48.61459" lon="2.11423">
        <ele>90.4</ele>
        <time>2025-10-25T12:57:35Z</time>
      </trkpt>
      <trkpt lat="48.61458" lon="2.11418">
        <ele>90.6</ele>
        <time>2025-10-25T12:57:37Z</time>
      </trkpt>
      <trkpt lat="48.61457" lon="2.11415">
        <ele>90.6</ele>
        <time>2025-10-25T12:57:38Z</time>
      </trkpt>
      <trkpt lat="48.61457" lon="2.11412">
        <ele>90.8</ele>
        <time>2025-10-25T12:57:39Z</time>
      </trkpt>
      <trkpt lat="48.61456" lon="2.1141">
        <ele>90.8</ele>
        <time>2025-10-25T12:57:40Z</time>
      </trkpt>
      <trkpt lat="48.61456" lon="2.11407">
        <ele>91</ele>
        <time>2025-10-25T12:57:41Z</time>
      </trkpt>
      <trkpt lat="48.61455" lon="2.11404">
        <ele>91.2</ele>
        <time>2025-10-25T12:57:42Z</time>
      </trkpt>
      <trkpt lat="48.61454" lon="2.11399">
        <ele>91.2</ele>
        <time>2025-10-25T12:57:44Z</time>
      </trkpt>
      <trkpt lat="48.61454" lon="2.11395">
        <ele>91.4</ele>
        <time>2025-10-25T12:57:46Z</time>
      </trkpt>
      <trkpt lat="48.61453" lon="2.11391">
        <ele>91.6</ele>
        <time>2025-10-25T12:57:48Z</time>
      </trkpt>
      <trkpt lat="48.61452" lon="2.11387">
        <ele>91.6</ele>
        <time>2025-10-25T12:57:50Z</time>
      </trkpt>
      <trkpt lat="48.61452" lon="2.11383">
        <ele>91.8</ele>
        <time>2025-10-25T12:57:52Z</time>
      </trkpt>
      <trkpt lat="48.61451" lon="2.11379">
        <ele>91.8</ele>
        <time>2025-10-25T12:57:54Z</time>
      </trkpt>
      <trkpt lat="48.6145" lon="2.11376">
        <ele>92</ele>
        <time>2025-10-25T12:57:56Z</time>
      </trkpt>
      <trkpt lat="48.61449" lon="2.11372">
        <ele>92.2</ele>
        <time>2025-10-25T12:57:58Z</time>
      </trkpt>
      <trkpt lat="48.61448" lon="2.11367">
        <ele>92.2</ele>
        <time>2025-10-25T12:58:00Z</time>
      </trkpt>
      <trkpt lat="48.61448" lon="2.11363">
        <ele>92.2</ele>
        <time>2025-10-25T12:58:02Z</time>
      </trkpt>
      <trkpt lat="48.61447" lon="2.11359">
        <ele>92.4</ele>
        <time>2025-10-25T12:58:04Z</time>
      </trkpt>
      <trkpt lat="48.61447" lon="2.11354">
        <ele>92.4</ele>
        <time>2025-10-25T12:58:06Z</time>
      </trkpt>
      <trkpt lat="48.61447" lon="2.1135">
        <ele>92.4</ele>
        <time>2025-10-25T12:58:08Z</time>
      </trkpt>
      <trkpt lat="48.61447" lon="2.11345">
        <ele>92.4</ele>
        <time>2025-10-25T12:58:10Z</time>
      </trkpt>
      <trkpt lat="48.61447" lon="2.11341">
        <ele>92.2</ele>
        <time>2025-10-25T12:58:12Z</time>
      </trkpt>
      <trkpt lat="48.61447" lon="2.11335">
        <ele>92.4</ele>
        <time>2025-10-25T12:58:14Z</time>
      </trkpt>
      <trkpt lat="48.61447" lon="2.11333">
        <ele>92.4</ele>
        <time>2025-10-25T12:58:15Z</time>
      </trkpt>
      <trkpt lat="48.61447" lon="2.1133">
        <ele>92.4</ele>
        <time>2025-10-25T12:58:16Z</time>
      </trkpt>
      <trkpt lat="48.61447" lon="2.11327">
        <ele>92.6</ele>
        <time>2025-10-25T12:58:17Z</time>
      </trkpt>
      <trkpt lat="48.61447" lon="2.11322">
        <ele>92.6</ele>
        <time>2025-10-25T12:58:19Z</time>
      </trkpt>
      <trkpt lat="48.61447" lon="2.11317">
        <ele>92.6</ele>
        <time>2025-10-25T12:58:21Z</time>
      </trkpt>
      <trkpt lat="48.61447" lon="2.11312">
        <ele>92.6</ele>
        <time>2025-10-25T12:58:23Z</time>
      </trkpt>
      <trkpt lat="48.61446" lon="2.11308">
        <ele>92.6</ele>
        <time>2025-10-25T12:58:25Z</time>
      </trkpt>
      <trkpt lat="48.61446" lon="2.11304">
        <ele>92.6</ele>
        <time>2025-10-25T12:58:27Z</time>
      </trkpt>
      <trkpt lat="48.61446" lon="2.11301">
        <ele>92.8</ele>
        <time>2025-10-25T12:58:29Z</time>
      </trkpt>
      <trkpt lat="48.61446" lon="2.11297">
        <ele>93</ele>
        <time>2025-10-25T12:58:31Z</time>
      </trkpt>
      <trkpt lat="48.61446" lon="2.11293">
        <ele>93</ele>
        <time>2025-10-25T12:58:33Z</time>
      </trkpt>
      <trkpt lat="48.61446" lon="2.11289">
        <ele>93</ele>
        <time>2025-10-25T12:58:35Z</time>
      </trkpt>
      <trkpt lat="48.61445" lon="2.11285">
        <ele>93.2</ele>
        <time>2025-10-25T12:58:37Z</time>
      </trkpt>
      <trkpt lat="48.61445" lon="2.11281">
        <ele>93.2</ele>
        <time>2025-10-25T12:58:39Z</time>
      </trkpt>
      <trkpt lat="48.61446" lon="2.11277">
        <ele>93.4</ele>
        <time>2025-10-25T12:58:41Z</time>
      </trkpt>
      <trkpt lat="48.61446" lon="2.11273">
        <ele>93.4</ele>
        <time>2025-10-25T12:58:43Z</time>
      </trkpt>
      <trkpt lat="48.61446" lon="2.11268">
        <ele>93.6</ele>
        <time>2025-10-25T12:58:45Z</time>
      </trkpt>
      <trkpt lat="48.61446" lon="2.11264">
        <ele>93.6</ele>
        <time>2025-10-25T12:58:47Z</time>
      </trkpt>
      <trkpt lat="48.61447" lon="2.1126">
        <ele>93.8</ele>
        <time>2025-10-25T12:58:49Z</time>
      </trkpt>
      <trkpt lat="48.61448" lon="2.11256">
        <ele>94</ele>
        <time>2025-10-25T12:58:51Z</time>
      </trkpt>
      <trkpt lat="48.61448" lon="2.11253">
        <ele>94</ele>
        <time>2025-10-25T12:58:53Z</time>
      </trkpt>
      <trkpt lat="48.61449" lon="2.1125">
        <ele>94</ele>
        <time>2025-10-25T12:58:55Z</time>
      </trkpt>
      <trkpt lat="48.6145" lon="2.11246">
        <ele>94</ele>
        <time>2025-10-25T12:58:57Z</time>
      </trkpt>
      <trkpt lat="48.61451" lon="2.11242">
        <ele>94.2</ele>
        <time>2025-10-25T12:58:59Z</time>
      </trkpt>
      <trkpt lat="48.61452" lon="2.11239">
        <ele>94.4</ele>
        <time>2025-10-25T12:59:01Z</time>
      </trkpt>
      <trkpt lat="48.61453" lon="2.11236">
        <ele>94.6</ele>
        <time>2025-10-25T12:59:03Z</time>
      </trkpt>
      <trkpt lat="48.61454" lon="2.11233">
        <ele>94.8</ele>
        <time>2025-10-25T12:59:05Z</time>
      </trkpt>
      <trkpt lat="48.61455" lon="2.11229">
        <ele>95</ele>
        <time>2025-10-25T12:59:07Z</time>
      </trkpt>
      <trkpt lat="48.61456" lon="2.11225">
        <ele>95</ele>
        <time>2025-10-25T12:59:09Z</time>
      </trkpt>
      <trkpt lat="48.61457" lon="2.11221">
        <ele>95</ele>
        <time>2025-10-25T12:59:11Z</time>
      </trkpt>
      <trkpt lat="48.61458" lon="2.11217">
        <ele>95</ele>
        <time>2025-10-25T12:59:13Z</time>
      </trkpt>
      <trkpt lat="48.61459" lon="2.11213">
        <ele>95</ele>
        <time>2025-10-25T12:59:15Z</time>
      </trkpt>
      <trkpt lat="48.6146" lon="2.11209">
        <ele>95.2</ele>
        <time>2025-10-25T12:59:17Z</time>
      </trkpt>
      <trkpt lat="48.61461" lon="2.11204">
        <ele>95.4</ele>
        <time>2025-10-25T12:59:19Z</time>
      </trkpt>
      <trkpt lat="48.61462" lon="2.112">
        <ele>95.6</ele>
        <time>2025-10-25T12:59:21Z</time>
      </trkpt>
      <trkpt lat="48.61463" lon="2.11196">
        <ele>95.6</ele>
        <time>2025-10-25T12:59:23Z</time>
      </trkpt>
      <trkpt lat="48.61464" lon="2.11191">
        <ele>95.8</ele>
        <time>2025-10-25T12:59:25Z</time>
      </trkpt>
      <trkpt lat="48.61464" lon="2.11187">
        <ele>95.8</ele>
        <time>2025-10-25T12:59:27Z</time>
      </trkpt>
      <trkpt lat="48.61464" lon="2.11183">
        <ele>96</ele>
        <time>2025-10-25T12:59:29Z</time>
      </trkpt>
      <trkpt lat="48.61464" lon="2.11179">
        <ele>96.2</ele>
        <time>2025-10-25T12:59:31Z</time>
      </trkpt>
      <trkpt lat="48.61465" lon="2.11175">
        <ele>96.2</ele>
        <time>2025-10-25T12:59:33Z</time>
      </trkpt>
      <trkpt lat="48.61465" lon="2.1117">
        <ele>96.4</ele>
        <time>2025-10-25T12:59:35Z</time>
      </trkpt>
      <trkpt lat="48.61465" lon="2.11166">
        <ele>96.6</ele>
        <time>2025-10-25T12:59:37Z</time>
      </trkpt>
      <trkpt lat="48.61465" lon="2.11161">
        <ele>96.8</ele>
        <time>2025-10-25T12:59:39Z</time>
      </trkpt>
      <trkpt lat="48.61465" lon="2.11156">
        <ele>97</ele>
        <time>2025-10-25T12:59:41Z</time>
      </trkpt>
      <trkpt lat="48.61465" lon="2.11152">
        <ele>97.2</ele>
        <time>2025-10-25T12:59:43Z</time>
      </trkpt>
      <trkpt lat="48.61465" lon="2.11148">
        <ele>97.4</ele>
        <time>2025-10-25T12:59:45Z</time>
      </trkpt>
      <trkpt lat="48.61465" lon="2.11145">
        <ele>97.6</ele>
        <time>2025-10-25T12:59:48Z</time>
      </trkpt>
      <trkpt lat="48.61466" lon="2.11143">
        <ele>97.4</ele>
        <time>2025-10-25T13:00:04Z</time>
      </trkpt>
      <trkpt lat="48.61466" lon="2.11139">
        <ele>96.8</ele>
        <time>2025-10-25T13:00:55Z</time>
      </trkpt>
      <trkpt lat="48.61466" lon="2.11136">
        <ele>97.2</ele>
        <time>2025-10-25T13:00:59Z</time>
      </trkpt>
      <trkpt lat="48.61465" lon="2.11133">
        <ele>97.8</ele>
        <time>2025-10-25T13:01:06Z</time>
      </trkpt>
      <trkpt lat="48.61465" lon="2.11129">
        <ele>98</ele>
        <time>2025-10-25T13:01:09Z</time>
      </trkpt>
      <trkpt lat="48.61465" lon="2.11126">
        <ele>98</ele>
        <time>2025-10-25T13:01:11Z</time>
      </trkpt>
      <trkpt lat="48.61466" lon="2.11123">
        <ele>98</ele>
        <time>2025-10-25T13:01:13Z</time>
      </trkpt>
      <trkpt lat="48.61467" lon="2.11119">
        <ele>98</ele>
        <time>2025-10-25T13:01:16Z</time>
      </trkpt>
      <trkpt lat="48.61468" lon="2.11116">
        <ele>98.2</ele>
        <time>2025-10-25T13:01:19Z</time>
      </trkpt>
      <trkpt lat="48.61468" lon="2.11113">
        <ele>98.2</ele>
        <time>2025-10-25T13:01:22Z</time>
      </trkpt>
      <trkpt lat="48.61469" lon="2.1111">
        <ele>98</ele>
        <time>2025-10-25T13:01:24Z</time>
      </trkpt>
      <trkpt lat="48.61468" lon="2.11107">
        <ele>98</ele>
        <time>2025-10-25T13:01:26Z</time>
      </trkpt>
      <trkpt lat="48.61469" lon="2.11104">
        <ele>98</ele>
        <time>2025-10-25T13:01:28Z</time>
      </trkpt>
      <trkpt lat="48.61469" lon="2.11101">
        <ele>98</ele>
        <time>2025-10-25T13:01:30Z</time>
      </trkpt>
      <trkpt lat="48.6147" lon="2.11098">
        <ele>98</ele>
        <time>2025-10-25T13:01:32Z</time>
      </trkpt>
      <trkpt lat="48.61472" lon="2.11095">
        <ele>97.8</ele>
        <time>2025-10-25T13:01:34Z</time>
      </trkpt>
      <trkpt lat="48.61474" lon="2.11092">
        <ele>97.6</ele>
        <time>2025-10-25T13:01:36Z</time>
      </trkpt>
      <trkpt lat="48.61475" lon="2.1109">
        <ele>97.4</ele>
        <time>2025-10-25T13:01:38Z</time>
      </trkpt>
      <trkpt lat="48.61477" lon="2.11087">
        <ele>97.4</ele>
        <time>2025-10-25T13:01:41Z</time>
      </trkpt>
      <trkpt lat="48.61478" lon="2.11084">
        <ele>97.2</ele>
        <time>2025-10-25T13:01:43Z</time>
      </trkpt>
      <trkpt lat="48.61479" lon="2.11082">
        <ele>97.2</ele>
        <time>2025-10-25T13:01:45Z</time>
      </trkpt>
      <trkpt lat="48.6148" lon="2.11079">
        <ele>97.2</ele>
        <time>2025-10-25T13:01:47Z</time>
      </trkpt>
      <trkpt lat="48.61482" lon="2.11077">
        <ele>97.2</ele>
        <time>2025-10-25T13:01:50Z</time>
      </trkpt>
      <trkpt lat="48.61483" lon="2.11075">
        <ele>97.4</ele>
        <time>2025-10-25T13:01:59Z</time>
      </trkpt>
      <trkpt lat="48.61484" lon="2.11073">
        <ele>97.6</ele>
        <time>2025-10-25T13:02:02Z</time>
      </trkpt>
      <trkpt lat="48.61486" lon="2.11071">
        <ele>97.6</ele>
        <time>2025-10-25T13:02:04Z</time>
      </trkpt>
      <trkpt lat="48.61487" lon="2.11068">
        <ele>97.6</ele>
        <time>2025-10-25T13:02:06Z</time>
      </trkpt>
      <trkpt lat="48.61488" lon="2.11065">
        <ele>97.8</ele>
        <time>2025-10-25T13:02:08Z</time>
      </trkpt>
      <trkpt lat="48.6149" lon="2.11061">
        <ele>98</ele>
        <time>2025-10-25T13:02:10Z</time>
      </trkpt>
      <trkpt lat="48.61491" lon="2.11058">
        <ele>98.2</ele>
        <time>2025-10-25T13:02:12Z</time>
      </trkpt>
      <trkpt lat="48.61494" lon="2.11055">
        <ele>98.4</ele>
        <time>2025-10-25T13:02:15Z</time>
      </trkpt>
      <trkpt lat="48.61495" lon="2.11052">
        <ele>98.4</ele>
        <time>2025-10-25T13:02:20Z</time>
      </trkpt>
      <trkpt lat="48.61496" lon="2.11049">
        <ele>98.4</ele>
        <time>2025-10-25T13:02:23Z</time>
      </trkpt>
      <trkpt lat="48.61498" lon="2.11046">
        <ele>98.4</ele>
        <time>2025-10-25T13:02:25Z</time>
      </trkpt>
      <trkpt lat="48.61499" lon="2.11043">
        <ele>98.4</ele>
        <time>2025-10-25T13:02:27Z</time>
      </trkpt>
      <trkpt lat="48.615" lon="2.1104">
        <ele>98.4</ele>
        <time>2025-10-25T13:02:29Z</time>
      </trkpt>
      <trkpt lat="48.61502" lon="2.11036">
        <ele>98.6</ele>
        <time>2025-10-25T13:02:31Z</time>
      </trkpt>
      <trkpt lat="48.61504" lon="2.11032">
        <ele>98.6</ele>
        <time>2025-10-25T13:02:33Z</time>
      </trkpt>
      <trkpt lat="48.61506" lon="2.11029">
        <ele>98.6</ele>
        <time>2025-10-25T13:02:35Z</time>
      </trkpt>
      <trkpt lat="48.61508" lon="2.11026">
        <ele>98.6</ele>
        <time>2025-10-25T13:02:37Z</time>
      </trkpt>
      <trkpt lat="48.61509" lon="2.11023">
        <ele>98.6</ele>
        <time>2025-10-25T13:02:39Z</time>
      </trkpt>
      <trkpt lat="48.61511" lon="2.1102">
        <ele>98.8</ele>
        <time>2025-10-25T13:02:41Z</time>
      </trkpt>
      <trkpt lat="48.61512" lon="2.11016">
        <ele>98.8</ele>
        <time>2025-10-25T13:02:43Z</time>
      </trkpt>
      <trkpt lat="48.61514" lon="2.11013">
        <ele>99</ele>
        <time>2025-10-25T13:02:45Z</time>
      </trkpt>
      <trkpt lat="48.61516" lon="2.11011">
        <ele>99</ele>
        <time>2025-10-25T13:02:47Z</time>
      </trkpt>
      <trkpt lat="48.61517" lon="2.11008">
        <ele>99.2</ele>
        <time>2025-10-25T13:02:49Z</time>
      </trkpt>
      <trkpt lat="48.61519" lon="2.11005">
        <ele>99.2</ele>
        <time>2025-10-25T13:02:51Z</time>
      </trkpt>
      <trkpt lat="48.6152" lon="2.11001">
        <ele>99.2</ele>
        <time>2025-10-25T13:02:53Z</time>
      </trkpt>
      <trkpt lat="48.61522" lon="2.10998">
        <ele>99.2</ele>
        <time>2025-10-25T13:02:55Z</time>
      </trkpt>
      <trkpt lat="48.61523" lon="2.10994">
        <ele>99.2</ele>
        <time>2025-10-25T13:02:57Z</time>
      </trkpt>
      <trkpt lat="48.61524" lon="2.10991">
        <ele>99.2</ele>
        <time>2025-10-25T13:02:59Z</time>
      </trkpt>
      <trkpt lat="48.61524" lon="2.10988">
        <ele>99.4</ele>
        <time>2025-10-25T13:03:01Z</time>
      </trkpt>
      <trkpt lat="48.61525" lon="2.10984">
        <ele>99.4</ele>
        <time>2025-10-25T13:03:04Z</time>
      </trkpt>
      <trkpt lat="48.61526" lon="2.10981">
        <ele>99.4</ele>
        <time>2025-10-25T13:03:11Z</time>
      </trkpt>
      <trkpt lat="48.61527" lon="2.10978">
        <ele>99.4</ele>
        <time>2025-10-25T13:03:14Z</time>
      </trkpt>
      <trkpt lat="48.61528" lon="2.10976">
        <ele>99.6</ele>
        <time>2025-10-25T13:03:16Z</time>
      </trkpt>
      <trkpt lat="48.61529" lon="2.10973">
        <ele>99.8</ele>
        <time>2025-10-25T13:03:18Z</time>
      </trkpt>
      <trkpt lat="48.6153" lon="2.1097">
        <ele>100</ele>
        <time>2025-10-25T13:03:20Z</time>
      </trkpt>
      <trkpt lat="48.6153" lon="2.10967">
        <ele>100.2</ele>
        <time>2025-10-25T13:03:22Z</time>
      </trkpt>
      <trkpt lat="48.61531" lon="2.10965">
        <ele>100.4</ele>
        <time>2025-10-25T13:03:24Z</time>
      </trkpt>
      <trkpt lat="48.61532" lon="2.10962">
        <ele>100.6</ele>
        <time>2025-10-25T13:03:27Z</time>
      </trkpt>
      <trkpt lat="48.61534" lon="2.10961">
        <ele>100.6</ele>
        <time>2025-10-25T13:03:30Z</time>
      </trkpt>
      <trkpt lat="48.61536" lon="2.10959">
        <ele>101</ele>
        <time>2025-10-25T13:03:35Z</time>
      </trkpt>
      <trkpt lat="48.61536" lon="2.10956">
        <ele>101</ele>
        <time>2025-10-25T13:03:37Z</time>
      </trkpt>
      <trkpt lat="48.61536" lon="2.10953">
        <ele>101.2</ele>
        <time>2025-10-25T13:03:39Z</time>
      </trkpt>
      <trkpt lat="48.61536" lon="2.10949">
        <ele>101.4</ele>
        <time>2025-10-25T13:03:41Z</time>
      </trkpt>
      <trkpt lat="48.61537" lon="2.10945">
        <ele>101.4</ele>
        <time>2025-10-25T13:03:43Z</time>
      </trkpt>
      <trkpt lat="48.61536" lon="2.10941">
        <ele>101.4</ele>
        <time>2025-10-25T13:03:45Z</time>
      </trkpt>
      <trkpt lat="48.61536" lon="2.10937">
        <ele>101.6</ele>
        <time>2025-10-25T13:03:47Z</time>
      </trkpt>
      <trkpt lat="48.61535" lon="2.10933">
        <ele>101.6</ele>
        <time>2025-10-25T13:03:49Z</time>
      </trkpt>
      <trkpt lat="48.61534" lon="2.10929">
        <ele>101.6</ele>
        <time>2025-10-25T13:03:51Z</time>
      </trkpt>
      <trkpt lat="48.61533" lon="2.10925">
        <ele>101.8</ele>
        <time>2025-10-25T13:03:53Z</time>
      </trkpt>
      <trkpt lat="48.61532" lon="2.10922">
        <ele>101.8</ele>
        <time>2025-10-25T13:03:55Z</time>
      </trkpt>
      <trkpt lat="48.61531" lon="2.10918">
        <ele>101.8</ele>
        <time>2025-10-25T13:03:57Z</time>
      </trkpt>
      <trkpt lat="48.6153" lon="2.10915">
        <ele>101.6</ele>
        <time>2025-10-25T13:03:59Z</time>
      </trkpt>
      <trkpt lat="48.61528" lon="2.10911">
        <ele>101.6</ele>
        <time>2025-10-25T13:04:01Z</time>
      </trkpt>
      <trkpt lat="48.61527" lon="2.10908">
        <ele>101.6</ele>
        <time>2025-10-25T13:04:03Z</time>
      </trkpt>
      <trkpt lat="48.61526" lon="2.10904">
        <ele>101.8</ele>
        <time>2025-10-25T13:04:05Z</time>
      </trkpt>
      <trkpt lat="48.61525" lon="2.109">
        <ele>102</ele>
        <time>2025-10-25T13:04:07Z</time>
      </trkpt>
      <trkpt lat="48.61524" lon="2.10897">
        <ele>102</ele>
        <time>2025-10-25T13:04:09Z</time>
      </trkpt>
      <trkpt lat="48.61524" lon="2.10893">
        <ele>102</ele>
        <time>2025-10-25T13:04:11Z</time>
      </trkpt>
      <trkpt lat="48.61522" lon="2.1089">
        <ele>102</ele>
        <time>2025-10-25T13:04:13Z</time>
      </trkpt>
      <trkpt lat="48.61521" lon="2.10886">
        <ele>102.2</ele>
        <time>2025-10-25T13:04:15Z</time>
      </trkpt>
      <trkpt lat="48.6152" lon="2.10883">
        <ele>102.2</ele>
        <time>2025-10-25T13:04:17Z</time>
      </trkpt>
      <trkpt lat="48.61518" lon="2.1088">
        <ele>102.2</ele>
        <time>2025-10-25T13:04:19Z</time>
      </trkpt>
      <trkpt lat="48.61516" lon="2.10877">
        <ele>102.4</ele>
        <time>2025-10-25T13:04:21Z</time>
      </trkpt>
      <trkpt lat="48.61515" lon="2.10874">
        <ele>102.4</ele>
        <time>2025-10-25T13:04:23Z</time>
      </trkpt>
      <trkpt lat="48.61512" lon="2.10871">
        <ele>102.4</ele>
        <time>2025-10-25T13:04:25Z</time>
      </trkpt>
      <trkpt lat="48.6151" lon="2.10868">
        <ele>102.4</ele>
        <time>2025-10-25T13:04:27Z</time>
      </trkpt>
      <trkpt lat="48.61508" lon="2.10866">
        <ele>102.4</ele>
        <time>2025-10-25T13:04:29Z</time>
      </trkpt>
      <trkpt lat="48.61507" lon="2.10863">
        <ele>102.6</ele>
        <time>2025-10-25T13:04:31Z</time>
      </trkpt>
      <trkpt lat="48.61505" lon="2.1086">
        <ele>102.6</ele>
        <time>2025-10-25T13:04:33Z</time>
      </trkpt>
      <trkpt lat="48.61504" lon="2.10858">
        <ele>102.6</ele>
        <time>2025-10-25T13:04:35Z</time>
      </trkpt>
      <trkpt lat="48.61502" lon="2.10855">
        <ele>102.6</ele>
        <time>2025-10-25T13:04:37Z</time>
      </trkpt>
      <trkpt lat="48.615" lon="2.10853">
        <ele>102.8</ele>
        <time>2025-10-25T13:04:39Z</time>
      </trkpt>
      <trkpt lat="48.61499" lon="2.1085">
        <ele>102.8</ele>
        <time>2025-10-25T13:04:41Z</time>
      </trkpt>
      <trkpt lat="48.61498" lon="2.10848">
        <ele>102.8</ele>
        <time>2025-10-25T13:04:43Z</time>
      </trkpt>
      <trkpt lat="48.61496" lon="2.10845">
        <ele>102.8</ele>
        <time>2025-10-25T13:04:45Z</time>
      </trkpt>
      <trkpt lat="48.61494" lon="2.10842">
        <ele>103</ele>
        <time>2025-10-25T13:04:47Z</time>
      </trkpt>
      <trkpt lat="48.61492" lon="2.10838">
        <ele>103</ele>
        <time>2025-10-25T13:04:49Z</time>
      </trkpt>
      <trkpt lat="48.6149" lon="2.10835">
        <ele>103</ele>
        <time>2025-10-25T13:04:51Z</time>
      </trkpt>
      <trkpt lat="48.61488" lon="2.10833">
        <ele>103</ele>
        <time>2025-10-25T13:04:52Z</time>
      </trkpt>
      <trkpt lat="48.61486" lon="2.1083">
        <ele>103</ele>
        <time>2025-10-25T13:04:54Z</time>
      </trkpt>
      <trkpt lat="48.61484" lon="2.10826">
        <ele>103</ele>
        <time>2025-10-25T13:04:56Z</time>
      </trkpt>
      <trkpt lat="48.61482" lon="2.10823">
        <ele>103</ele>
        <time>2025-10-25T13:04:58Z</time>
      </trkpt>
      <trkpt lat="48.61482" lon="2.10819">
        <ele>103</ele>
        <time>2025-10-25T13:05:00Z</time>
      </trkpt>
      <trkpt lat="48.61482" lon="2.10816">
        <ele>103</ele>
        <time>2025-10-25T13:05:02Z</time>
      </trkpt>
      <trkpt lat="48.61482" lon="2.10812">
        <ele>103</ele>
        <time>2025-10-25T13:05:04Z</time>
      </trkpt>
    </trkseg>
  </trk>
</gpx>